<?xml version="1.0" encoding="UTF-8" standalone="no" ?>
<gpx xmlns="http://www.topografix.com/GPX/1/1" xmlns:xsi="http://www.w3.org/2001/XMLSchema-instance" xsi:schemaLocation="http://www.topografix.com/GPX/1/1 http://www.topografix.com/GPX/1/1/gpx.xsd" version="1.1" creator="VisuGPX - https://www.visugpx.com">
  <metadata>
    <name>Crevant-Laveine Cyclisme</name>
  </metadata>
  <trk>
    <name><![CDATA[Crevant-Laveine Cyclisme_1]]></name>
    <trkseg>
      <trkpt lat="45.91339" lon="3.3735">
        <ele>317.2</ele>
        <time>2024-04-14T07:20:13Z</time>
      </trkpt>
      <trkpt lat="45.91339" lon="3.3735">
        <ele>317.2</ele>
        <time>2024-04-14T07:20:14Z</time>
      </trkpt>
      <trkpt lat="45.91339" lon="3.3735">
        <ele>317.2</ele>
        <time>2024-04-14T07:20:15Z</time>
      </trkpt>
      <trkpt lat="45.91342" lon="3.37349">
        <ele>317.2</ele>
        <time>2024-04-14T07:20:16Z</time>
      </trkpt>
      <trkpt lat="45.91349" lon="3.37346">
        <ele>317.2</ele>
        <time>2024-04-14T07:20:17Z</time>
      </trkpt>
      <trkpt lat="45.91354" lon="3.37344">
        <ele>317.2</ele>
        <time>2024-04-14T07:20:18Z</time>
      </trkpt>
      <trkpt lat="45.91358" lon="3.37342">
        <ele>317.2</ele>
        <time>2024-04-14T07:20:19Z</time>
      </trkpt>
      <trkpt lat="45.91363" lon="3.37341">
        <ele>317</ele>
        <time>2024-04-14T07:20:20Z</time>
      </trkpt>
      <trkpt lat="45.91367" lon="3.37339">
        <ele>317</ele>
        <time>2024-04-14T07:20:21Z</time>
      </trkpt>
      <trkpt lat="45.91371" lon="3.37338">
        <ele>317</ele>
        <time>2024-04-14T07:20:22Z</time>
      </trkpt>
      <trkpt lat="45.91381" lon="3.37338">
        <ele>316.8</ele>
        <time>2024-04-14T07:20:23Z</time>
      </trkpt>
      <trkpt lat="45.91384" lon="3.37346">
        <ele>316.8</ele>
        <time>2024-04-14T07:20:24Z</time>
      </trkpt>
      <trkpt lat="45.91386" lon="3.37353">
        <ele>316.6</ele>
        <time>2024-04-14T07:20:25Z</time>
      </trkpt>
      <trkpt lat="45.91389" lon="3.37361">
        <ele>316.4</ele>
        <time>2024-04-14T07:20:26Z</time>
      </trkpt>
      <trkpt lat="45.91391" lon="3.37369">
        <ele>316.2</ele>
        <time>2024-04-14T07:20:27Z</time>
      </trkpt>
      <trkpt lat="45.91394" lon="3.37376">
        <ele>316</ele>
        <time>2024-04-14T07:20:28Z</time>
      </trkpt>
      <trkpt lat="45.91396" lon="3.37383">
        <ele>316</ele>
        <time>2024-04-14T07:20:29Z</time>
      </trkpt>
      <trkpt lat="45.91399" lon="3.37391">
        <ele>316</ele>
        <time>2024-04-14T07:20:30Z</time>
      </trkpt>
      <trkpt lat="45.91401" lon="3.37397">
        <ele>315.8</ele>
        <time>2024-04-14T07:20:31Z</time>
      </trkpt>
      <trkpt lat="45.91403" lon="3.37404">
        <ele>315.6</ele>
        <time>2024-04-14T07:20:32Z</time>
      </trkpt>
      <trkpt lat="45.91406" lon="3.37411">
        <ele>315.6</ele>
        <time>2024-04-14T07:20:33Z</time>
      </trkpt>
      <trkpt lat="45.91408" lon="3.37417">
        <ele>315.6</ele>
        <time>2024-04-14T07:20:34Z</time>
      </trkpt>
      <trkpt lat="45.9141" lon="3.37424">
        <ele>315.4</ele>
        <time>2024-04-14T07:20:35Z</time>
      </trkpt>
      <trkpt lat="45.91412" lon="3.37431">
        <ele>315.4</ele>
        <time>2024-04-14T07:20:36Z</time>
      </trkpt>
      <trkpt lat="45.91414" lon="3.37436">
        <ele>315.4</ele>
        <time>2024-04-14T07:20:37Z</time>
      </trkpt>
      <trkpt lat="45.91416" lon="3.37442">
        <ele>315.4</ele>
        <time>2024-04-14T07:20:38Z</time>
      </trkpt>
      <trkpt lat="45.91418" lon="3.37448">
        <ele>315.2</ele>
        <time>2024-04-14T07:20:39Z</time>
      </trkpt>
      <trkpt lat="45.9142" lon="3.37454">
        <ele>315.2</ele>
        <time>2024-04-14T07:20:40Z</time>
      </trkpt>
      <trkpt lat="45.91422" lon="3.37459">
        <ele>315</ele>
        <time>2024-04-14T07:20:41Z</time>
      </trkpt>
      <trkpt lat="45.91424" lon="3.37464">
        <ele>315</ele>
        <time>2024-04-14T07:20:42Z</time>
      </trkpt>
      <trkpt lat="45.91425" lon="3.37469">
        <ele>314.8</ele>
        <time>2024-04-14T07:20:43Z</time>
      </trkpt>
      <trkpt lat="45.91427" lon="3.37475">
        <ele>314.8</ele>
        <time>2024-04-14T07:20:44Z</time>
      </trkpt>
      <trkpt lat="45.91429" lon="3.37479">
        <ele>314.8</ele>
        <time>2024-04-14T07:20:45Z</time>
      </trkpt>
      <trkpt lat="45.9143" lon="3.37484">
        <ele>314.6</ele>
        <time>2024-04-14T07:20:46Z</time>
      </trkpt>
      <trkpt lat="45.91432" lon="3.37489">
        <ele>314.6</ele>
        <time>2024-04-14T07:20:47Z</time>
      </trkpt>
      <trkpt lat="45.91434" lon="3.37494">
        <ele>314.4</ele>
        <time>2024-04-14T07:20:48Z</time>
      </trkpt>
      <trkpt lat="45.91436" lon="3.37499">
        <ele>314.4</ele>
        <time>2024-04-14T07:20:49Z</time>
      </trkpt>
      <trkpt lat="45.9144" lon="3.37502">
        <ele>314.4</ele>
        <time>2024-04-14T07:20:50Z</time>
      </trkpt>
      <trkpt lat="45.91444" lon="3.37504">
        <ele>314.2</ele>
        <time>2024-04-14T07:20:51Z</time>
      </trkpt>
      <trkpt lat="45.91448" lon="3.37507">
        <ele>314.2</ele>
        <time>2024-04-14T07:20:52Z</time>
      </trkpt>
      <trkpt lat="45.91453" lon="3.3751">
        <ele>314.2</ele>
        <time>2024-04-14T07:20:53Z</time>
      </trkpt>
      <trkpt lat="45.9146" lon="3.37517">
        <ele>314</ele>
        <time>2024-04-14T07:20:54Z</time>
      </trkpt>
      <trkpt lat="45.91463" lon="3.37524">
        <ele>314</ele>
        <time>2024-04-14T07:20:55Z</time>
      </trkpt>
      <trkpt lat="45.91467" lon="3.3753">
        <ele>314</ele>
        <time>2024-04-14T07:20:56Z</time>
      </trkpt>
      <trkpt lat="45.91471" lon="3.37537">
        <ele>313.8</ele>
        <time>2024-04-14T07:20:57Z</time>
      </trkpt>
      <trkpt lat="45.91475" lon="3.37548">
        <ele>313.8</ele>
        <time>2024-04-14T07:20:58Z</time>
      </trkpt>
      <trkpt lat="45.91477" lon="3.37557">
        <ele>313.6</ele>
        <time>2024-04-14T07:20:59Z</time>
      </trkpt>
      <trkpt lat="45.91479" lon="3.37567">
        <ele>313.4</ele>
        <time>2024-04-14T07:21:00Z</time>
      </trkpt>
      <trkpt lat="45.91481" lon="3.37576">
        <ele>313.4</ele>
        <time>2024-04-14T07:21:01Z</time>
      </trkpt>
      <trkpt lat="45.91483" lon="3.37586">
        <ele>313.2</ele>
        <time>2024-04-14T07:21:02Z</time>
      </trkpt>
      <trkpt lat="45.91485" lon="3.37596">
        <ele>313</ele>
        <time>2024-04-14T07:21:03Z</time>
      </trkpt>
      <trkpt lat="45.91487" lon="3.37606">
        <ele>313</ele>
        <time>2024-04-14T07:21:04Z</time>
      </trkpt>
      <trkpt lat="45.91489" lon="3.37616">
        <ele>312.8</ele>
        <time>2024-04-14T07:21:05Z</time>
      </trkpt>
      <trkpt lat="45.91491" lon="3.37626">
        <ele>312.8</ele>
        <time>2024-04-14T07:21:06Z</time>
      </trkpt>
      <trkpt lat="45.91493" lon="3.37635">
        <ele>312.6</ele>
        <time>2024-04-14T07:21:07Z</time>
      </trkpt>
      <trkpt lat="45.91495" lon="3.37642">
        <ele>312.4</ele>
        <time>2024-04-14T07:21:08Z</time>
      </trkpt>
      <trkpt lat="45.91499" lon="3.37649">
        <ele>312.2</ele>
        <time>2024-04-14T07:21:09Z</time>
      </trkpt>
      <trkpt lat="45.91503" lon="3.37653">
        <ele>312</ele>
        <time>2024-04-14T07:21:10Z</time>
      </trkpt>
      <trkpt lat="45.91511" lon="3.37656">
        <ele>311.8</ele>
        <time>2024-04-14T07:21:11Z</time>
      </trkpt>
      <trkpt lat="45.91518" lon="3.37658">
        <ele>311.8</ele>
        <time>2024-04-14T07:21:12Z</time>
      </trkpt>
      <trkpt lat="45.91526" lon="3.37657">
        <ele>311.6</ele>
        <time>2024-04-14T07:21:13Z</time>
      </trkpt>
      <trkpt lat="45.91532" lon="3.37656">
        <ele>311.4</ele>
        <time>2024-04-14T07:21:14Z</time>
      </trkpt>
      <trkpt lat="45.91537" lon="3.37655">
        <ele>311.2</ele>
        <time>2024-04-14T07:21:15Z</time>
      </trkpt>
      <trkpt lat="45.91541" lon="3.37655">
        <ele>311</ele>
        <time>2024-04-14T07:21:16Z</time>
      </trkpt>
      <trkpt lat="45.91544" lon="3.37654">
        <ele>311</ele>
        <time>2024-04-14T07:21:17Z</time>
      </trkpt>
      <trkpt lat="45.91547" lon="3.37654">
        <ele>310.8</ele>
        <time>2024-04-14T07:21:18Z</time>
      </trkpt>
      <trkpt lat="45.91549" lon="3.37654">
        <ele>310.6</ele>
        <time>2024-04-14T07:21:19Z</time>
      </trkpt>
      <trkpt lat="45.91549" lon="3.37645">
        <ele>310.6</ele>
        <time>2024-04-14T07:21:20Z</time>
      </trkpt>
      <trkpt lat="45.91549" lon="3.37639">
        <ele>310.4</ele>
        <time>2024-04-14T07:21:21Z</time>
      </trkpt>
      <trkpt lat="45.91548" lon="3.37632">
        <ele>310.2</ele>
        <time>2024-04-14T07:21:22Z</time>
      </trkpt>
      <trkpt lat="45.91547" lon="3.37625">
        <ele>310</ele>
        <time>2024-04-14T07:21:23Z</time>
      </trkpt>
      <trkpt lat="45.91547" lon="3.37618">
        <ele>309.8</ele>
        <time>2024-04-14T07:21:24Z</time>
      </trkpt>
      <trkpt lat="45.91546" lon="3.37609">
        <ele>309.6</ele>
        <time>2024-04-14T07:21:25Z</time>
      </trkpt>
      <trkpt lat="45.91545" lon="3.376">
        <ele>309.4</ele>
        <time>2024-04-14T07:21:26Z</time>
      </trkpt>
      <trkpt lat="45.91544" lon="3.37592">
        <ele>309.2</ele>
        <time>2024-04-14T07:21:27Z</time>
      </trkpt>
      <trkpt lat="45.91543" lon="3.37582">
        <ele>309</ele>
        <time>2024-04-14T07:21:28Z</time>
      </trkpt>
      <trkpt lat="45.91542" lon="3.37573">
        <ele>308.8</ele>
        <time>2024-04-14T07:21:29Z</time>
      </trkpt>
      <trkpt lat="45.91541" lon="3.37563">
        <ele>308.6</ele>
        <time>2024-04-14T07:21:30Z</time>
      </trkpt>
      <trkpt lat="45.91541" lon="3.3755">
        <ele>308.4</ele>
        <time>2024-04-14T07:21:31Z</time>
      </trkpt>
      <trkpt lat="45.91541" lon="3.3754">
        <ele>308.2</ele>
        <time>2024-04-14T07:21:32Z</time>
      </trkpt>
      <trkpt lat="45.91542" lon="3.37529">
        <ele>308</ele>
        <time>2024-04-14T07:21:33Z</time>
      </trkpt>
      <trkpt lat="45.91543" lon="3.37518">
        <ele>307.8</ele>
        <time>2024-04-14T07:21:34Z</time>
      </trkpt>
      <trkpt lat="45.91545" lon="3.37505">
        <ele>307.6</ele>
        <time>2024-04-14T07:21:35Z</time>
      </trkpt>
      <trkpt lat="45.91547" lon="3.37494">
        <ele>307.6</ele>
        <time>2024-04-14T07:21:36Z</time>
      </trkpt>
      <trkpt lat="45.91549" lon="3.37482">
        <ele>307.4</ele>
        <time>2024-04-14T07:21:37Z</time>
      </trkpt>
      <trkpt lat="45.91551" lon="3.37471">
        <ele>307.2</ele>
        <time>2024-04-14T07:21:38Z</time>
      </trkpt>
      <trkpt lat="45.91554" lon="3.37459">
        <ele>307</ele>
        <time>2024-04-14T07:21:39Z</time>
      </trkpt>
      <trkpt lat="45.91556" lon="3.37448">
        <ele>307</ele>
        <time>2024-04-14T07:21:40Z</time>
      </trkpt>
      <trkpt lat="45.9156" lon="3.37436">
        <ele>307</ele>
        <time>2024-04-14T07:21:41Z</time>
      </trkpt>
      <trkpt lat="45.91563" lon="3.37425">
        <ele>306.8</ele>
        <time>2024-04-14T07:21:42Z</time>
      </trkpt>
      <trkpt lat="45.91566" lon="3.37413">
        <ele>306.6</ele>
        <time>2024-04-14T07:21:43Z</time>
      </trkpt>
      <trkpt lat="45.91569" lon="3.37402">
        <ele>306.4</ele>
        <time>2024-04-14T07:21:44Z</time>
      </trkpt>
      <trkpt lat="45.91573" lon="3.37391">
        <ele>306.2</ele>
        <time>2024-04-14T07:21:45Z</time>
      </trkpt>
      <trkpt lat="45.91576" lon="3.3738">
        <ele>306</ele>
        <time>2024-04-14T07:21:46Z</time>
      </trkpt>
      <trkpt lat="45.91579" lon="3.37368">
        <ele>305.8</ele>
        <time>2024-04-14T07:21:47Z</time>
      </trkpt>
      <trkpt lat="45.91582" lon="3.37357">
        <ele>305.6</ele>
        <time>2024-04-14T07:21:48Z</time>
      </trkpt>
      <trkpt lat="45.91585" lon="3.37346">
        <ele>305.4</ele>
        <time>2024-04-14T07:21:49Z</time>
      </trkpt>
      <trkpt lat="45.91589" lon="3.37335">
        <ele>305.2</ele>
        <time>2024-04-14T07:21:50Z</time>
      </trkpt>
      <trkpt lat="45.91592" lon="3.37323">
        <ele>305</ele>
        <time>2024-04-14T07:21:51Z</time>
      </trkpt>
      <trkpt lat="45.91595" lon="3.37312">
        <ele>305</ele>
        <time>2024-04-14T07:21:52Z</time>
      </trkpt>
      <trkpt lat="45.91599" lon="3.373">
        <ele>304.8</ele>
        <time>2024-04-14T07:21:53Z</time>
      </trkpt>
      <trkpt lat="45.91602" lon="3.37289">
        <ele>304.6</ele>
        <time>2024-04-14T07:21:54Z</time>
      </trkpt>
      <trkpt lat="45.91604" lon="3.3728">
        <ele>304.4</ele>
        <time>2024-04-14T07:21:55Z</time>
      </trkpt>
      <trkpt lat="45.91607" lon="3.37271">
        <ele>304.2</ele>
        <time>2024-04-14T07:21:56Z</time>
      </trkpt>
      <trkpt lat="45.91609" lon="3.37264">
        <ele>304</ele>
        <time>2024-04-14T07:21:57Z</time>
      </trkpt>
      <trkpt lat="45.9161" lon="3.37259">
        <ele>303.8</ele>
        <time>2024-04-14T07:21:58Z</time>
      </trkpt>
      <trkpt lat="45.91612" lon="3.37254">
        <ele>303.8</ele>
        <time>2024-04-14T07:21:59Z</time>
      </trkpt>
      <trkpt lat="45.91613" lon="3.37251">
        <ele>303.6</ele>
        <time>2024-04-14T07:22:00Z</time>
      </trkpt>
      <trkpt lat="45.91614" lon="3.37248">
        <ele>303.4</ele>
        <time>2024-04-14T07:22:01Z</time>
      </trkpt>
      <trkpt lat="45.91614" lon="3.37246">
        <ele>303.2</ele>
        <time>2024-04-14T07:22:02Z</time>
      </trkpt>
      <trkpt lat="45.91614" lon="3.37245">
        <ele>303.2</ele>
        <time>2024-04-14T07:22:03Z</time>
      </trkpt>
      <trkpt lat="45.91615" lon="3.37244">
        <ele>303</ele>
        <time>2024-04-14T07:22:04Z</time>
      </trkpt>
      <trkpt lat="45.91615" lon="3.37244">
        <ele>303</ele>
        <time>2024-04-14T07:22:05Z</time>
      </trkpt>
      <trkpt lat="45.91616" lon="3.37241">
        <ele>302.8</ele>
        <time>2024-04-14T07:22:06Z</time>
      </trkpt>
      <trkpt lat="45.91616" lon="3.37239">
        <ele>302.6</ele>
        <time>2024-04-14T07:22:07Z</time>
      </trkpt>
      <trkpt lat="45.91623" lon="3.37236">
        <ele>302.6</ele>
        <time>2024-04-14T07:22:08Z</time>
      </trkpt>
      <trkpt lat="45.91625" lon="3.37238">
        <ele>302.4</ele>
        <time>2024-04-14T07:22:09Z</time>
      </trkpt>
      <trkpt lat="45.91628" lon="3.3724">
        <ele>302.2</ele>
        <time>2024-04-14T07:22:10Z</time>
      </trkpt>
      <trkpt lat="45.91631" lon="3.37242">
        <ele>302.2</ele>
        <time>2024-04-14T07:22:11Z</time>
      </trkpt>
      <trkpt lat="45.91635" lon="3.37244">
        <ele>302</ele>
        <time>2024-04-14T07:22:12Z</time>
      </trkpt>
      <trkpt lat="45.91639" lon="3.37247">
        <ele>301.8</ele>
        <time>2024-04-14T07:22:13Z</time>
      </trkpt>
      <trkpt lat="45.91644" lon="3.3725">
        <ele>301.8</ele>
        <time>2024-04-14T07:22:14Z</time>
      </trkpt>
      <trkpt lat="45.91649" lon="3.37254">
        <ele>301.6</ele>
        <time>2024-04-14T07:22:15Z</time>
      </trkpt>
      <trkpt lat="45.91654" lon="3.37257">
        <ele>301.4</ele>
        <time>2024-04-14T07:22:16Z</time>
      </trkpt>
      <trkpt lat="45.91659" lon="3.37261">
        <ele>301.2</ele>
        <time>2024-04-14T07:22:17Z</time>
      </trkpt>
      <trkpt lat="45.91665" lon="3.37264">
        <ele>301.2</ele>
        <time>2024-04-14T07:22:18Z</time>
      </trkpt>
      <trkpt lat="45.9167" lon="3.37268">
        <ele>301</ele>
        <time>2024-04-14T07:22:19Z</time>
      </trkpt>
      <trkpt lat="45.91676" lon="3.37272">
        <ele>300.8</ele>
        <time>2024-04-14T07:22:20Z</time>
      </trkpt>
      <trkpt lat="45.91682" lon="3.37276">
        <ele>300.8</ele>
        <time>2024-04-14T07:22:21Z</time>
      </trkpt>
      <trkpt lat="45.91688" lon="3.37278">
        <ele>300.6</ele>
        <time>2024-04-14T07:22:22Z</time>
      </trkpt>
      <trkpt lat="45.91695" lon="3.37279">
        <ele>300.6</ele>
        <time>2024-04-14T07:22:23Z</time>
      </trkpt>
      <trkpt lat="45.91701" lon="3.37281">
        <ele>300.4</ele>
        <time>2024-04-14T07:22:24Z</time>
      </trkpt>
      <trkpt lat="45.91708" lon="3.37283">
        <ele>300.2</ele>
        <time>2024-04-14T07:22:25Z</time>
      </trkpt>
      <trkpt lat="45.91715" lon="3.37285">
        <ele>300</ele>
        <time>2024-04-14T07:22:26Z</time>
      </trkpt>
      <trkpt lat="45.91722" lon="3.37287">
        <ele>300</ele>
        <time>2024-04-14T07:22:27Z</time>
      </trkpt>
      <trkpt lat="45.9173" lon="3.37289">
        <ele>299.8</ele>
        <time>2024-04-14T07:22:28Z</time>
      </trkpt>
      <trkpt lat="45.91737" lon="3.37291">
        <ele>299.6</ele>
        <time>2024-04-14T07:22:29Z</time>
      </trkpt>
      <trkpt lat="45.91745" lon="3.37293">
        <ele>299.6</ele>
        <time>2024-04-14T07:22:30Z</time>
      </trkpt>
      <trkpt lat="45.91752" lon="3.37295">
        <ele>299.4</ele>
        <time>2024-04-14T07:22:31Z</time>
      </trkpt>
      <trkpt lat="45.91759" lon="3.37299">
        <ele>299.2</ele>
        <time>2024-04-14T07:22:32Z</time>
      </trkpt>
      <trkpt lat="45.91766" lon="3.37304">
        <ele>299</ele>
        <time>2024-04-14T07:22:33Z</time>
      </trkpt>
      <trkpt lat="45.91772" lon="3.3731">
        <ele>299</ele>
        <time>2024-04-14T07:22:34Z</time>
      </trkpt>
      <trkpt lat="45.91777" lon="3.37318">
        <ele>299</ele>
        <time>2024-04-14T07:22:35Z</time>
      </trkpt>
      <trkpt lat="45.91781" lon="3.37327">
        <ele>298.8</ele>
        <time>2024-04-14T07:22:36Z</time>
      </trkpt>
      <trkpt lat="45.91785" lon="3.37335">
        <ele>298.6</ele>
        <time>2024-04-14T07:22:37Z</time>
      </trkpt>
      <trkpt lat="45.9179" lon="3.37343">
        <ele>298.6</ele>
        <time>2024-04-14T07:22:38Z</time>
      </trkpt>
      <trkpt lat="45.91794" lon="3.37351">
        <ele>298.4</ele>
        <time>2024-04-14T07:22:39Z</time>
      </trkpt>
      <trkpt lat="45.91799" lon="3.37355">
        <ele>298.4</ele>
        <time>2024-04-14T07:22:40Z</time>
      </trkpt>
      <trkpt lat="45.91804" lon="3.37359">
        <ele>298.4</ele>
        <time>2024-04-14T07:22:41Z</time>
      </trkpt>
      <trkpt lat="45.9181" lon="3.37363">
        <ele>298.2</ele>
        <time>2024-04-14T07:22:42Z</time>
      </trkpt>
      <trkpt lat="45.91816" lon="3.37367">
        <ele>298</ele>
        <time>2024-04-14T07:22:43Z</time>
      </trkpt>
      <trkpt lat="45.91823" lon="3.37372">
        <ele>297.8</ele>
        <time>2024-04-14T07:22:44Z</time>
      </trkpt>
      <trkpt lat="45.9183" lon="3.37377">
        <ele>297.8</ele>
        <time>2024-04-14T07:22:45Z</time>
      </trkpt>
      <trkpt lat="45.91837" lon="3.37382">
        <ele>297.6</ele>
        <time>2024-04-14T07:22:46Z</time>
      </trkpt>
      <trkpt lat="45.91844" lon="3.37387">
        <ele>297.6</ele>
        <time>2024-04-14T07:22:47Z</time>
      </trkpt>
      <trkpt lat="45.91852" lon="3.37392">
        <ele>297.4</ele>
        <time>2024-04-14T07:22:48Z</time>
      </trkpt>
      <trkpt lat="45.91858" lon="3.37401">
        <ele>297.4</ele>
        <time>2024-04-14T07:22:49Z</time>
      </trkpt>
      <trkpt lat="45.91862" lon="3.37411">
        <ele>297.2</ele>
        <time>2024-04-14T07:22:50Z</time>
      </trkpt>
      <trkpt lat="45.91867" lon="3.37421">
        <ele>297</ele>
        <time>2024-04-14T07:22:51Z</time>
      </trkpt>
      <trkpt lat="45.91872" lon="3.37431">
        <ele>297</ele>
        <time>2024-04-14T07:22:52Z</time>
      </trkpt>
      <trkpt lat="45.91875" lon="3.37442">
        <ele>296.8</ele>
        <time>2024-04-14T07:22:53Z</time>
      </trkpt>
      <trkpt lat="45.91878" lon="3.37454">
        <ele>296.8</ele>
        <time>2024-04-14T07:22:54Z</time>
      </trkpt>
      <trkpt lat="45.91881" lon="3.37465">
        <ele>296.6</ele>
        <time>2024-04-14T07:22:55Z</time>
      </trkpt>
      <trkpt lat="45.91885" lon="3.37476">
        <ele>296.6</ele>
        <time>2024-04-14T07:22:56Z</time>
      </trkpt>
      <trkpt lat="45.91888" lon="3.37487">
        <ele>296.4</ele>
        <time>2024-04-14T07:22:57Z</time>
      </trkpt>
      <trkpt lat="45.91891" lon="3.37498">
        <ele>296.4</ele>
        <time>2024-04-14T07:22:58Z</time>
      </trkpt>
      <trkpt lat="45.91894" lon="3.37509">
        <ele>296.2</ele>
        <time>2024-04-14T07:22:59Z</time>
      </trkpt>
      <trkpt lat="45.91899" lon="3.37519">
        <ele>296.2</ele>
        <time>2024-04-14T07:23:00Z</time>
      </trkpt>
      <trkpt lat="45.91906" lon="3.37528">
        <ele>296</ele>
        <time>2024-04-14T07:23:01Z</time>
      </trkpt>
      <trkpt lat="45.91912" lon="3.37536">
        <ele>295.8</ele>
        <time>2024-04-14T07:23:02Z</time>
      </trkpt>
      <trkpt lat="45.91918" lon="3.37545">
        <ele>295.8</ele>
        <time>2024-04-14T07:23:03Z</time>
      </trkpt>
      <trkpt lat="45.91925" lon="3.37554">
        <ele>295.6</ele>
        <time>2024-04-14T07:23:04Z</time>
      </trkpt>
      <trkpt lat="45.91931" lon="3.37564">
        <ele>295.6</ele>
        <time>2024-04-14T07:23:05Z</time>
      </trkpt>
      <trkpt lat="45.91936" lon="3.37575">
        <ele>295.4</ele>
        <time>2024-04-14T07:23:06Z</time>
      </trkpt>
      <trkpt lat="45.91942" lon="3.37586">
        <ele>295.2</ele>
        <time>2024-04-14T07:23:07Z</time>
      </trkpt>
      <trkpt lat="45.91947" lon="3.37597">
        <ele>295</ele>
        <time>2024-04-14T07:23:08Z</time>
      </trkpt>
      <trkpt lat="45.91951" lon="3.37608">
        <ele>295</ele>
        <time>2024-04-14T07:23:09Z</time>
      </trkpt>
      <trkpt lat="45.91955" lon="3.3762">
        <ele>294.8</ele>
        <time>2024-04-14T07:23:10Z</time>
      </trkpt>
      <trkpt lat="45.91959" lon="3.37632">
        <ele>294.8</ele>
        <time>2024-04-14T07:23:11Z</time>
      </trkpt>
      <trkpt lat="45.91963" lon="3.37644">
        <ele>294.6</ele>
        <time>2024-04-14T07:23:12Z</time>
      </trkpt>
      <trkpt lat="45.91967" lon="3.37656">
        <ele>294.6</ele>
        <time>2024-04-14T07:23:13Z</time>
      </trkpt>
      <trkpt lat="45.91971" lon="3.37668">
        <ele>294.4</ele>
        <time>2024-04-14T07:23:14Z</time>
      </trkpt>
      <trkpt lat="45.91974" lon="3.37679">
        <ele>294.4</ele>
        <time>2024-04-14T07:23:15Z</time>
      </trkpt>
      <trkpt lat="45.91978" lon="3.3769">
        <ele>294.2</ele>
        <time>2024-04-14T07:23:16Z</time>
      </trkpt>
      <trkpt lat="45.91982" lon="3.37701">
        <ele>294.2</ele>
        <time>2024-04-14T07:23:17Z</time>
      </trkpt>
      <trkpt lat="45.91985" lon="3.37711">
        <ele>294</ele>
        <time>2024-04-14T07:23:18Z</time>
      </trkpt>
      <trkpt lat="45.91988" lon="3.37722">
        <ele>294</ele>
        <time>2024-04-14T07:23:19Z</time>
      </trkpt>
      <trkpt lat="45.91992" lon="3.37732">
        <ele>294</ele>
        <time>2024-04-14T07:23:20Z</time>
      </trkpt>
      <trkpt lat="45.91995" lon="3.37742">
        <ele>293.8</ele>
        <time>2024-04-14T07:23:21Z</time>
      </trkpt>
      <trkpt lat="45.91999" lon="3.37753">
        <ele>293.8</ele>
        <time>2024-04-14T07:23:22Z</time>
      </trkpt>
      <trkpt lat="45.92002" lon="3.37763">
        <ele>293.8</ele>
        <time>2024-04-14T07:23:23Z</time>
      </trkpt>
      <trkpt lat="45.92005" lon="3.37773">
        <ele>293.6</ele>
        <time>2024-04-14T07:23:24Z</time>
      </trkpt>
      <trkpt lat="45.92009" lon="3.37784">
        <ele>293.6</ele>
        <time>2024-04-14T07:23:25Z</time>
      </trkpt>
      <trkpt lat="45.92011" lon="3.37795">
        <ele>293.4</ele>
        <time>2024-04-14T07:23:26Z</time>
      </trkpt>
      <trkpt lat="45.92013" lon="3.37806">
        <ele>293.4</ele>
        <time>2024-04-14T07:23:27Z</time>
      </trkpt>
      <trkpt lat="45.92016" lon="3.37817">
        <ele>293.2</ele>
        <time>2024-04-14T07:23:28Z</time>
      </trkpt>
      <trkpt lat="45.92018" lon="3.37829">
        <ele>293.2</ele>
        <time>2024-04-14T07:23:29Z</time>
      </trkpt>
      <trkpt lat="45.9202" lon="3.3784">
        <ele>293</ele>
        <time>2024-04-14T07:23:30Z</time>
      </trkpt>
      <trkpt lat="45.92023" lon="3.37852">
        <ele>293</ele>
        <time>2024-04-14T07:23:31Z</time>
      </trkpt>
      <trkpt lat="45.92025" lon="3.37864">
        <ele>293</ele>
        <time>2024-04-14T07:23:32Z</time>
      </trkpt>
      <trkpt lat="45.92028" lon="3.37875">
        <ele>293</ele>
        <time>2024-04-14T07:23:33Z</time>
      </trkpt>
      <trkpt lat="45.9203" lon="3.37887">
        <ele>292.8</ele>
        <time>2024-04-14T07:23:34Z</time>
      </trkpt>
      <trkpt lat="45.92032" lon="3.37898">
        <ele>292.8</ele>
        <time>2024-04-14T07:23:35Z</time>
      </trkpt>
      <trkpt lat="45.92035" lon="3.37909">
        <ele>292.8</ele>
        <time>2024-04-14T07:23:36Z</time>
      </trkpt>
      <trkpt lat="45.92037" lon="3.3792">
        <ele>292.6</ele>
        <time>2024-04-14T07:23:37Z</time>
      </trkpt>
      <trkpt lat="45.92039" lon="3.37931">
        <ele>292.6</ele>
        <time>2024-04-14T07:23:38Z</time>
      </trkpt>
      <trkpt lat="45.92042" lon="3.37941">
        <ele>292.4</ele>
        <time>2024-04-14T07:23:39Z</time>
      </trkpt>
      <trkpt lat="45.92047" lon="3.37951">
        <ele>292.4</ele>
        <time>2024-04-14T07:23:40Z</time>
      </trkpt>
      <trkpt lat="45.92051" lon="3.37961">
        <ele>292.4</ele>
        <time>2024-04-14T07:23:41Z</time>
      </trkpt>
      <trkpt lat="45.92055" lon="3.3797">
        <ele>292.4</ele>
        <time>2024-04-14T07:23:42Z</time>
      </trkpt>
      <trkpt lat="45.92059" lon="3.3798">
        <ele>292.4</ele>
        <time>2024-04-14T07:23:43Z</time>
      </trkpt>
      <trkpt lat="45.92063" lon="3.3799">
        <ele>292.2</ele>
        <time>2024-04-14T07:23:44Z</time>
      </trkpt>
      <trkpt lat="45.92067" lon="3.37999">
        <ele>292.2</ele>
        <time>2024-04-14T07:23:45Z</time>
      </trkpt>
      <trkpt lat="45.92071" lon="3.38009">
        <ele>292.2</ele>
        <time>2024-04-14T07:23:46Z</time>
      </trkpt>
      <trkpt lat="45.92075" lon="3.38019">
        <ele>292</ele>
        <time>2024-04-14T07:23:47Z</time>
      </trkpt>
      <trkpt lat="45.92079" lon="3.38028">
        <ele>292</ele>
        <time>2024-04-14T07:23:48Z</time>
      </trkpt>
      <trkpt lat="45.92083" lon="3.38038">
        <ele>292</ele>
        <time>2024-04-14T07:23:49Z</time>
      </trkpt>
      <trkpt lat="45.92087" lon="3.38048">
        <ele>291.8</ele>
        <time>2024-04-14T07:23:50Z</time>
      </trkpt>
      <trkpt lat="45.92091" lon="3.38058">
        <ele>291.8</ele>
        <time>2024-04-14T07:23:51Z</time>
      </trkpt>
      <trkpt lat="45.92095" lon="3.38068">
        <ele>291.8</ele>
        <time>2024-04-14T07:23:52Z</time>
      </trkpt>
      <trkpt lat="45.921" lon="3.38077">
        <ele>291.8</ele>
        <time>2024-04-14T07:23:53Z</time>
      </trkpt>
      <trkpt lat="45.92104" lon="3.38087">
        <ele>291.6</ele>
        <time>2024-04-14T07:23:54Z</time>
      </trkpt>
      <trkpt lat="45.92108" lon="3.38097">
        <ele>291.6</ele>
        <time>2024-04-14T07:23:55Z</time>
      </trkpt>
      <trkpt lat="45.92112" lon="3.38107">
        <ele>291.6</ele>
        <time>2024-04-14T07:23:56Z</time>
      </trkpt>
      <trkpt lat="45.92116" lon="3.38117">
        <ele>291.6</ele>
        <time>2024-04-14T07:23:57Z</time>
      </trkpt>
      <trkpt lat="45.9212" lon="3.38126">
        <ele>291.4</ele>
        <time>2024-04-14T07:23:58Z</time>
      </trkpt>
      <trkpt lat="45.92124" lon="3.38136">
        <ele>291.4</ele>
        <time>2024-04-14T07:23:59Z</time>
      </trkpt>
      <trkpt lat="45.92128" lon="3.38146">
        <ele>291.4</ele>
        <time>2024-04-14T07:24:00Z</time>
      </trkpt>
      <trkpt lat="45.92132" lon="3.38156">
        <ele>291.4</ele>
        <time>2024-04-14T07:24:01Z</time>
      </trkpt>
      <trkpt lat="45.92137" lon="3.38166">
        <ele>291.4</ele>
        <time>2024-04-14T07:24:02Z</time>
      </trkpt>
      <trkpt lat="45.92141" lon="3.38176">
        <ele>291.2</ele>
        <time>2024-04-14T07:24:03Z</time>
      </trkpt>
      <trkpt lat="45.92145" lon="3.38186">
        <ele>291.2</ele>
        <time>2024-04-14T07:24:04Z</time>
      </trkpt>
      <trkpt lat="45.92149" lon="3.38196">
        <ele>291.2</ele>
        <time>2024-04-14T07:24:05Z</time>
      </trkpt>
      <trkpt lat="45.92154" lon="3.38206">
        <ele>291.2</ele>
        <time>2024-04-14T07:24:06Z</time>
      </trkpt>
      <trkpt lat="45.92158" lon="3.38216">
        <ele>291.2</ele>
        <time>2024-04-14T07:24:07Z</time>
      </trkpt>
      <trkpt lat="45.92162" lon="3.38226">
        <ele>291</ele>
        <time>2024-04-14T07:24:08Z</time>
      </trkpt>
      <trkpt lat="45.92166" lon="3.38235">
        <ele>291</ele>
        <time>2024-04-14T07:24:09Z</time>
      </trkpt>
      <trkpt lat="45.9217" lon="3.38245">
        <ele>291</ele>
        <time>2024-04-14T07:24:10Z</time>
      </trkpt>
      <trkpt lat="45.92174" lon="3.38254">
        <ele>291</ele>
        <time>2024-04-14T07:24:11Z</time>
      </trkpt>
      <trkpt lat="45.92178" lon="3.38263">
        <ele>291</ele>
        <time>2024-04-14T07:24:12Z</time>
      </trkpt>
      <trkpt lat="45.92182" lon="3.38273">
        <ele>291</ele>
        <time>2024-04-14T07:24:13Z</time>
      </trkpt>
      <trkpt lat="45.92186" lon="3.38282">
        <ele>291</ele>
        <time>2024-04-14T07:24:14Z</time>
      </trkpt>
      <trkpt lat="45.9219" lon="3.38292">
        <ele>291</ele>
        <time>2024-04-14T07:24:15Z</time>
      </trkpt>
      <trkpt lat="45.92194" lon="3.38301">
        <ele>291</ele>
        <time>2024-04-14T07:24:16Z</time>
      </trkpt>
      <trkpt lat="45.92198" lon="3.38311">
        <ele>291</ele>
        <time>2024-04-14T07:24:17Z</time>
      </trkpt>
      <trkpt lat="45.92202" lon="3.3832">
        <ele>291</ele>
        <time>2024-04-14T07:24:18Z</time>
      </trkpt>
      <trkpt lat="45.92205" lon="3.38331">
        <ele>291</ele>
        <time>2024-04-14T07:24:19Z</time>
      </trkpt>
      <trkpt lat="45.92206" lon="3.38343">
        <ele>291</ele>
        <time>2024-04-14T07:24:20Z</time>
      </trkpt>
      <trkpt lat="45.92208" lon="3.38354">
        <ele>291.2</ele>
        <time>2024-04-14T07:24:21Z</time>
      </trkpt>
      <trkpt lat="45.92208" lon="3.38365">
        <ele>291.2</ele>
        <time>2024-04-14T07:24:22Z</time>
      </trkpt>
      <trkpt lat="45.92208" lon="3.38376">
        <ele>291.2</ele>
        <time>2024-04-14T07:24:23Z</time>
      </trkpt>
      <trkpt lat="45.92206" lon="3.38387">
        <ele>291.2</ele>
        <time>2024-04-14T07:24:24Z</time>
      </trkpt>
      <trkpt lat="45.92203" lon="3.38398">
        <ele>291.2</ele>
        <time>2024-04-14T07:24:25Z</time>
      </trkpt>
      <trkpt lat="45.922" lon="3.38408">
        <ele>291.2</ele>
        <time>2024-04-14T07:24:26Z</time>
      </trkpt>
      <trkpt lat="45.92196" lon="3.38419">
        <ele>290.8</ele>
        <time>2024-04-14T07:24:27Z</time>
      </trkpt>
      <trkpt lat="45.92193" lon="3.3843">
        <ele>291</ele>
        <time>2024-04-14T07:24:28Z</time>
      </trkpt>
      <trkpt lat="45.9219" lon="3.3844">
        <ele>291</ele>
        <time>2024-04-14T07:24:29Z</time>
      </trkpt>
      <trkpt lat="45.92187" lon="3.38451">
        <ele>291.2</ele>
        <time>2024-04-14T07:24:30Z</time>
      </trkpt>
      <trkpt lat="45.92183" lon="3.38461">
        <ele>291.4</ele>
        <time>2024-04-14T07:24:31Z</time>
      </trkpt>
      <trkpt lat="45.9218" lon="3.38472">
        <ele>291.4</ele>
        <time>2024-04-14T07:24:32Z</time>
      </trkpt>
      <trkpt lat="45.92177" lon="3.38482">
        <ele>291.4</ele>
        <time>2024-04-14T07:24:33Z</time>
      </trkpt>
      <trkpt lat="45.92174" lon="3.38492">
        <ele>291.2</ele>
        <time>2024-04-14T07:24:34Z</time>
      </trkpt>
      <trkpt lat="45.9217" lon="3.38503">
        <ele>291.2</ele>
        <time>2024-04-14T07:24:35Z</time>
      </trkpt>
      <trkpt lat="45.92167" lon="3.38513">
        <ele>291.2</ele>
        <time>2024-04-14T07:24:36Z</time>
      </trkpt>
      <trkpt lat="45.92164" lon="3.38523">
        <ele>291.2</ele>
        <time>2024-04-14T07:24:37Z</time>
      </trkpt>
      <trkpt lat="45.92161" lon="3.38533">
        <ele>291.4</ele>
        <time>2024-04-14T07:24:38Z</time>
      </trkpt>
      <trkpt lat="45.92158" lon="3.38543">
        <ele>291.4</ele>
        <time>2024-04-14T07:24:39Z</time>
      </trkpt>
      <trkpt lat="45.92155" lon="3.38554">
        <ele>291.4</ele>
        <time>2024-04-14T07:24:40Z</time>
      </trkpt>
      <trkpt lat="45.92152" lon="3.38564">
        <ele>291.4</ele>
        <time>2024-04-14T07:24:41Z</time>
      </trkpt>
      <trkpt lat="45.92149" lon="3.38573">
        <ele>291.4</ele>
        <time>2024-04-14T07:24:42Z</time>
      </trkpt>
      <trkpt lat="45.92146" lon="3.38583">
        <ele>291.6</ele>
        <time>2024-04-14T07:24:43Z</time>
      </trkpt>
      <trkpt lat="45.92143" lon="3.38593">
        <ele>291.6</ele>
        <time>2024-04-14T07:24:44Z</time>
      </trkpt>
      <trkpt lat="45.9214" lon="3.38603">
        <ele>291.6</ele>
        <time>2024-04-14T07:24:45Z</time>
      </trkpt>
      <trkpt lat="45.92137" lon="3.38612">
        <ele>291.6</ele>
        <time>2024-04-14T07:24:46Z</time>
      </trkpt>
      <trkpt lat="45.92134" lon="3.38622">
        <ele>291.6</ele>
        <time>2024-04-14T07:24:47Z</time>
      </trkpt>
      <trkpt lat="45.92131" lon="3.38632">
        <ele>291.6</ele>
        <time>2024-04-14T07:24:48Z</time>
      </trkpt>
      <trkpt lat="45.92127" lon="3.38642">
        <ele>291.6</ele>
        <time>2024-04-14T07:24:49Z</time>
      </trkpt>
      <trkpt lat="45.92125" lon="3.38652">
        <ele>291.6</ele>
        <time>2024-04-14T07:24:50Z</time>
      </trkpt>
      <trkpt lat="45.92122" lon="3.38661">
        <ele>291.6</ele>
        <time>2024-04-14T07:24:51Z</time>
      </trkpt>
      <trkpt lat="45.92119" lon="3.38671">
        <ele>291.6</ele>
        <time>2024-04-14T07:24:52Z</time>
      </trkpt>
      <trkpt lat="45.92116" lon="3.3868">
        <ele>291.6</ele>
        <time>2024-04-14T07:24:53Z</time>
      </trkpt>
      <trkpt lat="45.92113" lon="3.3869">
        <ele>291.8</ele>
        <time>2024-04-14T07:24:54Z</time>
      </trkpt>
      <trkpt lat="45.9211" lon="3.38699">
        <ele>291.8</ele>
        <time>2024-04-14T07:24:55Z</time>
      </trkpt>
      <trkpt lat="45.92107" lon="3.38709">
        <ele>291.8</ele>
        <time>2024-04-14T07:24:56Z</time>
      </trkpt>
      <trkpt lat="45.92104" lon="3.38718">
        <ele>291.8</ele>
        <time>2024-04-14T07:24:57Z</time>
      </trkpt>
      <trkpt lat="45.92101" lon="3.38727">
        <ele>291.8</ele>
        <time>2024-04-14T07:24:58Z</time>
      </trkpt>
      <trkpt lat="45.92098" lon="3.38737">
        <ele>291.8</ele>
        <time>2024-04-14T07:24:59Z</time>
      </trkpt>
      <trkpt lat="45.92095" lon="3.38746">
        <ele>291.8</ele>
        <time>2024-04-14T07:25:00Z</time>
      </trkpt>
      <trkpt lat="45.92093" lon="3.38756">
        <ele>291.8</ele>
        <time>2024-04-14T07:25:01Z</time>
      </trkpt>
      <trkpt lat="45.9209" lon="3.38765">
        <ele>291.8</ele>
        <time>2024-04-14T07:25:02Z</time>
      </trkpt>
      <trkpt lat="45.92087" lon="3.38774">
        <ele>291.8</ele>
        <time>2024-04-14T07:25:03Z</time>
      </trkpt>
      <trkpt lat="45.92086" lon="3.38784">
        <ele>292</ele>
        <time>2024-04-14T07:25:04Z</time>
      </trkpt>
      <trkpt lat="45.92086" lon="3.38795">
        <ele>292</ele>
        <time>2024-04-14T07:25:05Z</time>
      </trkpt>
      <trkpt lat="45.92086" lon="3.38805">
        <ele>292</ele>
        <time>2024-04-14T07:25:06Z</time>
      </trkpt>
      <trkpt lat="45.92088" lon="3.38816">
        <ele>292</ele>
        <time>2024-04-14T07:25:07Z</time>
      </trkpt>
      <trkpt lat="45.92093" lon="3.38826">
        <ele>292</ele>
        <time>2024-04-14T07:25:08Z</time>
      </trkpt>
      <trkpt lat="45.92097" lon="3.38835">
        <ele>291.8</ele>
        <time>2024-04-14T07:25:09Z</time>
      </trkpt>
      <trkpt lat="45.92104" lon="3.38843">
        <ele>291.8</ele>
        <time>2024-04-14T07:25:10Z</time>
      </trkpt>
      <trkpt lat="45.92111" lon="3.38851">
        <ele>292</ele>
        <time>2024-04-14T07:25:11Z</time>
      </trkpt>
      <trkpt lat="45.92118" lon="3.3886">
        <ele>291.6</ele>
        <time>2024-04-14T07:25:12Z</time>
      </trkpt>
      <trkpt lat="45.92125" lon="3.38868">
        <ele>291.6</ele>
        <time>2024-04-14T07:25:13Z</time>
      </trkpt>
      <trkpt lat="45.92133" lon="3.38877">
        <ele>291.4</ele>
        <time>2024-04-14T07:25:14Z</time>
      </trkpt>
      <trkpt lat="45.9214" lon="3.38885">
        <ele>291.4</ele>
        <time>2024-04-14T07:25:15Z</time>
      </trkpt>
      <trkpt lat="45.92147" lon="3.38893">
        <ele>291.2</ele>
        <time>2024-04-14T07:25:16Z</time>
      </trkpt>
      <trkpt lat="45.92154" lon="3.38902">
        <ele>291.2</ele>
        <time>2024-04-14T07:25:17Z</time>
      </trkpt>
      <trkpt lat="45.92161" lon="3.3891">
        <ele>291.2</ele>
        <time>2024-04-14T07:25:18Z</time>
      </trkpt>
      <trkpt lat="45.92168" lon="3.38919">
        <ele>291</ele>
        <time>2024-04-14T07:25:19Z</time>
      </trkpt>
      <trkpt lat="45.92175" lon="3.38927">
        <ele>291</ele>
        <time>2024-04-14T07:25:20Z</time>
      </trkpt>
      <trkpt lat="45.92182" lon="3.38935">
        <ele>291</ele>
        <time>2024-04-14T07:25:21Z</time>
      </trkpt>
      <trkpt lat="45.92189" lon="3.38943">
        <ele>291</ele>
        <time>2024-04-14T07:25:22Z</time>
      </trkpt>
      <trkpt lat="45.92195" lon="3.38951">
        <ele>290.8</ele>
        <time>2024-04-14T07:25:23Z</time>
      </trkpt>
      <trkpt lat="45.92202" lon="3.38959">
        <ele>290.8</ele>
        <time>2024-04-14T07:25:24Z</time>
      </trkpt>
      <trkpt lat="45.92209" lon="3.38967">
        <ele>290.8</ele>
        <time>2024-04-14T07:25:25Z</time>
      </trkpt>
      <trkpt lat="45.92215" lon="3.38975">
        <ele>290.8</ele>
        <time>2024-04-14T07:25:26Z</time>
      </trkpt>
      <trkpt lat="45.9222" lon="3.38985">
        <ele>290.8</ele>
        <time>2024-04-14T07:25:27Z</time>
      </trkpt>
      <trkpt lat="45.92225" lon="3.38996">
        <ele>290.8</ele>
        <time>2024-04-14T07:25:28Z</time>
      </trkpt>
      <trkpt lat="45.9223" lon="3.39006">
        <ele>290.8</ele>
        <time>2024-04-14T07:25:29Z</time>
      </trkpt>
      <trkpt lat="45.92235" lon="3.39017">
        <ele>290.8</ele>
        <time>2024-04-14T07:25:30Z</time>
      </trkpt>
      <trkpt lat="45.9224" lon="3.39027">
        <ele>290.8</ele>
        <time>2024-04-14T07:25:31Z</time>
      </trkpt>
      <trkpt lat="45.92245" lon="3.39037">
        <ele>290.8</ele>
        <time>2024-04-14T07:25:32Z</time>
      </trkpt>
      <trkpt lat="45.9225" lon="3.39047">
        <ele>290.6</ele>
        <time>2024-04-14T07:25:33Z</time>
      </trkpt>
      <trkpt lat="45.92254" lon="3.39057">
        <ele>290.6</ele>
        <time>2024-04-14T07:25:34Z</time>
      </trkpt>
      <trkpt lat="45.9226" lon="3.39068">
        <ele>290.6</ele>
        <time>2024-04-14T07:25:35Z</time>
      </trkpt>
      <trkpt lat="45.92264" lon="3.39078">
        <ele>290.6</ele>
        <time>2024-04-14T07:25:36Z</time>
      </trkpt>
      <trkpt lat="45.92269" lon="3.39088">
        <ele>290.6</ele>
        <time>2024-04-14T07:25:37Z</time>
      </trkpt>
      <trkpt lat="45.92274" lon="3.39098">
        <ele>290.6</ele>
        <time>2024-04-14T07:25:38Z</time>
      </trkpt>
      <trkpt lat="45.92279" lon="3.39108">
        <ele>290.4</ele>
        <time>2024-04-14T07:25:39Z</time>
      </trkpt>
      <trkpt lat="45.92284" lon="3.39118">
        <ele>290.4</ele>
        <time>2024-04-14T07:25:40Z</time>
      </trkpt>
      <trkpt lat="45.9229" lon="3.39126">
        <ele>290.4</ele>
        <time>2024-04-14T07:25:41Z</time>
      </trkpt>
      <trkpt lat="45.92297" lon="3.39133">
        <ele>290.4</ele>
        <time>2024-04-14T07:25:42Z</time>
      </trkpt>
      <trkpt lat="45.92304" lon="3.3914">
        <ele>290.2</ele>
        <time>2024-04-14T07:25:43Z</time>
      </trkpt>
      <trkpt lat="45.92311" lon="3.39147">
        <ele>290.2</ele>
        <time>2024-04-14T07:25:44Z</time>
      </trkpt>
      <trkpt lat="45.92318" lon="3.39154">
        <ele>290.2</ele>
        <time>2024-04-14T07:25:45Z</time>
      </trkpt>
      <trkpt lat="45.92324" lon="3.3916">
        <ele>290.2</ele>
        <time>2024-04-14T07:25:46Z</time>
      </trkpt>
      <trkpt lat="45.92331" lon="3.39167">
        <ele>290</ele>
        <time>2024-04-14T07:25:47Z</time>
      </trkpt>
      <trkpt lat="45.92338" lon="3.39174">
        <ele>290</ele>
        <time>2024-04-14T07:25:48Z</time>
      </trkpt>
      <trkpt lat="45.92344" lon="3.39182">
        <ele>290</ele>
        <time>2024-04-14T07:25:49Z</time>
      </trkpt>
      <trkpt lat="45.92349" lon="3.3919">
        <ele>290</ele>
        <time>2024-04-14T07:25:50Z</time>
      </trkpt>
      <trkpt lat="45.92355" lon="3.39198">
        <ele>290</ele>
        <time>2024-04-14T07:25:51Z</time>
      </trkpt>
      <trkpt lat="45.9236" lon="3.39206">
        <ele>290</ele>
        <time>2024-04-14T07:25:52Z</time>
      </trkpt>
      <trkpt lat="45.92366" lon="3.39214">
        <ele>290</ele>
        <time>2024-04-14T07:25:53Z</time>
      </trkpt>
      <trkpt lat="45.92372" lon="3.39222">
        <ele>289.8</ele>
        <time>2024-04-14T07:25:54Z</time>
      </trkpt>
      <trkpt lat="45.92377" lon="3.39231">
        <ele>289.8</ele>
        <time>2024-04-14T07:25:55Z</time>
      </trkpt>
      <trkpt lat="45.92383" lon="3.39239">
        <ele>289.8</ele>
        <time>2024-04-14T07:25:56Z</time>
      </trkpt>
      <trkpt lat="45.92389" lon="3.39248">
        <ele>289.6</ele>
        <time>2024-04-14T07:25:57Z</time>
      </trkpt>
      <trkpt lat="45.92395" lon="3.39257">
        <ele>289.6</ele>
        <time>2024-04-14T07:25:58Z</time>
      </trkpt>
      <trkpt lat="45.924" lon="3.39266">
        <ele>289.8</ele>
        <time>2024-04-14T07:25:59Z</time>
      </trkpt>
      <trkpt lat="45.92404" lon="3.39277">
        <ele>289.8</ele>
        <time>2024-04-14T07:26:00Z</time>
      </trkpt>
      <trkpt lat="45.92407" lon="3.39287">
        <ele>289.8</ele>
        <time>2024-04-14T07:26:01Z</time>
      </trkpt>
      <trkpt lat="45.92411" lon="3.39298">
        <ele>289.8</ele>
        <time>2024-04-14T07:26:02Z</time>
      </trkpt>
      <trkpt lat="45.92414" lon="3.39308">
        <ele>289.8</ele>
        <time>2024-04-14T07:26:03Z</time>
      </trkpt>
      <trkpt lat="45.92418" lon="3.39318">
        <ele>289.8</ele>
        <time>2024-04-14T07:26:04Z</time>
      </trkpt>
      <trkpt lat="45.9242" lon="3.3933">
        <ele>289.8</ele>
        <time>2024-04-14T07:26:05Z</time>
      </trkpt>
      <trkpt lat="45.92422" lon="3.39341">
        <ele>289.8</ele>
        <time>2024-04-14T07:26:06Z</time>
      </trkpt>
      <trkpt lat="45.92424" lon="3.39353">
        <ele>289.8</ele>
        <time>2024-04-14T07:26:07Z</time>
      </trkpt>
      <trkpt lat="45.92426" lon="3.39364">
        <ele>289.8</ele>
        <time>2024-04-14T07:26:08Z</time>
      </trkpt>
      <trkpt lat="45.92428" lon="3.39376">
        <ele>289.8</ele>
        <time>2024-04-14T07:26:09Z</time>
      </trkpt>
      <trkpt lat="45.9243" lon="3.39387">
        <ele>289.8</ele>
        <time>2024-04-14T07:26:10Z</time>
      </trkpt>
      <trkpt lat="45.92432" lon="3.39398">
        <ele>289.4</ele>
        <time>2024-04-14T07:26:11Z</time>
      </trkpt>
      <trkpt lat="45.92435" lon="3.39409">
        <ele>289.6</ele>
        <time>2024-04-14T07:26:12Z</time>
      </trkpt>
      <trkpt lat="45.92437" lon="3.39421">
        <ele>289.8</ele>
        <time>2024-04-14T07:26:13Z</time>
      </trkpt>
      <trkpt lat="45.9244" lon="3.39432">
        <ele>289.8</ele>
        <time>2024-04-14T07:26:14Z</time>
      </trkpt>
      <trkpt lat="45.92443" lon="3.39442">
        <ele>289.8</ele>
        <time>2024-04-14T07:26:15Z</time>
      </trkpt>
      <trkpt lat="45.92447" lon="3.39453">
        <ele>289.8</ele>
        <time>2024-04-14T07:26:16Z</time>
      </trkpt>
      <trkpt lat="45.92452" lon="3.39462">
        <ele>289.8</ele>
        <time>2024-04-14T07:26:17Z</time>
      </trkpt>
      <trkpt lat="45.92457" lon="3.3947">
        <ele>289.8</ele>
        <time>2024-04-14T07:26:18Z</time>
      </trkpt>
      <trkpt lat="45.92462" lon="3.39479">
        <ele>290</ele>
        <time>2024-04-14T07:26:19Z</time>
      </trkpt>
      <trkpt lat="45.92467" lon="3.39488">
        <ele>290</ele>
        <time>2024-04-14T07:26:20Z</time>
      </trkpt>
      <trkpt lat="45.92472" lon="3.39496">
        <ele>290</ele>
        <time>2024-04-14T07:26:21Z</time>
      </trkpt>
      <trkpt lat="45.92477" lon="3.39505">
        <ele>289.8</ele>
        <time>2024-04-14T07:26:22Z</time>
      </trkpt>
      <trkpt lat="45.92482" lon="3.39514">
        <ele>289.8</ele>
        <time>2024-04-14T07:26:23Z</time>
      </trkpt>
      <trkpt lat="45.92487" lon="3.39522">
        <ele>289.8</ele>
        <time>2024-04-14T07:26:24Z</time>
      </trkpt>
      <trkpt lat="45.92492" lon="3.39531">
        <ele>290</ele>
        <time>2024-04-14T07:26:25Z</time>
      </trkpt>
      <trkpt lat="45.92497" lon="3.39539">
        <ele>290</ele>
        <time>2024-04-14T07:26:26Z</time>
      </trkpt>
      <trkpt lat="45.92503" lon="3.39547">
        <ele>290</ele>
        <time>2024-04-14T07:26:27Z</time>
      </trkpt>
      <trkpt lat="45.92508" lon="3.39555">
        <ele>290</ele>
        <time>2024-04-14T07:26:28Z</time>
      </trkpt>
      <trkpt lat="45.92513" lon="3.39563">
        <ele>290.2</ele>
        <time>2024-04-14T07:26:29Z</time>
      </trkpt>
      <trkpt lat="45.92519" lon="3.3957">
        <ele>290.2</ele>
        <time>2024-04-14T07:26:30Z</time>
      </trkpt>
      <trkpt lat="45.92524" lon="3.39578">
        <ele>290.2</ele>
        <time>2024-04-14T07:26:31Z</time>
      </trkpt>
      <trkpt lat="45.92529" lon="3.39585">
        <ele>290.2</ele>
        <time>2024-04-14T07:26:32Z</time>
      </trkpt>
      <trkpt lat="45.92533" lon="3.39592">
        <ele>290.2</ele>
        <time>2024-04-14T07:26:33Z</time>
      </trkpt>
      <trkpt lat="45.92538" lon="3.39599">
        <ele>290.2</ele>
        <time>2024-04-14T07:26:34Z</time>
      </trkpt>
      <trkpt lat="45.92543" lon="3.39606">
        <ele>290.2</ele>
        <time>2024-04-14T07:26:35Z</time>
      </trkpt>
      <trkpt lat="45.92548" lon="3.39613">
        <ele>290.4</ele>
        <time>2024-04-14T07:26:36Z</time>
      </trkpt>
      <trkpt lat="45.92552" lon="3.39619">
        <ele>290.4</ele>
        <time>2024-04-14T07:26:37Z</time>
      </trkpt>
      <trkpt lat="45.92555" lon="3.39627">
        <ele>290.4</ele>
        <time>2024-04-14T07:26:38Z</time>
      </trkpt>
      <trkpt lat="45.92558" lon="3.39636">
        <ele>290.4</ele>
        <time>2024-04-14T07:26:39Z</time>
      </trkpt>
      <trkpt lat="45.92557" lon="3.39643">
        <ele>290.4</ele>
        <time>2024-04-14T07:26:40Z</time>
      </trkpt>
      <trkpt lat="45.92555" lon="3.39651">
        <ele>290.6</ele>
        <time>2024-04-14T07:26:41Z</time>
      </trkpt>
      <trkpt lat="45.92554" lon="3.3966">
        <ele>290.6</ele>
        <time>2024-04-14T07:26:42Z</time>
      </trkpt>
      <trkpt lat="45.92553" lon="3.39669">
        <ele>290.6</ele>
        <time>2024-04-14T07:26:43Z</time>
      </trkpt>
      <trkpt lat="45.92551" lon="3.39678">
        <ele>290.6</ele>
        <time>2024-04-14T07:26:44Z</time>
      </trkpt>
      <trkpt lat="45.92552" lon="3.39688">
        <ele>290.8</ele>
        <time>2024-04-14T07:26:45Z</time>
      </trkpt>
      <trkpt lat="45.92553" lon="3.39697">
        <ele>290.8</ele>
        <time>2024-04-14T07:26:46Z</time>
      </trkpt>
      <trkpt lat="45.92555" lon="3.39707">
        <ele>290.8</ele>
        <time>2024-04-14T07:26:47Z</time>
      </trkpt>
      <trkpt lat="45.92556" lon="3.39717">
        <ele>291</ele>
        <time>2024-04-14T07:26:48Z</time>
      </trkpt>
      <trkpt lat="45.9256" lon="3.39726">
        <ele>291</ele>
        <time>2024-04-14T07:26:49Z</time>
      </trkpt>
      <trkpt lat="45.92563" lon="3.39736">
        <ele>291</ele>
        <time>2024-04-14T07:26:50Z</time>
      </trkpt>
      <trkpt lat="45.92569" lon="3.3974">
        <ele>291</ele>
        <time>2024-04-14T07:26:51Z</time>
      </trkpt>
      <trkpt lat="45.92575" lon="3.39744">
        <ele>291</ele>
        <time>2024-04-14T07:26:52Z</time>
      </trkpt>
      <trkpt lat="45.92582" lon="3.39746">
        <ele>290.8</ele>
        <time>2024-04-14T07:26:53Z</time>
      </trkpt>
      <trkpt lat="45.92589" lon="3.39748">
        <ele>290.8</ele>
        <time>2024-04-14T07:26:54Z</time>
      </trkpt>
      <trkpt lat="45.92597" lon="3.3975">
        <ele>290.8</ele>
        <time>2024-04-14T07:26:55Z</time>
      </trkpt>
      <trkpt lat="45.92606" lon="3.39752">
        <ele>290.8</ele>
        <time>2024-04-14T07:26:56Z</time>
      </trkpt>
      <trkpt lat="45.92614" lon="3.39755">
        <ele>290.8</ele>
        <time>2024-04-14T07:26:57Z</time>
      </trkpt>
      <trkpt lat="45.92623" lon="3.39757">
        <ele>290.8</ele>
        <time>2024-04-14T07:26:58Z</time>
      </trkpt>
      <trkpt lat="45.92631" lon="3.39763">
        <ele>290.6</ele>
        <time>2024-04-14T07:26:59Z</time>
      </trkpt>
      <trkpt lat="45.92639" lon="3.39769">
        <ele>290.6</ele>
        <time>2024-04-14T07:27:00Z</time>
      </trkpt>
      <trkpt lat="45.92647" lon="3.39774">
        <ele>291</ele>
        <time>2024-04-14T07:27:01Z</time>
      </trkpt>
      <trkpt lat="45.92655" lon="3.3978">
        <ele>290.6</ele>
        <time>2024-04-14T07:27:02Z</time>
      </trkpt>
      <trkpt lat="45.92663" lon="3.39786">
        <ele>290.4</ele>
        <time>2024-04-14T07:27:03Z</time>
      </trkpt>
      <trkpt lat="45.92671" lon="3.39792">
        <ele>290.2</ele>
        <time>2024-04-14T07:27:04Z</time>
      </trkpt>
      <trkpt lat="45.92679" lon="3.39798">
        <ele>290.4</ele>
        <time>2024-04-14T07:27:05Z</time>
      </trkpt>
      <trkpt lat="45.92687" lon="3.39804">
        <ele>290.4</ele>
        <time>2024-04-14T07:27:06Z</time>
      </trkpt>
      <trkpt lat="45.92695" lon="3.39809">
        <ele>290.4</ele>
        <time>2024-04-14T07:27:07Z</time>
      </trkpt>
      <trkpt lat="45.92703" lon="3.39814">
        <ele>290.2</ele>
        <time>2024-04-14T07:27:08Z</time>
      </trkpt>
      <trkpt lat="45.92712" lon="3.39818">
        <ele>290.2</ele>
        <time>2024-04-14T07:27:09Z</time>
      </trkpt>
      <trkpt lat="45.9272" lon="3.39822">
        <ele>290.2</ele>
        <time>2024-04-14T07:27:10Z</time>
      </trkpt>
      <trkpt lat="45.92728" lon="3.39826">
        <ele>290</ele>
        <time>2024-04-14T07:27:11Z</time>
      </trkpt>
      <trkpt lat="45.92736" lon="3.3983">
        <ele>290</ele>
        <time>2024-04-14T07:27:12Z</time>
      </trkpt>
      <trkpt lat="45.92745" lon="3.39834">
        <ele>290</ele>
        <time>2024-04-14T07:27:13Z</time>
      </trkpt>
      <trkpt lat="45.92753" lon="3.39838">
        <ele>289.8</ele>
        <time>2024-04-14T07:27:14Z</time>
      </trkpt>
      <trkpt lat="45.92762" lon="3.39842">
        <ele>289.8</ele>
        <time>2024-04-14T07:27:15Z</time>
      </trkpt>
      <trkpt lat="45.9277" lon="3.39846">
        <ele>289.8</ele>
        <time>2024-04-14T07:27:16Z</time>
      </trkpt>
      <trkpt lat="45.92779" lon="3.3985">
        <ele>289.6</ele>
        <time>2024-04-14T07:27:17Z</time>
      </trkpt>
      <trkpt lat="45.92786" lon="3.39856">
        <ele>289.6</ele>
        <time>2024-04-14T07:27:18Z</time>
      </trkpt>
      <trkpt lat="45.92794" lon="3.39862">
        <ele>289.6</ele>
        <time>2024-04-14T07:27:19Z</time>
      </trkpt>
      <trkpt lat="45.92802" lon="3.39867">
        <ele>289.4</ele>
        <time>2024-04-14T07:27:20Z</time>
      </trkpt>
      <trkpt lat="45.92809" lon="3.39872">
        <ele>289.4</ele>
        <time>2024-04-14T07:27:21Z</time>
      </trkpt>
      <trkpt lat="45.92816" lon="3.39877">
        <ele>289.4</ele>
        <time>2024-04-14T07:27:22Z</time>
      </trkpt>
      <trkpt lat="45.92822" lon="3.39882">
        <ele>289.4</ele>
        <time>2024-04-14T07:27:23Z</time>
      </trkpt>
      <trkpt lat="45.92829" lon="3.39887">
        <ele>289.4</ele>
        <time>2024-04-14T07:27:24Z</time>
      </trkpt>
      <trkpt lat="45.92836" lon="3.39891">
        <ele>289.4</ele>
        <time>2024-04-14T07:27:25Z</time>
      </trkpt>
      <trkpt lat="45.92843" lon="3.39895">
        <ele>289.2</ele>
        <time>2024-04-14T07:27:26Z</time>
      </trkpt>
      <trkpt lat="45.92851" lon="3.39899">
        <ele>289.2</ele>
        <time>2024-04-14T07:27:27Z</time>
      </trkpt>
      <trkpt lat="45.92859" lon="3.39903">
        <ele>289.2</ele>
        <time>2024-04-14T07:27:28Z</time>
      </trkpt>
      <trkpt lat="45.92867" lon="3.39908">
        <ele>289</ele>
        <time>2024-04-14T07:27:29Z</time>
      </trkpt>
      <trkpt lat="45.92875" lon="3.39914">
        <ele>289</ele>
        <time>2024-04-14T07:27:30Z</time>
      </trkpt>
      <trkpt lat="45.92883" lon="3.3992">
        <ele>289</ele>
        <time>2024-04-14T07:27:31Z</time>
      </trkpt>
      <trkpt lat="45.92891" lon="3.39927">
        <ele>288.8</ele>
        <time>2024-04-14T07:27:32Z</time>
      </trkpt>
      <trkpt lat="45.92896" lon="3.39938">
        <ele>288.8</ele>
        <time>2024-04-14T07:27:33Z</time>
      </trkpt>
      <trkpt lat="45.92901" lon="3.39948">
        <ele>288.8</ele>
        <time>2024-04-14T07:27:34Z</time>
      </trkpt>
      <trkpt lat="45.92906" lon="3.39958">
        <ele>288.8</ele>
        <time>2024-04-14T07:27:35Z</time>
      </trkpt>
      <trkpt lat="45.92912" lon="3.39969">
        <ele>288.8</ele>
        <time>2024-04-14T07:27:36Z</time>
      </trkpt>
      <trkpt lat="45.92917" lon="3.39979">
        <ele>288.8</ele>
        <time>2024-04-14T07:27:37Z</time>
      </trkpt>
      <trkpt lat="45.92922" lon="3.39989">
        <ele>288.6</ele>
        <time>2024-04-14T07:27:38Z</time>
      </trkpt>
      <trkpt lat="45.92927" lon="3.4">
        <ele>288.6</ele>
        <time>2024-04-14T07:27:39Z</time>
      </trkpt>
      <trkpt lat="45.92932" lon="3.40009">
        <ele>288.6</ele>
        <time>2024-04-14T07:27:40Z</time>
      </trkpt>
      <trkpt lat="45.92937" lon="3.40019">
        <ele>288.6</ele>
        <time>2024-04-14T07:27:41Z</time>
      </trkpt>
      <trkpt lat="45.92942" lon="3.40029">
        <ele>288.6</ele>
        <time>2024-04-14T07:27:42Z</time>
      </trkpt>
      <trkpt lat="45.92944" lon="3.40041">
        <ele>288.6</ele>
        <time>2024-04-14T07:27:43Z</time>
      </trkpt>
      <trkpt lat="45.92947" lon="3.40052">
        <ele>288.4</ele>
        <time>2024-04-14T07:27:44Z</time>
      </trkpt>
      <trkpt lat="45.9295" lon="3.40063">
        <ele>288.4</ele>
        <time>2024-04-14T07:27:45Z</time>
      </trkpt>
      <trkpt lat="45.92952" lon="3.40075">
        <ele>288.4</ele>
        <time>2024-04-14T07:27:46Z</time>
      </trkpt>
      <trkpt lat="45.92953" lon="3.40086">
        <ele>288.4</ele>
        <time>2024-04-14T07:27:47Z</time>
      </trkpt>
      <trkpt lat="45.92954" lon="3.40098">
        <ele>288.4</ele>
        <time>2024-04-14T07:27:48Z</time>
      </trkpt>
      <trkpt lat="45.92956" lon="3.40109">
        <ele>288.4</ele>
        <time>2024-04-14T07:27:49Z</time>
      </trkpt>
      <trkpt lat="45.92957" lon="3.40121">
        <ele>288.4</ele>
        <time>2024-04-14T07:27:50Z</time>
      </trkpt>
      <trkpt lat="45.92959" lon="3.40133">
        <ele>288.4</ele>
        <time>2024-04-14T07:27:51Z</time>
      </trkpt>
      <trkpt lat="45.9296" lon="3.40145">
        <ele>288.4</ele>
        <time>2024-04-14T07:27:52Z</time>
      </trkpt>
      <trkpt lat="45.92962" lon="3.40156">
        <ele>288.4</ele>
        <time>2024-04-14T07:27:53Z</time>
      </trkpt>
      <trkpt lat="45.92963" lon="3.40168">
        <ele>288.4</ele>
        <time>2024-04-14T07:27:54Z</time>
      </trkpt>
      <trkpt lat="45.92965" lon="3.4018">
        <ele>288.4</ele>
        <time>2024-04-14T07:27:55Z</time>
      </trkpt>
      <trkpt lat="45.92967" lon="3.40192">
        <ele>288.4</ele>
        <time>2024-04-14T07:27:56Z</time>
      </trkpt>
      <trkpt lat="45.9297" lon="3.40203">
        <ele>288.4</ele>
        <time>2024-04-14T07:27:57Z</time>
      </trkpt>
      <trkpt lat="45.92973" lon="3.40215">
        <ele>288.4</ele>
        <time>2024-04-14T07:27:58Z</time>
      </trkpt>
      <trkpt lat="45.92976" lon="3.40226">
        <ele>288.4</ele>
        <time>2024-04-14T07:27:59Z</time>
      </trkpt>
      <trkpt lat="45.92978" lon="3.40237">
        <ele>288.2</ele>
        <time>2024-04-14T07:28:00Z</time>
      </trkpt>
      <trkpt lat="45.92982" lon="3.40248">
        <ele>288.2</ele>
        <time>2024-04-14T07:28:01Z</time>
      </trkpt>
      <trkpt lat="45.92986" lon="3.40258">
        <ele>288.2</ele>
        <time>2024-04-14T07:28:02Z</time>
      </trkpt>
      <trkpt lat="45.9299" lon="3.40269">
        <ele>288.2</ele>
        <time>2024-04-14T07:28:03Z</time>
      </trkpt>
      <trkpt lat="45.92994" lon="3.4028">
        <ele>288</ele>
        <time>2024-04-14T07:28:04Z</time>
      </trkpt>
      <trkpt lat="45.92998" lon="3.40291">
        <ele>288</ele>
        <time>2024-04-14T07:28:05Z</time>
      </trkpt>
      <trkpt lat="45.93002" lon="3.40302">
        <ele>288</ele>
        <time>2024-04-14T07:28:06Z</time>
      </trkpt>
      <trkpt lat="45.93006" lon="3.40313">
        <ele>288</ele>
        <time>2024-04-14T07:28:07Z</time>
      </trkpt>
      <trkpt lat="45.9301" lon="3.40324">
        <ele>288</ele>
        <time>2024-04-14T07:28:08Z</time>
      </trkpt>
      <trkpt lat="45.93014" lon="3.40336">
        <ele>288</ele>
        <time>2024-04-14T07:28:09Z</time>
      </trkpt>
      <trkpt lat="45.93017" lon="3.40348">
        <ele>287.8</ele>
        <time>2024-04-14T07:28:10Z</time>
      </trkpt>
      <trkpt lat="45.93019" lon="3.4036">
        <ele>287.8</ele>
        <time>2024-04-14T07:28:11Z</time>
      </trkpt>
      <trkpt lat="45.93021" lon="3.40373">
        <ele>287.8</ele>
        <time>2024-04-14T07:28:12Z</time>
      </trkpt>
      <trkpt lat="45.93024" lon="3.40385">
        <ele>287.8</ele>
        <time>2024-04-14T07:28:13Z</time>
      </trkpt>
      <trkpt lat="45.93026" lon="3.40397">
        <ele>287.8</ele>
        <time>2024-04-14T07:28:14Z</time>
      </trkpt>
      <trkpt lat="45.93028" lon="3.40409">
        <ele>287.8</ele>
        <time>2024-04-14T07:28:15Z</time>
      </trkpt>
      <trkpt lat="45.9303" lon="3.40421">
        <ele>287.8</ele>
        <time>2024-04-14T07:28:16Z</time>
      </trkpt>
      <trkpt lat="45.93033" lon="3.40433">
        <ele>287.8</ele>
        <time>2024-04-14T07:28:17Z</time>
      </trkpt>
      <trkpt lat="45.93035" lon="3.40444">
        <ele>287.8</ele>
        <time>2024-04-14T07:28:18Z</time>
      </trkpt>
      <trkpt lat="45.93037" lon="3.40455">
        <ele>287.8</ele>
        <time>2024-04-14T07:28:19Z</time>
      </trkpt>
      <trkpt lat="45.93039" lon="3.40466">
        <ele>287.8</ele>
        <time>2024-04-14T07:28:20Z</time>
      </trkpt>
      <trkpt lat="45.93042" lon="3.40477">
        <ele>287.8</ele>
        <time>2024-04-14T07:28:21Z</time>
      </trkpt>
      <trkpt lat="45.93044" lon="3.40487">
        <ele>287.8</ele>
        <time>2024-04-14T07:28:22Z</time>
      </trkpt>
      <trkpt lat="45.93047" lon="3.40498">
        <ele>287.8</ele>
        <time>2024-04-14T07:28:23Z</time>
      </trkpt>
      <trkpt lat="45.9305" lon="3.40508">
        <ele>287.8</ele>
        <time>2024-04-14T07:28:24Z</time>
      </trkpt>
      <trkpt lat="45.93052" lon="3.40519">
        <ele>287.8</ele>
        <time>2024-04-14T07:28:25Z</time>
      </trkpt>
      <trkpt lat="45.93056" lon="3.40529">
        <ele>287.8</ele>
        <time>2024-04-14T07:28:26Z</time>
      </trkpt>
      <trkpt lat="45.9306" lon="3.40539">
        <ele>287.8</ele>
        <time>2024-04-14T07:28:27Z</time>
      </trkpt>
      <trkpt lat="45.93064" lon="3.40548">
        <ele>287.8</ele>
        <time>2024-04-14T07:28:28Z</time>
      </trkpt>
      <trkpt lat="45.93069" lon="3.40558">
        <ele>287.6</ele>
        <time>2024-04-14T07:28:29Z</time>
      </trkpt>
      <trkpt lat="45.93073" lon="3.40568">
        <ele>287.6</ele>
        <time>2024-04-14T07:28:30Z</time>
      </trkpt>
      <trkpt lat="45.93077" lon="3.40578">
        <ele>287.6</ele>
        <time>2024-04-14T07:28:31Z</time>
      </trkpt>
      <trkpt lat="45.93081" lon="3.40587">
        <ele>287.6</ele>
        <time>2024-04-14T07:28:32Z</time>
      </trkpt>
      <trkpt lat="45.93085" lon="3.40597">
        <ele>287.6</ele>
        <time>2024-04-14T07:28:33Z</time>
      </trkpt>
      <trkpt lat="45.93089" lon="3.40608">
        <ele>287.8</ele>
        <time>2024-04-14T07:28:34Z</time>
      </trkpt>
      <trkpt lat="45.93092" lon="3.40619">
        <ele>287.8</ele>
        <time>2024-04-14T07:28:35Z</time>
      </trkpt>
      <trkpt lat="45.93096" lon="3.40629">
        <ele>287.6</ele>
        <time>2024-04-14T07:28:36Z</time>
      </trkpt>
      <trkpt lat="45.93099" lon="3.40641">
        <ele>287.6</ele>
        <time>2024-04-14T07:28:37Z</time>
      </trkpt>
      <trkpt lat="45.93103" lon="3.40652">
        <ele>287.6</ele>
        <time>2024-04-14T07:28:38Z</time>
      </trkpt>
      <trkpt lat="45.93106" lon="3.40663">
        <ele>287.6</ele>
        <time>2024-04-14T07:28:39Z</time>
      </trkpt>
      <trkpt lat="45.93109" lon="3.40675">
        <ele>287.6</ele>
        <time>2024-04-14T07:28:40Z</time>
      </trkpt>
      <trkpt lat="45.93113" lon="3.40686">
        <ele>287.8</ele>
        <time>2024-04-14T07:28:41Z</time>
      </trkpt>
      <trkpt lat="45.93116" lon="3.40698">
        <ele>287.8</ele>
        <time>2024-04-14T07:28:42Z</time>
      </trkpt>
      <trkpt lat="45.93119" lon="3.4071">
        <ele>287.8</ele>
        <time>2024-04-14T07:28:43Z</time>
      </trkpt>
      <trkpt lat="45.93122" lon="3.40721">
        <ele>287.6</ele>
        <time>2024-04-14T07:28:44Z</time>
      </trkpt>
      <trkpt lat="45.93125" lon="3.40733">
        <ele>287.8</ele>
        <time>2024-04-14T07:28:45Z</time>
      </trkpt>
      <trkpt lat="45.93128" lon="3.40745">
        <ele>287.8</ele>
        <time>2024-04-14T07:28:46Z</time>
      </trkpt>
      <trkpt lat="45.9313" lon="3.40756">
        <ele>287.8</ele>
        <time>2024-04-14T07:28:47Z</time>
      </trkpt>
      <trkpt lat="45.93133" lon="3.40768">
        <ele>287.8</ele>
        <time>2024-04-14T07:28:48Z</time>
      </trkpt>
      <trkpt lat="45.93136" lon="3.40779">
        <ele>287.8</ele>
        <time>2024-04-14T07:28:49Z</time>
      </trkpt>
      <trkpt lat="45.93139" lon="3.4079">
        <ele>287.8</ele>
        <time>2024-04-14T07:28:50Z</time>
      </trkpt>
      <trkpt lat="45.93142" lon="3.40802">
        <ele>287.8</ele>
        <time>2024-04-14T07:28:51Z</time>
      </trkpt>
      <trkpt lat="45.93145" lon="3.40813">
        <ele>287.8</ele>
        <time>2024-04-14T07:28:52Z</time>
      </trkpt>
      <trkpt lat="45.93148" lon="3.40824">
        <ele>287.8</ele>
        <time>2024-04-14T07:28:53Z</time>
      </trkpt>
      <trkpt lat="45.93151" lon="3.40836">
        <ele>287.8</ele>
        <time>2024-04-14T07:28:54Z</time>
      </trkpt>
      <trkpt lat="45.93154" lon="3.40847">
        <ele>287.8</ele>
        <time>2024-04-14T07:28:55Z</time>
      </trkpt>
      <trkpt lat="45.93156" lon="3.40858">
        <ele>288</ele>
        <time>2024-04-14T07:28:56Z</time>
      </trkpt>
      <trkpt lat="45.93159" lon="3.4087">
        <ele>288</ele>
        <time>2024-04-14T07:28:57Z</time>
      </trkpt>
      <trkpt lat="45.93162" lon="3.40881">
        <ele>288</ele>
        <time>2024-04-14T07:28:58Z</time>
      </trkpt>
      <trkpt lat="45.93165" lon="3.40892">
        <ele>288</ele>
        <time>2024-04-14T07:28:59Z</time>
      </trkpt>
      <trkpt lat="45.93168" lon="3.40903">
        <ele>288</ele>
        <time>2024-04-14T07:29:00Z</time>
      </trkpt>
      <trkpt lat="45.93171" lon="3.40914">
        <ele>288</ele>
        <time>2024-04-14T07:29:01Z</time>
      </trkpt>
      <trkpt lat="45.93174" lon="3.40925">
        <ele>288</ele>
        <time>2024-04-14T07:29:02Z</time>
      </trkpt>
      <trkpt lat="45.93178" lon="3.40935">
        <ele>288.2</ele>
        <time>2024-04-14T07:29:03Z</time>
      </trkpt>
      <trkpt lat="45.93183" lon="3.40945">
        <ele>288</ele>
        <time>2024-04-14T07:29:04Z</time>
      </trkpt>
      <trkpt lat="45.93187" lon="3.40955">
        <ele>288</ele>
        <time>2024-04-14T07:29:05Z</time>
      </trkpt>
      <trkpt lat="45.93191" lon="3.40966">
        <ele>288.2</ele>
        <time>2024-04-14T07:29:06Z</time>
      </trkpt>
      <trkpt lat="45.93195" lon="3.40976">
        <ele>288.2</ele>
        <time>2024-04-14T07:29:07Z</time>
      </trkpt>
      <trkpt lat="45.932" lon="3.40986">
        <ele>288.2</ele>
        <time>2024-04-14T07:29:08Z</time>
      </trkpt>
      <trkpt lat="45.93204" lon="3.40996">
        <ele>288.2</ele>
        <time>2024-04-14T07:29:09Z</time>
      </trkpt>
      <trkpt lat="45.93208" lon="3.41006">
        <ele>288.2</ele>
        <time>2024-04-14T07:29:10Z</time>
      </trkpt>
      <trkpt lat="45.93213" lon="3.41017">
        <ele>288.2</ele>
        <time>2024-04-14T07:29:11Z</time>
      </trkpt>
      <trkpt lat="45.93218" lon="3.41026">
        <ele>288.2</ele>
        <time>2024-04-14T07:29:12Z</time>
      </trkpt>
      <trkpt lat="45.93224" lon="3.41036">
        <ele>288.2</ele>
        <time>2024-04-14T07:29:13Z</time>
      </trkpt>
      <trkpt lat="45.9323" lon="3.41045">
        <ele>288.2</ele>
        <time>2024-04-14T07:29:14Z</time>
      </trkpt>
      <trkpt lat="45.93236" lon="3.41055">
        <ele>288.2</ele>
        <time>2024-04-14T07:29:15Z</time>
      </trkpt>
      <trkpt lat="45.93242" lon="3.41064">
        <ele>288</ele>
        <time>2024-04-14T07:29:16Z</time>
      </trkpt>
      <trkpt lat="45.93248" lon="3.41074">
        <ele>288.2</ele>
        <time>2024-04-14T07:29:17Z</time>
      </trkpt>
      <trkpt lat="45.93256" lon="3.41083">
        <ele>287.8</ele>
        <time>2024-04-14T07:29:18Z</time>
      </trkpt>
      <trkpt lat="45.93263" lon="3.41092">
        <ele>287.8</ele>
        <time>2024-04-14T07:29:19Z</time>
      </trkpt>
      <trkpt lat="45.93271" lon="3.411">
        <ele>287.8</ele>
        <time>2024-04-14T07:29:20Z</time>
      </trkpt>
      <trkpt lat="45.93278" lon="3.41108">
        <ele>287.8</ele>
        <time>2024-04-14T07:29:21Z</time>
      </trkpt>
      <trkpt lat="45.93287" lon="3.41111">
        <ele>287.6</ele>
        <time>2024-04-14T07:29:22Z</time>
      </trkpt>
      <trkpt lat="45.93296" lon="3.41113">
        <ele>287.6</ele>
        <time>2024-04-14T07:29:23Z</time>
      </trkpt>
      <trkpt lat="45.93306" lon="3.41114">
        <ele>287.6</ele>
        <time>2024-04-14T07:29:24Z</time>
      </trkpt>
      <trkpt lat="45.93315" lon="3.41115">
        <ele>287.6</ele>
        <time>2024-04-14T07:29:25Z</time>
      </trkpt>
      <trkpt lat="45.93325" lon="3.41114">
        <ele>287.4</ele>
        <time>2024-04-14T07:29:26Z</time>
      </trkpt>
      <trkpt lat="45.93335" lon="3.41114">
        <ele>287.4</ele>
        <time>2024-04-14T07:29:27Z</time>
      </trkpt>
      <trkpt lat="45.93344" lon="3.41114">
        <ele>287.4</ele>
        <time>2024-04-14T07:29:28Z</time>
      </trkpt>
      <trkpt lat="45.93354" lon="3.41113">
        <ele>287.4</ele>
        <time>2024-04-14T07:29:29Z</time>
      </trkpt>
      <trkpt lat="45.93363" lon="3.41113">
        <ele>287.4</ele>
        <time>2024-04-14T07:29:30Z</time>
      </trkpt>
      <trkpt lat="45.93373" lon="3.41113">
        <ele>287.4</ele>
        <time>2024-04-14T07:29:31Z</time>
      </trkpt>
      <trkpt lat="45.93382" lon="3.41114">
        <ele>287.4</ele>
        <time>2024-04-14T07:29:32Z</time>
      </trkpt>
      <trkpt lat="45.93392" lon="3.41117">
        <ele>287.4</ele>
        <time>2024-04-14T07:29:33Z</time>
      </trkpt>
      <trkpt lat="45.93401" lon="3.41119">
        <ele>287.4</ele>
        <time>2024-04-14T07:29:34Z</time>
      </trkpt>
      <trkpt lat="45.9341" lon="3.41122">
        <ele>287.2</ele>
        <time>2024-04-14T07:29:35Z</time>
      </trkpt>
      <trkpt lat="45.93419" lon="3.41124">
        <ele>287.2</ele>
        <time>2024-04-14T07:29:36Z</time>
      </trkpt>
      <trkpt lat="45.93427" lon="3.41129">
        <ele>287.2</ele>
        <time>2024-04-14T07:29:37Z</time>
      </trkpt>
      <trkpt lat="45.93435" lon="3.41136">
        <ele>287.2</ele>
        <time>2024-04-14T07:29:38Z</time>
      </trkpt>
      <trkpt lat="45.93442" lon="3.41144">
        <ele>287.2</ele>
        <time>2024-04-14T07:29:39Z</time>
      </trkpt>
      <trkpt lat="45.93448" lon="3.41153">
        <ele>287.2</ele>
        <time>2024-04-14T07:29:40Z</time>
      </trkpt>
      <trkpt lat="45.93454" lon="3.41162">
        <ele>287</ele>
        <time>2024-04-14T07:29:41Z</time>
      </trkpt>
      <trkpt lat="45.93461" lon="3.41171">
        <ele>287</ele>
        <time>2024-04-14T07:29:42Z</time>
      </trkpt>
      <trkpt lat="45.93467" lon="3.4118">
        <ele>287</ele>
        <time>2024-04-14T07:29:43Z</time>
      </trkpt>
      <trkpt lat="45.93474" lon="3.41188">
        <ele>287</ele>
        <time>2024-04-14T07:29:44Z</time>
      </trkpt>
      <trkpt lat="45.9348" lon="3.41197">
        <ele>287</ele>
        <time>2024-04-14T07:29:45Z</time>
      </trkpt>
      <trkpt lat="45.93486" lon="3.41207">
        <ele>286.8</ele>
        <time>2024-04-14T07:29:46Z</time>
      </trkpt>
      <trkpt lat="45.93491" lon="3.41217">
        <ele>286.8</ele>
        <time>2024-04-14T07:29:47Z</time>
      </trkpt>
      <trkpt lat="45.93496" lon="3.41228">
        <ele>286.8</ele>
        <time>2024-04-14T07:29:48Z</time>
      </trkpt>
      <trkpt lat="45.93502" lon="3.41238">
        <ele>286.8</ele>
        <time>2024-04-14T07:29:49Z</time>
      </trkpt>
      <trkpt lat="45.93507" lon="3.41248">
        <ele>286.8</ele>
        <time>2024-04-14T07:29:50Z</time>
      </trkpt>
      <trkpt lat="45.93512" lon="3.41258">
        <ele>286.8</ele>
        <time>2024-04-14T07:29:51Z</time>
      </trkpt>
      <trkpt lat="45.93517" lon="3.41268">
        <ele>286.8</ele>
        <time>2024-04-14T07:29:52Z</time>
      </trkpt>
      <trkpt lat="45.93523" lon="3.41276">
        <ele>286.8</ele>
        <time>2024-04-14T07:29:53Z</time>
      </trkpt>
      <trkpt lat="45.9353" lon="3.41283">
        <ele>286.8</ele>
        <time>2024-04-14T07:29:54Z</time>
      </trkpt>
      <trkpt lat="45.93537" lon="3.4129">
        <ele>286.6</ele>
        <time>2024-04-14T07:29:55Z</time>
      </trkpt>
      <trkpt lat="45.93545" lon="3.41295">
        <ele>286.6</ele>
        <time>2024-04-14T07:29:56Z</time>
      </trkpt>
      <trkpt lat="45.93553" lon="3.413">
        <ele>286.6</ele>
        <time>2024-04-14T07:29:57Z</time>
      </trkpt>
      <trkpt lat="45.93561" lon="3.41306">
        <ele>286.6</ele>
        <time>2024-04-14T07:29:58Z</time>
      </trkpt>
      <trkpt lat="45.9357" lon="3.41311">
        <ele>286.6</ele>
        <time>2024-04-14T07:29:59Z</time>
      </trkpt>
      <trkpt lat="45.93578" lon="3.41316">
        <ele>286.6</ele>
        <time>2024-04-14T07:30:00Z</time>
      </trkpt>
      <trkpt lat="45.93586" lon="3.41321">
        <ele>286.4</ele>
        <time>2024-04-14T07:30:01Z</time>
      </trkpt>
      <trkpt lat="45.93595" lon="3.41327">
        <ele>286.4</ele>
        <time>2024-04-14T07:30:02Z</time>
      </trkpt>
      <trkpt lat="45.93603" lon="3.41332">
        <ele>286.4</ele>
        <time>2024-04-14T07:30:03Z</time>
      </trkpt>
      <trkpt lat="45.93611" lon="3.41337">
        <ele>286.4</ele>
        <time>2024-04-14T07:30:04Z</time>
      </trkpt>
      <trkpt lat="45.93619" lon="3.41342">
        <ele>286.2</ele>
        <time>2024-04-14T07:30:05Z</time>
      </trkpt>
      <trkpt lat="45.93626" lon="3.41347">
        <ele>286.2</ele>
        <time>2024-04-14T07:30:06Z</time>
      </trkpt>
      <trkpt lat="45.93634" lon="3.41352">
        <ele>286.2</ele>
        <time>2024-04-14T07:30:07Z</time>
      </trkpt>
      <trkpt lat="45.93642" lon="3.41357">
        <ele>286.2</ele>
        <time>2024-04-14T07:30:08Z</time>
      </trkpt>
      <trkpt lat="45.9365" lon="3.41363">
        <ele>286.2</ele>
        <time>2024-04-14T07:30:09Z</time>
      </trkpt>
      <trkpt lat="45.93658" lon="3.4137">
        <ele>286.2</ele>
        <time>2024-04-14T07:30:10Z</time>
      </trkpt>
      <trkpt lat="45.93665" lon="3.41377">
        <ele>286.2</ele>
        <time>2024-04-14T07:30:11Z</time>
      </trkpt>
      <trkpt lat="45.93672" lon="3.41384">
        <ele>286.2</ele>
        <time>2024-04-14T07:30:12Z</time>
      </trkpt>
      <trkpt lat="45.93679" lon="3.41391">
        <ele>286.2</ele>
        <time>2024-04-14T07:30:13Z</time>
      </trkpt>
      <trkpt lat="45.93686" lon="3.41398">
        <ele>286.2</ele>
        <time>2024-04-14T07:30:14Z</time>
      </trkpt>
      <trkpt lat="45.93693" lon="3.41404">
        <ele>286.2</ele>
        <time>2024-04-14T07:30:15Z</time>
      </trkpt>
      <trkpt lat="45.937" lon="3.41411">
        <ele>286.2</ele>
        <time>2024-04-14T07:30:16Z</time>
      </trkpt>
      <trkpt lat="45.93707" lon="3.41418">
        <ele>286.2</ele>
        <time>2024-04-14T07:30:17Z</time>
      </trkpt>
      <trkpt lat="45.93714" lon="3.41423">
        <ele>286.2</ele>
        <time>2024-04-14T07:30:18Z</time>
      </trkpt>
      <trkpt lat="45.93722" lon="3.41428">
        <ele>286</ele>
        <time>2024-04-14T07:30:19Z</time>
      </trkpt>
      <trkpt lat="45.93729" lon="3.41433">
        <ele>286</ele>
        <time>2024-04-14T07:30:20Z</time>
      </trkpt>
      <trkpt lat="45.93737" lon="3.41439">
        <ele>286</ele>
        <time>2024-04-14T07:30:21Z</time>
      </trkpt>
      <trkpt lat="45.93745" lon="3.41444">
        <ele>286</ele>
        <time>2024-04-14T07:30:22Z</time>
      </trkpt>
      <trkpt lat="45.93753" lon="3.41449">
        <ele>286</ele>
        <time>2024-04-14T07:30:23Z</time>
      </trkpt>
      <trkpt lat="45.93761" lon="3.41454">
        <ele>286</ele>
        <time>2024-04-14T07:30:24Z</time>
      </trkpt>
      <trkpt lat="45.93769" lon="3.4146">
        <ele>286</ele>
        <time>2024-04-14T07:30:25Z</time>
      </trkpt>
      <trkpt lat="45.93776" lon="3.41465">
        <ele>286</ele>
        <time>2024-04-14T07:30:26Z</time>
      </trkpt>
      <trkpt lat="45.93784" lon="3.4147">
        <ele>286</ele>
        <time>2024-04-14T07:30:27Z</time>
      </trkpt>
      <trkpt lat="45.93792" lon="3.41475">
        <ele>286</ele>
        <time>2024-04-14T07:30:28Z</time>
      </trkpt>
      <trkpt lat="45.93799" lon="3.4148">
        <ele>286</ele>
        <time>2024-04-14T07:30:29Z</time>
      </trkpt>
      <trkpt lat="45.93807" lon="3.41486">
        <ele>286</ele>
        <time>2024-04-14T07:30:30Z</time>
      </trkpt>
      <trkpt lat="45.93815" lon="3.41491">
        <ele>286</ele>
        <time>2024-04-14T07:30:31Z</time>
      </trkpt>
      <trkpt lat="45.93823" lon="3.41496">
        <ele>286</ele>
        <time>2024-04-14T07:30:32Z</time>
      </trkpt>
      <trkpt lat="45.93831" lon="3.41502">
        <ele>285.8</ele>
        <time>2024-04-14T07:30:33Z</time>
      </trkpt>
      <trkpt lat="45.93838" lon="3.41508">
        <ele>285.8</ele>
        <time>2024-04-14T07:30:34Z</time>
      </trkpt>
      <trkpt lat="45.93846" lon="3.41514">
        <ele>285.8</ele>
        <time>2024-04-14T07:30:35Z</time>
      </trkpt>
      <trkpt lat="45.93854" lon="3.4152">
        <ele>285.8</ele>
        <time>2024-04-14T07:30:36Z</time>
      </trkpt>
      <trkpt lat="45.93861" lon="3.41526">
        <ele>285.8</ele>
        <time>2024-04-14T07:30:37Z</time>
      </trkpt>
      <trkpt lat="45.93869" lon="3.41532">
        <ele>285.8</ele>
        <time>2024-04-14T07:30:38Z</time>
      </trkpt>
      <trkpt lat="45.93876" lon="3.41538">
        <ele>285.8</ele>
        <time>2024-04-14T07:30:39Z</time>
      </trkpt>
      <trkpt lat="45.93884" lon="3.41544">
        <ele>285.8</ele>
        <time>2024-04-14T07:30:40Z</time>
      </trkpt>
      <trkpt lat="45.93892" lon="3.4155">
        <ele>285.8</ele>
        <time>2024-04-14T07:30:41Z</time>
      </trkpt>
      <trkpt lat="45.93896" lon="3.41561">
        <ele>285.8</ele>
        <time>2024-04-14T07:30:42Z</time>
      </trkpt>
      <trkpt lat="45.939" lon="3.41572">
        <ele>285.8</ele>
        <time>2024-04-14T07:30:43Z</time>
      </trkpt>
      <trkpt lat="45.93905" lon="3.41584">
        <ele>285.8</ele>
        <time>2024-04-14T07:30:44Z</time>
      </trkpt>
      <trkpt lat="45.93909" lon="3.41594">
        <ele>285.8</ele>
        <time>2024-04-14T07:30:45Z</time>
      </trkpt>
      <trkpt lat="45.93913" lon="3.41605">
        <ele>285.8</ele>
        <time>2024-04-14T07:30:46Z</time>
      </trkpt>
      <trkpt lat="45.93917" lon="3.41616">
        <ele>285.8</ele>
        <time>2024-04-14T07:30:47Z</time>
      </trkpt>
      <trkpt lat="45.9392" lon="3.41626">
        <ele>285.8</ele>
        <time>2024-04-14T07:30:48Z</time>
      </trkpt>
      <trkpt lat="45.93925" lon="3.41636">
        <ele>285.8</ele>
        <time>2024-04-14T07:30:49Z</time>
      </trkpt>
      <trkpt lat="45.93932" lon="3.41644">
        <ele>285.8</ele>
        <time>2024-04-14T07:30:50Z</time>
      </trkpt>
      <trkpt lat="45.93938" lon="3.41652">
        <ele>285.8</ele>
        <time>2024-04-14T07:30:51Z</time>
      </trkpt>
      <trkpt lat="45.93944" lon="3.4166">
        <ele>285.8</ele>
        <time>2024-04-14T07:30:52Z</time>
      </trkpt>
      <trkpt lat="45.93952" lon="3.41667">
        <ele>285.8</ele>
        <time>2024-04-14T07:30:53Z</time>
      </trkpt>
      <trkpt lat="45.93959" lon="3.41674">
        <ele>285.8</ele>
        <time>2024-04-14T07:30:54Z</time>
      </trkpt>
      <trkpt lat="45.93966" lon="3.4168">
        <ele>285.8</ele>
        <time>2024-04-14T07:30:55Z</time>
      </trkpt>
      <trkpt lat="45.93973" lon="3.41687">
        <ele>285.8</ele>
        <time>2024-04-14T07:30:56Z</time>
      </trkpt>
      <trkpt lat="45.93981" lon="3.41694">
        <ele>285.8</ele>
        <time>2024-04-14T07:30:57Z</time>
      </trkpt>
      <trkpt lat="45.93988" lon="3.41701">
        <ele>285.6</ele>
        <time>2024-04-14T07:30:58Z</time>
      </trkpt>
      <trkpt lat="45.93996" lon="3.41708">
        <ele>285.6</ele>
        <time>2024-04-14T07:30:59Z</time>
      </trkpt>
      <trkpt lat="45.94003" lon="3.41717">
        <ele>285.6</ele>
        <time>2024-04-14T07:31:00Z</time>
      </trkpt>
      <trkpt lat="45.94008" lon="3.41728">
        <ele>285.6</ele>
        <time>2024-04-14T07:31:01Z</time>
      </trkpt>
      <trkpt lat="45.94012" lon="3.41739">
        <ele>285.6</ele>
        <time>2024-04-14T07:31:02Z</time>
      </trkpt>
      <trkpt lat="45.94016" lon="3.4175">
        <ele>285.6</ele>
        <time>2024-04-14T07:31:03Z</time>
      </trkpt>
      <trkpt lat="45.94021" lon="3.41761">
        <ele>285.6</ele>
        <time>2024-04-14T07:31:04Z</time>
      </trkpt>
      <trkpt lat="45.94025" lon="3.41773">
        <ele>285.6</ele>
        <time>2024-04-14T07:31:05Z</time>
      </trkpt>
      <trkpt lat="45.9403" lon="3.41784">
        <ele>285.6</ele>
        <time>2024-04-14T07:31:06Z</time>
      </trkpt>
      <trkpt lat="45.94034" lon="3.41796">
        <ele>285.4</ele>
        <time>2024-04-14T07:31:07Z</time>
      </trkpt>
      <trkpt lat="45.94038" lon="3.41807">
        <ele>285.4</ele>
        <time>2024-04-14T07:31:08Z</time>
      </trkpt>
      <trkpt lat="45.94042" lon="3.41818">
        <ele>285.4</ele>
        <time>2024-04-14T07:31:09Z</time>
      </trkpt>
      <trkpt lat="45.94045" lon="3.41831">
        <ele>285.4</ele>
        <time>2024-04-14T07:31:10Z</time>
      </trkpt>
      <trkpt lat="45.94048" lon="3.41843">
        <ele>285.4</ele>
        <time>2024-04-14T07:31:11Z</time>
      </trkpt>
      <trkpt lat="45.94051" lon="3.41855">
        <ele>285.4</ele>
        <time>2024-04-14T07:31:12Z</time>
      </trkpt>
      <trkpt lat="45.94054" lon="3.41868">
        <ele>285.4</ele>
        <time>2024-04-14T07:31:13Z</time>
      </trkpt>
      <trkpt lat="45.94057" lon="3.4188">
        <ele>285.4</ele>
        <time>2024-04-14T07:31:14Z</time>
      </trkpt>
      <trkpt lat="45.9406" lon="3.41893">
        <ele>285.2</ele>
        <time>2024-04-14T07:31:15Z</time>
      </trkpt>
      <trkpt lat="45.94062" lon="3.41905">
        <ele>285.2</ele>
        <time>2024-04-14T07:31:16Z</time>
      </trkpt>
      <trkpt lat="45.94065" lon="3.41917">
        <ele>285.2</ele>
        <time>2024-04-14T07:31:17Z</time>
      </trkpt>
      <trkpt lat="45.94068" lon="3.4193">
        <ele>285</ele>
        <time>2024-04-14T07:31:18Z</time>
      </trkpt>
      <trkpt lat="45.94071" lon="3.41942">
        <ele>285</ele>
        <time>2024-04-14T07:31:19Z</time>
      </trkpt>
      <trkpt lat="45.94074" lon="3.41954">
        <ele>285</ele>
        <time>2024-04-14T07:31:20Z</time>
      </trkpt>
      <trkpt lat="45.94077" lon="3.41967">
        <ele>285</ele>
        <time>2024-04-14T07:31:21Z</time>
      </trkpt>
      <trkpt lat="45.9408" lon="3.41979">
        <ele>285</ele>
        <time>2024-04-14T07:31:22Z</time>
      </trkpt>
      <trkpt lat="45.94082" lon="3.41991">
        <ele>284.8</ele>
        <time>2024-04-14T07:31:23Z</time>
      </trkpt>
      <trkpt lat="45.94085" lon="3.42003">
        <ele>284.8</ele>
        <time>2024-04-14T07:31:24Z</time>
      </trkpt>
      <trkpt lat="45.94088" lon="3.42016">
        <ele>284.8</ele>
        <time>2024-04-14T07:31:25Z</time>
      </trkpt>
      <trkpt lat="45.94091" lon="3.42028">
        <ele>284.8</ele>
        <time>2024-04-14T07:31:26Z</time>
      </trkpt>
      <trkpt lat="45.94094" lon="3.4204">
        <ele>284.8</ele>
        <time>2024-04-14T07:31:27Z</time>
      </trkpt>
      <trkpt lat="45.94096" lon="3.42052">
        <ele>284.8</ele>
        <time>2024-04-14T07:31:28Z</time>
      </trkpt>
      <trkpt lat="45.94099" lon="3.42064">
        <ele>284.8</ele>
        <time>2024-04-14T07:31:29Z</time>
      </trkpt>
      <trkpt lat="45.94101" lon="3.42076">
        <ele>284.8</ele>
        <time>2024-04-14T07:31:30Z</time>
      </trkpt>
      <trkpt lat="45.94102" lon="3.42088">
        <ele>284.8</ele>
        <time>2024-04-14T07:31:31Z</time>
      </trkpt>
      <trkpt lat="45.94103" lon="3.421">
        <ele>284.8</ele>
        <time>2024-04-14T07:31:32Z</time>
      </trkpt>
      <trkpt lat="45.94104" lon="3.42112">
        <ele>285</ele>
        <time>2024-04-14T07:31:33Z</time>
      </trkpt>
      <trkpt lat="45.94105" lon="3.42124">
        <ele>285</ele>
        <time>2024-04-14T07:31:34Z</time>
      </trkpt>
      <trkpt lat="45.94106" lon="3.42135">
        <ele>285</ele>
        <time>2024-04-14T07:31:35Z</time>
      </trkpt>
      <trkpt lat="45.94107" lon="3.42147">
        <ele>284.6</ele>
        <time>2024-04-14T07:31:36Z</time>
      </trkpt>
      <trkpt lat="45.94106" lon="3.42159">
        <ele>284.8</ele>
        <time>2024-04-14T07:31:37Z</time>
      </trkpt>
      <trkpt lat="45.94105" lon="3.4217">
        <ele>285.2</ele>
        <time>2024-04-14T07:31:38Z</time>
      </trkpt>
      <trkpt lat="45.94104" lon="3.42181">
        <ele>285.2</ele>
        <time>2024-04-14T07:31:39Z</time>
      </trkpt>
      <trkpt lat="45.94103" lon="3.42192">
        <ele>285.4</ele>
        <time>2024-04-14T07:31:40Z</time>
      </trkpt>
      <trkpt lat="45.94103" lon="3.42204">
        <ele>285.2</ele>
        <time>2024-04-14T07:31:41Z</time>
      </trkpt>
      <trkpt lat="45.94103" lon="3.42215">
        <ele>285.2</ele>
        <time>2024-04-14T07:31:42Z</time>
      </trkpt>
      <trkpt lat="45.94104" lon="3.42226">
        <ele>285.2</ele>
        <time>2024-04-14T07:31:43Z</time>
      </trkpt>
      <trkpt lat="45.94104" lon="3.42236">
        <ele>285.2</ele>
        <time>2024-04-14T07:31:44Z</time>
      </trkpt>
      <trkpt lat="45.94105" lon="3.42247">
        <ele>285.2</ele>
        <time>2024-04-14T07:31:45Z</time>
      </trkpt>
      <trkpt lat="45.94106" lon="3.42257">
        <ele>285.2</ele>
        <time>2024-04-14T07:31:46Z</time>
      </trkpt>
      <trkpt lat="45.94108" lon="3.42266">
        <ele>285.4</ele>
        <time>2024-04-14T07:31:47Z</time>
      </trkpt>
      <trkpt lat="45.94111" lon="3.42276">
        <ele>285.4</ele>
        <time>2024-04-14T07:31:48Z</time>
      </trkpt>
      <trkpt lat="45.94113" lon="3.42285">
        <ele>285.4</ele>
        <time>2024-04-14T07:31:49Z</time>
      </trkpt>
      <trkpt lat="45.94115" lon="3.42295">
        <ele>285.4</ele>
        <time>2024-04-14T07:31:50Z</time>
      </trkpt>
      <trkpt lat="45.94118" lon="3.42303">
        <ele>285.4</ele>
        <time>2024-04-14T07:31:51Z</time>
      </trkpt>
      <trkpt lat="45.9412" lon="3.42312">
        <ele>285.4</ele>
        <time>2024-04-14T07:31:52Z</time>
      </trkpt>
      <trkpt lat="45.94122" lon="3.42321">
        <ele>285.4</ele>
        <time>2024-04-14T07:31:53Z</time>
      </trkpt>
      <trkpt lat="45.94124" lon="3.4233">
        <ele>285.4</ele>
        <time>2024-04-14T07:31:54Z</time>
      </trkpt>
      <trkpt lat="45.94126" lon="3.42339">
        <ele>285.4</ele>
        <time>2024-04-14T07:31:55Z</time>
      </trkpt>
      <trkpt lat="45.94129" lon="3.42347">
        <ele>285.4</ele>
        <time>2024-04-14T07:31:56Z</time>
      </trkpt>
      <trkpt lat="45.94131" lon="3.42356">
        <ele>285.6</ele>
        <time>2024-04-14T07:31:57Z</time>
      </trkpt>
      <trkpt lat="45.94132" lon="3.42366">
        <ele>285.6</ele>
        <time>2024-04-14T07:31:58Z</time>
      </trkpt>
      <trkpt lat="45.94134" lon="3.42376">
        <ele>285.6</ele>
        <time>2024-04-14T07:31:59Z</time>
      </trkpt>
      <trkpt lat="45.94135" lon="3.42385">
        <ele>285.8</ele>
        <time>2024-04-14T07:32:00Z</time>
      </trkpt>
      <trkpt lat="45.94137" lon="3.42396">
        <ele>285.8</ele>
        <time>2024-04-14T07:32:01Z</time>
      </trkpt>
      <trkpt lat="45.94138" lon="3.42406">
        <ele>285.8</ele>
        <time>2024-04-14T07:32:02Z</time>
      </trkpt>
      <trkpt lat="45.9414" lon="3.42417">
        <ele>285.8</ele>
        <time>2024-04-14T07:32:03Z</time>
      </trkpt>
      <trkpt lat="45.94141" lon="3.42427">
        <ele>285.8</ele>
        <time>2024-04-14T07:32:04Z</time>
      </trkpt>
      <trkpt lat="45.94143" lon="3.42438">
        <ele>286</ele>
        <time>2024-04-14T07:32:05Z</time>
      </trkpt>
      <trkpt lat="45.94145" lon="3.42449">
        <ele>286</ele>
        <time>2024-04-14T07:32:06Z</time>
      </trkpt>
      <trkpt lat="45.94146" lon="3.42461">
        <ele>286</ele>
        <time>2024-04-14T07:32:07Z</time>
      </trkpt>
      <trkpt lat="45.94149" lon="3.42472">
        <ele>286.2</ele>
        <time>2024-04-14T07:32:08Z</time>
      </trkpt>
      <trkpt lat="45.94151" lon="3.42483">
        <ele>286.2</ele>
        <time>2024-04-14T07:32:09Z</time>
      </trkpt>
      <trkpt lat="45.94153" lon="3.42494">
        <ele>286.4</ele>
        <time>2024-04-14T07:32:10Z</time>
      </trkpt>
      <trkpt lat="45.94155" lon="3.42505">
        <ele>286.4</ele>
        <time>2024-04-14T07:32:11Z</time>
      </trkpt>
      <trkpt lat="45.94157" lon="3.42516">
        <ele>286.4</ele>
        <time>2024-04-14T07:32:12Z</time>
      </trkpt>
      <trkpt lat="45.94159" lon="3.42526">
        <ele>286.4</ele>
        <time>2024-04-14T07:32:13Z</time>
      </trkpt>
      <trkpt lat="45.94164" lon="3.42535">
        <ele>286.4</ele>
        <time>2024-04-14T07:32:14Z</time>
      </trkpt>
      <trkpt lat="45.94168" lon="3.42543">
        <ele>286.6</ele>
        <time>2024-04-14T07:32:15Z</time>
      </trkpt>
      <trkpt lat="45.94172" lon="3.42552">
        <ele>286.6</ele>
        <time>2024-04-14T07:32:16Z</time>
      </trkpt>
      <trkpt lat="45.94176" lon="3.4256">
        <ele>286.6</ele>
        <time>2024-04-14T07:32:17Z</time>
      </trkpt>
      <trkpt lat="45.9418" lon="3.42568">
        <ele>286.6</ele>
        <time>2024-04-14T07:32:18Z</time>
      </trkpt>
      <trkpt lat="45.94185" lon="3.42576">
        <ele>286.6</ele>
        <time>2024-04-14T07:32:19Z</time>
      </trkpt>
      <trkpt lat="45.9419" lon="3.42584">
        <ele>286.6</ele>
        <time>2024-04-14T07:32:20Z</time>
      </trkpt>
      <trkpt lat="45.94195" lon="3.42591">
        <ele>286.6</ele>
        <time>2024-04-14T07:32:21Z</time>
      </trkpt>
      <trkpt lat="45.94201" lon="3.42597">
        <ele>286.6</ele>
        <time>2024-04-14T07:32:22Z</time>
      </trkpt>
      <trkpt lat="45.94206" lon="3.42603">
        <ele>286.4</ele>
        <time>2024-04-14T07:32:23Z</time>
      </trkpt>
      <trkpt lat="45.94212" lon="3.42609">
        <ele>286.4</ele>
        <time>2024-04-14T07:32:24Z</time>
      </trkpt>
      <trkpt lat="45.94218" lon="3.42615">
        <ele>286.4</ele>
        <time>2024-04-14T07:32:25Z</time>
      </trkpt>
      <trkpt lat="45.94224" lon="3.42621">
        <ele>286.4</ele>
        <time>2024-04-14T07:32:26Z</time>
      </trkpt>
      <trkpt lat="45.9423" lon="3.42628">
        <ele>286.4</ele>
        <time>2024-04-14T07:32:27Z</time>
      </trkpt>
      <trkpt lat="45.94237" lon="3.42634">
        <ele>286.4</ele>
        <time>2024-04-14T07:32:28Z</time>
      </trkpt>
      <trkpt lat="45.94243" lon="3.42641">
        <ele>286.4</ele>
        <time>2024-04-14T07:32:29Z</time>
      </trkpt>
      <trkpt lat="45.94249" lon="3.42648">
        <ele>286.4</ele>
        <time>2024-04-14T07:32:30Z</time>
      </trkpt>
      <trkpt lat="45.94254" lon="3.42657">
        <ele>286.4</ele>
        <time>2024-04-14T07:32:31Z</time>
      </trkpt>
      <trkpt lat="45.94259" lon="3.42666">
        <ele>286.4</ele>
        <time>2024-04-14T07:32:32Z</time>
      </trkpt>
      <trkpt lat="45.94263" lon="3.42676">
        <ele>286.4</ele>
        <time>2024-04-14T07:32:33Z</time>
      </trkpt>
      <trkpt lat="45.94268" lon="3.42686">
        <ele>286.4</ele>
        <time>2024-04-14T07:32:34Z</time>
      </trkpt>
      <trkpt lat="45.94272" lon="3.42696">
        <ele>286.4</ele>
        <time>2024-04-14T07:32:35Z</time>
      </trkpt>
      <trkpt lat="45.94277" lon="3.42706">
        <ele>286.6</ele>
        <time>2024-04-14T07:32:36Z</time>
      </trkpt>
      <trkpt lat="45.94281" lon="3.42716">
        <ele>286.6</ele>
        <time>2024-04-14T07:32:37Z</time>
      </trkpt>
      <trkpt lat="45.94286" lon="3.42726">
        <ele>286.6</ele>
        <time>2024-04-14T07:32:38Z</time>
      </trkpt>
      <trkpt lat="45.9429" lon="3.42735">
        <ele>286.6</ele>
        <time>2024-04-14T07:32:39Z</time>
      </trkpt>
      <trkpt lat="45.94295" lon="3.42745">
        <ele>286.6</ele>
        <time>2024-04-14T07:32:40Z</time>
      </trkpt>
      <trkpt lat="45.943" lon="3.42756">
        <ele>286.6</ele>
        <time>2024-04-14T07:32:41Z</time>
      </trkpt>
      <trkpt lat="45.94304" lon="3.42766">
        <ele>286.6</ele>
        <time>2024-04-14T07:32:42Z</time>
      </trkpt>
      <trkpt lat="45.94309" lon="3.42776">
        <ele>286.6</ele>
        <time>2024-04-14T07:32:43Z</time>
      </trkpt>
      <trkpt lat="45.94313" lon="3.42785">
        <ele>286.6</ele>
        <time>2024-04-14T07:32:44Z</time>
      </trkpt>
      <trkpt lat="45.94318" lon="3.42795">
        <ele>286.6</ele>
        <time>2024-04-14T07:32:45Z</time>
      </trkpt>
      <trkpt lat="45.94322" lon="3.42805">
        <ele>286.6</ele>
        <time>2024-04-14T07:32:46Z</time>
      </trkpt>
      <trkpt lat="45.94326" lon="3.42815">
        <ele>286.6</ele>
        <time>2024-04-14T07:32:47Z</time>
      </trkpt>
      <trkpt lat="45.94331" lon="3.42825">
        <ele>286.6</ele>
        <time>2024-04-14T07:32:48Z</time>
      </trkpt>
      <trkpt lat="45.94335" lon="3.42835">
        <ele>286.6</ele>
        <time>2024-04-14T07:32:49Z</time>
      </trkpt>
      <trkpt lat="45.94339" lon="3.42845">
        <ele>286.6</ele>
        <time>2024-04-14T07:32:50Z</time>
      </trkpt>
      <trkpt lat="45.94343" lon="3.42854">
        <ele>286.6</ele>
        <time>2024-04-14T07:32:51Z</time>
      </trkpt>
      <trkpt lat="45.94347" lon="3.42864">
        <ele>286.6</ele>
        <time>2024-04-14T07:32:52Z</time>
      </trkpt>
      <trkpt lat="45.94351" lon="3.42874">
        <ele>286.6</ele>
        <time>2024-04-14T07:32:53Z</time>
      </trkpt>
      <trkpt lat="45.94355" lon="3.42884">
        <ele>286.6</ele>
        <time>2024-04-14T07:32:54Z</time>
      </trkpt>
      <trkpt lat="45.9436" lon="3.42894">
        <ele>286.4</ele>
        <time>2024-04-14T07:32:55Z</time>
      </trkpt>
      <trkpt lat="45.94364" lon="3.42904">
        <ele>286.6</ele>
        <time>2024-04-14T07:32:56Z</time>
      </trkpt>
      <trkpt lat="45.94368" lon="3.42914">
        <ele>286.4</ele>
        <time>2024-04-14T07:32:57Z</time>
      </trkpt>
      <trkpt lat="45.94372" lon="3.42924">
        <ele>286.4</ele>
        <time>2024-04-14T07:32:58Z</time>
      </trkpt>
      <trkpt lat="45.94376" lon="3.42934">
        <ele>286.4</ele>
        <time>2024-04-14T07:32:59Z</time>
      </trkpt>
      <trkpt lat="45.94381" lon="3.42944">
        <ele>286.4</ele>
        <time>2024-04-14T07:33:00Z</time>
      </trkpt>
      <trkpt lat="45.94385" lon="3.42954">
        <ele>286.4</ele>
        <time>2024-04-14T07:33:01Z</time>
      </trkpt>
      <trkpt lat="45.94389" lon="3.42963">
        <ele>286.4</ele>
        <time>2024-04-14T07:33:02Z</time>
      </trkpt>
      <trkpt lat="45.94394" lon="3.42972">
        <ele>286.4</ele>
        <time>2024-04-14T07:33:03Z</time>
      </trkpt>
      <trkpt lat="45.94399" lon="3.42981">
        <ele>286.4</ele>
        <time>2024-04-14T07:33:04Z</time>
      </trkpt>
      <trkpt lat="45.94403" lon="3.42991">
        <ele>286.4</ele>
        <time>2024-04-14T07:33:05Z</time>
      </trkpt>
      <trkpt lat="45.94408" lon="3.43">
        <ele>286.4</ele>
        <time>2024-04-14T07:33:06Z</time>
      </trkpt>
      <trkpt lat="45.94413" lon="3.43009">
        <ele>286.4</ele>
        <time>2024-04-14T07:33:07Z</time>
      </trkpt>
      <trkpt lat="45.94418" lon="3.43019">
        <ele>286.4</ele>
        <time>2024-04-14T07:33:08Z</time>
      </trkpt>
      <trkpt lat="45.94422" lon="3.43029">
        <ele>286.4</ele>
        <time>2024-04-14T07:33:09Z</time>
      </trkpt>
      <trkpt lat="45.94427" lon="3.43038">
        <ele>286.4</ele>
        <time>2024-04-14T07:33:10Z</time>
      </trkpt>
      <trkpt lat="45.94432" lon="3.43048">
        <ele>286.4</ele>
        <time>2024-04-14T07:33:11Z</time>
      </trkpt>
      <trkpt lat="45.94437" lon="3.43057">
        <ele>286.2</ele>
        <time>2024-04-14T07:33:12Z</time>
      </trkpt>
      <trkpt lat="45.94441" lon="3.43066">
        <ele>286.2</ele>
        <time>2024-04-14T07:33:13Z</time>
      </trkpt>
      <trkpt lat="45.94446" lon="3.43076">
        <ele>286.2</ele>
        <time>2024-04-14T07:33:14Z</time>
      </trkpt>
      <trkpt lat="45.94451" lon="3.43085">
        <ele>286.2</ele>
        <time>2024-04-14T07:33:15Z</time>
      </trkpt>
      <trkpt lat="45.94455" lon="3.43095">
        <ele>286.2</ele>
        <time>2024-04-14T07:33:16Z</time>
      </trkpt>
      <trkpt lat="45.9446" lon="3.43104">
        <ele>286.2</ele>
        <time>2024-04-14T07:33:17Z</time>
      </trkpt>
      <trkpt lat="45.94464" lon="3.43113">
        <ele>286</ele>
        <time>2024-04-14T07:33:18Z</time>
      </trkpt>
      <trkpt lat="45.94469" lon="3.43122">
        <ele>286</ele>
        <time>2024-04-14T07:33:19Z</time>
      </trkpt>
      <trkpt lat="45.94473" lon="3.43131">
        <ele>286</ele>
        <time>2024-04-14T07:33:20Z</time>
      </trkpt>
      <trkpt lat="45.94477" lon="3.4314">
        <ele>286</ele>
        <time>2024-04-14T07:33:21Z</time>
      </trkpt>
      <trkpt lat="45.94481" lon="3.43148">
        <ele>286</ele>
        <time>2024-04-14T07:33:22Z</time>
      </trkpt>
      <trkpt lat="45.94484" lon="3.43157">
        <ele>286</ele>
        <time>2024-04-14T07:33:23Z</time>
      </trkpt>
      <trkpt lat="45.94488" lon="3.43166">
        <ele>285.8</ele>
        <time>2024-04-14T07:33:24Z</time>
      </trkpt>
      <trkpt lat="45.94492" lon="3.43175">
        <ele>285.8</ele>
        <time>2024-04-14T07:33:25Z</time>
      </trkpt>
      <trkpt lat="45.94496" lon="3.43184">
        <ele>285.8</ele>
        <time>2024-04-14T07:33:26Z</time>
      </trkpt>
      <trkpt lat="45.945" lon="3.43192">
        <ele>285.6</ele>
        <time>2024-04-14T07:33:27Z</time>
      </trkpt>
      <trkpt lat="45.94504" lon="3.43201">
        <ele>285.6</ele>
        <time>2024-04-14T07:33:28Z</time>
      </trkpt>
      <trkpt lat="45.94508" lon="3.4321">
        <ele>285.6</ele>
        <time>2024-04-14T07:33:29Z</time>
      </trkpt>
      <trkpt lat="45.94512" lon="3.43218">
        <ele>285.6</ele>
        <time>2024-04-14T07:33:30Z</time>
      </trkpt>
      <trkpt lat="45.94518" lon="3.43223">
        <ele>285.6</ele>
        <time>2024-04-14T07:33:31Z</time>
      </trkpt>
      <trkpt lat="45.94521" lon="3.43226">
        <ele>285.4</ele>
        <time>2024-04-14T07:33:32Z</time>
      </trkpt>
      <trkpt lat="45.94527" lon="3.43231">
        <ele>285.4</ele>
        <time>2024-04-14T07:33:33Z</time>
      </trkpt>
      <trkpt lat="45.94534" lon="3.43234">
        <ele>285.2</ele>
        <time>2024-04-14T07:33:34Z</time>
      </trkpt>
      <trkpt lat="45.94541" lon="3.43237">
        <ele>285.2</ele>
        <time>2024-04-14T07:33:35Z</time>
      </trkpt>
      <trkpt lat="45.94549" lon="3.43241">
        <ele>285</ele>
        <time>2024-04-14T07:33:36Z</time>
      </trkpt>
      <trkpt lat="45.94558" lon="3.43245">
        <ele>284.8</ele>
        <time>2024-04-14T07:33:37Z</time>
      </trkpt>
      <trkpt lat="45.94568" lon="3.43249">
        <ele>284.6</ele>
        <time>2024-04-14T07:33:38Z</time>
      </trkpt>
      <trkpt lat="45.94578" lon="3.43253">
        <ele>284.6</ele>
        <time>2024-04-14T07:33:39Z</time>
      </trkpt>
      <trkpt lat="45.94588" lon="3.43258">
        <ele>284.4</ele>
        <time>2024-04-14T07:33:40Z</time>
      </trkpt>
      <trkpt lat="45.94598" lon="3.43262">
        <ele>284.2</ele>
        <time>2024-04-14T07:33:41Z</time>
      </trkpt>
      <trkpt lat="45.94609" lon="3.43267">
        <ele>284</ele>
        <time>2024-04-14T07:33:42Z</time>
      </trkpt>
      <trkpt lat="45.94619" lon="3.43272">
        <ele>284</ele>
        <time>2024-04-14T07:33:43Z</time>
      </trkpt>
      <trkpt lat="45.9463" lon="3.43276">
        <ele>283.8</ele>
        <time>2024-04-14T07:33:44Z</time>
      </trkpt>
      <trkpt lat="45.94639" lon="3.43283">
        <ele>283.6</ele>
        <time>2024-04-14T07:33:45Z</time>
      </trkpt>
      <trkpt lat="45.94649" lon="3.43289">
        <ele>283.6</ele>
        <time>2024-04-14T07:33:46Z</time>
      </trkpt>
      <trkpt lat="45.94659" lon="3.43296">
        <ele>283.4</ele>
        <time>2024-04-14T07:33:47Z</time>
      </trkpt>
      <trkpt lat="45.94669" lon="3.43302">
        <ele>283.2</ele>
        <time>2024-04-14T07:33:48Z</time>
      </trkpt>
      <trkpt lat="45.94677" lon="3.43313">
        <ele>283</ele>
        <time>2024-04-14T07:33:49Z</time>
      </trkpt>
      <trkpt lat="45.94683" lon="3.43325">
        <ele>283</ele>
        <time>2024-04-14T07:33:50Z</time>
      </trkpt>
      <trkpt lat="45.9469" lon="3.43336">
        <ele>282.8</ele>
        <time>2024-04-14T07:33:51Z</time>
      </trkpt>
      <trkpt lat="45.94693" lon="3.4335">
        <ele>282.8</ele>
        <time>2024-04-14T07:33:52Z</time>
      </trkpt>
      <trkpt lat="45.94696" lon="3.43364">
        <ele>282.8</ele>
        <time>2024-04-14T07:33:53Z</time>
      </trkpt>
      <trkpt lat="45.94699" lon="3.43378">
        <ele>282.6</ele>
        <time>2024-04-14T07:33:54Z</time>
      </trkpt>
      <trkpt lat="45.94702" lon="3.43392">
        <ele>282.6</ele>
        <time>2024-04-14T07:33:55Z</time>
      </trkpt>
      <trkpt lat="45.94704" lon="3.43405">
        <ele>282.6</ele>
        <time>2024-04-14T07:33:56Z</time>
      </trkpt>
      <trkpt lat="45.94707" lon="3.43418">
        <ele>282.4</ele>
        <time>2024-04-14T07:33:57Z</time>
      </trkpt>
      <trkpt lat="45.9471" lon="3.43431">
        <ele>282.4</ele>
        <time>2024-04-14T07:33:58Z</time>
      </trkpt>
      <trkpt lat="45.94713" lon="3.43445">
        <ele>282.4</ele>
        <time>2024-04-14T07:33:59Z</time>
      </trkpt>
      <trkpt lat="45.94715" lon="3.43458">
        <ele>282.4</ele>
        <time>2024-04-14T07:34:00Z</time>
      </trkpt>
      <trkpt lat="45.94718" lon="3.43471">
        <ele>282.2</ele>
        <time>2024-04-14T07:34:01Z</time>
      </trkpt>
      <trkpt lat="45.94719" lon="3.43484">
        <ele>282.2</ele>
        <time>2024-04-14T07:34:02Z</time>
      </trkpt>
      <trkpt lat="45.94719" lon="3.43497">
        <ele>282.2</ele>
        <time>2024-04-14T07:34:03Z</time>
      </trkpt>
      <trkpt lat="45.9472" lon="3.4351">
        <ele>282.2</ele>
        <time>2024-04-14T07:34:04Z</time>
      </trkpt>
      <trkpt lat="45.9472" lon="3.43523">
        <ele>282</ele>
        <time>2024-04-14T07:34:05Z</time>
      </trkpt>
      <trkpt lat="45.94721" lon="3.43536">
        <ele>282</ele>
        <time>2024-04-14T07:34:06Z</time>
      </trkpt>
      <trkpt lat="45.94721" lon="3.43549">
        <ele>282</ele>
        <time>2024-04-14T07:34:07Z</time>
      </trkpt>
      <trkpt lat="45.94721" lon="3.43561">
        <ele>281.8</ele>
        <time>2024-04-14T07:34:08Z</time>
      </trkpt>
      <trkpt lat="45.94722" lon="3.43574">
        <ele>281.8</ele>
        <time>2024-04-14T07:34:09Z</time>
      </trkpt>
      <trkpt lat="45.94722" lon="3.43586">
        <ele>281.8</ele>
        <time>2024-04-14T07:34:10Z</time>
      </trkpt>
      <trkpt lat="45.94723" lon="3.43599">
        <ele>281.8</ele>
        <time>2024-04-14T07:34:11Z</time>
      </trkpt>
      <trkpt lat="45.94722" lon="3.43612">
        <ele>281.6</ele>
        <time>2024-04-14T07:34:12Z</time>
      </trkpt>
      <trkpt lat="45.94721" lon="3.43624">
        <ele>281.6</ele>
        <time>2024-04-14T07:34:13Z</time>
      </trkpt>
      <trkpt lat="45.9472" lon="3.43637">
        <ele>281.6</ele>
        <time>2024-04-14T07:34:14Z</time>
      </trkpt>
      <trkpt lat="45.94718" lon="3.4365">
        <ele>281.6</ele>
        <time>2024-04-14T07:34:15Z</time>
      </trkpt>
      <trkpt lat="45.94717" lon="3.43662">
        <ele>281.4</ele>
        <time>2024-04-14T07:34:16Z</time>
      </trkpt>
      <trkpt lat="45.94716" lon="3.43674">
        <ele>281.4</ele>
        <time>2024-04-14T07:34:17Z</time>
      </trkpt>
      <trkpt lat="45.94715" lon="3.43687">
        <ele>281.4</ele>
        <time>2024-04-14T07:34:18Z</time>
      </trkpt>
      <trkpt lat="45.94714" lon="3.43699">
        <ele>281.4</ele>
        <time>2024-04-14T07:34:19Z</time>
      </trkpt>
      <trkpt lat="45.94713" lon="3.43711">
        <ele>281.4</ele>
        <time>2024-04-14T07:34:20Z</time>
      </trkpt>
      <trkpt lat="45.94712" lon="3.43722">
        <ele>281.4</ele>
        <time>2024-04-14T07:34:21Z</time>
      </trkpt>
      <trkpt lat="45.94712" lon="3.43734">
        <ele>281.2</ele>
        <time>2024-04-14T07:34:22Z</time>
      </trkpt>
      <trkpt lat="45.94712" lon="3.43746">
        <ele>281.2</ele>
        <time>2024-04-14T07:34:23Z</time>
      </trkpt>
      <trkpt lat="45.94712" lon="3.43758">
        <ele>281.2</ele>
        <time>2024-04-14T07:34:24Z</time>
      </trkpt>
      <trkpt lat="45.94714" lon="3.43769">
        <ele>281.2</ele>
        <time>2024-04-14T07:34:25Z</time>
      </trkpt>
      <trkpt lat="45.94717" lon="3.4378">
        <ele>281.2</ele>
        <time>2024-04-14T07:34:26Z</time>
      </trkpt>
      <trkpt lat="45.9472" lon="3.43791">
        <ele>281</ele>
        <time>2024-04-14T07:34:27Z</time>
      </trkpt>
      <trkpt lat="45.94723" lon="3.43802">
        <ele>281</ele>
        <time>2024-04-14T07:34:28Z</time>
      </trkpt>
      <trkpt lat="45.94726" lon="3.43813">
        <ele>281</ele>
        <time>2024-04-14T07:34:29Z</time>
      </trkpt>
      <trkpt lat="45.94729" lon="3.43824">
        <ele>281</ele>
        <time>2024-04-14T07:34:30Z</time>
      </trkpt>
      <trkpt lat="45.94732" lon="3.43835">
        <ele>281</ele>
        <time>2024-04-14T07:34:31Z</time>
      </trkpt>
      <trkpt lat="45.94735" lon="3.43847">
        <ele>281</ele>
        <time>2024-04-14T07:34:32Z</time>
      </trkpt>
      <trkpt lat="45.94738" lon="3.43858">
        <ele>280.8</ele>
        <time>2024-04-14T07:34:33Z</time>
      </trkpt>
      <trkpt lat="45.94741" lon="3.4387">
        <ele>280.8</ele>
        <time>2024-04-14T07:34:34Z</time>
      </trkpt>
      <trkpt lat="45.94744" lon="3.43881">
        <ele>280.8</ele>
        <time>2024-04-14T07:34:35Z</time>
      </trkpt>
      <trkpt lat="45.94746" lon="3.43893">
        <ele>280.8</ele>
        <time>2024-04-14T07:34:36Z</time>
      </trkpt>
      <trkpt lat="45.94748" lon="3.43905">
        <ele>280.8</ele>
        <time>2024-04-14T07:34:37Z</time>
      </trkpt>
      <trkpt lat="45.94749" lon="3.43917">
        <ele>280.6</ele>
        <time>2024-04-14T07:34:38Z</time>
      </trkpt>
      <trkpt lat="45.9475" lon="3.43929">
        <ele>280.6</ele>
        <time>2024-04-14T07:34:39Z</time>
      </trkpt>
      <trkpt lat="45.9475" lon="3.43941">
        <ele>280.6</ele>
        <time>2024-04-14T07:34:40Z</time>
      </trkpt>
      <trkpt lat="45.94749" lon="3.43954">
        <ele>280.4</ele>
        <time>2024-04-14T07:34:41Z</time>
      </trkpt>
      <trkpt lat="45.94749" lon="3.43966">
        <ele>280.4</ele>
        <time>2024-04-14T07:34:42Z</time>
      </trkpt>
      <trkpt lat="45.94747" lon="3.43978">
        <ele>280.4</ele>
        <time>2024-04-14T07:34:43Z</time>
      </trkpt>
      <trkpt lat="45.94746" lon="3.4399">
        <ele>280.4</ele>
        <time>2024-04-14T07:34:44Z</time>
      </trkpt>
      <trkpt lat="45.94744" lon="3.44003">
        <ele>280.4</ele>
        <time>2024-04-14T07:34:45Z</time>
      </trkpt>
      <trkpt lat="45.94742" lon="3.44015">
        <ele>280.4</ele>
        <time>2024-04-14T07:34:46Z</time>
      </trkpt>
      <trkpt lat="45.9474" lon="3.44027">
        <ele>280.4</ele>
        <time>2024-04-14T07:34:47Z</time>
      </trkpt>
      <trkpt lat="45.94738" lon="3.44039">
        <ele>280.4</ele>
        <time>2024-04-14T07:34:48Z</time>
      </trkpt>
      <trkpt lat="45.94737" lon="3.44052">
        <ele>280.4</ele>
        <time>2024-04-14T07:34:49Z</time>
      </trkpt>
      <trkpt lat="45.94735" lon="3.44064">
        <ele>280.4</ele>
        <time>2024-04-14T07:34:50Z</time>
      </trkpt>
      <trkpt lat="45.94733" lon="3.44076">
        <ele>280.4</ele>
        <time>2024-04-14T07:34:51Z</time>
      </trkpt>
      <trkpt lat="45.94732" lon="3.44089">
        <ele>280.2</ele>
        <time>2024-04-14T07:34:52Z</time>
      </trkpt>
      <trkpt lat="45.9473" lon="3.44101">
        <ele>280.2</ele>
        <time>2024-04-14T07:34:53Z</time>
      </trkpt>
      <trkpt lat="45.94729" lon="3.44114">
        <ele>280.2</ele>
        <time>2024-04-14T07:34:54Z</time>
      </trkpt>
      <trkpt lat="45.94729" lon="3.44126">
        <ele>280.2</ele>
        <time>2024-04-14T07:34:55Z</time>
      </trkpt>
      <trkpt lat="45.94728" lon="3.44139">
        <ele>280.2</ele>
        <time>2024-04-14T07:34:56Z</time>
      </trkpt>
      <trkpt lat="45.94728" lon="3.44151">
        <ele>280.2</ele>
        <time>2024-04-14T07:34:57Z</time>
      </trkpt>
      <trkpt lat="45.94727" lon="3.44163">
        <ele>280.2</ele>
        <time>2024-04-14T07:34:58Z</time>
      </trkpt>
      <trkpt lat="45.94727" lon="3.44176">
        <ele>280.2</ele>
        <time>2024-04-14T07:34:59Z</time>
      </trkpt>
      <trkpt lat="45.94728" lon="3.44189">
        <ele>280.2</ele>
        <time>2024-04-14T07:35:00Z</time>
      </trkpt>
      <trkpt lat="45.94729" lon="3.44201">
        <ele>280.2</ele>
        <time>2024-04-14T07:35:01Z</time>
      </trkpt>
      <trkpt lat="45.9473" lon="3.44213">
        <ele>280.2</ele>
        <time>2024-04-14T07:35:02Z</time>
      </trkpt>
      <trkpt lat="45.94731" lon="3.44225">
        <ele>280.2</ele>
        <time>2024-04-14T07:35:03Z</time>
      </trkpt>
      <trkpt lat="45.94732" lon="3.44238">
        <ele>280</ele>
        <time>2024-04-14T07:35:04Z</time>
      </trkpt>
      <trkpt lat="45.94733" lon="3.4425">
        <ele>280</ele>
        <time>2024-04-14T07:35:05Z</time>
      </trkpt>
      <trkpt lat="45.94735" lon="3.44262">
        <ele>280</ele>
        <time>2024-04-14T07:35:06Z</time>
      </trkpt>
      <trkpt lat="45.94737" lon="3.44275">
        <ele>280</ele>
        <time>2024-04-14T07:35:07Z</time>
      </trkpt>
      <trkpt lat="45.94739" lon="3.44287">
        <ele>280</ele>
        <time>2024-04-14T07:35:08Z</time>
      </trkpt>
      <trkpt lat="45.94742" lon="3.443">
        <ele>280</ele>
        <time>2024-04-14T07:35:09Z</time>
      </trkpt>
      <trkpt lat="45.94744" lon="3.44312">
        <ele>279.8</ele>
        <time>2024-04-14T07:35:10Z</time>
      </trkpt>
      <trkpt lat="45.94746" lon="3.44324">
        <ele>279.8</ele>
        <time>2024-04-14T07:35:11Z</time>
      </trkpt>
      <trkpt lat="45.94749" lon="3.44336">
        <ele>279.8</ele>
        <time>2024-04-14T07:35:12Z</time>
      </trkpt>
      <trkpt lat="45.94752" lon="3.44348">
        <ele>279.8</ele>
        <time>2024-04-14T07:35:13Z</time>
      </trkpt>
      <trkpt lat="45.94756" lon="3.4436">
        <ele>279.8</ele>
        <time>2024-04-14T07:35:14Z</time>
      </trkpt>
      <trkpt lat="45.94759" lon="3.44372">
        <ele>279.8</ele>
        <time>2024-04-14T07:35:15Z</time>
      </trkpt>
      <trkpt lat="45.94762" lon="3.44383">
        <ele>279.8</ele>
        <time>2024-04-14T07:35:16Z</time>
      </trkpt>
      <trkpt lat="45.94765" lon="3.44395">
        <ele>279.6</ele>
        <time>2024-04-14T07:35:17Z</time>
      </trkpt>
      <trkpt lat="45.94768" lon="3.44407">
        <ele>279.6</ele>
        <time>2024-04-14T07:35:18Z</time>
      </trkpt>
      <trkpt lat="45.94771" lon="3.44419">
        <ele>279.6</ele>
        <time>2024-04-14T07:35:19Z</time>
      </trkpt>
      <trkpt lat="45.94774" lon="3.4443">
        <ele>279.6</ele>
        <time>2024-04-14T07:35:20Z</time>
      </trkpt>
      <trkpt lat="45.94777" lon="3.44442">
        <ele>279.6</ele>
        <time>2024-04-14T07:35:21Z</time>
      </trkpt>
      <trkpt lat="45.9478" lon="3.44453">
        <ele>279.6</ele>
        <time>2024-04-14T07:35:22Z</time>
      </trkpt>
      <trkpt lat="45.94783" lon="3.44464">
        <ele>279.6</ele>
        <time>2024-04-14T07:35:23Z</time>
      </trkpt>
      <trkpt lat="45.94786" lon="3.44476">
        <ele>279.6</ele>
        <time>2024-04-14T07:35:24Z</time>
      </trkpt>
      <trkpt lat="45.94789" lon="3.44487">
        <ele>279.4</ele>
        <time>2024-04-14T07:35:25Z</time>
      </trkpt>
      <trkpt lat="45.94792" lon="3.44498">
        <ele>279.4</ele>
        <time>2024-04-14T07:35:26Z</time>
      </trkpt>
      <trkpt lat="45.94795" lon="3.4451">
        <ele>279.4</ele>
        <time>2024-04-14T07:35:27Z</time>
      </trkpt>
      <trkpt lat="45.94798" lon="3.44522">
        <ele>279.4</ele>
        <time>2024-04-14T07:35:28Z</time>
      </trkpt>
      <trkpt lat="45.94801" lon="3.44533">
        <ele>279.4</ele>
        <time>2024-04-14T07:35:29Z</time>
      </trkpt>
      <trkpt lat="45.94805" lon="3.44544">
        <ele>279.2</ele>
        <time>2024-04-14T07:35:30Z</time>
      </trkpt>
      <trkpt lat="45.94809" lon="3.44556">
        <ele>279.2</ele>
        <time>2024-04-14T07:35:31Z</time>
      </trkpt>
      <trkpt lat="45.94812" lon="3.44567">
        <ele>279.2</ele>
        <time>2024-04-14T07:35:32Z</time>
      </trkpt>
      <trkpt lat="45.94816" lon="3.44578">
        <ele>279.2</ele>
        <time>2024-04-14T07:35:33Z</time>
      </trkpt>
      <trkpt lat="45.9482" lon="3.4459">
        <ele>279.2</ele>
        <time>2024-04-14T07:35:34Z</time>
      </trkpt>
      <trkpt lat="45.94824" lon="3.44601">
        <ele>279.2</ele>
        <time>2024-04-14T07:35:35Z</time>
      </trkpt>
      <trkpt lat="45.94827" lon="3.44612">
        <ele>279.2</ele>
        <time>2024-04-14T07:35:36Z</time>
      </trkpt>
      <trkpt lat="45.94831" lon="3.44624">
        <ele>279.2</ele>
        <time>2024-04-14T07:35:37Z</time>
      </trkpt>
      <trkpt lat="45.94836" lon="3.44635">
        <ele>279.2</ele>
        <time>2024-04-14T07:35:38Z</time>
      </trkpt>
      <trkpt lat="45.94841" lon="3.44645">
        <ele>279.2</ele>
        <time>2024-04-14T07:35:39Z</time>
      </trkpt>
      <trkpt lat="45.94846" lon="3.44655">
        <ele>279.2</ele>
        <time>2024-04-14T07:35:40Z</time>
      </trkpt>
      <trkpt lat="45.94851" lon="3.44665">
        <ele>279.2</ele>
        <time>2024-04-14T07:35:41Z</time>
      </trkpt>
      <trkpt lat="45.94856" lon="3.44676">
        <ele>279.2</ele>
        <time>2024-04-14T07:35:42Z</time>
      </trkpt>
      <trkpt lat="45.94861" lon="3.44686">
        <ele>279</ele>
        <time>2024-04-14T07:35:43Z</time>
      </trkpt>
      <trkpt lat="45.94865" lon="3.44696">
        <ele>279</ele>
        <time>2024-04-14T07:35:44Z</time>
      </trkpt>
      <trkpt lat="45.9487" lon="3.44706">
        <ele>279</ele>
        <time>2024-04-14T07:35:45Z</time>
      </trkpt>
      <trkpt lat="45.94875" lon="3.44716">
        <ele>279</ele>
        <time>2024-04-14T07:35:46Z</time>
      </trkpt>
      <trkpt lat="45.9488" lon="3.44726">
        <ele>279</ele>
        <time>2024-04-14T07:35:47Z</time>
      </trkpt>
      <trkpt lat="45.94885" lon="3.44736">
        <ele>279</ele>
        <time>2024-04-14T07:35:48Z</time>
      </trkpt>
      <trkpt lat="45.9489" lon="3.44746">
        <ele>279</ele>
        <time>2024-04-14T07:35:49Z</time>
      </trkpt>
      <trkpt lat="45.94895" lon="3.44756">
        <ele>279</ele>
        <time>2024-04-14T07:35:50Z</time>
      </trkpt>
      <trkpt lat="45.94899" lon="3.44765">
        <ele>279</ele>
        <time>2024-04-14T07:35:51Z</time>
      </trkpt>
      <trkpt lat="45.94904" lon="3.44776">
        <ele>279</ele>
        <time>2024-04-14T07:35:52Z</time>
      </trkpt>
      <trkpt lat="45.94909" lon="3.44786">
        <ele>279</ele>
        <time>2024-04-14T07:35:53Z</time>
      </trkpt>
      <trkpt lat="45.94914" lon="3.44795">
        <ele>278.8</ele>
        <time>2024-04-14T07:35:54Z</time>
      </trkpt>
      <trkpt lat="45.94919" lon="3.44805">
        <ele>278.8</ele>
        <time>2024-04-14T07:35:55Z</time>
      </trkpt>
      <trkpt lat="45.94923" lon="3.44815">
        <ele>278.8</ele>
        <time>2024-04-14T07:35:56Z</time>
      </trkpt>
      <trkpt lat="45.94928" lon="3.44825">
        <ele>278.6</ele>
        <time>2024-04-14T07:35:57Z</time>
      </trkpt>
      <trkpt lat="45.94933" lon="3.44835">
        <ele>278.6</ele>
        <time>2024-04-14T07:35:58Z</time>
      </trkpt>
      <trkpt lat="45.94938" lon="3.44845">
        <ele>278.6</ele>
        <time>2024-04-14T07:35:59Z</time>
      </trkpt>
      <trkpt lat="45.94943" lon="3.44855">
        <ele>278.6</ele>
        <time>2024-04-14T07:36:00Z</time>
      </trkpt>
      <trkpt lat="45.94948" lon="3.44866">
        <ele>278.6</ele>
        <time>2024-04-14T07:36:01Z</time>
      </trkpt>
      <trkpt lat="45.94954" lon="3.44875">
        <ele>278.6</ele>
        <time>2024-04-14T07:36:02Z</time>
      </trkpt>
      <trkpt lat="45.9496" lon="3.44885">
        <ele>278.6</ele>
        <time>2024-04-14T07:36:03Z</time>
      </trkpt>
      <trkpt lat="45.94965" lon="3.44894">
        <ele>278.6</ele>
        <time>2024-04-14T07:36:04Z</time>
      </trkpt>
      <trkpt lat="45.94971" lon="3.44904">
        <ele>278.6</ele>
        <time>2024-04-14T07:36:05Z</time>
      </trkpt>
      <trkpt lat="45.94976" lon="3.44913">
        <ele>278.6</ele>
        <time>2024-04-14T07:36:06Z</time>
      </trkpt>
      <trkpt lat="45.94982" lon="3.44921">
        <ele>278.6</ele>
        <time>2024-04-14T07:36:07Z</time>
      </trkpt>
      <trkpt lat="45.94989" lon="3.4493">
        <ele>278.6</ele>
        <time>2024-04-14T07:36:08Z</time>
      </trkpt>
      <trkpt lat="45.94997" lon="3.44935">
        <ele>278.6</ele>
        <time>2024-04-14T07:36:09Z</time>
      </trkpt>
      <trkpt lat="45.95005" lon="3.44939">
        <ele>278.6</ele>
        <time>2024-04-14T07:36:10Z</time>
      </trkpt>
      <trkpt lat="45.95013" lon="3.44944">
        <ele>278.6</ele>
        <time>2024-04-14T07:36:11Z</time>
      </trkpt>
      <trkpt lat="45.95022" lon="3.44949">
        <ele>278.6</ele>
        <time>2024-04-14T07:36:12Z</time>
      </trkpt>
      <trkpt lat="45.9503" lon="3.44954">
        <ele>278.4</ele>
        <time>2024-04-14T07:36:13Z</time>
      </trkpt>
      <trkpt lat="45.95039" lon="3.44958">
        <ele>278.4</ele>
        <time>2024-04-14T07:36:14Z</time>
      </trkpt>
      <trkpt lat="45.95047" lon="3.44963">
        <ele>278.4</ele>
        <time>2024-04-14T07:36:15Z</time>
      </trkpt>
      <trkpt lat="45.95056" lon="3.44968">
        <ele>278.4</ele>
        <time>2024-04-14T07:36:16Z</time>
      </trkpt>
      <trkpt lat="45.95064" lon="3.44973">
        <ele>278.4</ele>
        <time>2024-04-14T07:36:17Z</time>
      </trkpt>
      <trkpt lat="45.95071" lon="3.4498">
        <ele>278.4</ele>
        <time>2024-04-14T07:36:18Z</time>
      </trkpt>
      <trkpt lat="45.95079" lon="3.44988">
        <ele>278.4</ele>
        <time>2024-04-14T07:36:19Z</time>
      </trkpt>
      <trkpt lat="45.95087" lon="3.44996">
        <ele>278.4</ele>
        <time>2024-04-14T07:36:20Z</time>
      </trkpt>
      <trkpt lat="45.95094" lon="3.45003">
        <ele>278.4</ele>
        <time>2024-04-14T07:36:21Z</time>
      </trkpt>
      <trkpt lat="45.95101" lon="3.4501">
        <ele>278.4</ele>
        <time>2024-04-14T07:36:22Z</time>
      </trkpt>
      <trkpt lat="45.95107" lon="3.45018">
        <ele>278.4</ele>
        <time>2024-04-14T07:36:23Z</time>
      </trkpt>
      <trkpt lat="45.95113" lon="3.45028">
        <ele>278.4</ele>
        <time>2024-04-14T07:36:24Z</time>
      </trkpt>
      <trkpt lat="45.95119" lon="3.45037">
        <ele>278.4</ele>
        <time>2024-04-14T07:36:25Z</time>
      </trkpt>
      <trkpt lat="45.95125" lon="3.45047">
        <ele>278.2</ele>
        <time>2024-04-14T07:36:26Z</time>
      </trkpt>
      <trkpt lat="45.9513" lon="3.45057">
        <ele>278.2</ele>
        <time>2024-04-14T07:36:27Z</time>
      </trkpt>
      <trkpt lat="45.95135" lon="3.45068">
        <ele>278.2</ele>
        <time>2024-04-14T07:36:28Z</time>
      </trkpt>
      <trkpt lat="45.95139" lon="3.45079">
        <ele>278.2</ele>
        <time>2024-04-14T07:36:29Z</time>
      </trkpt>
      <trkpt lat="45.95144" lon="3.4509">
        <ele>278.2</ele>
        <time>2024-04-14T07:36:30Z</time>
      </trkpt>
      <trkpt lat="45.95149" lon="3.451">
        <ele>278.2</ele>
        <time>2024-04-14T07:36:31Z</time>
      </trkpt>
      <trkpt lat="45.95153" lon="3.45111">
        <ele>278</ele>
        <time>2024-04-14T07:36:32Z</time>
      </trkpt>
      <trkpt lat="45.95158" lon="3.45121">
        <ele>278</ele>
        <time>2024-04-14T07:36:33Z</time>
      </trkpt>
      <trkpt lat="45.95162" lon="3.45132">
        <ele>278</ele>
        <time>2024-04-14T07:36:34Z</time>
      </trkpt>
      <trkpt lat="45.95167" lon="3.45142">
        <ele>278</ele>
        <time>2024-04-14T07:36:35Z</time>
      </trkpt>
      <trkpt lat="45.95171" lon="3.45152">
        <ele>278</ele>
        <time>2024-04-14T07:36:36Z</time>
      </trkpt>
      <trkpt lat="45.95176" lon="3.45162">
        <ele>278</ele>
        <time>2024-04-14T07:36:37Z</time>
      </trkpt>
      <trkpt lat="45.95182" lon="3.45171">
        <ele>278</ele>
        <time>2024-04-14T07:36:38Z</time>
      </trkpt>
      <trkpt lat="45.95188" lon="3.45179">
        <ele>278</ele>
        <time>2024-04-14T07:36:39Z</time>
      </trkpt>
      <trkpt lat="45.95194" lon="3.45188">
        <ele>278</ele>
        <time>2024-04-14T07:36:40Z</time>
      </trkpt>
      <trkpt lat="45.95199" lon="3.45196">
        <ele>278</ele>
        <time>2024-04-14T07:36:41Z</time>
      </trkpt>
      <trkpt lat="45.95205" lon="3.45204">
        <ele>278</ele>
        <time>2024-04-14T07:36:42Z</time>
      </trkpt>
      <trkpt lat="45.95212" lon="3.45209">
        <ele>278</ele>
        <time>2024-04-14T07:36:43Z</time>
      </trkpt>
      <trkpt lat="45.95219" lon="3.45215">
        <ele>278</ele>
        <time>2024-04-14T07:36:44Z</time>
      </trkpt>
      <trkpt lat="45.95227" lon="3.45221">
        <ele>278</ele>
        <time>2024-04-14T07:36:45Z</time>
      </trkpt>
      <trkpt lat="45.95234" lon="3.45226">
        <ele>278</ele>
        <time>2024-04-14T07:36:46Z</time>
      </trkpt>
      <trkpt lat="45.95242" lon="3.45232">
        <ele>278</ele>
        <time>2024-04-14T07:36:47Z</time>
      </trkpt>
      <trkpt lat="45.95249" lon="3.45238">
        <ele>278</ele>
        <time>2024-04-14T07:36:48Z</time>
      </trkpt>
      <trkpt lat="45.95257" lon="3.45244">
        <ele>278</ele>
        <time>2024-04-14T07:36:49Z</time>
      </trkpt>
      <trkpt lat="45.95266" lon="3.4525">
        <ele>278</ele>
        <time>2024-04-14T07:36:50Z</time>
      </trkpt>
      <trkpt lat="45.95274" lon="3.45254">
        <ele>278</ele>
        <time>2024-04-14T07:36:51Z</time>
      </trkpt>
      <trkpt lat="45.95283" lon="3.45258">
        <ele>277.8</ele>
        <time>2024-04-14T07:36:52Z</time>
      </trkpt>
      <trkpt lat="45.95291" lon="3.45262">
        <ele>277.8</ele>
        <time>2024-04-14T07:36:53Z</time>
      </trkpt>
      <trkpt lat="45.95299" lon="3.45266">
        <ele>278</ele>
        <time>2024-04-14T07:36:54Z</time>
      </trkpt>
      <trkpt lat="45.95308" lon="3.4527">
        <ele>277.8</ele>
        <time>2024-04-14T07:36:55Z</time>
      </trkpt>
      <trkpt lat="45.95316" lon="3.45274">
        <ele>277.8</ele>
        <time>2024-04-14T07:36:56Z</time>
      </trkpt>
      <trkpt lat="45.95325" lon="3.45279">
        <ele>277.8</ele>
        <time>2024-04-14T07:36:57Z</time>
      </trkpt>
      <trkpt lat="45.95333" lon="3.45283">
        <ele>277.8</ele>
        <time>2024-04-14T07:36:58Z</time>
      </trkpt>
      <trkpt lat="45.95341" lon="3.45287">
        <ele>277.6</ele>
        <time>2024-04-14T07:36:59Z</time>
      </trkpt>
      <trkpt lat="45.9535" lon="3.45291">
        <ele>277.8</ele>
        <time>2024-04-14T07:37:00Z</time>
      </trkpt>
      <trkpt lat="45.95358" lon="3.45295">
        <ele>277.6</ele>
        <time>2024-04-14T07:37:01Z</time>
      </trkpt>
      <trkpt lat="45.95367" lon="3.45299">
        <ele>277.6</ele>
        <time>2024-04-14T07:37:02Z</time>
      </trkpt>
      <trkpt lat="45.95375" lon="3.45303">
        <ele>277.6</ele>
        <time>2024-04-14T07:37:03Z</time>
      </trkpt>
      <trkpt lat="45.95383" lon="3.45307">
        <ele>277.6</ele>
        <time>2024-04-14T07:37:04Z</time>
      </trkpt>
      <trkpt lat="45.95391" lon="3.45311">
        <ele>277.6</ele>
        <time>2024-04-14T07:37:05Z</time>
      </trkpt>
      <trkpt lat="45.954" lon="3.45315">
        <ele>277.6</ele>
        <time>2024-04-14T07:37:06Z</time>
      </trkpt>
      <trkpt lat="45.95408" lon="3.45319">
        <ele>277.6</ele>
        <time>2024-04-14T07:37:07Z</time>
      </trkpt>
      <trkpt lat="45.95416" lon="3.45324">
        <ele>277.6</ele>
        <time>2024-04-14T07:37:08Z</time>
      </trkpt>
      <trkpt lat="45.95425" lon="3.45328">
        <ele>277.6</ele>
        <time>2024-04-14T07:37:09Z</time>
      </trkpt>
      <trkpt lat="45.95433" lon="3.45332">
        <ele>277.6</ele>
        <time>2024-04-14T07:37:10Z</time>
      </trkpt>
      <trkpt lat="45.95441" lon="3.45336">
        <ele>277.6</ele>
        <time>2024-04-14T07:37:11Z</time>
      </trkpt>
      <trkpt lat="45.9545" lon="3.4534">
        <ele>277.6</ele>
        <time>2024-04-14T07:37:12Z</time>
      </trkpt>
      <trkpt lat="45.95458" lon="3.45344">
        <ele>277.6</ele>
        <time>2024-04-14T07:37:13Z</time>
      </trkpt>
      <trkpt lat="45.95467" lon="3.45348">
        <ele>277.6</ele>
        <time>2024-04-14T07:37:14Z</time>
      </trkpt>
      <trkpt lat="45.95475" lon="3.45353">
        <ele>277.6</ele>
        <time>2024-04-14T07:37:15Z</time>
      </trkpt>
      <trkpt lat="45.95484" lon="3.45357">
        <ele>277.6</ele>
        <time>2024-04-14T07:37:16Z</time>
      </trkpt>
      <trkpt lat="45.95493" lon="3.45364">
        <ele>277.6</ele>
        <time>2024-04-14T07:37:17Z</time>
      </trkpt>
      <trkpt lat="45.955" lon="3.45372">
        <ele>277.4</ele>
        <time>2024-04-14T07:37:18Z</time>
      </trkpt>
      <trkpt lat="45.95508" lon="3.45381">
        <ele>277.4</ele>
        <time>2024-04-14T07:37:19Z</time>
      </trkpt>
      <trkpt lat="45.95515" lon="3.4539">
        <ele>277.6</ele>
        <time>2024-04-14T07:37:20Z</time>
      </trkpt>
      <trkpt lat="45.95523" lon="3.45398">
        <ele>277.6</ele>
        <time>2024-04-14T07:37:21Z</time>
      </trkpt>
      <trkpt lat="45.9553" lon="3.45406">
        <ele>277.6</ele>
        <time>2024-04-14T07:37:22Z</time>
      </trkpt>
      <trkpt lat="45.95537" lon="3.45414">
        <ele>277.4</ele>
        <time>2024-04-14T07:37:23Z</time>
      </trkpt>
      <trkpt lat="45.95544" lon="3.45422">
        <ele>277.4</ele>
        <time>2024-04-14T07:37:24Z</time>
      </trkpt>
      <trkpt lat="45.9555" lon="3.45432">
        <ele>277.4</ele>
        <time>2024-04-14T07:37:25Z</time>
      </trkpt>
      <trkpt lat="45.95554" lon="3.45443">
        <ele>277.4</ele>
        <time>2024-04-14T07:37:26Z</time>
      </trkpt>
      <trkpt lat="45.95559" lon="3.45453">
        <ele>277.4</ele>
        <time>2024-04-14T07:37:27Z</time>
      </trkpt>
      <trkpt lat="45.95564" lon="3.45464">
        <ele>277.4</ele>
        <time>2024-04-14T07:37:28Z</time>
      </trkpt>
      <trkpt lat="45.95569" lon="3.45475">
        <ele>277.4</ele>
        <time>2024-04-14T07:37:29Z</time>
      </trkpt>
      <trkpt lat="45.95574" lon="3.45486">
        <ele>277.4</ele>
        <time>2024-04-14T07:37:30Z</time>
      </trkpt>
      <trkpt lat="45.95579" lon="3.45497">
        <ele>277.4</ele>
        <time>2024-04-14T07:37:31Z</time>
      </trkpt>
      <trkpt lat="45.95583" lon="3.45508">
        <ele>277.4</ele>
        <time>2024-04-14T07:37:32Z</time>
      </trkpt>
      <trkpt lat="45.95586" lon="3.45519">
        <ele>277.4</ele>
        <time>2024-04-14T07:37:33Z</time>
      </trkpt>
      <trkpt lat="45.9559" lon="3.45532">
        <ele>277.4</ele>
        <time>2024-04-14T07:37:34Z</time>
      </trkpt>
      <trkpt lat="45.95593" lon="3.45544">
        <ele>277.4</ele>
        <time>2024-04-14T07:37:35Z</time>
      </trkpt>
      <trkpt lat="45.95596" lon="3.45556">
        <ele>277.4</ele>
        <time>2024-04-14T07:37:36Z</time>
      </trkpt>
      <trkpt lat="45.95599" lon="3.45568">
        <ele>277.4</ele>
        <time>2024-04-14T07:37:37Z</time>
      </trkpt>
      <trkpt lat="45.95602" lon="3.4558">
        <ele>277.6</ele>
        <time>2024-04-14T07:37:38Z</time>
      </trkpt>
      <trkpt lat="45.95605" lon="3.45592">
        <ele>277.6</ele>
        <time>2024-04-14T07:37:39Z</time>
      </trkpt>
      <trkpt lat="45.95608" lon="3.45604">
        <ele>277.6</ele>
        <time>2024-04-14T07:37:40Z</time>
      </trkpt>
      <trkpt lat="45.95611" lon="3.45616">
        <ele>277.6</ele>
        <time>2024-04-14T07:37:41Z</time>
      </trkpt>
      <trkpt lat="45.95614" lon="3.45628">
        <ele>277.6</ele>
        <time>2024-04-14T07:37:42Z</time>
      </trkpt>
      <trkpt lat="45.95618" lon="3.4564">
        <ele>277.6</ele>
        <time>2024-04-14T07:37:43Z</time>
      </trkpt>
      <trkpt lat="45.95621" lon="3.45652">
        <ele>277.8</ele>
        <time>2024-04-14T07:37:44Z</time>
      </trkpt>
      <trkpt lat="45.95624" lon="3.45665">
        <ele>277.8</ele>
        <time>2024-04-14T07:37:45Z</time>
      </trkpt>
      <trkpt lat="45.95627" lon="3.45677">
        <ele>277.8</ele>
        <time>2024-04-14T07:37:46Z</time>
      </trkpt>
      <trkpt lat="45.9563" lon="3.45689">
        <ele>277.8</ele>
        <time>2024-04-14T07:37:47Z</time>
      </trkpt>
      <trkpt lat="45.95633" lon="3.45701">
        <ele>277.8</ele>
        <time>2024-04-14T07:37:48Z</time>
      </trkpt>
      <trkpt lat="45.95637" lon="3.45713">
        <ele>277.8</ele>
        <time>2024-04-14T07:37:49Z</time>
      </trkpt>
      <trkpt lat="45.9564" lon="3.45726">
        <ele>277.8</ele>
        <time>2024-04-14T07:37:50Z</time>
      </trkpt>
      <trkpt lat="45.95643" lon="3.45738">
        <ele>277.8</ele>
        <time>2024-04-14T07:37:51Z</time>
      </trkpt>
      <trkpt lat="45.95647" lon="3.4575">
        <ele>277.8</ele>
        <time>2024-04-14T07:37:52Z</time>
      </trkpt>
      <trkpt lat="45.95652" lon="3.45761">
        <ele>277.8</ele>
        <time>2024-04-14T07:37:53Z</time>
      </trkpt>
      <trkpt lat="45.95656" lon="3.45772">
        <ele>277.8</ele>
        <time>2024-04-14T07:37:54Z</time>
      </trkpt>
      <trkpt lat="45.95661" lon="3.45783">
        <ele>277.8</ele>
        <time>2024-04-14T07:37:55Z</time>
      </trkpt>
      <trkpt lat="45.95666" lon="3.45794">
        <ele>277.8</ele>
        <time>2024-04-14T07:37:56Z</time>
      </trkpt>
      <trkpt lat="45.95671" lon="3.45805">
        <ele>277.8</ele>
        <time>2024-04-14T07:37:57Z</time>
      </trkpt>
      <trkpt lat="45.95676" lon="3.45815">
        <ele>277.8</ele>
        <time>2024-04-14T07:37:58Z</time>
      </trkpt>
      <trkpt lat="45.95682" lon="3.45824">
        <ele>277.8</ele>
        <time>2024-04-14T07:37:59Z</time>
      </trkpt>
      <trkpt lat="45.95689" lon="3.45834">
        <ele>277.8</ele>
        <time>2024-04-14T07:38:00Z</time>
      </trkpt>
      <trkpt lat="45.95695" lon="3.45843">
        <ele>277.8</ele>
        <time>2024-04-14T07:38:01Z</time>
      </trkpt>
      <trkpt lat="45.95702" lon="3.4585">
        <ele>277.8</ele>
        <time>2024-04-14T07:38:02Z</time>
      </trkpt>
      <trkpt lat="45.95709" lon="3.45857">
        <ele>277.8</ele>
        <time>2024-04-14T07:38:03Z</time>
      </trkpt>
      <trkpt lat="45.95716" lon="3.45864">
        <ele>277.8</ele>
        <time>2024-04-14T07:38:04Z</time>
      </trkpt>
      <trkpt lat="45.95724" lon="3.45871">
        <ele>277.8</ele>
        <time>2024-04-14T07:38:05Z</time>
      </trkpt>
      <trkpt lat="45.95731" lon="3.45877">
        <ele>277.8</ele>
        <time>2024-04-14T07:38:06Z</time>
      </trkpt>
      <trkpt lat="45.95738" lon="3.45884">
        <ele>277.8</ele>
        <time>2024-04-14T07:38:07Z</time>
      </trkpt>
      <trkpt lat="45.95746" lon="3.45891">
        <ele>277.8</ele>
        <time>2024-04-14T07:38:08Z</time>
      </trkpt>
      <trkpt lat="45.95753" lon="3.45898">
        <ele>278</ele>
        <time>2024-04-14T07:38:09Z</time>
      </trkpt>
      <trkpt lat="45.95761" lon="3.45905">
        <ele>278</ele>
        <time>2024-04-14T07:38:10Z</time>
      </trkpt>
      <trkpt lat="45.95768" lon="3.45912">
        <ele>278</ele>
        <time>2024-04-14T07:38:11Z</time>
      </trkpt>
      <trkpt lat="45.95776" lon="3.45919">
        <ele>278</ele>
        <time>2024-04-14T07:38:12Z</time>
      </trkpt>
      <trkpt lat="45.95783" lon="3.45925">
        <ele>278</ele>
        <time>2024-04-14T07:38:13Z</time>
      </trkpt>
      <trkpt lat="45.95791" lon="3.45932">
        <ele>278</ele>
        <time>2024-04-14T07:38:14Z</time>
      </trkpt>
      <trkpt lat="45.95798" lon="3.45939">
        <ele>278</ele>
        <time>2024-04-14T07:38:15Z</time>
      </trkpt>
      <trkpt lat="45.95806" lon="3.45946">
        <ele>278</ele>
        <time>2024-04-14T07:38:16Z</time>
      </trkpt>
      <trkpt lat="45.95814" lon="3.45953">
        <ele>278</ele>
        <time>2024-04-14T07:38:17Z</time>
      </trkpt>
      <trkpt lat="45.95821" lon="3.4596">
        <ele>278</ele>
        <time>2024-04-14T07:38:18Z</time>
      </trkpt>
      <trkpt lat="45.95829" lon="3.45967">
        <ele>278</ele>
        <time>2024-04-14T07:38:19Z</time>
      </trkpt>
      <trkpt lat="45.95837" lon="3.45974">
        <ele>278</ele>
        <time>2024-04-14T07:38:20Z</time>
      </trkpt>
      <trkpt lat="45.95845" lon="3.45982">
        <ele>278</ele>
        <time>2024-04-14T07:38:21Z</time>
      </trkpt>
      <trkpt lat="45.95853" lon="3.45989">
        <ele>278</ele>
        <time>2024-04-14T07:38:22Z</time>
      </trkpt>
      <trkpt lat="45.9586" lon="3.45996">
        <ele>277.8</ele>
        <time>2024-04-14T07:38:23Z</time>
      </trkpt>
      <trkpt lat="45.95868" lon="3.46003">
        <ele>277.8</ele>
        <time>2024-04-14T07:38:24Z</time>
      </trkpt>
      <trkpt lat="45.95876" lon="3.4601">
        <ele>277.8</ele>
        <time>2024-04-14T07:38:25Z</time>
      </trkpt>
      <trkpt lat="45.95884" lon="3.46018">
        <ele>277.8</ele>
        <time>2024-04-14T07:38:26Z</time>
      </trkpt>
      <trkpt lat="45.95892" lon="3.46025">
        <ele>277.8</ele>
        <time>2024-04-14T07:38:27Z</time>
      </trkpt>
      <trkpt lat="45.959" lon="3.46032">
        <ele>277.8</ele>
        <time>2024-04-14T07:38:28Z</time>
      </trkpt>
      <trkpt lat="45.95908" lon="3.46039">
        <ele>277.8</ele>
        <time>2024-04-14T07:38:29Z</time>
      </trkpt>
      <trkpt lat="45.95916" lon="3.46047">
        <ele>277.8</ele>
        <time>2024-04-14T07:38:30Z</time>
      </trkpt>
      <trkpt lat="45.95923" lon="3.46054">
        <ele>277.8</ele>
        <time>2024-04-14T07:38:31Z</time>
      </trkpt>
      <trkpt lat="45.95932" lon="3.4606">
        <ele>277.8</ele>
        <time>2024-04-14T07:38:32Z</time>
      </trkpt>
      <trkpt lat="45.9594" lon="3.46065">
        <ele>277.6</ele>
        <time>2024-04-14T07:38:33Z</time>
      </trkpt>
      <trkpt lat="45.95948" lon="3.4607">
        <ele>277.8</ele>
        <time>2024-04-14T07:38:34Z</time>
      </trkpt>
      <trkpt lat="45.95957" lon="3.46076">
        <ele>277.8</ele>
        <time>2024-04-14T07:38:35Z</time>
      </trkpt>
      <trkpt lat="45.95965" lon="3.46082">
        <ele>277.6</ele>
        <time>2024-04-14T07:38:36Z</time>
      </trkpt>
      <trkpt lat="45.95974" lon="3.46087">
        <ele>277.8</ele>
        <time>2024-04-14T07:38:37Z</time>
      </trkpt>
      <trkpt lat="45.95982" lon="3.46093">
        <ele>277.8</ele>
        <time>2024-04-14T07:38:38Z</time>
      </trkpt>
      <trkpt lat="45.95991" lon="3.46098">
        <ele>277.8</ele>
        <time>2024-04-14T07:38:39Z</time>
      </trkpt>
      <trkpt lat="45.95999" lon="3.46103">
        <ele>277.8</ele>
        <time>2024-04-14T07:38:40Z</time>
      </trkpt>
      <trkpt lat="45.96007" lon="3.46109">
        <ele>277.8</ele>
        <time>2024-04-14T07:38:41Z</time>
      </trkpt>
      <trkpt lat="45.96016" lon="3.46114">
        <ele>277.8</ele>
        <time>2024-04-14T07:38:42Z</time>
      </trkpt>
      <trkpt lat="45.96024" lon="3.4612">
        <ele>277.8</ele>
        <time>2024-04-14T07:38:43Z</time>
      </trkpt>
      <trkpt lat="45.96033" lon="3.46125">
        <ele>277.6</ele>
        <time>2024-04-14T07:38:44Z</time>
      </trkpt>
      <trkpt lat="45.96042" lon="3.46131">
        <ele>277.8</ele>
        <time>2024-04-14T07:38:45Z</time>
      </trkpt>
      <trkpt lat="45.96051" lon="3.46137">
        <ele>278</ele>
        <time>2024-04-14T07:38:46Z</time>
      </trkpt>
      <trkpt lat="45.96059" lon="3.46142">
        <ele>277.8</ele>
        <time>2024-04-14T07:38:47Z</time>
      </trkpt>
      <trkpt lat="45.96067" lon="3.46147">
        <ele>277.8</ele>
        <time>2024-04-14T07:38:48Z</time>
      </trkpt>
      <trkpt lat="45.96075" lon="3.46152">
        <ele>277.8</ele>
        <time>2024-04-14T07:38:49Z</time>
      </trkpt>
      <trkpt lat="45.96084" lon="3.46158">
        <ele>277.8</ele>
        <time>2024-04-14T07:38:50Z</time>
      </trkpt>
      <trkpt lat="45.96093" lon="3.46164">
        <ele>277.8</ele>
        <time>2024-04-14T07:38:51Z</time>
      </trkpt>
      <trkpt lat="45.96101" lon="3.46169">
        <ele>277.6</ele>
        <time>2024-04-14T07:38:52Z</time>
      </trkpt>
      <trkpt lat="45.9611" lon="3.46176">
        <ele>277.6</ele>
        <time>2024-04-14T07:38:53Z</time>
      </trkpt>
      <trkpt lat="45.96118" lon="3.46182">
        <ele>277.6</ele>
        <time>2024-04-14T07:38:54Z</time>
      </trkpt>
      <trkpt lat="45.96126" lon="3.46188">
        <ele>277.6</ele>
        <time>2024-04-14T07:38:55Z</time>
      </trkpt>
      <trkpt lat="45.96134" lon="3.46194">
        <ele>277.6</ele>
        <time>2024-04-14T07:38:56Z</time>
      </trkpt>
      <trkpt lat="45.96142" lon="3.462">
        <ele>277.4</ele>
        <time>2024-04-14T07:38:57Z</time>
      </trkpt>
      <trkpt lat="45.96151" lon="3.46206">
        <ele>277.4</ele>
        <time>2024-04-14T07:38:58Z</time>
      </trkpt>
      <trkpt lat="45.9616" lon="3.46213">
        <ele>277.4</ele>
        <time>2024-04-14T07:38:59Z</time>
      </trkpt>
      <trkpt lat="45.96168" lon="3.46219">
        <ele>277.4</ele>
        <time>2024-04-14T07:39:00Z</time>
      </trkpt>
      <trkpt lat="45.96176" lon="3.46225">
        <ele>277.2</ele>
        <time>2024-04-14T07:39:01Z</time>
      </trkpt>
      <trkpt lat="45.96184" lon="3.4623">
        <ele>277.2</ele>
        <time>2024-04-14T07:39:02Z</time>
      </trkpt>
      <trkpt lat="45.96191" lon="3.46236">
        <ele>277.2</ele>
        <time>2024-04-14T07:39:03Z</time>
      </trkpt>
      <trkpt lat="45.96199" lon="3.46242">
        <ele>277</ele>
        <time>2024-04-14T07:39:04Z</time>
      </trkpt>
      <trkpt lat="45.96206" lon="3.46247">
        <ele>277</ele>
        <time>2024-04-14T07:39:05Z</time>
      </trkpt>
      <trkpt lat="45.96212" lon="3.46251">
        <ele>277</ele>
        <time>2024-04-14T07:39:06Z</time>
      </trkpt>
      <trkpt lat="45.96218" lon="3.46256">
        <ele>276.8</ele>
        <time>2024-04-14T07:39:07Z</time>
      </trkpt>
      <trkpt lat="45.96224" lon="3.46261">
        <ele>276.8</ele>
        <time>2024-04-14T07:39:08Z</time>
      </trkpt>
      <trkpt lat="45.9623" lon="3.46265">
        <ele>276.8</ele>
        <time>2024-04-14T07:39:09Z</time>
      </trkpt>
      <trkpt lat="45.96235" lon="3.4627">
        <ele>276.8</ele>
        <time>2024-04-14T07:39:10Z</time>
      </trkpt>
      <trkpt lat="45.96241" lon="3.46274">
        <ele>276.6</ele>
        <time>2024-04-14T07:39:11Z</time>
      </trkpt>
      <trkpt lat="45.96246" lon="3.46279">
        <ele>276.6</ele>
        <time>2024-04-14T07:39:12Z</time>
      </trkpt>
      <trkpt lat="45.96252" lon="3.46283">
        <ele>276.4</ele>
        <time>2024-04-14T07:39:13Z</time>
      </trkpt>
      <trkpt lat="45.96257" lon="3.46287">
        <ele>276.4</ele>
        <time>2024-04-14T07:39:14Z</time>
      </trkpt>
      <trkpt lat="45.96261" lon="3.46291">
        <ele>276.4</ele>
        <time>2024-04-14T07:39:15Z</time>
      </trkpt>
      <trkpt lat="45.96265" lon="3.46293">
        <ele>276.6</ele>
        <time>2024-04-14T07:39:16Z</time>
      </trkpt>
      <trkpt lat="45.96268" lon="3.46296">
        <ele>276.6</ele>
        <time>2024-04-14T07:39:17Z</time>
      </trkpt>
      <trkpt lat="45.96271" lon="3.46299">
        <ele>276.6</ele>
        <time>2024-04-14T07:39:18Z</time>
      </trkpt>
      <trkpt lat="45.96274" lon="3.46301">
        <ele>276.4</ele>
        <time>2024-04-14T07:39:19Z</time>
      </trkpt>
      <trkpt lat="45.96276" lon="3.46303">
        <ele>276.6</ele>
        <time>2024-04-14T07:39:20Z</time>
      </trkpt>
      <trkpt lat="45.96279" lon="3.46305">
        <ele>276.6</ele>
        <time>2024-04-14T07:39:21Z</time>
      </trkpt>
      <trkpt lat="45.96281" lon="3.46306">
        <ele>276.8</ele>
        <time>2024-04-14T07:39:22Z</time>
      </trkpt>
      <trkpt lat="45.96283" lon="3.46308">
        <ele>276.8</ele>
        <time>2024-04-14T07:39:23Z</time>
      </trkpt>
      <trkpt lat="45.96285" lon="3.46309">
        <ele>276.8</ele>
        <time>2024-04-14T07:39:24Z</time>
      </trkpt>
      <trkpt lat="45.96287" lon="3.46311">
        <ele>276.2</ele>
        <time>2024-04-14T07:39:25Z</time>
      </trkpt>
      <trkpt lat="45.96289" lon="3.46312">
        <ele>276.2</ele>
        <time>2024-04-14T07:39:26Z</time>
      </trkpt>
      <trkpt lat="45.9629" lon="3.46314">
        <ele>276.4</ele>
        <time>2024-04-14T07:39:27Z</time>
      </trkpt>
      <trkpt lat="45.96292" lon="3.46315">
        <ele>276.8</ele>
        <time>2024-04-14T07:39:28Z</time>
      </trkpt>
      <trkpt lat="45.96293" lon="3.46316">
        <ele>276.8</ele>
        <time>2024-04-14T07:39:29Z</time>
      </trkpt>
      <trkpt lat="45.96295" lon="3.46318">
        <ele>277</ele>
        <time>2024-04-14T07:39:30Z</time>
      </trkpt>
      <trkpt lat="45.96298" lon="3.46319">
        <ele>277.2</ele>
        <time>2024-04-14T07:39:31Z</time>
      </trkpt>
      <trkpt lat="45.96301" lon="3.46322">
        <ele>277.4</ele>
        <time>2024-04-14T07:39:32Z</time>
      </trkpt>
      <trkpt lat="45.96303" lon="3.46324">
        <ele>277</ele>
        <time>2024-04-14T07:39:33Z</time>
      </trkpt>
      <trkpt lat="45.96305" lon="3.46325">
        <ele>277</ele>
        <time>2024-04-14T07:39:34Z</time>
      </trkpt>
      <trkpt lat="45.96306" lon="3.4632">
        <ele>277</ele>
        <time>2024-04-14T07:39:35Z</time>
      </trkpt>
      <trkpt lat="45.96308" lon="3.46315">
        <ele>277</ele>
        <time>2024-04-14T07:39:36Z</time>
      </trkpt>
      <trkpt lat="45.9631" lon="3.4631">
        <ele>277</ele>
        <time>2024-04-14T07:39:37Z</time>
      </trkpt>
      <trkpt lat="45.96312" lon="3.46304">
        <ele>277.2</ele>
        <time>2024-04-14T07:39:38Z</time>
      </trkpt>
      <trkpt lat="45.96315" lon="3.46299">
        <ele>277.2</ele>
        <time>2024-04-14T07:39:39Z</time>
      </trkpt>
      <trkpt lat="45.96317" lon="3.46292">
        <ele>277</ele>
        <time>2024-04-14T07:39:40Z</time>
      </trkpt>
      <trkpt lat="45.9632" lon="3.46286">
        <ele>277</ele>
        <time>2024-04-14T07:39:41Z</time>
      </trkpt>
      <trkpt lat="45.96322" lon="3.46281">
        <ele>277</ele>
        <time>2024-04-14T07:39:42Z</time>
      </trkpt>
      <trkpt lat="45.96324" lon="3.46275">
        <ele>277</ele>
        <time>2024-04-14T07:39:43Z</time>
      </trkpt>
      <trkpt lat="45.96327" lon="3.46268">
        <ele>277</ele>
        <time>2024-04-14T07:39:44Z</time>
      </trkpt>
      <trkpt lat="45.9633" lon="3.46262">
        <ele>277</ele>
        <time>2024-04-14T07:39:45Z</time>
      </trkpt>
      <trkpt lat="45.96332" lon="3.46255">
        <ele>277</ele>
        <time>2024-04-14T07:39:46Z</time>
      </trkpt>
      <trkpt lat="45.96335" lon="3.46249">
        <ele>277.2</ele>
        <time>2024-04-14T07:39:47Z</time>
      </trkpt>
      <trkpt lat="45.96337" lon="3.46241">
        <ele>276.8</ele>
        <time>2024-04-14T07:39:48Z</time>
      </trkpt>
      <trkpt lat="45.96339" lon="3.46233">
        <ele>276.6</ele>
        <time>2024-04-14T07:39:49Z</time>
      </trkpt>
      <trkpt lat="45.9634" lon="3.46225">
        <ele>276.4</ele>
        <time>2024-04-14T07:39:50Z</time>
      </trkpt>
      <trkpt lat="45.96342" lon="3.46217">
        <ele>276.6</ele>
        <time>2024-04-14T07:39:51Z</time>
      </trkpt>
      <trkpt lat="45.96343" lon="3.46208">
        <ele>276.6</ele>
        <time>2024-04-14T07:39:52Z</time>
      </trkpt>
      <trkpt lat="45.96345" lon="3.46201">
        <ele>276.4</ele>
        <time>2024-04-14T07:39:53Z</time>
      </trkpt>
      <trkpt lat="45.96346" lon="3.46192">
        <ele>276.6</ele>
        <time>2024-04-14T07:39:54Z</time>
      </trkpt>
      <trkpt lat="45.96348" lon="3.46184">
        <ele>276.6</ele>
        <time>2024-04-14T07:39:55Z</time>
      </trkpt>
      <trkpt lat="45.96349" lon="3.46176">
        <ele>276.6</ele>
        <time>2024-04-14T07:39:56Z</time>
      </trkpt>
      <trkpt lat="45.9635" lon="3.46167">
        <ele>276.6</ele>
        <time>2024-04-14T07:39:57Z</time>
      </trkpt>
      <trkpt lat="45.9635" lon="3.46159">
        <ele>276.6</ele>
        <time>2024-04-14T07:39:58Z</time>
      </trkpt>
      <trkpt lat="45.96351" lon="3.46151">
        <ele>276.6</ele>
        <time>2024-04-14T07:39:59Z</time>
      </trkpt>
      <trkpt lat="45.96351" lon="3.46143">
        <ele>276.6</ele>
        <time>2024-04-14T07:40:00Z</time>
      </trkpt>
      <trkpt lat="45.96352" lon="3.46135">
        <ele>276.4</ele>
        <time>2024-04-14T07:40:01Z</time>
      </trkpt>
      <trkpt lat="45.96352" lon="3.46127">
        <ele>276.6</ele>
        <time>2024-04-14T07:40:02Z</time>
      </trkpt>
      <trkpt lat="45.96352" lon="3.46119">
        <ele>276.6</ele>
        <time>2024-04-14T07:40:03Z</time>
      </trkpt>
      <trkpt lat="45.96353" lon="3.46111">
        <ele>276.6</ele>
        <time>2024-04-14T07:40:04Z</time>
      </trkpt>
      <trkpt lat="45.96353" lon="3.46103">
        <ele>276.6</ele>
        <time>2024-04-14T07:40:05Z</time>
      </trkpt>
      <trkpt lat="45.96353" lon="3.46095">
        <ele>276.6</ele>
        <time>2024-04-14T07:40:06Z</time>
      </trkpt>
      <trkpt lat="45.96353" lon="3.46086">
        <ele>276.6</ele>
        <time>2024-04-14T07:40:07Z</time>
      </trkpt>
      <trkpt lat="45.96352" lon="3.46077">
        <ele>276.4</ele>
        <time>2024-04-14T07:40:08Z</time>
      </trkpt>
      <trkpt lat="45.96352" lon="3.46069">
        <ele>276.4</ele>
        <time>2024-04-14T07:40:09Z</time>
      </trkpt>
      <trkpt lat="45.96352" lon="3.4606">
        <ele>276.4</ele>
        <time>2024-04-14T07:40:10Z</time>
      </trkpt>
      <trkpt lat="45.96351" lon="3.46051">
        <ele>276.4</ele>
        <time>2024-04-14T07:40:11Z</time>
      </trkpt>
      <trkpt lat="45.96351" lon="3.46043">
        <ele>276.4</ele>
        <time>2024-04-14T07:40:12Z</time>
      </trkpt>
      <trkpt lat="45.9635" lon="3.46034">
        <ele>276.4</ele>
        <time>2024-04-14T07:40:13Z</time>
      </trkpt>
      <trkpt lat="45.9635" lon="3.46024">
        <ele>276.4</ele>
        <time>2024-04-14T07:40:14Z</time>
      </trkpt>
      <trkpt lat="45.96349" lon="3.46015">
        <ele>276.4</ele>
        <time>2024-04-14T07:40:15Z</time>
      </trkpt>
      <trkpt lat="45.96349" lon="3.46005">
        <ele>276.4</ele>
        <time>2024-04-14T07:40:16Z</time>
      </trkpt>
      <trkpt lat="45.96348" lon="3.45996">
        <ele>276.4</ele>
        <time>2024-04-14T07:40:17Z</time>
      </trkpt>
      <trkpt lat="45.96348" lon="3.45986">
        <ele>276.4</ele>
        <time>2024-04-14T07:40:18Z</time>
      </trkpt>
      <trkpt lat="45.96347" lon="3.45976">
        <ele>276.4</ele>
        <time>2024-04-14T07:40:19Z</time>
      </trkpt>
      <trkpt lat="45.96346" lon="3.45966">
        <ele>276.4</ele>
        <time>2024-04-14T07:40:20Z</time>
      </trkpt>
      <trkpt lat="45.96346" lon="3.45956">
        <ele>276.4</ele>
        <time>2024-04-14T07:40:21Z</time>
      </trkpt>
      <trkpt lat="45.96345" lon="3.45945">
        <ele>276.4</ele>
        <time>2024-04-14T07:40:22Z</time>
      </trkpt>
      <trkpt lat="45.96345" lon="3.45935">
        <ele>276.4</ele>
        <time>2024-04-14T07:40:23Z</time>
      </trkpt>
      <trkpt lat="45.96344" lon="3.45925">
        <ele>276.4</ele>
        <time>2024-04-14T07:40:24Z</time>
      </trkpt>
      <trkpt lat="45.96344" lon="3.45914">
        <ele>276.4</ele>
        <time>2024-04-14T07:40:25Z</time>
      </trkpt>
      <trkpt lat="45.96343" lon="3.45903">
        <ele>276.4</ele>
        <time>2024-04-14T07:40:26Z</time>
      </trkpt>
      <trkpt lat="45.96343" lon="3.45891">
        <ele>276.4</ele>
        <time>2024-04-14T07:40:27Z</time>
      </trkpt>
      <trkpt lat="45.96344" lon="3.4588">
        <ele>276.4</ele>
        <time>2024-04-14T07:40:28Z</time>
      </trkpt>
      <trkpt lat="45.96344" lon="3.45869">
        <ele>276.4</ele>
        <time>2024-04-14T07:40:29Z</time>
      </trkpt>
      <trkpt lat="45.96345" lon="3.45858">
        <ele>276.4</ele>
        <time>2024-04-14T07:40:30Z</time>
      </trkpt>
      <trkpt lat="45.96346" lon="3.45847">
        <ele>276.4</ele>
        <time>2024-04-14T07:40:31Z</time>
      </trkpt>
      <trkpt lat="45.96346" lon="3.45835">
        <ele>276.2</ele>
        <time>2024-04-14T07:40:32Z</time>
      </trkpt>
      <trkpt lat="45.96347" lon="3.45823">
        <ele>276.2</ele>
        <time>2024-04-14T07:40:33Z</time>
      </trkpt>
      <trkpt lat="45.96348" lon="3.45812">
        <ele>276.2</ele>
        <time>2024-04-14T07:40:34Z</time>
      </trkpt>
      <trkpt lat="45.9635" lon="3.45801">
        <ele>276.2</ele>
        <time>2024-04-14T07:40:35Z</time>
      </trkpt>
      <trkpt lat="45.96353" lon="3.4579">
        <ele>276.2</ele>
        <time>2024-04-14T07:40:36Z</time>
      </trkpt>
      <trkpt lat="45.96355" lon="3.45778">
        <ele>276.2</ele>
        <time>2024-04-14T07:40:37Z</time>
      </trkpt>
      <trkpt lat="45.96357" lon="3.45767">
        <ele>276.2</ele>
        <time>2024-04-14T07:40:38Z</time>
      </trkpt>
      <trkpt lat="45.96359" lon="3.45756">
        <ele>276</ele>
        <time>2024-04-14T07:40:39Z</time>
      </trkpt>
      <trkpt lat="45.96361" lon="3.45745">
        <ele>276</ele>
        <time>2024-04-14T07:40:40Z</time>
      </trkpt>
      <trkpt lat="45.96363" lon="3.45734">
        <ele>276</ele>
        <time>2024-04-14T07:40:41Z</time>
      </trkpt>
      <trkpt lat="45.96366" lon="3.45724">
        <ele>276</ele>
        <time>2024-04-14T07:40:42Z</time>
      </trkpt>
      <trkpt lat="45.9637" lon="3.45714">
        <ele>276</ele>
        <time>2024-04-14T07:40:43Z</time>
      </trkpt>
      <trkpt lat="45.96373" lon="3.45704">
        <ele>276</ele>
        <time>2024-04-14T07:40:44Z</time>
      </trkpt>
      <trkpt lat="45.96377" lon="3.45694">
        <ele>276</ele>
        <time>2024-04-14T07:40:45Z</time>
      </trkpt>
      <trkpt lat="45.96381" lon="3.45683">
        <ele>276</ele>
        <time>2024-04-14T07:40:46Z</time>
      </trkpt>
      <trkpt lat="45.96385" lon="3.45673">
        <ele>276</ele>
        <time>2024-04-14T07:40:47Z</time>
      </trkpt>
      <trkpt lat="45.96389" lon="3.45663">
        <ele>276</ele>
        <time>2024-04-14T07:40:48Z</time>
      </trkpt>
      <trkpt lat="45.96393" lon="3.45653">
        <ele>276</ele>
        <time>2024-04-14T07:40:49Z</time>
      </trkpt>
      <trkpt lat="45.96397" lon="3.45643">
        <ele>275.8</ele>
        <time>2024-04-14T07:40:50Z</time>
      </trkpt>
      <trkpt lat="45.96402" lon="3.45635">
        <ele>275.8</ele>
        <time>2024-04-14T07:40:51Z</time>
      </trkpt>
      <trkpt lat="45.96407" lon="3.45627">
        <ele>275.8</ele>
        <time>2024-04-14T07:40:52Z</time>
      </trkpt>
      <trkpt lat="45.96412" lon="3.45618">
        <ele>275.8</ele>
        <time>2024-04-14T07:40:53Z</time>
      </trkpt>
      <trkpt lat="45.96417" lon="3.4561">
        <ele>275.8</ele>
        <time>2024-04-14T07:40:54Z</time>
      </trkpt>
      <trkpt lat="45.96421" lon="3.45602">
        <ele>275.8</ele>
        <time>2024-04-14T07:40:55Z</time>
      </trkpt>
      <trkpt lat="45.96426" lon="3.45593">
        <ele>275.8</ele>
        <time>2024-04-14T07:40:56Z</time>
      </trkpt>
      <trkpt lat="45.96431" lon="3.45584">
        <ele>275.8</ele>
        <time>2024-04-14T07:40:57Z</time>
      </trkpt>
      <trkpt lat="45.96436" lon="3.45575">
        <ele>275.8</ele>
        <time>2024-04-14T07:40:58Z</time>
      </trkpt>
      <trkpt lat="45.96441" lon="3.45567">
        <ele>275.8</ele>
        <time>2024-04-14T07:40:59Z</time>
      </trkpt>
      <trkpt lat="45.96447" lon="3.45559">
        <ele>275.8</ele>
        <time>2024-04-14T07:41:00Z</time>
      </trkpt>
      <trkpt lat="45.96452" lon="3.45551">
        <ele>275.8</ele>
        <time>2024-04-14T07:41:01Z</time>
      </trkpt>
      <trkpt lat="45.96458" lon="3.45544">
        <ele>275.8</ele>
        <time>2024-04-14T07:41:02Z</time>
      </trkpt>
      <trkpt lat="45.96464" lon="3.45536">
        <ele>275.8</ele>
        <time>2024-04-14T07:41:03Z</time>
      </trkpt>
      <trkpt lat="45.96469" lon="3.45528">
        <ele>275.8</ele>
        <time>2024-04-14T07:41:04Z</time>
      </trkpt>
      <trkpt lat="45.96475" lon="3.45521">
        <ele>275.8</ele>
        <time>2024-04-14T07:41:05Z</time>
      </trkpt>
      <trkpt lat="45.96481" lon="3.45513">
        <ele>275.8</ele>
        <time>2024-04-14T07:41:06Z</time>
      </trkpt>
      <trkpt lat="45.96487" lon="3.45505">
        <ele>275.8</ele>
        <time>2024-04-14T07:41:07Z</time>
      </trkpt>
      <trkpt lat="45.96492" lon="3.45497">
        <ele>275.8</ele>
        <time>2024-04-14T07:41:08Z</time>
      </trkpt>
      <trkpt lat="45.96498" lon="3.45489">
        <ele>275.8</ele>
        <time>2024-04-14T07:41:09Z</time>
      </trkpt>
      <trkpt lat="45.96503" lon="3.45481">
        <ele>275.8</ele>
        <time>2024-04-14T07:41:10Z</time>
      </trkpt>
      <trkpt lat="45.96508" lon="3.45472">
        <ele>275.8</ele>
        <time>2024-04-14T07:41:11Z</time>
      </trkpt>
      <trkpt lat="45.96514" lon="3.45464">
        <ele>275.8</ele>
        <time>2024-04-14T07:41:12Z</time>
      </trkpt>
      <trkpt lat="45.96519" lon="3.45456">
        <ele>275.8</ele>
        <time>2024-04-14T07:41:13Z</time>
      </trkpt>
      <trkpt lat="45.96524" lon="3.45447">
        <ele>275.8</ele>
        <time>2024-04-14T07:41:14Z</time>
      </trkpt>
      <trkpt lat="45.9653" lon="3.45439">
        <ele>275.8</ele>
        <time>2024-04-14T07:41:15Z</time>
      </trkpt>
      <trkpt lat="45.96535" lon="3.4543">
        <ele>275.8</ele>
        <time>2024-04-14T07:41:16Z</time>
      </trkpt>
      <trkpt lat="45.96541" lon="3.45422">
        <ele>275.8</ele>
        <time>2024-04-14T07:41:17Z</time>
      </trkpt>
      <trkpt lat="45.96546" lon="3.45414">
        <ele>275.8</ele>
        <time>2024-04-14T07:41:18Z</time>
      </trkpt>
      <trkpt lat="45.96551" lon="3.45406">
        <ele>275.8</ele>
        <time>2024-04-14T07:41:19Z</time>
      </trkpt>
      <trkpt lat="45.96556" lon="3.45398">
        <ele>275.8</ele>
        <time>2024-04-14T07:41:20Z</time>
      </trkpt>
      <trkpt lat="45.96561" lon="3.4539">
        <ele>275.8</ele>
        <time>2024-04-14T07:41:21Z</time>
      </trkpt>
      <trkpt lat="45.96567" lon="3.45382">
        <ele>275.8</ele>
        <time>2024-04-14T07:41:22Z</time>
      </trkpt>
      <trkpt lat="45.96572" lon="3.45374">
        <ele>275.8</ele>
        <time>2024-04-14T07:41:23Z</time>
      </trkpt>
      <trkpt lat="45.96577" lon="3.45366">
        <ele>275.8</ele>
        <time>2024-04-14T07:41:24Z</time>
      </trkpt>
      <trkpt lat="45.96582" lon="3.45357">
        <ele>275.8</ele>
        <time>2024-04-14T07:41:25Z</time>
      </trkpt>
      <trkpt lat="45.96587" lon="3.45349">
        <ele>275.8</ele>
        <time>2024-04-14T07:41:26Z</time>
      </trkpt>
      <trkpt lat="45.96592" lon="3.45341">
        <ele>275.8</ele>
        <time>2024-04-14T07:41:27Z</time>
      </trkpt>
      <trkpt lat="45.96598" lon="3.45333">
        <ele>275.8</ele>
        <time>2024-04-14T07:41:28Z</time>
      </trkpt>
      <trkpt lat="45.96603" lon="3.45325">
        <ele>275.6</ele>
        <time>2024-04-14T07:41:29Z</time>
      </trkpt>
      <trkpt lat="45.96608" lon="3.45317">
        <ele>275.8</ele>
        <time>2024-04-14T07:41:30Z</time>
      </trkpt>
      <trkpt lat="45.96613" lon="3.45309">
        <ele>275.8</ele>
        <time>2024-04-14T07:41:31Z</time>
      </trkpt>
      <trkpt lat="45.96618" lon="3.45301">
        <ele>275.6</ele>
        <time>2024-04-14T07:41:32Z</time>
      </trkpt>
      <trkpt lat="45.96623" lon="3.45293">
        <ele>275.6</ele>
        <time>2024-04-14T07:41:33Z</time>
      </trkpt>
      <trkpt lat="45.96628" lon="3.45286">
        <ele>275.6</ele>
        <time>2024-04-14T07:41:34Z</time>
      </trkpt>
      <trkpt lat="45.96633" lon="3.45278">
        <ele>275.6</ele>
        <time>2024-04-14T07:41:35Z</time>
      </trkpt>
      <trkpt lat="45.96638" lon="3.4527">
        <ele>275.6</ele>
        <time>2024-04-14T07:41:36Z</time>
      </trkpt>
      <trkpt lat="45.96643" lon="3.45262">
        <ele>275.6</ele>
        <time>2024-04-14T07:41:37Z</time>
      </trkpt>
      <trkpt lat="45.96648" lon="3.45254">
        <ele>275.6</ele>
        <time>2024-04-14T07:41:38Z</time>
      </trkpt>
      <trkpt lat="45.96653" lon="3.45246">
        <ele>275.6</ele>
        <time>2024-04-14T07:41:39Z</time>
      </trkpt>
      <trkpt lat="45.96659" lon="3.45237">
        <ele>275.6</ele>
        <time>2024-04-14T07:41:40Z</time>
      </trkpt>
      <trkpt lat="45.96664" lon="3.45229">
        <ele>275.6</ele>
        <time>2024-04-14T07:41:41Z</time>
      </trkpt>
      <trkpt lat="45.96669" lon="3.45221">
        <ele>275.6</ele>
        <time>2024-04-14T07:41:42Z</time>
      </trkpt>
      <trkpt lat="45.96675" lon="3.45212">
        <ele>275.6</ele>
        <time>2024-04-14T07:41:43Z</time>
      </trkpt>
      <trkpt lat="45.9668" lon="3.45204">
        <ele>275.6</ele>
        <time>2024-04-14T07:41:44Z</time>
      </trkpt>
      <trkpt lat="45.96685" lon="3.45196">
        <ele>275.6</ele>
        <time>2024-04-14T07:41:45Z</time>
      </trkpt>
      <trkpt lat="45.96691" lon="3.45187">
        <ele>275.6</ele>
        <time>2024-04-14T07:41:46Z</time>
      </trkpt>
      <trkpt lat="45.96696" lon="3.45179">
        <ele>275.6</ele>
        <time>2024-04-14T07:41:47Z</time>
      </trkpt>
      <trkpt lat="45.96702" lon="3.4517">
        <ele>275.6</ele>
        <time>2024-04-14T07:41:48Z</time>
      </trkpt>
      <trkpt lat="45.96707" lon="3.45162">
        <ele>275.6</ele>
        <time>2024-04-14T07:41:49Z</time>
      </trkpt>
      <trkpt lat="45.96712" lon="3.45155">
        <ele>275.6</ele>
        <time>2024-04-14T07:41:50Z</time>
      </trkpt>
      <trkpt lat="45.96716" lon="3.45147">
        <ele>275.6</ele>
        <time>2024-04-14T07:41:51Z</time>
      </trkpt>
      <trkpt lat="45.96721" lon="3.45139">
        <ele>275.6</ele>
        <time>2024-04-14T07:41:52Z</time>
      </trkpt>
      <trkpt lat="45.96727" lon="3.45131">
        <ele>275.6</ele>
        <time>2024-04-14T07:41:53Z</time>
      </trkpt>
      <trkpt lat="45.96732" lon="3.45123">
        <ele>275.6</ele>
        <time>2024-04-14T07:41:54Z</time>
      </trkpt>
      <trkpt lat="45.96738" lon="3.45114">
        <ele>275.6</ele>
        <time>2024-04-14T07:41:55Z</time>
      </trkpt>
      <trkpt lat="45.96743" lon="3.45106">
        <ele>275.6</ele>
        <time>2024-04-14T07:41:56Z</time>
      </trkpt>
      <trkpt lat="45.96748" lon="3.45098">
        <ele>275.6</ele>
        <time>2024-04-14T07:41:57Z</time>
      </trkpt>
      <trkpt lat="45.96753" lon="3.45089">
        <ele>275.8</ele>
        <time>2024-04-14T07:41:58Z</time>
      </trkpt>
      <trkpt lat="45.96759" lon="3.45081">
        <ele>275.6</ele>
        <time>2024-04-14T07:41:59Z</time>
      </trkpt>
      <trkpt lat="45.96764" lon="3.45073">
        <ele>275.8</ele>
        <time>2024-04-14T07:42:00Z</time>
      </trkpt>
      <trkpt lat="45.96769" lon="3.45065">
        <ele>275.6</ele>
        <time>2024-04-14T07:42:01Z</time>
      </trkpt>
      <trkpt lat="45.96774" lon="3.45057">
        <ele>275.6</ele>
        <time>2024-04-14T07:42:02Z</time>
      </trkpt>
      <trkpt lat="45.96779" lon="3.4505">
        <ele>275.6</ele>
        <time>2024-04-14T07:42:03Z</time>
      </trkpt>
      <trkpt lat="45.96784" lon="3.45042">
        <ele>275.8</ele>
        <time>2024-04-14T07:42:04Z</time>
      </trkpt>
      <trkpt lat="45.96788" lon="3.45034">
        <ele>275.8</ele>
        <time>2024-04-14T07:42:05Z</time>
      </trkpt>
      <trkpt lat="45.96793" lon="3.45026">
        <ele>275.8</ele>
        <time>2024-04-14T07:42:06Z</time>
      </trkpt>
      <trkpt lat="45.96798" lon="3.45018">
        <ele>275.8</ele>
        <time>2024-04-14T07:42:07Z</time>
      </trkpt>
      <trkpt lat="45.96802" lon="3.4501">
        <ele>275.8</ele>
        <time>2024-04-14T07:42:08Z</time>
      </trkpt>
      <trkpt lat="45.96806" lon="3.45003">
        <ele>275.8</ele>
        <time>2024-04-14T07:42:09Z</time>
      </trkpt>
      <trkpt lat="45.9681" lon="3.44996">
        <ele>275.8</ele>
        <time>2024-04-14T07:42:10Z</time>
      </trkpt>
      <trkpt lat="45.96815" lon="3.44989">
        <ele>275.8</ele>
        <time>2024-04-14T07:42:11Z</time>
      </trkpt>
      <trkpt lat="45.96819" lon="3.44981">
        <ele>276</ele>
        <time>2024-04-14T07:42:12Z</time>
      </trkpt>
      <trkpt lat="45.96823" lon="3.44974">
        <ele>276</ele>
        <time>2024-04-14T07:42:13Z</time>
      </trkpt>
      <trkpt lat="45.96827" lon="3.44967">
        <ele>276</ele>
        <time>2024-04-14T07:42:14Z</time>
      </trkpt>
      <trkpt lat="45.96831" lon="3.4496">
        <ele>276</ele>
        <time>2024-04-14T07:42:15Z</time>
      </trkpt>
      <trkpt lat="45.96835" lon="3.44953">
        <ele>276</ele>
        <time>2024-04-14T07:42:16Z</time>
      </trkpt>
      <trkpt lat="45.96839" lon="3.44947">
        <ele>276.2</ele>
        <time>2024-04-14T07:42:17Z</time>
      </trkpt>
      <trkpt lat="45.96843" lon="3.4494">
        <ele>276.2</ele>
        <time>2024-04-14T07:42:18Z</time>
      </trkpt>
      <trkpt lat="45.96846" lon="3.44934">
        <ele>276.2</ele>
        <time>2024-04-14T07:42:19Z</time>
      </trkpt>
      <trkpt lat="45.9685" lon="3.44928">
        <ele>276.4</ele>
        <time>2024-04-14T07:42:20Z</time>
      </trkpt>
      <trkpt lat="45.96853" lon="3.44922">
        <ele>276.4</ele>
        <time>2024-04-14T07:42:21Z</time>
      </trkpt>
      <trkpt lat="45.96857" lon="3.44916">
        <ele>276.4</ele>
        <time>2024-04-14T07:42:22Z</time>
      </trkpt>
      <trkpt lat="45.96861" lon="3.4491">
        <ele>276.4</ele>
        <time>2024-04-14T07:42:23Z</time>
      </trkpt>
      <trkpt lat="45.96865" lon="3.44903">
        <ele>276.4</ele>
        <time>2024-04-14T07:42:24Z</time>
      </trkpt>
      <trkpt lat="45.96869" lon="3.44895">
        <ele>276.4</ele>
        <time>2024-04-14T07:42:25Z</time>
      </trkpt>
      <trkpt lat="45.96874" lon="3.44888">
        <ele>276.4</ele>
        <time>2024-04-14T07:42:26Z</time>
      </trkpt>
      <trkpt lat="45.96878" lon="3.44881">
        <ele>276.6</ele>
        <time>2024-04-14T07:42:27Z</time>
      </trkpt>
      <trkpt lat="45.96882" lon="3.44874">
        <ele>276.6</ele>
        <time>2024-04-14T07:42:28Z</time>
      </trkpt>
      <trkpt lat="45.96887" lon="3.44866">
        <ele>276.6</ele>
        <time>2024-04-14T07:42:29Z</time>
      </trkpt>
      <trkpt lat="45.96891" lon="3.44858">
        <ele>276.6</ele>
        <time>2024-04-14T07:42:30Z</time>
      </trkpt>
      <trkpt lat="45.96896" lon="3.44851">
        <ele>276.6</ele>
        <time>2024-04-14T07:42:31Z</time>
      </trkpt>
      <trkpt lat="45.96901" lon="3.44843">
        <ele>276.6</ele>
        <time>2024-04-14T07:42:32Z</time>
      </trkpt>
      <trkpt lat="45.96905" lon="3.44836">
        <ele>276.6</ele>
        <time>2024-04-14T07:42:33Z</time>
      </trkpt>
      <trkpt lat="45.9691" lon="3.44828">
        <ele>276.8</ele>
        <time>2024-04-14T07:42:34Z</time>
      </trkpt>
      <trkpt lat="45.96914" lon="3.44821">
        <ele>276.8</ele>
        <time>2024-04-14T07:42:35Z</time>
      </trkpt>
      <trkpt lat="45.96919" lon="3.44813">
        <ele>276.8</ele>
        <time>2024-04-14T07:42:36Z</time>
      </trkpt>
      <trkpt lat="45.96924" lon="3.44805">
        <ele>277</ele>
        <time>2024-04-14T07:42:37Z</time>
      </trkpt>
      <trkpt lat="45.96928" lon="3.44798">
        <ele>277</ele>
        <time>2024-04-14T07:42:38Z</time>
      </trkpt>
      <trkpt lat="45.96932" lon="3.4479">
        <ele>277</ele>
        <time>2024-04-14T07:42:39Z</time>
      </trkpt>
      <trkpt lat="45.96937" lon="3.44782">
        <ele>277.2</ele>
        <time>2024-04-14T07:42:40Z</time>
      </trkpt>
      <trkpt lat="45.96942" lon="3.44775">
        <ele>277.2</ele>
        <time>2024-04-14T07:42:41Z</time>
      </trkpt>
      <trkpt lat="45.96946" lon="3.44767">
        <ele>277.2</ele>
        <time>2024-04-14T07:42:42Z</time>
      </trkpt>
      <trkpt lat="45.96951" lon="3.44759">
        <ele>277.2</ele>
        <time>2024-04-14T07:42:43Z</time>
      </trkpt>
      <trkpt lat="45.96955" lon="3.44751">
        <ele>277.4</ele>
        <time>2024-04-14T07:42:44Z</time>
      </trkpt>
      <trkpt lat="45.96959" lon="3.44744">
        <ele>277.4</ele>
        <time>2024-04-14T07:42:45Z</time>
      </trkpt>
      <trkpt lat="45.96964" lon="3.44736">
        <ele>277.4</ele>
        <time>2024-04-14T07:42:46Z</time>
      </trkpt>
      <trkpt lat="45.96968" lon="3.44728">
        <ele>277.4</ele>
        <time>2024-04-14T07:42:47Z</time>
      </trkpt>
      <trkpt lat="45.96972" lon="3.4472">
        <ele>277.4</ele>
        <time>2024-04-14T07:42:48Z</time>
      </trkpt>
      <trkpt lat="45.96976" lon="3.44713">
        <ele>277.6</ele>
        <time>2024-04-14T07:42:49Z</time>
      </trkpt>
      <trkpt lat="45.9698" lon="3.44705">
        <ele>277.6</ele>
        <time>2024-04-14T07:42:50Z</time>
      </trkpt>
      <trkpt lat="45.96985" lon="3.44698">
        <ele>277.6</ele>
        <time>2024-04-14T07:42:51Z</time>
      </trkpt>
      <trkpt lat="45.96989" lon="3.4469">
        <ele>277.6</ele>
        <time>2024-04-14T07:42:52Z</time>
      </trkpt>
      <trkpt lat="45.96993" lon="3.44682">
        <ele>277.8</ele>
        <time>2024-04-14T07:42:53Z</time>
      </trkpt>
      <trkpt lat="45.96997" lon="3.44675">
        <ele>277.8</ele>
        <time>2024-04-14T07:42:54Z</time>
      </trkpt>
      <trkpt lat="45.97001" lon="3.44668">
        <ele>277.8</ele>
        <time>2024-04-14T07:42:55Z</time>
      </trkpt>
      <trkpt lat="45.97005" lon="3.4466">
        <ele>278</ele>
        <time>2024-04-14T07:42:56Z</time>
      </trkpt>
      <trkpt lat="45.97009" lon="3.44654">
        <ele>278</ele>
        <time>2024-04-14T07:42:57Z</time>
      </trkpt>
      <trkpt lat="45.97013" lon="3.44647">
        <ele>278</ele>
        <time>2024-04-14T07:42:58Z</time>
      </trkpt>
      <trkpt lat="45.97016" lon="3.44641">
        <ele>278</ele>
        <time>2024-04-14T07:42:59Z</time>
      </trkpt>
      <trkpt lat="45.9702" lon="3.44634">
        <ele>278.2</ele>
        <time>2024-04-14T07:43:00Z</time>
      </trkpt>
      <trkpt lat="45.97023" lon="3.44628">
        <ele>278.2</ele>
        <time>2024-04-14T07:43:01Z</time>
      </trkpt>
      <trkpt lat="45.97027" lon="3.44622">
        <ele>278.2</ele>
        <time>2024-04-14T07:43:02Z</time>
      </trkpt>
      <trkpt lat="45.97029" lon="3.44617">
        <ele>278.4</ele>
        <time>2024-04-14T07:43:03Z</time>
      </trkpt>
      <trkpt lat="45.97032" lon="3.4461">
        <ele>278.4</ele>
        <time>2024-04-14T07:43:04Z</time>
      </trkpt>
      <trkpt lat="45.97036" lon="3.44604">
        <ele>278.4</ele>
        <time>2024-04-14T07:43:05Z</time>
      </trkpt>
      <trkpt lat="45.97039" lon="3.44597">
        <ele>278.6</ele>
        <time>2024-04-14T07:43:06Z</time>
      </trkpt>
      <trkpt lat="45.97042" lon="3.44591">
        <ele>278.6</ele>
        <time>2024-04-14T07:43:07Z</time>
      </trkpt>
      <trkpt lat="45.97045" lon="3.44584">
        <ele>278.6</ele>
        <time>2024-04-14T07:43:08Z</time>
      </trkpt>
      <trkpt lat="45.97048" lon="3.44578">
        <ele>278.8</ele>
        <time>2024-04-14T07:43:09Z</time>
      </trkpt>
      <trkpt lat="45.97052" lon="3.44571">
        <ele>278.8</ele>
        <time>2024-04-14T07:43:10Z</time>
      </trkpt>
      <trkpt lat="45.97055" lon="3.44565">
        <ele>279</ele>
        <time>2024-04-14T07:43:11Z</time>
      </trkpt>
      <trkpt lat="45.97058" lon="3.44558">
        <ele>279</ele>
        <time>2024-04-14T07:43:12Z</time>
      </trkpt>
      <trkpt lat="45.97061" lon="3.44552">
        <ele>279</ele>
        <time>2024-04-14T07:43:13Z</time>
      </trkpt>
      <trkpt lat="45.97064" lon="3.44546">
        <ele>279.2</ele>
        <time>2024-04-14T07:43:14Z</time>
      </trkpt>
      <trkpt lat="45.97067" lon="3.4454">
        <ele>279.2</ele>
        <time>2024-04-14T07:43:15Z</time>
      </trkpt>
      <trkpt lat="45.9707" lon="3.44534">
        <ele>279.4</ele>
        <time>2024-04-14T07:43:16Z</time>
      </trkpt>
      <trkpt lat="45.97072" lon="3.44528">
        <ele>279.4</ele>
        <time>2024-04-14T07:43:17Z</time>
      </trkpt>
      <trkpt lat="45.97075" lon="3.44521">
        <ele>279.4</ele>
        <time>2024-04-14T07:43:18Z</time>
      </trkpt>
      <trkpt lat="45.97078" lon="3.44514">
        <ele>279.4</ele>
        <time>2024-04-14T07:43:19Z</time>
      </trkpt>
      <trkpt lat="45.9708" lon="3.44508">
        <ele>279.4</ele>
        <time>2024-04-14T07:43:20Z</time>
      </trkpt>
      <trkpt lat="45.97083" lon="3.44501">
        <ele>279.6</ele>
        <time>2024-04-14T07:43:21Z</time>
      </trkpt>
      <trkpt lat="45.97086" lon="3.44493">
        <ele>279.6</ele>
        <time>2024-04-14T07:43:22Z</time>
      </trkpt>
      <trkpt lat="45.97089" lon="3.44486">
        <ele>279.6</ele>
        <time>2024-04-14T07:43:23Z</time>
      </trkpt>
      <trkpt lat="45.97092" lon="3.44479">
        <ele>279.8</ele>
        <time>2024-04-14T07:43:24Z</time>
      </trkpt>
      <trkpt lat="45.97095" lon="3.44472">
        <ele>279.8</ele>
        <time>2024-04-14T07:43:25Z</time>
      </trkpt>
      <trkpt lat="45.97098" lon="3.44465">
        <ele>280</ele>
        <time>2024-04-14T07:43:26Z</time>
      </trkpt>
      <trkpt lat="45.97101" lon="3.44458">
        <ele>280</ele>
        <time>2024-04-14T07:43:27Z</time>
      </trkpt>
      <trkpt lat="45.97104" lon="3.44451">
        <ele>280</ele>
        <time>2024-04-14T07:43:28Z</time>
      </trkpt>
      <trkpt lat="45.97107" lon="3.44444">
        <ele>280</ele>
        <time>2024-04-14T07:43:29Z</time>
      </trkpt>
      <trkpt lat="45.9711" lon="3.44438">
        <ele>280.2</ele>
        <time>2024-04-14T07:43:30Z</time>
      </trkpt>
      <trkpt lat="45.97114" lon="3.44433">
        <ele>280.2</ele>
        <time>2024-04-14T07:43:31Z</time>
      </trkpt>
      <trkpt lat="45.97116" lon="3.44428">
        <ele>280.2</ele>
        <time>2024-04-14T07:43:32Z</time>
      </trkpt>
      <trkpt lat="45.9712" lon="3.44422">
        <ele>280.2</ele>
        <time>2024-04-14T07:43:33Z</time>
      </trkpt>
      <trkpt lat="45.97123" lon="3.44417">
        <ele>280.4</ele>
        <time>2024-04-14T07:43:34Z</time>
      </trkpt>
      <trkpt lat="45.97126" lon="3.44411">
        <ele>280.4</ele>
        <time>2024-04-14T07:43:35Z</time>
      </trkpt>
      <trkpt lat="45.9713" lon="3.44405">
        <ele>280.4</ele>
        <time>2024-04-14T07:43:36Z</time>
      </trkpt>
      <trkpt lat="45.97133" lon="3.44399">
        <ele>280.4</ele>
        <time>2024-04-14T07:43:37Z</time>
      </trkpt>
      <trkpt lat="45.97138" lon="3.44393">
        <ele>280.6</ele>
        <time>2024-04-14T07:43:38Z</time>
      </trkpt>
      <trkpt lat="45.97144" lon="3.44391">
        <ele>280.6</ele>
        <time>2024-04-14T07:43:39Z</time>
      </trkpt>
      <trkpt lat="45.9715" lon="3.4439">
        <ele>280.8</ele>
        <time>2024-04-14T07:43:40Z</time>
      </trkpt>
      <trkpt lat="45.97156" lon="3.44394">
        <ele>280.8</ele>
        <time>2024-04-14T07:43:41Z</time>
      </trkpt>
      <trkpt lat="45.9716" lon="3.444">
        <ele>281</ele>
        <time>2024-04-14T07:43:42Z</time>
      </trkpt>
      <trkpt lat="45.97165" lon="3.44405">
        <ele>281.2</ele>
        <time>2024-04-14T07:43:43Z</time>
      </trkpt>
      <trkpt lat="45.97169" lon="3.4441">
        <ele>281.2</ele>
        <time>2024-04-14T07:43:44Z</time>
      </trkpt>
      <trkpt lat="45.97174" lon="3.44415">
        <ele>281.2</ele>
        <time>2024-04-14T07:43:45Z</time>
      </trkpt>
      <trkpt lat="45.97178" lon="3.44421">
        <ele>281.4</ele>
        <time>2024-04-14T07:43:46Z</time>
      </trkpt>
      <trkpt lat="45.97183" lon="3.44426">
        <ele>281.4</ele>
        <time>2024-04-14T07:43:47Z</time>
      </trkpt>
      <trkpt lat="45.97188" lon="3.44431">
        <ele>281.6</ele>
        <time>2024-04-14T07:43:48Z</time>
      </trkpt>
      <trkpt lat="45.97193" lon="3.44436">
        <ele>281.6</ele>
        <time>2024-04-14T07:43:49Z</time>
      </trkpt>
      <trkpt lat="45.97198" lon="3.4444">
        <ele>281.8</ele>
        <time>2024-04-14T07:43:50Z</time>
      </trkpt>
      <trkpt lat="45.97203" lon="3.44444">
        <ele>282</ele>
        <time>2024-04-14T07:43:51Z</time>
      </trkpt>
      <trkpt lat="45.97208" lon="3.44448">
        <ele>282</ele>
        <time>2024-04-14T07:43:52Z</time>
      </trkpt>
      <trkpt lat="45.97213" lon="3.44452">
        <ele>282.2</ele>
        <time>2024-04-14T07:43:53Z</time>
      </trkpt>
      <trkpt lat="45.97218" lon="3.44457">
        <ele>282.4</ele>
        <time>2024-04-14T07:43:54Z</time>
      </trkpt>
      <trkpt lat="45.97223" lon="3.44461">
        <ele>282.4</ele>
        <time>2024-04-14T07:43:55Z</time>
      </trkpt>
      <trkpt lat="45.97228" lon="3.44467">
        <ele>282.6</ele>
        <time>2024-04-14T07:43:56Z</time>
      </trkpt>
      <trkpt lat="45.97233" lon="3.44473">
        <ele>282.6</ele>
        <time>2024-04-14T07:43:57Z</time>
      </trkpt>
      <trkpt lat="45.97237" lon="3.44479">
        <ele>282.8</ele>
        <time>2024-04-14T07:43:58Z</time>
      </trkpt>
      <trkpt lat="45.97241" lon="3.44485">
        <ele>282.8</ele>
        <time>2024-04-14T07:43:59Z</time>
      </trkpt>
      <trkpt lat="45.97245" lon="3.44491">
        <ele>283</ele>
        <time>2024-04-14T07:44:00Z</time>
      </trkpt>
      <trkpt lat="45.97249" lon="3.44497">
        <ele>283.2</ele>
        <time>2024-04-14T07:44:01Z</time>
      </trkpt>
      <trkpt lat="45.97253" lon="3.44503">
        <ele>283.2</ele>
        <time>2024-04-14T07:44:02Z</time>
      </trkpt>
      <trkpt lat="45.97257" lon="3.44508">
        <ele>283.4</ele>
        <time>2024-04-14T07:44:03Z</time>
      </trkpt>
      <trkpt lat="45.97261" lon="3.44514">
        <ele>283.6</ele>
        <time>2024-04-14T07:44:04Z</time>
      </trkpt>
      <trkpt lat="45.97265" lon="3.44519">
        <ele>283.8</ele>
        <time>2024-04-14T07:44:05Z</time>
      </trkpt>
      <trkpt lat="45.97269" lon="3.44524">
        <ele>283.8</ele>
        <time>2024-04-14T07:44:06Z</time>
      </trkpt>
      <trkpt lat="45.97273" lon="3.44527">
        <ele>284</ele>
        <time>2024-04-14T07:44:07Z</time>
      </trkpt>
      <trkpt lat="45.97277" lon="3.44531">
        <ele>284</ele>
        <time>2024-04-14T07:44:08Z</time>
      </trkpt>
      <trkpt lat="45.97281" lon="3.44534">
        <ele>284.2</ele>
        <time>2024-04-14T07:44:09Z</time>
      </trkpt>
      <trkpt lat="45.97284" lon="3.44537">
        <ele>284.4</ele>
        <time>2024-04-14T07:44:10Z</time>
      </trkpt>
      <trkpt lat="45.97288" lon="3.44541">
        <ele>284.6</ele>
        <time>2024-04-14T07:44:11Z</time>
      </trkpt>
      <trkpt lat="45.9729" lon="3.44543">
        <ele>284.8</ele>
        <time>2024-04-14T07:44:12Z</time>
      </trkpt>
      <trkpt lat="45.97292" lon="3.44545">
        <ele>285</ele>
        <time>2024-04-14T07:44:13Z</time>
      </trkpt>
      <trkpt lat="45.97298" lon="3.44543">
        <ele>285</ele>
        <time>2024-04-14T07:44:14Z</time>
      </trkpt>
      <trkpt lat="45.97299" lon="3.44539">
        <ele>285.2</ele>
        <time>2024-04-14T07:44:15Z</time>
      </trkpt>
      <trkpt lat="45.97301" lon="3.44535">
        <ele>285.4</ele>
        <time>2024-04-14T07:44:16Z</time>
      </trkpt>
      <trkpt lat="45.97303" lon="3.4453">
        <ele>285.4</ele>
        <time>2024-04-14T07:44:17Z</time>
      </trkpt>
      <trkpt lat="45.97305" lon="3.44526">
        <ele>285.6</ele>
        <time>2024-04-14T07:44:18Z</time>
      </trkpt>
      <trkpt lat="45.97307" lon="3.44521">
        <ele>285.6</ele>
        <time>2024-04-14T07:44:19Z</time>
      </trkpt>
      <trkpt lat="45.97309" lon="3.44515">
        <ele>285.8</ele>
        <time>2024-04-14T07:44:20Z</time>
      </trkpt>
      <trkpt lat="45.97311" lon="3.44509">
        <ele>285.8</ele>
        <time>2024-04-14T07:44:21Z</time>
      </trkpt>
      <trkpt lat="45.97314" lon="3.44503">
        <ele>286</ele>
        <time>2024-04-14T07:44:22Z</time>
      </trkpt>
      <trkpt lat="45.97316" lon="3.44496">
        <ele>286</ele>
        <time>2024-04-14T07:44:23Z</time>
      </trkpt>
      <trkpt lat="45.97319" lon="3.4449">
        <ele>286</ele>
        <time>2024-04-14T07:44:24Z</time>
      </trkpt>
      <trkpt lat="45.97321" lon="3.44484">
        <ele>286.2</ele>
        <time>2024-04-14T07:44:25Z</time>
      </trkpt>
      <trkpt lat="45.97324" lon="3.44478">
        <ele>286.2</ele>
        <time>2024-04-14T07:44:26Z</time>
      </trkpt>
      <trkpt lat="45.97327" lon="3.44473">
        <ele>286.4</ele>
        <time>2024-04-14T07:44:27Z</time>
      </trkpt>
      <trkpt lat="45.9733" lon="3.44468">
        <ele>286.4</ele>
        <time>2024-04-14T07:44:28Z</time>
      </trkpt>
      <trkpt lat="45.97333" lon="3.44462">
        <ele>286.6</ele>
        <time>2024-04-14T07:44:29Z</time>
      </trkpt>
      <trkpt lat="45.97337" lon="3.44457">
        <ele>286.6</ele>
        <time>2024-04-14T07:44:30Z</time>
      </trkpt>
      <trkpt lat="45.9734" lon="3.44452">
        <ele>286.6</ele>
        <time>2024-04-14T07:44:31Z</time>
      </trkpt>
      <trkpt lat="45.97343" lon="3.44446">
        <ele>286.8</ele>
        <time>2024-04-14T07:44:32Z</time>
      </trkpt>
      <trkpt lat="45.97346" lon="3.44441">
        <ele>287</ele>
        <time>2024-04-14T07:44:33Z</time>
      </trkpt>
      <trkpt lat="45.97349" lon="3.44436">
        <ele>287</ele>
        <time>2024-04-14T07:44:34Z</time>
      </trkpt>
      <trkpt lat="45.97352" lon="3.4443">
        <ele>287.2</ele>
        <time>2024-04-14T07:44:35Z</time>
      </trkpt>
      <trkpt lat="45.97356" lon="3.44425">
        <ele>287.2</ele>
        <time>2024-04-14T07:44:36Z</time>
      </trkpt>
      <trkpt lat="45.97359" lon="3.44419">
        <ele>287.4</ele>
        <time>2024-04-14T07:44:37Z</time>
      </trkpt>
      <trkpt lat="45.97362" lon="3.44414">
        <ele>287.4</ele>
        <time>2024-04-14T07:44:38Z</time>
      </trkpt>
      <trkpt lat="45.97365" lon="3.44408">
        <ele>287.6</ele>
        <time>2024-04-14T07:44:39Z</time>
      </trkpt>
      <trkpt lat="45.97368" lon="3.44404">
        <ele>287.6</ele>
        <time>2024-04-14T07:44:40Z</time>
      </trkpt>
      <trkpt lat="45.97371" lon="3.44398">
        <ele>287.8</ele>
        <time>2024-04-14T07:44:41Z</time>
      </trkpt>
      <trkpt lat="45.97374" lon="3.44393">
        <ele>287.8</ele>
        <time>2024-04-14T07:44:42Z</time>
      </trkpt>
      <trkpt lat="45.97378" lon="3.44387">
        <ele>287.8</ele>
        <time>2024-04-14T07:44:43Z</time>
      </trkpt>
      <trkpt lat="45.97381" lon="3.44381">
        <ele>288</ele>
        <time>2024-04-14T07:44:44Z</time>
      </trkpt>
      <trkpt lat="45.97384" lon="3.44376">
        <ele>288</ele>
        <time>2024-04-14T07:44:45Z</time>
      </trkpt>
      <trkpt lat="45.97387" lon="3.4437">
        <ele>288</ele>
        <time>2024-04-14T07:44:46Z</time>
      </trkpt>
      <trkpt lat="45.9739" lon="3.44365">
        <ele>288.2</ele>
        <time>2024-04-14T07:44:47Z</time>
      </trkpt>
      <trkpt lat="45.97393" lon="3.44359">
        <ele>288.2</ele>
        <time>2024-04-14T07:44:48Z</time>
      </trkpt>
      <trkpt lat="45.97396" lon="3.44352">
        <ele>288.2</ele>
        <time>2024-04-14T07:44:49Z</time>
      </trkpt>
      <trkpt lat="45.97399" lon="3.44346">
        <ele>288.2</ele>
        <time>2024-04-14T07:44:50Z</time>
      </trkpt>
      <trkpt lat="45.97402" lon="3.4434">
        <ele>288.4</ele>
        <time>2024-04-14T07:44:51Z</time>
      </trkpt>
      <trkpt lat="45.97405" lon="3.44334">
        <ele>288.4</ele>
        <time>2024-04-14T07:44:52Z</time>
      </trkpt>
      <trkpt lat="45.97407" lon="3.44328">
        <ele>288.6</ele>
        <time>2024-04-14T07:44:53Z</time>
      </trkpt>
      <trkpt lat="45.9741" lon="3.44323">
        <ele>288.6</ele>
        <time>2024-04-14T07:44:54Z</time>
      </trkpt>
      <trkpt lat="45.97413" lon="3.44316">
        <ele>288.8</ele>
        <time>2024-04-14T07:44:55Z</time>
      </trkpt>
      <trkpt lat="45.97416" lon="3.4431">
        <ele>288.8</ele>
        <time>2024-04-14T07:44:56Z</time>
      </trkpt>
      <trkpt lat="45.97419" lon="3.44304">
        <ele>288.8</ele>
        <time>2024-04-14T07:44:57Z</time>
      </trkpt>
      <trkpt lat="45.97422" lon="3.44297">
        <ele>289</ele>
        <time>2024-04-14T07:44:58Z</time>
      </trkpt>
      <trkpt lat="45.97425" lon="3.44291">
        <ele>289.2</ele>
        <time>2024-04-14T07:44:59Z</time>
      </trkpt>
      <trkpt lat="45.97428" lon="3.44285">
        <ele>289.2</ele>
        <time>2024-04-14T07:45:00Z</time>
      </trkpt>
      <trkpt lat="45.97431" lon="3.44278">
        <ele>289.2</ele>
        <time>2024-04-14T07:45:01Z</time>
      </trkpt>
      <trkpt lat="45.97434" lon="3.44271">
        <ele>289.4</ele>
        <time>2024-04-14T07:45:02Z</time>
      </trkpt>
      <trkpt lat="45.97437" lon="3.44265">
        <ele>289.4</ele>
        <time>2024-04-14T07:45:03Z</time>
      </trkpt>
      <trkpt lat="45.9744" lon="3.44259">
        <ele>289.6</ele>
        <time>2024-04-14T07:45:04Z</time>
      </trkpt>
      <trkpt lat="45.97443" lon="3.44252">
        <ele>289.6</ele>
        <time>2024-04-14T07:45:05Z</time>
      </trkpt>
      <trkpt lat="45.97446" lon="3.44246">
        <ele>289.8</ele>
        <time>2024-04-14T07:45:06Z</time>
      </trkpt>
      <trkpt lat="45.97449" lon="3.44241">
        <ele>289.8</ele>
        <time>2024-04-14T07:45:07Z</time>
      </trkpt>
      <trkpt lat="45.97451" lon="3.44235">
        <ele>289.8</ele>
        <time>2024-04-14T07:45:08Z</time>
      </trkpt>
      <trkpt lat="45.97454" lon="3.44229">
        <ele>290</ele>
        <time>2024-04-14T07:45:09Z</time>
      </trkpt>
      <trkpt lat="45.97456" lon="3.44224">
        <ele>290.2</ele>
        <time>2024-04-14T07:45:10Z</time>
      </trkpt>
      <trkpt lat="45.97459" lon="3.44218">
        <ele>290.2</ele>
        <time>2024-04-14T07:45:11Z</time>
      </trkpt>
      <trkpt lat="45.97462" lon="3.44212">
        <ele>290.4</ele>
        <time>2024-04-14T07:45:12Z</time>
      </trkpt>
      <trkpt lat="45.97465" lon="3.44206">
        <ele>290.4</ele>
        <time>2024-04-14T07:45:13Z</time>
      </trkpt>
      <trkpt lat="45.97468" lon="3.44199">
        <ele>290.6</ele>
        <time>2024-04-14T07:45:14Z</time>
      </trkpt>
      <trkpt lat="45.97471" lon="3.44193">
        <ele>290.6</ele>
        <time>2024-04-14T07:45:15Z</time>
      </trkpt>
      <trkpt lat="45.97474" lon="3.44186">
        <ele>290.8</ele>
        <time>2024-04-14T07:45:16Z</time>
      </trkpt>
      <trkpt lat="45.97478" lon="3.44179">
        <ele>290.8</ele>
        <time>2024-04-14T07:45:17Z</time>
      </trkpt>
      <trkpt lat="45.97481" lon="3.44172">
        <ele>291</ele>
        <time>2024-04-14T07:45:18Z</time>
      </trkpt>
      <trkpt lat="45.97484" lon="3.44165">
        <ele>291</ele>
        <time>2024-04-14T07:45:19Z</time>
      </trkpt>
      <trkpt lat="45.97487" lon="3.44158">
        <ele>291.2</ele>
        <time>2024-04-14T07:45:20Z</time>
      </trkpt>
      <trkpt lat="45.9749" lon="3.44152">
        <ele>291.2</ele>
        <time>2024-04-14T07:45:21Z</time>
      </trkpt>
      <trkpt lat="45.97495" lon="3.44147">
        <ele>291.4</ele>
        <time>2024-04-14T07:45:22Z</time>
      </trkpt>
      <trkpt lat="45.975" lon="3.44143">
        <ele>291.6</ele>
        <time>2024-04-14T07:45:23Z</time>
      </trkpt>
      <trkpt lat="45.97504" lon="3.44139">
        <ele>291.6</ele>
        <time>2024-04-14T07:45:24Z</time>
      </trkpt>
      <trkpt lat="45.97509" lon="3.44135">
        <ele>291.8</ele>
        <time>2024-04-14T07:45:25Z</time>
      </trkpt>
      <trkpt lat="45.97513" lon="3.44132">
        <ele>292</ele>
        <time>2024-04-14T07:45:26Z</time>
      </trkpt>
      <trkpt lat="45.97517" lon="3.44128">
        <ele>292</ele>
        <time>2024-04-14T07:45:27Z</time>
      </trkpt>
      <trkpt lat="45.97522" lon="3.44124">
        <ele>292.2</ele>
        <time>2024-04-14T07:45:28Z</time>
      </trkpt>
      <trkpt lat="45.97526" lon="3.44121">
        <ele>292.4</ele>
        <time>2024-04-14T07:45:29Z</time>
      </trkpt>
      <trkpt lat="45.97532" lon="3.4412">
        <ele>292.4</ele>
        <time>2024-04-14T07:45:30Z</time>
      </trkpt>
      <trkpt lat="45.97537" lon="3.44118">
        <ele>292.6</ele>
        <time>2024-04-14T07:45:31Z</time>
      </trkpt>
      <trkpt lat="45.97543" lon="3.44117">
        <ele>292.8</ele>
        <time>2024-04-14T07:45:32Z</time>
      </trkpt>
      <trkpt lat="45.97549" lon="3.44116">
        <ele>292.8</ele>
        <time>2024-04-14T07:45:33Z</time>
      </trkpt>
      <trkpt lat="45.97555" lon="3.44115">
        <ele>293</ele>
        <time>2024-04-14T07:45:34Z</time>
      </trkpt>
      <trkpt lat="45.97561" lon="3.44115">
        <ele>293</ele>
        <time>2024-04-14T07:45:35Z</time>
      </trkpt>
      <trkpt lat="45.97567" lon="3.44115">
        <ele>293.2</ele>
        <time>2024-04-14T07:45:36Z</time>
      </trkpt>
      <trkpt lat="45.97573" lon="3.44115">
        <ele>293.2</ele>
        <time>2024-04-14T07:45:37Z</time>
      </trkpt>
      <trkpt lat="45.97579" lon="3.44116">
        <ele>293.4</ele>
        <time>2024-04-14T07:45:38Z</time>
      </trkpt>
      <trkpt lat="45.97584" lon="3.44116">
        <ele>293.6</ele>
        <time>2024-04-14T07:45:39Z</time>
      </trkpt>
      <trkpt lat="45.97591" lon="3.44116">
        <ele>293.6</ele>
        <time>2024-04-14T07:45:40Z</time>
      </trkpt>
      <trkpt lat="45.97597" lon="3.44116">
        <ele>293.8</ele>
        <time>2024-04-14T07:45:41Z</time>
      </trkpt>
      <trkpt lat="45.97603" lon="3.44116">
        <ele>293.8</ele>
        <time>2024-04-14T07:45:42Z</time>
      </trkpt>
      <trkpt lat="45.97608" lon="3.44112">
        <ele>294</ele>
        <time>2024-04-14T07:45:43Z</time>
      </trkpt>
      <trkpt lat="45.97613" lon="3.44107">
        <ele>294</ele>
        <time>2024-04-14T07:45:44Z</time>
      </trkpt>
      <trkpt lat="45.97618" lon="3.44103">
        <ele>294.2</ele>
        <time>2024-04-14T07:45:45Z</time>
      </trkpt>
      <trkpt lat="45.97624" lon="3.44098">
        <ele>294.2</ele>
        <time>2024-04-14T07:45:46Z</time>
      </trkpt>
      <trkpt lat="45.97629" lon="3.44093">
        <ele>294.2</ele>
        <time>2024-04-14T07:45:47Z</time>
      </trkpt>
      <trkpt lat="45.97635" lon="3.44088">
        <ele>294.2</ele>
        <time>2024-04-14T07:45:48Z</time>
      </trkpt>
      <trkpt lat="45.9764" lon="3.44083">
        <ele>294.4</ele>
        <time>2024-04-14T07:45:49Z</time>
      </trkpt>
      <trkpt lat="45.97646" lon="3.44078">
        <ele>294.4</ele>
        <time>2024-04-14T07:45:50Z</time>
      </trkpt>
      <trkpt lat="45.97651" lon="3.44073">
        <ele>294.4</ele>
        <time>2024-04-14T07:45:51Z</time>
      </trkpt>
      <trkpt lat="45.97657" lon="3.44068">
        <ele>294.4</ele>
        <time>2024-04-14T07:45:52Z</time>
      </trkpt>
      <trkpt lat="45.97663" lon="3.44064">
        <ele>294.6</ele>
        <time>2024-04-14T07:45:53Z</time>
      </trkpt>
      <trkpt lat="45.97668" lon="3.4406">
        <ele>294.6</ele>
        <time>2024-04-14T07:45:54Z</time>
      </trkpt>
      <trkpt lat="45.97675" lon="3.44055">
        <ele>294.6</ele>
        <time>2024-04-14T07:45:55Z</time>
      </trkpt>
      <trkpt lat="45.97681" lon="3.44051">
        <ele>294.8</ele>
        <time>2024-04-14T07:45:56Z</time>
      </trkpt>
      <trkpt lat="45.97687" lon="3.44047">
        <ele>294.8</ele>
        <time>2024-04-14T07:45:57Z</time>
      </trkpt>
      <trkpt lat="45.97694" lon="3.44043">
        <ele>295</ele>
        <time>2024-04-14T07:45:58Z</time>
      </trkpt>
      <trkpt lat="45.977" lon="3.44038">
        <ele>295</ele>
        <time>2024-04-14T07:45:59Z</time>
      </trkpt>
      <trkpt lat="45.97706" lon="3.44034">
        <ele>295</ele>
        <time>2024-04-14T07:46:00Z</time>
      </trkpt>
      <trkpt lat="45.97711" lon="3.4403">
        <ele>295.2</ele>
        <time>2024-04-14T07:46:01Z</time>
      </trkpt>
      <trkpt lat="45.97717" lon="3.44025">
        <ele>295.2</ele>
        <time>2024-04-14T07:46:02Z</time>
      </trkpt>
      <trkpt lat="45.97722" lon="3.4402">
        <ele>295.2</ele>
        <time>2024-04-14T07:46:03Z</time>
      </trkpt>
      <trkpt lat="45.97728" lon="3.44015">
        <ele>295.2</ele>
        <time>2024-04-14T07:46:04Z</time>
      </trkpt>
      <trkpt lat="45.97735" lon="3.4401">
        <ele>295.4</ele>
        <time>2024-04-14T07:46:05Z</time>
      </trkpt>
      <trkpt lat="45.97741" lon="3.44004">
        <ele>295.4</ele>
        <time>2024-04-14T07:46:06Z</time>
      </trkpt>
      <trkpt lat="45.97748" lon="3.43998">
        <ele>295.4</ele>
        <time>2024-04-14T07:46:07Z</time>
      </trkpt>
      <trkpt lat="45.97754" lon="3.43993">
        <ele>295.4</ele>
        <time>2024-04-14T07:46:08Z</time>
      </trkpt>
      <trkpt lat="45.9776" lon="3.43987">
        <ele>295.4</ele>
        <time>2024-04-14T07:46:09Z</time>
      </trkpt>
      <trkpt lat="45.97767" lon="3.43981">
        <ele>295.6</ele>
        <time>2024-04-14T07:46:10Z</time>
      </trkpt>
      <trkpt lat="45.97773" lon="3.43976">
        <ele>295.4</ele>
        <time>2024-04-14T07:46:11Z</time>
      </trkpt>
      <trkpt lat="45.9778" lon="3.4397">
        <ele>295.6</ele>
        <time>2024-04-14T07:46:12Z</time>
      </trkpt>
      <trkpt lat="45.97786" lon="3.43965">
        <ele>295.6</ele>
        <time>2024-04-14T07:46:13Z</time>
      </trkpt>
      <trkpt lat="45.97793" lon="3.4396">
        <ele>295.6</ele>
        <time>2024-04-14T07:46:14Z</time>
      </trkpt>
      <trkpt lat="45.978" lon="3.43956">
        <ele>295.6</ele>
        <time>2024-04-14T07:46:15Z</time>
      </trkpt>
      <trkpt lat="45.97807" lon="3.43952">
        <ele>295.6</ele>
        <time>2024-04-14T07:46:16Z</time>
      </trkpt>
      <trkpt lat="45.97815" lon="3.43948">
        <ele>295.6</ele>
        <time>2024-04-14T07:46:17Z</time>
      </trkpt>
      <trkpt lat="45.97822" lon="3.43944">
        <ele>295.8</ele>
        <time>2024-04-14T07:46:18Z</time>
      </trkpt>
      <trkpt lat="45.97829" lon="3.4394">
        <ele>295.8</ele>
        <time>2024-04-14T07:46:19Z</time>
      </trkpt>
      <trkpt lat="45.97836" lon="3.43936">
        <ele>295.8</ele>
        <time>2024-04-14T07:46:20Z</time>
      </trkpt>
      <trkpt lat="45.97844" lon="3.43932">
        <ele>295.8</ele>
        <time>2024-04-14T07:46:21Z</time>
      </trkpt>
      <trkpt lat="45.97851" lon="3.43928">
        <ele>295.8</ele>
        <time>2024-04-14T07:46:22Z</time>
      </trkpt>
      <trkpt lat="45.97859" lon="3.43923">
        <ele>296</ele>
        <time>2024-04-14T07:46:23Z</time>
      </trkpt>
      <trkpt lat="45.97867" lon="3.43919">
        <ele>296</ele>
        <time>2024-04-14T07:46:24Z</time>
      </trkpt>
      <trkpt lat="45.97874" lon="3.43915">
        <ele>296</ele>
        <time>2024-04-14T07:46:25Z</time>
      </trkpt>
      <trkpt lat="45.97882" lon="3.43911">
        <ele>296</ele>
        <time>2024-04-14T07:46:26Z</time>
      </trkpt>
      <trkpt lat="45.97889" lon="3.43906">
        <ele>296.2</ele>
        <time>2024-04-14T07:46:27Z</time>
      </trkpt>
      <trkpt lat="45.97895" lon="3.43899">
        <ele>296.2</ele>
        <time>2024-04-14T07:46:28Z</time>
      </trkpt>
      <trkpt lat="45.97902" lon="3.43893">
        <ele>296.2</ele>
        <time>2024-04-14T07:46:29Z</time>
      </trkpt>
      <trkpt lat="45.97908" lon="3.43886">
        <ele>296.2</ele>
        <time>2024-04-14T07:46:30Z</time>
      </trkpt>
      <trkpt lat="45.97913" lon="3.43877">
        <ele>296.2</ele>
        <time>2024-04-14T07:46:31Z</time>
      </trkpt>
      <trkpt lat="45.97918" lon="3.43868">
        <ele>296.2</ele>
        <time>2024-04-14T07:46:32Z</time>
      </trkpt>
      <trkpt lat="45.97923" lon="3.4386">
        <ele>296.2</ele>
        <time>2024-04-14T07:46:33Z</time>
      </trkpt>
      <trkpt lat="45.97927" lon="3.43852">
        <ele>296.4</ele>
        <time>2024-04-14T07:46:34Z</time>
      </trkpt>
      <trkpt lat="45.97932" lon="3.43844">
        <ele>296.4</ele>
        <time>2024-04-14T07:46:35Z</time>
      </trkpt>
      <trkpt lat="45.97936" lon="3.43836">
        <ele>296.4</ele>
        <time>2024-04-14T07:46:36Z</time>
      </trkpt>
      <trkpt lat="45.9794" lon="3.43828">
        <ele>296.4</ele>
        <time>2024-04-14T07:46:37Z</time>
      </trkpt>
      <trkpt lat="45.97945" lon="3.43821">
        <ele>296.4</ele>
        <time>2024-04-14T07:46:38Z</time>
      </trkpt>
      <trkpt lat="45.97949" lon="3.43813">
        <ele>296.4</ele>
        <time>2024-04-14T07:46:39Z</time>
      </trkpt>
      <trkpt lat="45.97954" lon="3.43805">
        <ele>296.4</ele>
        <time>2024-04-14T07:46:40Z</time>
      </trkpt>
      <trkpt lat="45.97958" lon="3.43798">
        <ele>296.4</ele>
        <time>2024-04-14T07:46:41Z</time>
      </trkpt>
      <trkpt lat="45.97962" lon="3.4379">
        <ele>296.4</ele>
        <time>2024-04-14T07:46:42Z</time>
      </trkpt>
      <trkpt lat="45.97967" lon="3.43783">
        <ele>296.6</ele>
        <time>2024-04-14T07:46:43Z</time>
      </trkpt>
      <trkpt lat="45.97971" lon="3.43775">
        <ele>296.6</ele>
        <time>2024-04-14T07:46:44Z</time>
      </trkpt>
      <trkpt lat="45.97976" lon="3.43767">
        <ele>296.6</ele>
        <time>2024-04-14T07:46:45Z</time>
      </trkpt>
      <trkpt lat="45.9798" lon="3.43759">
        <ele>296.6</ele>
        <time>2024-04-14T07:46:46Z</time>
      </trkpt>
      <trkpt lat="45.97985" lon="3.43751">
        <ele>296.6</ele>
        <time>2024-04-14T07:46:47Z</time>
      </trkpt>
      <trkpt lat="45.97989" lon="3.43743">
        <ele>296.6</ele>
        <time>2024-04-14T07:46:48Z</time>
      </trkpt>
      <trkpt lat="45.97994" lon="3.43736">
        <ele>296.6</ele>
        <time>2024-04-14T07:46:49Z</time>
      </trkpt>
      <trkpt lat="45.97999" lon="3.43729">
        <ele>296.8</ele>
        <time>2024-04-14T07:46:50Z</time>
      </trkpt>
      <trkpt lat="45.98004" lon="3.43722">
        <ele>296.8</ele>
        <time>2024-04-14T07:46:51Z</time>
      </trkpt>
      <trkpt lat="45.98009" lon="3.43715">
        <ele>297</ele>
        <time>2024-04-14T07:46:52Z</time>
      </trkpt>
      <trkpt lat="45.98014" lon="3.43707">
        <ele>297</ele>
        <time>2024-04-14T07:46:53Z</time>
      </trkpt>
      <trkpt lat="45.9802" lon="3.437">
        <ele>297</ele>
        <time>2024-04-14T07:46:54Z</time>
      </trkpt>
      <trkpt lat="45.98025" lon="3.43692">
        <ele>297.2</ele>
        <time>2024-04-14T07:46:55Z</time>
      </trkpt>
      <trkpt lat="45.9803" lon="3.43685">
        <ele>297.2</ele>
        <time>2024-04-14T07:46:56Z</time>
      </trkpt>
      <trkpt lat="45.98035" lon="3.43677">
        <ele>297.2</ele>
        <time>2024-04-14T07:46:57Z</time>
      </trkpt>
      <trkpt lat="45.98041" lon="3.4367">
        <ele>297.2</ele>
        <time>2024-04-14T07:46:58Z</time>
      </trkpt>
      <trkpt lat="45.98046" lon="3.43662">
        <ele>297.4</ele>
        <time>2024-04-14T07:46:59Z</time>
      </trkpt>
      <trkpt lat="45.98051" lon="3.43654">
        <ele>297.4</ele>
        <time>2024-04-14T07:47:00Z</time>
      </trkpt>
      <trkpt lat="45.98056" lon="3.43647">
        <ele>297.4</ele>
        <time>2024-04-14T07:47:01Z</time>
      </trkpt>
      <trkpt lat="45.98062" lon="3.43639">
        <ele>297.4</ele>
        <time>2024-04-14T07:47:02Z</time>
      </trkpt>
      <trkpt lat="45.98067" lon="3.43632">
        <ele>297.6</ele>
        <time>2024-04-14T07:47:03Z</time>
      </trkpt>
      <trkpt lat="45.98072" lon="3.43625">
        <ele>297.6</ele>
        <time>2024-04-14T07:47:04Z</time>
      </trkpt>
      <trkpt lat="45.98077" lon="3.43617">
        <ele>297.6</ele>
        <time>2024-04-14T07:47:05Z</time>
      </trkpt>
      <trkpt lat="45.98082" lon="3.4361">
        <ele>297.6</ele>
        <time>2024-04-14T07:47:06Z</time>
      </trkpt>
      <trkpt lat="45.98088" lon="3.43602">
        <ele>297.6</ele>
        <time>2024-04-14T07:47:07Z</time>
      </trkpt>
      <trkpt lat="45.98093" lon="3.43594">
        <ele>297.6</ele>
        <time>2024-04-14T07:47:08Z</time>
      </trkpt>
      <trkpt lat="45.98098" lon="3.43587">
        <ele>297.6</ele>
        <time>2024-04-14T07:47:09Z</time>
      </trkpt>
      <trkpt lat="45.98103" lon="3.43579">
        <ele>297.6</ele>
        <time>2024-04-14T07:47:10Z</time>
      </trkpt>
      <trkpt lat="45.98109" lon="3.43572">
        <ele>297.6</ele>
        <time>2024-04-14T07:47:11Z</time>
      </trkpt>
      <trkpt lat="45.98114" lon="3.43564">
        <ele>297.6</ele>
        <time>2024-04-14T07:47:12Z</time>
      </trkpt>
      <trkpt lat="45.98119" lon="3.43556">
        <ele>297.8</ele>
        <time>2024-04-14T07:47:13Z</time>
      </trkpt>
      <trkpt lat="45.98125" lon="3.43548">
        <ele>297.8</ele>
        <time>2024-04-14T07:47:14Z</time>
      </trkpt>
      <trkpt lat="45.9813" lon="3.4354">
        <ele>297.8</ele>
        <time>2024-04-14T07:47:15Z</time>
      </trkpt>
      <trkpt lat="45.98136" lon="3.43533">
        <ele>297.8</ele>
        <time>2024-04-14T07:47:16Z</time>
      </trkpt>
      <trkpt lat="45.98141" lon="3.43525">
        <ele>297.8</ele>
        <time>2024-04-14T07:47:17Z</time>
      </trkpt>
      <trkpt lat="45.98147" lon="3.43517">
        <ele>297.8</ele>
        <time>2024-04-14T07:47:18Z</time>
      </trkpt>
      <trkpt lat="45.98153" lon="3.43508">
        <ele>297.6</ele>
        <time>2024-04-14T07:47:19Z</time>
      </trkpt>
      <trkpt lat="45.98158" lon="3.435">
        <ele>297.6</ele>
        <time>2024-04-14T07:47:20Z</time>
      </trkpt>
      <trkpt lat="45.98164" lon="3.43492">
        <ele>297.6</ele>
        <time>2024-04-14T07:47:21Z</time>
      </trkpt>
      <trkpt lat="45.98169" lon="3.43484">
        <ele>297.6</ele>
        <time>2024-04-14T07:47:22Z</time>
      </trkpt>
      <trkpt lat="45.98175" lon="3.43476">
        <ele>298</ele>
        <time>2024-04-14T07:47:23Z</time>
      </trkpt>
      <trkpt lat="45.9818" lon="3.43468">
        <ele>297.4</ele>
        <time>2024-04-14T07:47:24Z</time>
      </trkpt>
      <trkpt lat="45.98186" lon="3.4346">
        <ele>297.2</ele>
        <time>2024-04-14T07:47:25Z</time>
      </trkpt>
      <trkpt lat="45.98192" lon="3.43451">
        <ele>297.4</ele>
        <time>2024-04-14T07:47:26Z</time>
      </trkpt>
      <trkpt lat="45.98198" lon="3.43443">
        <ele>297.2</ele>
        <time>2024-04-14T07:47:27Z</time>
      </trkpt>
      <trkpt lat="45.98205" lon="3.43435">
        <ele>297.2</ele>
        <time>2024-04-14T07:47:28Z</time>
      </trkpt>
      <trkpt lat="45.98212" lon="3.43429">
        <ele>297</ele>
        <time>2024-04-14T07:47:29Z</time>
      </trkpt>
      <trkpt lat="45.9822" lon="3.43424">
        <ele>297</ele>
        <time>2024-04-14T07:47:30Z</time>
      </trkpt>
      <trkpt lat="45.98227" lon="3.43418">
        <ele>297</ele>
        <time>2024-04-14T07:47:31Z</time>
      </trkpt>
      <trkpt lat="45.98234" lon="3.43412">
        <ele>297</ele>
        <time>2024-04-14T07:47:32Z</time>
      </trkpt>
      <trkpt lat="45.98242" lon="3.43406">
        <ele>297</ele>
        <time>2024-04-14T07:47:33Z</time>
      </trkpt>
      <trkpt lat="45.98249" lon="3.434">
        <ele>297</ele>
        <time>2024-04-14T07:47:34Z</time>
      </trkpt>
      <trkpt lat="45.98256" lon="3.43395">
        <ele>297</ele>
        <time>2024-04-14T07:47:35Z</time>
      </trkpt>
      <trkpt lat="45.98263" lon="3.43389">
        <ele>297</ele>
        <time>2024-04-14T07:47:36Z</time>
      </trkpt>
      <trkpt lat="45.9827" lon="3.43383">
        <ele>297</ele>
        <time>2024-04-14T07:47:37Z</time>
      </trkpt>
      <trkpt lat="45.98277" lon="3.43378">
        <ele>297</ele>
        <time>2024-04-14T07:47:38Z</time>
      </trkpt>
      <trkpt lat="45.98284" lon="3.43373">
        <ele>297</ele>
        <time>2024-04-14T07:47:39Z</time>
      </trkpt>
      <trkpt lat="45.9829" lon="3.43367">
        <ele>296.8</ele>
        <time>2024-04-14T07:47:40Z</time>
      </trkpt>
      <trkpt lat="45.98297" lon="3.43362">
        <ele>296.8</ele>
        <time>2024-04-14T07:47:41Z</time>
      </trkpt>
      <trkpt lat="45.98303" lon="3.43357">
        <ele>297</ele>
        <time>2024-04-14T07:47:42Z</time>
      </trkpt>
      <trkpt lat="45.9831" lon="3.43352">
        <ele>297</ele>
        <time>2024-04-14T07:47:43Z</time>
      </trkpt>
      <trkpt lat="45.98316" lon="3.43347">
        <ele>296.8</ele>
        <time>2024-04-14T07:47:44Z</time>
      </trkpt>
      <trkpt lat="45.98323" lon="3.43341">
        <ele>296.8</ele>
        <time>2024-04-14T07:47:45Z</time>
      </trkpt>
      <trkpt lat="45.98329" lon="3.43336">
        <ele>296.8</ele>
        <time>2024-04-14T07:47:46Z</time>
      </trkpt>
      <trkpt lat="45.98335" lon="3.43331">
        <ele>296.8</ele>
        <time>2024-04-14T07:47:47Z</time>
      </trkpt>
      <trkpt lat="45.98342" lon="3.43326">
        <ele>296.8</ele>
        <time>2024-04-14T07:47:48Z</time>
      </trkpt>
      <trkpt lat="45.98348" lon="3.43321">
        <ele>296.8</ele>
        <time>2024-04-14T07:47:49Z</time>
      </trkpt>
      <trkpt lat="45.98355" lon="3.43316">
        <ele>296.8</ele>
        <time>2024-04-14T07:47:50Z</time>
      </trkpt>
      <trkpt lat="45.98361" lon="3.4331">
        <ele>296.8</ele>
        <time>2024-04-14T07:47:51Z</time>
      </trkpt>
      <trkpt lat="45.98368" lon="3.43305">
        <ele>296.8</ele>
        <time>2024-04-14T07:47:52Z</time>
      </trkpt>
      <trkpt lat="45.98375" lon="3.433">
        <ele>296.8</ele>
        <time>2024-04-14T07:47:53Z</time>
      </trkpt>
      <trkpt lat="45.98381" lon="3.43294">
        <ele>296.8</ele>
        <time>2024-04-14T07:47:54Z</time>
      </trkpt>
      <trkpt lat="45.98388" lon="3.43289">
        <ele>296.8</ele>
        <time>2024-04-14T07:47:55Z</time>
      </trkpt>
      <trkpt lat="45.98395" lon="3.43284">
        <ele>296.8</ele>
        <time>2024-04-14T07:47:56Z</time>
      </trkpt>
      <trkpt lat="45.98402" lon="3.43278">
        <ele>296.8</ele>
        <time>2024-04-14T07:47:57Z</time>
      </trkpt>
      <trkpt lat="45.98409" lon="3.43272">
        <ele>296.8</ele>
        <time>2024-04-14T07:47:58Z</time>
      </trkpt>
      <trkpt lat="45.98417" lon="3.43266">
        <ele>296.8</ele>
        <time>2024-04-14T07:47:59Z</time>
      </trkpt>
      <trkpt lat="45.98424" lon="3.4326">
        <ele>296.8</ele>
        <time>2024-04-14T07:48:00Z</time>
      </trkpt>
      <trkpt lat="45.98432" lon="3.43254">
        <ele>296.6</ele>
        <time>2024-04-14T07:48:01Z</time>
      </trkpt>
      <trkpt lat="45.98439" lon="3.43248">
        <ele>296.6</ele>
        <time>2024-04-14T07:48:02Z</time>
      </trkpt>
      <trkpt lat="45.98447" lon="3.43242">
        <ele>296.6</ele>
        <time>2024-04-14T07:48:03Z</time>
      </trkpt>
      <trkpt lat="45.98455" lon="3.43236">
        <ele>296.6</ele>
        <time>2024-04-14T07:48:04Z</time>
      </trkpt>
      <trkpt lat="45.98462" lon="3.4323">
        <ele>296.6</ele>
        <time>2024-04-14T07:48:05Z</time>
      </trkpt>
      <trkpt lat="45.9847" lon="3.43223">
        <ele>296.4</ele>
        <time>2024-04-14T07:48:06Z</time>
      </trkpt>
      <trkpt lat="45.98478" lon="3.43217">
        <ele>296.4</ele>
        <time>2024-04-14T07:48:07Z</time>
      </trkpt>
      <trkpt lat="45.98486" lon="3.43211">
        <ele>296.4</ele>
        <time>2024-04-14T07:48:08Z</time>
      </trkpt>
      <trkpt lat="45.98493" lon="3.43205">
        <ele>296.4</ele>
        <time>2024-04-14T07:48:09Z</time>
      </trkpt>
      <trkpt lat="45.98501" lon="3.43199">
        <ele>296.4</ele>
        <time>2024-04-14T07:48:10Z</time>
      </trkpt>
      <trkpt lat="45.98509" lon="3.43193">
        <ele>296.2</ele>
        <time>2024-04-14T07:48:11Z</time>
      </trkpt>
      <trkpt lat="45.98516" lon="3.43187">
        <ele>296.2</ele>
        <time>2024-04-14T07:48:12Z</time>
      </trkpt>
      <trkpt lat="45.98524" lon="3.43181">
        <ele>296.2</ele>
        <time>2024-04-14T07:48:13Z</time>
      </trkpt>
      <trkpt lat="45.98531" lon="3.43175">
        <ele>296.2</ele>
        <time>2024-04-14T07:48:14Z</time>
      </trkpt>
      <trkpt lat="45.98538" lon="3.43169">
        <ele>296</ele>
        <time>2024-04-14T07:48:15Z</time>
      </trkpt>
      <trkpt lat="45.98545" lon="3.43164">
        <ele>296</ele>
        <time>2024-04-14T07:48:16Z</time>
      </trkpt>
      <trkpt lat="45.98552" lon="3.43158">
        <ele>295.8</ele>
        <time>2024-04-14T07:48:17Z</time>
      </trkpt>
      <trkpt lat="45.9856" lon="3.43152">
        <ele>295.8</ele>
        <time>2024-04-14T07:48:18Z</time>
      </trkpt>
      <trkpt lat="45.98567" lon="3.43147">
        <ele>295.6</ele>
        <time>2024-04-14T07:48:19Z</time>
      </trkpt>
      <trkpt lat="45.98574" lon="3.43141">
        <ele>295.6</ele>
        <time>2024-04-14T07:48:20Z</time>
      </trkpt>
      <trkpt lat="45.98581" lon="3.43136">
        <ele>295.6</ele>
        <time>2024-04-14T07:48:21Z</time>
      </trkpt>
      <trkpt lat="45.98589" lon="3.4313">
        <ele>295.4</ele>
        <time>2024-04-14T07:48:22Z</time>
      </trkpt>
      <trkpt lat="45.98596" lon="3.43124">
        <ele>295.4</ele>
        <time>2024-04-14T07:48:23Z</time>
      </trkpt>
      <trkpt lat="45.98603" lon="3.43118">
        <ele>295.2</ele>
        <time>2024-04-14T07:48:24Z</time>
      </trkpt>
      <trkpt lat="45.98611" lon="3.43113">
        <ele>295</ele>
        <time>2024-04-14T07:48:25Z</time>
      </trkpt>
      <trkpt lat="45.98618" lon="3.43107">
        <ele>295</ele>
        <time>2024-04-14T07:48:26Z</time>
      </trkpt>
      <trkpt lat="45.98625" lon="3.43101">
        <ele>294.8</ele>
        <time>2024-04-14T07:48:27Z</time>
      </trkpt>
      <trkpt lat="45.98632" lon="3.43096">
        <ele>294.6</ele>
        <time>2024-04-14T07:48:28Z</time>
      </trkpt>
      <trkpt lat="45.98639" lon="3.4309">
        <ele>294.4</ele>
        <time>2024-04-14T07:48:29Z</time>
      </trkpt>
      <trkpt lat="45.98646" lon="3.43085">
        <ele>294.4</ele>
        <time>2024-04-14T07:48:30Z</time>
      </trkpt>
      <trkpt lat="45.98653" lon="3.43079">
        <ele>294.2</ele>
        <time>2024-04-14T07:48:31Z</time>
      </trkpt>
      <trkpt lat="45.9866" lon="3.43074">
        <ele>294</ele>
        <time>2024-04-14T07:48:32Z</time>
      </trkpt>
      <trkpt lat="45.98667" lon="3.43069">
        <ele>294</ele>
        <time>2024-04-14T07:48:33Z</time>
      </trkpt>
      <trkpt lat="45.98674" lon="3.43063">
        <ele>293.8</ele>
        <time>2024-04-14T07:48:34Z</time>
      </trkpt>
      <trkpt lat="45.98681" lon="3.43058">
        <ele>293.6</ele>
        <time>2024-04-14T07:48:35Z</time>
      </trkpt>
      <trkpt lat="45.98688" lon="3.43052">
        <ele>293.6</ele>
        <time>2024-04-14T07:48:36Z</time>
      </trkpt>
      <trkpt lat="45.98695" lon="3.43046">
        <ele>293.6</ele>
        <time>2024-04-14T07:48:37Z</time>
      </trkpt>
      <trkpt lat="45.98702" lon="3.43041">
        <ele>293.4</ele>
        <time>2024-04-14T07:48:38Z</time>
      </trkpt>
      <trkpt lat="45.98709" lon="3.43036">
        <ele>293.4</ele>
        <time>2024-04-14T07:48:39Z</time>
      </trkpt>
      <trkpt lat="45.98715" lon="3.43031">
        <ele>293.4</ele>
        <time>2024-04-14T07:48:40Z</time>
      </trkpt>
      <trkpt lat="45.98721" lon="3.43026">
        <ele>293.4</ele>
        <time>2024-04-14T07:48:41Z</time>
      </trkpt>
      <trkpt lat="45.98728" lon="3.43021">
        <ele>293.2</ele>
        <time>2024-04-14T07:48:42Z</time>
      </trkpt>
      <trkpt lat="45.98734" lon="3.43016">
        <ele>293.2</ele>
        <time>2024-04-14T07:48:43Z</time>
      </trkpt>
      <trkpt lat="45.9874" lon="3.43011">
        <ele>293.2</ele>
        <time>2024-04-14T07:48:44Z</time>
      </trkpt>
      <trkpt lat="45.98747" lon="3.43006">
        <ele>293.2</ele>
        <time>2024-04-14T07:48:45Z</time>
      </trkpt>
      <trkpt lat="45.98753" lon="3.43001">
        <ele>293.2</ele>
        <time>2024-04-14T07:48:46Z</time>
      </trkpt>
      <trkpt lat="45.98759" lon="3.42996">
        <ele>293.2</ele>
        <time>2024-04-14T07:48:47Z</time>
      </trkpt>
      <trkpt lat="45.98766" lon="3.42991">
        <ele>293.2</ele>
        <time>2024-04-14T07:48:48Z</time>
      </trkpt>
      <trkpt lat="45.98772" lon="3.42986">
        <ele>293.2</ele>
        <time>2024-04-14T07:48:49Z</time>
      </trkpt>
      <trkpt lat="45.98779" lon="3.42981">
        <ele>293.2</ele>
        <time>2024-04-14T07:48:50Z</time>
      </trkpt>
      <trkpt lat="45.98785" lon="3.42976">
        <ele>293.2</ele>
        <time>2024-04-14T07:48:51Z</time>
      </trkpt>
      <trkpt lat="45.98792" lon="3.42971">
        <ele>293.2</ele>
        <time>2024-04-14T07:48:52Z</time>
      </trkpt>
      <trkpt lat="45.98798" lon="3.42966">
        <ele>293.2</ele>
        <time>2024-04-14T07:48:53Z</time>
      </trkpt>
      <trkpt lat="45.98805" lon="3.42961">
        <ele>293.2</ele>
        <time>2024-04-14T07:48:54Z</time>
      </trkpt>
      <trkpt lat="45.98811" lon="3.42956">
        <ele>293.2</ele>
        <time>2024-04-14T07:48:55Z</time>
      </trkpt>
      <trkpt lat="45.98817" lon="3.42951">
        <ele>293.4</ele>
        <time>2024-04-14T07:48:56Z</time>
      </trkpt>
      <trkpt lat="45.98823" lon="3.42946">
        <ele>293.4</ele>
        <time>2024-04-14T07:48:57Z</time>
      </trkpt>
      <trkpt lat="45.98829" lon="3.42941">
        <ele>292.8</ele>
        <time>2024-04-14T07:48:58Z</time>
      </trkpt>
      <trkpt lat="45.98836" lon="3.42936">
        <ele>293.2</ele>
        <time>2024-04-14T07:48:59Z</time>
      </trkpt>
      <trkpt lat="45.98842" lon="3.42931">
        <ele>293.8</ele>
        <time>2024-04-14T07:49:00Z</time>
      </trkpt>
      <trkpt lat="45.98848" lon="3.42927">
        <ele>294</ele>
        <time>2024-04-14T07:49:01Z</time>
      </trkpt>
      <trkpt lat="45.98854" lon="3.42922">
        <ele>294</ele>
        <time>2024-04-14T07:49:02Z</time>
      </trkpt>
      <trkpt lat="45.9886" lon="3.42917">
        <ele>294.2</ele>
        <time>2024-04-14T07:49:03Z</time>
      </trkpt>
      <trkpt lat="45.98867" lon="3.42912">
        <ele>294.4</ele>
        <time>2024-04-14T07:49:04Z</time>
      </trkpt>
      <trkpt lat="45.98873" lon="3.42908">
        <ele>293.6</ele>
        <time>2024-04-14T07:49:05Z</time>
      </trkpt>
      <trkpt lat="45.98879" lon="3.42903">
        <ele>293.8</ele>
        <time>2024-04-14T07:49:06Z</time>
      </trkpt>
      <trkpt lat="45.98885" lon="3.42898">
        <ele>293.8</ele>
        <time>2024-04-14T07:49:07Z</time>
      </trkpt>
      <trkpt lat="45.98891" lon="3.42891">
        <ele>293.8</ele>
        <time>2024-04-14T07:49:08Z</time>
      </trkpt>
      <trkpt lat="45.98895" lon="3.42884">
        <ele>293.8</ele>
        <time>2024-04-14T07:49:09Z</time>
      </trkpt>
      <trkpt lat="45.98899" lon="3.42877">
        <ele>293.8</ele>
        <time>2024-04-14T07:49:10Z</time>
      </trkpt>
      <trkpt lat="45.98904" lon="3.4287">
        <ele>293.6</ele>
        <time>2024-04-14T07:49:11Z</time>
      </trkpt>
      <trkpt lat="45.98909" lon="3.42863">
        <ele>293.6</ele>
        <time>2024-04-14T07:49:12Z</time>
      </trkpt>
      <trkpt lat="45.98913" lon="3.42856">
        <ele>293.6</ele>
        <time>2024-04-14T07:49:13Z</time>
      </trkpt>
      <trkpt lat="45.98918" lon="3.42843">
        <ele>293.6</ele>
        <time>2024-04-14T07:49:14Z</time>
      </trkpt>
      <trkpt lat="45.98917" lon="3.42833">
        <ele>293.6</ele>
        <time>2024-04-14T07:49:15Z</time>
      </trkpt>
      <trkpt lat="45.98916" lon="3.42823">
        <ele>293.6</ele>
        <time>2024-04-14T07:49:16Z</time>
      </trkpt>
      <trkpt lat="45.98916" lon="3.42814">
        <ele>293.8</ele>
        <time>2024-04-14T07:49:17Z</time>
      </trkpt>
      <trkpt lat="45.98915" lon="3.42803">
        <ele>293.8</ele>
        <time>2024-04-14T07:49:18Z</time>
      </trkpt>
      <trkpt lat="45.98913" lon="3.42795">
        <ele>293.8</ele>
        <time>2024-04-14T07:49:19Z</time>
      </trkpt>
      <trkpt lat="45.98911" lon="3.42786">
        <ele>293.8</ele>
        <time>2024-04-14T07:49:20Z</time>
      </trkpt>
      <trkpt lat="45.98909" lon="3.42776">
        <ele>293.8</ele>
        <time>2024-04-14T07:49:21Z</time>
      </trkpt>
      <trkpt lat="45.98907" lon="3.42767">
        <ele>293.8</ele>
        <time>2024-04-14T07:49:22Z</time>
      </trkpt>
      <trkpt lat="45.98905" lon="3.42757">
        <ele>293.8</ele>
        <time>2024-04-14T07:49:23Z</time>
      </trkpt>
      <trkpt lat="45.98903" lon="3.42747">
        <ele>293.8</ele>
        <time>2024-04-14T07:49:24Z</time>
      </trkpt>
      <trkpt lat="45.98901" lon="3.42738">
        <ele>293.8</ele>
        <time>2024-04-14T07:49:25Z</time>
      </trkpt>
      <trkpt lat="45.98898" lon="3.42728">
        <ele>293.8</ele>
        <time>2024-04-14T07:49:26Z</time>
      </trkpt>
      <trkpt lat="45.98896" lon="3.42719">
        <ele>293.8</ele>
        <time>2024-04-14T07:49:27Z</time>
      </trkpt>
      <trkpt lat="45.98894" lon="3.42709">
        <ele>294</ele>
        <time>2024-04-14T07:49:28Z</time>
      </trkpt>
      <trkpt lat="45.98892" lon="3.427">
        <ele>294</ele>
        <time>2024-04-14T07:49:29Z</time>
      </trkpt>
      <trkpt lat="45.9889" lon="3.4269">
        <ele>294</ele>
        <time>2024-04-14T07:49:30Z</time>
      </trkpt>
      <trkpt lat="45.98888" lon="3.4268">
        <ele>294</ele>
        <time>2024-04-14T07:49:31Z</time>
      </trkpt>
      <trkpt lat="45.98886" lon="3.42671">
        <ele>294.2</ele>
        <time>2024-04-14T07:49:32Z</time>
      </trkpt>
      <trkpt lat="45.98884" lon="3.42661">
        <ele>294.2</ele>
        <time>2024-04-14T07:49:33Z</time>
      </trkpt>
      <trkpt lat="45.98882" lon="3.42652">
        <ele>294.2</ele>
        <time>2024-04-14T07:49:34Z</time>
      </trkpt>
      <trkpt lat="45.98879" lon="3.42642">
        <ele>294.4</ele>
        <time>2024-04-14T07:49:35Z</time>
      </trkpt>
      <trkpt lat="45.98877" lon="3.42632">
        <ele>294.4</ele>
        <time>2024-04-14T07:49:36Z</time>
      </trkpt>
      <trkpt lat="45.98875" lon="3.42623">
        <ele>294.4</ele>
        <time>2024-04-14T07:49:37Z</time>
      </trkpt>
      <trkpt lat="45.98873" lon="3.42613">
        <ele>294.6</ele>
        <time>2024-04-14T07:49:38Z</time>
      </trkpt>
      <trkpt lat="45.98871" lon="3.42604">
        <ele>294.8</ele>
        <time>2024-04-14T07:49:39Z</time>
      </trkpt>
      <trkpt lat="45.98869" lon="3.42594">
        <ele>295</ele>
        <time>2024-04-14T07:49:40Z</time>
      </trkpt>
      <trkpt lat="45.98867" lon="3.42584">
        <ele>295.2</ele>
        <time>2024-04-14T07:49:41Z</time>
      </trkpt>
      <trkpt lat="45.98866" lon="3.42574">
        <ele>295.4</ele>
        <time>2024-04-14T07:49:42Z</time>
      </trkpt>
      <trkpt lat="45.98864" lon="3.42564">
        <ele>295.6</ele>
        <time>2024-04-14T07:49:43Z</time>
      </trkpt>
      <trkpt lat="45.98862" lon="3.42554">
        <ele>295.8</ele>
        <time>2024-04-14T07:49:44Z</time>
      </trkpt>
      <trkpt lat="45.9886" lon="3.42544">
        <ele>296</ele>
        <time>2024-04-14T07:49:45Z</time>
      </trkpt>
      <trkpt lat="45.98858" lon="3.42533">
        <ele>296</ele>
        <time>2024-04-14T07:49:46Z</time>
      </trkpt>
      <trkpt lat="45.98857" lon="3.42523">
        <ele>296.2</ele>
        <time>2024-04-14T07:49:47Z</time>
      </trkpt>
      <trkpt lat="45.98855" lon="3.42512">
        <ele>296.4</ele>
        <time>2024-04-14T07:49:48Z</time>
      </trkpt>
      <trkpt lat="45.98853" lon="3.42502">
        <ele>296.6</ele>
        <time>2024-04-14T07:49:49Z</time>
      </trkpt>
      <trkpt lat="45.98851" lon="3.42491">
        <ele>296.6</ele>
        <time>2024-04-14T07:49:50Z</time>
      </trkpt>
      <trkpt lat="45.98849" lon="3.42481">
        <ele>296.6</ele>
        <time>2024-04-14T07:49:51Z</time>
      </trkpt>
      <trkpt lat="45.98847" lon="3.42471">
        <ele>296.8</ele>
        <time>2024-04-14T07:49:52Z</time>
      </trkpt>
      <trkpt lat="45.98847" lon="3.4246">
        <ele>297</ele>
        <time>2024-04-14T07:49:53Z</time>
      </trkpt>
      <trkpt lat="45.98847" lon="3.42449">
        <ele>297</ele>
        <time>2024-04-14T07:49:54Z</time>
      </trkpt>
      <trkpt lat="45.98847" lon="3.42439">
        <ele>297</ele>
        <time>2024-04-14T07:49:55Z</time>
      </trkpt>
      <trkpt lat="45.98851" lon="3.42427">
        <ele>297.2</ele>
        <time>2024-04-14T07:49:56Z</time>
      </trkpt>
      <trkpt lat="45.98857" lon="3.4242">
        <ele>297.2</ele>
        <time>2024-04-14T07:49:57Z</time>
      </trkpt>
      <trkpt lat="45.98862" lon="3.42413">
        <ele>297.2</ele>
        <time>2024-04-14T07:49:58Z</time>
      </trkpt>
      <trkpt lat="45.98868" lon="3.42406">
        <ele>297.4</ele>
        <time>2024-04-14T07:49:59Z</time>
      </trkpt>
      <trkpt lat="45.98873" lon="3.424">
        <ele>297.4</ele>
        <time>2024-04-14T07:50:00Z</time>
      </trkpt>
      <trkpt lat="45.98882" lon="3.42396">
        <ele>297.4</ele>
        <time>2024-04-14T07:50:01Z</time>
      </trkpt>
      <trkpt lat="45.98889" lon="3.42395">
        <ele>297.6</ele>
        <time>2024-04-14T07:50:02Z</time>
      </trkpt>
      <trkpt lat="45.98896" lon="3.42394">
        <ele>297.8</ele>
        <time>2024-04-14T07:50:03Z</time>
      </trkpt>
      <trkpt lat="45.98903" lon="3.42392">
        <ele>297.8</ele>
        <time>2024-04-14T07:50:04Z</time>
      </trkpt>
      <trkpt lat="45.9891" lon="3.42391">
        <ele>298</ele>
        <time>2024-04-14T07:50:05Z</time>
      </trkpt>
      <trkpt lat="45.98917" lon="3.42389">
        <ele>298</ele>
        <time>2024-04-14T07:50:06Z</time>
      </trkpt>
      <trkpt lat="45.98923" lon="3.42388">
        <ele>298.2</ele>
        <time>2024-04-14T07:50:07Z</time>
      </trkpt>
      <trkpt lat="45.9893" lon="3.42387">
        <ele>298.4</ele>
        <time>2024-04-14T07:50:08Z</time>
      </trkpt>
      <trkpt lat="45.98936" lon="3.42385">
        <ele>298.6</ele>
        <time>2024-04-14T07:50:09Z</time>
      </trkpt>
      <trkpt lat="45.98942" lon="3.42382">
        <ele>298.8</ele>
        <time>2024-04-14T07:50:10Z</time>
      </trkpt>
      <trkpt lat="45.98947" lon="3.42379">
        <ele>298.8</ele>
        <time>2024-04-14T07:50:11Z</time>
      </trkpt>
      <trkpt lat="45.98952" lon="3.42376">
        <ele>299</ele>
        <time>2024-04-14T07:50:12Z</time>
      </trkpt>
      <trkpt lat="45.98958" lon="3.42373">
        <ele>299.2</ele>
        <time>2024-04-14T07:50:13Z</time>
      </trkpt>
      <trkpt lat="45.98964" lon="3.4237">
        <ele>299.4</ele>
        <time>2024-04-14T07:50:14Z</time>
      </trkpt>
      <trkpt lat="45.98969" lon="3.42366">
        <ele>299.6</ele>
        <time>2024-04-14T07:50:15Z</time>
      </trkpt>
      <trkpt lat="45.98974" lon="3.42362">
        <ele>299.6</ele>
        <time>2024-04-14T07:50:16Z</time>
      </trkpt>
      <trkpt lat="45.98978" lon="3.42357">
        <ele>299.8</ele>
        <time>2024-04-14T07:50:17Z</time>
      </trkpt>
      <trkpt lat="45.98983" lon="3.42353">
        <ele>300</ele>
        <time>2024-04-14T07:50:18Z</time>
      </trkpt>
      <trkpt lat="45.98988" lon="3.42348">
        <ele>300.2</ele>
        <time>2024-04-14T07:50:19Z</time>
      </trkpt>
      <trkpt lat="45.98993" lon="3.42343">
        <ele>300.2</ele>
        <time>2024-04-14T07:50:20Z</time>
      </trkpt>
      <trkpt lat="45.98998" lon="3.42339">
        <ele>300.4</ele>
        <time>2024-04-14T07:50:21Z</time>
      </trkpt>
      <trkpt lat="45.99003" lon="3.42334">
        <ele>300.6</ele>
        <time>2024-04-14T07:50:22Z</time>
      </trkpt>
      <trkpt lat="45.99008" lon="3.42328">
        <ele>300.8</ele>
        <time>2024-04-14T07:50:23Z</time>
      </trkpt>
      <trkpt lat="45.99011" lon="3.42322">
        <ele>300.8</ele>
        <time>2024-04-14T07:50:24Z</time>
      </trkpt>
      <trkpt lat="45.99015" lon="3.42315">
        <ele>301</ele>
        <time>2024-04-14T07:50:25Z</time>
      </trkpt>
      <trkpt lat="45.99019" lon="3.42308">
        <ele>301.2</ele>
        <time>2024-04-14T07:50:26Z</time>
      </trkpt>
      <trkpt lat="45.99023" lon="3.42301">
        <ele>301.4</ele>
        <time>2024-04-14T07:50:27Z</time>
      </trkpt>
      <trkpt lat="45.99027" lon="3.42295">
        <ele>301.6</ele>
        <time>2024-04-14T07:50:28Z</time>
      </trkpt>
      <trkpt lat="45.99031" lon="3.42288">
        <ele>301.6</ele>
        <time>2024-04-14T07:50:29Z</time>
      </trkpt>
      <trkpt lat="45.99035" lon="3.42281">
        <ele>301.8</ele>
        <time>2024-04-14T07:50:30Z</time>
      </trkpt>
      <trkpt lat="45.99038" lon="3.42273">
        <ele>302</ele>
        <time>2024-04-14T07:50:31Z</time>
      </trkpt>
      <trkpt lat="45.99041" lon="3.42265">
        <ele>302.2</ele>
        <time>2024-04-14T07:50:32Z</time>
      </trkpt>
      <trkpt lat="45.99043" lon="3.42257">
        <ele>302.4</ele>
        <time>2024-04-14T07:50:33Z</time>
      </trkpt>
      <trkpt lat="45.99046" lon="3.4225">
        <ele>302.4</ele>
        <time>2024-04-14T07:50:34Z</time>
      </trkpt>
      <trkpt lat="45.99048" lon="3.42242">
        <ele>302.6</ele>
        <time>2024-04-14T07:50:35Z</time>
      </trkpt>
      <trkpt lat="45.9905" lon="3.42234">
        <ele>302.8</ele>
        <time>2024-04-14T07:50:36Z</time>
      </trkpt>
      <trkpt lat="45.99051" lon="3.42225">
        <ele>303</ele>
        <time>2024-04-14T07:50:37Z</time>
      </trkpt>
      <trkpt lat="45.99052" lon="3.42217">
        <ele>303.2</ele>
        <time>2024-04-14T07:50:38Z</time>
      </trkpt>
      <trkpt lat="45.99054" lon="3.42208">
        <ele>303.4</ele>
        <time>2024-04-14T07:50:39Z</time>
      </trkpt>
      <trkpt lat="45.99055" lon="3.42199">
        <ele>303.6</ele>
        <time>2024-04-14T07:50:40Z</time>
      </trkpt>
      <trkpt lat="45.99057" lon="3.42189">
        <ele>303.8</ele>
        <time>2024-04-14T07:50:41Z</time>
      </trkpt>
      <trkpt lat="45.99058" lon="3.4218">
        <ele>304</ele>
        <time>2024-04-14T07:50:42Z</time>
      </trkpt>
      <trkpt lat="45.99059" lon="3.42171">
        <ele>304</ele>
        <time>2024-04-14T07:50:43Z</time>
      </trkpt>
      <trkpt lat="45.99061" lon="3.42161">
        <ele>304.2</ele>
        <time>2024-04-14T07:50:44Z</time>
      </trkpt>
      <trkpt lat="45.99062" lon="3.42151">
        <ele>304.4</ele>
        <time>2024-04-14T07:50:45Z</time>
      </trkpt>
      <trkpt lat="45.99064" lon="3.42142">
        <ele>304.6</ele>
        <time>2024-04-14T07:50:46Z</time>
      </trkpt>
      <trkpt lat="45.99065" lon="3.42132">
        <ele>304.6</ele>
        <time>2024-04-14T07:50:47Z</time>
      </trkpt>
      <trkpt lat="45.99067" lon="3.42122">
        <ele>304.8</ele>
        <time>2024-04-14T07:50:48Z</time>
      </trkpt>
      <trkpt lat="45.99068" lon="3.42112">
        <ele>305</ele>
        <time>2024-04-14T07:50:49Z</time>
      </trkpt>
      <trkpt lat="45.9907" lon="3.42102">
        <ele>305</ele>
        <time>2024-04-14T07:50:50Z</time>
      </trkpt>
      <trkpt lat="45.99072" lon="3.42091">
        <ele>305.2</ele>
        <time>2024-04-14T07:50:51Z</time>
      </trkpt>
      <trkpt lat="45.99074" lon="3.42082">
        <ele>305.2</ele>
        <time>2024-04-14T07:50:52Z</time>
      </trkpt>
      <trkpt lat="45.99078" lon="3.42072">
        <ele>305.4</ele>
        <time>2024-04-14T07:50:53Z</time>
      </trkpt>
      <trkpt lat="45.99083" lon="3.42062">
        <ele>305.4</ele>
        <time>2024-04-14T07:50:54Z</time>
      </trkpt>
      <trkpt lat="45.99087" lon="3.42052">
        <ele>305.6</ele>
        <time>2024-04-14T07:50:55Z</time>
      </trkpt>
      <trkpt lat="45.99092" lon="3.42044">
        <ele>305.6</ele>
        <time>2024-04-14T07:50:56Z</time>
      </trkpt>
      <trkpt lat="45.99098" lon="3.42037">
        <ele>305.6</ele>
        <time>2024-04-14T07:50:57Z</time>
      </trkpt>
      <trkpt lat="45.99103" lon="3.42031">
        <ele>305.8</ele>
        <time>2024-04-14T07:50:58Z</time>
      </trkpt>
      <trkpt lat="45.99109" lon="3.42025">
        <ele>305.8</ele>
        <time>2024-04-14T07:50:59Z</time>
      </trkpt>
      <trkpt lat="45.99115" lon="3.42019">
        <ele>306</ele>
        <time>2024-04-14T07:51:00Z</time>
      </trkpt>
      <trkpt lat="45.9912" lon="3.42013">
        <ele>306.2</ele>
        <time>2024-04-14T07:51:01Z</time>
      </trkpt>
      <trkpt lat="45.99126" lon="3.42007">
        <ele>306.2</ele>
        <time>2024-04-14T07:51:02Z</time>
      </trkpt>
      <trkpt lat="45.99131" lon="3.42001">
        <ele>306.4</ele>
        <time>2024-04-14T07:51:03Z</time>
      </trkpt>
      <trkpt lat="45.99137" lon="3.41995">
        <ele>306.4</ele>
        <time>2024-04-14T07:51:04Z</time>
      </trkpt>
      <trkpt lat="45.99143" lon="3.41988">
        <ele>306.6</ele>
        <time>2024-04-14T07:51:05Z</time>
      </trkpt>
      <trkpt lat="45.9915" lon="3.41985">
        <ele>306.8</ele>
        <time>2024-04-14T07:51:06Z</time>
      </trkpt>
      <trkpt lat="45.99157" lon="3.41982">
        <ele>306.8</ele>
        <time>2024-04-14T07:51:07Z</time>
      </trkpt>
      <trkpt lat="45.99165" lon="3.41978">
        <ele>306.8</ele>
        <time>2024-04-14T07:51:08Z</time>
      </trkpt>
      <trkpt lat="45.99173" lon="3.41977">
        <ele>306.8</ele>
        <time>2024-04-14T07:51:09Z</time>
      </trkpt>
      <trkpt lat="45.99181" lon="3.41976">
        <ele>307</ele>
        <time>2024-04-14T07:51:10Z</time>
      </trkpt>
      <trkpt lat="45.99189" lon="3.41976">
        <ele>307</ele>
        <time>2024-04-14T07:51:11Z</time>
      </trkpt>
      <trkpt lat="45.99198" lon="3.41975">
        <ele>307</ele>
        <time>2024-04-14T07:51:12Z</time>
      </trkpt>
      <trkpt lat="45.99206" lon="3.41978">
        <ele>307.2</ele>
        <time>2024-04-14T07:51:13Z</time>
      </trkpt>
      <trkpt lat="45.99215" lon="3.41981">
        <ele>307.2</ele>
        <time>2024-04-14T07:51:14Z</time>
      </trkpt>
      <trkpt lat="45.99223" lon="3.41983">
        <ele>307.2</ele>
        <time>2024-04-14T07:51:15Z</time>
      </trkpt>
      <trkpt lat="45.99233" lon="3.41988">
        <ele>307.4</ele>
        <time>2024-04-14T07:51:16Z</time>
      </trkpt>
      <trkpt lat="45.9924" lon="3.41995">
        <ele>307.4</ele>
        <time>2024-04-14T07:51:17Z</time>
      </trkpt>
      <trkpt lat="45.99248" lon="3.42002">
        <ele>307.4</ele>
        <time>2024-04-14T07:51:18Z</time>
      </trkpt>
      <trkpt lat="45.99255" lon="3.42009">
        <ele>307.4</ele>
        <time>2024-04-14T07:51:19Z</time>
      </trkpt>
      <trkpt lat="45.99262" lon="3.42015">
        <ele>307.4</ele>
        <time>2024-04-14T07:51:20Z</time>
      </trkpt>
      <trkpt lat="45.99269" lon="3.42022">
        <ele>307.6</ele>
        <time>2024-04-14T07:51:21Z</time>
      </trkpt>
      <trkpt lat="45.99276" lon="3.42029">
        <ele>307.6</ele>
        <time>2024-04-14T07:51:22Z</time>
      </trkpt>
      <trkpt lat="45.99284" lon="3.42033">
        <ele>307.6</ele>
        <time>2024-04-14T07:51:23Z</time>
      </trkpt>
      <trkpt lat="45.99292" lon="3.42038">
        <ele>307.6</ele>
        <time>2024-04-14T07:51:24Z</time>
      </trkpt>
      <trkpt lat="45.993" lon="3.4204">
        <ele>307.6</ele>
        <time>2024-04-14T07:51:25Z</time>
      </trkpt>
      <trkpt lat="45.99309" lon="3.42041">
        <ele>307.6</ele>
        <time>2024-04-14T07:51:26Z</time>
      </trkpt>
      <trkpt lat="45.99318" lon="3.42041">
        <ele>307.6</ele>
        <time>2024-04-14T07:51:27Z</time>
      </trkpt>
      <trkpt lat="45.99327" lon="3.42041">
        <ele>307.6</ele>
        <time>2024-04-14T07:51:28Z</time>
      </trkpt>
      <trkpt lat="45.99336" lon="3.4204">
        <ele>307.6</ele>
        <time>2024-04-14T07:51:29Z</time>
      </trkpt>
      <trkpt lat="45.99345" lon="3.42036">
        <ele>307.8</ele>
        <time>2024-04-14T07:51:30Z</time>
      </trkpt>
      <trkpt lat="45.99353" lon="3.42032">
        <ele>307.6</ele>
        <time>2024-04-14T07:51:31Z</time>
      </trkpt>
      <trkpt lat="45.99362" lon="3.42028">
        <ele>307.6</ele>
        <time>2024-04-14T07:51:32Z</time>
      </trkpt>
      <trkpt lat="45.99371" lon="3.42023">
        <ele>307.6</ele>
        <time>2024-04-14T07:51:33Z</time>
      </trkpt>
      <trkpt lat="45.9938" lon="3.42019">
        <ele>307.6</ele>
        <time>2024-04-14T07:51:34Z</time>
      </trkpt>
      <trkpt lat="45.99387" lon="3.42012">
        <ele>307.4</ele>
        <time>2024-04-14T07:51:35Z</time>
      </trkpt>
      <trkpt lat="45.99395" lon="3.42004">
        <ele>307.4</ele>
        <time>2024-04-14T07:51:36Z</time>
      </trkpt>
      <trkpt lat="45.99402" lon="3.41997">
        <ele>308</ele>
        <time>2024-04-14T07:51:37Z</time>
      </trkpt>
      <trkpt lat="45.99409" lon="3.4199">
        <ele>307.6</ele>
        <time>2024-04-14T07:51:38Z</time>
      </trkpt>
      <trkpt lat="45.99416" lon="3.41984">
        <ele>307.6</ele>
        <time>2024-04-14T07:51:39Z</time>
      </trkpt>
      <trkpt lat="45.99422" lon="3.41976">
        <ele>307</ele>
        <time>2024-04-14T07:51:40Z</time>
      </trkpt>
      <trkpt lat="45.99428" lon="3.41968">
        <ele>307.2</ele>
        <time>2024-04-14T07:51:41Z</time>
      </trkpt>
      <trkpt lat="45.99434" lon="3.41959">
        <ele>307</ele>
        <time>2024-04-14T07:51:42Z</time>
      </trkpt>
      <trkpt lat="45.9944" lon="3.41951">
        <ele>307</ele>
        <time>2024-04-14T07:51:43Z</time>
      </trkpt>
      <trkpt lat="45.99446" lon="3.41942">
        <ele>307</ele>
        <time>2024-04-14T07:51:44Z</time>
      </trkpt>
      <trkpt lat="45.99453" lon="3.41933">
        <ele>306.8</ele>
        <time>2024-04-14T07:51:45Z</time>
      </trkpt>
      <trkpt lat="45.99458" lon="3.41922">
        <ele>306.8</ele>
        <time>2024-04-14T07:51:46Z</time>
      </trkpt>
      <trkpt lat="45.99461" lon="3.4191">
        <ele>306.8</ele>
        <time>2024-04-14T07:51:47Z</time>
      </trkpt>
      <trkpt lat="45.99464" lon="3.41898">
        <ele>306.8</ele>
        <time>2024-04-14T07:51:48Z</time>
      </trkpt>
      <trkpt lat="45.99467" lon="3.41886">
        <ele>306.8</ele>
        <time>2024-04-14T07:51:49Z</time>
      </trkpt>
      <trkpt lat="45.9947" lon="3.41874">
        <ele>306.8</ele>
        <time>2024-04-14T07:51:50Z</time>
      </trkpt>
      <trkpt lat="45.9947" lon="3.41862">
        <ele>306.8</ele>
        <time>2024-04-14T07:51:51Z</time>
      </trkpt>
      <trkpt lat="45.99471" lon="3.4185">
        <ele>306.8</ele>
        <time>2024-04-14T07:51:52Z</time>
      </trkpt>
      <trkpt lat="45.99472" lon="3.41839">
        <ele>306.8</ele>
        <time>2024-04-14T07:51:53Z</time>
      </trkpt>
      <trkpt lat="45.99473" lon="3.41828">
        <ele>306.8</ele>
        <time>2024-04-14T07:51:54Z</time>
      </trkpt>
      <trkpt lat="45.99474" lon="3.41816">
        <ele>306.8</ele>
        <time>2024-04-14T07:51:55Z</time>
      </trkpt>
      <trkpt lat="45.99475" lon="3.41805">
        <ele>306.8</ele>
        <time>2024-04-14T07:51:56Z</time>
      </trkpt>
      <trkpt lat="45.99476" lon="3.41794">
        <ele>306.8</ele>
        <time>2024-04-14T07:51:57Z</time>
      </trkpt>
      <trkpt lat="45.99478" lon="3.41782">
        <ele>306.8</ele>
        <time>2024-04-14T07:51:58Z</time>
      </trkpt>
      <trkpt lat="45.9948" lon="3.41772">
        <ele>306.8</ele>
        <time>2024-04-14T07:51:59Z</time>
      </trkpt>
      <trkpt lat="45.99482" lon="3.41761">
        <ele>306.8</ele>
        <time>2024-04-14T07:52:00Z</time>
      </trkpt>
      <trkpt lat="45.99484" lon="3.41751">
        <ele>306.8</ele>
        <time>2024-04-14T07:52:01Z</time>
      </trkpt>
      <trkpt lat="45.99489" lon="3.41742">
        <ele>306.8</ele>
        <time>2024-04-14T07:52:02Z</time>
      </trkpt>
      <trkpt lat="45.99494" lon="3.41733">
        <ele>306.6</ele>
        <time>2024-04-14T07:52:03Z</time>
      </trkpt>
      <trkpt lat="45.99499" lon="3.41723">
        <ele>306.6</ele>
        <time>2024-04-14T07:52:04Z</time>
      </trkpt>
      <trkpt lat="45.99504" lon="3.41714">
        <ele>306.6</ele>
        <time>2024-04-14T07:52:05Z</time>
      </trkpt>
      <trkpt lat="45.99509" lon="3.41704">
        <ele>306.4</ele>
        <time>2024-04-14T07:52:06Z</time>
      </trkpt>
      <trkpt lat="45.99514" lon="3.41694">
        <ele>306.4</ele>
        <time>2024-04-14T07:52:07Z</time>
      </trkpt>
      <trkpt lat="45.99521" lon="3.41685">
        <ele>306.2</ele>
        <time>2024-04-14T07:52:08Z</time>
      </trkpt>
      <trkpt lat="45.99528" lon="3.41677">
        <ele>306.2</ele>
        <time>2024-04-14T07:52:09Z</time>
      </trkpt>
      <trkpt lat="45.99534" lon="3.41669">
        <ele>306</ele>
        <time>2024-04-14T07:52:10Z</time>
      </trkpt>
      <trkpt lat="45.99541" lon="3.4166">
        <ele>306</ele>
        <time>2024-04-14T07:52:11Z</time>
      </trkpt>
      <trkpt lat="45.99548" lon="3.41652">
        <ele>305.8</ele>
        <time>2024-04-14T07:52:12Z</time>
      </trkpt>
      <trkpt lat="45.99555" lon="3.41643">
        <ele>305.8</ele>
        <time>2024-04-14T07:52:13Z</time>
      </trkpt>
      <trkpt lat="45.9956" lon="3.41632">
        <ele>305.6</ele>
        <time>2024-04-14T07:52:14Z</time>
      </trkpt>
      <trkpt lat="45.99563" lon="3.4162">
        <ele>305.4</ele>
        <time>2024-04-14T07:52:15Z</time>
      </trkpt>
      <trkpt lat="45.99565" lon="3.41607">
        <ele>305.2</ele>
        <time>2024-04-14T07:52:16Z</time>
      </trkpt>
      <trkpt lat="45.99567" lon="3.41594">
        <ele>305</ele>
        <time>2024-04-14T07:52:17Z</time>
      </trkpt>
      <trkpt lat="45.99569" lon="3.4158">
        <ele>304.8</ele>
        <time>2024-04-14T07:52:18Z</time>
      </trkpt>
      <trkpt lat="45.9957" lon="3.41567">
        <ele>304.6</ele>
        <time>2024-04-14T07:52:19Z</time>
      </trkpt>
      <trkpt lat="45.9957" lon="3.41552">
        <ele>304.4</ele>
        <time>2024-04-14T07:52:20Z</time>
      </trkpt>
      <trkpt lat="45.9957" lon="3.41538">
        <ele>304.4</ele>
        <time>2024-04-14T07:52:21Z</time>
      </trkpt>
      <trkpt lat="45.9957" lon="3.41524">
        <ele>304.2</ele>
        <time>2024-04-14T07:52:22Z</time>
      </trkpt>
      <trkpt lat="45.99569" lon="3.4151">
        <ele>304</ele>
        <time>2024-04-14T07:52:23Z</time>
      </trkpt>
      <trkpt lat="45.99566" lon="3.41496">
        <ele>303.8</ele>
        <time>2024-04-14T07:52:24Z</time>
      </trkpt>
      <trkpt lat="45.99563" lon="3.41482">
        <ele>303.6</ele>
        <time>2024-04-14T07:52:25Z</time>
      </trkpt>
      <trkpt lat="45.9956" lon="3.41469">
        <ele>303.4</ele>
        <time>2024-04-14T07:52:26Z</time>
      </trkpt>
      <trkpt lat="45.99558" lon="3.41455">
        <ele>303.2</ele>
        <time>2024-04-14T07:52:27Z</time>
      </trkpt>
      <trkpt lat="45.99555" lon="3.41441">
        <ele>303</ele>
        <time>2024-04-14T07:52:28Z</time>
      </trkpt>
      <trkpt lat="45.99552" lon="3.41428">
        <ele>302.8</ele>
        <time>2024-04-14T07:52:29Z</time>
      </trkpt>
      <trkpt lat="45.99549" lon="3.41413">
        <ele>302.6</ele>
        <time>2024-04-14T07:52:30Z</time>
      </trkpt>
      <trkpt lat="45.99546" lon="3.41399">
        <ele>302.4</ele>
        <time>2024-04-14T07:52:31Z</time>
      </trkpt>
      <trkpt lat="45.99544" lon="3.41386">
        <ele>302.2</ele>
        <time>2024-04-14T07:52:32Z</time>
      </trkpt>
      <trkpt lat="45.99541" lon="3.41371">
        <ele>302</ele>
        <time>2024-04-14T07:52:33Z</time>
      </trkpt>
      <trkpt lat="45.99538" lon="3.41357">
        <ele>301.8</ele>
        <time>2024-04-14T07:52:34Z</time>
      </trkpt>
      <trkpt lat="45.99536" lon="3.41343">
        <ele>301.6</ele>
        <time>2024-04-14T07:52:35Z</time>
      </trkpt>
      <trkpt lat="45.99534" lon="3.41329">
        <ele>301.6</ele>
        <time>2024-04-14T07:52:36Z</time>
      </trkpt>
      <trkpt lat="45.99532" lon="3.41315">
        <ele>301.4</ele>
        <time>2024-04-14T07:52:37Z</time>
      </trkpt>
      <trkpt lat="45.9953" lon="3.41302">
        <ele>301.2</ele>
        <time>2024-04-14T07:52:38Z</time>
      </trkpt>
      <trkpt lat="45.99529" lon="3.41289">
        <ele>301</ele>
        <time>2024-04-14T07:52:39Z</time>
      </trkpt>
      <trkpt lat="45.99527" lon="3.41276">
        <ele>300.8</ele>
        <time>2024-04-14T07:52:40Z</time>
      </trkpt>
      <trkpt lat="45.99525" lon="3.41263">
        <ele>300.8</ele>
        <time>2024-04-14T07:52:41Z</time>
      </trkpt>
      <trkpt lat="45.99523" lon="3.41251">
        <ele>300.6</ele>
        <time>2024-04-14T07:52:42Z</time>
      </trkpt>
      <trkpt lat="45.99521" lon="3.41237">
        <ele>300.4</ele>
        <time>2024-04-14T07:52:43Z</time>
      </trkpt>
      <trkpt lat="45.99519" lon="3.41225">
        <ele>300.2</ele>
        <time>2024-04-14T07:52:44Z</time>
      </trkpt>
      <trkpt lat="45.99522" lon="3.41213">
        <ele>300.2</ele>
        <time>2024-04-14T07:52:45Z</time>
      </trkpt>
      <trkpt lat="45.99528" lon="3.41203">
        <ele>300</ele>
        <time>2024-04-14T07:52:46Z</time>
      </trkpt>
      <trkpt lat="45.99533" lon="3.41193">
        <ele>300</ele>
        <time>2024-04-14T07:52:47Z</time>
      </trkpt>
      <trkpt lat="45.9954" lon="3.41185">
        <ele>300</ele>
        <time>2024-04-14T07:52:48Z</time>
      </trkpt>
      <trkpt lat="45.99548" lon="3.41179">
        <ele>299.8</ele>
        <time>2024-04-14T07:52:49Z</time>
      </trkpt>
      <trkpt lat="45.99556" lon="3.41174">
        <ele>299.6</ele>
        <time>2024-04-14T07:52:50Z</time>
      </trkpt>
      <trkpt lat="45.99564" lon="3.4117">
        <ele>299.4</ele>
        <time>2024-04-14T07:52:51Z</time>
      </trkpt>
      <trkpt lat="45.99573" lon="3.41165">
        <ele>299.2</ele>
        <time>2024-04-14T07:52:52Z</time>
      </trkpt>
      <trkpt lat="45.9958" lon="3.4116">
        <ele>299.2</ele>
        <time>2024-04-14T07:52:53Z</time>
      </trkpt>
      <trkpt lat="45.99588" lon="3.41155">
        <ele>299</ele>
        <time>2024-04-14T07:52:54Z</time>
      </trkpt>
      <trkpt lat="45.99596" lon="3.41151">
        <ele>299</ele>
        <time>2024-04-14T07:52:55Z</time>
      </trkpt>
      <trkpt lat="45.99603" lon="3.41146">
        <ele>298.8</ele>
        <time>2024-04-14T07:52:56Z</time>
      </trkpt>
      <trkpt lat="45.9961" lon="3.41142">
        <ele>298.8</ele>
        <time>2024-04-14T07:52:57Z</time>
      </trkpt>
      <trkpt lat="45.99618" lon="3.41139">
        <ele>298.8</ele>
        <time>2024-04-14T07:52:58Z</time>
      </trkpt>
      <trkpt lat="45.99626" lon="3.41137">
        <ele>298.6</ele>
        <time>2024-04-14T07:52:59Z</time>
      </trkpt>
      <trkpt lat="45.99632" lon="3.41135">
        <ele>298.6</ele>
        <time>2024-04-14T07:53:00Z</time>
      </trkpt>
      <trkpt lat="45.99639" lon="3.41133">
        <ele>298.6</ele>
        <time>2024-04-14T07:53:01Z</time>
      </trkpt>
      <trkpt lat="45.99646" lon="3.41131">
        <ele>298.4</ele>
        <time>2024-04-14T07:53:02Z</time>
      </trkpt>
      <trkpt lat="45.99653" lon="3.41129">
        <ele>298.4</ele>
        <time>2024-04-14T07:53:03Z</time>
      </trkpt>
      <trkpt lat="45.99659" lon="3.41126">
        <ele>298.4</ele>
        <time>2024-04-14T07:53:04Z</time>
      </trkpt>
      <trkpt lat="45.99665" lon="3.41121">
        <ele>298.4</ele>
        <time>2024-04-14T07:53:05Z</time>
      </trkpt>
      <trkpt lat="45.9967" lon="3.41115">
        <ele>298.2</ele>
        <time>2024-04-14T07:53:06Z</time>
      </trkpt>
      <trkpt lat="45.99674" lon="3.41104">
        <ele>298.2</ele>
        <time>2024-04-14T07:53:07Z</time>
      </trkpt>
      <trkpt lat="45.99675" lon="3.41094">
        <ele>298.2</ele>
        <time>2024-04-14T07:53:08Z</time>
      </trkpt>
      <trkpt lat="45.99674" lon="3.41083">
        <ele>298</ele>
        <time>2024-04-14T07:53:09Z</time>
      </trkpt>
      <trkpt lat="45.99673" lon="3.41072">
        <ele>298</ele>
        <time>2024-04-14T07:53:10Z</time>
      </trkpt>
      <trkpt lat="45.99671" lon="3.41062">
        <ele>298</ele>
        <time>2024-04-14T07:53:11Z</time>
      </trkpt>
      <trkpt lat="45.99669" lon="3.41051">
        <ele>298</ele>
        <time>2024-04-14T07:53:12Z</time>
      </trkpt>
      <trkpt lat="45.99667" lon="3.4104">
        <ele>298</ele>
        <time>2024-04-14T07:53:13Z</time>
      </trkpt>
      <trkpt lat="45.99664" lon="3.41029">
        <ele>298</ele>
        <time>2024-04-14T07:53:14Z</time>
      </trkpt>
      <trkpt lat="45.99662" lon="3.41018">
        <ele>298</ele>
        <time>2024-04-14T07:53:15Z</time>
      </trkpt>
      <trkpt lat="45.9966" lon="3.41007">
        <ele>298</ele>
        <time>2024-04-14T07:53:16Z</time>
      </trkpt>
      <trkpt lat="45.99657" lon="3.40996">
        <ele>298</ele>
        <time>2024-04-14T07:53:17Z</time>
      </trkpt>
      <trkpt lat="45.99655" lon="3.40985">
        <ele>298</ele>
        <time>2024-04-14T07:53:18Z</time>
      </trkpt>
      <trkpt lat="45.99653" lon="3.40975">
        <ele>298</ele>
        <time>2024-04-14T07:53:19Z</time>
      </trkpt>
      <trkpt lat="45.99651" lon="3.40965">
        <ele>298</ele>
        <time>2024-04-14T07:53:20Z</time>
      </trkpt>
      <trkpt lat="45.99649" lon="3.40955">
        <ele>298</ele>
        <time>2024-04-14T07:53:21Z</time>
      </trkpt>
      <trkpt lat="45.99647" lon="3.40945">
        <ele>298</ele>
        <time>2024-04-14T07:53:22Z</time>
      </trkpt>
      <trkpt lat="45.99645" lon="3.40935">
        <ele>298</ele>
        <time>2024-04-14T07:53:23Z</time>
      </trkpt>
      <trkpt lat="45.99643" lon="3.40926">
        <ele>298</ele>
        <time>2024-04-14T07:53:24Z</time>
      </trkpt>
      <trkpt lat="45.99641" lon="3.40916">
        <ele>298</ele>
        <time>2024-04-14T07:53:25Z</time>
      </trkpt>
      <trkpt lat="45.99639" lon="3.40906">
        <ele>298</ele>
        <time>2024-04-14T07:53:26Z</time>
      </trkpt>
      <trkpt lat="45.99637" lon="3.40897">
        <ele>298</ele>
        <time>2024-04-14T07:53:27Z</time>
      </trkpt>
      <trkpt lat="45.99635" lon="3.40887">
        <ele>298</ele>
        <time>2024-04-14T07:53:28Z</time>
      </trkpt>
      <trkpt lat="45.99633" lon="3.40877">
        <ele>298</ele>
        <time>2024-04-14T07:53:29Z</time>
      </trkpt>
      <trkpt lat="45.99631" lon="3.40868">
        <ele>298</ele>
        <time>2024-04-14T07:53:30Z</time>
      </trkpt>
      <trkpt lat="45.99629" lon="3.40858">
        <ele>298</ele>
        <time>2024-04-14T07:53:31Z</time>
      </trkpt>
      <trkpt lat="45.99627" lon="3.40848">
        <ele>298</ele>
        <time>2024-04-14T07:53:32Z</time>
      </trkpt>
      <trkpt lat="45.99625" lon="3.40838">
        <ele>298</ele>
        <time>2024-04-14T07:53:33Z</time>
      </trkpt>
      <trkpt lat="45.99623" lon="3.40829">
        <ele>298</ele>
        <time>2024-04-14T07:53:34Z</time>
      </trkpt>
      <trkpt lat="45.99621" lon="3.40819">
        <ele>298</ele>
        <time>2024-04-14T07:53:35Z</time>
      </trkpt>
      <trkpt lat="45.99619" lon="3.40809">
        <ele>297.8</ele>
        <time>2024-04-14T07:53:36Z</time>
      </trkpt>
      <trkpt lat="45.99617" lon="3.40799">
        <ele>297.8</ele>
        <time>2024-04-14T07:53:37Z</time>
      </trkpt>
      <trkpt lat="45.99615" lon="3.40789">
        <ele>298</ele>
        <time>2024-04-14T07:53:38Z</time>
      </trkpt>
      <trkpt lat="45.99613" lon="3.40778">
        <ele>298</ele>
        <time>2024-04-14T07:53:39Z</time>
      </trkpt>
      <trkpt lat="45.9961" lon="3.40768">
        <ele>298</ele>
        <time>2024-04-14T07:53:40Z</time>
      </trkpt>
      <trkpt lat="45.99608" lon="3.40757">
        <ele>298.2</ele>
        <time>2024-04-14T07:53:41Z</time>
      </trkpt>
      <trkpt lat="45.99606" lon="3.40747">
        <ele>298.2</ele>
        <time>2024-04-14T07:53:42Z</time>
      </trkpt>
      <trkpt lat="45.99604" lon="3.40736">
        <ele>298.2</ele>
        <time>2024-04-14T07:53:43Z</time>
      </trkpt>
      <trkpt lat="45.99602" lon="3.40726">
        <ele>298.2</ele>
        <time>2024-04-14T07:53:44Z</time>
      </trkpt>
      <trkpt lat="45.996" lon="3.40716">
        <ele>298.2</ele>
        <time>2024-04-14T07:53:45Z</time>
      </trkpt>
      <trkpt lat="45.99598" lon="3.40706">
        <ele>298.4</ele>
        <time>2024-04-14T07:53:46Z</time>
      </trkpt>
      <trkpt lat="45.99596" lon="3.40695">
        <ele>298.4</ele>
        <time>2024-04-14T07:53:47Z</time>
      </trkpt>
      <trkpt lat="45.99595" lon="3.40685">
        <ele>298.4</ele>
        <time>2024-04-14T07:53:48Z</time>
      </trkpt>
      <trkpt lat="45.99593" lon="3.40675">
        <ele>298.4</ele>
        <time>2024-04-14T07:53:49Z</time>
      </trkpt>
      <trkpt lat="45.99592" lon="3.40665">
        <ele>298.4</ele>
        <time>2024-04-14T07:53:50Z</time>
      </trkpt>
      <trkpt lat="45.99591" lon="3.40654">
        <ele>298.6</ele>
        <time>2024-04-14T07:53:51Z</time>
      </trkpt>
      <trkpt lat="45.99591" lon="3.40644">
        <ele>298.6</ele>
        <time>2024-04-14T07:53:52Z</time>
      </trkpt>
      <trkpt lat="45.99591" lon="3.40635">
        <ele>298.6</ele>
        <time>2024-04-14T07:53:53Z</time>
      </trkpt>
      <trkpt lat="45.99591" lon="3.40625">
        <ele>298.6</ele>
        <time>2024-04-14T07:53:54Z</time>
      </trkpt>
      <trkpt lat="45.99591" lon="3.40615">
        <ele>298.6</ele>
        <time>2024-04-14T07:53:55Z</time>
      </trkpt>
      <trkpt lat="45.9959" lon="3.40605">
        <ele>298.6</ele>
        <time>2024-04-14T07:53:56Z</time>
      </trkpt>
      <trkpt lat="45.9959" lon="3.40596">
        <ele>298.8</ele>
        <time>2024-04-14T07:53:57Z</time>
      </trkpt>
      <trkpt lat="45.9959" lon="3.40586">
        <ele>298.8</ele>
        <time>2024-04-14T07:53:58Z</time>
      </trkpt>
      <trkpt lat="45.9959" lon="3.40577">
        <ele>298.8</ele>
        <time>2024-04-14T07:53:59Z</time>
      </trkpt>
      <trkpt lat="45.9959" lon="3.40567">
        <ele>298.8</ele>
        <time>2024-04-14T07:54:00Z</time>
      </trkpt>
      <trkpt lat="45.99589" lon="3.40557">
        <ele>298.8</ele>
        <time>2024-04-14T07:54:01Z</time>
      </trkpt>
      <trkpt lat="45.99589" lon="3.40546">
        <ele>298.8</ele>
        <time>2024-04-14T07:54:02Z</time>
      </trkpt>
      <trkpt lat="45.99589" lon="3.40536">
        <ele>299</ele>
        <time>2024-04-14T07:54:03Z</time>
      </trkpt>
      <trkpt lat="45.99589" lon="3.40526">
        <ele>299</ele>
        <time>2024-04-14T07:54:04Z</time>
      </trkpt>
      <trkpt lat="45.99589" lon="3.40515">
        <ele>299</ele>
        <time>2024-04-14T07:54:05Z</time>
      </trkpt>
      <trkpt lat="45.99589" lon="3.40505">
        <ele>299</ele>
        <time>2024-04-14T07:54:06Z</time>
      </trkpt>
      <trkpt lat="45.99588" lon="3.40494">
        <ele>299</ele>
        <time>2024-04-14T07:54:07Z</time>
      </trkpt>
      <trkpt lat="45.99588" lon="3.40484">
        <ele>299</ele>
        <time>2024-04-14T07:54:08Z</time>
      </trkpt>
      <trkpt lat="45.99588" lon="3.40474">
        <ele>299</ele>
        <time>2024-04-14T07:54:09Z</time>
      </trkpt>
      <trkpt lat="45.99588" lon="3.40463">
        <ele>299</ele>
        <time>2024-04-14T07:54:10Z</time>
      </trkpt>
      <trkpt lat="45.99588" lon="3.40453">
        <ele>299</ele>
        <time>2024-04-14T07:54:11Z</time>
      </trkpt>
      <trkpt lat="45.99587" lon="3.40443">
        <ele>299</ele>
        <time>2024-04-14T07:54:12Z</time>
      </trkpt>
      <trkpt lat="45.99587" lon="3.40433">
        <ele>299</ele>
        <time>2024-04-14T07:54:13Z</time>
      </trkpt>
      <trkpt lat="45.99587" lon="3.40423">
        <ele>299</ele>
        <time>2024-04-14T07:54:14Z</time>
      </trkpt>
      <trkpt lat="45.99587" lon="3.40412">
        <ele>299</ele>
        <time>2024-04-14T07:54:15Z</time>
      </trkpt>
      <trkpt lat="45.99587" lon="3.40402">
        <ele>299.2</ele>
        <time>2024-04-14T07:54:16Z</time>
      </trkpt>
      <trkpt lat="45.99586" lon="3.40392">
        <ele>299</ele>
        <time>2024-04-14T07:54:17Z</time>
      </trkpt>
      <trkpt lat="45.99586" lon="3.40381">
        <ele>299</ele>
        <time>2024-04-14T07:54:18Z</time>
      </trkpt>
      <trkpt lat="45.99586" lon="3.40371">
        <ele>299.2</ele>
        <time>2024-04-14T07:54:19Z</time>
      </trkpt>
      <trkpt lat="45.99586" lon="3.40361">
        <ele>299.2</ele>
        <time>2024-04-14T07:54:20Z</time>
      </trkpt>
      <trkpt lat="45.99586" lon="3.4035">
        <ele>299.2</ele>
        <time>2024-04-14T07:54:21Z</time>
      </trkpt>
      <trkpt lat="45.99585" lon="3.4034">
        <ele>299.2</ele>
        <time>2024-04-14T07:54:22Z</time>
      </trkpt>
      <trkpt lat="45.99585" lon="3.40329">
        <ele>299.2</ele>
        <time>2024-04-14T07:54:23Z</time>
      </trkpt>
      <trkpt lat="45.99585" lon="3.40319">
        <ele>299.2</ele>
        <time>2024-04-14T07:54:24Z</time>
      </trkpt>
      <trkpt lat="45.99586" lon="3.40309">
        <ele>299.2</ele>
        <time>2024-04-14T07:54:25Z</time>
      </trkpt>
      <trkpt lat="45.99588" lon="3.403">
        <ele>299.2</ele>
        <time>2024-04-14T07:54:26Z</time>
      </trkpt>
      <trkpt lat="45.99589" lon="3.40289">
        <ele>299.2</ele>
        <time>2024-04-14T07:54:27Z</time>
      </trkpt>
      <trkpt lat="45.99591" lon="3.40279">
        <ele>299.2</ele>
        <time>2024-04-14T07:54:28Z</time>
      </trkpt>
      <trkpt lat="45.99593" lon="3.40268">
        <ele>299.2</ele>
        <time>2024-04-14T07:54:29Z</time>
      </trkpt>
      <trkpt lat="45.99594" lon="3.40258">
        <ele>299.2</ele>
        <time>2024-04-14T07:54:30Z</time>
      </trkpt>
      <trkpt lat="45.99596" lon="3.40247">
        <ele>299.2</ele>
        <time>2024-04-14T07:54:31Z</time>
      </trkpt>
      <trkpt lat="45.99598" lon="3.40236">
        <ele>299.2</ele>
        <time>2024-04-14T07:54:32Z</time>
      </trkpt>
      <trkpt lat="45.99599" lon="3.40225">
        <ele>299.2</ele>
        <time>2024-04-14T07:54:33Z</time>
      </trkpt>
      <trkpt lat="45.99601" lon="3.40214">
        <ele>299.2</ele>
        <time>2024-04-14T07:54:34Z</time>
      </trkpt>
      <trkpt lat="45.99603" lon="3.40204">
        <ele>299.2</ele>
        <time>2024-04-14T07:54:35Z</time>
      </trkpt>
      <trkpt lat="45.99605" lon="3.40193">
        <ele>299.2</ele>
        <time>2024-04-14T07:54:36Z</time>
      </trkpt>
      <trkpt lat="45.99606" lon="3.40182">
        <ele>299.2</ele>
        <time>2024-04-14T07:54:37Z</time>
      </trkpt>
      <trkpt lat="45.99608" lon="3.40171">
        <ele>299.2</ele>
        <time>2024-04-14T07:54:38Z</time>
      </trkpt>
      <trkpt lat="45.9961" lon="3.4016">
        <ele>299.2</ele>
        <time>2024-04-14T07:54:39Z</time>
      </trkpt>
      <trkpt lat="45.99612" lon="3.40149">
        <ele>299.4</ele>
        <time>2024-04-14T07:54:40Z</time>
      </trkpt>
      <trkpt lat="45.99613" lon="3.40139">
        <ele>299.2</ele>
        <time>2024-04-14T07:54:41Z</time>
      </trkpt>
      <trkpt lat="45.99615" lon="3.40128">
        <ele>299.2</ele>
        <time>2024-04-14T07:54:42Z</time>
      </trkpt>
      <trkpt lat="45.99617" lon="3.40117">
        <ele>299.2</ele>
        <time>2024-04-14T07:54:43Z</time>
      </trkpt>
      <trkpt lat="45.99618" lon="3.40107">
        <ele>299.2</ele>
        <time>2024-04-14T07:54:44Z</time>
      </trkpt>
      <trkpt lat="45.9962" lon="3.40097">
        <ele>299.2</ele>
        <time>2024-04-14T07:54:45Z</time>
      </trkpt>
      <trkpt lat="45.99622" lon="3.40086">
        <ele>299.2</ele>
        <time>2024-04-14T07:54:46Z</time>
      </trkpt>
      <trkpt lat="45.99623" lon="3.40076">
        <ele>299.2</ele>
        <time>2024-04-14T07:54:47Z</time>
      </trkpt>
      <trkpt lat="45.99625" lon="3.40066">
        <ele>299.2</ele>
        <time>2024-04-14T07:54:48Z</time>
      </trkpt>
      <trkpt lat="45.99626" lon="3.40055">
        <ele>299.2</ele>
        <time>2024-04-14T07:54:49Z</time>
      </trkpt>
      <trkpt lat="45.99628" lon="3.40046">
        <ele>299.4</ele>
        <time>2024-04-14T07:54:50Z</time>
      </trkpt>
      <trkpt lat="45.9963" lon="3.40035">
        <ele>299.4</ele>
        <time>2024-04-14T07:54:51Z</time>
      </trkpt>
      <trkpt lat="45.99631" lon="3.40025">
        <ele>299.4</ele>
        <time>2024-04-14T07:54:52Z</time>
      </trkpt>
      <trkpt lat="45.99633" lon="3.40015">
        <ele>299.4</ele>
        <time>2024-04-14T07:54:53Z</time>
      </trkpt>
      <trkpt lat="45.99635" lon="3.40005">
        <ele>299.4</ele>
        <time>2024-04-14T07:54:54Z</time>
      </trkpt>
      <trkpt lat="45.99636" lon="3.39994">
        <ele>299.6</ele>
        <time>2024-04-14T07:54:55Z</time>
      </trkpt>
      <trkpt lat="45.99638" lon="3.39984">
        <ele>299.6</ele>
        <time>2024-04-14T07:54:56Z</time>
      </trkpt>
      <trkpt lat="45.9964" lon="3.39974">
        <ele>299.6</ele>
        <time>2024-04-14T07:54:57Z</time>
      </trkpt>
      <trkpt lat="45.99642" lon="3.39965">
        <ele>299.6</ele>
        <time>2024-04-14T07:54:58Z</time>
      </trkpt>
      <trkpt lat="45.99642" lon="3.39952">
        <ele>299.8</ele>
        <time>2024-04-14T07:54:59Z</time>
      </trkpt>
      <trkpt lat="45.99639" lon="3.39942">
        <ele>299.8</ele>
        <time>2024-04-14T07:55:00Z</time>
      </trkpt>
      <trkpt lat="45.99637" lon="3.39932">
        <ele>299.8</ele>
        <time>2024-04-14T07:55:01Z</time>
      </trkpt>
      <trkpt lat="45.99634" lon="3.39922">
        <ele>299.8</ele>
        <time>2024-04-14T07:55:02Z</time>
      </trkpt>
      <trkpt lat="45.99632" lon="3.39911">
        <ele>299.8</ele>
        <time>2024-04-14T07:55:03Z</time>
      </trkpt>
      <trkpt lat="45.99629" lon="3.39901">
        <ele>299.8</ele>
        <time>2024-04-14T07:55:04Z</time>
      </trkpt>
      <trkpt lat="45.99627" lon="3.39891">
        <ele>299.8</ele>
        <time>2024-04-14T07:55:05Z</time>
      </trkpt>
      <trkpt lat="45.99624" lon="3.39881">
        <ele>299.8</ele>
        <time>2024-04-14T07:55:06Z</time>
      </trkpt>
      <trkpt lat="45.99622" lon="3.3987">
        <ele>299.8</ele>
        <time>2024-04-14T07:55:07Z</time>
      </trkpt>
      <trkpt lat="45.99618" lon="3.39859">
        <ele>299.8</ele>
        <time>2024-04-14T07:55:08Z</time>
      </trkpt>
      <trkpt lat="45.99614" lon="3.39849">
        <ele>299.6</ele>
        <time>2024-04-14T07:55:09Z</time>
      </trkpt>
      <trkpt lat="45.9961" lon="3.39839">
        <ele>299.6</ele>
        <time>2024-04-14T07:55:10Z</time>
      </trkpt>
      <trkpt lat="45.99606" lon="3.3983">
        <ele>299.6</ele>
        <time>2024-04-14T07:55:11Z</time>
      </trkpt>
      <trkpt lat="45.99602" lon="3.3982">
        <ele>299.6</ele>
        <time>2024-04-14T07:55:12Z</time>
      </trkpt>
      <trkpt lat="45.99598" lon="3.39809">
        <ele>299.6</ele>
        <time>2024-04-14T07:55:13Z</time>
      </trkpt>
      <trkpt lat="45.99594" lon="3.39799">
        <ele>299.8</ele>
        <time>2024-04-14T07:55:14Z</time>
      </trkpt>
      <trkpt lat="45.9959" lon="3.39789">
        <ele>299.4</ele>
        <time>2024-04-14T07:55:15Z</time>
      </trkpt>
      <trkpt lat="45.99586" lon="3.3978">
        <ele>299.4</ele>
        <time>2024-04-14T07:55:16Z</time>
      </trkpt>
      <trkpt lat="45.99582" lon="3.3977">
        <ele>299.4</ele>
        <time>2024-04-14T07:55:17Z</time>
      </trkpt>
      <trkpt lat="45.99578" lon="3.3976">
        <ele>299.4</ele>
        <time>2024-04-14T07:55:18Z</time>
      </trkpt>
      <trkpt lat="45.99574" lon="3.39751">
        <ele>299.2</ele>
        <time>2024-04-14T07:55:19Z</time>
      </trkpt>
      <trkpt lat="45.9957" lon="3.39741">
        <ele>299.2</ele>
        <time>2024-04-14T07:55:20Z</time>
      </trkpt>
      <trkpt lat="45.99566" lon="3.3973">
        <ele>299.2</ele>
        <time>2024-04-14T07:55:21Z</time>
      </trkpt>
      <trkpt lat="45.99563" lon="3.3972">
        <ele>299</ele>
        <time>2024-04-14T07:55:22Z</time>
      </trkpt>
      <trkpt lat="45.99559" lon="3.3971">
        <ele>299</ele>
        <time>2024-04-14T07:55:23Z</time>
      </trkpt>
      <trkpt lat="45.99555" lon="3.397">
        <ele>299</ele>
        <time>2024-04-14T07:55:24Z</time>
      </trkpt>
      <trkpt lat="45.99552" lon="3.39689">
        <ele>299</ele>
        <time>2024-04-14T07:55:25Z</time>
      </trkpt>
      <trkpt lat="45.99548" lon="3.39679">
        <ele>299</ele>
        <time>2024-04-14T07:55:26Z</time>
      </trkpt>
      <trkpt lat="45.99544" lon="3.39668">
        <ele>299</ele>
        <time>2024-04-14T07:55:27Z</time>
      </trkpt>
      <trkpt lat="45.99541" lon="3.39658">
        <ele>298.8</ele>
        <time>2024-04-14T07:55:28Z</time>
      </trkpt>
      <trkpt lat="45.99537" lon="3.39647">
        <ele>298.8</ele>
        <time>2024-04-14T07:55:29Z</time>
      </trkpt>
      <trkpt lat="45.99533" lon="3.39637">
        <ele>298.8</ele>
        <time>2024-04-14T07:55:30Z</time>
      </trkpt>
      <trkpt lat="45.9953" lon="3.39626">
        <ele>298.8</ele>
        <time>2024-04-14T07:55:31Z</time>
      </trkpt>
      <trkpt lat="45.99526" lon="3.39616">
        <ele>298.6</ele>
        <time>2024-04-14T07:55:32Z</time>
      </trkpt>
      <trkpt lat="45.99522" lon="3.39605">
        <ele>298.6</ele>
        <time>2024-04-14T07:55:33Z</time>
      </trkpt>
      <trkpt lat="45.99519" lon="3.39595">
        <ele>298.6</ele>
        <time>2024-04-14T07:55:34Z</time>
      </trkpt>
      <trkpt lat="45.99515" lon="3.39584">
        <ele>298.6</ele>
        <time>2024-04-14T07:55:35Z</time>
      </trkpt>
      <trkpt lat="45.99511" lon="3.39574">
        <ele>298.4</ele>
        <time>2024-04-14T07:55:36Z</time>
      </trkpt>
      <trkpt lat="45.99508" lon="3.39564">
        <ele>298.6</ele>
        <time>2024-04-14T07:55:37Z</time>
      </trkpt>
      <trkpt lat="45.99504" lon="3.39554">
        <ele>298.4</ele>
        <time>2024-04-14T07:55:38Z</time>
      </trkpt>
      <trkpt lat="45.995" lon="3.39543">
        <ele>298.4</ele>
        <time>2024-04-14T07:55:39Z</time>
      </trkpt>
      <trkpt lat="45.99497" lon="3.39532">
        <ele>298.4</ele>
        <time>2024-04-14T07:55:40Z</time>
      </trkpt>
      <trkpt lat="45.99493" lon="3.39522">
        <ele>298.4</ele>
        <time>2024-04-14T07:55:41Z</time>
      </trkpt>
      <trkpt lat="45.99489" lon="3.39512">
        <ele>298.4</ele>
        <time>2024-04-14T07:55:42Z</time>
      </trkpt>
      <trkpt lat="45.99486" lon="3.39501">
        <ele>298.4</ele>
        <time>2024-04-14T07:55:43Z</time>
      </trkpt>
      <trkpt lat="45.99482" lon="3.39489">
        <ele>298.2</ele>
        <time>2024-04-14T07:55:44Z</time>
      </trkpt>
      <trkpt lat="45.99482" lon="3.39478">
        <ele>298.2</ele>
        <time>2024-04-14T07:55:45Z</time>
      </trkpt>
      <trkpt lat="45.99482" lon="3.39467">
        <ele>298.2</ele>
        <time>2024-04-14T07:55:46Z</time>
      </trkpt>
      <trkpt lat="45.99481" lon="3.39456">
        <ele>298.2</ele>
        <time>2024-04-14T07:55:47Z</time>
      </trkpt>
      <trkpt lat="45.9948" lon="3.39445">
        <ele>298.2</ele>
        <time>2024-04-14T07:55:48Z</time>
      </trkpt>
      <trkpt lat="45.99479" lon="3.39433">
        <ele>298.2</ele>
        <time>2024-04-14T07:55:49Z</time>
      </trkpt>
      <trkpt lat="45.99478" lon="3.39422">
        <ele>298.2</ele>
        <time>2024-04-14T07:55:50Z</time>
      </trkpt>
      <trkpt lat="45.99477" lon="3.39412">
        <ele>298.4</ele>
        <time>2024-04-14T07:55:51Z</time>
      </trkpt>
      <trkpt lat="45.99476" lon="3.39401">
        <ele>298.4</ele>
        <time>2024-04-14T07:55:52Z</time>
      </trkpt>
      <trkpt lat="45.99475" lon="3.3939">
        <ele>298.4</ele>
        <time>2024-04-14T07:55:53Z</time>
      </trkpt>
      <trkpt lat="45.99474" lon="3.3938">
        <ele>298.4</ele>
        <time>2024-04-14T07:55:54Z</time>
      </trkpt>
      <trkpt lat="45.99472" lon="3.3937">
        <ele>298.4</ele>
        <time>2024-04-14T07:55:55Z</time>
      </trkpt>
      <trkpt lat="45.99471" lon="3.39359">
        <ele>298</ele>
        <time>2024-04-14T07:55:56Z</time>
      </trkpt>
      <trkpt lat="45.99469" lon="3.39349">
        <ele>298</ele>
        <time>2024-04-14T07:55:57Z</time>
      </trkpt>
      <trkpt lat="45.99468" lon="3.39338">
        <ele>298.2</ele>
        <time>2024-04-14T07:55:58Z</time>
      </trkpt>
      <trkpt lat="45.99466" lon="3.39329">
        <ele>298.4</ele>
        <time>2024-04-14T07:55:59Z</time>
      </trkpt>
      <trkpt lat="45.99463" lon="3.39319">
        <ele>298.6</ele>
        <time>2024-04-14T07:56:00Z</time>
      </trkpt>
      <trkpt lat="45.99461" lon="3.39308">
        <ele>298.6</ele>
        <time>2024-04-14T07:56:01Z</time>
      </trkpt>
      <trkpt lat="45.99458" lon="3.39298">
        <ele>298.6</ele>
        <time>2024-04-14T07:56:02Z</time>
      </trkpt>
      <trkpt lat="45.99456" lon="3.39288">
        <ele>298.6</ele>
        <time>2024-04-14T07:56:03Z</time>
      </trkpt>
      <trkpt lat="45.99454" lon="3.39278">
        <ele>298.8</ele>
        <time>2024-04-14T07:56:04Z</time>
      </trkpt>
      <trkpt lat="45.99451" lon="3.39268">
        <ele>298.8</ele>
        <time>2024-04-14T07:56:05Z</time>
      </trkpt>
      <trkpt lat="45.99447" lon="3.39258">
        <ele>298.8</ele>
        <time>2024-04-14T07:56:06Z</time>
      </trkpt>
      <trkpt lat="45.99444" lon="3.39249">
        <ele>298.6</ele>
        <time>2024-04-14T07:56:07Z</time>
      </trkpt>
      <trkpt lat="45.99441" lon="3.39238">
        <ele>298.6</ele>
        <time>2024-04-14T07:56:08Z</time>
      </trkpt>
      <trkpt lat="45.99437" lon="3.39229">
        <ele>298.4</ele>
        <time>2024-04-14T07:56:09Z</time>
      </trkpt>
      <trkpt lat="45.99434" lon="3.39218">
        <ele>298.2</ele>
        <time>2024-04-14T07:56:10Z</time>
      </trkpt>
      <trkpt lat="45.9943" lon="3.39208">
        <ele>298.2</ele>
        <time>2024-04-14T07:56:11Z</time>
      </trkpt>
      <trkpt lat="45.99427" lon="3.39198">
        <ele>298</ele>
        <time>2024-04-14T07:56:12Z</time>
      </trkpt>
      <trkpt lat="45.99423" lon="3.39188">
        <ele>298.2</ele>
        <time>2024-04-14T07:56:13Z</time>
      </trkpt>
      <trkpt lat="45.9942" lon="3.39178">
        <ele>298</ele>
        <time>2024-04-14T07:56:14Z</time>
      </trkpt>
      <trkpt lat="45.99416" lon="3.39168">
        <ele>298.2</ele>
        <time>2024-04-14T07:56:15Z</time>
      </trkpt>
      <trkpt lat="45.99413" lon="3.39157">
        <ele>298.2</ele>
        <time>2024-04-14T07:56:16Z</time>
      </trkpt>
      <trkpt lat="45.99409" lon="3.39147">
        <ele>298.2</ele>
        <time>2024-04-14T07:56:17Z</time>
      </trkpt>
      <trkpt lat="45.99406" lon="3.39137">
        <ele>298.2</ele>
        <time>2024-04-14T07:56:18Z</time>
      </trkpt>
      <trkpt lat="45.99402" lon="3.39127">
        <ele>298.2</ele>
        <time>2024-04-14T07:56:19Z</time>
      </trkpt>
      <trkpt lat="45.99398" lon="3.39116">
        <ele>298</ele>
        <time>2024-04-14T07:56:20Z</time>
      </trkpt>
      <trkpt lat="45.99395" lon="3.39105">
        <ele>298</ele>
        <time>2024-04-14T07:56:21Z</time>
      </trkpt>
      <trkpt lat="45.99391" lon="3.39095">
        <ele>298</ele>
        <time>2024-04-14T07:56:22Z</time>
      </trkpt>
      <trkpt lat="45.99388" lon="3.39085">
        <ele>298</ele>
        <time>2024-04-14T07:56:23Z</time>
      </trkpt>
      <trkpt lat="45.99384" lon="3.39075">
        <ele>298</ele>
        <time>2024-04-14T07:56:24Z</time>
      </trkpt>
      <trkpt lat="45.99381" lon="3.39065">
        <ele>298</ele>
        <time>2024-04-14T07:56:25Z</time>
      </trkpt>
      <trkpt lat="45.99378" lon="3.39055">
        <ele>298</ele>
        <time>2024-04-14T07:56:26Z</time>
      </trkpt>
      <trkpt lat="45.99374" lon="3.39046">
        <ele>298</ele>
        <time>2024-04-14T07:56:27Z</time>
      </trkpt>
      <trkpt lat="45.99371" lon="3.39036">
        <ele>298</ele>
        <time>2024-04-14T07:56:28Z</time>
      </trkpt>
      <trkpt lat="45.99367" lon="3.39026">
        <ele>298</ele>
        <time>2024-04-14T07:56:29Z</time>
      </trkpt>
      <trkpt lat="45.99364" lon="3.39016">
        <ele>298</ele>
        <time>2024-04-14T07:56:30Z</time>
      </trkpt>
      <trkpt lat="45.99361" lon="3.39005">
        <ele>298.2</ele>
        <time>2024-04-14T07:56:31Z</time>
      </trkpt>
      <trkpt lat="45.99359" lon="3.38995">
        <ele>298</ele>
        <time>2024-04-14T07:56:32Z</time>
      </trkpt>
      <trkpt lat="45.99356" lon="3.38984">
        <ele>297.8</ele>
        <time>2024-04-14T07:56:33Z</time>
      </trkpt>
      <trkpt lat="45.99354" lon="3.38974">
        <ele>298</ele>
        <time>2024-04-14T07:56:34Z</time>
      </trkpt>
      <trkpt lat="45.99351" lon="3.38964">
        <ele>298</ele>
        <time>2024-04-14T07:56:35Z</time>
      </trkpt>
      <trkpt lat="45.99349" lon="3.38953">
        <ele>297.8</ele>
        <time>2024-04-14T07:56:36Z</time>
      </trkpt>
      <trkpt lat="45.99346" lon="3.38943">
        <ele>297.8</ele>
        <time>2024-04-14T07:56:37Z</time>
      </trkpt>
      <trkpt lat="45.99344" lon="3.38933">
        <ele>297.8</ele>
        <time>2024-04-14T07:56:38Z</time>
      </trkpt>
      <trkpt lat="45.99342" lon="3.38923">
        <ele>297.8</ele>
        <time>2024-04-14T07:56:39Z</time>
      </trkpt>
      <trkpt lat="45.99339" lon="3.38912">
        <ele>297.8</ele>
        <time>2024-04-14T07:56:40Z</time>
      </trkpt>
      <trkpt lat="45.99337" lon="3.38902">
        <ele>297.8</ele>
        <time>2024-04-14T07:56:41Z</time>
      </trkpt>
      <trkpt lat="45.99334" lon="3.38891">
        <ele>297.8</ele>
        <time>2024-04-14T07:56:42Z</time>
      </trkpt>
      <trkpt lat="45.99332" lon="3.38881">
        <ele>297.8</ele>
        <time>2024-04-14T07:56:43Z</time>
      </trkpt>
      <trkpt lat="45.99329" lon="3.38871">
        <ele>298</ele>
        <time>2024-04-14T07:56:44Z</time>
      </trkpt>
      <trkpt lat="45.99327" lon="3.3886">
        <ele>298</ele>
        <time>2024-04-14T07:56:45Z</time>
      </trkpt>
      <trkpt lat="45.99324" lon="3.38851">
        <ele>298</ele>
        <time>2024-04-14T07:56:46Z</time>
      </trkpt>
      <trkpt lat="45.9932" lon="3.38841">
        <ele>298</ele>
        <time>2024-04-14T07:56:47Z</time>
      </trkpt>
      <trkpt lat="45.99316" lon="3.38832">
        <ele>298</ele>
        <time>2024-04-14T07:56:48Z</time>
      </trkpt>
      <trkpt lat="45.99313" lon="3.38822">
        <ele>298</ele>
        <time>2024-04-14T07:56:49Z</time>
      </trkpt>
      <trkpt lat="45.99309" lon="3.38813">
        <ele>298</ele>
        <time>2024-04-14T07:56:50Z</time>
      </trkpt>
      <trkpt lat="45.99305" lon="3.38804">
        <ele>298</ele>
        <time>2024-04-14T07:56:51Z</time>
      </trkpt>
      <trkpt lat="45.993" lon="3.38795">
        <ele>298</ele>
        <time>2024-04-14T07:56:52Z</time>
      </trkpt>
      <trkpt lat="45.99296" lon="3.38786">
        <ele>298</ele>
        <time>2024-04-14T07:56:53Z</time>
      </trkpt>
      <trkpt lat="45.99291" lon="3.38777">
        <ele>298</ele>
        <time>2024-04-14T07:56:54Z</time>
      </trkpt>
      <trkpt lat="45.99286" lon="3.38767">
        <ele>298</ele>
        <time>2024-04-14T07:56:55Z</time>
      </trkpt>
      <trkpt lat="45.99282" lon="3.38759">
        <ele>298</ele>
        <time>2024-04-14T07:56:56Z</time>
      </trkpt>
      <trkpt lat="45.99277" lon="3.3875">
        <ele>298.2</ele>
        <time>2024-04-14T07:56:57Z</time>
      </trkpt>
      <trkpt lat="45.99273" lon="3.38741">
        <ele>298</ele>
        <time>2024-04-14T07:56:58Z</time>
      </trkpt>
      <trkpt lat="45.99268" lon="3.38732">
        <ele>298</ele>
        <time>2024-04-14T07:56:59Z</time>
      </trkpt>
      <trkpt lat="45.99264" lon="3.38723">
        <ele>298</ele>
        <time>2024-04-14T07:57:00Z</time>
      </trkpt>
      <trkpt lat="45.9926" lon="3.38714">
        <ele>298.2</ele>
        <time>2024-04-14T07:57:01Z</time>
      </trkpt>
      <trkpt lat="45.99257" lon="3.38705">
        <ele>298.2</ele>
        <time>2024-04-14T07:57:02Z</time>
      </trkpt>
      <trkpt lat="45.99254" lon="3.38695">
        <ele>298.2</ele>
        <time>2024-04-14T07:57:03Z</time>
      </trkpt>
      <trkpt lat="45.9925" lon="3.38686">
        <ele>298.2</ele>
        <time>2024-04-14T07:57:04Z</time>
      </trkpt>
      <trkpt lat="45.99247" lon="3.38677">
        <ele>298.2</ele>
        <time>2024-04-14T07:57:05Z</time>
      </trkpt>
      <trkpt lat="45.99244" lon="3.38667">
        <ele>298.2</ele>
        <time>2024-04-14T07:57:06Z</time>
      </trkpt>
      <trkpt lat="45.99241" lon="3.38658">
        <ele>298.4</ele>
        <time>2024-04-14T07:57:07Z</time>
      </trkpt>
      <trkpt lat="45.99237" lon="3.38649">
        <ele>298.4</ele>
        <time>2024-04-14T07:57:08Z</time>
      </trkpt>
      <trkpt lat="45.99234" lon="3.3864">
        <ele>298.4</ele>
        <time>2024-04-14T07:57:09Z</time>
      </trkpt>
      <trkpt lat="45.99231" lon="3.3863">
        <ele>298.4</ele>
        <time>2024-04-14T07:57:10Z</time>
      </trkpt>
      <trkpt lat="45.99228" lon="3.3862">
        <ele>298.4</ele>
        <time>2024-04-14T07:57:11Z</time>
      </trkpt>
      <trkpt lat="45.99224" lon="3.38611">
        <ele>298.4</ele>
        <time>2024-04-14T07:57:12Z</time>
      </trkpt>
      <trkpt lat="45.99221" lon="3.38601">
        <ele>298.4</ele>
        <time>2024-04-14T07:57:13Z</time>
      </trkpt>
      <trkpt lat="45.99218" lon="3.38592">
        <ele>298.6</ele>
        <time>2024-04-14T07:57:14Z</time>
      </trkpt>
      <trkpt lat="45.99217" lon="3.38582">
        <ele>298.6</ele>
        <time>2024-04-14T07:57:15Z</time>
      </trkpt>
      <trkpt lat="45.99215" lon="3.38572">
        <ele>298.6</ele>
        <time>2024-04-14T07:57:16Z</time>
      </trkpt>
      <trkpt lat="45.99214" lon="3.38562">
        <ele>298.6</ele>
        <time>2024-04-14T07:57:17Z</time>
      </trkpt>
      <trkpt lat="45.99212" lon="3.38551">
        <ele>298.6</ele>
        <time>2024-04-14T07:57:18Z</time>
      </trkpt>
      <trkpt lat="45.99211" lon="3.3854">
        <ele>298.8</ele>
        <time>2024-04-14T07:57:19Z</time>
      </trkpt>
      <trkpt lat="45.9921" lon="3.3853">
        <ele>298.8</ele>
        <time>2024-04-14T07:57:20Z</time>
      </trkpt>
      <trkpt lat="45.99208" lon="3.3852">
        <ele>298.8</ele>
        <time>2024-04-14T07:57:21Z</time>
      </trkpt>
      <trkpt lat="45.99207" lon="3.3851">
        <ele>298.8</ele>
        <time>2024-04-14T07:57:22Z</time>
      </trkpt>
      <trkpt lat="45.99206" lon="3.385">
        <ele>298.8</ele>
        <time>2024-04-14T07:57:23Z</time>
      </trkpt>
      <trkpt lat="45.99204" lon="3.38491">
        <ele>299</ele>
        <time>2024-04-14T07:57:24Z</time>
      </trkpt>
      <trkpt lat="45.99203" lon="3.38481">
        <ele>299</ele>
        <time>2024-04-14T07:57:25Z</time>
      </trkpt>
      <trkpt lat="45.99202" lon="3.38473">
        <ele>299</ele>
        <time>2024-04-14T07:57:26Z</time>
      </trkpt>
      <trkpt lat="45.99201" lon="3.38464">
        <ele>299</ele>
        <time>2024-04-14T07:57:27Z</time>
      </trkpt>
      <trkpt lat="45.992" lon="3.38456">
        <ele>299.2</ele>
        <time>2024-04-14T07:57:28Z</time>
      </trkpt>
      <trkpt lat="45.99198" lon="3.38447">
        <ele>299.2</ele>
        <time>2024-04-14T07:57:29Z</time>
      </trkpt>
      <trkpt lat="45.99197" lon="3.38438">
        <ele>299.2</ele>
        <time>2024-04-14T07:57:30Z</time>
      </trkpt>
      <trkpt lat="45.99196" lon="3.38429">
        <ele>299.4</ele>
        <time>2024-04-14T07:57:31Z</time>
      </trkpt>
      <trkpt lat="45.99195" lon="3.3842">
        <ele>299.4</ele>
        <time>2024-04-14T07:57:32Z</time>
      </trkpt>
      <trkpt lat="45.99194" lon="3.38412">
        <ele>299.4</ele>
        <time>2024-04-14T07:57:33Z</time>
      </trkpt>
      <trkpt lat="45.99193" lon="3.38404">
        <ele>299.6</ele>
        <time>2024-04-14T07:57:34Z</time>
      </trkpt>
      <trkpt lat="45.99192" lon="3.38396">
        <ele>299.6</ele>
        <time>2024-04-14T07:57:35Z</time>
      </trkpt>
      <trkpt lat="45.9919" lon="3.38388">
        <ele>299.6</ele>
        <time>2024-04-14T07:57:36Z</time>
      </trkpt>
      <trkpt lat="45.99189" lon="3.3838">
        <ele>299.8</ele>
        <time>2024-04-14T07:57:37Z</time>
      </trkpt>
      <trkpt lat="45.99192" lon="3.38365">
        <ele>299.8</ele>
        <time>2024-04-14T07:57:38Z</time>
      </trkpt>
      <trkpt lat="45.99195" lon="3.38359">
        <ele>299.8</ele>
        <time>2024-04-14T07:57:39Z</time>
      </trkpt>
      <trkpt lat="45.99199" lon="3.38354">
        <ele>300</ele>
        <time>2024-04-14T07:57:40Z</time>
      </trkpt>
      <trkpt lat="45.99202" lon="3.38348">
        <ele>300</ele>
        <time>2024-04-14T07:57:41Z</time>
      </trkpt>
      <trkpt lat="45.99206" lon="3.38343">
        <ele>300</ele>
        <time>2024-04-14T07:57:42Z</time>
      </trkpt>
      <trkpt lat="45.99209" lon="3.38338">
        <ele>300.2</ele>
        <time>2024-04-14T07:57:43Z</time>
      </trkpt>
      <trkpt lat="45.99212" lon="3.38333">
        <ele>300.2</ele>
        <time>2024-04-14T07:57:44Z</time>
      </trkpt>
      <trkpt lat="45.99215" lon="3.38328">
        <ele>300.4</ele>
        <time>2024-04-14T07:57:45Z</time>
      </trkpt>
      <trkpt lat="45.99218" lon="3.38324">
        <ele>300.4</ele>
        <time>2024-04-14T07:57:46Z</time>
      </trkpt>
      <trkpt lat="45.99222" lon="3.38321">
        <ele>300.6</ele>
        <time>2024-04-14T07:57:47Z</time>
      </trkpt>
      <trkpt lat="45.99226" lon="3.38318">
        <ele>300.8</ele>
        <time>2024-04-14T07:57:48Z</time>
      </trkpt>
      <trkpt lat="45.9923" lon="3.38316">
        <ele>300.8</ele>
        <time>2024-04-14T07:57:49Z</time>
      </trkpt>
      <trkpt lat="45.99233" lon="3.38313">
        <ele>300.8</ele>
        <time>2024-04-14T07:57:50Z</time>
      </trkpt>
      <trkpt lat="45.99237" lon="3.38311">
        <ele>301</ele>
        <time>2024-04-14T07:57:51Z</time>
      </trkpt>
      <trkpt lat="45.9924" lon="3.38309">
        <ele>301</ele>
        <time>2024-04-14T07:57:52Z</time>
      </trkpt>
      <trkpt lat="45.99244" lon="3.38306">
        <ele>301.2</ele>
        <time>2024-04-14T07:57:53Z</time>
      </trkpt>
      <trkpt lat="45.99248" lon="3.38304">
        <ele>301.2</ele>
        <time>2024-04-14T07:57:54Z</time>
      </trkpt>
      <trkpt lat="45.99251" lon="3.38302">
        <ele>301.4</ele>
        <time>2024-04-14T07:57:55Z</time>
      </trkpt>
      <trkpt lat="45.99255" lon="3.383">
        <ele>301.4</ele>
        <time>2024-04-14T07:57:56Z</time>
      </trkpt>
      <trkpt lat="45.99259" lon="3.383">
        <ele>301.6</ele>
        <time>2024-04-14T07:57:57Z</time>
      </trkpt>
      <trkpt lat="45.99264" lon="3.383">
        <ele>301.8</ele>
        <time>2024-04-14T07:57:58Z</time>
      </trkpt>
      <trkpt lat="45.99267" lon="3.383">
        <ele>301.8</ele>
        <time>2024-04-14T07:57:59Z</time>
      </trkpt>
      <trkpt lat="45.99271" lon="3.38301">
        <ele>302</ele>
        <time>2024-04-14T07:58:00Z</time>
      </trkpt>
      <trkpt lat="45.99275" lon="3.38301">
        <ele>302</ele>
        <time>2024-04-14T07:58:01Z</time>
      </trkpt>
      <trkpt lat="45.99278" lon="3.38301">
        <ele>302.2</ele>
        <time>2024-04-14T07:58:02Z</time>
      </trkpt>
      <trkpt lat="45.99281" lon="3.38301">
        <ele>302.4</ele>
        <time>2024-04-14T07:58:03Z</time>
      </trkpt>
      <trkpt lat="45.99285" lon="3.38301">
        <ele>302.4</ele>
        <time>2024-04-14T07:58:04Z</time>
      </trkpt>
      <trkpt lat="45.99288" lon="3.38302">
        <ele>302.6</ele>
        <time>2024-04-14T07:58:05Z</time>
      </trkpt>
      <trkpt lat="45.99292" lon="3.38302">
        <ele>302.8</ele>
        <time>2024-04-14T07:58:06Z</time>
      </trkpt>
      <trkpt lat="45.99296" lon="3.38302">
        <ele>302.8</ele>
        <time>2024-04-14T07:58:07Z</time>
      </trkpt>
      <trkpt lat="45.99299" lon="3.38302">
        <ele>303</ele>
        <time>2024-04-14T07:58:08Z</time>
      </trkpt>
      <trkpt lat="45.99303" lon="3.38302">
        <ele>303.2</ele>
        <time>2024-04-14T07:58:09Z</time>
      </trkpt>
      <trkpt lat="45.99306" lon="3.38303">
        <ele>303.2</ele>
        <time>2024-04-14T07:58:10Z</time>
      </trkpt>
      <trkpt lat="45.9931" lon="3.38303">
        <ele>303.4</ele>
        <time>2024-04-14T07:58:11Z</time>
      </trkpt>
      <trkpt lat="45.99313" lon="3.38303">
        <ele>303.6</ele>
        <time>2024-04-14T07:58:12Z</time>
      </trkpt>
      <trkpt lat="45.99317" lon="3.38303">
        <ele>303.8</ele>
        <time>2024-04-14T07:58:13Z</time>
      </trkpt>
      <trkpt lat="45.9932" lon="3.38304">
        <ele>303.8</ele>
        <time>2024-04-14T07:58:14Z</time>
      </trkpt>
      <trkpt lat="45.99324" lon="3.38304">
        <ele>304</ele>
        <time>2024-04-14T07:58:15Z</time>
      </trkpt>
      <trkpt lat="45.99327" lon="3.38304">
        <ele>304.2</ele>
        <time>2024-04-14T07:58:16Z</time>
      </trkpt>
      <trkpt lat="45.9933" lon="3.38304">
        <ele>304.2</ele>
        <time>2024-04-14T07:58:17Z</time>
      </trkpt>
      <trkpt lat="45.99333" lon="3.38304">
        <ele>304.4</ele>
        <time>2024-04-14T07:58:18Z</time>
      </trkpt>
      <trkpt lat="45.99336" lon="3.38305">
        <ele>304.6</ele>
        <time>2024-04-14T07:58:19Z</time>
      </trkpt>
      <trkpt lat="45.99339" lon="3.38305">
        <ele>304.8</ele>
        <time>2024-04-14T07:58:20Z</time>
      </trkpt>
      <trkpt lat="45.99343" lon="3.38305">
        <ele>304.8</ele>
        <time>2024-04-14T07:58:21Z</time>
      </trkpt>
      <trkpt lat="45.99346" lon="3.38305">
        <ele>305</ele>
        <time>2024-04-14T07:58:22Z</time>
      </trkpt>
      <trkpt lat="45.99349" lon="3.38305">
        <ele>305.2</ele>
        <time>2024-04-14T07:58:23Z</time>
      </trkpt>
      <trkpt lat="45.99352" lon="3.38305">
        <ele>305.4</ele>
        <time>2024-04-14T07:58:24Z</time>
      </trkpt>
      <trkpt lat="45.99356" lon="3.38306">
        <ele>305.6</ele>
        <time>2024-04-14T07:58:25Z</time>
      </trkpt>
      <trkpt lat="45.9936" lon="3.38306">
        <ele>305.8</ele>
        <time>2024-04-14T07:58:26Z</time>
      </trkpt>
      <trkpt lat="45.99364" lon="3.38305">
        <ele>305.8</ele>
        <time>2024-04-14T07:58:27Z</time>
      </trkpt>
      <trkpt lat="45.99368" lon="3.38305">
        <ele>306</ele>
        <time>2024-04-14T07:58:28Z</time>
      </trkpt>
      <trkpt lat="45.99372" lon="3.38304">
        <ele>306.2</ele>
        <time>2024-04-14T07:58:29Z</time>
      </trkpt>
      <trkpt lat="45.99375" lon="3.38303">
        <ele>306.4</ele>
        <time>2024-04-14T07:58:30Z</time>
      </trkpt>
      <trkpt lat="45.99379" lon="3.38302">
        <ele>306.4</ele>
        <time>2024-04-14T07:58:31Z</time>
      </trkpt>
      <trkpt lat="45.99383" lon="3.38302">
        <ele>306.6</ele>
        <time>2024-04-14T07:58:32Z</time>
      </trkpt>
      <trkpt lat="45.99387" lon="3.38301">
        <ele>306.8</ele>
        <time>2024-04-14T07:58:33Z</time>
      </trkpt>
      <trkpt lat="45.9939" lon="3.38299">
        <ele>306.8</ele>
        <time>2024-04-14T07:58:34Z</time>
      </trkpt>
      <trkpt lat="45.99394" lon="3.38298">
        <ele>307</ele>
        <time>2024-04-14T07:58:35Z</time>
      </trkpt>
      <trkpt lat="45.99397" lon="3.38297">
        <ele>307.2</ele>
        <time>2024-04-14T07:58:36Z</time>
      </trkpt>
      <trkpt lat="45.99401" lon="3.38295">
        <ele>307.4</ele>
        <time>2024-04-14T07:58:37Z</time>
      </trkpt>
      <trkpt lat="45.99404" lon="3.38294">
        <ele>307.6</ele>
        <time>2024-04-14T07:58:38Z</time>
      </trkpt>
      <trkpt lat="45.99407" lon="3.38293">
        <ele>307.8</ele>
        <time>2024-04-14T07:58:39Z</time>
      </trkpt>
      <trkpt lat="45.9941" lon="3.38292">
        <ele>307.8</ele>
        <time>2024-04-14T07:58:40Z</time>
      </trkpt>
      <trkpt lat="45.99413" lon="3.38291">
        <ele>308</ele>
        <time>2024-04-14T07:58:41Z</time>
      </trkpt>
      <trkpt lat="45.99416" lon="3.3829">
        <ele>308.2</ele>
        <time>2024-04-14T07:58:42Z</time>
      </trkpt>
      <trkpt lat="45.99419" lon="3.38289">
        <ele>308.4</ele>
        <time>2024-04-14T07:58:43Z</time>
      </trkpt>
      <trkpt lat="45.99423" lon="3.38288">
        <ele>308.6</ele>
        <time>2024-04-14T07:58:44Z</time>
      </trkpt>
      <trkpt lat="45.99426" lon="3.38286">
        <ele>308.8</ele>
        <time>2024-04-14T07:58:45Z</time>
      </trkpt>
      <trkpt lat="45.99429" lon="3.38285">
        <ele>309</ele>
        <time>2024-04-14T07:58:46Z</time>
      </trkpt>
      <trkpt lat="45.99432" lon="3.38284">
        <ele>309</ele>
        <time>2024-04-14T07:58:47Z</time>
      </trkpt>
      <trkpt lat="45.99436" lon="3.38283">
        <ele>309.2</ele>
        <time>2024-04-14T07:58:48Z</time>
      </trkpt>
      <trkpt lat="45.99439" lon="3.38282">
        <ele>309.4</ele>
        <time>2024-04-14T07:58:49Z</time>
      </trkpt>
      <trkpt lat="45.99443" lon="3.3828">
        <ele>309.6</ele>
        <time>2024-04-14T07:58:50Z</time>
      </trkpt>
      <trkpt lat="45.99446" lon="3.38279">
        <ele>309.8</ele>
        <time>2024-04-14T07:58:51Z</time>
      </trkpt>
      <trkpt lat="45.99449" lon="3.38278">
        <ele>310</ele>
        <time>2024-04-14T07:58:52Z</time>
      </trkpt>
      <trkpt lat="45.99453" lon="3.38277">
        <ele>310.2</ele>
        <time>2024-04-14T07:58:53Z</time>
      </trkpt>
      <trkpt lat="45.99456" lon="3.38276">
        <ele>310.4</ele>
        <time>2024-04-14T07:58:54Z</time>
      </trkpt>
      <trkpt lat="45.99459" lon="3.38274">
        <ele>310.6</ele>
        <time>2024-04-14T07:58:55Z</time>
      </trkpt>
      <trkpt lat="45.99462" lon="3.38273">
        <ele>310.8</ele>
        <time>2024-04-14T07:58:56Z</time>
      </trkpt>
      <trkpt lat="45.99465" lon="3.38272">
        <ele>311</ele>
        <time>2024-04-14T07:58:57Z</time>
      </trkpt>
      <trkpt lat="45.99469" lon="3.3827">
        <ele>311.2</ele>
        <time>2024-04-14T07:58:58Z</time>
      </trkpt>
      <trkpt lat="45.99471" lon="3.38269">
        <ele>311.4</ele>
        <time>2024-04-14T07:58:59Z</time>
      </trkpt>
      <trkpt lat="45.99473" lon="3.38267">
        <ele>311.6</ele>
        <time>2024-04-14T07:59:00Z</time>
      </trkpt>
      <trkpt lat="45.99476" lon="3.38264">
        <ele>311.8</ele>
        <time>2024-04-14T07:59:01Z</time>
      </trkpt>
      <trkpt lat="45.99479" lon="3.38262">
        <ele>312</ele>
        <time>2024-04-14T07:59:02Z</time>
      </trkpt>
      <trkpt lat="45.99482" lon="3.3826">
        <ele>312</ele>
        <time>2024-04-14T07:59:03Z</time>
      </trkpt>
      <trkpt lat="45.99485" lon="3.38257">
        <ele>312.2</ele>
        <time>2024-04-14T07:59:04Z</time>
      </trkpt>
      <trkpt lat="45.99488" lon="3.38255">
        <ele>312.6</ele>
        <time>2024-04-14T07:59:05Z</time>
      </trkpt>
      <trkpt lat="45.99491" lon="3.38253">
        <ele>312.8</ele>
        <time>2024-04-14T07:59:06Z</time>
      </trkpt>
      <trkpt lat="45.99494" lon="3.3825">
        <ele>313</ele>
        <time>2024-04-14T07:59:07Z</time>
      </trkpt>
      <trkpt lat="45.99498" lon="3.38248">
        <ele>313.2</ele>
        <time>2024-04-14T07:59:08Z</time>
      </trkpt>
      <trkpt lat="45.99501" lon="3.38245">
        <ele>313.4</ele>
        <time>2024-04-14T07:59:09Z</time>
      </trkpt>
      <trkpt lat="45.99504" lon="3.38243">
        <ele>313.6</ele>
        <time>2024-04-14T07:59:10Z</time>
      </trkpt>
      <trkpt lat="45.99508" lon="3.3824">
        <ele>313.8</ele>
        <time>2024-04-14T07:59:11Z</time>
      </trkpt>
      <trkpt lat="45.99511" lon="3.38238">
        <ele>314</ele>
        <time>2024-04-14T07:59:12Z</time>
      </trkpt>
      <trkpt lat="45.99515" lon="3.38235">
        <ele>314.2</ele>
        <time>2024-04-14T07:59:13Z</time>
      </trkpt>
      <trkpt lat="45.99518" lon="3.38233">
        <ele>314.4</ele>
        <time>2024-04-14T07:59:14Z</time>
      </trkpt>
      <trkpt lat="45.99521" lon="3.38231">
        <ele>314.8</ele>
        <time>2024-04-14T07:59:15Z</time>
      </trkpt>
      <trkpt lat="45.99525" lon="3.3823">
        <ele>315</ele>
        <time>2024-04-14T07:59:16Z</time>
      </trkpt>
      <trkpt lat="45.99529" lon="3.38229">
        <ele>315.2</ele>
        <time>2024-04-14T07:59:17Z</time>
      </trkpt>
      <trkpt lat="45.99532" lon="3.38228">
        <ele>315.4</ele>
        <time>2024-04-14T07:59:18Z</time>
      </trkpt>
      <trkpt lat="45.99536" lon="3.38227">
        <ele>315.6</ele>
        <time>2024-04-14T07:59:19Z</time>
      </trkpt>
      <trkpt lat="45.9954" lon="3.38226">
        <ele>315.8</ele>
        <time>2024-04-14T07:59:20Z</time>
      </trkpt>
      <trkpt lat="45.99544" lon="3.38224">
        <ele>316</ele>
        <time>2024-04-14T07:59:21Z</time>
      </trkpt>
      <trkpt lat="45.99548" lon="3.38223">
        <ele>316.2</ele>
        <time>2024-04-14T07:59:22Z</time>
      </trkpt>
      <trkpt lat="45.99552" lon="3.38222">
        <ele>316.4</ele>
        <time>2024-04-14T07:59:23Z</time>
      </trkpt>
      <trkpt lat="45.99556" lon="3.38221">
        <ele>316.6</ele>
        <time>2024-04-14T07:59:24Z</time>
      </trkpt>
      <trkpt lat="45.9956" lon="3.3822">
        <ele>316.8</ele>
        <time>2024-04-14T07:59:25Z</time>
      </trkpt>
      <trkpt lat="45.99564" lon="3.38219">
        <ele>317</ele>
        <time>2024-04-14T07:59:26Z</time>
      </trkpt>
      <trkpt lat="45.99568" lon="3.38219">
        <ele>317.2</ele>
        <time>2024-04-14T07:59:27Z</time>
      </trkpt>
      <trkpt lat="45.99573" lon="3.38218">
        <ele>317.4</ele>
        <time>2024-04-14T07:59:28Z</time>
      </trkpt>
      <trkpt lat="45.99577" lon="3.38218">
        <ele>317.6</ele>
        <time>2024-04-14T07:59:29Z</time>
      </trkpt>
      <trkpt lat="45.99581" lon="3.38217">
        <ele>317.8</ele>
        <time>2024-04-14T07:59:30Z</time>
      </trkpt>
      <trkpt lat="45.99586" lon="3.38216">
        <ele>318</ele>
        <time>2024-04-14T07:59:31Z</time>
      </trkpt>
      <trkpt lat="45.9959" lon="3.38216">
        <ele>318</ele>
        <time>2024-04-14T07:59:32Z</time>
      </trkpt>
      <trkpt lat="45.99595" lon="3.38215">
        <ele>318.2</ele>
        <time>2024-04-14T07:59:33Z</time>
      </trkpt>
      <trkpt lat="45.996" lon="3.38214">
        <ele>318.4</ele>
        <time>2024-04-14T07:59:34Z</time>
      </trkpt>
      <trkpt lat="45.99604" lon="3.38214">
        <ele>318.4</ele>
        <time>2024-04-14T07:59:35Z</time>
      </trkpt>
      <trkpt lat="45.99609" lon="3.38213">
        <ele>318.6</ele>
        <time>2024-04-14T07:59:36Z</time>
      </trkpt>
      <trkpt lat="45.99614" lon="3.38212">
        <ele>318.8</ele>
        <time>2024-04-14T07:59:37Z</time>
      </trkpt>
      <trkpt lat="45.99619" lon="3.38212">
        <ele>318.8</ele>
        <time>2024-04-14T07:59:38Z</time>
      </trkpt>
      <trkpt lat="45.99624" lon="3.38211">
        <ele>319</ele>
        <time>2024-04-14T07:59:39Z</time>
      </trkpt>
      <trkpt lat="45.99629" lon="3.3821">
        <ele>319.2</ele>
        <time>2024-04-14T07:59:40Z</time>
      </trkpt>
      <trkpt lat="45.99634" lon="3.38209">
        <ele>319.2</ele>
        <time>2024-04-14T07:59:41Z</time>
      </trkpt>
      <trkpt lat="45.99639" lon="3.38209">
        <ele>319.4</ele>
        <time>2024-04-14T07:59:42Z</time>
      </trkpt>
      <trkpt lat="45.99644" lon="3.38208">
        <ele>319.6</ele>
        <time>2024-04-14T07:59:43Z</time>
      </trkpt>
      <trkpt lat="45.99648" lon="3.38207">
        <ele>319.6</ele>
        <time>2024-04-14T07:59:44Z</time>
      </trkpt>
      <trkpt lat="45.99653" lon="3.38207">
        <ele>319.8</ele>
        <time>2024-04-14T07:59:45Z</time>
      </trkpt>
      <trkpt lat="45.99657" lon="3.38206">
        <ele>320</ele>
        <time>2024-04-14T07:59:46Z</time>
      </trkpt>
      <trkpt lat="45.99662" lon="3.38205">
        <ele>320.2</ele>
        <time>2024-04-14T07:59:47Z</time>
      </trkpt>
      <trkpt lat="45.99667" lon="3.38205">
        <ele>320.4</ele>
        <time>2024-04-14T07:59:48Z</time>
      </trkpt>
      <trkpt lat="45.99672" lon="3.38204">
        <ele>320.6</ele>
        <time>2024-04-14T07:59:49Z</time>
      </trkpt>
      <trkpt lat="45.99676" lon="3.38203">
        <ele>320.8</ele>
        <time>2024-04-14T07:59:50Z</time>
      </trkpt>
      <trkpt lat="45.99681" lon="3.38203">
        <ele>320.8</ele>
        <time>2024-04-14T07:59:51Z</time>
      </trkpt>
      <trkpt lat="45.99686" lon="3.38204">
        <ele>321</ele>
        <time>2024-04-14T07:59:52Z</time>
      </trkpt>
      <trkpt lat="45.99691" lon="3.38204">
        <ele>321</ele>
        <time>2024-04-14T07:59:53Z</time>
      </trkpt>
      <trkpt lat="45.99696" lon="3.38205">
        <ele>321.2</ele>
        <time>2024-04-14T07:59:54Z</time>
      </trkpt>
      <trkpt lat="45.99701" lon="3.38205">
        <ele>321.4</ele>
        <time>2024-04-14T07:59:55Z</time>
      </trkpt>
      <trkpt lat="45.99706" lon="3.38206">
        <ele>321.6</ele>
        <time>2024-04-14T07:59:56Z</time>
      </trkpt>
      <trkpt lat="45.9971" lon="3.38206">
        <ele>321.8</ele>
        <time>2024-04-14T07:59:57Z</time>
      </trkpt>
      <trkpt lat="45.99715" lon="3.38207">
        <ele>322</ele>
        <time>2024-04-14T07:59:58Z</time>
      </trkpt>
      <trkpt lat="45.9972" lon="3.38207">
        <ele>322.2</ele>
        <time>2024-04-14T07:59:59Z</time>
      </trkpt>
      <trkpt lat="45.99725" lon="3.38208">
        <ele>322.4</ele>
        <time>2024-04-14T08:00:00Z</time>
      </trkpt>
      <trkpt lat="45.9973" lon="3.38208">
        <ele>322.6</ele>
        <time>2024-04-14T08:00:01Z</time>
      </trkpt>
      <trkpt lat="45.99734" lon="3.38208">
        <ele>322.8</ele>
        <time>2024-04-14T08:00:02Z</time>
      </trkpt>
      <trkpt lat="45.99739" lon="3.38209">
        <ele>323</ele>
        <time>2024-04-14T08:00:03Z</time>
      </trkpt>
      <trkpt lat="45.99743" lon="3.38209">
        <ele>323.2</ele>
        <time>2024-04-14T08:00:04Z</time>
      </trkpt>
      <trkpt lat="45.99747" lon="3.38209">
        <ele>323.4</ele>
        <time>2024-04-14T08:00:05Z</time>
      </trkpt>
      <trkpt lat="45.99751" lon="3.38208">
        <ele>323.6</ele>
        <time>2024-04-14T08:00:06Z</time>
      </trkpt>
      <trkpt lat="45.99756" lon="3.38207">
        <ele>323.8</ele>
        <time>2024-04-14T08:00:07Z</time>
      </trkpt>
      <trkpt lat="45.9976" lon="3.38206">
        <ele>324</ele>
        <time>2024-04-14T08:00:08Z</time>
      </trkpt>
      <trkpt lat="45.99765" lon="3.38205">
        <ele>324.2</ele>
        <time>2024-04-14T08:00:09Z</time>
      </trkpt>
      <trkpt lat="45.99769" lon="3.38205">
        <ele>324.4</ele>
        <time>2024-04-14T08:00:10Z</time>
      </trkpt>
      <trkpt lat="45.99774" lon="3.38204">
        <ele>324.6</ele>
        <time>2024-04-14T08:00:11Z</time>
      </trkpt>
      <trkpt lat="45.99779" lon="3.38203">
        <ele>324.8</ele>
        <time>2024-04-14T08:00:12Z</time>
      </trkpt>
      <trkpt lat="45.99784" lon="3.38202">
        <ele>325</ele>
        <time>2024-04-14T08:00:13Z</time>
      </trkpt>
      <trkpt lat="45.99789" lon="3.382">
        <ele>325.2</ele>
        <time>2024-04-14T08:00:14Z</time>
      </trkpt>
      <trkpt lat="45.99793" lon="3.38195">
        <ele>325.4</ele>
        <time>2024-04-14T08:00:15Z</time>
      </trkpt>
      <trkpt lat="45.99796" lon="3.3819">
        <ele>325.4</ele>
        <time>2024-04-14T08:00:16Z</time>
      </trkpt>
      <trkpt lat="45.99799" lon="3.38185">
        <ele>325.6</ele>
        <time>2024-04-14T08:00:17Z</time>
      </trkpt>
      <trkpt lat="45.99802" lon="3.3818">
        <ele>325.8</ele>
        <time>2024-04-14T08:00:18Z</time>
      </trkpt>
      <trkpt lat="45.99804" lon="3.38174">
        <ele>326</ele>
        <time>2024-04-14T08:00:19Z</time>
      </trkpt>
      <trkpt lat="45.99806" lon="3.38168">
        <ele>326.2</ele>
        <time>2024-04-14T08:00:20Z</time>
      </trkpt>
      <trkpt lat="45.99808" lon="3.38162">
        <ele>326.4</ele>
        <time>2024-04-14T08:00:21Z</time>
      </trkpt>
      <trkpt lat="45.9981" lon="3.38156">
        <ele>326.6</ele>
        <time>2024-04-14T08:00:22Z</time>
      </trkpt>
      <trkpt lat="45.99812" lon="3.3815">
        <ele>326.8</ele>
        <time>2024-04-14T08:00:23Z</time>
      </trkpt>
      <trkpt lat="45.99814" lon="3.38145">
        <ele>327</ele>
        <time>2024-04-14T08:00:24Z</time>
      </trkpt>
      <trkpt lat="45.99815" lon="3.38139">
        <ele>327.2</ele>
        <time>2024-04-14T08:00:25Z</time>
      </trkpt>
      <trkpt lat="45.99817" lon="3.38134">
        <ele>327.4</ele>
        <time>2024-04-14T08:00:26Z</time>
      </trkpt>
      <trkpt lat="45.99819" lon="3.38129">
        <ele>327.6</ele>
        <time>2024-04-14T08:00:27Z</time>
      </trkpt>
      <trkpt lat="45.9982" lon="3.38124">
        <ele>327.8</ele>
        <time>2024-04-14T08:00:28Z</time>
      </trkpt>
      <trkpt lat="45.99823" lon="3.3812">
        <ele>328</ele>
        <time>2024-04-14T08:00:29Z</time>
      </trkpt>
      <trkpt lat="45.99826" lon="3.38117">
        <ele>328.2</ele>
        <time>2024-04-14T08:00:30Z</time>
      </trkpt>
      <trkpt lat="45.9983" lon="3.38113">
        <ele>328.4</ele>
        <time>2024-04-14T08:00:31Z</time>
      </trkpt>
      <trkpt lat="45.99834" lon="3.3811">
        <ele>328.4</ele>
        <time>2024-04-14T08:00:32Z</time>
      </trkpt>
      <trkpt lat="45.99838" lon="3.38106">
        <ele>328.6</ele>
        <time>2024-04-14T08:00:33Z</time>
      </trkpt>
      <trkpt lat="45.99842" lon="3.38102">
        <ele>328.6</ele>
        <time>2024-04-14T08:00:34Z</time>
      </trkpt>
      <trkpt lat="45.99848" lon="3.381">
        <ele>328.8</ele>
        <time>2024-04-14T08:00:35Z</time>
      </trkpt>
      <trkpt lat="45.99853" lon="3.38097">
        <ele>328.8</ele>
        <time>2024-04-14T08:00:36Z</time>
      </trkpt>
      <trkpt lat="45.99858" lon="3.38095">
        <ele>329</ele>
        <time>2024-04-14T08:00:37Z</time>
      </trkpt>
      <trkpt lat="45.99865" lon="3.38092">
        <ele>329</ele>
        <time>2024-04-14T08:00:38Z</time>
      </trkpt>
      <trkpt lat="45.99872" lon="3.38089">
        <ele>329</ele>
        <time>2024-04-14T08:00:39Z</time>
      </trkpt>
      <trkpt lat="45.99879" lon="3.38085">
        <ele>329</ele>
        <time>2024-04-14T08:00:40Z</time>
      </trkpt>
      <trkpt lat="45.99886" lon="3.38082">
        <ele>329</ele>
        <time>2024-04-14T08:00:41Z</time>
      </trkpt>
      <trkpt lat="45.99894" lon="3.38078">
        <ele>329</ele>
        <time>2024-04-14T08:00:42Z</time>
      </trkpt>
      <trkpt lat="45.99901" lon="3.38073">
        <ele>329</ele>
        <time>2024-04-14T08:00:43Z</time>
      </trkpt>
      <trkpt lat="45.99908" lon="3.38065">
        <ele>329</ele>
        <time>2024-04-14T08:00:44Z</time>
      </trkpt>
      <trkpt lat="45.99914" lon="3.38057">
        <ele>329</ele>
        <time>2024-04-14T08:00:45Z</time>
      </trkpt>
      <trkpt lat="45.99922" lon="3.38048">
        <ele>329</ele>
        <time>2024-04-14T08:00:46Z</time>
      </trkpt>
      <trkpt lat="45.99929" lon="3.38039">
        <ele>329</ele>
        <time>2024-04-14T08:00:47Z</time>
      </trkpt>
      <trkpt lat="45.99937" lon="3.38029">
        <ele>328.8</ele>
        <time>2024-04-14T08:00:48Z</time>
      </trkpt>
      <trkpt lat="45.99945" lon="3.3802">
        <ele>328.8</ele>
        <time>2024-04-14T08:00:49Z</time>
      </trkpt>
      <trkpt lat="45.99954" lon="3.38011">
        <ele>328.8</ele>
        <time>2024-04-14T08:00:50Z</time>
      </trkpt>
      <trkpt lat="45.99964" lon="3.38005">
        <ele>328.8</ele>
        <time>2024-04-14T08:00:51Z</time>
      </trkpt>
      <trkpt lat="45.99974" lon="3.37999">
        <ele>328.6</ele>
        <time>2024-04-14T08:00:52Z</time>
      </trkpt>
      <trkpt lat="45.99983" lon="3.37993">
        <ele>330</ele>
        <time>2024-04-14T08:00:53Z</time>
      </trkpt>
      <trkpt lat="45.99993" lon="3.37987">
        <ele>329.6</ele>
        <time>2024-04-14T08:00:54Z</time>
      </trkpt>
      <trkpt lat="46.00003" lon="3.37981">
        <ele>328.6</ele>
        <time>2024-04-14T08:00:55Z</time>
      </trkpt>
      <trkpt lat="46.00012" lon="3.37975">
        <ele>327.6</ele>
        <time>2024-04-14T08:00:56Z</time>
      </trkpt>
      <trkpt lat="46.00022" lon="3.37969">
        <ele>328</ele>
        <time>2024-04-14T08:00:57Z</time>
      </trkpt>
      <trkpt lat="46.00032" lon="3.37961">
        <ele>327.8</ele>
        <time>2024-04-14T08:00:58Z</time>
      </trkpt>
      <trkpt lat="46.00038" lon="3.37948">
        <ele>327.8</ele>
        <time>2024-04-14T08:00:59Z</time>
      </trkpt>
      <trkpt lat="46.00045" lon="3.37936">
        <ele>327.6</ele>
        <time>2024-04-14T08:01:00Z</time>
      </trkpt>
      <trkpt lat="46.00052" lon="3.37924">
        <ele>327.4</ele>
        <time>2024-04-14T08:01:01Z</time>
      </trkpt>
      <trkpt lat="46.00059" lon="3.37911">
        <ele>327.2</ele>
        <time>2024-04-14T08:01:02Z</time>
      </trkpt>
      <trkpt lat="46.00067" lon="3.37899">
        <ele>327</ele>
        <time>2024-04-14T08:01:03Z</time>
      </trkpt>
      <trkpt lat="46.00074" lon="3.37886">
        <ele>327</ele>
        <time>2024-04-14T08:01:04Z</time>
      </trkpt>
      <trkpt lat="46.00082" lon="3.37875">
        <ele>326.8</ele>
        <time>2024-04-14T08:01:05Z</time>
      </trkpt>
      <trkpt lat="46.00091" lon="3.37865">
        <ele>326.8</ele>
        <time>2024-04-14T08:01:06Z</time>
      </trkpt>
      <trkpt lat="46.001" lon="3.37855">
        <ele>326.8</ele>
        <time>2024-04-14T08:01:07Z</time>
      </trkpt>
      <trkpt lat="46.00108" lon="3.37846">
        <ele>326.8</ele>
        <time>2024-04-14T08:01:08Z</time>
      </trkpt>
      <trkpt lat="46.00116" lon="3.37838">
        <ele>326.6</ele>
        <time>2024-04-14T08:01:09Z</time>
      </trkpt>
      <trkpt lat="46.00124" lon="3.3783">
        <ele>326.6</ele>
        <time>2024-04-14T08:01:10Z</time>
      </trkpt>
      <trkpt lat="46.00131" lon="3.37822">
        <ele>326.6</ele>
        <time>2024-04-14T08:01:11Z</time>
      </trkpt>
      <trkpt lat="46.00138" lon="3.37814">
        <ele>326.6</ele>
        <time>2024-04-14T08:01:12Z</time>
      </trkpt>
      <trkpt lat="46.00145" lon="3.37807">
        <ele>326.8</ele>
        <time>2024-04-14T08:01:13Z</time>
      </trkpt>
      <trkpt lat="46.00151" lon="3.378">
        <ele>326.8</ele>
        <time>2024-04-14T08:01:14Z</time>
      </trkpt>
      <trkpt lat="46.00158" lon="3.37794">
        <ele>326.8</ele>
        <time>2024-04-14T08:01:15Z</time>
      </trkpt>
      <trkpt lat="46.00165" lon="3.37789">
        <ele>327</ele>
        <time>2024-04-14T08:01:16Z</time>
      </trkpt>
      <trkpt lat="46.00171" lon="3.37784">
        <ele>327</ele>
        <time>2024-04-14T08:01:17Z</time>
      </trkpt>
      <trkpt lat="46.00178" lon="3.37779">
        <ele>327</ele>
        <time>2024-04-14T08:01:18Z</time>
      </trkpt>
      <trkpt lat="46.00184" lon="3.37774">
        <ele>327</ele>
        <time>2024-04-14T08:01:19Z</time>
      </trkpt>
      <trkpt lat="46.0019" lon="3.37769">
        <ele>327.2</ele>
        <time>2024-04-14T08:01:20Z</time>
      </trkpt>
      <trkpt lat="46.00196" lon="3.37764">
        <ele>326.2</ele>
        <time>2024-04-14T08:01:21Z</time>
      </trkpt>
      <trkpt lat="46.00202" lon="3.37759">
        <ele>326.4</ele>
        <time>2024-04-14T08:01:22Z</time>
      </trkpt>
      <trkpt lat="46.00207" lon="3.37755">
        <ele>326.8</ele>
        <time>2024-04-14T08:01:23Z</time>
      </trkpt>
      <trkpt lat="46.00213" lon="3.3775">
        <ele>327.2</ele>
        <time>2024-04-14T08:01:24Z</time>
      </trkpt>
      <trkpt lat="46.00219" lon="3.37746">
        <ele>327.4</ele>
        <time>2024-04-14T08:01:25Z</time>
      </trkpt>
      <trkpt lat="46.00224" lon="3.37741">
        <ele>327.8</ele>
        <time>2024-04-14T08:01:26Z</time>
      </trkpt>
      <trkpt lat="46.0023" lon="3.37737">
        <ele>328</ele>
        <time>2024-04-14T08:01:27Z</time>
      </trkpt>
      <trkpt lat="46.00235" lon="3.37733">
        <ele>328.2</ele>
        <time>2024-04-14T08:01:28Z</time>
      </trkpt>
      <trkpt lat="46.0024" lon="3.37728">
        <ele>327.4</ele>
        <time>2024-04-14T08:01:29Z</time>
      </trkpt>
      <trkpt lat="46.00246" lon="3.37724">
        <ele>327.4</ele>
        <time>2024-04-14T08:01:30Z</time>
      </trkpt>
      <trkpt lat="46.00252" lon="3.37719">
        <ele>327.4</ele>
        <time>2024-04-14T08:01:31Z</time>
      </trkpt>
      <trkpt lat="46.00257" lon="3.37715">
        <ele>327.6</ele>
        <time>2024-04-14T08:01:32Z</time>
      </trkpt>
      <trkpt lat="46.00263" lon="3.3771">
        <ele>327.6</ele>
        <time>2024-04-14T08:01:33Z</time>
      </trkpt>
      <trkpt lat="46.00268" lon="3.37706">
        <ele>327.6</ele>
        <time>2024-04-14T08:01:34Z</time>
      </trkpt>
      <trkpt lat="46.00274" lon="3.37702">
        <ele>327.6</ele>
        <time>2024-04-14T08:01:35Z</time>
      </trkpt>
      <trkpt lat="46.00279" lon="3.37697">
        <ele>327.6</ele>
        <time>2024-04-14T08:01:36Z</time>
      </trkpt>
      <trkpt lat="46.00284" lon="3.37693">
        <ele>327.6</ele>
        <time>2024-04-14T08:01:37Z</time>
      </trkpt>
      <trkpt lat="46.00289" lon="3.37689">
        <ele>327.6</ele>
        <time>2024-04-14T08:01:38Z</time>
      </trkpt>
      <trkpt lat="46.00294" lon="3.37685">
        <ele>327.6</ele>
        <time>2024-04-14T08:01:39Z</time>
      </trkpt>
      <trkpt lat="46.00299" lon="3.37681">
        <ele>327.6</ele>
        <time>2024-04-14T08:01:40Z</time>
      </trkpt>
      <trkpt lat="46.00304" lon="3.37677">
        <ele>327.6</ele>
        <time>2024-04-14T08:01:41Z</time>
      </trkpt>
      <trkpt lat="46.00309" lon="3.37673">
        <ele>327.6</ele>
        <time>2024-04-14T08:01:42Z</time>
      </trkpt>
      <trkpt lat="46.00314" lon="3.37668">
        <ele>327.8</ele>
        <time>2024-04-14T08:01:43Z</time>
      </trkpt>
      <trkpt lat="46.00319" lon="3.37663">
        <ele>327.8</ele>
        <time>2024-04-14T08:01:44Z</time>
      </trkpt>
      <trkpt lat="46.00324" lon="3.37658">
        <ele>327.8</ele>
        <time>2024-04-14T08:01:45Z</time>
      </trkpt>
      <trkpt lat="46.00329" lon="3.37653">
        <ele>328</ele>
        <time>2024-04-14T08:01:46Z</time>
      </trkpt>
      <trkpt lat="46.00335" lon="3.37647">
        <ele>328</ele>
        <time>2024-04-14T08:01:47Z</time>
      </trkpt>
      <trkpt lat="46.0034" lon="3.37642">
        <ele>328</ele>
        <time>2024-04-14T08:01:48Z</time>
      </trkpt>
      <trkpt lat="46.00346" lon="3.37637">
        <ele>328</ele>
        <time>2024-04-14T08:01:49Z</time>
      </trkpt>
      <trkpt lat="46.00351" lon="3.37632">
        <ele>328.2</ele>
        <time>2024-04-14T08:01:50Z</time>
      </trkpt>
      <trkpt lat="46.00357" lon="3.37626">
        <ele>328.2</ele>
        <time>2024-04-14T08:01:51Z</time>
      </trkpt>
      <trkpt lat="46.00362" lon="3.37621">
        <ele>328.2</ele>
        <time>2024-04-14T08:01:52Z</time>
      </trkpt>
      <trkpt lat="46.00368" lon="3.37616">
        <ele>328.2</ele>
        <time>2024-04-14T08:01:53Z</time>
      </trkpt>
      <trkpt lat="46.00373" lon="3.3761">
        <ele>328.4</ele>
        <time>2024-04-14T08:01:54Z</time>
      </trkpt>
      <trkpt lat="46.00377" lon="3.37603">
        <ele>328.4</ele>
        <time>2024-04-14T08:01:55Z</time>
      </trkpt>
      <trkpt lat="46.00382" lon="3.37597">
        <ele>328.4</ele>
        <time>2024-04-14T08:01:56Z</time>
      </trkpt>
      <trkpt lat="46.00386" lon="3.3759">
        <ele>328.6</ele>
        <time>2024-04-14T08:01:57Z</time>
      </trkpt>
      <trkpt lat="46.00391" lon="3.37584">
        <ele>328.6</ele>
        <time>2024-04-14T08:01:58Z</time>
      </trkpt>
      <trkpt lat="46.00395" lon="3.37578">
        <ele>328.8</ele>
        <time>2024-04-14T08:01:59Z</time>
      </trkpt>
      <trkpt lat="46.004" lon="3.37571">
        <ele>328.8</ele>
        <time>2024-04-14T08:02:00Z</time>
      </trkpt>
      <trkpt lat="46.00404" lon="3.37565">
        <ele>328.8</ele>
        <time>2024-04-14T08:02:01Z</time>
      </trkpt>
      <trkpt lat="46.00409" lon="3.37559">
        <ele>328.8</ele>
        <time>2024-04-14T08:02:02Z</time>
      </trkpt>
      <trkpt lat="46.00413" lon="3.37552">
        <ele>328.8</ele>
        <time>2024-04-14T08:02:03Z</time>
      </trkpt>
      <trkpt lat="46.00418" lon="3.37546">
        <ele>329</ele>
        <time>2024-04-14T08:02:04Z</time>
      </trkpt>
      <trkpt lat="46.00422" lon="3.3754">
        <ele>329</ele>
        <time>2024-04-14T08:02:05Z</time>
      </trkpt>
      <trkpt lat="46.00426" lon="3.37534">
        <ele>329</ele>
        <time>2024-04-14T08:02:06Z</time>
      </trkpt>
      <trkpt lat="46.0043" lon="3.37528">
        <ele>329.2</ele>
        <time>2024-04-14T08:02:07Z</time>
      </trkpt>
      <trkpt lat="46.00434" lon="3.37523">
        <ele>329.2</ele>
        <time>2024-04-14T08:02:08Z</time>
      </trkpt>
      <trkpt lat="46.00438" lon="3.37517">
        <ele>329.2</ele>
        <time>2024-04-14T08:02:09Z</time>
      </trkpt>
      <trkpt lat="46.00442" lon="3.37511">
        <ele>329.2</ele>
        <time>2024-04-14T08:02:10Z</time>
      </trkpt>
      <trkpt lat="46.00446" lon="3.37505">
        <ele>329.4</ele>
        <time>2024-04-14T08:02:11Z</time>
      </trkpt>
      <trkpt lat="46.0045" lon="3.375">
        <ele>329.4</ele>
        <time>2024-04-14T08:02:12Z</time>
      </trkpt>
      <trkpt lat="46.00454" lon="3.37494">
        <ele>329.4</ele>
        <time>2024-04-14T08:02:13Z</time>
      </trkpt>
      <trkpt lat="46.00458" lon="3.37489">
        <ele>329.4</ele>
        <time>2024-04-14T08:02:14Z</time>
      </trkpt>
      <trkpt lat="46.00462" lon="3.37483">
        <ele>329.6</ele>
        <time>2024-04-14T08:02:15Z</time>
      </trkpt>
      <trkpt lat="46.00466" lon="3.37478">
        <ele>329.6</ele>
        <time>2024-04-14T08:02:16Z</time>
      </trkpt>
      <trkpt lat="46.00469" lon="3.37472">
        <ele>329.6</ele>
        <time>2024-04-14T08:02:17Z</time>
      </trkpt>
      <trkpt lat="46.00473" lon="3.37467">
        <ele>329.8</ele>
        <time>2024-04-14T08:02:18Z</time>
      </trkpt>
      <trkpt lat="46.00477" lon="3.37461">
        <ele>329.8</ele>
        <time>2024-04-14T08:02:19Z</time>
      </trkpt>
      <trkpt lat="46.00481" lon="3.37456">
        <ele>330</ele>
        <time>2024-04-14T08:02:20Z</time>
      </trkpt>
      <trkpt lat="46.00486" lon="3.37451">
        <ele>330</ele>
        <time>2024-04-14T08:02:21Z</time>
      </trkpt>
      <trkpt lat="46.0049" lon="3.37447">
        <ele>330</ele>
        <time>2024-04-14T08:02:22Z</time>
      </trkpt>
      <trkpt lat="46.00495" lon="3.37443">
        <ele>330.2</ele>
        <time>2024-04-14T08:02:23Z</time>
      </trkpt>
      <trkpt lat="46.005" lon="3.37439">
        <ele>330.2</ele>
        <time>2024-04-14T08:02:24Z</time>
      </trkpt>
      <trkpt lat="46.00505" lon="3.37435">
        <ele>330.4</ele>
        <time>2024-04-14T08:02:25Z</time>
      </trkpt>
      <trkpt lat="46.00509" lon="3.37431">
        <ele>330.4</ele>
        <time>2024-04-14T08:02:26Z</time>
      </trkpt>
      <trkpt lat="46.00513" lon="3.37428">
        <ele>330.6</ele>
        <time>2024-04-14T08:02:27Z</time>
      </trkpt>
      <trkpt lat="46.00518" lon="3.37424">
        <ele>330.6</ele>
        <time>2024-04-14T08:02:28Z</time>
      </trkpt>
      <trkpt lat="46.00522" lon="3.37421">
        <ele>330.8</ele>
        <time>2024-04-14T08:02:29Z</time>
      </trkpt>
      <trkpt lat="46.00526" lon="3.37417">
        <ele>330.8</ele>
        <time>2024-04-14T08:02:30Z</time>
      </trkpt>
      <trkpt lat="46.0053" lon="3.37414">
        <ele>331</ele>
        <time>2024-04-14T08:02:31Z</time>
      </trkpt>
      <trkpt lat="46.00534" lon="3.3741">
        <ele>331</ele>
        <time>2024-04-14T08:02:32Z</time>
      </trkpt>
      <trkpt lat="46.00539" lon="3.37407">
        <ele>331.2</ele>
        <time>2024-04-14T08:02:33Z</time>
      </trkpt>
      <trkpt lat="46.00542" lon="3.37404">
        <ele>331.2</ele>
        <time>2024-04-14T08:02:34Z</time>
      </trkpt>
      <trkpt lat="46.00546" lon="3.374">
        <ele>331.2</ele>
        <time>2024-04-14T08:02:35Z</time>
      </trkpt>
      <trkpt lat="46.0055" lon="3.37397">
        <ele>331.4</ele>
        <time>2024-04-14T08:02:36Z</time>
      </trkpt>
      <trkpt lat="46.00554" lon="3.37394">
        <ele>331.4</ele>
        <time>2024-04-14T08:02:37Z</time>
      </trkpt>
      <trkpt lat="46.00558" lon="3.3739">
        <ele>331.6</ele>
        <time>2024-04-14T08:02:38Z</time>
      </trkpt>
      <trkpt lat="46.00562" lon="3.37387">
        <ele>331.6</ele>
        <time>2024-04-14T08:02:39Z</time>
      </trkpt>
      <trkpt lat="46.00566" lon="3.37384">
        <ele>331.8</ele>
        <time>2024-04-14T08:02:40Z</time>
      </trkpt>
      <trkpt lat="46.0057" lon="3.3738">
        <ele>331.8</ele>
        <time>2024-04-14T08:02:41Z</time>
      </trkpt>
      <trkpt lat="46.00574" lon="3.37377">
        <ele>332</ele>
        <time>2024-04-14T08:02:42Z</time>
      </trkpt>
      <trkpt lat="46.00578" lon="3.37374">
        <ele>332</ele>
        <time>2024-04-14T08:02:43Z</time>
      </trkpt>
      <trkpt lat="46.00582" lon="3.3737">
        <ele>332.2</ele>
        <time>2024-04-14T08:02:44Z</time>
      </trkpt>
      <trkpt lat="46.00586" lon="3.37367">
        <ele>332.4</ele>
        <time>2024-04-14T08:02:45Z</time>
      </trkpt>
      <trkpt lat="46.0059" lon="3.37364">
        <ele>332.4</ele>
        <time>2024-04-14T08:02:46Z</time>
      </trkpt>
      <trkpt lat="46.00593" lon="3.37361">
        <ele>332.6</ele>
        <time>2024-04-14T08:02:47Z</time>
      </trkpt>
      <trkpt lat="46.00597" lon="3.37358">
        <ele>332.6</ele>
        <time>2024-04-14T08:02:48Z</time>
      </trkpt>
      <trkpt lat="46.00601" lon="3.37354">
        <ele>332.8</ele>
        <time>2024-04-14T08:02:49Z</time>
      </trkpt>
      <trkpt lat="46.00605" lon="3.37351">
        <ele>333</ele>
        <time>2024-04-14T08:02:50Z</time>
      </trkpt>
      <trkpt lat="46.00609" lon="3.37348">
        <ele>333</ele>
        <time>2024-04-14T08:02:51Z</time>
      </trkpt>
      <trkpt lat="46.00613" lon="3.37345">
        <ele>333.2</ele>
        <time>2024-04-14T08:02:52Z</time>
      </trkpt>
      <trkpt lat="46.00616" lon="3.37342">
        <ele>333.2</ele>
        <time>2024-04-14T08:02:53Z</time>
      </trkpt>
      <trkpt lat="46.0062" lon="3.37338">
        <ele>333.4</ele>
        <time>2024-04-14T08:02:54Z</time>
      </trkpt>
      <trkpt lat="46.00624" lon="3.37335">
        <ele>333.6</ele>
        <time>2024-04-14T08:02:55Z</time>
      </trkpt>
      <trkpt lat="46.00627" lon="3.37333">
        <ele>333.6</ele>
        <time>2024-04-14T08:02:56Z</time>
      </trkpt>
      <trkpt lat="46.00631" lon="3.37329">
        <ele>333.8</ele>
        <time>2024-04-14T08:02:57Z</time>
      </trkpt>
      <trkpt lat="46.00635" lon="3.37326">
        <ele>333.8</ele>
        <time>2024-04-14T08:02:58Z</time>
      </trkpt>
      <trkpt lat="46.00638" lon="3.37323">
        <ele>334</ele>
        <time>2024-04-14T08:02:59Z</time>
      </trkpt>
      <trkpt lat="46.00641" lon="3.37321">
        <ele>334.2</ele>
        <time>2024-04-14T08:03:00Z</time>
      </trkpt>
      <trkpt lat="46.00644" lon="3.37318">
        <ele>334.2</ele>
        <time>2024-04-14T08:03:01Z</time>
      </trkpt>
      <trkpt lat="46.00647" lon="3.37316">
        <ele>334.4</ele>
        <time>2024-04-14T08:03:02Z</time>
      </trkpt>
      <trkpt lat="46.00651" lon="3.37313">
        <ele>334.4</ele>
        <time>2024-04-14T08:03:03Z</time>
      </trkpt>
      <trkpt lat="46.00654" lon="3.3731">
        <ele>334.6</ele>
        <time>2024-04-14T08:03:04Z</time>
      </trkpt>
      <trkpt lat="46.00657" lon="3.37307">
        <ele>334.6</ele>
        <time>2024-04-14T08:03:05Z</time>
      </trkpt>
      <trkpt lat="46.00661" lon="3.37304">
        <ele>334.8</ele>
        <time>2024-04-14T08:03:06Z</time>
      </trkpt>
      <trkpt lat="46.00665" lon="3.37301">
        <ele>335</ele>
        <time>2024-04-14T08:03:07Z</time>
      </trkpt>
      <trkpt lat="46.00669" lon="3.37297">
        <ele>335</ele>
        <time>2024-04-14T08:03:08Z</time>
      </trkpt>
      <trkpt lat="46.00673" lon="3.37294">
        <ele>335.2</ele>
        <time>2024-04-14T08:03:09Z</time>
      </trkpt>
      <trkpt lat="46.00677" lon="3.3729">
        <ele>335.4</ele>
        <time>2024-04-14T08:03:10Z</time>
      </trkpt>
      <trkpt lat="46.00682" lon="3.37287">
        <ele>335.6</ele>
        <time>2024-04-14T08:03:11Z</time>
      </trkpt>
      <trkpt lat="46.00686" lon="3.37284">
        <ele>335.6</ele>
        <time>2024-04-14T08:03:12Z</time>
      </trkpt>
      <trkpt lat="46.00691" lon="3.37281">
        <ele>335.8</ele>
        <time>2024-04-14T08:03:13Z</time>
      </trkpt>
      <trkpt lat="46.00695" lon="3.37278">
        <ele>336</ele>
        <time>2024-04-14T08:03:14Z</time>
      </trkpt>
      <trkpt lat="46.00699" lon="3.37275">
        <ele>336.2</ele>
        <time>2024-04-14T08:03:15Z</time>
      </trkpt>
      <trkpt lat="46.00703" lon="3.37272">
        <ele>336.4</ele>
        <time>2024-04-14T08:03:16Z</time>
      </trkpt>
      <trkpt lat="46.00707" lon="3.37269">
        <ele>336.4</ele>
        <time>2024-04-14T08:03:17Z</time>
      </trkpt>
      <trkpt lat="46.00711" lon="3.37266">
        <ele>336.6</ele>
        <time>2024-04-14T08:03:18Z</time>
      </trkpt>
      <trkpt lat="46.00716" lon="3.37263">
        <ele>336.8</ele>
        <time>2024-04-14T08:03:19Z</time>
      </trkpt>
      <trkpt lat="46.0072" lon="3.3726">
        <ele>337</ele>
        <time>2024-04-14T08:03:20Z</time>
      </trkpt>
      <trkpt lat="46.00725" lon="3.37257">
        <ele>337.2</ele>
        <time>2024-04-14T08:03:21Z</time>
      </trkpt>
      <trkpt lat="46.00729" lon="3.37254">
        <ele>337.2</ele>
        <time>2024-04-14T08:03:22Z</time>
      </trkpt>
      <trkpt lat="46.00733" lon="3.37251">
        <ele>337.4</ele>
        <time>2024-04-14T08:03:23Z</time>
      </trkpt>
      <trkpt lat="46.00738" lon="3.37248">
        <ele>337.6</ele>
        <time>2024-04-14T08:03:24Z</time>
      </trkpt>
      <trkpt lat="46.00742" lon="3.37245">
        <ele>337.8</ele>
        <time>2024-04-14T08:03:25Z</time>
      </trkpt>
      <trkpt lat="46.00746" lon="3.37242">
        <ele>337.8</ele>
        <time>2024-04-14T08:03:26Z</time>
      </trkpt>
      <trkpt lat="46.00751" lon="3.37239">
        <ele>338</ele>
        <time>2024-04-14T08:03:27Z</time>
      </trkpt>
      <trkpt lat="46.00755" lon="3.37237">
        <ele>338.2</ele>
        <time>2024-04-14T08:03:28Z</time>
      </trkpt>
      <trkpt lat="46.0076" lon="3.37234">
        <ele>338.2</ele>
        <time>2024-04-14T08:03:29Z</time>
      </trkpt>
      <trkpt lat="46.00764" lon="3.37231">
        <ele>338.4</ele>
        <time>2024-04-14T08:03:30Z</time>
      </trkpt>
      <trkpt lat="46.00769" lon="3.37228">
        <ele>338.6</ele>
        <time>2024-04-14T08:03:31Z</time>
      </trkpt>
      <trkpt lat="46.00773" lon="3.37225">
        <ele>338.6</ele>
        <time>2024-04-14T08:03:32Z</time>
      </trkpt>
      <trkpt lat="46.00778" lon="3.37222">
        <ele>338.6</ele>
        <time>2024-04-14T08:03:33Z</time>
      </trkpt>
      <trkpt lat="46.00783" lon="3.37219">
        <ele>338.8</ele>
        <time>2024-04-14T08:03:34Z</time>
      </trkpt>
      <trkpt lat="46.00787" lon="3.37215">
        <ele>339</ele>
        <time>2024-04-14T08:03:35Z</time>
      </trkpt>
      <trkpt lat="46.00791" lon="3.37211">
        <ele>339</ele>
        <time>2024-04-14T08:03:36Z</time>
      </trkpt>
      <trkpt lat="46.00796" lon="3.37207">
        <ele>339.2</ele>
        <time>2024-04-14T08:03:37Z</time>
      </trkpt>
      <trkpt lat="46.008" lon="3.37203">
        <ele>339.2</ele>
        <time>2024-04-14T08:03:38Z</time>
      </trkpt>
      <trkpt lat="46.00805" lon="3.37199">
        <ele>339.4</ele>
        <time>2024-04-14T08:03:39Z</time>
      </trkpt>
      <trkpt lat="46.00809" lon="3.37195">
        <ele>339.4</ele>
        <time>2024-04-14T08:03:40Z</time>
      </trkpt>
      <trkpt lat="46.00813" lon="3.37189">
        <ele>339.6</ele>
        <time>2024-04-14T08:03:41Z</time>
      </trkpt>
      <trkpt lat="46.00818" lon="3.37183">
        <ele>339.6</ele>
        <time>2024-04-14T08:03:42Z</time>
      </trkpt>
      <trkpt lat="46.00823" lon="3.37176">
        <ele>339.8</ele>
        <time>2024-04-14T08:03:43Z</time>
      </trkpt>
      <trkpt lat="46.00828" lon="3.37168">
        <ele>339.8</ele>
        <time>2024-04-14T08:03:44Z</time>
      </trkpt>
      <trkpt lat="46.00834" lon="3.3716">
        <ele>339.8</ele>
        <time>2024-04-14T08:03:45Z</time>
      </trkpt>
      <trkpt lat="46.00839" lon="3.37151">
        <ele>339.8</ele>
        <time>2024-04-14T08:03:46Z</time>
      </trkpt>
      <trkpt lat="46.00843" lon="3.37141">
        <ele>339.8</ele>
        <time>2024-04-14T08:03:47Z</time>
      </trkpt>
      <trkpt lat="46.00846" lon="3.3713">
        <ele>339.8</ele>
        <time>2024-04-14T08:03:48Z</time>
      </trkpt>
      <trkpt lat="46.0085" lon="3.37118">
        <ele>339.8</ele>
        <time>2024-04-14T08:03:49Z</time>
      </trkpt>
      <trkpt lat="46.00854" lon="3.37106">
        <ele>339.8</ele>
        <time>2024-04-14T08:03:50Z</time>
      </trkpt>
      <trkpt lat="46.00859" lon="3.37094">
        <ele>339.8</ele>
        <time>2024-04-14T08:03:51Z</time>
      </trkpt>
      <trkpt lat="46.00863" lon="3.37082">
        <ele>339.8</ele>
        <time>2024-04-14T08:03:52Z</time>
      </trkpt>
      <trkpt lat="46.00867" lon="3.37069">
        <ele>339.6</ele>
        <time>2024-04-14T08:03:53Z</time>
      </trkpt>
      <trkpt lat="46.00872" lon="3.37056">
        <ele>339.6</ele>
        <time>2024-04-14T08:03:54Z</time>
      </trkpt>
      <trkpt lat="46.00876" lon="3.37043">
        <ele>339.6</ele>
        <time>2024-04-14T08:03:55Z</time>
      </trkpt>
      <trkpt lat="46.00881" lon="3.37029">
        <ele>339.4</ele>
        <time>2024-04-14T08:03:56Z</time>
      </trkpt>
      <trkpt lat="46.00886" lon="3.37016">
        <ele>339.4</ele>
        <time>2024-04-14T08:03:57Z</time>
      </trkpt>
      <trkpt lat="46.00889" lon="3.37001">
        <ele>340.2</ele>
        <time>2024-04-14T08:03:58Z</time>
      </trkpt>
      <trkpt lat="46.00893" lon="3.36987">
        <ele>339.4</ele>
        <time>2024-04-14T08:03:59Z</time>
      </trkpt>
      <trkpt lat="46.00897" lon="3.36973">
        <ele>339</ele>
        <time>2024-04-14T08:04:00Z</time>
      </trkpt>
      <trkpt lat="46.009" lon="3.36959">
        <ele>338.4</ele>
        <time>2024-04-14T08:04:01Z</time>
      </trkpt>
      <trkpt lat="46.00903" lon="3.36945">
        <ele>339</ele>
        <time>2024-04-14T08:04:02Z</time>
      </trkpt>
      <trkpt lat="46.00906" lon="3.36932">
        <ele>338.8</ele>
        <time>2024-04-14T08:04:03Z</time>
      </trkpt>
      <trkpt lat="46.00913" lon="3.36921">
        <ele>338.8</ele>
        <time>2024-04-14T08:04:04Z</time>
      </trkpt>
      <trkpt lat="46.00919" lon="3.36911">
        <ele>338.8</ele>
        <time>2024-04-14T08:04:05Z</time>
      </trkpt>
      <trkpt lat="46.00926" lon="3.369">
        <ele>338.8</ele>
        <time>2024-04-14T08:04:06Z</time>
      </trkpt>
      <trkpt lat="46.00932" lon="3.3689">
        <ele>338.8</ele>
        <time>2024-04-14T08:04:07Z</time>
      </trkpt>
      <trkpt lat="46.00938" lon="3.3688">
        <ele>338.8</ele>
        <time>2024-04-14T08:04:08Z</time>
      </trkpt>
      <trkpt lat="46.00944" lon="3.3687">
        <ele>338.8</ele>
        <time>2024-04-14T08:04:09Z</time>
      </trkpt>
      <trkpt lat="46.0095" lon="3.3686">
        <ele>338.8</ele>
        <time>2024-04-14T08:04:10Z</time>
      </trkpt>
      <trkpt lat="46.00954" lon="3.36851">
        <ele>338.8</ele>
        <time>2024-04-14T08:04:11Z</time>
      </trkpt>
      <trkpt lat="46.00959" lon="3.36842">
        <ele>338.8</ele>
        <time>2024-04-14T08:04:12Z</time>
      </trkpt>
      <trkpt lat="46.00964" lon="3.36833">
        <ele>338.8</ele>
        <time>2024-04-14T08:04:13Z</time>
      </trkpt>
      <trkpt lat="46.00968" lon="3.36825">
        <ele>338.8</ele>
        <time>2024-04-14T08:04:14Z</time>
      </trkpt>
      <trkpt lat="46.00972" lon="3.36817">
        <ele>338.8</ele>
        <time>2024-04-14T08:04:15Z</time>
      </trkpt>
      <trkpt lat="46.00976" lon="3.36809">
        <ele>339</ele>
        <time>2024-04-14T08:04:16Z</time>
      </trkpt>
      <trkpt lat="46.0098" lon="3.36801">
        <ele>339</ele>
        <time>2024-04-14T08:04:17Z</time>
      </trkpt>
      <trkpt lat="46.00984" lon="3.36794">
        <ele>338.2</ele>
        <time>2024-04-14T08:04:18Z</time>
      </trkpt>
      <trkpt lat="46.00988" lon="3.36786">
        <ele>338.4</ele>
        <time>2024-04-14T08:04:19Z</time>
      </trkpt>
      <trkpt lat="46.00992" lon="3.36778">
        <ele>338.6</ele>
        <time>2024-04-14T08:04:20Z</time>
      </trkpt>
      <trkpt lat="46.00996" lon="3.36771">
        <ele>338.8</ele>
        <time>2024-04-14T08:04:21Z</time>
      </trkpt>
      <trkpt lat="46.01" lon="3.36763">
        <ele>339</ele>
        <time>2024-04-14T08:04:22Z</time>
      </trkpt>
      <trkpt lat="46.01006" lon="3.36758">
        <ele>339</ele>
        <time>2024-04-14T08:04:23Z</time>
      </trkpt>
      <trkpt lat="46.01012" lon="3.36754">
        <ele>339.2</ele>
        <time>2024-04-14T08:04:24Z</time>
      </trkpt>
      <trkpt lat="46.01018" lon="3.36751">
        <ele>339.4</ele>
        <time>2024-04-14T08:04:25Z</time>
      </trkpt>
      <trkpt lat="46.01024" lon="3.36747">
        <ele>339.4</ele>
        <time>2024-04-14T08:04:26Z</time>
      </trkpt>
      <trkpt lat="46.0103" lon="3.36743">
        <ele>339.4</ele>
        <time>2024-04-14T08:04:27Z</time>
      </trkpt>
      <trkpt lat="46.01036" lon="3.36739">
        <ele>339.6</ele>
        <time>2024-04-14T08:04:28Z</time>
      </trkpt>
      <trkpt lat="46.01042" lon="3.36736">
        <ele>339.6</ele>
        <time>2024-04-14T08:04:29Z</time>
      </trkpt>
      <trkpt lat="46.01049" lon="3.36731">
        <ele>339.6</ele>
        <time>2024-04-14T08:04:30Z</time>
      </trkpt>
      <trkpt lat="46.01054" lon="3.36726">
        <ele>339.6</ele>
        <time>2024-04-14T08:04:31Z</time>
      </trkpt>
      <trkpt lat="46.0106" lon="3.36722">
        <ele>339.4</ele>
        <time>2024-04-14T08:04:32Z</time>
      </trkpt>
      <trkpt lat="46.01066" lon="3.36717">
        <ele>339.6</ele>
        <time>2024-04-14T08:04:33Z</time>
      </trkpt>
      <trkpt lat="46.01072" lon="3.36712">
        <ele>339.6</ele>
        <time>2024-04-14T08:04:34Z</time>
      </trkpt>
      <trkpt lat="46.01078" lon="3.36707">
        <ele>339.6</ele>
        <time>2024-04-14T08:04:35Z</time>
      </trkpt>
      <trkpt lat="46.01084" lon="3.36702">
        <ele>339.4</ele>
        <time>2024-04-14T08:04:36Z</time>
      </trkpt>
      <trkpt lat="46.01089" lon="3.36697">
        <ele>339.2</ele>
        <time>2024-04-14T08:04:37Z</time>
      </trkpt>
      <trkpt lat="46.01095" lon="3.36692">
        <ele>339.2</ele>
        <time>2024-04-14T08:04:38Z</time>
      </trkpt>
      <trkpt lat="46.01101" lon="3.36688">
        <ele>339</ele>
        <time>2024-04-14T08:04:39Z</time>
      </trkpt>
      <trkpt lat="46.01107" lon="3.36683">
        <ele>339</ele>
        <time>2024-04-14T08:04:40Z</time>
      </trkpt>
      <trkpt lat="46.01112" lon="3.36678">
        <ele>338.8</ele>
        <time>2024-04-14T08:04:41Z</time>
      </trkpt>
      <trkpt lat="46.01118" lon="3.36674">
        <ele>338.6</ele>
        <time>2024-04-14T08:04:42Z</time>
      </trkpt>
      <trkpt lat="46.01123" lon="3.36669">
        <ele>338.4</ele>
        <time>2024-04-14T08:04:43Z</time>
      </trkpt>
      <trkpt lat="46.01128" lon="3.36663">
        <ele>338.4</ele>
        <time>2024-04-14T08:04:44Z</time>
      </trkpt>
      <trkpt lat="46.01133" lon="3.36656">
        <ele>338.4</ele>
        <time>2024-04-14T08:04:45Z</time>
      </trkpt>
      <trkpt lat="46.01137" lon="3.36649">
        <ele>338.2</ele>
        <time>2024-04-14T08:04:46Z</time>
      </trkpt>
      <trkpt lat="46.0114" lon="3.36642">
        <ele>338.8</ele>
        <time>2024-04-14T08:04:47Z</time>
      </trkpt>
      <trkpt lat="46.01141" lon="3.36634">
        <ele>338.8</ele>
        <time>2024-04-14T08:04:48Z</time>
      </trkpt>
      <trkpt lat="46.01141" lon="3.36625">
        <ele>338.6</ele>
        <time>2024-04-14T08:04:49Z</time>
      </trkpt>
      <trkpt lat="46.01141" lon="3.36616">
        <ele>338.6</ele>
        <time>2024-04-14T08:04:50Z</time>
      </trkpt>
      <trkpt lat="46.01141" lon="3.36607">
        <ele>338.6</ele>
        <time>2024-04-14T08:04:51Z</time>
      </trkpt>
      <trkpt lat="46.01141" lon="3.36599">
        <ele>338.6</ele>
        <time>2024-04-14T08:04:52Z</time>
      </trkpt>
      <trkpt lat="46.01141" lon="3.36591">
        <ele>338.4</ele>
        <time>2024-04-14T08:04:53Z</time>
      </trkpt>
      <trkpt lat="46.01141" lon="3.36583">
        <ele>338.4</ele>
        <time>2024-04-14T08:04:54Z</time>
      </trkpt>
      <trkpt lat="46.01141" lon="3.36575">
        <ele>338.4</ele>
        <time>2024-04-14T08:04:55Z</time>
      </trkpt>
      <trkpt lat="46.01141" lon="3.36567">
        <ele>338.4</ele>
        <time>2024-04-14T08:04:56Z</time>
      </trkpt>
      <trkpt lat="46.01141" lon="3.36559">
        <ele>338.2</ele>
        <time>2024-04-14T08:04:57Z</time>
      </trkpt>
      <trkpt lat="46.01141" lon="3.36552">
        <ele>338.2</ele>
        <time>2024-04-14T08:04:58Z</time>
      </trkpt>
      <trkpt lat="46.01141" lon="3.36545">
        <ele>338.2</ele>
        <time>2024-04-14T08:04:59Z</time>
      </trkpt>
      <trkpt lat="46.01141" lon="3.36537">
        <ele>338</ele>
        <time>2024-04-14T08:05:00Z</time>
      </trkpt>
      <trkpt lat="46.01143" lon="3.3653">
        <ele>338</ele>
        <time>2024-04-14T08:05:01Z</time>
      </trkpt>
      <trkpt lat="46.01144" lon="3.36523">
        <ele>338</ele>
        <time>2024-04-14T08:05:02Z</time>
      </trkpt>
      <trkpt lat="46.01146" lon="3.36515">
        <ele>338</ele>
        <time>2024-04-14T08:05:03Z</time>
      </trkpt>
      <trkpt lat="46.01147" lon="3.36508">
        <ele>338</ele>
        <time>2024-04-14T08:05:04Z</time>
      </trkpt>
      <trkpt lat="46.01149" lon="3.36502">
        <ele>338</ele>
        <time>2024-04-14T08:05:05Z</time>
      </trkpt>
      <trkpt lat="46.0115" lon="3.36495">
        <ele>338</ele>
        <time>2024-04-14T08:05:06Z</time>
      </trkpt>
      <trkpt lat="46.01152" lon="3.36488">
        <ele>338</ele>
        <time>2024-04-14T08:05:07Z</time>
      </trkpt>
      <trkpt lat="46.01153" lon="3.36481">
        <ele>338.2</ele>
        <time>2024-04-14T08:05:08Z</time>
      </trkpt>
      <trkpt lat="46.01154" lon="3.36474">
        <ele>338</ele>
        <time>2024-04-14T08:05:09Z</time>
      </trkpt>
      <trkpt lat="46.01156" lon="3.36467">
        <ele>338.2</ele>
        <time>2024-04-14T08:05:10Z</time>
      </trkpt>
      <trkpt lat="46.01157" lon="3.3646">
        <ele>338.2</ele>
        <time>2024-04-14T08:05:11Z</time>
      </trkpt>
      <trkpt lat="46.01159" lon="3.36454">
        <ele>337.8</ele>
        <time>2024-04-14T08:05:12Z</time>
      </trkpt>
      <trkpt lat="46.0116" lon="3.36448">
        <ele>338.4</ele>
        <time>2024-04-14T08:05:13Z</time>
      </trkpt>
      <trkpt lat="46.01161" lon="3.36442">
        <ele>338.8</ele>
        <time>2024-04-14T08:05:14Z</time>
      </trkpt>
      <trkpt lat="46.01162" lon="3.36436">
        <ele>338.6</ele>
        <time>2024-04-14T08:05:15Z</time>
      </trkpt>
      <trkpt lat="46.01164" lon="3.36429">
        <ele>338.6</ele>
        <time>2024-04-14T08:05:16Z</time>
      </trkpt>
      <trkpt lat="46.01165" lon="3.36423">
        <ele>338.8</ele>
        <time>2024-04-14T08:05:17Z</time>
      </trkpt>
      <trkpt lat="46.01167" lon="3.36417">
        <ele>338.8</ele>
        <time>2024-04-14T08:05:18Z</time>
      </trkpt>
      <trkpt lat="46.01168" lon="3.36411">
        <ele>338.8</ele>
        <time>2024-04-14T08:05:19Z</time>
      </trkpt>
      <trkpt lat="46.0117" lon="3.36405">
        <ele>338.8</ele>
        <time>2024-04-14T08:05:20Z</time>
      </trkpt>
      <trkpt lat="46.01171" lon="3.36399">
        <ele>339</ele>
        <time>2024-04-14T08:05:21Z</time>
      </trkpt>
      <trkpt lat="46.01172" lon="3.36393">
        <ele>339</ele>
        <time>2024-04-14T08:05:22Z</time>
      </trkpt>
      <trkpt lat="46.01174" lon="3.36387">
        <ele>339.2</ele>
        <time>2024-04-14T08:05:23Z</time>
      </trkpt>
      <trkpt lat="46.01176" lon="3.3638">
        <ele>339.4</ele>
        <time>2024-04-14T08:05:24Z</time>
      </trkpt>
      <trkpt lat="46.01177" lon="3.36372">
        <ele>339.4</ele>
        <time>2024-04-14T08:05:25Z</time>
      </trkpt>
      <trkpt lat="46.01179" lon="3.36364">
        <ele>339.6</ele>
        <time>2024-04-14T08:05:26Z</time>
      </trkpt>
      <trkpt lat="46.01181" lon="3.36356">
        <ele>339.6</ele>
        <time>2024-04-14T08:05:27Z</time>
      </trkpt>
      <trkpt lat="46.01183" lon="3.36347">
        <ele>339.6</ele>
        <time>2024-04-14T08:05:28Z</time>
      </trkpt>
      <trkpt lat="46.01184" lon="3.36338">
        <ele>339.8</ele>
        <time>2024-04-14T08:05:29Z</time>
      </trkpt>
      <trkpt lat="46.01185" lon="3.36329">
        <ele>339.6</ele>
        <time>2024-04-14T08:05:30Z</time>
      </trkpt>
      <trkpt lat="46.01186" lon="3.3632">
        <ele>339.8</ele>
        <time>2024-04-14T08:05:31Z</time>
      </trkpt>
      <trkpt lat="46.01187" lon="3.36312">
        <ele>339.8</ele>
        <time>2024-04-14T08:05:32Z</time>
      </trkpt>
      <trkpt lat="46.01188" lon="3.36303">
        <ele>339.8</ele>
        <time>2024-04-14T08:05:33Z</time>
      </trkpt>
      <trkpt lat="46.01188" lon="3.36294">
        <ele>339.8</ele>
        <time>2024-04-14T08:05:34Z</time>
      </trkpt>
      <trkpt lat="46.01188" lon="3.36284">
        <ele>339.8</ele>
        <time>2024-04-14T08:05:35Z</time>
      </trkpt>
      <trkpt lat="46.01187" lon="3.36275">
        <ele>339.8</ele>
        <time>2024-04-14T08:05:36Z</time>
      </trkpt>
      <trkpt lat="46.01185" lon="3.36266">
        <ele>339.8</ele>
        <time>2024-04-14T08:05:37Z</time>
      </trkpt>
      <trkpt lat="46.01183" lon="3.36256">
        <ele>339.8</ele>
        <time>2024-04-14T08:05:38Z</time>
      </trkpt>
      <trkpt lat="46.01182" lon="3.36247">
        <ele>339.8</ele>
        <time>2024-04-14T08:05:39Z</time>
      </trkpt>
      <trkpt lat="46.0118" lon="3.36237">
        <ele>339.8</ele>
        <time>2024-04-14T08:05:40Z</time>
      </trkpt>
      <trkpt lat="46.01178" lon="3.36228">
        <ele>339.8</ele>
        <time>2024-04-14T08:05:41Z</time>
      </trkpt>
      <trkpt lat="46.01176" lon="3.36219">
        <ele>339.8</ele>
        <time>2024-04-14T08:05:42Z</time>
      </trkpt>
      <trkpt lat="46.01174" lon="3.36209">
        <ele>340</ele>
        <time>2024-04-14T08:05:43Z</time>
      </trkpt>
      <trkpt lat="46.01172" lon="3.36199">
        <ele>340.2</ele>
        <time>2024-04-14T08:05:44Z</time>
      </trkpt>
      <trkpt lat="46.01171" lon="3.3619">
        <ele>340.2</ele>
        <time>2024-04-14T08:05:45Z</time>
      </trkpt>
      <trkpt lat="46.01169" lon="3.36181">
        <ele>340.2</ele>
        <time>2024-04-14T08:05:46Z</time>
      </trkpt>
      <trkpt lat="46.01167" lon="3.36172">
        <ele>340.4</ele>
        <time>2024-04-14T08:05:47Z</time>
      </trkpt>
      <trkpt lat="46.01166" lon="3.36164">
        <ele>340.4</ele>
        <time>2024-04-14T08:05:48Z</time>
      </trkpt>
      <trkpt lat="46.01164" lon="3.36156">
        <ele>340.6</ele>
        <time>2024-04-14T08:05:49Z</time>
      </trkpt>
      <trkpt lat="46.01163" lon="3.36147">
        <ele>340.6</ele>
        <time>2024-04-14T08:05:50Z</time>
      </trkpt>
      <trkpt lat="46.01161" lon="3.36139">
        <ele>340.8</ele>
        <time>2024-04-14T08:05:51Z</time>
      </trkpt>
      <trkpt lat="46.01158" lon="3.36131">
        <ele>340.8</ele>
        <time>2024-04-14T08:05:52Z</time>
      </trkpt>
      <trkpt lat="46.01154" lon="3.36125">
        <ele>341</ele>
        <time>2024-04-14T08:05:53Z</time>
      </trkpt>
      <trkpt lat="46.0115" lon="3.36119">
        <ele>341</ele>
        <time>2024-04-14T08:05:54Z</time>
      </trkpt>
      <trkpt lat="46.01145" lon="3.36113">
        <ele>341.2</ele>
        <time>2024-04-14T08:05:55Z</time>
      </trkpt>
      <trkpt lat="46.01141" lon="3.36107">
        <ele>341.2</ele>
        <time>2024-04-14T08:05:56Z</time>
      </trkpt>
      <trkpt lat="46.01137" lon="3.36101">
        <ele>341.2</ele>
        <time>2024-04-14T08:05:57Z</time>
      </trkpt>
      <trkpt lat="46.01133" lon="3.36095">
        <ele>341.4</ele>
        <time>2024-04-14T08:05:58Z</time>
      </trkpt>
      <trkpt lat="46.0113" lon="3.36089">
        <ele>341.4</ele>
        <time>2024-04-14T08:05:59Z</time>
      </trkpt>
      <trkpt lat="46.01126" lon="3.36083">
        <ele>341.6</ele>
        <time>2024-04-14T08:06:00Z</time>
      </trkpt>
      <trkpt lat="46.01122" lon="3.36077">
        <ele>341.6</ele>
        <time>2024-04-14T08:06:01Z</time>
      </trkpt>
      <trkpt lat="46.01118" lon="3.36072">
        <ele>341.8</ele>
        <time>2024-04-14T08:06:02Z</time>
      </trkpt>
      <trkpt lat="46.01115" lon="3.36066">
        <ele>341.8</ele>
        <time>2024-04-14T08:06:03Z</time>
      </trkpt>
      <trkpt lat="46.01111" lon="3.36061">
        <ele>342</ele>
        <time>2024-04-14T08:06:04Z</time>
      </trkpt>
      <trkpt lat="46.01107" lon="3.36055">
        <ele>342</ele>
        <time>2024-04-14T08:06:05Z</time>
      </trkpt>
      <trkpt lat="46.01104" lon="3.3605">
        <ele>342.2</ele>
        <time>2024-04-14T08:06:06Z</time>
      </trkpt>
      <trkpt lat="46.011" lon="3.36044">
        <ele>342.2</ele>
        <time>2024-04-14T08:06:07Z</time>
      </trkpt>
      <trkpt lat="46.01097" lon="3.36039">
        <ele>342.4</ele>
        <time>2024-04-14T08:06:08Z</time>
      </trkpt>
      <trkpt lat="46.01093" lon="3.36034">
        <ele>342.4</ele>
        <time>2024-04-14T08:06:09Z</time>
      </trkpt>
      <trkpt lat="46.0109" lon="3.36029">
        <ele>342.6</ele>
        <time>2024-04-14T08:06:10Z</time>
      </trkpt>
      <trkpt lat="46.01086" lon="3.36024">
        <ele>342.8</ele>
        <time>2024-04-14T08:06:11Z</time>
      </trkpt>
      <trkpt lat="46.01084" lon="3.36018">
        <ele>342.8</ele>
        <time>2024-04-14T08:06:12Z</time>
      </trkpt>
      <trkpt lat="46.01081" lon="3.36012">
        <ele>343</ele>
        <time>2024-04-14T08:06:13Z</time>
      </trkpt>
      <trkpt lat="46.01078" lon="3.36006">
        <ele>343</ele>
        <time>2024-04-14T08:06:14Z</time>
      </trkpt>
      <trkpt lat="46.01075" lon="3.36">
        <ele>343.2</ele>
        <time>2024-04-14T08:06:15Z</time>
      </trkpt>
      <trkpt lat="46.01072" lon="3.35994">
        <ele>343.2</ele>
        <time>2024-04-14T08:06:16Z</time>
      </trkpt>
      <trkpt lat="46.01069" lon="3.35988">
        <ele>343.4</ele>
        <time>2024-04-14T08:06:17Z</time>
      </trkpt>
      <trkpt lat="46.01066" lon="3.35981">
        <ele>343.4</ele>
        <time>2024-04-14T08:06:18Z</time>
      </trkpt>
      <trkpt lat="46.01063" lon="3.35975">
        <ele>343.4</ele>
        <time>2024-04-14T08:06:19Z</time>
      </trkpt>
      <trkpt lat="46.01061" lon="3.35969">
        <ele>343.6</ele>
        <time>2024-04-14T08:06:20Z</time>
      </trkpt>
      <trkpt lat="46.01058" lon="3.35964">
        <ele>343.6</ele>
        <time>2024-04-14T08:06:21Z</time>
      </trkpt>
      <trkpt lat="46.01055" lon="3.35958">
        <ele>343.6</ele>
        <time>2024-04-14T08:06:22Z</time>
      </trkpt>
      <trkpt lat="46.01052" lon="3.35952">
        <ele>343.8</ele>
        <time>2024-04-14T08:06:23Z</time>
      </trkpt>
      <trkpt lat="46.0105" lon="3.35947">
        <ele>344</ele>
        <time>2024-04-14T08:06:24Z</time>
      </trkpt>
      <trkpt lat="46.01047" lon="3.35941">
        <ele>344</ele>
        <time>2024-04-14T08:06:25Z</time>
      </trkpt>
      <trkpt lat="46.01045" lon="3.35934">
        <ele>344.2</ele>
        <time>2024-04-14T08:06:26Z</time>
      </trkpt>
      <trkpt lat="46.01044" lon="3.35928">
        <ele>344.2</ele>
        <time>2024-04-14T08:06:27Z</time>
      </trkpt>
      <trkpt lat="46.01043" lon="3.35922">
        <ele>344.4</ele>
        <time>2024-04-14T08:06:28Z</time>
      </trkpt>
      <trkpt lat="46.01041" lon="3.35916">
        <ele>344.4</ele>
        <time>2024-04-14T08:06:29Z</time>
      </trkpt>
      <trkpt lat="46.0104" lon="3.3591">
        <ele>344.6</ele>
        <time>2024-04-14T08:06:30Z</time>
      </trkpt>
      <trkpt lat="46.01039" lon="3.35904">
        <ele>344.8</ele>
        <time>2024-04-14T08:06:31Z</time>
      </trkpt>
      <trkpt lat="46.01037" lon="3.35898">
        <ele>345</ele>
        <time>2024-04-14T08:06:32Z</time>
      </trkpt>
      <trkpt lat="46.01036" lon="3.35892">
        <ele>345</ele>
        <time>2024-04-14T08:06:33Z</time>
      </trkpt>
      <trkpt lat="46.01035" lon="3.35886">
        <ele>345.2</ele>
        <time>2024-04-14T08:06:34Z</time>
      </trkpt>
      <trkpt lat="46.01034" lon="3.3588">
        <ele>345.4</ele>
        <time>2024-04-14T08:06:35Z</time>
      </trkpt>
      <trkpt lat="46.01032" lon="3.35875">
        <ele>345.6</ele>
        <time>2024-04-14T08:06:36Z</time>
      </trkpt>
      <trkpt lat="46.01031" lon="3.35869">
        <ele>345.6</ele>
        <time>2024-04-14T08:06:37Z</time>
      </trkpt>
      <trkpt lat="46.0103" lon="3.35864">
        <ele>345.8</ele>
        <time>2024-04-14T08:06:38Z</time>
      </trkpt>
      <trkpt lat="46.01029" lon="3.35858">
        <ele>346</ele>
        <time>2024-04-14T08:06:39Z</time>
      </trkpt>
      <trkpt lat="46.01027" lon="3.35853">
        <ele>346</ele>
        <time>2024-04-14T08:06:40Z</time>
      </trkpt>
      <trkpt lat="46.01026" lon="3.35848">
        <ele>346.2</ele>
        <time>2024-04-14T08:06:41Z</time>
      </trkpt>
      <trkpt lat="46.01025" lon="3.35843">
        <ele>346.4</ele>
        <time>2024-04-14T08:06:42Z</time>
      </trkpt>
      <trkpt lat="46.01023" lon="3.35837">
        <ele>346.6</ele>
        <time>2024-04-14T08:06:43Z</time>
      </trkpt>
      <trkpt lat="46.01022" lon="3.35832">
        <ele>346.6</ele>
        <time>2024-04-14T08:06:44Z</time>
      </trkpt>
      <trkpt lat="46.01021" lon="3.35827">
        <ele>346.6</ele>
        <time>2024-04-14T08:06:45Z</time>
      </trkpt>
      <trkpt lat="46.0102" lon="3.35821">
        <ele>346.8</ele>
        <time>2024-04-14T08:06:46Z</time>
      </trkpt>
      <trkpt lat="46.01018" lon="3.35816">
        <ele>347</ele>
        <time>2024-04-14T08:06:47Z</time>
      </trkpt>
      <trkpt lat="46.01017" lon="3.3581">
        <ele>347.2</ele>
        <time>2024-04-14T08:06:48Z</time>
      </trkpt>
      <trkpt lat="46.01016" lon="3.35805">
        <ele>347.4</ele>
        <time>2024-04-14T08:06:49Z</time>
      </trkpt>
      <trkpt lat="46.01015" lon="3.35799">
        <ele>347.6</ele>
        <time>2024-04-14T08:06:50Z</time>
      </trkpt>
      <trkpt lat="46.01013" lon="3.35794">
        <ele>347.6</ele>
        <time>2024-04-14T08:06:51Z</time>
      </trkpt>
      <trkpt lat="46.01012" lon="3.35789">
        <ele>347.8</ele>
        <time>2024-04-14T08:06:52Z</time>
      </trkpt>
      <trkpt lat="46.01011" lon="3.35783">
        <ele>348</ele>
        <time>2024-04-14T08:06:53Z</time>
      </trkpt>
      <trkpt lat="46.0101" lon="3.35777">
        <ele>348.2</ele>
        <time>2024-04-14T08:06:54Z</time>
      </trkpt>
      <trkpt lat="46.0101" lon="3.35771">
        <ele>348.4</ele>
        <time>2024-04-14T08:06:55Z</time>
      </trkpt>
      <trkpt lat="46.0101" lon="3.35766">
        <ele>348.4</ele>
        <time>2024-04-14T08:06:56Z</time>
      </trkpt>
      <trkpt lat="46.01011" lon="3.3576">
        <ele>348.6</ele>
        <time>2024-04-14T08:06:57Z</time>
      </trkpt>
      <trkpt lat="46.01011" lon="3.35755">
        <ele>348.8</ele>
        <time>2024-04-14T08:06:58Z</time>
      </trkpt>
      <trkpt lat="46.01011" lon="3.3575">
        <ele>348.8</ele>
        <time>2024-04-14T08:06:59Z</time>
      </trkpt>
      <trkpt lat="46.01011" lon="3.35744">
        <ele>349</ele>
        <time>2024-04-14T08:07:00Z</time>
      </trkpt>
      <trkpt lat="46.01012" lon="3.35739">
        <ele>349.2</ele>
        <time>2024-04-14T08:07:01Z</time>
      </trkpt>
      <trkpt lat="46.01012" lon="3.35733">
        <ele>349.4</ele>
        <time>2024-04-14T08:07:02Z</time>
      </trkpt>
      <trkpt lat="46.01013" lon="3.35729">
        <ele>349.6</ele>
        <time>2024-04-14T08:07:03Z</time>
      </trkpt>
      <trkpt lat="46.01014" lon="3.35724">
        <ele>349.8</ele>
        <time>2024-04-14T08:07:04Z</time>
      </trkpt>
      <trkpt lat="46.01015" lon="3.3572">
        <ele>350</ele>
        <time>2024-04-14T08:07:05Z</time>
      </trkpt>
      <trkpt lat="46.01016" lon="3.35715">
        <ele>350.2</ele>
        <time>2024-04-14T08:07:06Z</time>
      </trkpt>
      <trkpt lat="46.01018" lon="3.3571">
        <ele>350.4</ele>
        <time>2024-04-14T08:07:07Z</time>
      </trkpt>
      <trkpt lat="46.01019" lon="3.35705">
        <ele>350.6</ele>
        <time>2024-04-14T08:07:08Z</time>
      </trkpt>
      <trkpt lat="46.0102" lon="3.357">
        <ele>350.8</ele>
        <time>2024-04-14T08:07:09Z</time>
      </trkpt>
      <trkpt lat="46.01022" lon="3.35695">
        <ele>351</ele>
        <time>2024-04-14T08:07:10Z</time>
      </trkpt>
      <trkpt lat="46.01024" lon="3.35691">
        <ele>351.2</ele>
        <time>2024-04-14T08:07:11Z</time>
      </trkpt>
      <trkpt lat="46.01027" lon="3.35688">
        <ele>351.4</ele>
        <time>2024-04-14T08:07:12Z</time>
      </trkpt>
      <trkpt lat="46.01029" lon="3.35685">
        <ele>351.6</ele>
        <time>2024-04-14T08:07:13Z</time>
      </trkpt>
      <trkpt lat="46.01031" lon="3.35682">
        <ele>351.8</ele>
        <time>2024-04-14T08:07:14Z</time>
      </trkpt>
      <trkpt lat="46.01034" lon="3.35678">
        <ele>352</ele>
        <time>2024-04-14T08:07:15Z</time>
      </trkpt>
      <trkpt lat="46.01037" lon="3.35675">
        <ele>352.2</ele>
        <time>2024-04-14T08:07:16Z</time>
      </trkpt>
      <trkpt lat="46.01039" lon="3.35671">
        <ele>352.4</ele>
        <time>2024-04-14T08:07:17Z</time>
      </trkpt>
      <trkpt lat="46.01042" lon="3.35667">
        <ele>352.6</ele>
        <time>2024-04-14T08:07:18Z</time>
      </trkpt>
      <trkpt lat="46.01045" lon="3.35663">
        <ele>352.8</ele>
        <time>2024-04-14T08:07:19Z</time>
      </trkpt>
      <trkpt lat="46.01048" lon="3.35659">
        <ele>353</ele>
        <time>2024-04-14T08:07:20Z</time>
      </trkpt>
      <trkpt lat="46.01051" lon="3.35655">
        <ele>353.4</ele>
        <time>2024-04-14T08:07:21Z</time>
      </trkpt>
      <trkpt lat="46.01054" lon="3.35651">
        <ele>353.6</ele>
        <time>2024-04-14T08:07:22Z</time>
      </trkpt>
      <trkpt lat="46.01057" lon="3.35647">
        <ele>353.8</ele>
        <time>2024-04-14T08:07:23Z</time>
      </trkpt>
      <trkpt lat="46.0106" lon="3.35644">
        <ele>354</ele>
        <time>2024-04-14T08:07:24Z</time>
      </trkpt>
      <trkpt lat="46.01062" lon="3.35641">
        <ele>354.2</ele>
        <time>2024-04-14T08:07:25Z</time>
      </trkpt>
      <trkpt lat="46.01065" lon="3.35639">
        <ele>354.6</ele>
        <time>2024-04-14T08:07:26Z</time>
      </trkpt>
      <trkpt lat="46.01067" lon="3.35636">
        <ele>354.6</ele>
        <time>2024-04-14T08:07:27Z</time>
      </trkpt>
      <trkpt lat="46.0107" lon="3.35634">
        <ele>355</ele>
        <time>2024-04-14T08:07:28Z</time>
      </trkpt>
      <trkpt lat="46.01072" lon="3.35631">
        <ele>355.2</ele>
        <time>2024-04-14T08:07:29Z</time>
      </trkpt>
      <trkpt lat="46.01075" lon="3.35628">
        <ele>355.4</ele>
        <time>2024-04-14T08:07:30Z</time>
      </trkpt>
      <trkpt lat="46.01078" lon="3.35625">
        <ele>355.6</ele>
        <time>2024-04-14T08:07:31Z</time>
      </trkpt>
      <trkpt lat="46.0108" lon="3.35622">
        <ele>355.8</ele>
        <time>2024-04-14T08:07:32Z</time>
      </trkpt>
      <trkpt lat="46.01083" lon="3.3562">
        <ele>356</ele>
        <time>2024-04-14T08:07:33Z</time>
      </trkpt>
      <trkpt lat="46.01085" lon="3.35617">
        <ele>356.2</ele>
        <time>2024-04-14T08:07:34Z</time>
      </trkpt>
      <trkpt lat="46.01088" lon="3.35614">
        <ele>356.4</ele>
        <time>2024-04-14T08:07:35Z</time>
      </trkpt>
      <trkpt lat="46.01091" lon="3.35612">
        <ele>356.8</ele>
        <time>2024-04-14T08:07:36Z</time>
      </trkpt>
      <trkpt lat="46.01094" lon="3.35609">
        <ele>357.2</ele>
        <time>2024-04-14T08:07:37Z</time>
      </trkpt>
      <trkpt lat="46.01096" lon="3.35607">
        <ele>357.4</ele>
        <time>2024-04-14T08:07:38Z</time>
      </trkpt>
      <trkpt lat="46.01099" lon="3.35604">
        <ele>357.6</ele>
        <time>2024-04-14T08:07:39Z</time>
      </trkpt>
      <trkpt lat="46.01102" lon="3.35601">
        <ele>357.8</ele>
        <time>2024-04-14T08:07:40Z</time>
      </trkpt>
      <trkpt lat="46.01105" lon="3.35599">
        <ele>358.2</ele>
        <time>2024-04-14T08:07:41Z</time>
      </trkpt>
      <trkpt lat="46.01108" lon="3.35596">
        <ele>358.4</ele>
        <time>2024-04-14T08:07:42Z</time>
      </trkpt>
      <trkpt lat="46.01111" lon="3.35594">
        <ele>358.6</ele>
        <time>2024-04-14T08:07:43Z</time>
      </trkpt>
      <trkpt lat="46.01113" lon="3.35591">
        <ele>358.8</ele>
        <time>2024-04-14T08:07:44Z</time>
      </trkpt>
      <trkpt lat="46.01116" lon="3.35589">
        <ele>359</ele>
        <time>2024-04-14T08:07:45Z</time>
      </trkpt>
      <trkpt lat="46.01119" lon="3.35586">
        <ele>359.2</ele>
        <time>2024-04-14T08:07:46Z</time>
      </trkpt>
      <trkpt lat="46.01121" lon="3.35584">
        <ele>359.4</ele>
        <time>2024-04-14T08:07:47Z</time>
      </trkpt>
      <trkpt lat="46.01124" lon="3.35581">
        <ele>359.6</ele>
        <time>2024-04-14T08:07:48Z</time>
      </trkpt>
      <trkpt lat="46.01127" lon="3.35579">
        <ele>359.8</ele>
        <time>2024-04-14T08:07:49Z</time>
      </trkpt>
      <trkpt lat="46.01129" lon="3.35577">
        <ele>360</ele>
        <time>2024-04-14T08:07:50Z</time>
      </trkpt>
      <trkpt lat="46.01132" lon="3.35574">
        <ele>360</ele>
        <time>2024-04-14T08:07:51Z</time>
      </trkpt>
      <trkpt lat="46.01135" lon="3.35572">
        <ele>360.2</ele>
        <time>2024-04-14T08:07:52Z</time>
      </trkpt>
      <trkpt lat="46.01138" lon="3.35569">
        <ele>360.4</ele>
        <time>2024-04-14T08:07:53Z</time>
      </trkpt>
      <trkpt lat="46.0114" lon="3.35567">
        <ele>360.4</ele>
        <time>2024-04-14T08:07:54Z</time>
      </trkpt>
      <trkpt lat="46.01143" lon="3.35564">
        <ele>360.6</ele>
        <time>2024-04-14T08:07:55Z</time>
      </trkpt>
      <trkpt lat="46.01145" lon="3.35562">
        <ele>360.6</ele>
        <time>2024-04-14T08:07:56Z</time>
      </trkpt>
      <trkpt lat="46.01148" lon="3.35559">
        <ele>360.8</ele>
        <time>2024-04-14T08:07:57Z</time>
      </trkpt>
      <trkpt lat="46.01151" lon="3.35557">
        <ele>360.8</ele>
        <time>2024-04-14T08:07:58Z</time>
      </trkpt>
      <trkpt lat="46.01154" lon="3.35554">
        <ele>361</ele>
        <time>2024-04-14T08:07:59Z</time>
      </trkpt>
      <trkpt lat="46.01156" lon="3.35552">
        <ele>361</ele>
        <time>2024-04-14T08:08:00Z</time>
      </trkpt>
      <trkpt lat="46.01159" lon="3.3555">
        <ele>361</ele>
        <time>2024-04-14T08:08:01Z</time>
      </trkpt>
      <trkpt lat="46.01162" lon="3.35547">
        <ele>361.2</ele>
        <time>2024-04-14T08:08:02Z</time>
      </trkpt>
      <trkpt lat="46.01166" lon="3.35546">
        <ele>361.2</ele>
        <time>2024-04-14T08:08:03Z</time>
      </trkpt>
      <trkpt lat="46.01169" lon="3.35545">
        <ele>361.2</ele>
        <time>2024-04-14T08:08:04Z</time>
      </trkpt>
      <trkpt lat="46.01172" lon="3.35543">
        <ele>361.4</ele>
        <time>2024-04-14T08:08:05Z</time>
      </trkpt>
      <trkpt lat="46.01175" lon="3.35541">
        <ele>361.4</ele>
        <time>2024-04-14T08:08:06Z</time>
      </trkpt>
      <trkpt lat="46.01178" lon="3.3554">
        <ele>361.6</ele>
        <time>2024-04-14T08:08:07Z</time>
      </trkpt>
      <trkpt lat="46.01181" lon="3.35539">
        <ele>361.8</ele>
        <time>2024-04-14T08:08:08Z</time>
      </trkpt>
      <trkpt lat="46.01184" lon="3.35537">
        <ele>362</ele>
        <time>2024-04-14T08:08:09Z</time>
      </trkpt>
      <trkpt lat="46.01187" lon="3.35536">
        <ele>362.2</ele>
        <time>2024-04-14T08:08:10Z</time>
      </trkpt>
      <trkpt lat="46.0119" lon="3.35534">
        <ele>362.2</ele>
        <time>2024-04-14T08:08:11Z</time>
      </trkpt>
      <trkpt lat="46.01193" lon="3.35533">
        <ele>362.4</ele>
        <time>2024-04-14T08:08:12Z</time>
      </trkpt>
      <trkpt lat="46.01196" lon="3.35531">
        <ele>362.6</ele>
        <time>2024-04-14T08:08:13Z</time>
      </trkpt>
      <trkpt lat="46.012" lon="3.3553">
        <ele>362.8</ele>
        <time>2024-04-14T08:08:14Z</time>
      </trkpt>
      <trkpt lat="46.01203" lon="3.35528">
        <ele>363</ele>
        <time>2024-04-14T08:08:15Z</time>
      </trkpt>
      <trkpt lat="46.01207" lon="3.35527">
        <ele>363.2</ele>
        <time>2024-04-14T08:08:16Z</time>
      </trkpt>
      <trkpt lat="46.0121" lon="3.35527">
        <ele>363.4</ele>
        <time>2024-04-14T08:08:17Z</time>
      </trkpt>
      <trkpt lat="46.01213" lon="3.35526">
        <ele>363.6</ele>
        <time>2024-04-14T08:08:18Z</time>
      </trkpt>
      <trkpt lat="46.01216" lon="3.35526">
        <ele>363.8</ele>
        <time>2024-04-14T08:08:19Z</time>
      </trkpt>
      <trkpt lat="46.01219" lon="3.35526">
        <ele>364</ele>
        <time>2024-04-14T08:08:20Z</time>
      </trkpt>
      <trkpt lat="46.01223" lon="3.35525">
        <ele>364.2</ele>
        <time>2024-04-14T08:08:21Z</time>
      </trkpt>
      <trkpt lat="46.01226" lon="3.35525">
        <ele>364.6</ele>
        <time>2024-04-14T08:08:22Z</time>
      </trkpt>
      <trkpt lat="46.01229" lon="3.35524">
        <ele>364.8</ele>
        <time>2024-04-14T08:08:23Z</time>
      </trkpt>
      <trkpt lat="46.01233" lon="3.35524">
        <ele>365</ele>
        <time>2024-04-14T08:08:24Z</time>
      </trkpt>
      <trkpt lat="46.01236" lon="3.35524">
        <ele>365.2</ele>
        <time>2024-04-14T08:08:25Z</time>
      </trkpt>
      <trkpt lat="46.01239" lon="3.35523">
        <ele>365.4</ele>
        <time>2024-04-14T08:08:26Z</time>
      </trkpt>
      <trkpt lat="46.01242" lon="3.35523">
        <ele>365.6</ele>
        <time>2024-04-14T08:08:27Z</time>
      </trkpt>
      <trkpt lat="46.01245" lon="3.35523">
        <ele>365.8</ele>
        <time>2024-04-14T08:08:28Z</time>
      </trkpt>
      <trkpt lat="46.01248" lon="3.35522">
        <ele>366.2</ele>
        <time>2024-04-14T08:08:29Z</time>
      </trkpt>
      <trkpt lat="46.01252" lon="3.35522">
        <ele>366.4</ele>
        <time>2024-04-14T08:08:30Z</time>
      </trkpt>
      <trkpt lat="46.01255" lon="3.35522">
        <ele>366.8</ele>
        <time>2024-04-14T08:08:31Z</time>
      </trkpt>
      <trkpt lat="46.01258" lon="3.35521">
        <ele>367.2</ele>
        <time>2024-04-14T08:08:32Z</time>
      </trkpt>
      <trkpt lat="46.01261" lon="3.35521">
        <ele>367.6</ele>
        <time>2024-04-14T08:08:33Z</time>
      </trkpt>
      <trkpt lat="46.01264" lon="3.35521">
        <ele>367.8</ele>
        <time>2024-04-14T08:08:34Z</time>
      </trkpt>
      <trkpt lat="46.01267" lon="3.3552">
        <ele>368</ele>
        <time>2024-04-14T08:08:35Z</time>
      </trkpt>
      <trkpt lat="46.01271" lon="3.3552">
        <ele>368.4</ele>
        <time>2024-04-14T08:08:36Z</time>
      </trkpt>
      <trkpt lat="46.01274" lon="3.3552">
        <ele>368.6</ele>
        <time>2024-04-14T08:08:37Z</time>
      </trkpt>
      <trkpt lat="46.01277" lon="3.35519">
        <ele>369</ele>
        <time>2024-04-14T08:08:38Z</time>
      </trkpt>
      <trkpt lat="46.0128" lon="3.35519">
        <ele>369.2</ele>
        <time>2024-04-14T08:08:39Z</time>
      </trkpt>
      <trkpt lat="46.01283" lon="3.35519">
        <ele>369.6</ele>
        <time>2024-04-14T08:08:40Z</time>
      </trkpt>
      <trkpt lat="46.01286" lon="3.35518">
        <ele>369.8</ele>
        <time>2024-04-14T08:08:41Z</time>
      </trkpt>
      <trkpt lat="46.01289" lon="3.35518">
        <ele>370.2</ele>
        <time>2024-04-14T08:08:42Z</time>
      </trkpt>
      <trkpt lat="46.01292" lon="3.35518">
        <ele>370.6</ele>
        <time>2024-04-14T08:08:43Z</time>
      </trkpt>
      <trkpt lat="46.01294" lon="3.35517">
        <ele>370.8</ele>
        <time>2024-04-14T08:08:44Z</time>
      </trkpt>
      <trkpt lat="46.01297" lon="3.35517">
        <ele>371.2</ele>
        <time>2024-04-14T08:08:45Z</time>
      </trkpt>
      <trkpt lat="46.01301" lon="3.35517">
        <ele>371.4</ele>
        <time>2024-04-14T08:08:46Z</time>
      </trkpt>
      <trkpt lat="46.01304" lon="3.35516">
        <ele>371.8</ele>
        <time>2024-04-14T08:08:47Z</time>
      </trkpt>
      <trkpt lat="46.01307" lon="3.35516">
        <ele>372</ele>
        <time>2024-04-14T08:08:48Z</time>
      </trkpt>
      <trkpt lat="46.0131" lon="3.35516">
        <ele>372.4</ele>
        <time>2024-04-14T08:08:49Z</time>
      </trkpt>
      <trkpt lat="46.01314" lon="3.35515">
        <ele>372.8</ele>
        <time>2024-04-14T08:08:50Z</time>
      </trkpt>
      <trkpt lat="46.01317" lon="3.35515">
        <ele>373</ele>
        <time>2024-04-14T08:08:51Z</time>
      </trkpt>
      <trkpt lat="46.0132" lon="3.35515">
        <ele>373.2</ele>
        <time>2024-04-14T08:08:52Z</time>
      </trkpt>
      <trkpt lat="46.01324" lon="3.35512">
        <ele>373.6</ele>
        <time>2024-04-14T08:08:53Z</time>
      </trkpt>
      <trkpt lat="46.01325" lon="3.35508">
        <ele>373.8</ele>
        <time>2024-04-14T08:08:54Z</time>
      </trkpt>
      <trkpt lat="46.01326" lon="3.35504">
        <ele>374</ele>
        <time>2024-04-14T08:08:55Z</time>
      </trkpt>
      <trkpt lat="46.01327" lon="3.355">
        <ele>374.2</ele>
        <time>2024-04-14T08:08:56Z</time>
      </trkpt>
      <trkpt lat="46.01328" lon="3.35495">
        <ele>374.6</ele>
        <time>2024-04-14T08:08:57Z</time>
      </trkpt>
      <trkpt lat="46.0133" lon="3.3549">
        <ele>374.8</ele>
        <time>2024-04-14T08:08:58Z</time>
      </trkpt>
      <trkpt lat="46.01331" lon="3.35485">
        <ele>375</ele>
        <time>2024-04-14T08:08:59Z</time>
      </trkpt>
      <trkpt lat="46.01332" lon="3.3548">
        <ele>375.4</ele>
        <time>2024-04-14T08:09:00Z</time>
      </trkpt>
      <trkpt lat="46.01334" lon="3.35475">
        <ele>375.6</ele>
        <time>2024-04-14T08:09:01Z</time>
      </trkpt>
      <trkpt lat="46.01336" lon="3.35469">
        <ele>375.8</ele>
        <time>2024-04-14T08:09:02Z</time>
      </trkpt>
      <trkpt lat="46.01338" lon="3.35464">
        <ele>376</ele>
        <time>2024-04-14T08:09:03Z</time>
      </trkpt>
      <trkpt lat="46.01341" lon="3.3546">
        <ele>376.4</ele>
        <time>2024-04-14T08:09:04Z</time>
      </trkpt>
      <trkpt lat="46.01344" lon="3.35456">
        <ele>376.6</ele>
        <time>2024-04-14T08:09:05Z</time>
      </trkpt>
      <trkpt lat="46.01347" lon="3.35451">
        <ele>376.8</ele>
        <time>2024-04-14T08:09:06Z</time>
      </trkpt>
      <trkpt lat="46.0135" lon="3.35447">
        <ele>377</ele>
        <time>2024-04-14T08:09:07Z</time>
      </trkpt>
      <trkpt lat="46.01353" lon="3.35443">
        <ele>377.2</ele>
        <time>2024-04-14T08:09:08Z</time>
      </trkpt>
      <trkpt lat="46.01356" lon="3.35438">
        <ele>377.4</ele>
        <time>2024-04-14T08:09:09Z</time>
      </trkpt>
      <trkpt lat="46.01359" lon="3.35433">
        <ele>377.6</ele>
        <time>2024-04-14T08:09:10Z</time>
      </trkpt>
      <trkpt lat="46.01362" lon="3.35428">
        <ele>378</ele>
        <time>2024-04-14T08:09:11Z</time>
      </trkpt>
      <trkpt lat="46.01365" lon="3.35424">
        <ele>378.2</ele>
        <time>2024-04-14T08:09:12Z</time>
      </trkpt>
      <trkpt lat="46.01368" lon="3.35419">
        <ele>378.4</ele>
        <time>2024-04-14T08:09:13Z</time>
      </trkpt>
      <trkpt lat="46.01371" lon="3.35414">
        <ele>378.4</ele>
        <time>2024-04-14T08:09:14Z</time>
      </trkpt>
      <trkpt lat="46.01374" lon="3.35409">
        <ele>378.6</ele>
        <time>2024-04-14T08:09:15Z</time>
      </trkpt>
      <trkpt lat="46.01377" lon="3.35405">
        <ele>378.8</ele>
        <time>2024-04-14T08:09:16Z</time>
      </trkpt>
      <trkpt lat="46.0138" lon="3.354">
        <ele>379</ele>
        <time>2024-04-14T08:09:17Z</time>
      </trkpt>
      <trkpt lat="46.01382" lon="3.35395">
        <ele>379.2</ele>
        <time>2024-04-14T08:09:18Z</time>
      </trkpt>
      <trkpt lat="46.01385" lon="3.35391">
        <ele>379.2</ele>
        <time>2024-04-14T08:09:19Z</time>
      </trkpt>
      <trkpt lat="46.01388" lon="3.35387">
        <ele>379.4</ele>
        <time>2024-04-14T08:09:20Z</time>
      </trkpt>
      <trkpt lat="46.0139" lon="3.35383">
        <ele>379.6</ele>
        <time>2024-04-14T08:09:21Z</time>
      </trkpt>
      <trkpt lat="46.01393" lon="3.3538">
        <ele>379.6</ele>
        <time>2024-04-14T08:09:22Z</time>
      </trkpt>
      <trkpt lat="46.01394" lon="3.35378">
        <ele>379.8</ele>
        <time>2024-04-14T08:09:23Z</time>
      </trkpt>
      <trkpt lat="46.01396" lon="3.35375">
        <ele>380</ele>
        <time>2024-04-14T08:09:24Z</time>
      </trkpt>
      <trkpt lat="46.01398" lon="3.35373">
        <ele>380.2</ele>
        <time>2024-04-14T08:09:25Z</time>
      </trkpt>
      <trkpt lat="46.01399" lon="3.35371">
        <ele>380.4</ele>
        <time>2024-04-14T08:09:26Z</time>
      </trkpt>
      <trkpt lat="46.014" lon="3.35369">
        <ele>380.4</ele>
        <time>2024-04-14T08:09:27Z</time>
      </trkpt>
      <trkpt lat="46.01401" lon="3.35369">
        <ele>380.6</ele>
        <time>2024-04-14T08:09:28Z</time>
      </trkpt>
      <trkpt lat="46.01401" lon="3.35368">
        <ele>380.8</ele>
        <time>2024-04-14T08:09:29Z</time>
      </trkpt>
      <trkpt lat="46.01401" lon="3.35368">
        <ele>381</ele>
        <time>2024-04-14T08:09:30Z</time>
      </trkpt>
      <trkpt lat="46.01401" lon="3.35368">
        <ele>381</ele>
        <time>2024-04-14T08:09:31Z</time>
      </trkpt>
      <trkpt lat="46.01411" lon="3.35364">
        <ele>382.4</ele>
        <time>2024-04-14T08:09:40Z</time>
      </trkpt>
      <trkpt lat="46.01412" lon="3.35365">
        <ele>382.6</ele>
        <time>2024-04-14T08:09:41Z</time>
      </trkpt>
      <trkpt lat="46.01413" lon="3.35366">
        <ele>382.6</ele>
        <time>2024-04-14T08:09:42Z</time>
      </trkpt>
      <trkpt lat="46.01415" lon="3.35367">
        <ele>382.8</ele>
        <time>2024-04-14T08:09:43Z</time>
      </trkpt>
      <trkpt lat="46.01416" lon="3.35368">
        <ele>382.8</ele>
        <time>2024-04-14T08:09:44Z</time>
      </trkpt>
      <trkpt lat="46.01418" lon="3.35369">
        <ele>383</ele>
        <time>2024-04-14T08:09:45Z</time>
      </trkpt>
      <trkpt lat="46.0142" lon="3.35371">
        <ele>383</ele>
        <time>2024-04-14T08:09:46Z</time>
      </trkpt>
      <trkpt lat="46.01424" lon="3.35373">
        <ele>383</ele>
        <time>2024-04-14T08:09:47Z</time>
      </trkpt>
      <trkpt lat="46.01428" lon="3.35376">
        <ele>383</ele>
        <time>2024-04-14T08:09:48Z</time>
      </trkpt>
      <trkpt lat="46.01432" lon="3.35379">
        <ele>383.2</ele>
        <time>2024-04-14T08:09:49Z</time>
      </trkpt>
      <trkpt lat="46.01436" lon="3.35382">
        <ele>383.2</ele>
        <time>2024-04-14T08:09:50Z</time>
      </trkpt>
      <trkpt lat="46.01441" lon="3.35385">
        <ele>383.2</ele>
        <time>2024-04-14T08:09:51Z</time>
      </trkpt>
      <trkpt lat="46.01445" lon="3.35389">
        <ele>383.4</ele>
        <time>2024-04-14T08:09:52Z</time>
      </trkpt>
      <trkpt lat="46.0145" lon="3.35392">
        <ele>383.4</ele>
        <time>2024-04-14T08:09:53Z</time>
      </trkpt>
      <trkpt lat="46.01454" lon="3.35395">
        <ele>383.6</ele>
        <time>2024-04-14T08:09:54Z</time>
      </trkpt>
      <trkpt lat="46.01459" lon="3.35399">
        <ele>383.8</ele>
        <time>2024-04-14T08:09:55Z</time>
      </trkpt>
      <trkpt lat="46.01464" lon="3.35402">
        <ele>384</ele>
        <time>2024-04-14T08:09:56Z</time>
      </trkpt>
      <trkpt lat="46.01468" lon="3.35406">
        <ele>384.2</ele>
        <time>2024-04-14T08:09:57Z</time>
      </trkpt>
      <trkpt lat="46.01473" lon="3.35409">
        <ele>384.4</ele>
        <time>2024-04-14T08:09:58Z</time>
      </trkpt>
      <trkpt lat="46.01478" lon="3.35412">
        <ele>384.6</ele>
        <time>2024-04-14T08:09:59Z</time>
      </trkpt>
      <trkpt lat="46.01482" lon="3.35416">
        <ele>384.8</ele>
        <time>2024-04-14T08:10:00Z</time>
      </trkpt>
      <trkpt lat="46.01487" lon="3.35419">
        <ele>385</ele>
        <time>2024-04-14T08:10:01Z</time>
      </trkpt>
      <trkpt lat="46.01492" lon="3.35423">
        <ele>385.2</ele>
        <time>2024-04-14T08:10:02Z</time>
      </trkpt>
      <trkpt lat="46.01497" lon="3.35426">
        <ele>385.4</ele>
        <time>2024-04-14T08:10:03Z</time>
      </trkpt>
      <trkpt lat="46.01501" lon="3.35429">
        <ele>385.6</ele>
        <time>2024-04-14T08:10:04Z</time>
      </trkpt>
      <trkpt lat="46.01506" lon="3.35432">
        <ele>385.8</ele>
        <time>2024-04-14T08:10:05Z</time>
      </trkpt>
      <trkpt lat="46.01511" lon="3.35434">
        <ele>385.8</ele>
        <time>2024-04-14T08:10:06Z</time>
      </trkpt>
      <trkpt lat="46.01516" lon="3.35437">
        <ele>386</ele>
        <time>2024-04-14T08:10:07Z</time>
      </trkpt>
      <trkpt lat="46.01521" lon="3.3544">
        <ele>386.2</ele>
        <time>2024-04-14T08:10:08Z</time>
      </trkpt>
      <trkpt lat="46.01525" lon="3.35443">
        <ele>386.4</ele>
        <time>2024-04-14T08:10:09Z</time>
      </trkpt>
      <trkpt lat="46.0153" lon="3.35445">
        <ele>386.6</ele>
        <time>2024-04-14T08:10:10Z</time>
      </trkpt>
      <trkpt lat="46.01534" lon="3.35448">
        <ele>386.6</ele>
        <time>2024-04-14T08:10:11Z</time>
      </trkpt>
      <trkpt lat="46.01538" lon="3.3545">
        <ele>387</ele>
        <time>2024-04-14T08:10:12Z</time>
      </trkpt>
      <trkpt lat="46.01543" lon="3.35452">
        <ele>387.2</ele>
        <time>2024-04-14T08:10:13Z</time>
      </trkpt>
      <trkpt lat="46.01548" lon="3.35453">
        <ele>387.4</ele>
        <time>2024-04-14T08:10:14Z</time>
      </trkpt>
      <trkpt lat="46.01553" lon="3.35455">
        <ele>387.6</ele>
        <time>2024-04-14T08:10:15Z</time>
      </trkpt>
      <trkpt lat="46.01557" lon="3.35456">
        <ele>387.8</ele>
        <time>2024-04-14T08:10:16Z</time>
      </trkpt>
      <trkpt lat="46.01562" lon="3.35458">
        <ele>388</ele>
        <time>2024-04-14T08:10:17Z</time>
      </trkpt>
      <trkpt lat="46.01567" lon="3.35459">
        <ele>388.2</ele>
        <time>2024-04-14T08:10:18Z</time>
      </trkpt>
      <trkpt lat="46.01572" lon="3.35461">
        <ele>388.4</ele>
        <time>2024-04-14T08:10:19Z</time>
      </trkpt>
      <trkpt lat="46.01577" lon="3.35462">
        <ele>388.6</ele>
        <time>2024-04-14T08:10:20Z</time>
      </trkpt>
      <trkpt lat="46.01582" lon="3.35464">
        <ele>388.6</ele>
        <time>2024-04-14T08:10:21Z</time>
      </trkpt>
      <trkpt lat="46.01587" lon="3.35466">
        <ele>388.8</ele>
        <time>2024-04-14T08:10:22Z</time>
      </trkpt>
      <trkpt lat="46.01592" lon="3.35467">
        <ele>389</ele>
        <time>2024-04-14T08:10:23Z</time>
      </trkpt>
      <trkpt lat="46.01597" lon="3.35469">
        <ele>389.2</ele>
        <time>2024-04-14T08:10:24Z</time>
      </trkpt>
      <trkpt lat="46.01603" lon="3.35471">
        <ele>389.2</ele>
        <time>2024-04-14T08:10:25Z</time>
      </trkpt>
      <trkpt lat="46.01608" lon="3.35472">
        <ele>389.4</ele>
        <time>2024-04-14T08:10:26Z</time>
      </trkpt>
      <trkpt lat="46.01613" lon="3.35474">
        <ele>389.4</ele>
        <time>2024-04-14T08:10:27Z</time>
      </trkpt>
      <trkpt lat="46.01619" lon="3.35476">
        <ele>389.4</ele>
        <time>2024-04-14T08:10:28Z</time>
      </trkpt>
      <trkpt lat="46.01624" lon="3.35477">
        <ele>389.6</ele>
        <time>2024-04-14T08:10:29Z</time>
      </trkpt>
      <trkpt lat="46.01629" lon="3.35479">
        <ele>389.6</ele>
        <time>2024-04-14T08:10:30Z</time>
      </trkpt>
      <trkpt lat="46.01634" lon="3.35481">
        <ele>389.8</ele>
        <time>2024-04-14T08:10:31Z</time>
      </trkpt>
      <trkpt lat="46.0164" lon="3.35482">
        <ele>389.8</ele>
        <time>2024-04-14T08:10:32Z</time>
      </trkpt>
      <trkpt lat="46.01645" lon="3.35484">
        <ele>390</ele>
        <time>2024-04-14T08:10:33Z</time>
      </trkpt>
      <trkpt lat="46.01651" lon="3.35486">
        <ele>390</ele>
        <time>2024-04-14T08:10:34Z</time>
      </trkpt>
      <trkpt lat="46.01657" lon="3.35488">
        <ele>390.2</ele>
        <time>2024-04-14T08:10:35Z</time>
      </trkpt>
      <trkpt lat="46.01663" lon="3.3549">
        <ele>390.2</ele>
        <time>2024-04-14T08:10:36Z</time>
      </trkpt>
      <trkpt lat="46.0167" lon="3.35492">
        <ele>390.4</ele>
        <time>2024-04-14T08:10:37Z</time>
      </trkpt>
      <trkpt lat="46.01676" lon="3.35494">
        <ele>390.4</ele>
        <time>2024-04-14T08:10:38Z</time>
      </trkpt>
      <trkpt lat="46.01683" lon="3.35495">
        <ele>390.6</ele>
        <time>2024-04-14T08:10:39Z</time>
      </trkpt>
      <trkpt lat="46.01689" lon="3.35495">
        <ele>390.8</ele>
        <time>2024-04-14T08:10:40Z</time>
      </trkpt>
      <trkpt lat="46.01695" lon="3.35496">
        <ele>390.8</ele>
        <time>2024-04-14T08:10:41Z</time>
      </trkpt>
      <trkpt lat="46.01702" lon="3.35496">
        <ele>391</ele>
        <time>2024-04-14T08:10:42Z</time>
      </trkpt>
      <trkpt lat="46.01708" lon="3.35496">
        <ele>391.2</ele>
        <time>2024-04-14T08:10:43Z</time>
      </trkpt>
      <trkpt lat="46.01713" lon="3.35496">
        <ele>391.2</ele>
        <time>2024-04-14T08:10:44Z</time>
      </trkpt>
      <trkpt lat="46.01719" lon="3.35496">
        <ele>391.4</ele>
        <time>2024-04-14T08:10:45Z</time>
      </trkpt>
      <trkpt lat="46.01726" lon="3.35496">
        <ele>391.4</ele>
        <time>2024-04-14T08:10:46Z</time>
      </trkpt>
      <trkpt lat="46.01732" lon="3.35497">
        <ele>391.4</ele>
        <time>2024-04-14T08:10:47Z</time>
      </trkpt>
      <trkpt lat="46.01737" lon="3.35497">
        <ele>391.6</ele>
        <time>2024-04-14T08:10:48Z</time>
      </trkpt>
      <trkpt lat="46.01743" lon="3.35497">
        <ele>391.8</ele>
        <time>2024-04-14T08:10:49Z</time>
      </trkpt>
      <trkpt lat="46.01749" lon="3.35497">
        <ele>392</ele>
        <time>2024-04-14T08:10:50Z</time>
      </trkpt>
      <trkpt lat="46.01755" lon="3.35496">
        <ele>392.2</ele>
        <time>2024-04-14T08:10:51Z</time>
      </trkpt>
      <trkpt lat="46.01761" lon="3.35496">
        <ele>392.4</ele>
        <time>2024-04-14T08:10:52Z</time>
      </trkpt>
      <trkpt lat="46.01767" lon="3.35495">
        <ele>392.4</ele>
        <time>2024-04-14T08:10:53Z</time>
      </trkpt>
      <trkpt lat="46.01772" lon="3.35495">
        <ele>392.6</ele>
        <time>2024-04-14T08:10:54Z</time>
      </trkpt>
      <trkpt lat="46.01778" lon="3.35494">
        <ele>392.8</ele>
        <time>2024-04-14T08:10:55Z</time>
      </trkpt>
      <trkpt lat="46.01784" lon="3.35494">
        <ele>392.8</ele>
        <time>2024-04-14T08:10:56Z</time>
      </trkpt>
      <trkpt lat="46.0179" lon="3.35493">
        <ele>393</ele>
        <time>2024-04-14T08:10:57Z</time>
      </trkpt>
      <trkpt lat="46.01796" lon="3.35492">
        <ele>393.2</ele>
        <time>2024-04-14T08:10:58Z</time>
      </trkpt>
      <trkpt lat="46.01802" lon="3.35492">
        <ele>393.2</ele>
        <time>2024-04-14T08:10:59Z</time>
      </trkpt>
      <trkpt lat="46.01808" lon="3.35491">
        <ele>393.4</ele>
        <time>2024-04-14T08:11:00Z</time>
      </trkpt>
      <trkpt lat="46.01815" lon="3.35491">
        <ele>393.6</ele>
        <time>2024-04-14T08:11:01Z</time>
      </trkpt>
      <trkpt lat="46.01821" lon="3.3549">
        <ele>393.8</ele>
        <time>2024-04-14T08:11:02Z</time>
      </trkpt>
      <trkpt lat="46.01828" lon="3.35489">
        <ele>394</ele>
        <time>2024-04-14T08:11:03Z</time>
      </trkpt>
      <trkpt lat="46.01835" lon="3.3549">
        <ele>394.2</ele>
        <time>2024-04-14T08:11:04Z</time>
      </trkpt>
      <trkpt lat="46.01841" lon="3.35494">
        <ele>394.4</ele>
        <time>2024-04-14T08:11:05Z</time>
      </trkpt>
      <trkpt lat="46.01847" lon="3.35497">
        <ele>394.4</ele>
        <time>2024-04-14T08:11:06Z</time>
      </trkpt>
      <trkpt lat="46.01853" lon="3.35501">
        <ele>394.6</ele>
        <time>2024-04-14T08:11:07Z</time>
      </trkpt>
      <trkpt lat="46.01859" lon="3.35504">
        <ele>394.6</ele>
        <time>2024-04-14T08:11:08Z</time>
      </trkpt>
      <trkpt lat="46.01865" lon="3.35507">
        <ele>394.8</ele>
        <time>2024-04-14T08:11:09Z</time>
      </trkpt>
      <trkpt lat="46.01871" lon="3.35511">
        <ele>394.8</ele>
        <time>2024-04-14T08:11:10Z</time>
      </trkpt>
      <trkpt lat="46.01877" lon="3.35514">
        <ele>395</ele>
        <time>2024-04-14T08:11:11Z</time>
      </trkpt>
      <trkpt lat="46.01883" lon="3.35514">
        <ele>395</ele>
        <time>2024-04-14T08:11:12Z</time>
      </trkpt>
      <trkpt lat="46.0189" lon="3.35513">
        <ele>395.2</ele>
        <time>2024-04-14T08:11:13Z</time>
      </trkpt>
      <trkpt lat="46.01896" lon="3.35512">
        <ele>395.4</ele>
        <time>2024-04-14T08:11:14Z</time>
      </trkpt>
      <trkpt lat="46.01902" lon="3.35512">
        <ele>395.4</ele>
        <time>2024-04-14T08:11:15Z</time>
      </trkpt>
      <trkpt lat="46.01909" lon="3.35511">
        <ele>395.6</ele>
        <time>2024-04-14T08:11:16Z</time>
      </trkpt>
      <trkpt lat="46.01916" lon="3.3551">
        <ele>395.8</ele>
        <time>2024-04-14T08:11:17Z</time>
      </trkpt>
      <trkpt lat="46.01922" lon="3.3551">
        <ele>395.8</ele>
        <time>2024-04-14T08:11:18Z</time>
      </trkpt>
      <trkpt lat="46.01929" lon="3.35509">
        <ele>396</ele>
        <time>2024-04-14T08:11:19Z</time>
      </trkpt>
      <trkpt lat="46.01936" lon="3.35508">
        <ele>396</ele>
        <time>2024-04-14T08:11:20Z</time>
      </trkpt>
      <trkpt lat="46.01943" lon="3.35507">
        <ele>396</ele>
        <time>2024-04-14T08:11:21Z</time>
      </trkpt>
      <trkpt lat="46.01949" lon="3.35507">
        <ele>396.2</ele>
        <time>2024-04-14T08:11:22Z</time>
      </trkpt>
      <trkpt lat="46.01956" lon="3.35506">
        <ele>396.2</ele>
        <time>2024-04-14T08:11:23Z</time>
      </trkpt>
      <trkpt lat="46.01963" lon="3.35505">
        <ele>396.4</ele>
        <time>2024-04-14T08:11:24Z</time>
      </trkpt>
      <trkpt lat="46.01971" lon="3.35504">
        <ele>396.6</ele>
        <time>2024-04-14T08:11:25Z</time>
      </trkpt>
      <trkpt lat="46.01977" lon="3.35504">
        <ele>396.8</ele>
        <time>2024-04-14T08:11:26Z</time>
      </trkpt>
      <trkpt lat="46.01984" lon="3.35503">
        <ele>396.8</ele>
        <time>2024-04-14T08:11:27Z</time>
      </trkpt>
      <trkpt lat="46.0199" lon="3.35502">
        <ele>397</ele>
        <time>2024-04-14T08:11:28Z</time>
      </trkpt>
      <trkpt lat="46.01997" lon="3.35502">
        <ele>397</ele>
        <time>2024-04-14T08:11:29Z</time>
      </trkpt>
      <trkpt lat="46.02003" lon="3.35501">
        <ele>397.2</ele>
        <time>2024-04-14T08:11:30Z</time>
      </trkpt>
      <trkpt lat="46.02009" lon="3.355">
        <ele>397.2</ele>
        <time>2024-04-14T08:11:31Z</time>
      </trkpt>
      <trkpt lat="46.02015" lon="3.355">
        <ele>397.4</ele>
        <time>2024-04-14T08:11:32Z</time>
      </trkpt>
      <trkpt lat="46.02021" lon="3.35499">
        <ele>397.4</ele>
        <time>2024-04-14T08:11:33Z</time>
      </trkpt>
      <trkpt lat="46.02027" lon="3.35499">
        <ele>397.6</ele>
        <time>2024-04-14T08:11:34Z</time>
      </trkpt>
      <trkpt lat="46.02032" lon="3.35499">
        <ele>397.8</ele>
        <time>2024-04-14T08:11:35Z</time>
      </trkpt>
      <trkpt lat="46.02037" lon="3.35498">
        <ele>397.8</ele>
        <time>2024-04-14T08:11:36Z</time>
      </trkpt>
      <trkpt lat="46.02043" lon="3.35498">
        <ele>398</ele>
        <time>2024-04-14T08:11:37Z</time>
      </trkpt>
      <trkpt lat="46.02048" lon="3.35498">
        <ele>398</ele>
        <time>2024-04-14T08:11:38Z</time>
      </trkpt>
      <trkpt lat="46.02051" lon="3.35497">
        <ele>398.2</ele>
        <time>2024-04-14T08:11:39Z</time>
      </trkpt>
      <trkpt lat="46.02055" lon="3.35497">
        <ele>398.2</ele>
        <time>2024-04-14T08:11:40Z</time>
      </trkpt>
      <trkpt lat="46.02059" lon="3.35497">
        <ele>398.2</ele>
        <time>2024-04-14T08:11:41Z</time>
      </trkpt>
      <trkpt lat="46.02063" lon="3.35496">
        <ele>398.2</ele>
        <time>2024-04-14T08:11:42Z</time>
      </trkpt>
      <trkpt lat="46.02069" lon="3.35496">
        <ele>398.2</ele>
        <time>2024-04-14T08:11:43Z</time>
      </trkpt>
      <trkpt lat="46.02074" lon="3.35495">
        <ele>398.4</ele>
        <time>2024-04-14T08:11:44Z</time>
      </trkpt>
      <trkpt lat="46.0208" lon="3.35494">
        <ele>398.4</ele>
        <time>2024-04-14T08:11:45Z</time>
      </trkpt>
      <trkpt lat="46.02086" lon="3.35494">
        <ele>398.6</ele>
        <time>2024-04-14T08:11:46Z</time>
      </trkpt>
      <trkpt lat="46.02092" lon="3.35493">
        <ele>398.6</ele>
        <time>2024-04-14T08:11:47Z</time>
      </trkpt>
      <trkpt lat="46.02098" lon="3.35492">
        <ele>398.6</ele>
        <time>2024-04-14T08:11:48Z</time>
      </trkpt>
      <trkpt lat="46.02104" lon="3.35491">
        <ele>398.6</ele>
        <time>2024-04-14T08:11:49Z</time>
      </trkpt>
      <trkpt lat="46.0211" lon="3.3549">
        <ele>398.6</ele>
        <time>2024-04-14T08:11:50Z</time>
      </trkpt>
      <trkpt lat="46.02116" lon="3.3549">
        <ele>398.6</ele>
        <time>2024-04-14T08:11:51Z</time>
      </trkpt>
      <trkpt lat="46.02123" lon="3.35489">
        <ele>398.8</ele>
        <time>2024-04-14T08:11:52Z</time>
      </trkpt>
      <trkpt lat="46.02129" lon="3.35488">
        <ele>398.8</ele>
        <time>2024-04-14T08:11:53Z</time>
      </trkpt>
      <trkpt lat="46.02135" lon="3.35487">
        <ele>398.8</ele>
        <time>2024-04-14T08:11:54Z</time>
      </trkpt>
      <trkpt lat="46.02142" lon="3.35487">
        <ele>398.8</ele>
        <time>2024-04-14T08:11:55Z</time>
      </trkpt>
      <trkpt lat="46.02148" lon="3.35486">
        <ele>398.8</ele>
        <time>2024-04-14T08:11:56Z</time>
      </trkpt>
      <trkpt lat="46.02155" lon="3.35485">
        <ele>399</ele>
        <time>2024-04-14T08:11:57Z</time>
      </trkpt>
      <trkpt lat="46.02162" lon="3.35484">
        <ele>399</ele>
        <time>2024-04-14T08:11:58Z</time>
      </trkpt>
      <trkpt lat="46.02168" lon="3.35484">
        <ele>399</ele>
        <time>2024-04-14T08:11:59Z</time>
      </trkpt>
      <trkpt lat="46.02174" lon="3.35483">
        <ele>399</ele>
        <time>2024-04-14T08:12:00Z</time>
      </trkpt>
      <trkpt lat="46.02181" lon="3.35482">
        <ele>399.2</ele>
        <time>2024-04-14T08:12:01Z</time>
      </trkpt>
      <trkpt lat="46.02187" lon="3.35481">
        <ele>399.2</ele>
        <time>2024-04-14T08:12:02Z</time>
      </trkpt>
      <trkpt lat="46.02192" lon="3.35481">
        <ele>399.2</ele>
        <time>2024-04-14T08:12:03Z</time>
      </trkpt>
      <trkpt lat="46.02197" lon="3.3548">
        <ele>399.2</ele>
        <time>2024-04-14T08:12:04Z</time>
      </trkpt>
      <trkpt lat="46.02201" lon="3.3548">
        <ele>399.2</ele>
        <time>2024-04-14T08:12:05Z</time>
      </trkpt>
      <trkpt lat="46.02204" lon="3.35479">
        <ele>399.2</ele>
        <time>2024-04-14T08:12:06Z</time>
      </trkpt>
      <trkpt lat="46.02208" lon="3.35479">
        <ele>399.2</ele>
        <time>2024-04-14T08:12:07Z</time>
      </trkpt>
      <trkpt lat="46.02211" lon="3.35478">
        <ele>399.2</ele>
        <time>2024-04-14T08:12:08Z</time>
      </trkpt>
      <trkpt lat="46.02215" lon="3.35478">
        <ele>399.2</ele>
        <time>2024-04-14T08:12:09Z</time>
      </trkpt>
      <trkpt lat="46.02218" lon="3.35478">
        <ele>399.2</ele>
        <time>2024-04-14T08:12:10Z</time>
      </trkpt>
      <trkpt lat="46.02223" lon="3.35477">
        <ele>399.2</ele>
        <time>2024-04-14T08:12:11Z</time>
      </trkpt>
      <trkpt lat="46.02228" lon="3.35477">
        <ele>399.2</ele>
        <time>2024-04-14T08:12:12Z</time>
      </trkpt>
      <trkpt lat="46.02233" lon="3.35476">
        <ele>399</ele>
        <time>2024-04-14T08:12:13Z</time>
      </trkpt>
      <trkpt lat="46.02239" lon="3.35475">
        <ele>399</ele>
        <time>2024-04-14T08:12:14Z</time>
      </trkpt>
      <trkpt lat="46.02245" lon="3.35474">
        <ele>399.2</ele>
        <time>2024-04-14T08:12:15Z</time>
      </trkpt>
      <trkpt lat="46.02251" lon="3.35474">
        <ele>399.2</ele>
        <time>2024-04-14T08:12:16Z</time>
      </trkpt>
      <trkpt lat="46.02257" lon="3.35473">
        <ele>399.2</ele>
        <time>2024-04-14T08:12:17Z</time>
      </trkpt>
      <trkpt lat="46.02264" lon="3.35472">
        <ele>399.2</ele>
        <time>2024-04-14T08:12:18Z</time>
      </trkpt>
      <trkpt lat="46.0227" lon="3.35471">
        <ele>399</ele>
        <time>2024-04-14T08:12:19Z</time>
      </trkpt>
      <trkpt lat="46.02277" lon="3.35471">
        <ele>399.2</ele>
        <time>2024-04-14T08:12:20Z</time>
      </trkpt>
      <trkpt lat="46.02283" lon="3.3547">
        <ele>399.2</ele>
        <time>2024-04-14T08:12:21Z</time>
      </trkpt>
      <trkpt lat="46.0229" lon="3.35469">
        <ele>399.2</ele>
        <time>2024-04-14T08:12:22Z</time>
      </trkpt>
      <trkpt lat="46.02296" lon="3.35468">
        <ele>399.4</ele>
        <time>2024-04-14T08:12:23Z</time>
      </trkpt>
      <trkpt lat="46.02302" lon="3.35468">
        <ele>399.2</ele>
        <time>2024-04-14T08:12:24Z</time>
      </trkpt>
      <trkpt lat="46.02308" lon="3.35467">
        <ele>399.2</ele>
        <time>2024-04-14T08:12:25Z</time>
      </trkpt>
      <trkpt lat="46.02314" lon="3.35467">
        <ele>399.2</ele>
        <time>2024-04-14T08:12:26Z</time>
      </trkpt>
      <trkpt lat="46.02321" lon="3.35466">
        <ele>399.2</ele>
        <time>2024-04-14T08:12:27Z</time>
      </trkpt>
      <trkpt lat="46.02327" lon="3.35466">
        <ele>399</ele>
        <time>2024-04-14T08:12:28Z</time>
      </trkpt>
      <trkpt lat="46.02334" lon="3.35465">
        <ele>399</ele>
        <time>2024-04-14T08:12:29Z</time>
      </trkpt>
      <trkpt lat="46.0234" lon="3.35465">
        <ele>399</ele>
        <time>2024-04-14T08:12:30Z</time>
      </trkpt>
      <trkpt lat="46.02347" lon="3.35465">
        <ele>399</ele>
        <time>2024-04-14T08:12:31Z</time>
      </trkpt>
      <trkpt lat="46.02353" lon="3.35464">
        <ele>399</ele>
        <time>2024-04-14T08:12:32Z</time>
      </trkpt>
      <trkpt lat="46.0236" lon="3.35464">
        <ele>399</ele>
        <time>2024-04-14T08:12:33Z</time>
      </trkpt>
      <trkpt lat="46.02367" lon="3.35463">
        <ele>398.8</ele>
        <time>2024-04-14T08:12:34Z</time>
      </trkpt>
      <trkpt lat="46.02374" lon="3.35463">
        <ele>399</ele>
        <time>2024-04-14T08:12:35Z</time>
      </trkpt>
      <trkpt lat="46.02381" lon="3.35462">
        <ele>399</ele>
        <time>2024-04-14T08:12:36Z</time>
      </trkpt>
      <trkpt lat="46.02388" lon="3.35462">
        <ele>399</ele>
        <time>2024-04-14T08:12:37Z</time>
      </trkpt>
      <trkpt lat="46.02395" lon="3.35461">
        <ele>398.8</ele>
        <time>2024-04-14T08:12:38Z</time>
      </trkpt>
      <trkpt lat="46.02402" lon="3.35461">
        <ele>398.8</ele>
        <time>2024-04-14T08:12:39Z</time>
      </trkpt>
      <trkpt lat="46.02409" lon="3.3546">
        <ele>398.8</ele>
        <time>2024-04-14T08:12:40Z</time>
      </trkpt>
      <trkpt lat="46.02416" lon="3.3546">
        <ele>398.8</ele>
        <time>2024-04-14T08:12:41Z</time>
      </trkpt>
      <trkpt lat="46.02422" lon="3.35459">
        <ele>398.8</ele>
        <time>2024-04-14T08:12:42Z</time>
      </trkpt>
      <trkpt lat="46.02429" lon="3.35459">
        <ele>398.8</ele>
        <time>2024-04-14T08:12:43Z</time>
      </trkpt>
      <trkpt lat="46.02436" lon="3.35458">
        <ele>398.6</ele>
        <time>2024-04-14T08:12:44Z</time>
      </trkpt>
      <trkpt lat="46.02443" lon="3.35458">
        <ele>398.6</ele>
        <time>2024-04-14T08:12:45Z</time>
      </trkpt>
      <trkpt lat="46.0245" lon="3.35457">
        <ele>398.6</ele>
        <time>2024-04-14T08:12:46Z</time>
      </trkpt>
      <trkpt lat="46.02457" lon="3.35457">
        <ele>398.6</ele>
        <time>2024-04-14T08:12:47Z</time>
      </trkpt>
      <trkpt lat="46.02464" lon="3.35456">
        <ele>398.6</ele>
        <time>2024-04-14T08:12:48Z</time>
      </trkpt>
      <trkpt lat="46.02471" lon="3.35456">
        <ele>398.6</ele>
        <time>2024-04-14T08:12:49Z</time>
      </trkpt>
      <trkpt lat="46.02477" lon="3.35456">
        <ele>398.6</ele>
        <time>2024-04-14T08:12:50Z</time>
      </trkpt>
      <trkpt lat="46.02484" lon="3.35456">
        <ele>398.6</ele>
        <time>2024-04-14T08:12:51Z</time>
      </trkpt>
      <trkpt lat="46.02491" lon="3.35456">
        <ele>398.4</ele>
        <time>2024-04-14T08:12:52Z</time>
      </trkpt>
      <trkpt lat="46.02499" lon="3.35456">
        <ele>398.4</ele>
        <time>2024-04-14T08:12:53Z</time>
      </trkpt>
      <trkpt lat="46.02505" lon="3.35456">
        <ele>398.4</ele>
        <time>2024-04-14T08:12:54Z</time>
      </trkpt>
      <trkpt lat="46.02512" lon="3.35455">
        <ele>398.4</ele>
        <time>2024-04-14T08:12:55Z</time>
      </trkpt>
      <trkpt lat="46.02519" lon="3.35455">
        <ele>398.4</ele>
        <time>2024-04-14T08:12:56Z</time>
      </trkpt>
      <trkpt lat="46.02526" lon="3.35455">
        <ele>398.4</ele>
        <time>2024-04-14T08:12:57Z</time>
      </trkpt>
      <trkpt lat="46.02533" lon="3.35455">
        <ele>398.4</ele>
        <time>2024-04-14T08:12:58Z</time>
      </trkpt>
      <trkpt lat="46.0254" lon="3.35455">
        <ele>398.4</ele>
        <time>2024-04-14T08:12:59Z</time>
      </trkpt>
      <trkpt lat="46.02547" lon="3.35455">
        <ele>398.4</ele>
        <time>2024-04-14T08:13:00Z</time>
      </trkpt>
      <trkpt lat="46.02555" lon="3.35454">
        <ele>398.4</ele>
        <time>2024-04-14T08:13:01Z</time>
      </trkpt>
      <trkpt lat="46.02562" lon="3.35454">
        <ele>398.4</ele>
        <time>2024-04-14T08:13:02Z</time>
      </trkpt>
      <trkpt lat="46.02569" lon="3.35454">
        <ele>398.4</ele>
        <time>2024-04-14T08:13:03Z</time>
      </trkpt>
      <trkpt lat="46.02576" lon="3.35454">
        <ele>398.4</ele>
        <time>2024-04-14T08:13:04Z</time>
      </trkpt>
      <trkpt lat="46.02584" lon="3.35454">
        <ele>398.4</ele>
        <time>2024-04-14T08:13:05Z</time>
      </trkpt>
      <trkpt lat="46.02591" lon="3.35454">
        <ele>398.2</ele>
        <time>2024-04-14T08:13:06Z</time>
      </trkpt>
      <trkpt lat="46.02598" lon="3.35458">
        <ele>398.2</ele>
        <time>2024-04-14T08:13:07Z</time>
      </trkpt>
      <trkpt lat="46.02605" lon="3.35461">
        <ele>398.2</ele>
        <time>2024-04-14T08:13:08Z</time>
      </trkpt>
      <trkpt lat="46.02611" lon="3.35464">
        <ele>398</ele>
        <time>2024-04-14T08:13:09Z</time>
      </trkpt>
      <trkpt lat="46.02617" lon="3.35471">
        <ele>398</ele>
        <time>2024-04-14T08:13:10Z</time>
      </trkpt>
      <trkpt lat="46.02624" lon="3.35472">
        <ele>398</ele>
        <time>2024-04-14T08:13:11Z</time>
      </trkpt>
      <trkpt lat="46.02631" lon="3.35473">
        <ele>398</ele>
        <time>2024-04-14T08:13:12Z</time>
      </trkpt>
      <trkpt lat="46.02638" lon="3.3547">
        <ele>398</ele>
        <time>2024-04-14T08:13:13Z</time>
      </trkpt>
      <trkpt lat="46.02643" lon="3.35463">
        <ele>397.8</ele>
        <time>2024-04-14T08:13:14Z</time>
      </trkpt>
      <trkpt lat="46.02645" lon="3.35453">
        <ele>397.6</ele>
        <time>2024-04-14T08:13:15Z</time>
      </trkpt>
      <trkpt lat="46.02645" lon="3.35444">
        <ele>397.6</ele>
        <time>2024-04-14T08:13:16Z</time>
      </trkpt>
      <trkpt lat="46.02643" lon="3.35435">
        <ele>397.4</ele>
        <time>2024-04-14T08:13:17Z</time>
      </trkpt>
      <trkpt lat="46.02641" lon="3.35425">
        <ele>397.2</ele>
        <time>2024-04-14T08:13:18Z</time>
      </trkpt>
      <trkpt lat="46.02639" lon="3.35417">
        <ele>397.2</ele>
        <time>2024-04-14T08:13:19Z</time>
      </trkpt>
      <trkpt lat="46.02636" lon="3.35408">
        <ele>397</ele>
        <time>2024-04-14T08:13:20Z</time>
      </trkpt>
      <trkpt lat="46.02634" lon="3.35399">
        <ele>396.8</ele>
        <time>2024-04-14T08:13:21Z</time>
      </trkpt>
      <trkpt lat="46.02631" lon="3.35391">
        <ele>396.8</ele>
        <time>2024-04-14T08:13:22Z</time>
      </trkpt>
      <trkpt lat="46.02631" lon="3.35379">
        <ele>396.8</ele>
        <time>2024-04-14T08:13:23Z</time>
      </trkpt>
      <trkpt lat="46.02632" lon="3.3537">
        <ele>396.8</ele>
        <time>2024-04-14T08:13:24Z</time>
      </trkpt>
      <trkpt lat="46.02633" lon="3.35361">
        <ele>396.6</ele>
        <time>2024-04-14T08:13:25Z</time>
      </trkpt>
      <trkpt lat="46.02635" lon="3.35352">
        <ele>396.6</ele>
        <time>2024-04-14T08:13:26Z</time>
      </trkpt>
      <trkpt lat="46.02637" lon="3.35343">
        <ele>396.6</ele>
        <time>2024-04-14T08:13:27Z</time>
      </trkpt>
      <trkpt lat="46.02639" lon="3.35335">
        <ele>396.4</ele>
        <time>2024-04-14T08:13:28Z</time>
      </trkpt>
      <trkpt lat="46.02641" lon="3.35327">
        <ele>396.4</ele>
        <time>2024-04-14T08:13:29Z</time>
      </trkpt>
      <trkpt lat="46.02643" lon="3.35319">
        <ele>396.4</ele>
        <time>2024-04-14T08:13:30Z</time>
      </trkpt>
      <trkpt lat="46.02645" lon="3.35311">
        <ele>396.4</ele>
        <time>2024-04-14T08:13:31Z</time>
      </trkpt>
      <trkpt lat="46.02647" lon="3.35303">
        <ele>396.4</ele>
        <time>2024-04-14T08:13:32Z</time>
      </trkpt>
      <trkpt lat="46.02649" lon="3.35296">
        <ele>396.2</ele>
        <time>2024-04-14T08:13:33Z</time>
      </trkpt>
      <trkpt lat="46.0265" lon="3.35289">
        <ele>396.2</ele>
        <time>2024-04-14T08:13:34Z</time>
      </trkpt>
      <trkpt lat="46.02652" lon="3.35282">
        <ele>396.2</ele>
        <time>2024-04-14T08:13:35Z</time>
      </trkpt>
      <trkpt lat="46.02654" lon="3.35272">
        <ele>396</ele>
        <time>2024-04-14T08:13:36Z</time>
      </trkpt>
      <trkpt lat="46.02657" lon="3.35263">
        <ele>396</ele>
        <time>2024-04-14T08:13:37Z</time>
      </trkpt>
      <trkpt lat="46.02659" lon="3.35254">
        <ele>396</ele>
        <time>2024-04-14T08:13:38Z</time>
      </trkpt>
      <trkpt lat="46.02661" lon="3.35246">
        <ele>395.8</ele>
        <time>2024-04-14T08:13:39Z</time>
      </trkpt>
      <trkpt lat="46.02663" lon="3.35236">
        <ele>395.8</ele>
        <time>2024-04-14T08:13:40Z</time>
      </trkpt>
      <trkpt lat="46.02666" lon="3.35227">
        <ele>395.6</ele>
        <time>2024-04-14T08:13:41Z</time>
      </trkpt>
      <trkpt lat="46.02668" lon="3.35217">
        <ele>395.6</ele>
        <time>2024-04-14T08:13:42Z</time>
      </trkpt>
      <trkpt lat="46.0267" lon="3.35208">
        <ele>395.4</ele>
        <time>2024-04-14T08:13:43Z</time>
      </trkpt>
      <trkpt lat="46.02672" lon="3.35199">
        <ele>395.4</ele>
        <time>2024-04-14T08:13:44Z</time>
      </trkpt>
      <trkpt lat="46.02675" lon="3.3519">
        <ele>395.2</ele>
        <time>2024-04-14T08:13:45Z</time>
      </trkpt>
      <trkpt lat="46.02677" lon="3.35181">
        <ele>395.2</ele>
        <time>2024-04-14T08:13:46Z</time>
      </trkpt>
      <trkpt lat="46.02679" lon="3.35172">
        <ele>395</ele>
        <time>2024-04-14T08:13:47Z</time>
      </trkpt>
      <trkpt lat="46.02681" lon="3.35163">
        <ele>394.8</ele>
        <time>2024-04-14T08:13:48Z</time>
      </trkpt>
      <trkpt lat="46.02683" lon="3.35154">
        <ele>394.6</ele>
        <time>2024-04-14T08:13:49Z</time>
      </trkpt>
      <trkpt lat="46.02685" lon="3.35145">
        <ele>394.6</ele>
        <time>2024-04-14T08:13:50Z</time>
      </trkpt>
      <trkpt lat="46.02687" lon="3.35137">
        <ele>394.4</ele>
        <time>2024-04-14T08:13:51Z</time>
      </trkpt>
      <trkpt lat="46.02689" lon="3.35129">
        <ele>394.4</ele>
        <time>2024-04-14T08:13:52Z</time>
      </trkpt>
      <trkpt lat="46.02692" lon="3.3512">
        <ele>394.2</ele>
        <time>2024-04-14T08:13:53Z</time>
      </trkpt>
      <trkpt lat="46.02694" lon="3.35111">
        <ele>394.2</ele>
        <time>2024-04-14T08:13:54Z</time>
      </trkpt>
      <trkpt lat="46.02696" lon="3.35102">
        <ele>394.2</ele>
        <time>2024-04-14T08:13:55Z</time>
      </trkpt>
      <trkpt lat="46.02698" lon="3.35093">
        <ele>394.2</ele>
        <time>2024-04-14T08:13:56Z</time>
      </trkpt>
      <trkpt lat="46.027" lon="3.35084">
        <ele>394</ele>
        <time>2024-04-14T08:13:57Z</time>
      </trkpt>
      <trkpt lat="46.02703" lon="3.35075">
        <ele>394</ele>
        <time>2024-04-14T08:13:58Z</time>
      </trkpt>
      <trkpt lat="46.02705" lon="3.35066">
        <ele>394</ele>
        <time>2024-04-14T08:13:59Z</time>
      </trkpt>
      <trkpt lat="46.02707" lon="3.35058">
        <ele>393.8</ele>
        <time>2024-04-14T08:14:00Z</time>
      </trkpt>
      <trkpt lat="46.02709" lon="3.3505">
        <ele>393.8</ele>
        <time>2024-04-14T08:14:01Z</time>
      </trkpt>
      <trkpt lat="46.02711" lon="3.35042">
        <ele>393.8</ele>
        <time>2024-04-14T08:14:02Z</time>
      </trkpt>
      <trkpt lat="46.02713" lon="3.35033">
        <ele>393.8</ele>
        <time>2024-04-14T08:14:03Z</time>
      </trkpt>
      <trkpt lat="46.02715" lon="3.35025">
        <ele>393.6</ele>
        <time>2024-04-14T08:14:04Z</time>
      </trkpt>
      <trkpt lat="46.02717" lon="3.35016">
        <ele>393.6</ele>
        <time>2024-04-14T08:14:05Z</time>
      </trkpt>
      <trkpt lat="46.02719" lon="3.35006">
        <ele>393.8</ele>
        <time>2024-04-14T08:14:06Z</time>
      </trkpt>
      <trkpt lat="46.02722" lon="3.34997">
        <ele>393.8</ele>
        <time>2024-04-14T08:14:07Z</time>
      </trkpt>
      <trkpt lat="46.02724" lon="3.34987">
        <ele>393.6</ele>
        <time>2024-04-14T08:14:08Z</time>
      </trkpt>
      <trkpt lat="46.02726" lon="3.34979">
        <ele>393.6</ele>
        <time>2024-04-14T08:14:09Z</time>
      </trkpt>
      <trkpt lat="46.02728" lon="3.34969">
        <ele>393.6</ele>
        <time>2024-04-14T08:14:10Z</time>
      </trkpt>
      <trkpt lat="46.02731" lon="3.34959">
        <ele>393.6</ele>
        <time>2024-04-14T08:14:11Z</time>
      </trkpt>
      <trkpt lat="46.02733" lon="3.34949">
        <ele>393.4</ele>
        <time>2024-04-14T08:14:12Z</time>
      </trkpt>
      <trkpt lat="46.02736" lon="3.34939">
        <ele>393.4</ele>
        <time>2024-04-14T08:14:13Z</time>
      </trkpt>
      <trkpt lat="46.02738" lon="3.3493">
        <ele>393.4</ele>
        <time>2024-04-14T08:14:14Z</time>
      </trkpt>
      <trkpt lat="46.0274" lon="3.3492">
        <ele>393.2</ele>
        <time>2024-04-14T08:14:15Z</time>
      </trkpt>
      <trkpt lat="46.02743" lon="3.34911">
        <ele>393.2</ele>
        <time>2024-04-14T08:14:16Z</time>
      </trkpt>
      <trkpt lat="46.02745" lon="3.34902">
        <ele>393</ele>
        <time>2024-04-14T08:14:17Z</time>
      </trkpt>
      <trkpt lat="46.02747" lon="3.34892">
        <ele>393</ele>
        <time>2024-04-14T08:14:18Z</time>
      </trkpt>
      <trkpt lat="46.0275" lon="3.34882">
        <ele>393</ele>
        <time>2024-04-14T08:14:19Z</time>
      </trkpt>
      <trkpt lat="46.02752" lon="3.34872">
        <ele>392.8</ele>
        <time>2024-04-14T08:14:20Z</time>
      </trkpt>
      <trkpt lat="46.02754" lon="3.34863">
        <ele>392.8</ele>
        <time>2024-04-14T08:14:21Z</time>
      </trkpt>
      <trkpt lat="46.02756" lon="3.34855">
        <ele>392.8</ele>
        <time>2024-04-14T08:14:22Z</time>
      </trkpt>
      <trkpt lat="46.02758" lon="3.34846">
        <ele>392.6</ele>
        <time>2024-04-14T08:14:23Z</time>
      </trkpt>
      <trkpt lat="46.02761" lon="3.34837">
        <ele>392.6</ele>
        <time>2024-04-14T08:14:24Z</time>
      </trkpt>
      <trkpt lat="46.02763" lon="3.34829">
        <ele>392.6</ele>
        <time>2024-04-14T08:14:25Z</time>
      </trkpt>
      <trkpt lat="46.02765" lon="3.3482">
        <ele>392.6</ele>
        <time>2024-04-14T08:14:26Z</time>
      </trkpt>
      <trkpt lat="46.02767" lon="3.34811">
        <ele>392.4</ele>
        <time>2024-04-14T08:14:27Z</time>
      </trkpt>
      <trkpt lat="46.02769" lon="3.34802">
        <ele>392.4</ele>
        <time>2024-04-14T08:14:28Z</time>
      </trkpt>
      <trkpt lat="46.02772" lon="3.34792">
        <ele>392.2</ele>
        <time>2024-04-14T08:14:29Z</time>
      </trkpt>
      <trkpt lat="46.02774" lon="3.34782">
        <ele>392</ele>
        <time>2024-04-14T08:14:30Z</time>
      </trkpt>
      <trkpt lat="46.02777" lon="3.34772">
        <ele>392</ele>
        <time>2024-04-14T08:14:31Z</time>
      </trkpt>
      <trkpt lat="46.02779" lon="3.34762">
        <ele>391.8</ele>
        <time>2024-04-14T08:14:32Z</time>
      </trkpt>
      <trkpt lat="46.02782" lon="3.34751">
        <ele>391.8</ele>
        <time>2024-04-14T08:14:33Z</time>
      </trkpt>
      <trkpt lat="46.02784" lon="3.34742">
        <ele>391.6</ele>
        <time>2024-04-14T08:14:34Z</time>
      </trkpt>
      <trkpt lat="46.02786" lon="3.34733">
        <ele>391.6</ele>
        <time>2024-04-14T08:14:35Z</time>
      </trkpt>
      <trkpt lat="46.02787" lon="3.34723">
        <ele>391.4</ele>
        <time>2024-04-14T08:14:36Z</time>
      </trkpt>
      <trkpt lat="46.02787" lon="3.34712">
        <ele>391.4</ele>
        <time>2024-04-14T08:14:37Z</time>
      </trkpt>
      <trkpt lat="46.02787" lon="3.34702">
        <ele>391.2</ele>
        <time>2024-04-14T08:14:38Z</time>
      </trkpt>
      <trkpt lat="46.02787" lon="3.34692">
        <ele>391.2</ele>
        <time>2024-04-14T08:14:39Z</time>
      </trkpt>
      <trkpt lat="46.02787" lon="3.34681">
        <ele>391</ele>
        <time>2024-04-14T08:14:40Z</time>
      </trkpt>
      <trkpt lat="46.02787" lon="3.34671">
        <ele>391</ele>
        <time>2024-04-14T08:14:41Z</time>
      </trkpt>
      <trkpt lat="46.02788" lon="3.34662">
        <ele>391</ele>
        <time>2024-04-14T08:14:42Z</time>
      </trkpt>
      <trkpt lat="46.02788" lon="3.34652">
        <ele>390.8</ele>
        <time>2024-04-14T08:14:43Z</time>
      </trkpt>
      <trkpt lat="46.02788" lon="3.34642">
        <ele>390.8</ele>
        <time>2024-04-14T08:14:44Z</time>
      </trkpt>
      <trkpt lat="46.02788" lon="3.34632">
        <ele>390.8</ele>
        <time>2024-04-14T08:14:45Z</time>
      </trkpt>
      <trkpt lat="46.02788" lon="3.34622">
        <ele>390.8</ele>
        <time>2024-04-14T08:14:46Z</time>
      </trkpt>
      <trkpt lat="46.02788" lon="3.34612">
        <ele>390.8</ele>
        <time>2024-04-14T08:14:47Z</time>
      </trkpt>
      <trkpt lat="46.02789" lon="3.34602">
        <ele>390.8</ele>
        <time>2024-04-14T08:14:48Z</time>
      </trkpt>
      <trkpt lat="46.02789" lon="3.34592">
        <ele>390.6</ele>
        <time>2024-04-14T08:14:49Z</time>
      </trkpt>
      <trkpt lat="46.02789" lon="3.34581">
        <ele>390.6</ele>
        <time>2024-04-14T08:14:50Z</time>
      </trkpt>
      <trkpt lat="46.02789" lon="3.34571">
        <ele>390.6</ele>
        <time>2024-04-14T08:14:51Z</time>
      </trkpt>
      <trkpt lat="46.02789" lon="3.34562">
        <ele>390.4</ele>
        <time>2024-04-14T08:14:52Z</time>
      </trkpt>
      <trkpt lat="46.02789" lon="3.34552">
        <ele>390.2</ele>
        <time>2024-04-14T08:14:53Z</time>
      </trkpt>
      <trkpt lat="46.0279" lon="3.34542">
        <ele>390.2</ele>
        <time>2024-04-14T08:14:54Z</time>
      </trkpt>
      <trkpt lat="46.0279" lon="3.34532">
        <ele>390</ele>
        <time>2024-04-14T08:14:55Z</time>
      </trkpt>
      <trkpt lat="46.0279" lon="3.34522">
        <ele>390</ele>
        <time>2024-04-14T08:14:56Z</time>
      </trkpt>
      <trkpt lat="46.0279" lon="3.34512">
        <ele>390</ele>
        <time>2024-04-14T08:14:57Z</time>
      </trkpt>
      <trkpt lat="46.0279" lon="3.34502">
        <ele>389.8</ele>
        <time>2024-04-14T08:14:58Z</time>
      </trkpt>
      <trkpt lat="46.0279" lon="3.34491">
        <ele>389.8</ele>
        <time>2024-04-14T08:14:59Z</time>
      </trkpt>
      <trkpt lat="46.02791" lon="3.34481">
        <ele>389.8</ele>
        <time>2024-04-14T08:15:00Z</time>
      </trkpt>
      <trkpt lat="46.02791" lon="3.34471">
        <ele>389.8</ele>
        <time>2024-04-14T08:15:01Z</time>
      </trkpt>
      <trkpt lat="46.02791" lon="3.34461">
        <ele>389.8</ele>
        <time>2024-04-14T08:15:02Z</time>
      </trkpt>
      <trkpt lat="46.02792" lon="3.34451">
        <ele>389.8</ele>
        <time>2024-04-14T08:15:03Z</time>
      </trkpt>
      <trkpt lat="46.02793" lon="3.3444">
        <ele>389.8</ele>
        <time>2024-04-14T08:15:04Z</time>
      </trkpt>
      <trkpt lat="46.02794" lon="3.34429">
        <ele>389.8</ele>
        <time>2024-04-14T08:15:05Z</time>
      </trkpt>
      <trkpt lat="46.02795" lon="3.34419">
        <ele>389.8</ele>
        <time>2024-04-14T08:15:06Z</time>
      </trkpt>
      <trkpt lat="46.02798" lon="3.3441">
        <ele>389.8</ele>
        <time>2024-04-14T08:15:07Z</time>
      </trkpt>
      <trkpt lat="46.02801" lon="3.34401">
        <ele>389.8</ele>
        <time>2024-04-14T08:15:08Z</time>
      </trkpt>
      <trkpt lat="46.02804" lon="3.34392">
        <ele>389.8</ele>
        <time>2024-04-14T08:15:09Z</time>
      </trkpt>
      <trkpt lat="46.02807" lon="3.34383">
        <ele>389.8</ele>
        <time>2024-04-14T08:15:10Z</time>
      </trkpt>
      <trkpt lat="46.02811" lon="3.34373">
        <ele>389.8</ele>
        <time>2024-04-14T08:15:11Z</time>
      </trkpt>
      <trkpt lat="46.02814" lon="3.34364">
        <ele>390</ele>
        <time>2024-04-14T08:15:12Z</time>
      </trkpt>
      <trkpt lat="46.02817" lon="3.34355">
        <ele>390</ele>
        <time>2024-04-14T08:15:13Z</time>
      </trkpt>
      <trkpt lat="46.02821" lon="3.34346">
        <ele>389.8</ele>
        <time>2024-04-14T08:15:14Z</time>
      </trkpt>
      <trkpt lat="46.02825" lon="3.34338">
        <ele>389.8</ele>
        <time>2024-04-14T08:15:15Z</time>
      </trkpt>
      <trkpt lat="46.02829" lon="3.3433">
        <ele>389.4</ele>
        <time>2024-04-14T08:15:16Z</time>
      </trkpt>
      <trkpt lat="46.02834" lon="3.34321">
        <ele>390</ele>
        <time>2024-04-14T08:15:17Z</time>
      </trkpt>
      <trkpt lat="46.02839" lon="3.34313">
        <ele>390.6</ele>
        <time>2024-04-14T08:15:18Z</time>
      </trkpt>
      <trkpt lat="46.02843" lon="3.34306">
        <ele>390.2</ele>
        <time>2024-04-14T08:15:19Z</time>
      </trkpt>
      <trkpt lat="46.02849" lon="3.34298">
        <ele>390.4</ele>
        <time>2024-04-14T08:15:20Z</time>
      </trkpt>
      <trkpt lat="46.02854" lon="3.34291">
        <ele>390.4</ele>
        <time>2024-04-14T08:15:21Z</time>
      </trkpt>
      <trkpt lat="46.02859" lon="3.34284">
        <ele>390.4</ele>
        <time>2024-04-14T08:15:22Z</time>
      </trkpt>
      <trkpt lat="46.02863" lon="3.34277">
        <ele>390.4</ele>
        <time>2024-04-14T08:15:23Z</time>
      </trkpt>
      <trkpt lat="46.02868" lon="3.3427">
        <ele>390.4</ele>
        <time>2024-04-14T08:15:24Z</time>
      </trkpt>
      <trkpt lat="46.02873" lon="3.34262">
        <ele>390.4</ele>
        <time>2024-04-14T08:15:25Z</time>
      </trkpt>
      <trkpt lat="46.02878" lon="3.34255">
        <ele>390.4</ele>
        <time>2024-04-14T08:15:26Z</time>
      </trkpt>
      <trkpt lat="46.02883" lon="3.34248">
        <ele>390.2</ele>
        <time>2024-04-14T08:15:27Z</time>
      </trkpt>
      <trkpt lat="46.02888" lon="3.3424">
        <ele>390.4</ele>
        <time>2024-04-14T08:15:28Z</time>
      </trkpt>
      <trkpt lat="46.02893" lon="3.34233">
        <ele>390.4</ele>
        <time>2024-04-14T08:15:29Z</time>
      </trkpt>
      <trkpt lat="46.02898" lon="3.34226">
        <ele>390.2</ele>
        <time>2024-04-14T08:15:30Z</time>
      </trkpt>
      <trkpt lat="46.02903" lon="3.34219">
        <ele>390.2</ele>
        <time>2024-04-14T08:15:31Z</time>
      </trkpt>
      <trkpt lat="46.02908" lon="3.34212">
        <ele>390.2</ele>
        <time>2024-04-14T08:15:32Z</time>
      </trkpt>
      <trkpt lat="46.02913" lon="3.34204">
        <ele>390.2</ele>
        <time>2024-04-14T08:15:33Z</time>
      </trkpt>
      <trkpt lat="46.02917" lon="3.34198">
        <ele>390.2</ele>
        <time>2024-04-14T08:15:34Z</time>
      </trkpt>
      <trkpt lat="46.02922" lon="3.34191">
        <ele>390.2</ele>
        <time>2024-04-14T08:15:35Z</time>
      </trkpt>
      <trkpt lat="46.02926" lon="3.34185">
        <ele>389.6</ele>
        <time>2024-04-14T08:15:36Z</time>
      </trkpt>
      <trkpt lat="46.02931" lon="3.34178">
        <ele>389.8</ele>
        <time>2024-04-14T08:15:37Z</time>
      </trkpt>
      <trkpt lat="46.02936" lon="3.3417">
        <ele>389.8</ele>
        <time>2024-04-14T08:15:38Z</time>
      </trkpt>
      <trkpt lat="46.02941" lon="3.34163">
        <ele>389.8</ele>
        <time>2024-04-14T08:15:39Z</time>
      </trkpt>
      <trkpt lat="46.02946" lon="3.34156">
        <ele>389.8</ele>
        <time>2024-04-14T08:15:40Z</time>
      </trkpt>
      <trkpt lat="46.02951" lon="3.34149">
        <ele>389.6</ele>
        <time>2024-04-14T08:15:41Z</time>
      </trkpt>
      <trkpt lat="46.02955" lon="3.34142">
        <ele>389.6</ele>
        <time>2024-04-14T08:15:42Z</time>
      </trkpt>
      <trkpt lat="46.0296" lon="3.34135">
        <ele>389.6</ele>
        <time>2024-04-14T08:15:43Z</time>
      </trkpt>
      <trkpt lat="46.02965" lon="3.34128">
        <ele>389.6</ele>
        <time>2024-04-14T08:15:44Z</time>
      </trkpt>
      <trkpt lat="46.0297" lon="3.34121">
        <ele>389.4</ele>
        <time>2024-04-14T08:15:45Z</time>
      </trkpt>
      <trkpt lat="46.02974" lon="3.34114">
        <ele>389.4</ele>
        <time>2024-04-14T08:15:46Z</time>
      </trkpt>
      <trkpt lat="46.02979" lon="3.34108">
        <ele>389.4</ele>
        <time>2024-04-14T08:15:47Z</time>
      </trkpt>
      <trkpt lat="46.02982" lon="3.34099">
        <ele>389.4</ele>
        <time>2024-04-14T08:15:48Z</time>
      </trkpt>
      <trkpt lat="46.02985" lon="3.34091">
        <ele>389.4</ele>
        <time>2024-04-14T08:15:49Z</time>
      </trkpt>
      <trkpt lat="46.02988" lon="3.34083">
        <ele>389.4</ele>
        <time>2024-04-14T08:15:50Z</time>
      </trkpt>
      <trkpt lat="46.0299" lon="3.34075">
        <ele>389.2</ele>
        <time>2024-04-14T08:15:51Z</time>
      </trkpt>
      <trkpt lat="46.02993" lon="3.34068">
        <ele>389</ele>
        <time>2024-04-14T08:15:52Z</time>
      </trkpt>
      <trkpt lat="46.02996" lon="3.34059">
        <ele>389</ele>
        <time>2024-04-14T08:15:53Z</time>
      </trkpt>
      <trkpt lat="46.02999" lon="3.3405">
        <ele>389</ele>
        <time>2024-04-14T08:15:54Z</time>
      </trkpt>
      <trkpt lat="46.03002" lon="3.34041">
        <ele>389</ele>
        <time>2024-04-14T08:15:55Z</time>
      </trkpt>
      <trkpt lat="46.03005" lon="3.34032">
        <ele>389</ele>
        <time>2024-04-14T08:15:56Z</time>
      </trkpt>
      <trkpt lat="46.03008" lon="3.34023">
        <ele>389</ele>
        <time>2024-04-14T08:15:57Z</time>
      </trkpt>
      <trkpt lat="46.03011" lon="3.34014">
        <ele>388.8</ele>
        <time>2024-04-14T08:15:58Z</time>
      </trkpt>
      <trkpt lat="46.03014" lon="3.34005">
        <ele>388.8</ele>
        <time>2024-04-14T08:15:59Z</time>
      </trkpt>
      <trkpt lat="46.03017" lon="3.33996">
        <ele>388.6</ele>
        <time>2024-04-14T08:16:00Z</time>
      </trkpt>
      <trkpt lat="46.03021" lon="3.33985">
        <ele>388.6</ele>
        <time>2024-04-14T08:16:01Z</time>
      </trkpt>
      <trkpt lat="46.03022" lon="3.33976">
        <ele>388.8</ele>
        <time>2024-04-14T08:16:02Z</time>
      </trkpt>
      <trkpt lat="46.03022" lon="3.33965">
        <ele>388.8</ele>
        <time>2024-04-14T08:16:03Z</time>
      </trkpt>
      <trkpt lat="46.03021" lon="3.33956">
        <ele>388.6</ele>
        <time>2024-04-14T08:16:04Z</time>
      </trkpt>
      <trkpt lat="46.0302" lon="3.33946">
        <ele>388.8</ele>
        <time>2024-04-14T08:16:05Z</time>
      </trkpt>
      <trkpt lat="46.03019" lon="3.33936">
        <ele>389</ele>
        <time>2024-04-14T08:16:06Z</time>
      </trkpt>
      <trkpt lat="46.03018" lon="3.33925">
        <ele>389</ele>
        <time>2024-04-14T08:16:07Z</time>
      </trkpt>
      <trkpt lat="46.03015" lon="3.33915">
        <ele>389</ele>
        <time>2024-04-14T08:16:08Z</time>
      </trkpt>
      <trkpt lat="46.03013" lon="3.33906">
        <ele>388.6</ele>
        <time>2024-04-14T08:16:09Z</time>
      </trkpt>
      <trkpt lat="46.03011" lon="3.33897">
        <ele>389</ele>
        <time>2024-04-14T08:16:10Z</time>
      </trkpt>
      <trkpt lat="46.03009" lon="3.33888">
        <ele>389.2</ele>
        <time>2024-04-14T08:16:11Z</time>
      </trkpt>
      <trkpt lat="46.03006" lon="3.3388">
        <ele>389.4</ele>
        <time>2024-04-14T08:16:12Z</time>
      </trkpt>
      <trkpt lat="46.03004" lon="3.33871">
        <ele>389.4</ele>
        <time>2024-04-14T08:16:13Z</time>
      </trkpt>
      <trkpt lat="46.03002" lon="3.33863">
        <ele>389.4</ele>
        <time>2024-04-14T08:16:14Z</time>
      </trkpt>
      <trkpt lat="46.03" lon="3.33855">
        <ele>389.2</ele>
        <time>2024-04-14T08:16:15Z</time>
      </trkpt>
      <trkpt lat="46.02998" lon="3.33846">
        <ele>389.4</ele>
        <time>2024-04-14T08:16:16Z</time>
      </trkpt>
      <trkpt lat="46.02996" lon="3.33837">
        <ele>389.4</ele>
        <time>2024-04-14T08:16:17Z</time>
      </trkpt>
      <trkpt lat="46.02995" lon="3.33828">
        <ele>389.6</ele>
        <time>2024-04-14T08:16:18Z</time>
      </trkpt>
      <trkpt lat="46.02994" lon="3.33819">
        <ele>389.6</ele>
        <time>2024-04-14T08:16:19Z</time>
      </trkpt>
      <trkpt lat="46.02994" lon="3.3381">
        <ele>389.4</ele>
        <time>2024-04-14T08:16:20Z</time>
      </trkpt>
      <trkpt lat="46.02993" lon="3.33801">
        <ele>389</ele>
        <time>2024-04-14T08:16:21Z</time>
      </trkpt>
      <trkpt lat="46.02992" lon="3.33792">
        <ele>388.8</ele>
        <time>2024-04-14T08:16:22Z</time>
      </trkpt>
      <trkpt lat="46.02991" lon="3.33784">
        <ele>388.6</ele>
        <time>2024-04-14T08:16:23Z</time>
      </trkpt>
      <trkpt lat="46.0299" lon="3.33775">
        <ele>388.8</ele>
        <time>2024-04-14T08:16:24Z</time>
      </trkpt>
      <trkpt lat="46.02989" lon="3.33765">
        <ele>388.8</ele>
        <time>2024-04-14T08:16:25Z</time>
      </trkpt>
      <trkpt lat="46.02988" lon="3.33756">
        <ele>388.8</ele>
        <time>2024-04-14T08:16:26Z</time>
      </trkpt>
      <trkpt lat="46.02987" lon="3.33747">
        <ele>388.8</ele>
        <time>2024-04-14T08:16:27Z</time>
      </trkpt>
      <trkpt lat="46.02986" lon="3.33738">
        <ele>388.8</ele>
        <time>2024-04-14T08:16:28Z</time>
      </trkpt>
      <trkpt lat="46.02985" lon="3.33728">
        <ele>388.8</ele>
        <time>2024-04-14T08:16:29Z</time>
      </trkpt>
      <trkpt lat="46.02984" lon="3.33719">
        <ele>388.8</ele>
        <time>2024-04-14T08:16:30Z</time>
      </trkpt>
      <trkpt lat="46.02983" lon="3.33709">
        <ele>388.4</ele>
        <time>2024-04-14T08:16:31Z</time>
      </trkpt>
      <trkpt lat="46.02982" lon="3.33699">
        <ele>388.6</ele>
        <time>2024-04-14T08:16:32Z</time>
      </trkpt>
      <trkpt lat="46.02981" lon="3.33689">
        <ele>388.6</ele>
        <time>2024-04-14T08:16:33Z</time>
      </trkpt>
      <trkpt lat="46.0298" lon="3.33678">
        <ele>388.8</ele>
        <time>2024-04-14T08:16:34Z</time>
      </trkpt>
      <trkpt lat="46.02979" lon="3.33668">
        <ele>388.8</ele>
        <time>2024-04-14T08:16:35Z</time>
      </trkpt>
      <trkpt lat="46.02978" lon="3.33658">
        <ele>388.6</ele>
        <time>2024-04-14T08:16:36Z</time>
      </trkpt>
      <trkpt lat="46.02977" lon="3.33647">
        <ele>388.6</ele>
        <time>2024-04-14T08:16:37Z</time>
      </trkpt>
      <trkpt lat="46.02976" lon="3.33636">
        <ele>388.6</ele>
        <time>2024-04-14T08:16:38Z</time>
      </trkpt>
      <trkpt lat="46.02975" lon="3.33625">
        <ele>388.4</ele>
        <time>2024-04-14T08:16:39Z</time>
      </trkpt>
      <trkpt lat="46.02974" lon="3.33615">
        <ele>388.6</ele>
        <time>2024-04-14T08:16:40Z</time>
      </trkpt>
      <trkpt lat="46.02974" lon="3.33604">
        <ele>388.6</ele>
        <time>2024-04-14T08:16:41Z</time>
      </trkpt>
      <trkpt lat="46.02973" lon="3.33593">
        <ele>388.4</ele>
        <time>2024-04-14T08:16:42Z</time>
      </trkpt>
      <trkpt lat="46.02972" lon="3.33581">
        <ele>388.8</ele>
        <time>2024-04-14T08:16:43Z</time>
      </trkpt>
      <trkpt lat="46.02971" lon="3.33569">
        <ele>388.6</ele>
        <time>2024-04-14T08:16:44Z</time>
      </trkpt>
      <trkpt lat="46.0297" lon="3.33559">
        <ele>388.2</ele>
        <time>2024-04-14T08:16:45Z</time>
      </trkpt>
      <trkpt lat="46.02969" lon="3.33547">
        <ele>387.8</ele>
        <time>2024-04-14T08:16:46Z</time>
      </trkpt>
      <trkpt lat="46.02968" lon="3.33534">
        <ele>387.4</ele>
        <time>2024-04-14T08:16:47Z</time>
      </trkpt>
      <trkpt lat="46.02967" lon="3.3352">
        <ele>387.2</ele>
        <time>2024-04-14T08:16:48Z</time>
      </trkpt>
      <trkpt lat="46.02966" lon="3.33507">
        <ele>387</ele>
        <time>2024-04-14T08:16:49Z</time>
      </trkpt>
      <trkpt lat="46.02965" lon="3.33495">
        <ele>386.8</ele>
        <time>2024-04-14T08:16:50Z</time>
      </trkpt>
      <trkpt lat="46.02964" lon="3.33481">
        <ele>386.4</ele>
        <time>2024-04-14T08:16:51Z</time>
      </trkpt>
      <trkpt lat="46.02963" lon="3.33468">
        <ele>386.2</ele>
        <time>2024-04-14T08:16:52Z</time>
      </trkpt>
      <trkpt lat="46.02959" lon="3.33455">
        <ele>386</ele>
        <time>2024-04-14T08:16:53Z</time>
      </trkpt>
      <trkpt lat="46.02956" lon="3.33443">
        <ele>385.8</ele>
        <time>2024-04-14T08:16:54Z</time>
      </trkpt>
      <trkpt lat="46.02952" lon="3.33431">
        <ele>385.6</ele>
        <time>2024-04-14T08:16:55Z</time>
      </trkpt>
      <trkpt lat="46.02948" lon="3.33419">
        <ele>385.6</ele>
        <time>2024-04-14T08:16:56Z</time>
      </trkpt>
      <trkpt lat="46.02943" lon="3.33408">
        <ele>385.4</ele>
        <time>2024-04-14T08:16:57Z</time>
      </trkpt>
      <trkpt lat="46.02939" lon="3.33397">
        <ele>385.4</ele>
        <time>2024-04-14T08:16:58Z</time>
      </trkpt>
      <trkpt lat="46.02934" lon="3.33385">
        <ele>385.4</ele>
        <time>2024-04-14T08:16:59Z</time>
      </trkpt>
      <trkpt lat="46.0293" lon="3.33374">
        <ele>385.2</ele>
        <time>2024-04-14T08:17:00Z</time>
      </trkpt>
      <trkpt lat="46.02925" lon="3.33363">
        <ele>385</ele>
        <time>2024-04-14T08:17:01Z</time>
      </trkpt>
      <trkpt lat="46.02921" lon="3.33352">
        <ele>385</ele>
        <time>2024-04-14T08:17:02Z</time>
      </trkpt>
      <trkpt lat="46.02916" lon="3.33341">
        <ele>385</ele>
        <time>2024-04-14T08:17:03Z</time>
      </trkpt>
      <trkpt lat="46.02913" lon="3.33328">
        <ele>384.8</ele>
        <time>2024-04-14T08:17:04Z</time>
      </trkpt>
      <trkpt lat="46.02911" lon="3.33315">
        <ele>384.8</ele>
        <time>2024-04-14T08:17:05Z</time>
      </trkpt>
      <trkpt lat="46.02912" lon="3.33303">
        <ele>384.6</ele>
        <time>2024-04-14T08:17:06Z</time>
      </trkpt>
      <trkpt lat="46.02912" lon="3.3329">
        <ele>384.6</ele>
        <time>2024-04-14T08:17:07Z</time>
      </trkpt>
      <trkpt lat="46.02913" lon="3.33277">
        <ele>384.4</ele>
        <time>2024-04-14T08:17:08Z</time>
      </trkpt>
      <trkpt lat="46.02914" lon="3.33264">
        <ele>384.2</ele>
        <time>2024-04-14T08:17:09Z</time>
      </trkpt>
      <trkpt lat="46.02916" lon="3.33252">
        <ele>384</ele>
        <time>2024-04-14T08:17:10Z</time>
      </trkpt>
      <trkpt lat="46.02919" lon="3.33239">
        <ele>384</ele>
        <time>2024-04-14T08:17:11Z</time>
      </trkpt>
      <trkpt lat="46.02921" lon="3.33227">
        <ele>383.8</ele>
        <time>2024-04-14T08:17:12Z</time>
      </trkpt>
      <trkpt lat="46.02924" lon="3.33216">
        <ele>383.6</ele>
        <time>2024-04-14T08:17:13Z</time>
      </trkpt>
      <trkpt lat="46.02926" lon="3.33205">
        <ele>383.4</ele>
        <time>2024-04-14T08:17:14Z</time>
      </trkpt>
      <trkpt lat="46.02926" lon="3.33194">
        <ele>383.4</ele>
        <time>2024-04-14T08:17:15Z</time>
      </trkpt>
      <trkpt lat="46.02926" lon="3.33183">
        <ele>383.2</ele>
        <time>2024-04-14T08:17:16Z</time>
      </trkpt>
      <trkpt lat="46.02927" lon="3.33171">
        <ele>383.2</ele>
        <time>2024-04-14T08:17:17Z</time>
      </trkpt>
      <trkpt lat="46.02927" lon="3.33159">
        <ele>383.2</ele>
        <time>2024-04-14T08:17:18Z</time>
      </trkpt>
      <trkpt lat="46.02927" lon="3.33148">
        <ele>383.2</ele>
        <time>2024-04-14T08:17:19Z</time>
      </trkpt>
      <trkpt lat="46.02927" lon="3.33139">
        <ele>383.2</ele>
        <time>2024-04-14T08:17:20Z</time>
      </trkpt>
      <trkpt lat="46.02928" lon="3.33129">
        <ele>383.4</ele>
        <time>2024-04-14T08:17:21Z</time>
      </trkpt>
      <trkpt lat="46.02928" lon="3.33119">
        <ele>383.4</ele>
        <time>2024-04-14T08:17:22Z</time>
      </trkpt>
      <trkpt lat="46.02928" lon="3.33109">
        <ele>383.4</ele>
        <time>2024-04-14T08:17:23Z</time>
      </trkpt>
      <trkpt lat="46.02928" lon="3.33099">
        <ele>383.6</ele>
        <time>2024-04-14T08:17:24Z</time>
      </trkpt>
      <trkpt lat="46.02929" lon="3.33089">
        <ele>383.6</ele>
        <time>2024-04-14T08:17:25Z</time>
      </trkpt>
      <trkpt lat="46.02929" lon="3.33079">
        <ele>383.8</ele>
        <time>2024-04-14T08:17:26Z</time>
      </trkpt>
      <trkpt lat="46.02929" lon="3.33069">
        <ele>383.8</ele>
        <time>2024-04-14T08:17:27Z</time>
      </trkpt>
      <trkpt lat="46.02929" lon="3.3306">
        <ele>382.8</ele>
        <time>2024-04-14T08:17:28Z</time>
      </trkpt>
      <trkpt lat="46.02929" lon="3.33051">
        <ele>383.4</ele>
        <time>2024-04-14T08:17:29Z</time>
      </trkpt>
      <trkpt lat="46.0293" lon="3.33041">
        <ele>384.2</ele>
        <time>2024-04-14T08:17:30Z</time>
      </trkpt>
      <trkpt lat="46.0293" lon="3.33031">
        <ele>384.8</ele>
        <time>2024-04-14T08:17:31Z</time>
      </trkpt>
      <trkpt lat="46.0293" lon="3.33021">
        <ele>385.2</ele>
        <time>2024-04-14T08:17:32Z</time>
      </trkpt>
      <trkpt lat="46.0293" lon="3.33011">
        <ele>384.4</ele>
        <time>2024-04-14T08:17:33Z</time>
      </trkpt>
      <trkpt lat="46.02931" lon="3.33">
        <ele>384.4</ele>
        <time>2024-04-14T08:17:34Z</time>
      </trkpt>
      <trkpt lat="46.02931" lon="3.3299">
        <ele>384.6</ele>
        <time>2024-04-14T08:17:35Z</time>
      </trkpt>
      <trkpt lat="46.02931" lon="3.32981">
        <ele>384.6</ele>
        <time>2024-04-14T08:17:36Z</time>
      </trkpt>
      <trkpt lat="46.02931" lon="3.32972">
        <ele>384.8</ele>
        <time>2024-04-14T08:17:37Z</time>
      </trkpt>
      <trkpt lat="46.02931" lon="3.32963">
        <ele>384.8</ele>
        <time>2024-04-14T08:17:38Z</time>
      </trkpt>
      <trkpt lat="46.02932" lon="3.32953">
        <ele>385</ele>
        <time>2024-04-14T08:17:39Z</time>
      </trkpt>
      <trkpt lat="46.02932" lon="3.32943">
        <ele>385</ele>
        <time>2024-04-14T08:17:40Z</time>
      </trkpt>
      <trkpt lat="46.02932" lon="3.32933">
        <ele>385</ele>
        <time>2024-04-14T08:17:41Z</time>
      </trkpt>
      <trkpt lat="46.02932" lon="3.32923">
        <ele>385.2</ele>
        <time>2024-04-14T08:17:42Z</time>
      </trkpt>
      <trkpt lat="46.02932" lon="3.32913">
        <ele>385.2</ele>
        <time>2024-04-14T08:17:43Z</time>
      </trkpt>
      <trkpt lat="46.02933" lon="3.32903">
        <ele>385.2</ele>
        <time>2024-04-14T08:17:44Z</time>
      </trkpt>
      <trkpt lat="46.02933" lon="3.32895">
        <ele>385.4</ele>
        <time>2024-04-14T08:17:45Z</time>
      </trkpt>
      <trkpt lat="46.02933" lon="3.32885">
        <ele>385.4</ele>
        <time>2024-04-14T08:17:46Z</time>
      </trkpt>
      <trkpt lat="46.02933" lon="3.32876">
        <ele>385.6</ele>
        <time>2024-04-14T08:17:47Z</time>
      </trkpt>
      <trkpt lat="46.02934" lon="3.32866">
        <ele>385.6</ele>
        <time>2024-04-14T08:17:48Z</time>
      </trkpt>
      <trkpt lat="46.02934" lon="3.32857">
        <ele>385.6</ele>
        <time>2024-04-14T08:17:49Z</time>
      </trkpt>
      <trkpt lat="46.02934" lon="3.32848">
        <ele>385.6</ele>
        <time>2024-04-14T08:17:50Z</time>
      </trkpt>
      <trkpt lat="46.02934" lon="3.32839">
        <ele>385.8</ele>
        <time>2024-04-14T08:17:51Z</time>
      </trkpt>
      <trkpt lat="46.02934" lon="3.32829">
        <ele>385.8</ele>
        <time>2024-04-14T08:17:52Z</time>
      </trkpt>
      <trkpt lat="46.02935" lon="3.3282">
        <ele>385.8</ele>
        <time>2024-04-14T08:17:53Z</time>
      </trkpt>
      <trkpt lat="46.02935" lon="3.3281">
        <ele>385.8</ele>
        <time>2024-04-14T08:17:54Z</time>
      </trkpt>
      <trkpt lat="46.02935" lon="3.32801">
        <ele>385.8</ele>
        <time>2024-04-14T08:17:55Z</time>
      </trkpt>
      <trkpt lat="46.02935" lon="3.32791">
        <ele>386</ele>
        <time>2024-04-14T08:17:56Z</time>
      </trkpt>
      <trkpt lat="46.02935" lon="3.32782">
        <ele>386</ele>
        <time>2024-04-14T08:17:57Z</time>
      </trkpt>
      <trkpt lat="46.02936" lon="3.32771">
        <ele>386</ele>
        <time>2024-04-14T08:17:58Z</time>
      </trkpt>
      <trkpt lat="46.02936" lon="3.32762">
        <ele>386</ele>
        <time>2024-04-14T08:17:59Z</time>
      </trkpt>
      <trkpt lat="46.02936" lon="3.32752">
        <ele>386</ele>
        <time>2024-04-14T08:18:00Z</time>
      </trkpt>
      <trkpt lat="46.02936" lon="3.32742">
        <ele>385.8</ele>
        <time>2024-04-14T08:18:01Z</time>
      </trkpt>
      <trkpt lat="46.02937" lon="3.32731">
        <ele>386</ele>
        <time>2024-04-14T08:18:02Z</time>
      </trkpt>
      <trkpt lat="46.02937" lon="3.32722">
        <ele>386</ele>
        <time>2024-04-14T08:18:03Z</time>
      </trkpt>
      <trkpt lat="46.02937" lon="3.32712">
        <ele>386</ele>
        <time>2024-04-14T08:18:04Z</time>
      </trkpt>
      <trkpt lat="46.02937" lon="3.32702">
        <ele>385.8</ele>
        <time>2024-04-14T08:18:05Z</time>
      </trkpt>
      <trkpt lat="46.02937" lon="3.32693">
        <ele>385.8</ele>
        <time>2024-04-14T08:18:06Z</time>
      </trkpt>
      <trkpt lat="46.02938" lon="3.32683">
        <ele>385.8</ele>
        <time>2024-04-14T08:18:07Z</time>
      </trkpt>
      <trkpt lat="46.02938" lon="3.32672">
        <ele>385.8</ele>
        <time>2024-04-14T08:18:08Z</time>
      </trkpt>
      <trkpt lat="46.02938" lon="3.32662">
        <ele>385.8</ele>
        <time>2024-04-14T08:18:09Z</time>
      </trkpt>
      <trkpt lat="46.02938" lon="3.32653">
        <ele>386.2</ele>
        <time>2024-04-14T08:18:10Z</time>
      </trkpt>
      <trkpt lat="46.02938" lon="3.32645">
        <ele>385.8</ele>
        <time>2024-04-14T08:18:11Z</time>
      </trkpt>
      <trkpt lat="46.02939" lon="3.32637">
        <ele>385.4</ele>
        <time>2024-04-14T08:18:12Z</time>
      </trkpt>
      <trkpt lat="46.02939" lon="3.32629">
        <ele>385.2</ele>
        <time>2024-04-14T08:18:13Z</time>
      </trkpt>
      <trkpt lat="46.02939" lon="3.3262">
        <ele>385.4</ele>
        <time>2024-04-14T08:18:14Z</time>
      </trkpt>
      <trkpt lat="46.02938" lon="3.3261">
        <ele>385.4</ele>
        <time>2024-04-14T08:18:15Z</time>
      </trkpt>
      <trkpt lat="46.02937" lon="3.326">
        <ele>385.4</ele>
        <time>2024-04-14T08:18:16Z</time>
      </trkpt>
      <trkpt lat="46.02936" lon="3.3259">
        <ele>385.4</ele>
        <time>2024-04-14T08:18:17Z</time>
      </trkpt>
      <trkpt lat="46.02935" lon="3.32578">
        <ele>385.2</ele>
        <time>2024-04-14T08:18:18Z</time>
      </trkpt>
      <trkpt lat="46.02933" lon="3.32567">
        <ele>385.2</ele>
        <time>2024-04-14T08:18:19Z</time>
      </trkpt>
      <trkpt lat="46.02932" lon="3.32556">
        <ele>385.2</ele>
        <time>2024-04-14T08:18:20Z</time>
      </trkpt>
      <trkpt lat="46.0293" lon="3.32545">
        <ele>385</ele>
        <time>2024-04-14T08:18:21Z</time>
      </trkpt>
      <trkpt lat="46.02928" lon="3.32535">
        <ele>385</ele>
        <time>2024-04-14T08:18:22Z</time>
      </trkpt>
      <trkpt lat="46.02927" lon="3.32524">
        <ele>385</ele>
        <time>2024-04-14T08:18:23Z</time>
      </trkpt>
      <trkpt lat="46.02925" lon="3.32514">
        <ele>385</ele>
        <time>2024-04-14T08:18:24Z</time>
      </trkpt>
      <trkpt lat="46.02924" lon="3.32504">
        <ele>385.2</ele>
        <time>2024-04-14T08:18:25Z</time>
      </trkpt>
      <trkpt lat="46.02922" lon="3.32493">
        <ele>385.2</ele>
        <time>2024-04-14T08:18:26Z</time>
      </trkpt>
      <trkpt lat="46.02921" lon="3.32484">
        <ele>385.2</ele>
        <time>2024-04-14T08:18:27Z</time>
      </trkpt>
      <trkpt lat="46.0292" lon="3.32475">
        <ele>385.2</ele>
        <time>2024-04-14T08:18:28Z</time>
      </trkpt>
      <trkpt lat="46.02918" lon="3.32466">
        <ele>385.2</ele>
        <time>2024-04-14T08:18:29Z</time>
      </trkpt>
      <trkpt lat="46.02917" lon="3.32456">
        <ele>385.4</ele>
        <time>2024-04-14T08:18:30Z</time>
      </trkpt>
      <trkpt lat="46.02915" lon="3.32446">
        <ele>385.2</ele>
        <time>2024-04-14T08:18:31Z</time>
      </trkpt>
      <trkpt lat="46.02914" lon="3.32436">
        <ele>385.2</ele>
        <time>2024-04-14T08:18:32Z</time>
      </trkpt>
      <trkpt lat="46.02912" lon="3.32427">
        <ele>385.2</ele>
        <time>2024-04-14T08:18:33Z</time>
      </trkpt>
      <trkpt lat="46.02911" lon="3.32418">
        <ele>385.2</ele>
        <time>2024-04-14T08:18:34Z</time>
      </trkpt>
      <trkpt lat="46.0291" lon="3.32409">
        <ele>385</ele>
        <time>2024-04-14T08:18:35Z</time>
      </trkpt>
      <trkpt lat="46.02908" lon="3.324">
        <ele>385.2</ele>
        <time>2024-04-14T08:18:36Z</time>
      </trkpt>
      <trkpt lat="46.02907" lon="3.32392">
        <ele>385.2</ele>
        <time>2024-04-14T08:18:37Z</time>
      </trkpt>
      <trkpt lat="46.02906" lon="3.32384">
        <ele>385.4</ele>
        <time>2024-04-14T08:18:38Z</time>
      </trkpt>
      <trkpt lat="46.02905" lon="3.32375">
        <ele>385.2</ele>
        <time>2024-04-14T08:18:39Z</time>
      </trkpt>
      <trkpt lat="46.02903" lon="3.32366">
        <ele>385.4</ele>
        <time>2024-04-14T08:18:40Z</time>
      </trkpt>
      <trkpt lat="46.02902" lon="3.32357">
        <ele>385.4</ele>
        <time>2024-04-14T08:18:41Z</time>
      </trkpt>
      <trkpt lat="46.02901" lon="3.32348">
        <ele>385</ele>
        <time>2024-04-14T08:18:42Z</time>
      </trkpt>
      <trkpt lat="46.02899" lon="3.32339">
        <ele>385</ele>
        <time>2024-04-14T08:18:43Z</time>
      </trkpt>
      <trkpt lat="46.02898" lon="3.32331">
        <ele>385</ele>
        <time>2024-04-14T08:18:44Z</time>
      </trkpt>
      <trkpt lat="46.02897" lon="3.32322">
        <ele>385.2</ele>
        <time>2024-04-14T08:18:45Z</time>
      </trkpt>
      <trkpt lat="46.02896" lon="3.32314">
        <ele>385.2</ele>
        <time>2024-04-14T08:18:46Z</time>
      </trkpt>
      <trkpt lat="46.02894" lon="3.32306">
        <ele>385.2</ele>
        <time>2024-04-14T08:18:47Z</time>
      </trkpt>
      <trkpt lat="46.02893" lon="3.32297">
        <ele>385</ele>
        <time>2024-04-14T08:18:48Z</time>
      </trkpt>
      <trkpt lat="46.02892" lon="3.32289">
        <ele>385</ele>
        <time>2024-04-14T08:18:49Z</time>
      </trkpt>
      <trkpt lat="46.02891" lon="3.32281">
        <ele>385</ele>
        <time>2024-04-14T08:18:50Z</time>
      </trkpt>
      <trkpt lat="46.0289" lon="3.32274">
        <ele>385</ele>
        <time>2024-04-14T08:18:51Z</time>
      </trkpt>
      <trkpt lat="46.02888" lon="3.32265">
        <ele>384.8</ele>
        <time>2024-04-14T08:18:52Z</time>
      </trkpt>
      <trkpt lat="46.02887" lon="3.32257">
        <ele>384.8</ele>
        <time>2024-04-14T08:18:53Z</time>
      </trkpt>
      <trkpt lat="46.02886" lon="3.32248">
        <ele>384.8</ele>
        <time>2024-04-14T08:18:54Z</time>
      </trkpt>
      <trkpt lat="46.02885" lon="3.3224">
        <ele>384.6</ele>
        <time>2024-04-14T08:18:55Z</time>
      </trkpt>
      <trkpt lat="46.02884" lon="3.32232">
        <ele>384.6</ele>
        <time>2024-04-14T08:18:56Z</time>
      </trkpt>
      <trkpt lat="46.02882" lon="3.32224">
        <ele>384.6</ele>
        <time>2024-04-14T08:18:57Z</time>
      </trkpt>
      <trkpt lat="46.02881" lon="3.32215">
        <ele>384.6</ele>
        <time>2024-04-14T08:18:58Z</time>
      </trkpt>
      <trkpt lat="46.0288" lon="3.32207">
        <ele>384.6</ele>
        <time>2024-04-14T08:18:59Z</time>
      </trkpt>
      <trkpt lat="46.02879" lon="3.32198">
        <ele>384.6</ele>
        <time>2024-04-14T08:19:00Z</time>
      </trkpt>
      <trkpt lat="46.02877" lon="3.3219">
        <ele>384.6</ele>
        <time>2024-04-14T08:19:01Z</time>
      </trkpt>
      <trkpt lat="46.02876" lon="3.32181">
        <ele>384.6</ele>
        <time>2024-04-14T08:19:02Z</time>
      </trkpt>
      <trkpt lat="46.02875" lon="3.32173">
        <ele>384.6</ele>
        <time>2024-04-14T08:19:03Z</time>
      </trkpt>
      <trkpt lat="46.02875" lon="3.32164">
        <ele>384.6</ele>
        <time>2024-04-14T08:19:04Z</time>
      </trkpt>
      <trkpt lat="46.02875" lon="3.32155">
        <ele>384.6</ele>
        <time>2024-04-14T08:19:05Z</time>
      </trkpt>
      <trkpt lat="46.02875" lon="3.32147">
        <ele>384.8</ele>
        <time>2024-04-14T08:19:06Z</time>
      </trkpt>
      <trkpt lat="46.02875" lon="3.32138">
        <ele>384.6</ele>
        <time>2024-04-14T08:19:07Z</time>
      </trkpt>
      <trkpt lat="46.02875" lon="3.3213">
        <ele>384.6</ele>
        <time>2024-04-14T08:19:08Z</time>
      </trkpt>
      <trkpt lat="46.02875" lon="3.32122">
        <ele>384.6</ele>
        <time>2024-04-14T08:19:09Z</time>
      </trkpt>
      <trkpt lat="46.02875" lon="3.32114">
        <ele>384.4</ele>
        <time>2024-04-14T08:19:10Z</time>
      </trkpt>
      <trkpt lat="46.02876" lon="3.32106">
        <ele>384.4</ele>
        <time>2024-04-14T08:19:11Z</time>
      </trkpt>
      <trkpt lat="46.02877" lon="3.32098">
        <ele>384.4</ele>
        <time>2024-04-14T08:19:12Z</time>
      </trkpt>
      <trkpt lat="46.02878" lon="3.3209">
        <ele>384.2</ele>
        <time>2024-04-14T08:19:13Z</time>
      </trkpt>
      <trkpt lat="46.02879" lon="3.32082">
        <ele>384.2</ele>
        <time>2024-04-14T08:19:14Z</time>
      </trkpt>
      <trkpt lat="46.0288" lon="3.32075">
        <ele>384.2</ele>
        <time>2024-04-14T08:19:15Z</time>
      </trkpt>
      <trkpt lat="46.02882" lon="3.32067">
        <ele>384</ele>
        <time>2024-04-14T08:19:16Z</time>
      </trkpt>
      <trkpt lat="46.02883" lon="3.32059">
        <ele>384</ele>
        <time>2024-04-14T08:19:17Z</time>
      </trkpt>
      <trkpt lat="46.02884" lon="3.32051">
        <ele>384</ele>
        <time>2024-04-14T08:19:18Z</time>
      </trkpt>
      <trkpt lat="46.02885" lon="3.32043">
        <ele>384</ele>
        <time>2024-04-14T08:19:19Z</time>
      </trkpt>
      <trkpt lat="46.02885" lon="3.32034">
        <ele>384</ele>
        <time>2024-04-14T08:19:20Z</time>
      </trkpt>
      <trkpt lat="46.02884" lon="3.32026">
        <ele>384</ele>
        <time>2024-04-14T08:19:21Z</time>
      </trkpt>
      <trkpt lat="46.02882" lon="3.32018">
        <ele>384</ele>
        <time>2024-04-14T08:19:22Z</time>
      </trkpt>
      <trkpt lat="46.02881" lon="3.3201">
        <ele>384</ele>
        <time>2024-04-14T08:19:23Z</time>
      </trkpt>
      <trkpt lat="46.02879" lon="3.32002">
        <ele>384</ele>
        <time>2024-04-14T08:19:24Z</time>
      </trkpt>
      <trkpt lat="46.02877" lon="3.31994">
        <ele>384</ele>
        <time>2024-04-14T08:19:25Z</time>
      </trkpt>
      <trkpt lat="46.02875" lon="3.31985">
        <ele>384</ele>
        <time>2024-04-14T08:19:26Z</time>
      </trkpt>
      <trkpt lat="46.02874" lon="3.31977">
        <ele>384</ele>
        <time>2024-04-14T08:19:27Z</time>
      </trkpt>
      <trkpt lat="46.02872" lon="3.31969">
        <ele>384</ele>
        <time>2024-04-14T08:19:28Z</time>
      </trkpt>
      <trkpt lat="46.02869" lon="3.31961">
        <ele>384.2</ele>
        <time>2024-04-14T08:19:29Z</time>
      </trkpt>
      <trkpt lat="46.02867" lon="3.31953">
        <ele>384.4</ele>
        <time>2024-04-14T08:19:30Z</time>
      </trkpt>
      <trkpt lat="46.02864" lon="3.31945">
        <ele>384.4</ele>
        <time>2024-04-14T08:19:31Z</time>
      </trkpt>
      <trkpt lat="46.02862" lon="3.31937">
        <ele>384.6</ele>
        <time>2024-04-14T08:19:32Z</time>
      </trkpt>
      <trkpt lat="46.0286" lon="3.31929">
        <ele>384.8</ele>
        <time>2024-04-14T08:19:33Z</time>
      </trkpt>
      <trkpt lat="46.02857" lon="3.31921">
        <ele>384.8</ele>
        <time>2024-04-14T08:19:34Z</time>
      </trkpt>
      <trkpt lat="46.02855" lon="3.31914">
        <ele>384.8</ele>
        <time>2024-04-14T08:19:35Z</time>
      </trkpt>
      <trkpt lat="46.02853" lon="3.31906">
        <ele>385</ele>
        <time>2024-04-14T08:19:36Z</time>
      </trkpt>
      <trkpt lat="46.0285" lon="3.31898">
        <ele>385</ele>
        <time>2024-04-14T08:19:37Z</time>
      </trkpt>
      <trkpt lat="46.02848" lon="3.3189">
        <ele>385.2</ele>
        <time>2024-04-14T08:19:38Z</time>
      </trkpt>
      <trkpt lat="46.02846" lon="3.31883">
        <ele>385.2</ele>
        <time>2024-04-14T08:19:39Z</time>
      </trkpt>
      <trkpt lat="46.02844" lon="3.31875">
        <ele>385.2</ele>
        <time>2024-04-14T08:19:40Z</time>
      </trkpt>
      <trkpt lat="46.02841" lon="3.31868">
        <ele>385.2</ele>
        <time>2024-04-14T08:19:41Z</time>
      </trkpt>
      <trkpt lat="46.02839" lon="3.31861">
        <ele>385.4</ele>
        <time>2024-04-14T08:19:42Z</time>
      </trkpt>
      <trkpt lat="46.02837" lon="3.31853">
        <ele>385.4</ele>
        <time>2024-04-14T08:19:43Z</time>
      </trkpt>
      <trkpt lat="46.02835" lon="3.31846">
        <ele>385.6</ele>
        <time>2024-04-14T08:19:44Z</time>
      </trkpt>
      <trkpt lat="46.02832" lon="3.31838">
        <ele>385.6</ele>
        <time>2024-04-14T08:19:45Z</time>
      </trkpt>
      <trkpt lat="46.0283" lon="3.31831">
        <ele>385.8</ele>
        <time>2024-04-14T08:19:46Z</time>
      </trkpt>
      <trkpt lat="46.02828" lon="3.31823">
        <ele>385.8</ele>
        <time>2024-04-14T08:19:47Z</time>
      </trkpt>
      <trkpt lat="46.02826" lon="3.31816">
        <ele>385.8</ele>
        <time>2024-04-14T08:19:48Z</time>
      </trkpt>
      <trkpt lat="46.02824" lon="3.31808">
        <ele>386</ele>
        <time>2024-04-14T08:19:49Z</time>
      </trkpt>
      <trkpt lat="46.02821" lon="3.31801">
        <ele>386</ele>
        <time>2024-04-14T08:19:50Z</time>
      </trkpt>
      <trkpt lat="46.02819" lon="3.31794">
        <ele>386.2</ele>
        <time>2024-04-14T08:19:51Z</time>
      </trkpt>
      <trkpt lat="46.02817" lon="3.31786">
        <ele>386.2</ele>
        <time>2024-04-14T08:19:52Z</time>
      </trkpt>
      <trkpt lat="46.02815" lon="3.31779">
        <ele>386.2</ele>
        <time>2024-04-14T08:19:53Z</time>
      </trkpt>
      <trkpt lat="46.02813" lon="3.31772">
        <ele>386.4</ele>
        <time>2024-04-14T08:19:54Z</time>
      </trkpt>
      <trkpt lat="46.0281" lon="3.31764">
        <ele>386.4</ele>
        <time>2024-04-14T08:19:55Z</time>
      </trkpt>
      <trkpt lat="46.02808" lon="3.31757">
        <ele>386.4</ele>
        <time>2024-04-14T08:19:56Z</time>
      </trkpt>
      <trkpt lat="46.02805" lon="3.31749">
        <ele>386.4</ele>
        <time>2024-04-14T08:19:57Z</time>
      </trkpt>
      <trkpt lat="46.02802" lon="3.31741">
        <ele>386.6</ele>
        <time>2024-04-14T08:19:58Z</time>
      </trkpt>
      <trkpt lat="46.02799" lon="3.31733">
        <ele>386.6</ele>
        <time>2024-04-14T08:19:59Z</time>
      </trkpt>
      <trkpt lat="46.02797" lon="3.31725">
        <ele>386.8</ele>
        <time>2024-04-14T08:20:00Z</time>
      </trkpt>
      <trkpt lat="46.02794" lon="3.31717">
        <ele>386.8</ele>
        <time>2024-04-14T08:20:01Z</time>
      </trkpt>
      <trkpt lat="46.02791" lon="3.31709">
        <ele>386.8</ele>
        <time>2024-04-14T08:20:02Z</time>
      </trkpt>
      <trkpt lat="46.02788" lon="3.31701">
        <ele>386.8</ele>
        <time>2024-04-14T08:20:03Z</time>
      </trkpt>
      <trkpt lat="46.02785" lon="3.31693">
        <ele>386.8</ele>
        <time>2024-04-14T08:20:04Z</time>
      </trkpt>
      <trkpt lat="46.02783" lon="3.31686">
        <ele>387</ele>
        <time>2024-04-14T08:20:05Z</time>
      </trkpt>
      <trkpt lat="46.0278" lon="3.31678">
        <ele>387</ele>
        <time>2024-04-14T08:20:06Z</time>
      </trkpt>
      <trkpt lat="46.02777" lon="3.31669">
        <ele>387</ele>
        <time>2024-04-14T08:20:07Z</time>
      </trkpt>
      <trkpt lat="46.02774" lon="3.31662">
        <ele>387</ele>
        <time>2024-04-14T08:20:08Z</time>
      </trkpt>
      <trkpt lat="46.02772" lon="3.31654">
        <ele>387</ele>
        <time>2024-04-14T08:20:09Z</time>
      </trkpt>
      <trkpt lat="46.02769" lon="3.31646">
        <ele>387</ele>
        <time>2024-04-14T08:20:10Z</time>
      </trkpt>
      <trkpt lat="46.02766" lon="3.31638">
        <ele>387.2</ele>
        <time>2024-04-14T08:20:11Z</time>
      </trkpt>
      <trkpt lat="46.02763" lon="3.3163">
        <ele>387.2</ele>
        <time>2024-04-14T08:20:12Z</time>
      </trkpt>
      <trkpt lat="46.02761" lon="3.31622">
        <ele>387.2</ele>
        <time>2024-04-14T08:20:13Z</time>
      </trkpt>
      <trkpt lat="46.02758" lon="3.31614">
        <ele>387.2</ele>
        <time>2024-04-14T08:20:14Z</time>
      </trkpt>
      <trkpt lat="46.02755" lon="3.31606">
        <ele>387.2</ele>
        <time>2024-04-14T08:20:15Z</time>
      </trkpt>
      <trkpt lat="46.02752" lon="3.31597">
        <ele>387</ele>
        <time>2024-04-14T08:20:16Z</time>
      </trkpt>
      <trkpt lat="46.02748" lon="3.31587">
        <ele>387</ele>
        <time>2024-04-14T08:20:17Z</time>
      </trkpt>
      <trkpt lat="46.02745" lon="3.31577">
        <ele>386.8</ele>
        <time>2024-04-14T08:20:18Z</time>
      </trkpt>
      <trkpt lat="46.02741" lon="3.31567">
        <ele>386.8</ele>
        <time>2024-04-14T08:20:19Z</time>
      </trkpt>
      <trkpt lat="46.02738" lon="3.31557">
        <ele>386.8</ele>
        <time>2024-04-14T08:20:20Z</time>
      </trkpt>
      <trkpt lat="46.02736" lon="3.31545">
        <ele>386.2</ele>
        <time>2024-04-14T08:20:21Z</time>
      </trkpt>
      <trkpt lat="46.02734" lon="3.31534">
        <ele>386.4</ele>
        <time>2024-04-14T08:20:22Z</time>
      </trkpt>
      <trkpt lat="46.02732" lon="3.31522">
        <ele>386.2</ele>
        <time>2024-04-14T08:20:23Z</time>
      </trkpt>
      <trkpt lat="46.0273" lon="3.31509">
        <ele>386.2</ele>
        <time>2024-04-14T08:20:24Z</time>
      </trkpt>
      <trkpt lat="46.02728" lon="3.31497">
        <ele>386</ele>
        <time>2024-04-14T08:20:25Z</time>
      </trkpt>
      <trkpt lat="46.02726" lon="3.31486">
        <ele>385.6</ele>
        <time>2024-04-14T08:20:26Z</time>
      </trkpt>
      <trkpt lat="46.02724" lon="3.31475">
        <ele>385</ele>
        <time>2024-04-14T08:20:27Z</time>
      </trkpt>
      <trkpt lat="46.02722" lon="3.31463">
        <ele>384.4</ele>
        <time>2024-04-14T08:20:28Z</time>
      </trkpt>
      <trkpt lat="46.02719" lon="3.31449">
        <ele>383.8</ele>
        <time>2024-04-14T08:20:29Z</time>
      </trkpt>
      <trkpt lat="46.02717" lon="3.31436">
        <ele>383.4</ele>
        <time>2024-04-14T08:20:30Z</time>
      </trkpt>
      <trkpt lat="46.02715" lon="3.31423">
        <ele>383</ele>
        <time>2024-04-14T08:20:31Z</time>
      </trkpt>
      <trkpt lat="46.02713" lon="3.3141">
        <ele>382.6</ele>
        <time>2024-04-14T08:20:32Z</time>
      </trkpt>
      <trkpt lat="46.0271" lon="3.31396">
        <ele>382.2</ele>
        <time>2024-04-14T08:20:33Z</time>
      </trkpt>
      <trkpt lat="46.02708" lon="3.31382">
        <ele>382</ele>
        <time>2024-04-14T08:20:34Z</time>
      </trkpt>
      <trkpt lat="46.02705" lon="3.31368">
        <ele>381.8</ele>
        <time>2024-04-14T08:20:35Z</time>
      </trkpt>
      <trkpt lat="46.02703" lon="3.31354">
        <ele>381.4</ele>
        <time>2024-04-14T08:20:36Z</time>
      </trkpt>
      <trkpt lat="46.027" lon="3.31339">
        <ele>381.2</ele>
        <time>2024-04-14T08:20:37Z</time>
      </trkpt>
      <trkpt lat="46.02698" lon="3.31324">
        <ele>381</ele>
        <time>2024-04-14T08:20:38Z</time>
      </trkpt>
      <trkpt lat="46.02697" lon="3.3131">
        <ele>380.8</ele>
        <time>2024-04-14T08:20:39Z</time>
      </trkpt>
      <trkpt lat="46.02695" lon="3.31295">
        <ele>380.6</ele>
        <time>2024-04-14T08:20:40Z</time>
      </trkpt>
      <trkpt lat="46.02693" lon="3.3128">
        <ele>380.6</ele>
        <time>2024-04-14T08:20:41Z</time>
      </trkpt>
      <trkpt lat="46.02691" lon="3.31266">
        <ele>380.4</ele>
        <time>2024-04-14T08:20:42Z</time>
      </trkpt>
      <trkpt lat="46.02689" lon="3.31252">
        <ele>380.2</ele>
        <time>2024-04-14T08:20:43Z</time>
      </trkpt>
      <trkpt lat="46.02687" lon="3.31237">
        <ele>380</ele>
        <time>2024-04-14T08:20:44Z</time>
      </trkpt>
      <trkpt lat="46.02685" lon="3.31223">
        <ele>379.8</ele>
        <time>2024-04-14T08:20:45Z</time>
      </trkpt>
      <trkpt lat="46.02683" lon="3.31208">
        <ele>379.6</ele>
        <time>2024-04-14T08:20:46Z</time>
      </trkpt>
      <trkpt lat="46.02681" lon="3.31193">
        <ele>379.2</ele>
        <time>2024-04-14T08:20:47Z</time>
      </trkpt>
      <trkpt lat="46.02679" lon="3.31178">
        <ele>379</ele>
        <time>2024-04-14T08:20:48Z</time>
      </trkpt>
      <trkpt lat="46.02676" lon="3.31162">
        <ele>378.8</ele>
        <time>2024-04-14T08:20:49Z</time>
      </trkpt>
      <trkpt lat="46.02674" lon="3.31147">
        <ele>378.4</ele>
        <time>2024-04-14T08:20:50Z</time>
      </trkpt>
      <trkpt lat="46.02671" lon="3.31131">
        <ele>378.2</ele>
        <time>2024-04-14T08:20:51Z</time>
      </trkpt>
      <trkpt lat="46.02669" lon="3.31115">
        <ele>378</ele>
        <time>2024-04-14T08:20:52Z</time>
      </trkpt>
      <trkpt lat="46.02666" lon="3.31099">
        <ele>377.6</ele>
        <time>2024-04-14T08:20:53Z</time>
      </trkpt>
      <trkpt lat="46.02664" lon="3.31082">
        <ele>377.4</ele>
        <time>2024-04-14T08:20:54Z</time>
      </trkpt>
      <trkpt lat="46.02661" lon="3.31066">
        <ele>377.2</ele>
        <time>2024-04-14T08:20:55Z</time>
      </trkpt>
      <trkpt lat="46.02659" lon="3.3105">
        <ele>376.8</ele>
        <time>2024-04-14T08:20:56Z</time>
      </trkpt>
      <trkpt lat="46.02656" lon="3.31034">
        <ele>376.6</ele>
        <time>2024-04-14T08:20:57Z</time>
      </trkpt>
      <trkpt lat="46.02654" lon="3.31017">
        <ele>376.2</ele>
        <time>2024-04-14T08:20:58Z</time>
      </trkpt>
      <trkpt lat="46.02651" lon="3.31001">
        <ele>376</ele>
        <time>2024-04-14T08:20:59Z</time>
      </trkpt>
      <trkpt lat="46.02648" lon="3.30984">
        <ele>375.6</ele>
        <time>2024-04-14T08:21:00Z</time>
      </trkpt>
      <trkpt lat="46.02646" lon="3.30966">
        <ele>375.2</ele>
        <time>2024-04-14T08:21:01Z</time>
      </trkpt>
      <trkpt lat="46.02643" lon="3.30949">
        <ele>375</ele>
        <time>2024-04-14T08:21:02Z</time>
      </trkpt>
      <trkpt lat="46.02639" lon="3.30932">
        <ele>374.6</ele>
        <time>2024-04-14T08:21:03Z</time>
      </trkpt>
      <trkpt lat="46.02634" lon="3.30915">
        <ele>374.4</ele>
        <time>2024-04-14T08:21:04Z</time>
      </trkpt>
      <trkpt lat="46.0263" lon="3.30898">
        <ele>374</ele>
        <time>2024-04-14T08:21:05Z</time>
      </trkpt>
      <trkpt lat="46.02626" lon="3.30881">
        <ele>373.8</ele>
        <time>2024-04-14T08:21:06Z</time>
      </trkpt>
      <trkpt lat="46.02621" lon="3.30865">
        <ele>373.4</ele>
        <time>2024-04-14T08:21:07Z</time>
      </trkpt>
      <trkpt lat="46.02616" lon="3.3085">
        <ele>373.2</ele>
        <time>2024-04-14T08:21:08Z</time>
      </trkpt>
      <trkpt lat="46.02611" lon="3.30834">
        <ele>372.8</ele>
        <time>2024-04-14T08:21:09Z</time>
      </trkpt>
      <trkpt lat="46.02606" lon="3.30819">
        <ele>372.4</ele>
        <time>2024-04-14T08:21:10Z</time>
      </trkpt>
      <trkpt lat="46.02602" lon="3.30805">
        <ele>372</ele>
        <time>2024-04-14T08:21:11Z</time>
      </trkpt>
      <trkpt lat="46.02597" lon="3.30791">
        <ele>371.8</ele>
        <time>2024-04-14T08:21:12Z</time>
      </trkpt>
      <trkpt lat="46.02593" lon="3.30777">
        <ele>371.4</ele>
        <time>2024-04-14T08:21:13Z</time>
      </trkpt>
      <trkpt lat="46.02589" lon="3.30763">
        <ele>371.2</ele>
        <time>2024-04-14T08:21:14Z</time>
      </trkpt>
      <trkpt lat="46.02584" lon="3.30749">
        <ele>370.8</ele>
        <time>2024-04-14T08:21:15Z</time>
      </trkpt>
      <trkpt lat="46.02579" lon="3.30735">
        <ele>370.4</ele>
        <time>2024-04-14T08:21:16Z</time>
      </trkpt>
      <trkpt lat="46.02575" lon="3.30721">
        <ele>370</ele>
        <time>2024-04-14T08:21:17Z</time>
      </trkpt>
      <trkpt lat="46.0257" lon="3.30708">
        <ele>369.6</ele>
        <time>2024-04-14T08:21:18Z</time>
      </trkpt>
      <trkpt lat="46.02565" lon="3.30695">
        <ele>369.2</ele>
        <time>2024-04-14T08:21:19Z</time>
      </trkpt>
      <trkpt lat="46.0256" lon="3.30681">
        <ele>368.8</ele>
        <time>2024-04-14T08:21:20Z</time>
      </trkpt>
      <trkpt lat="46.02555" lon="3.30668">
        <ele>368.4</ele>
        <time>2024-04-14T08:21:21Z</time>
      </trkpt>
      <trkpt lat="46.0255" lon="3.30654">
        <ele>368</ele>
        <time>2024-04-14T08:21:22Z</time>
      </trkpt>
      <trkpt lat="46.02545" lon="3.3064">
        <ele>367.6</ele>
        <time>2024-04-14T08:21:23Z</time>
      </trkpt>
      <trkpt lat="46.0254" lon="3.30626">
        <ele>367.2</ele>
        <time>2024-04-14T08:21:24Z</time>
      </trkpt>
      <trkpt lat="46.02535" lon="3.30612">
        <ele>366.8</ele>
        <time>2024-04-14T08:21:25Z</time>
      </trkpt>
      <trkpt lat="46.0253" lon="3.30598">
        <ele>366.4</ele>
        <time>2024-04-14T08:21:26Z</time>
      </trkpt>
      <trkpt lat="46.02525" lon="3.30584">
        <ele>366</ele>
        <time>2024-04-14T08:21:27Z</time>
      </trkpt>
      <trkpt lat="46.0252" lon="3.3057">
        <ele>365.6</ele>
        <time>2024-04-14T08:21:28Z</time>
      </trkpt>
      <trkpt lat="46.02515" lon="3.30555">
        <ele>365.2</ele>
        <time>2024-04-14T08:21:29Z</time>
      </trkpt>
      <trkpt lat="46.0251" lon="3.30541">
        <ele>364.8</ele>
        <time>2024-04-14T08:21:30Z</time>
      </trkpt>
      <trkpt lat="46.02508" lon="3.30524">
        <ele>364.2</ele>
        <time>2024-04-14T08:21:31Z</time>
      </trkpt>
      <trkpt lat="46.02507" lon="3.30507">
        <ele>363.8</ele>
        <time>2024-04-14T08:21:32Z</time>
      </trkpt>
      <trkpt lat="46.02505" lon="3.3049">
        <ele>363.4</ele>
        <time>2024-04-14T08:21:33Z</time>
      </trkpt>
      <trkpt lat="46.02503" lon="3.30472">
        <ele>363</ele>
        <time>2024-04-14T08:21:34Z</time>
      </trkpt>
      <trkpt lat="46.02501" lon="3.30454">
        <ele>362.6</ele>
        <time>2024-04-14T08:21:35Z</time>
      </trkpt>
      <trkpt lat="46.025" lon="3.30436">
        <ele>362</ele>
        <time>2024-04-14T08:21:36Z</time>
      </trkpt>
      <trkpt lat="46.02498" lon="3.30417">
        <ele>361.6</ele>
        <time>2024-04-14T08:21:37Z</time>
      </trkpt>
      <trkpt lat="46.02496" lon="3.30399">
        <ele>361.2</ele>
        <time>2024-04-14T08:21:38Z</time>
      </trkpt>
      <trkpt lat="46.02494" lon="3.3038">
        <ele>360.8</ele>
        <time>2024-04-14T08:21:39Z</time>
      </trkpt>
      <trkpt lat="46.02491" lon="3.30362">
        <ele>360.4</ele>
        <time>2024-04-14T08:21:40Z</time>
      </trkpt>
      <trkpt lat="46.02488" lon="3.30343">
        <ele>360</ele>
        <time>2024-04-14T08:21:41Z</time>
      </trkpt>
      <trkpt lat="46.02485" lon="3.30325">
        <ele>359.4</ele>
        <time>2024-04-14T08:21:42Z</time>
      </trkpt>
      <trkpt lat="46.02481" lon="3.30306">
        <ele>359</ele>
        <time>2024-04-14T08:21:43Z</time>
      </trkpt>
      <trkpt lat="46.02478" lon="3.30288">
        <ele>358.6</ele>
        <time>2024-04-14T08:21:44Z</time>
      </trkpt>
      <trkpt lat="46.02475" lon="3.3027">
        <ele>358</ele>
        <time>2024-04-14T08:21:45Z</time>
      </trkpt>
      <trkpt lat="46.02472" lon="3.30252">
        <ele>357.6</ele>
        <time>2024-04-14T08:21:46Z</time>
      </trkpt>
      <trkpt lat="46.02469" lon="3.30235">
        <ele>357</ele>
        <time>2024-04-14T08:21:47Z</time>
      </trkpt>
      <trkpt lat="46.02466" lon="3.30218">
        <ele>356.6</ele>
        <time>2024-04-14T08:21:48Z</time>
      </trkpt>
      <trkpt lat="46.02463" lon="3.30201">
        <ele>356.2</ele>
        <time>2024-04-14T08:21:49Z</time>
      </trkpt>
      <trkpt lat="46.02461" lon="3.30185">
        <ele>355.6</ele>
        <time>2024-04-14T08:21:50Z</time>
      </trkpt>
      <trkpt lat="46.02457" lon="3.30169">
        <ele>355.2</ele>
        <time>2024-04-14T08:21:51Z</time>
      </trkpt>
      <trkpt lat="46.02453" lon="3.30154">
        <ele>354.8</ele>
        <time>2024-04-14T08:21:52Z</time>
      </trkpt>
      <trkpt lat="46.02449" lon="3.30139">
        <ele>354.4</ele>
        <time>2024-04-14T08:21:53Z</time>
      </trkpt>
      <trkpt lat="46.02445" lon="3.30125">
        <ele>354</ele>
        <time>2024-04-14T08:21:54Z</time>
      </trkpt>
      <trkpt lat="46.0244" lon="3.30113">
        <ele>353.6</ele>
        <time>2024-04-14T08:21:55Z</time>
      </trkpt>
      <trkpt lat="46.02433" lon="3.30101">
        <ele>353.2</ele>
        <time>2024-04-14T08:21:56Z</time>
      </trkpt>
      <trkpt lat="46.02427" lon="3.30089">
        <ele>352.8</ele>
        <time>2024-04-14T08:21:57Z</time>
      </trkpt>
      <trkpt lat="46.02421" lon="3.30078">
        <ele>352.4</ele>
        <time>2024-04-14T08:21:58Z</time>
      </trkpt>
      <trkpt lat="46.02416" lon="3.30066">
        <ele>352</ele>
        <time>2024-04-14T08:21:59Z</time>
      </trkpt>
      <trkpt lat="46.02412" lon="3.30051">
        <ele>351.4</ele>
        <time>2024-04-14T08:22:00Z</time>
      </trkpt>
      <trkpt lat="46.0241" lon="3.30038">
        <ele>351</ele>
        <time>2024-04-14T08:22:01Z</time>
      </trkpt>
      <trkpt lat="46.02409" lon="3.30024">
        <ele>350.8</ele>
        <time>2024-04-14T08:22:02Z</time>
      </trkpt>
      <trkpt lat="46.02407" lon="3.3001">
        <ele>350.4</ele>
        <time>2024-04-14T08:22:03Z</time>
      </trkpt>
      <trkpt lat="46.02405" lon="3.29997">
        <ele>350</ele>
        <time>2024-04-14T08:22:04Z</time>
      </trkpt>
      <trkpt lat="46.02404" lon="3.29985">
        <ele>349.8</ele>
        <time>2024-04-14T08:22:05Z</time>
      </trkpt>
      <trkpt lat="46.02402" lon="3.29973">
        <ele>349.4</ele>
        <time>2024-04-14T08:22:06Z</time>
      </trkpt>
      <trkpt lat="46.02402" lon="3.2996">
        <ele>349</ele>
        <time>2024-04-14T08:22:07Z</time>
      </trkpt>
      <trkpt lat="46.02402" lon="3.29948">
        <ele>348.8</ele>
        <time>2024-04-14T08:22:08Z</time>
      </trkpt>
      <trkpt lat="46.02401" lon="3.29937">
        <ele>348.4</ele>
        <time>2024-04-14T08:22:09Z</time>
      </trkpt>
      <trkpt lat="46.02401" lon="3.29926">
        <ele>348</ele>
        <time>2024-04-14T08:22:10Z</time>
      </trkpt>
      <trkpt lat="46.02401" lon="3.29916">
        <ele>347.8</ele>
        <time>2024-04-14T08:22:11Z</time>
      </trkpt>
      <trkpt lat="46.024" lon="3.29905">
        <ele>347.6</ele>
        <time>2024-04-14T08:22:12Z</time>
      </trkpt>
      <trkpt lat="46.024" lon="3.29895">
        <ele>347.2</ele>
        <time>2024-04-14T08:22:13Z</time>
      </trkpt>
      <trkpt lat="46.024" lon="3.29885">
        <ele>347</ele>
        <time>2024-04-14T08:22:14Z</time>
      </trkpt>
      <trkpt lat="46.02399" lon="3.29875">
        <ele>346.8</ele>
        <time>2024-04-14T08:22:15Z</time>
      </trkpt>
      <trkpt lat="46.02399" lon="3.29865">
        <ele>346.4</ele>
        <time>2024-04-14T08:22:16Z</time>
      </trkpt>
      <trkpt lat="46.02399" lon="3.29855">
        <ele>346.2</ele>
        <time>2024-04-14T08:22:17Z</time>
      </trkpt>
      <trkpt lat="46.02398" lon="3.29846">
        <ele>345.8</ele>
        <time>2024-04-14T08:22:18Z</time>
      </trkpt>
      <trkpt lat="46.02398" lon="3.29837">
        <ele>345.6</ele>
        <time>2024-04-14T08:22:19Z</time>
      </trkpt>
      <trkpt lat="46.02397" lon="3.29828">
        <ele>345.4</ele>
        <time>2024-04-14T08:22:20Z</time>
      </trkpt>
      <trkpt lat="46.02395" lon="3.29819">
        <ele>345.2</ele>
        <time>2024-04-14T08:22:21Z</time>
      </trkpt>
      <trkpt lat="46.02394" lon="3.29809">
        <ele>344.8</ele>
        <time>2024-04-14T08:22:22Z</time>
      </trkpt>
      <trkpt lat="46.02392" lon="3.298">
        <ele>344.6</ele>
        <time>2024-04-14T08:22:23Z</time>
      </trkpt>
      <trkpt lat="46.02391" lon="3.29791">
        <ele>344.4</ele>
        <time>2024-04-14T08:22:24Z</time>
      </trkpt>
      <trkpt lat="46.02389" lon="3.29782">
        <ele>344.2</ele>
        <time>2024-04-14T08:22:25Z</time>
      </trkpt>
      <trkpt lat="46.02388" lon="3.29772">
        <ele>343.8</ele>
        <time>2024-04-14T08:22:26Z</time>
      </trkpt>
      <trkpt lat="46.02387" lon="3.29763">
        <ele>343.6</ele>
        <time>2024-04-14T08:22:27Z</time>
      </trkpt>
      <trkpt lat="46.02386" lon="3.29753">
        <ele>343.4</ele>
        <time>2024-04-14T08:22:28Z</time>
      </trkpt>
      <trkpt lat="46.02385" lon="3.29744">
        <ele>343.4</ele>
        <time>2024-04-14T08:22:29Z</time>
      </trkpt>
      <trkpt lat="46.02384" lon="3.29734">
        <ele>343.2</ele>
        <time>2024-04-14T08:22:30Z</time>
      </trkpt>
      <trkpt lat="46.02384" lon="3.29725">
        <ele>343</ele>
        <time>2024-04-14T08:22:31Z</time>
      </trkpt>
      <trkpt lat="46.02384" lon="3.29715">
        <ele>342.8</ele>
        <time>2024-04-14T08:22:32Z</time>
      </trkpt>
      <trkpt lat="46.02384" lon="3.29705">
        <ele>342.4</ele>
        <time>2024-04-14T08:22:33Z</time>
      </trkpt>
      <trkpt lat="46.02385" lon="3.29695">
        <ele>342.2</ele>
        <time>2024-04-14T08:22:34Z</time>
      </trkpt>
      <trkpt lat="46.02387" lon="3.29686">
        <ele>342</ele>
        <time>2024-04-14T08:22:35Z</time>
      </trkpt>
      <trkpt lat="46.02389" lon="3.29677">
        <ele>341.8</ele>
        <time>2024-04-14T08:22:36Z</time>
      </trkpt>
      <trkpt lat="46.02391" lon="3.29669">
        <ele>341.6</ele>
        <time>2024-04-14T08:22:37Z</time>
      </trkpt>
      <trkpt lat="46.02393" lon="3.2966">
        <ele>341.4</ele>
        <time>2024-04-14T08:22:38Z</time>
      </trkpt>
      <trkpt lat="46.02394" lon="3.29651">
        <ele>341.2</ele>
        <time>2024-04-14T08:22:39Z</time>
      </trkpt>
      <trkpt lat="46.02396" lon="3.29643">
        <ele>341</ele>
        <time>2024-04-14T08:22:40Z</time>
      </trkpt>
      <trkpt lat="46.02398" lon="3.29634">
        <ele>340.8</ele>
        <time>2024-04-14T08:22:41Z</time>
      </trkpt>
      <trkpt lat="46.02401" lon="3.29626">
        <ele>340.6</ele>
        <time>2024-04-14T08:22:42Z</time>
      </trkpt>
      <trkpt lat="46.02404" lon="3.29619">
        <ele>340.6</ele>
        <time>2024-04-14T08:22:43Z</time>
      </trkpt>
      <trkpt lat="46.02406" lon="3.29611">
        <ele>340.4</ele>
        <time>2024-04-14T08:22:44Z</time>
      </trkpt>
      <trkpt lat="46.02409" lon="3.29603">
        <ele>340.2</ele>
        <time>2024-04-14T08:22:45Z</time>
      </trkpt>
      <trkpt lat="46.02412" lon="3.29595">
        <ele>340</ele>
        <time>2024-04-14T08:22:46Z</time>
      </trkpt>
      <trkpt lat="46.02415" lon="3.29587">
        <ele>340</ele>
        <time>2024-04-14T08:22:47Z</time>
      </trkpt>
      <trkpt lat="46.02417" lon="3.2958">
        <ele>339.8</ele>
        <time>2024-04-14T08:22:48Z</time>
      </trkpt>
      <trkpt lat="46.02421" lon="3.29571">
        <ele>339.6</ele>
        <time>2024-04-14T08:22:49Z</time>
      </trkpt>
      <trkpt lat="46.02425" lon="3.29566">
        <ele>339.4</ele>
        <time>2024-04-14T08:22:50Z</time>
      </trkpt>
      <trkpt lat="46.02429" lon="3.2956">
        <ele>339.2</ele>
        <time>2024-04-14T08:22:51Z</time>
      </trkpt>
      <trkpt lat="46.02433" lon="3.29554">
        <ele>339</ele>
        <time>2024-04-14T08:22:52Z</time>
      </trkpt>
      <trkpt lat="46.02438" lon="3.29548">
        <ele>338.8</ele>
        <time>2024-04-14T08:22:53Z</time>
      </trkpt>
      <trkpt lat="46.02442" lon="3.29542">
        <ele>338.6</ele>
        <time>2024-04-14T08:22:54Z</time>
      </trkpt>
      <trkpt lat="46.02446" lon="3.29537">
        <ele>338.6</ele>
        <time>2024-04-14T08:22:55Z</time>
      </trkpt>
      <trkpt lat="46.02451" lon="3.29533">
        <ele>338.4</ele>
        <time>2024-04-14T08:22:56Z</time>
      </trkpt>
      <trkpt lat="46.02455" lon="3.29529">
        <ele>338.4</ele>
        <time>2024-04-14T08:22:57Z</time>
      </trkpt>
      <trkpt lat="46.0246" lon="3.29524">
        <ele>338.4</ele>
        <time>2024-04-14T08:22:58Z</time>
      </trkpt>
      <trkpt lat="46.02464" lon="3.2952">
        <ele>338.4</ele>
        <time>2024-04-14T08:22:59Z</time>
      </trkpt>
      <trkpt lat="46.02469" lon="3.29516">
        <ele>338.4</ele>
        <time>2024-04-14T08:23:00Z</time>
      </trkpt>
      <trkpt lat="46.02473" lon="3.29511">
        <ele>338.2</ele>
        <time>2024-04-14T08:23:01Z</time>
      </trkpt>
      <trkpt lat="46.02478" lon="3.29507">
        <ele>338.2</ele>
        <time>2024-04-14T08:23:02Z</time>
      </trkpt>
      <trkpt lat="46.02482" lon="3.29502">
        <ele>338.2</ele>
        <time>2024-04-14T08:23:03Z</time>
      </trkpt>
      <trkpt lat="46.02487" lon="3.29498">
        <ele>338</ele>
        <time>2024-04-14T08:23:04Z</time>
      </trkpt>
      <trkpt lat="46.02491" lon="3.29494">
        <ele>337.8</ele>
        <time>2024-04-14T08:23:05Z</time>
      </trkpt>
      <trkpt lat="46.02496" lon="3.29489">
        <ele>337.8</ele>
        <time>2024-04-14T08:23:06Z</time>
      </trkpt>
      <trkpt lat="46.02501" lon="3.29485">
        <ele>337.8</ele>
        <time>2024-04-14T08:23:07Z</time>
      </trkpt>
      <trkpt lat="46.02505" lon="3.2948">
        <ele>337.8</ele>
        <time>2024-04-14T08:23:08Z</time>
      </trkpt>
      <trkpt lat="46.0251" lon="3.29476">
        <ele>337.6</ele>
        <time>2024-04-14T08:23:09Z</time>
      </trkpt>
      <trkpt lat="46.02514" lon="3.29471">
        <ele>337.6</ele>
        <time>2024-04-14T08:23:10Z</time>
      </trkpt>
      <trkpt lat="46.02519" lon="3.29467">
        <ele>337.4</ele>
        <time>2024-04-14T08:23:11Z</time>
      </trkpt>
      <trkpt lat="46.02523" lon="3.29462">
        <ele>337.4</ele>
        <time>2024-04-14T08:23:12Z</time>
      </trkpt>
      <trkpt lat="46.02527" lon="3.29457">
        <ele>337.4</ele>
        <time>2024-04-14T08:23:13Z</time>
      </trkpt>
      <trkpt lat="46.0253" lon="3.29451">
        <ele>337.2</ele>
        <time>2024-04-14T08:23:14Z</time>
      </trkpt>
      <trkpt lat="46.02534" lon="3.29446">
        <ele>337.2</ele>
        <time>2024-04-14T08:23:15Z</time>
      </trkpt>
      <trkpt lat="46.02538" lon="3.2944">
        <ele>337.2</ele>
        <time>2024-04-14T08:23:16Z</time>
      </trkpt>
      <trkpt lat="46.02542" lon="3.29435">
        <ele>337.2</ele>
        <time>2024-04-14T08:23:17Z</time>
      </trkpt>
      <trkpt lat="46.02545" lon="3.2943">
        <ele>337.2</ele>
        <time>2024-04-14T08:23:18Z</time>
      </trkpt>
      <trkpt lat="46.02549" lon="3.29424">
        <ele>337</ele>
        <time>2024-04-14T08:23:19Z</time>
      </trkpt>
      <trkpt lat="46.02553" lon="3.29419">
        <ele>337</ele>
        <time>2024-04-14T08:23:20Z</time>
      </trkpt>
      <trkpt lat="46.02557" lon="3.29414">
        <ele>337</ele>
        <time>2024-04-14T08:23:21Z</time>
      </trkpt>
      <trkpt lat="46.02561" lon="3.29408">
        <ele>337</ele>
        <time>2024-04-14T08:23:22Z</time>
      </trkpt>
      <trkpt lat="46.02564" lon="3.29403">
        <ele>337</ele>
        <time>2024-04-14T08:23:23Z</time>
      </trkpt>
      <trkpt lat="46.02568" lon="3.29397">
        <ele>337</ele>
        <time>2024-04-14T08:23:24Z</time>
      </trkpt>
      <trkpt lat="46.02571" lon="3.29392">
        <ele>337</ele>
        <time>2024-04-14T08:23:25Z</time>
      </trkpt>
      <trkpt lat="46.02575" lon="3.29386">
        <ele>337</ele>
        <time>2024-04-14T08:23:26Z</time>
      </trkpt>
      <trkpt lat="46.02578" lon="3.2938">
        <ele>337</ele>
        <time>2024-04-14T08:23:27Z</time>
      </trkpt>
      <trkpt lat="46.02581" lon="3.29374">
        <ele>337</ele>
        <time>2024-04-14T08:23:28Z</time>
      </trkpt>
      <trkpt lat="46.02585" lon="3.29368">
        <ele>337</ele>
        <time>2024-04-14T08:23:29Z</time>
      </trkpt>
      <trkpt lat="46.02588" lon="3.29363">
        <ele>337</ele>
        <time>2024-04-14T08:23:30Z</time>
      </trkpt>
      <trkpt lat="46.02592" lon="3.29357">
        <ele>337</ele>
        <time>2024-04-14T08:23:31Z</time>
      </trkpt>
      <trkpt lat="46.02595" lon="3.29351">
        <ele>337</ele>
        <time>2024-04-14T08:23:32Z</time>
      </trkpt>
      <trkpt lat="46.02599" lon="3.29345">
        <ele>337</ele>
        <time>2024-04-14T08:23:33Z</time>
      </trkpt>
      <trkpt lat="46.02602" lon="3.29339">
        <ele>337.2</ele>
        <time>2024-04-14T08:23:34Z</time>
      </trkpt>
      <trkpt lat="46.02606" lon="3.29333">
        <ele>336.6</ele>
        <time>2024-04-14T08:23:35Z</time>
      </trkpt>
      <trkpt lat="46.02609" lon="3.29327">
        <ele>336.6</ele>
        <time>2024-04-14T08:23:36Z</time>
      </trkpt>
      <trkpt lat="46.02613" lon="3.29321">
        <ele>337</ele>
        <time>2024-04-14T08:23:37Z</time>
      </trkpt>
      <trkpt lat="46.02616" lon="3.29315">
        <ele>337.2</ele>
        <time>2024-04-14T08:23:38Z</time>
      </trkpt>
      <trkpt lat="46.0262" lon="3.29309">
        <ele>337.6</ele>
        <time>2024-04-14T08:23:39Z</time>
      </trkpt>
      <trkpt lat="46.02623" lon="3.29303">
        <ele>337.4</ele>
        <time>2024-04-14T08:23:40Z</time>
      </trkpt>
      <trkpt lat="46.02627" lon="3.29297">
        <ele>337.4</ele>
        <time>2024-04-14T08:23:41Z</time>
      </trkpt>
      <trkpt lat="46.02631" lon="3.29291">
        <ele>337.4</ele>
        <time>2024-04-14T08:23:42Z</time>
      </trkpt>
      <trkpt lat="46.02635" lon="3.29284">
        <ele>337.4</ele>
        <time>2024-04-14T08:23:43Z</time>
      </trkpt>
      <trkpt lat="46.02638" lon="3.29278">
        <ele>337.6</ele>
        <time>2024-04-14T08:23:44Z</time>
      </trkpt>
      <trkpt lat="46.02642" lon="3.29271">
        <ele>337.6</ele>
        <time>2024-04-14T08:23:45Z</time>
      </trkpt>
      <trkpt lat="46.02646" lon="3.29265">
        <ele>337.6</ele>
        <time>2024-04-14T08:23:46Z</time>
      </trkpt>
      <trkpt lat="46.0265" lon="3.29259">
        <ele>337.6</ele>
        <time>2024-04-14T08:23:47Z</time>
      </trkpt>
      <trkpt lat="46.02654" lon="3.29252">
        <ele>337.6</ele>
        <time>2024-04-14T08:23:48Z</time>
      </trkpt>
      <trkpt lat="46.02657" lon="3.29246">
        <ele>337.6</ele>
        <time>2024-04-14T08:23:49Z</time>
      </trkpt>
      <trkpt lat="46.0266" lon="3.29239">
        <ele>337.6</ele>
        <time>2024-04-14T08:23:50Z</time>
      </trkpt>
      <trkpt lat="46.02663" lon="3.29231">
        <ele>337.8</ele>
        <time>2024-04-14T08:23:51Z</time>
      </trkpt>
      <trkpt lat="46.02666" lon="3.29224">
        <ele>337.8</ele>
        <time>2024-04-14T08:23:52Z</time>
      </trkpt>
      <trkpt lat="46.02669" lon="3.29217">
        <ele>337.8</ele>
        <time>2024-04-14T08:23:53Z</time>
      </trkpt>
      <trkpt lat="46.02672" lon="3.2921">
        <ele>338</ele>
        <time>2024-04-14T08:23:54Z</time>
      </trkpt>
      <trkpt lat="46.02676" lon="3.29202">
        <ele>338</ele>
        <time>2024-04-14T08:23:55Z</time>
      </trkpt>
      <trkpt lat="46.02679" lon="3.29195">
        <ele>338</ele>
        <time>2024-04-14T08:23:56Z</time>
      </trkpt>
      <trkpt lat="46.02682" lon="3.29187">
        <ele>338</ele>
        <time>2024-04-14T08:23:57Z</time>
      </trkpt>
      <trkpt lat="46.02685" lon="3.2918">
        <ele>338.2</ele>
        <time>2024-04-14T08:23:58Z</time>
      </trkpt>
      <trkpt lat="46.02688" lon="3.29172">
        <ele>338.2</ele>
        <time>2024-04-14T08:23:59Z</time>
      </trkpt>
      <trkpt lat="46.0269" lon="3.29164">
        <ele>338.2</ele>
        <time>2024-04-14T08:24:00Z</time>
      </trkpt>
      <trkpt lat="46.02692" lon="3.29156">
        <ele>338.4</ele>
        <time>2024-04-14T08:24:01Z</time>
      </trkpt>
      <trkpt lat="46.02695" lon="3.29148">
        <ele>338.4</ele>
        <time>2024-04-14T08:24:02Z</time>
      </trkpt>
      <trkpt lat="46.02697" lon="3.2914">
        <ele>338.4</ele>
        <time>2024-04-14T08:24:03Z</time>
      </trkpt>
      <trkpt lat="46.02699" lon="3.29132">
        <ele>338.4</ele>
        <time>2024-04-14T08:24:04Z</time>
      </trkpt>
      <trkpt lat="46.02701" lon="3.29125">
        <ele>338.6</ele>
        <time>2024-04-14T08:24:05Z</time>
      </trkpt>
      <trkpt lat="46.02703" lon="3.29117">
        <ele>338.6</ele>
        <time>2024-04-14T08:24:06Z</time>
      </trkpt>
      <trkpt lat="46.02705" lon="3.2911">
        <ele>338.6</ele>
        <time>2024-04-14T08:24:07Z</time>
      </trkpt>
      <trkpt lat="46.02707" lon="3.29102">
        <ele>338.6</ele>
        <time>2024-04-14T08:24:08Z</time>
      </trkpt>
      <trkpt lat="46.02709" lon="3.29094">
        <ele>338.8</ele>
        <time>2024-04-14T08:24:09Z</time>
      </trkpt>
      <trkpt lat="46.02711" lon="3.29086">
        <ele>339</ele>
        <time>2024-04-14T08:24:10Z</time>
      </trkpt>
      <trkpt lat="46.02714" lon="3.29077">
        <ele>339</ele>
        <time>2024-04-14T08:24:11Z</time>
      </trkpt>
      <trkpt lat="46.02715" lon="3.29068">
        <ele>339</ele>
        <time>2024-04-14T08:24:12Z</time>
      </trkpt>
      <trkpt lat="46.02717" lon="3.29059">
        <ele>339.2</ele>
        <time>2024-04-14T08:24:13Z</time>
      </trkpt>
      <trkpt lat="46.02719" lon="3.2905">
        <ele>339.2</ele>
        <time>2024-04-14T08:24:14Z</time>
      </trkpt>
      <trkpt lat="46.02721" lon="3.2904">
        <ele>339.2</ele>
        <time>2024-04-14T08:24:15Z</time>
      </trkpt>
      <trkpt lat="46.02722" lon="3.29031">
        <ele>339.2</ele>
        <time>2024-04-14T08:24:16Z</time>
      </trkpt>
      <trkpt lat="46.02724" lon="3.29021">
        <ele>339.2</ele>
        <time>2024-04-14T08:24:17Z</time>
      </trkpt>
      <trkpt lat="46.02726" lon="3.29011">
        <ele>339.2</ele>
        <time>2024-04-14T08:24:18Z</time>
      </trkpt>
      <trkpt lat="46.02728" lon="3.29001">
        <ele>339.2</ele>
        <time>2024-04-14T08:24:19Z</time>
      </trkpt>
      <trkpt lat="46.0273" lon="3.28991">
        <ele>339.2</ele>
        <time>2024-04-14T08:24:20Z</time>
      </trkpt>
      <trkpt lat="46.02732" lon="3.28981">
        <ele>339.2</ele>
        <time>2024-04-14T08:24:21Z</time>
      </trkpt>
      <trkpt lat="46.02734" lon="3.28972">
        <ele>339.2</ele>
        <time>2024-04-14T08:24:22Z</time>
      </trkpt>
      <trkpt lat="46.02735" lon="3.28962">
        <ele>339</ele>
        <time>2024-04-14T08:24:23Z</time>
      </trkpt>
      <trkpt lat="46.02737" lon="3.28952">
        <ele>339.2</ele>
        <time>2024-04-14T08:24:24Z</time>
      </trkpt>
      <trkpt lat="46.02739" lon="3.28942">
        <ele>339.2</ele>
        <time>2024-04-14T08:24:25Z</time>
      </trkpt>
      <trkpt lat="46.02741" lon="3.28931">
        <ele>339</ele>
        <time>2024-04-14T08:24:26Z</time>
      </trkpt>
      <trkpt lat="46.02743" lon="3.28921">
        <ele>339</ele>
        <time>2024-04-14T08:24:27Z</time>
      </trkpt>
      <trkpt lat="46.02745" lon="3.2891">
        <ele>339</ele>
        <time>2024-04-14T08:24:28Z</time>
      </trkpt>
      <trkpt lat="46.02747" lon="3.289">
        <ele>339</ele>
        <time>2024-04-14T08:24:29Z</time>
      </trkpt>
      <trkpt lat="46.02749" lon="3.2889">
        <ele>339</ele>
        <time>2024-04-14T08:24:30Z</time>
      </trkpt>
      <trkpt lat="46.02751" lon="3.28879">
        <ele>339</ele>
        <time>2024-04-14T08:24:31Z</time>
      </trkpt>
      <trkpt lat="46.02753" lon="3.28869">
        <ele>339</ele>
        <time>2024-04-14T08:24:32Z</time>
      </trkpt>
      <trkpt lat="46.02755" lon="3.28858">
        <ele>339.4</ele>
        <time>2024-04-14T08:24:33Z</time>
      </trkpt>
      <trkpt lat="46.02758" lon="3.28847">
        <ele>339</ele>
        <time>2024-04-14T08:24:34Z</time>
      </trkpt>
      <trkpt lat="46.0276" lon="3.28837">
        <ele>339</ele>
        <time>2024-04-14T08:24:35Z</time>
      </trkpt>
      <trkpt lat="46.02763" lon="3.28826">
        <ele>338.8</ele>
        <time>2024-04-14T08:24:36Z</time>
      </trkpt>
      <trkpt lat="46.02765" lon="3.28816">
        <ele>338.6</ele>
        <time>2024-04-14T08:24:37Z</time>
      </trkpt>
      <trkpt lat="46.02767" lon="3.28805">
        <ele>338.8</ele>
        <time>2024-04-14T08:24:38Z</time>
      </trkpt>
      <trkpt lat="46.02769" lon="3.28795">
        <ele>338.8</ele>
        <time>2024-04-14T08:24:39Z</time>
      </trkpt>
      <trkpt lat="46.02772" lon="3.28785">
        <ele>338.8</ele>
        <time>2024-04-14T08:24:40Z</time>
      </trkpt>
      <trkpt lat="46.02774" lon="3.28775">
        <ele>338.8</ele>
        <time>2024-04-14T08:24:41Z</time>
      </trkpt>
      <trkpt lat="46.02776" lon="3.28765">
        <ele>338.8</ele>
        <time>2024-04-14T08:24:42Z</time>
      </trkpt>
      <trkpt lat="46.02778" lon="3.28755">
        <ele>338.8</ele>
        <time>2024-04-14T08:24:43Z</time>
      </trkpt>
      <trkpt lat="46.0278" lon="3.28745">
        <ele>338.8</ele>
        <time>2024-04-14T08:24:44Z</time>
      </trkpt>
      <trkpt lat="46.02782" lon="3.28736">
        <ele>338.8</ele>
        <time>2024-04-14T08:24:45Z</time>
      </trkpt>
      <trkpt lat="46.02785" lon="3.28726">
        <ele>338.8</ele>
        <time>2024-04-14T08:24:46Z</time>
      </trkpt>
      <trkpt lat="46.02787" lon="3.28716">
        <ele>338.8</ele>
        <time>2024-04-14T08:24:47Z</time>
      </trkpt>
      <trkpt lat="46.02789" lon="3.28706">
        <ele>338.8</ele>
        <time>2024-04-14T08:24:48Z</time>
      </trkpt>
      <trkpt lat="46.02791" lon="3.28697">
        <ele>339</ele>
        <time>2024-04-14T08:24:49Z</time>
      </trkpt>
      <trkpt lat="46.02793" lon="3.28687">
        <ele>338.8</ele>
        <time>2024-04-14T08:24:50Z</time>
      </trkpt>
      <trkpt lat="46.02795" lon="3.28678">
        <ele>339</ele>
        <time>2024-04-14T08:24:51Z</time>
      </trkpt>
      <trkpt lat="46.02797" lon="3.28668">
        <ele>339</ele>
        <time>2024-04-14T08:24:52Z</time>
      </trkpt>
      <trkpt lat="46.02799" lon="3.28658">
        <ele>339.2</ele>
        <time>2024-04-14T08:24:53Z</time>
      </trkpt>
      <trkpt lat="46.02802" lon="3.28648">
        <ele>339</ele>
        <time>2024-04-14T08:24:54Z</time>
      </trkpt>
      <trkpt lat="46.02804" lon="3.28638">
        <ele>339</ele>
        <time>2024-04-14T08:24:55Z</time>
      </trkpt>
      <trkpt lat="46.02806" lon="3.28628">
        <ele>339</ele>
        <time>2024-04-14T08:24:56Z</time>
      </trkpt>
      <trkpt lat="46.02808" lon="3.28618">
        <ele>339</ele>
        <time>2024-04-14T08:24:57Z</time>
      </trkpt>
      <trkpt lat="46.02811" lon="3.28606">
        <ele>339</ele>
        <time>2024-04-14T08:24:58Z</time>
      </trkpt>
      <trkpt lat="46.02813" lon="3.28596">
        <ele>338.8</ele>
        <time>2024-04-14T08:24:59Z</time>
      </trkpt>
      <trkpt lat="46.02815" lon="3.28585">
        <ele>338.8</ele>
        <time>2024-04-14T08:25:00Z</time>
      </trkpt>
      <trkpt lat="46.02818" lon="3.28574">
        <ele>338.8</ele>
        <time>2024-04-14T08:25:01Z</time>
      </trkpt>
      <trkpt lat="46.0282" lon="3.28563">
        <ele>338.8</ele>
        <time>2024-04-14T08:25:02Z</time>
      </trkpt>
      <trkpt lat="46.02823" lon="3.28553">
        <ele>338.8</ele>
        <time>2024-04-14T08:25:03Z</time>
      </trkpt>
      <trkpt lat="46.02826" lon="3.28542">
        <ele>338.8</ele>
        <time>2024-04-14T08:25:04Z</time>
      </trkpt>
      <trkpt lat="46.02829" lon="3.28531">
        <ele>338.6</ele>
        <time>2024-04-14T08:25:05Z</time>
      </trkpt>
      <trkpt lat="46.02832" lon="3.2852">
        <ele>338.4</ele>
        <time>2024-04-14T08:25:06Z</time>
      </trkpt>
      <trkpt lat="46.02835" lon="3.2851">
        <ele>338.4</ele>
        <time>2024-04-14T08:25:07Z</time>
      </trkpt>
      <trkpt lat="46.02838" lon="3.28499">
        <ele>338.2</ele>
        <time>2024-04-14T08:25:08Z</time>
      </trkpt>
      <trkpt lat="46.02841" lon="3.28488">
        <ele>338.2</ele>
        <time>2024-04-14T08:25:09Z</time>
      </trkpt>
      <trkpt lat="46.02844" lon="3.28477">
        <ele>338</ele>
        <time>2024-04-14T08:25:10Z</time>
      </trkpt>
      <trkpt lat="46.02847" lon="3.28465">
        <ele>338</ele>
        <time>2024-04-14T08:25:11Z</time>
      </trkpt>
      <trkpt lat="46.0285" lon="3.28454">
        <ele>338</ele>
        <time>2024-04-14T08:25:12Z</time>
      </trkpt>
      <trkpt lat="46.02853" lon="3.28442">
        <ele>337.8</ele>
        <time>2024-04-14T08:25:13Z</time>
      </trkpt>
      <trkpt lat="46.02857" lon="3.28431">
        <ele>337.6</ele>
        <time>2024-04-14T08:25:14Z</time>
      </trkpt>
      <trkpt lat="46.0286" lon="3.28419">
        <ele>337.6</ele>
        <time>2024-04-14T08:25:15Z</time>
      </trkpt>
      <trkpt lat="46.02863" lon="3.28407">
        <ele>337.6</ele>
        <time>2024-04-14T08:25:16Z</time>
      </trkpt>
      <trkpt lat="46.02866" lon="3.28395">
        <ele>337.4</ele>
        <time>2024-04-14T08:25:17Z</time>
      </trkpt>
      <trkpt lat="46.0287" lon="3.28383">
        <ele>337.2</ele>
        <time>2024-04-14T08:25:18Z</time>
      </trkpt>
      <trkpt lat="46.02871" lon="3.2837">
        <ele>336.8</ele>
        <time>2024-04-14T08:25:19Z</time>
      </trkpt>
      <trkpt lat="46.02871" lon="3.28357">
        <ele>336.8</ele>
        <time>2024-04-14T08:25:20Z</time>
      </trkpt>
      <trkpt lat="46.02872" lon="3.28344">
        <ele>336.8</ele>
        <time>2024-04-14T08:25:21Z</time>
      </trkpt>
      <trkpt lat="46.02872" lon="3.28331">
        <ele>336.6</ele>
        <time>2024-04-14T08:25:22Z</time>
      </trkpt>
      <trkpt lat="46.02873" lon="3.28318">
        <ele>336.4</ele>
        <time>2024-04-14T08:25:23Z</time>
      </trkpt>
      <trkpt lat="46.02873" lon="3.28305">
        <ele>336.2</ele>
        <time>2024-04-14T08:25:24Z</time>
      </trkpt>
      <trkpt lat="46.02874" lon="3.28292">
        <ele>336.2</ele>
        <time>2024-04-14T08:25:25Z</time>
      </trkpt>
      <trkpt lat="46.02874" lon="3.28279">
        <ele>336</ele>
        <time>2024-04-14T08:25:26Z</time>
      </trkpt>
      <trkpt lat="46.02874" lon="3.28267">
        <ele>335.8</ele>
        <time>2024-04-14T08:25:27Z</time>
      </trkpt>
      <trkpt lat="46.02873" lon="3.28254">
        <ele>335.6</ele>
        <time>2024-04-14T08:25:28Z</time>
      </trkpt>
      <trkpt lat="46.02871" lon="3.28242">
        <ele>335.6</ele>
        <time>2024-04-14T08:25:29Z</time>
      </trkpt>
      <trkpt lat="46.02869" lon="3.2823">
        <ele>335.4</ele>
        <time>2024-04-14T08:25:30Z</time>
      </trkpt>
      <trkpt lat="46.02868" lon="3.28219">
        <ele>335.4</ele>
        <time>2024-04-14T08:25:31Z</time>
      </trkpt>
      <trkpt lat="46.02866" lon="3.28207">
        <ele>335.4</ele>
        <time>2024-04-14T08:25:32Z</time>
      </trkpt>
      <trkpt lat="46.02864" lon="3.28196">
        <ele>335.2</ele>
        <time>2024-04-14T08:25:33Z</time>
      </trkpt>
      <trkpt lat="46.02863" lon="3.28184">
        <ele>335.2</ele>
        <time>2024-04-14T08:25:34Z</time>
      </trkpt>
      <trkpt lat="46.02861" lon="3.28173">
        <ele>335</ele>
        <time>2024-04-14T08:25:35Z</time>
      </trkpt>
      <trkpt lat="46.02859" lon="3.28162">
        <ele>335</ele>
        <time>2024-04-14T08:25:36Z</time>
      </trkpt>
      <trkpt lat="46.02858" lon="3.28151">
        <ele>334.8</ele>
        <time>2024-04-14T08:25:37Z</time>
      </trkpt>
      <trkpt lat="46.02856" lon="3.2814">
        <ele>334.8</ele>
        <time>2024-04-14T08:25:38Z</time>
      </trkpt>
      <trkpt lat="46.02855" lon="3.2813">
        <ele>334.6</ele>
        <time>2024-04-14T08:25:39Z</time>
      </trkpt>
      <trkpt lat="46.02853" lon="3.28119">
        <ele>334.6</ele>
        <time>2024-04-14T08:25:40Z</time>
      </trkpt>
      <trkpt lat="46.02851" lon="3.28109">
        <ele>334.4</ele>
        <time>2024-04-14T08:25:41Z</time>
      </trkpt>
      <trkpt lat="46.0285" lon="3.28098">
        <ele>334.4</ele>
        <time>2024-04-14T08:25:42Z</time>
      </trkpt>
      <trkpt lat="46.02848" lon="3.28087">
        <ele>334.2</ele>
        <time>2024-04-14T08:25:43Z</time>
      </trkpt>
      <trkpt lat="46.02847" lon="3.28077">
        <ele>334.2</ele>
        <time>2024-04-14T08:25:44Z</time>
      </trkpt>
      <trkpt lat="46.02845" lon="3.28066">
        <ele>334.2</ele>
        <time>2024-04-14T08:25:45Z</time>
      </trkpt>
      <trkpt lat="46.02844" lon="3.28056">
        <ele>334</ele>
        <time>2024-04-14T08:25:46Z</time>
      </trkpt>
      <trkpt lat="46.02842" lon="3.28045">
        <ele>334</ele>
        <time>2024-04-14T08:25:47Z</time>
      </trkpt>
      <trkpt lat="46.02841" lon="3.28034">
        <ele>333.8</ele>
        <time>2024-04-14T08:25:48Z</time>
      </trkpt>
      <trkpt lat="46.02839" lon="3.28024">
        <ele>333.8</ele>
        <time>2024-04-14T08:25:49Z</time>
      </trkpt>
      <trkpt lat="46.02837" lon="3.28013">
        <ele>333.6</ele>
        <time>2024-04-14T08:25:50Z</time>
      </trkpt>
      <trkpt lat="46.02836" lon="3.28002">
        <ele>333.4</ele>
        <time>2024-04-14T08:25:51Z</time>
      </trkpt>
      <trkpt lat="46.02834" lon="3.27991">
        <ele>333.4</ele>
        <time>2024-04-14T08:25:52Z</time>
      </trkpt>
      <trkpt lat="46.02833" lon="3.27981">
        <ele>333.2</ele>
        <time>2024-04-14T08:25:53Z</time>
      </trkpt>
      <trkpt lat="46.02831" lon="3.2797">
        <ele>333.2</ele>
        <time>2024-04-14T08:25:54Z</time>
      </trkpt>
      <trkpt lat="46.0283" lon="3.2796">
        <ele>333.2</ele>
        <time>2024-04-14T08:25:55Z</time>
      </trkpt>
      <trkpt lat="46.02828" lon="3.27949">
        <ele>333</ele>
        <time>2024-04-14T08:25:56Z</time>
      </trkpt>
      <trkpt lat="46.02826" lon="3.27938">
        <ele>333</ele>
        <time>2024-04-14T08:25:57Z</time>
      </trkpt>
      <trkpt lat="46.02825" lon="3.27927">
        <ele>333</ele>
        <time>2024-04-14T08:25:58Z</time>
      </trkpt>
      <trkpt lat="46.02823" lon="3.27917">
        <ele>332.8</ele>
        <time>2024-04-14T08:25:59Z</time>
      </trkpt>
      <trkpt lat="46.02822" lon="3.27907">
        <ele>332.8</ele>
        <time>2024-04-14T08:26:00Z</time>
      </trkpt>
      <trkpt lat="46.0282" lon="3.27896">
        <ele>332.8</ele>
        <time>2024-04-14T08:26:01Z</time>
      </trkpt>
      <trkpt lat="46.02819" lon="3.27885">
        <ele>332.6</ele>
        <time>2024-04-14T08:26:02Z</time>
      </trkpt>
      <trkpt lat="46.02817" lon="3.27875">
        <ele>332.6</ele>
        <time>2024-04-14T08:26:03Z</time>
      </trkpt>
      <trkpt lat="46.02816" lon="3.27864">
        <ele>332.4</ele>
        <time>2024-04-14T08:26:04Z</time>
      </trkpt>
      <trkpt lat="46.02814" lon="3.27854">
        <ele>332.4</ele>
        <time>2024-04-14T08:26:05Z</time>
      </trkpt>
      <trkpt lat="46.02813" lon="3.27844">
        <ele>332.2</ele>
        <time>2024-04-14T08:26:06Z</time>
      </trkpt>
      <trkpt lat="46.02811" lon="3.27833">
        <ele>332.2</ele>
        <time>2024-04-14T08:26:07Z</time>
      </trkpt>
      <trkpt lat="46.02809" lon="3.27822">
        <ele>332.2</ele>
        <time>2024-04-14T08:26:08Z</time>
      </trkpt>
      <trkpt lat="46.02808" lon="3.27812">
        <ele>332</ele>
        <time>2024-04-14T08:26:09Z</time>
      </trkpt>
      <trkpt lat="46.02806" lon="3.27801">
        <ele>332</ele>
        <time>2024-04-14T08:26:10Z</time>
      </trkpt>
      <trkpt lat="46.02805" lon="3.27791">
        <ele>332</ele>
        <time>2024-04-14T08:26:11Z</time>
      </trkpt>
      <trkpt lat="46.02803" lon="3.2778">
        <ele>332</ele>
        <time>2024-04-14T08:26:12Z</time>
      </trkpt>
      <trkpt lat="46.02802" lon="3.2777">
        <ele>331.8</ele>
        <time>2024-04-14T08:26:13Z</time>
      </trkpt>
      <trkpt lat="46.028" lon="3.27759">
        <ele>331.8</ele>
        <time>2024-04-14T08:26:14Z</time>
      </trkpt>
      <trkpt lat="46.02799" lon="3.27749">
        <ele>331.8</ele>
        <time>2024-04-14T08:26:15Z</time>
      </trkpt>
      <trkpt lat="46.02797" lon="3.27739">
        <ele>331.6</ele>
        <time>2024-04-14T08:26:16Z</time>
      </trkpt>
      <trkpt lat="46.02796" lon="3.27729">
        <ele>331.6</ele>
        <time>2024-04-14T08:26:17Z</time>
      </trkpt>
      <trkpt lat="46.02794" lon="3.27718">
        <ele>331.6</ele>
        <time>2024-04-14T08:26:18Z</time>
      </trkpt>
      <trkpt lat="46.02793" lon="3.27708">
        <ele>331.4</ele>
        <time>2024-04-14T08:26:19Z</time>
      </trkpt>
      <trkpt lat="46.02791" lon="3.27698">
        <ele>331.4</ele>
        <time>2024-04-14T08:26:20Z</time>
      </trkpt>
      <trkpt lat="46.0279" lon="3.27688">
        <ele>331.4</ele>
        <time>2024-04-14T08:26:21Z</time>
      </trkpt>
      <trkpt lat="46.02788" lon="3.27678">
        <ele>331.4</ele>
        <time>2024-04-14T08:26:22Z</time>
      </trkpt>
      <trkpt lat="46.02787" lon="3.27668">
        <ele>331.2</ele>
        <time>2024-04-14T08:26:23Z</time>
      </trkpt>
      <trkpt lat="46.02785" lon="3.27658">
        <ele>331.2</ele>
        <time>2024-04-14T08:26:24Z</time>
      </trkpt>
      <trkpt lat="46.02784" lon="3.27648">
        <ele>331.2</ele>
        <time>2024-04-14T08:26:25Z</time>
      </trkpt>
      <trkpt lat="46.02783" lon="3.27638">
        <ele>331.2</ele>
        <time>2024-04-14T08:26:26Z</time>
      </trkpt>
      <trkpt lat="46.02781" lon="3.27629">
        <ele>331</ele>
        <time>2024-04-14T08:26:27Z</time>
      </trkpt>
      <trkpt lat="46.0278" lon="3.27619">
        <ele>331</ele>
        <time>2024-04-14T08:26:28Z</time>
      </trkpt>
      <trkpt lat="46.02778" lon="3.27609">
        <ele>331</ele>
        <time>2024-04-14T08:26:29Z</time>
      </trkpt>
      <trkpt lat="46.02777" lon="3.27599">
        <ele>331</ele>
        <time>2024-04-14T08:26:30Z</time>
      </trkpt>
      <trkpt lat="46.02775" lon="3.2759">
        <ele>331</ele>
        <time>2024-04-14T08:26:31Z</time>
      </trkpt>
      <trkpt lat="46.02774" lon="3.2758">
        <ele>331</ele>
        <time>2024-04-14T08:26:32Z</time>
      </trkpt>
      <trkpt lat="46.02773" lon="3.27571">
        <ele>330.8</ele>
        <time>2024-04-14T08:26:33Z</time>
      </trkpt>
      <trkpt lat="46.02771" lon="3.27561">
        <ele>330.8</ele>
        <time>2024-04-14T08:26:34Z</time>
      </trkpt>
      <trkpt lat="46.0277" lon="3.27551">
        <ele>330.8</ele>
        <time>2024-04-14T08:26:35Z</time>
      </trkpt>
      <trkpt lat="46.02768" lon="3.27541">
        <ele>330.8</ele>
        <time>2024-04-14T08:26:36Z</time>
      </trkpt>
      <trkpt lat="46.02767" lon="3.27531">
        <ele>330.6</ele>
        <time>2024-04-14T08:26:37Z</time>
      </trkpt>
      <trkpt lat="46.02765" lon="3.27521">
        <ele>330.6</ele>
        <time>2024-04-14T08:26:38Z</time>
      </trkpt>
      <trkpt lat="46.02764" lon="3.27511">
        <ele>330.6</ele>
        <time>2024-04-14T08:26:39Z</time>
      </trkpt>
      <trkpt lat="46.02762" lon="3.275">
        <ele>330.4</ele>
        <time>2024-04-14T08:26:40Z</time>
      </trkpt>
      <trkpt lat="46.02761" lon="3.2749">
        <ele>330.4</ele>
        <time>2024-04-14T08:26:41Z</time>
      </trkpt>
      <trkpt lat="46.02759" lon="3.27479">
        <ele>330.4</ele>
        <time>2024-04-14T08:26:42Z</time>
      </trkpt>
      <trkpt lat="46.02758" lon="3.27469">
        <ele>330.2</ele>
        <time>2024-04-14T08:26:43Z</time>
      </trkpt>
      <trkpt lat="46.02756" lon="3.27459">
        <ele>330.2</ele>
        <time>2024-04-14T08:26:44Z</time>
      </trkpt>
      <trkpt lat="46.02755" lon="3.27449">
        <ele>330.2</ele>
        <time>2024-04-14T08:26:45Z</time>
      </trkpt>
      <trkpt lat="46.02753" lon="3.27439">
        <ele>330.2</ele>
        <time>2024-04-14T08:26:46Z</time>
      </trkpt>
      <trkpt lat="46.02752" lon="3.27429">
        <ele>330</ele>
        <time>2024-04-14T08:26:47Z</time>
      </trkpt>
      <trkpt lat="46.0275" lon="3.27419">
        <ele>330</ele>
        <time>2024-04-14T08:26:48Z</time>
      </trkpt>
      <trkpt lat="46.02749" lon="3.2741">
        <ele>330</ele>
        <time>2024-04-14T08:26:49Z</time>
      </trkpt>
      <trkpt lat="46.02747" lon="3.274">
        <ele>329.8</ele>
        <time>2024-04-14T08:26:50Z</time>
      </trkpt>
      <trkpt lat="46.02746" lon="3.2739">
        <ele>329.8</ele>
        <time>2024-04-14T08:26:51Z</time>
      </trkpt>
      <trkpt lat="46.02744" lon="3.2738">
        <ele>329.8</ele>
        <time>2024-04-14T08:26:52Z</time>
      </trkpt>
      <trkpt lat="46.02743" lon="3.27369">
        <ele>329.8</ele>
        <time>2024-04-14T08:26:53Z</time>
      </trkpt>
      <trkpt lat="46.02741" lon="3.27359">
        <ele>329.6</ele>
        <time>2024-04-14T08:26:54Z</time>
      </trkpt>
      <trkpt lat="46.0274" lon="3.27349">
        <ele>329.6</ele>
        <time>2024-04-14T08:26:55Z</time>
      </trkpt>
      <trkpt lat="46.02738" lon="3.27339">
        <ele>329.4</ele>
        <time>2024-04-14T08:26:56Z</time>
      </trkpt>
      <trkpt lat="46.02737" lon="3.27329">
        <ele>329.4</ele>
        <time>2024-04-14T08:26:57Z</time>
      </trkpt>
      <trkpt lat="46.02735" lon="3.27319">
        <ele>329.4</ele>
        <time>2024-04-14T08:26:58Z</time>
      </trkpt>
      <trkpt lat="46.02734" lon="3.27309">
        <ele>329.4</ele>
        <time>2024-04-14T08:26:59Z</time>
      </trkpt>
      <trkpt lat="46.02732" lon="3.27299">
        <ele>329.2</ele>
        <time>2024-04-14T08:27:00Z</time>
      </trkpt>
      <trkpt lat="46.02731" lon="3.27289">
        <ele>329.2</ele>
        <time>2024-04-14T08:27:01Z</time>
      </trkpt>
      <trkpt lat="46.02729" lon="3.27278">
        <ele>329.2</ele>
        <time>2024-04-14T08:27:02Z</time>
      </trkpt>
      <trkpt lat="46.02728" lon="3.27268">
        <ele>329.2</ele>
        <time>2024-04-14T08:27:03Z</time>
      </trkpt>
      <trkpt lat="46.02726" lon="3.27258">
        <ele>329.2</ele>
        <time>2024-04-14T08:27:04Z</time>
      </trkpt>
      <trkpt lat="46.02725" lon="3.27248">
        <ele>329</ele>
        <time>2024-04-14T08:27:05Z</time>
      </trkpt>
      <trkpt lat="46.02723" lon="3.27238">
        <ele>329</ele>
        <time>2024-04-14T08:27:06Z</time>
      </trkpt>
      <trkpt lat="46.02722" lon="3.27228">
        <ele>329</ele>
        <time>2024-04-14T08:27:07Z</time>
      </trkpt>
      <trkpt lat="46.0272" lon="3.27218">
        <ele>329</ele>
        <time>2024-04-14T08:27:08Z</time>
      </trkpt>
      <trkpt lat="46.02719" lon="3.27208">
        <ele>328.8</ele>
        <time>2024-04-14T08:27:09Z</time>
      </trkpt>
      <trkpt lat="46.02717" lon="3.27198">
        <ele>328.8</ele>
        <time>2024-04-14T08:27:10Z</time>
      </trkpt>
      <trkpt lat="46.02716" lon="3.27188">
        <ele>328.8</ele>
        <time>2024-04-14T08:27:11Z</time>
      </trkpt>
      <trkpt lat="46.02714" lon="3.27178">
        <ele>328.8</ele>
        <time>2024-04-14T08:27:12Z</time>
      </trkpt>
      <trkpt lat="46.02713" lon="3.27167">
        <ele>328.8</ele>
        <time>2024-04-14T08:27:13Z</time>
      </trkpt>
      <trkpt lat="46.02711" lon="3.27157">
        <ele>328.8</ele>
        <time>2024-04-14T08:27:14Z</time>
      </trkpt>
      <trkpt lat="46.0271" lon="3.27147">
        <ele>328.8</ele>
        <time>2024-04-14T08:27:15Z</time>
      </trkpt>
      <trkpt lat="46.02708" lon="3.27137">
        <ele>328.6</ele>
        <time>2024-04-14T08:27:16Z</time>
      </trkpt>
      <trkpt lat="46.02707" lon="3.27127">
        <ele>328.6</ele>
        <time>2024-04-14T08:27:17Z</time>
      </trkpt>
      <trkpt lat="46.02705" lon="3.27117">
        <ele>328.6</ele>
        <time>2024-04-14T08:27:18Z</time>
      </trkpt>
      <trkpt lat="46.02704" lon="3.27108">
        <ele>328.6</ele>
        <time>2024-04-14T08:27:19Z</time>
      </trkpt>
      <trkpt lat="46.02702" lon="3.27098">
        <ele>328.6</ele>
        <time>2024-04-14T08:27:20Z</time>
      </trkpt>
      <trkpt lat="46.02701" lon="3.27088">
        <ele>328.6</ele>
        <time>2024-04-14T08:27:21Z</time>
      </trkpt>
      <trkpt lat="46.02699" lon="3.27078">
        <ele>328.6</ele>
        <time>2024-04-14T08:27:22Z</time>
      </trkpt>
      <trkpt lat="46.02698" lon="3.27068">
        <ele>328.4</ele>
        <time>2024-04-14T08:27:23Z</time>
      </trkpt>
      <trkpt lat="46.02696" lon="3.27058">
        <ele>328.4</ele>
        <time>2024-04-14T08:27:24Z</time>
      </trkpt>
      <trkpt lat="46.02694" lon="3.27048">
        <ele>328.4</ele>
        <time>2024-04-14T08:27:25Z</time>
      </trkpt>
      <trkpt lat="46.02693" lon="3.27038">
        <ele>328.4</ele>
        <time>2024-04-14T08:27:26Z</time>
      </trkpt>
      <trkpt lat="46.02691" lon="3.27028">
        <ele>328.4</ele>
        <time>2024-04-14T08:27:27Z</time>
      </trkpt>
      <trkpt lat="46.0269" lon="3.27018">
        <ele>328.4</ele>
        <time>2024-04-14T08:27:28Z</time>
      </trkpt>
      <trkpt lat="46.02688" lon="3.27008">
        <ele>328.4</ele>
        <time>2024-04-14T08:27:29Z</time>
      </trkpt>
      <trkpt lat="46.02687" lon="3.26998">
        <ele>328.4</ele>
        <time>2024-04-14T08:27:30Z</time>
      </trkpt>
      <trkpt lat="46.02685" lon="3.26988">
        <ele>328.4</ele>
        <time>2024-04-14T08:27:31Z</time>
      </trkpt>
      <trkpt lat="46.02684" lon="3.26978">
        <ele>328.2</ele>
        <time>2024-04-14T08:27:32Z</time>
      </trkpt>
      <trkpt lat="46.02682" lon="3.26968">
        <ele>328.2</ele>
        <time>2024-04-14T08:27:33Z</time>
      </trkpt>
      <trkpt lat="46.02681" lon="3.26958">
        <ele>328.2</ele>
        <time>2024-04-14T08:27:34Z</time>
      </trkpt>
      <trkpt lat="46.02679" lon="3.26948">
        <ele>328.2</ele>
        <time>2024-04-14T08:27:35Z</time>
      </trkpt>
      <trkpt lat="46.02678" lon="3.26938">
        <ele>328.2</ele>
        <time>2024-04-14T08:27:36Z</time>
      </trkpt>
      <trkpt lat="46.02676" lon="3.26928">
        <ele>328.2</ele>
        <time>2024-04-14T08:27:37Z</time>
      </trkpt>
      <trkpt lat="46.02675" lon="3.26918">
        <ele>328</ele>
        <time>2024-04-14T08:27:38Z</time>
      </trkpt>
      <trkpt lat="46.02673" lon="3.26908">
        <ele>328</ele>
        <time>2024-04-14T08:27:39Z</time>
      </trkpt>
      <trkpt lat="46.02672" lon="3.26898">
        <ele>328</ele>
        <time>2024-04-14T08:27:40Z</time>
      </trkpt>
      <trkpt lat="46.0267" lon="3.26888">
        <ele>328</ele>
        <time>2024-04-14T08:27:41Z</time>
      </trkpt>
      <trkpt lat="46.02669" lon="3.26878">
        <ele>328</ele>
        <time>2024-04-14T08:27:42Z</time>
      </trkpt>
      <trkpt lat="46.02667" lon="3.26868">
        <ele>328</ele>
        <time>2024-04-14T08:27:43Z</time>
      </trkpt>
      <trkpt lat="46.02666" lon="3.26858">
        <ele>328</ele>
        <time>2024-04-14T08:27:44Z</time>
      </trkpt>
      <trkpt lat="46.02664" lon="3.26848">
        <ele>328</ele>
        <time>2024-04-14T08:27:45Z</time>
      </trkpt>
      <trkpt lat="46.02662" lon="3.26838">
        <ele>328</ele>
        <time>2024-04-14T08:27:46Z</time>
      </trkpt>
      <trkpt lat="46.02661" lon="3.26828">
        <ele>328</ele>
        <time>2024-04-14T08:27:47Z</time>
      </trkpt>
      <trkpt lat="46.02659" lon="3.26817">
        <ele>328</ele>
        <time>2024-04-14T08:27:48Z</time>
      </trkpt>
      <trkpt lat="46.02658" lon="3.26807">
        <ele>328</ele>
        <time>2024-04-14T08:27:49Z</time>
      </trkpt>
      <trkpt lat="46.02656" lon="3.26797">
        <ele>328</ele>
        <time>2024-04-14T08:27:50Z</time>
      </trkpt>
      <trkpt lat="46.02655" lon="3.26787">
        <ele>328</ele>
        <time>2024-04-14T08:27:51Z</time>
      </trkpt>
      <trkpt lat="46.02653" lon="3.26776">
        <ele>327.8</ele>
        <time>2024-04-14T08:27:52Z</time>
      </trkpt>
      <trkpt lat="46.02651" lon="3.26766">
        <ele>327.8</ele>
        <time>2024-04-14T08:27:53Z</time>
      </trkpt>
      <trkpt lat="46.0265" lon="3.26756">
        <ele>328</ele>
        <time>2024-04-14T08:27:54Z</time>
      </trkpt>
      <trkpt lat="46.02648" lon="3.26746">
        <ele>328</ele>
        <time>2024-04-14T08:27:55Z</time>
      </trkpt>
      <trkpt lat="46.02647" lon="3.26736">
        <ele>327.8</ele>
        <time>2024-04-14T08:27:56Z</time>
      </trkpt>
      <trkpt lat="46.02645" lon="3.26726">
        <ele>327.8</ele>
        <time>2024-04-14T08:27:57Z</time>
      </trkpt>
      <trkpt lat="46.02644" lon="3.26716">
        <ele>328</ele>
        <time>2024-04-14T08:27:58Z</time>
      </trkpt>
      <trkpt lat="46.02642" lon="3.26706">
        <ele>328</ele>
        <time>2024-04-14T08:27:59Z</time>
      </trkpt>
      <trkpt lat="46.02641" lon="3.26696">
        <ele>327.8</ele>
        <time>2024-04-14T08:28:00Z</time>
      </trkpt>
      <trkpt lat="46.02639" lon="3.26685">
        <ele>327.8</ele>
        <time>2024-04-14T08:28:01Z</time>
      </trkpt>
      <trkpt lat="46.02638" lon="3.26675">
        <ele>327.8</ele>
        <time>2024-04-14T08:28:02Z</time>
      </trkpt>
      <trkpt lat="46.02636" lon="3.26665">
        <ele>327.8</ele>
        <time>2024-04-14T08:28:03Z</time>
      </trkpt>
      <trkpt lat="46.02635" lon="3.26655">
        <ele>327.8</ele>
        <time>2024-04-14T08:28:04Z</time>
      </trkpt>
      <trkpt lat="46.02633" lon="3.26646">
        <ele>327.8</ele>
        <time>2024-04-14T08:28:05Z</time>
      </trkpt>
      <trkpt lat="46.02632" lon="3.26636">
        <ele>327.8</ele>
        <time>2024-04-14T08:28:06Z</time>
      </trkpt>
      <trkpt lat="46.0263" lon="3.26626">
        <ele>327.8</ele>
        <time>2024-04-14T08:28:07Z</time>
      </trkpt>
      <trkpt lat="46.02628" lon="3.26615">
        <ele>327.8</ele>
        <time>2024-04-14T08:28:08Z</time>
      </trkpt>
      <trkpt lat="46.02627" lon="3.26605">
        <ele>327.8</ele>
        <time>2024-04-14T08:28:09Z</time>
      </trkpt>
      <trkpt lat="46.02625" lon="3.26595">
        <ele>327.8</ele>
        <time>2024-04-14T08:28:10Z</time>
      </trkpt>
      <trkpt lat="46.02624" lon="3.26585">
        <ele>327.8</ele>
        <time>2024-04-14T08:28:11Z</time>
      </trkpt>
      <trkpt lat="46.02622" lon="3.26575">
        <ele>327.8</ele>
        <time>2024-04-14T08:28:12Z</time>
      </trkpt>
      <trkpt lat="46.02621" lon="3.26564">
        <ele>327.8</ele>
        <time>2024-04-14T08:28:13Z</time>
      </trkpt>
      <trkpt lat="46.02619" lon="3.26554">
        <ele>327.8</ele>
        <time>2024-04-14T08:28:14Z</time>
      </trkpt>
      <trkpt lat="46.02617" lon="3.26544">
        <ele>327.8</ele>
        <time>2024-04-14T08:28:15Z</time>
      </trkpt>
      <trkpt lat="46.02616" lon="3.26534">
        <ele>327.8</ele>
        <time>2024-04-14T08:28:16Z</time>
      </trkpt>
      <trkpt lat="46.02614" lon="3.26523">
        <ele>327.8</ele>
        <time>2024-04-14T08:28:17Z</time>
      </trkpt>
      <trkpt lat="46.02613" lon="3.26513">
        <ele>327.8</ele>
        <time>2024-04-14T08:28:18Z</time>
      </trkpt>
      <trkpt lat="46.02612" lon="3.26502">
        <ele>327.8</ele>
        <time>2024-04-14T08:28:19Z</time>
      </trkpt>
      <trkpt lat="46.02611" lon="3.26492">
        <ele>327.6</ele>
        <time>2024-04-14T08:28:20Z</time>
      </trkpt>
      <trkpt lat="46.0261" lon="3.26481">
        <ele>327.6</ele>
        <time>2024-04-14T08:28:21Z</time>
      </trkpt>
      <trkpt lat="46.02609" lon="3.26471">
        <ele>327.6</ele>
        <time>2024-04-14T08:28:22Z</time>
      </trkpt>
      <trkpt lat="46.02608" lon="3.26461">
        <ele>327.6</ele>
        <time>2024-04-14T08:28:23Z</time>
      </trkpt>
      <trkpt lat="46.02607" lon="3.2645">
        <ele>327.6</ele>
        <time>2024-04-14T08:28:24Z</time>
      </trkpt>
      <trkpt lat="46.02606" lon="3.2644">
        <ele>327.6</ele>
        <time>2024-04-14T08:28:25Z</time>
      </trkpt>
      <trkpt lat="46.02604" lon="3.2643">
        <ele>327.6</ele>
        <time>2024-04-14T08:28:26Z</time>
      </trkpt>
      <trkpt lat="46.02603" lon="3.26421">
        <ele>327.6</ele>
        <time>2024-04-14T08:28:27Z</time>
      </trkpt>
      <trkpt lat="46.02601" lon="3.26412">
        <ele>327.6</ele>
        <time>2024-04-14T08:28:28Z</time>
      </trkpt>
      <trkpt lat="46.026" lon="3.26402">
        <ele>327.6</ele>
        <time>2024-04-14T08:28:29Z</time>
      </trkpt>
      <trkpt lat="46.02598" lon="3.26392">
        <ele>327.6</ele>
        <time>2024-04-14T08:28:30Z</time>
      </trkpt>
      <trkpt lat="46.02597" lon="3.26383">
        <ele>327.6</ele>
        <time>2024-04-14T08:28:31Z</time>
      </trkpt>
      <trkpt lat="46.02595" lon="3.26373">
        <ele>327.6</ele>
        <time>2024-04-14T08:28:32Z</time>
      </trkpt>
      <trkpt lat="46.02594" lon="3.26363">
        <ele>327.6</ele>
        <time>2024-04-14T08:28:33Z</time>
      </trkpt>
      <trkpt lat="46.02592" lon="3.26353">
        <ele>327.6</ele>
        <time>2024-04-14T08:28:34Z</time>
      </trkpt>
      <trkpt lat="46.02591" lon="3.26344">
        <ele>327.6</ele>
        <time>2024-04-14T08:28:35Z</time>
      </trkpt>
      <trkpt lat="46.0259" lon="3.26335">
        <ele>327.6</ele>
        <time>2024-04-14T08:28:36Z</time>
      </trkpt>
      <trkpt lat="46.02588" lon="3.26326">
        <ele>327.6</ele>
        <time>2024-04-14T08:28:37Z</time>
      </trkpt>
      <trkpt lat="46.02587" lon="3.26316">
        <ele>327.6</ele>
        <time>2024-04-14T08:28:38Z</time>
      </trkpt>
      <trkpt lat="46.02585" lon="3.26307">
        <ele>327.6</ele>
        <time>2024-04-14T08:28:39Z</time>
      </trkpt>
      <trkpt lat="46.02584" lon="3.26298">
        <ele>327.6</ele>
        <time>2024-04-14T08:28:40Z</time>
      </trkpt>
      <trkpt lat="46.02582" lon="3.26288">
        <ele>327.6</ele>
        <time>2024-04-14T08:28:41Z</time>
      </trkpt>
      <trkpt lat="46.02581" lon="3.26278">
        <ele>327.8</ele>
        <time>2024-04-14T08:28:42Z</time>
      </trkpt>
      <trkpt lat="46.02579" lon="3.26269">
        <ele>327.8</ele>
        <time>2024-04-14T08:28:43Z</time>
      </trkpt>
      <trkpt lat="46.02578" lon="3.26259">
        <ele>327.8</ele>
        <time>2024-04-14T08:28:44Z</time>
      </trkpt>
      <trkpt lat="46.02577" lon="3.2625">
        <ele>327.8</ele>
        <time>2024-04-14T08:28:45Z</time>
      </trkpt>
      <trkpt lat="46.02575" lon="3.2624">
        <ele>327.8</ele>
        <time>2024-04-14T08:28:46Z</time>
      </trkpt>
      <trkpt lat="46.02574" lon="3.2623">
        <ele>327.8</ele>
        <time>2024-04-14T08:28:47Z</time>
      </trkpt>
      <trkpt lat="46.02572" lon="3.2622">
        <ele>327.8</ele>
        <time>2024-04-14T08:28:48Z</time>
      </trkpt>
      <trkpt lat="46.02571" lon="3.2621">
        <ele>327.8</ele>
        <time>2024-04-14T08:28:49Z</time>
      </trkpt>
      <trkpt lat="46.02569" lon="3.26201">
        <ele>327.8</ele>
        <time>2024-04-14T08:28:50Z</time>
      </trkpt>
      <trkpt lat="46.02568" lon="3.26191">
        <ele>327.8</ele>
        <time>2024-04-14T08:28:51Z</time>
      </trkpt>
      <trkpt lat="46.02566" lon="3.26181">
        <ele>327.8</ele>
        <time>2024-04-14T08:28:52Z</time>
      </trkpt>
      <trkpt lat="46.02565" lon="3.26171">
        <ele>327.8</ele>
        <time>2024-04-14T08:28:53Z</time>
      </trkpt>
      <trkpt lat="46.02563" lon="3.26162">
        <ele>327.8</ele>
        <time>2024-04-14T08:28:54Z</time>
      </trkpt>
      <trkpt lat="46.02562" lon="3.26152">
        <ele>327.8</ele>
        <time>2024-04-14T08:28:55Z</time>
      </trkpt>
      <trkpt lat="46.0256" lon="3.26142">
        <ele>327.8</ele>
        <time>2024-04-14T08:28:56Z</time>
      </trkpt>
      <trkpt lat="46.02559" lon="3.26132">
        <ele>327.8</ele>
        <time>2024-04-14T08:28:57Z</time>
      </trkpt>
      <trkpt lat="46.02557" lon="3.26123">
        <ele>327.8</ele>
        <time>2024-04-14T08:28:58Z</time>
      </trkpt>
      <trkpt lat="46.02556" lon="3.26113">
        <ele>327.8</ele>
        <time>2024-04-14T08:28:59Z</time>
      </trkpt>
      <trkpt lat="46.02554" lon="3.26103">
        <ele>327.8</ele>
        <time>2024-04-14T08:29:00Z</time>
      </trkpt>
      <trkpt lat="46.02553" lon="3.26094">
        <ele>327.8</ele>
        <time>2024-04-14T08:29:01Z</time>
      </trkpt>
      <trkpt lat="46.02551" lon="3.26085">
        <ele>327.8</ele>
        <time>2024-04-14T08:29:02Z</time>
      </trkpt>
      <trkpt lat="46.0255" lon="3.26075">
        <ele>327.8</ele>
        <time>2024-04-14T08:29:03Z</time>
      </trkpt>
      <trkpt lat="46.02548" lon="3.26066">
        <ele>327.6</ele>
        <time>2024-04-14T08:29:04Z</time>
      </trkpt>
      <trkpt lat="46.02547" lon="3.26057">
        <ele>327.8</ele>
        <time>2024-04-14T08:29:05Z</time>
      </trkpt>
      <trkpt lat="46.02546" lon="3.26048">
        <ele>327.8</ele>
        <time>2024-04-14T08:29:06Z</time>
      </trkpt>
      <trkpt lat="46.02544" lon="3.26039">
        <ele>327.6</ele>
        <time>2024-04-14T08:29:07Z</time>
      </trkpt>
      <trkpt lat="46.02543" lon="3.2603">
        <ele>327.6</ele>
        <time>2024-04-14T08:29:08Z</time>
      </trkpt>
      <trkpt lat="46.02541" lon="3.26021">
        <ele>327.6</ele>
        <time>2024-04-14T08:29:09Z</time>
      </trkpt>
      <trkpt lat="46.02538" lon="3.26013">
        <ele>327.8</ele>
        <time>2024-04-14T08:29:10Z</time>
      </trkpt>
      <trkpt lat="46.02536" lon="3.26004">
        <ele>327.8</ele>
        <time>2024-04-14T08:29:11Z</time>
      </trkpt>
      <trkpt lat="46.02533" lon="3.25996">
        <ele>327.8</ele>
        <time>2024-04-14T08:29:12Z</time>
      </trkpt>
      <trkpt lat="46.02531" lon="3.25988">
        <ele>327.8</ele>
        <time>2024-04-14T08:29:13Z</time>
      </trkpt>
      <trkpt lat="46.02528" lon="3.25979">
        <ele>327.8</ele>
        <time>2024-04-14T08:29:14Z</time>
      </trkpt>
      <trkpt lat="46.02526" lon="3.2597">
        <ele>327.6</ele>
        <time>2024-04-14T08:29:15Z</time>
      </trkpt>
      <trkpt lat="46.02524" lon="3.25961">
        <ele>327.6</ele>
        <time>2024-04-14T08:29:16Z</time>
      </trkpt>
      <trkpt lat="46.02522" lon="3.25952">
        <ele>327.6</ele>
        <time>2024-04-14T08:29:17Z</time>
      </trkpt>
      <trkpt lat="46.0252" lon="3.25944">
        <ele>327.6</ele>
        <time>2024-04-14T08:29:18Z</time>
      </trkpt>
      <trkpt lat="46.02519" lon="3.25935">
        <ele>327.8</ele>
        <time>2024-04-14T08:29:19Z</time>
      </trkpt>
      <trkpt lat="46.0252" lon="3.25926">
        <ele>327.6</ele>
        <time>2024-04-14T08:29:20Z</time>
      </trkpt>
      <trkpt lat="46.02521" lon="3.25917">
        <ele>327.6</ele>
        <time>2024-04-14T08:29:21Z</time>
      </trkpt>
      <trkpt lat="46.02522" lon="3.25908">
        <ele>327.6</ele>
        <time>2024-04-14T08:29:22Z</time>
      </trkpt>
      <trkpt lat="46.02523" lon="3.25899">
        <ele>327.6</ele>
        <time>2024-04-14T08:29:23Z</time>
      </trkpt>
      <trkpt lat="46.02524" lon="3.25891">
        <ele>327.6</ele>
        <time>2024-04-14T08:29:24Z</time>
      </trkpt>
      <trkpt lat="46.02525" lon="3.25882">
        <ele>327.6</ele>
        <time>2024-04-14T08:29:25Z</time>
      </trkpt>
      <trkpt lat="46.02526" lon="3.25874">
        <ele>327.6</ele>
        <time>2024-04-14T08:29:26Z</time>
      </trkpt>
      <trkpt lat="46.02527" lon="3.25865">
        <ele>327.6</ele>
        <time>2024-04-14T08:29:27Z</time>
      </trkpt>
      <trkpt lat="46.02529" lon="3.25857">
        <ele>327.4</ele>
        <time>2024-04-14T08:29:28Z</time>
      </trkpt>
      <trkpt lat="46.02531" lon="3.25849">
        <ele>327.4</ele>
        <time>2024-04-14T08:29:29Z</time>
      </trkpt>
      <trkpt lat="46.02534" lon="3.25841">
        <ele>327.4</ele>
        <time>2024-04-14T08:29:30Z</time>
      </trkpt>
      <trkpt lat="46.02536" lon="3.25833">
        <ele>327.4</ele>
        <time>2024-04-14T08:29:31Z</time>
      </trkpt>
      <trkpt lat="46.02539" lon="3.25826">
        <ele>327.4</ele>
        <time>2024-04-14T08:29:32Z</time>
      </trkpt>
      <trkpt lat="46.02541" lon="3.25817">
        <ele>327.4</ele>
        <time>2024-04-14T08:29:33Z</time>
      </trkpt>
      <trkpt lat="46.02544" lon="3.25809">
        <ele>327.4</ele>
        <time>2024-04-14T08:29:34Z</time>
      </trkpt>
      <trkpt lat="46.02546" lon="3.25801">
        <ele>327.4</ele>
        <time>2024-04-14T08:29:35Z</time>
      </trkpt>
      <trkpt lat="46.02549" lon="3.25793">
        <ele>327.4</ele>
        <time>2024-04-14T08:29:36Z</time>
      </trkpt>
      <trkpt lat="46.02551" lon="3.25784">
        <ele>327.4</ele>
        <time>2024-04-14T08:29:37Z</time>
      </trkpt>
      <trkpt lat="46.02554" lon="3.25776">
        <ele>327.6</ele>
        <time>2024-04-14T08:29:38Z</time>
      </trkpt>
      <trkpt lat="46.02556" lon="3.25767">
        <ele>327.4</ele>
        <time>2024-04-14T08:29:39Z</time>
      </trkpt>
      <trkpt lat="46.02559" lon="3.25759">
        <ele>327.8</ele>
        <time>2024-04-14T08:29:40Z</time>
      </trkpt>
      <trkpt lat="46.02562" lon="3.2575">
        <ele>327.6</ele>
        <time>2024-04-14T08:29:41Z</time>
      </trkpt>
      <trkpt lat="46.02564" lon="3.25743">
        <ele>327.6</ele>
        <time>2024-04-14T08:29:42Z</time>
      </trkpt>
      <trkpt lat="46.02567" lon="3.25734">
        <ele>327.6</ele>
        <time>2024-04-14T08:29:43Z</time>
      </trkpt>
      <trkpt lat="46.02569" lon="3.25726">
        <ele>327.8</ele>
        <time>2024-04-14T08:29:44Z</time>
      </trkpt>
      <trkpt lat="46.02572" lon="3.25718">
        <ele>327.8</ele>
        <time>2024-04-14T08:29:45Z</time>
      </trkpt>
      <trkpt lat="46.02574" lon="3.2571">
        <ele>327.8</ele>
        <time>2024-04-14T08:29:46Z</time>
      </trkpt>
      <trkpt lat="46.02577" lon="3.25702">
        <ele>327.8</ele>
        <time>2024-04-14T08:29:47Z</time>
      </trkpt>
      <trkpt lat="46.0258" lon="3.25694">
        <ele>327.8</ele>
        <time>2024-04-14T08:29:48Z</time>
      </trkpt>
      <trkpt lat="46.02583" lon="3.25686">
        <ele>327.8</ele>
        <time>2024-04-14T08:29:49Z</time>
      </trkpt>
      <trkpt lat="46.02585" lon="3.25678">
        <ele>327.8</ele>
        <time>2024-04-14T08:29:50Z</time>
      </trkpt>
      <trkpt lat="46.02588" lon="3.2567">
        <ele>327.8</ele>
        <time>2024-04-14T08:29:51Z</time>
      </trkpt>
      <trkpt lat="46.02591" lon="3.25662">
        <ele>327.8</ele>
        <time>2024-04-14T08:29:52Z</time>
      </trkpt>
      <trkpt lat="46.02594" lon="3.25654">
        <ele>328</ele>
        <time>2024-04-14T08:29:53Z</time>
      </trkpt>
      <trkpt lat="46.02596" lon="3.25646">
        <ele>328</ele>
        <time>2024-04-14T08:29:54Z</time>
      </trkpt>
      <trkpt lat="46.02599" lon="3.25638">
        <ele>328</ele>
        <time>2024-04-14T08:29:55Z</time>
      </trkpt>
      <trkpt lat="46.02602" lon="3.2563">
        <ele>328</ele>
        <time>2024-04-14T08:29:56Z</time>
      </trkpt>
      <trkpt lat="46.02605" lon="3.25622">
        <ele>328</ele>
        <time>2024-04-14T08:29:57Z</time>
      </trkpt>
      <trkpt lat="46.02608" lon="3.25614">
        <ele>328.2</ele>
        <time>2024-04-14T08:29:58Z</time>
      </trkpt>
      <trkpt lat="46.02611" lon="3.25607">
        <ele>328.2</ele>
        <time>2024-04-14T08:29:59Z</time>
      </trkpt>
      <trkpt lat="46.02614" lon="3.25599">
        <ele>328.2</ele>
        <time>2024-04-14T08:30:00Z</time>
      </trkpt>
      <trkpt lat="46.02617" lon="3.25591">
        <ele>328.2</ele>
        <time>2024-04-14T08:30:01Z</time>
      </trkpt>
      <trkpt lat="46.0262" lon="3.25584">
        <ele>328.4</ele>
        <time>2024-04-14T08:30:02Z</time>
      </trkpt>
      <trkpt lat="46.02623" lon="3.25576">
        <ele>328.4</ele>
        <time>2024-04-14T08:30:03Z</time>
      </trkpt>
      <trkpt lat="46.02626" lon="3.25568">
        <ele>328.4</ele>
        <time>2024-04-14T08:30:04Z</time>
      </trkpt>
      <trkpt lat="46.02628" lon="3.25561">
        <ele>328.4</ele>
        <time>2024-04-14T08:30:05Z</time>
      </trkpt>
      <trkpt lat="46.02631" lon="3.25554">
        <ele>328.4</ele>
        <time>2024-04-14T08:30:06Z</time>
      </trkpt>
      <trkpt lat="46.02634" lon="3.25546">
        <ele>328.6</ele>
        <time>2024-04-14T08:30:07Z</time>
      </trkpt>
      <trkpt lat="46.02637" lon="3.25538">
        <ele>328.6</ele>
        <time>2024-04-14T08:30:08Z</time>
      </trkpt>
      <trkpt lat="46.0264" lon="3.25531">
        <ele>328.6</ele>
        <time>2024-04-14T08:30:09Z</time>
      </trkpt>
      <trkpt lat="46.02643" lon="3.25523">
        <ele>328.6</ele>
        <time>2024-04-14T08:30:10Z</time>
      </trkpt>
      <trkpt lat="46.02645" lon="3.25516">
        <ele>328.8</ele>
        <time>2024-04-14T08:30:11Z</time>
      </trkpt>
      <trkpt lat="46.02648" lon="3.25508">
        <ele>328.8</ele>
        <time>2024-04-14T08:30:12Z</time>
      </trkpt>
      <trkpt lat="46.02651" lon="3.25501">
        <ele>328.8</ele>
        <time>2024-04-14T08:30:13Z</time>
      </trkpt>
      <trkpt lat="46.02653" lon="3.25493">
        <ele>329</ele>
        <time>2024-04-14T08:30:14Z</time>
      </trkpt>
      <trkpt lat="46.02656" lon="3.25486">
        <ele>329</ele>
        <time>2024-04-14T08:30:15Z</time>
      </trkpt>
      <trkpt lat="46.02658" lon="3.25478">
        <ele>329.2</ele>
        <time>2024-04-14T08:30:16Z</time>
      </trkpt>
      <trkpt lat="46.02661" lon="3.25471">
        <ele>329.2</ele>
        <time>2024-04-14T08:30:17Z</time>
      </trkpt>
      <trkpt lat="46.02663" lon="3.25464">
        <ele>329.2</ele>
        <time>2024-04-14T08:30:18Z</time>
      </trkpt>
      <trkpt lat="46.02665" lon="3.25456">
        <ele>329.4</ele>
        <time>2024-04-14T08:30:19Z</time>
      </trkpt>
      <trkpt lat="46.02668" lon="3.25448">
        <ele>329.4</ele>
        <time>2024-04-14T08:30:20Z</time>
      </trkpt>
      <trkpt lat="46.0267" lon="3.25441">
        <ele>329.4</ele>
        <time>2024-04-14T08:30:21Z</time>
      </trkpt>
      <trkpt lat="46.02672" lon="3.25433">
        <ele>329.6</ele>
        <time>2024-04-14T08:30:22Z</time>
      </trkpt>
      <trkpt lat="46.02675" lon="3.25426">
        <ele>329.6</ele>
        <time>2024-04-14T08:30:23Z</time>
      </trkpt>
      <trkpt lat="46.02677" lon="3.25418">
        <ele>329.8</ele>
        <time>2024-04-14T08:30:24Z</time>
      </trkpt>
      <trkpt lat="46.02679" lon="3.2541">
        <ele>329.8</ele>
        <time>2024-04-14T08:30:25Z</time>
      </trkpt>
      <trkpt lat="46.02682" lon="3.25403">
        <ele>330</ele>
        <time>2024-04-14T08:30:26Z</time>
      </trkpt>
      <trkpt lat="46.02684" lon="3.25395">
        <ele>330.2</ele>
        <time>2024-04-14T08:30:27Z</time>
      </trkpt>
      <trkpt lat="46.02686" lon="3.25388">
        <ele>330.2</ele>
        <time>2024-04-14T08:30:28Z</time>
      </trkpt>
      <trkpt lat="46.02688" lon="3.2538">
        <ele>330.4</ele>
        <time>2024-04-14T08:30:29Z</time>
      </trkpt>
      <trkpt lat="46.0269" lon="3.25373">
        <ele>330.4</ele>
        <time>2024-04-14T08:30:30Z</time>
      </trkpt>
      <trkpt lat="46.02693" lon="3.25366">
        <ele>330.6</ele>
        <time>2024-04-14T08:30:31Z</time>
      </trkpt>
      <trkpt lat="46.02695" lon="3.25358">
        <ele>330.6</ele>
        <time>2024-04-14T08:30:32Z</time>
      </trkpt>
      <trkpt lat="46.02697" lon="3.25351">
        <ele>330.8</ele>
        <time>2024-04-14T08:30:33Z</time>
      </trkpt>
      <trkpt lat="46.02699" lon="3.25344">
        <ele>331</ele>
        <time>2024-04-14T08:30:34Z</time>
      </trkpt>
      <trkpt lat="46.02701" lon="3.25336">
        <ele>331</ele>
        <time>2024-04-14T08:30:35Z</time>
      </trkpt>
      <trkpt lat="46.02703" lon="3.25329">
        <ele>331.2</ele>
        <time>2024-04-14T08:30:36Z</time>
      </trkpt>
      <trkpt lat="46.02706" lon="3.25321">
        <ele>331.2</ele>
        <time>2024-04-14T08:30:37Z</time>
      </trkpt>
      <trkpt lat="46.02708" lon="3.25314">
        <ele>331.4</ele>
        <time>2024-04-14T08:30:38Z</time>
      </trkpt>
      <trkpt lat="46.0271" lon="3.25307">
        <ele>331.6</ele>
        <time>2024-04-14T08:30:39Z</time>
      </trkpt>
      <trkpt lat="46.02712" lon="3.25299">
        <ele>331.6</ele>
        <time>2024-04-14T08:30:40Z</time>
      </trkpt>
      <trkpt lat="46.02714" lon="3.25292">
        <ele>331.8</ele>
        <time>2024-04-14T08:30:41Z</time>
      </trkpt>
      <trkpt lat="46.02716" lon="3.25285">
        <ele>331.8</ele>
        <time>2024-04-14T08:30:42Z</time>
      </trkpt>
      <trkpt lat="46.02718" lon="3.25278">
        <ele>332</ele>
        <time>2024-04-14T08:30:43Z</time>
      </trkpt>
      <trkpt lat="46.0272" lon="3.25271">
        <ele>332.2</ele>
        <time>2024-04-14T08:30:44Z</time>
      </trkpt>
      <trkpt lat="46.02722" lon="3.25264">
        <ele>332.4</ele>
        <time>2024-04-14T08:30:45Z</time>
      </trkpt>
      <trkpt lat="46.02725" lon="3.25256">
        <ele>332.4</ele>
        <time>2024-04-14T08:30:46Z</time>
      </trkpt>
      <trkpt lat="46.02727" lon="3.25248">
        <ele>332.6</ele>
        <time>2024-04-14T08:30:47Z</time>
      </trkpt>
      <trkpt lat="46.02729" lon="3.25241">
        <ele>332.6</ele>
        <time>2024-04-14T08:30:48Z</time>
      </trkpt>
      <trkpt lat="46.02731" lon="3.25234">
        <ele>332.8</ele>
        <time>2024-04-14T08:30:49Z</time>
      </trkpt>
      <trkpt lat="46.02733" lon="3.25227">
        <ele>332.8</ele>
        <time>2024-04-14T08:30:50Z</time>
      </trkpt>
      <trkpt lat="46.02735" lon="3.2522">
        <ele>333</ele>
        <time>2024-04-14T08:30:51Z</time>
      </trkpt>
      <trkpt lat="46.02737" lon="3.25213">
        <ele>333.2</ele>
        <time>2024-04-14T08:30:52Z</time>
      </trkpt>
      <trkpt lat="46.02739" lon="3.25205">
        <ele>333.4</ele>
        <time>2024-04-14T08:30:53Z</time>
      </trkpt>
      <trkpt lat="46.02742" lon="3.25198">
        <ele>333.4</ele>
        <time>2024-04-14T08:30:54Z</time>
      </trkpt>
      <trkpt lat="46.02744" lon="3.25191">
        <ele>333.6</ele>
        <time>2024-04-14T08:30:55Z</time>
      </trkpt>
      <trkpt lat="46.02746" lon="3.25184">
        <ele>333.6</ele>
        <time>2024-04-14T08:30:56Z</time>
      </trkpt>
      <trkpt lat="46.02748" lon="3.25177">
        <ele>333.8</ele>
        <time>2024-04-14T08:30:57Z</time>
      </trkpt>
      <trkpt lat="46.0275" lon="3.2517">
        <ele>334</ele>
        <time>2024-04-14T08:30:58Z</time>
      </trkpt>
      <trkpt lat="46.02752" lon="3.25163">
        <ele>334.2</ele>
        <time>2024-04-14T08:30:59Z</time>
      </trkpt>
      <trkpt lat="46.02754" lon="3.25156">
        <ele>334.2</ele>
        <time>2024-04-14T08:31:00Z</time>
      </trkpt>
      <trkpt lat="46.02756" lon="3.25149">
        <ele>334.4</ele>
        <time>2024-04-14T08:31:01Z</time>
      </trkpt>
      <trkpt lat="46.02758" lon="3.25142">
        <ele>334.6</ele>
        <time>2024-04-14T08:31:02Z</time>
      </trkpt>
      <trkpt lat="46.02761" lon="3.25135">
        <ele>334.8</ele>
        <time>2024-04-14T08:31:03Z</time>
      </trkpt>
      <trkpt lat="46.02763" lon="3.25128">
        <ele>334.8</ele>
        <time>2024-04-14T08:31:04Z</time>
      </trkpt>
      <trkpt lat="46.02765" lon="3.25121">
        <ele>335</ele>
        <time>2024-04-14T08:31:05Z</time>
      </trkpt>
      <trkpt lat="46.02767" lon="3.25113">
        <ele>335.2</ele>
        <time>2024-04-14T08:31:06Z</time>
      </trkpt>
      <trkpt lat="46.0277" lon="3.25106">
        <ele>335.2</ele>
        <time>2024-04-14T08:31:07Z</time>
      </trkpt>
      <trkpt lat="46.02772" lon="3.25099">
        <ele>335.4</ele>
        <time>2024-04-14T08:31:08Z</time>
      </trkpt>
      <trkpt lat="46.02774" lon="3.25091">
        <ele>335.6</ele>
        <time>2024-04-14T08:31:09Z</time>
      </trkpt>
      <trkpt lat="46.02776" lon="3.25084">
        <ele>335.6</ele>
        <time>2024-04-14T08:31:10Z</time>
      </trkpt>
      <trkpt lat="46.02779" lon="3.25076">
        <ele>335.8</ele>
        <time>2024-04-14T08:31:11Z</time>
      </trkpt>
      <trkpt lat="46.02781" lon="3.25068">
        <ele>335.8</ele>
        <time>2024-04-14T08:31:12Z</time>
      </trkpt>
      <trkpt lat="46.02783" lon="3.25061">
        <ele>335.8</ele>
        <time>2024-04-14T08:31:13Z</time>
      </trkpt>
      <trkpt lat="46.02785" lon="3.25053">
        <ele>336.2</ele>
        <time>2024-04-14T08:31:14Z</time>
      </trkpt>
      <trkpt lat="46.02788" lon="3.25046">
        <ele>336.4</ele>
        <time>2024-04-14T08:31:15Z</time>
      </trkpt>
      <trkpt lat="46.0279" lon="3.25038">
        <ele>336.4</ele>
        <time>2024-04-14T08:31:16Z</time>
      </trkpt>
      <trkpt lat="46.02792" lon="3.2503">
        <ele>336.6</ele>
        <time>2024-04-14T08:31:17Z</time>
      </trkpt>
      <trkpt lat="46.02794" lon="3.25023">
        <ele>336.8</ele>
        <time>2024-04-14T08:31:18Z</time>
      </trkpt>
      <trkpt lat="46.02797" lon="3.25015">
        <ele>336.8</ele>
        <time>2024-04-14T08:31:19Z</time>
      </trkpt>
      <trkpt lat="46.02799" lon="3.25007">
        <ele>337</ele>
        <time>2024-04-14T08:31:20Z</time>
      </trkpt>
      <trkpt lat="46.02801" lon="3.24999">
        <ele>337</ele>
        <time>2024-04-14T08:31:21Z</time>
      </trkpt>
      <trkpt lat="46.02804" lon="3.24991">
        <ele>337.2</ele>
        <time>2024-04-14T08:31:22Z</time>
      </trkpt>
      <trkpt lat="46.02806" lon="3.24982">
        <ele>337.2</ele>
        <time>2024-04-14T08:31:23Z</time>
      </trkpt>
      <trkpt lat="46.02809" lon="3.24974">
        <ele>337.4</ele>
        <time>2024-04-14T08:31:24Z</time>
      </trkpt>
      <trkpt lat="46.02811" lon="3.24966">
        <ele>337.6</ele>
        <time>2024-04-14T08:31:25Z</time>
      </trkpt>
      <trkpt lat="46.02813" lon="3.24958">
        <ele>337.6</ele>
        <time>2024-04-14T08:31:26Z</time>
      </trkpt>
      <trkpt lat="46.02816" lon="3.2495">
        <ele>337.8</ele>
        <time>2024-04-14T08:31:27Z</time>
      </trkpt>
      <trkpt lat="46.02818" lon="3.24941">
        <ele>337.8</ele>
        <time>2024-04-14T08:31:28Z</time>
      </trkpt>
      <trkpt lat="46.02821" lon="3.24933">
        <ele>337.8</ele>
        <time>2024-04-14T08:31:29Z</time>
      </trkpt>
      <trkpt lat="46.02823" lon="3.24925">
        <ele>338</ele>
        <time>2024-04-14T08:31:30Z</time>
      </trkpt>
      <trkpt lat="46.02826" lon="3.24917">
        <ele>338</ele>
        <time>2024-04-14T08:31:31Z</time>
      </trkpt>
      <trkpt lat="46.02828" lon="3.2491">
        <ele>338.2</ele>
        <time>2024-04-14T08:31:32Z</time>
      </trkpt>
      <trkpt lat="46.0283" lon="3.24902">
        <ele>338.4</ele>
        <time>2024-04-14T08:31:33Z</time>
      </trkpt>
      <trkpt lat="46.02832" lon="3.24894">
        <ele>338.4</ele>
        <time>2024-04-14T08:31:34Z</time>
      </trkpt>
      <trkpt lat="46.02835" lon="3.24887">
        <ele>338.6</ele>
        <time>2024-04-14T08:31:35Z</time>
      </trkpt>
      <trkpt lat="46.02837" lon="3.24879">
        <ele>338.8</ele>
        <time>2024-04-14T08:31:36Z</time>
      </trkpt>
      <trkpt lat="46.0284" lon="3.24872">
        <ele>339</ele>
        <time>2024-04-14T08:31:37Z</time>
      </trkpt>
      <trkpt lat="46.02843" lon="3.24866">
        <ele>339</ele>
        <time>2024-04-14T08:31:38Z</time>
      </trkpt>
      <trkpt lat="46.02846" lon="3.24859">
        <ele>339</ele>
        <time>2024-04-14T08:31:39Z</time>
      </trkpt>
      <trkpt lat="46.02849" lon="3.24853">
        <ele>339.4</ele>
        <time>2024-04-14T08:31:40Z</time>
      </trkpt>
      <trkpt lat="46.02852" lon="3.24847">
        <ele>339.4</ele>
        <time>2024-04-14T08:31:41Z</time>
      </trkpt>
      <trkpt lat="46.0286" lon="3.2484">
        <ele>339.6</ele>
        <time>2024-04-14T08:31:42Z</time>
      </trkpt>
      <trkpt lat="46.02866" lon="3.24842">
        <ele>339.6</ele>
        <time>2024-04-14T08:31:43Z</time>
      </trkpt>
      <trkpt lat="46.02872" lon="3.24843">
        <ele>339.8</ele>
        <time>2024-04-14T08:31:44Z</time>
      </trkpt>
      <trkpt lat="46.02879" lon="3.24845">
        <ele>339.8</ele>
        <time>2024-04-14T08:31:45Z</time>
      </trkpt>
      <trkpt lat="46.02885" lon="3.24847">
        <ele>339.8</ele>
        <time>2024-04-14T08:31:46Z</time>
      </trkpt>
      <trkpt lat="46.02892" lon="3.24848">
        <ele>340</ele>
        <time>2024-04-14T08:31:47Z</time>
      </trkpt>
      <trkpt lat="46.02898" lon="3.2485">
        <ele>340</ele>
        <time>2024-04-14T08:31:48Z</time>
      </trkpt>
      <trkpt lat="46.02905" lon="3.24852">
        <ele>340.2</ele>
        <time>2024-04-14T08:31:49Z</time>
      </trkpt>
      <trkpt lat="46.02911" lon="3.24853">
        <ele>340.2</ele>
        <time>2024-04-14T08:31:50Z</time>
      </trkpt>
      <trkpt lat="46.02918" lon="3.24855">
        <ele>340.2</ele>
        <time>2024-04-14T08:31:51Z</time>
      </trkpt>
      <trkpt lat="46.02925" lon="3.24857">
        <ele>340.4</ele>
        <time>2024-04-14T08:31:52Z</time>
      </trkpt>
      <trkpt lat="46.02931" lon="3.24858">
        <ele>340.4</ele>
        <time>2024-04-14T08:31:53Z</time>
      </trkpt>
      <trkpt lat="46.02938" lon="3.2486">
        <ele>340.6</ele>
        <time>2024-04-14T08:31:54Z</time>
      </trkpt>
      <trkpt lat="46.02945" lon="3.24862">
        <ele>340.6</ele>
        <time>2024-04-14T08:31:55Z</time>
      </trkpt>
      <trkpt lat="46.02951" lon="3.24863">
        <ele>340.6</ele>
        <time>2024-04-14T08:31:56Z</time>
      </trkpt>
      <trkpt lat="46.02958" lon="3.24865">
        <ele>340.8</ele>
        <time>2024-04-14T08:31:57Z</time>
      </trkpt>
      <trkpt lat="46.02965" lon="3.24867">
        <ele>340.8</ele>
        <time>2024-04-14T08:31:58Z</time>
      </trkpt>
      <trkpt lat="46.02972" lon="3.24868">
        <ele>341</ele>
        <time>2024-04-14T08:31:59Z</time>
      </trkpt>
      <trkpt lat="46.02979" lon="3.2487">
        <ele>341</ele>
        <time>2024-04-14T08:32:00Z</time>
      </trkpt>
      <trkpt lat="46.02985" lon="3.24872">
        <ele>341.2</ele>
        <time>2024-04-14T08:32:01Z</time>
      </trkpt>
      <trkpt lat="46.02992" lon="3.24874">
        <ele>341.2</ele>
        <time>2024-04-14T08:32:02Z</time>
      </trkpt>
      <trkpt lat="46.03" lon="3.24876">
        <ele>341.2</ele>
        <time>2024-04-14T08:32:03Z</time>
      </trkpt>
      <trkpt lat="46.03007" lon="3.24877">
        <ele>341.2</ele>
        <time>2024-04-14T08:32:04Z</time>
      </trkpt>
      <trkpt lat="46.03014" lon="3.24879">
        <ele>341.4</ele>
        <time>2024-04-14T08:32:05Z</time>
      </trkpt>
      <trkpt lat="46.03021" lon="3.24881">
        <ele>341.4</ele>
        <time>2024-04-14T08:32:06Z</time>
      </trkpt>
      <trkpt lat="46.03029" lon="3.24883">
        <ele>341.6</ele>
        <time>2024-04-14T08:32:07Z</time>
      </trkpt>
      <trkpt lat="46.03036" lon="3.24885">
        <ele>341.6</ele>
        <time>2024-04-14T08:32:08Z</time>
      </trkpt>
      <trkpt lat="46.03043" lon="3.24886">
        <ele>341.6</ele>
        <time>2024-04-14T08:32:09Z</time>
      </trkpt>
      <trkpt lat="46.0305" lon="3.24888">
        <ele>341.8</ele>
        <time>2024-04-14T08:32:10Z</time>
      </trkpt>
      <trkpt lat="46.03058" lon="3.2489">
        <ele>341.8</ele>
        <time>2024-04-14T08:32:11Z</time>
      </trkpt>
      <trkpt lat="46.03066" lon="3.24892">
        <ele>341.8</ele>
        <time>2024-04-14T08:32:12Z</time>
      </trkpt>
      <trkpt lat="46.03073" lon="3.24894">
        <ele>342</ele>
        <time>2024-04-14T08:32:13Z</time>
      </trkpt>
      <trkpt lat="46.0308" lon="3.24896">
        <ele>342</ele>
        <time>2024-04-14T08:32:14Z</time>
      </trkpt>
      <trkpt lat="46.03088" lon="3.24898">
        <ele>342</ele>
        <time>2024-04-14T08:32:15Z</time>
      </trkpt>
      <trkpt lat="46.03096" lon="3.249">
        <ele>342.2</ele>
        <time>2024-04-14T08:32:16Z</time>
      </trkpt>
      <trkpt lat="46.03103" lon="3.24902">
        <ele>342.2</ele>
        <time>2024-04-14T08:32:17Z</time>
      </trkpt>
      <trkpt lat="46.03111" lon="3.24905">
        <ele>342.2</ele>
        <time>2024-04-14T08:32:18Z</time>
      </trkpt>
      <trkpt lat="46.03119" lon="3.24907">
        <ele>342.2</ele>
        <time>2024-04-14T08:32:19Z</time>
      </trkpt>
      <trkpt lat="46.03126" lon="3.2491">
        <ele>342.2</ele>
        <time>2024-04-14T08:32:20Z</time>
      </trkpt>
      <trkpt lat="46.03134" lon="3.24912">
        <ele>342.4</ele>
        <time>2024-04-14T08:32:21Z</time>
      </trkpt>
      <trkpt lat="46.03142" lon="3.24915">
        <ele>342.4</ele>
        <time>2024-04-14T08:32:22Z</time>
      </trkpt>
      <trkpt lat="46.03149" lon="3.24917">
        <ele>342.4</ele>
        <time>2024-04-14T08:32:23Z</time>
      </trkpt>
      <trkpt lat="46.03157" lon="3.24919">
        <ele>342.4</ele>
        <time>2024-04-14T08:32:24Z</time>
      </trkpt>
      <trkpt lat="46.03165" lon="3.24922">
        <ele>342.4</ele>
        <time>2024-04-14T08:32:25Z</time>
      </trkpt>
      <trkpt lat="46.03173" lon="3.24925">
        <ele>342.4</ele>
        <time>2024-04-14T08:32:26Z</time>
      </trkpt>
      <trkpt lat="46.03181" lon="3.24927">
        <ele>342.6</ele>
        <time>2024-04-14T08:32:27Z</time>
      </trkpt>
      <trkpt lat="46.03189" lon="3.2493">
        <ele>342.4</ele>
        <time>2024-04-14T08:32:28Z</time>
      </trkpt>
      <trkpt lat="46.03197" lon="3.24932">
        <ele>342.6</ele>
        <time>2024-04-14T08:32:29Z</time>
      </trkpt>
      <trkpt lat="46.03206" lon="3.24935">
        <ele>342.6</ele>
        <time>2024-04-14T08:32:30Z</time>
      </trkpt>
      <trkpt lat="46.03214" lon="3.24937">
        <ele>342.6</ele>
        <time>2024-04-14T08:32:31Z</time>
      </trkpt>
      <trkpt lat="46.03222" lon="3.2494">
        <ele>342.6</ele>
        <time>2024-04-14T08:32:32Z</time>
      </trkpt>
      <trkpt lat="46.0323" lon="3.24943">
        <ele>342.6</ele>
        <time>2024-04-14T08:32:33Z</time>
      </trkpt>
      <trkpt lat="46.03238" lon="3.24945">
        <ele>342.6</ele>
        <time>2024-04-14T08:32:34Z</time>
      </trkpt>
      <trkpt lat="46.03247" lon="3.24948">
        <ele>342.6</ele>
        <time>2024-04-14T08:32:35Z</time>
      </trkpt>
      <trkpt lat="46.03255" lon="3.2495">
        <ele>342.6</ele>
        <time>2024-04-14T08:32:36Z</time>
      </trkpt>
      <trkpt lat="46.03263" lon="3.24953">
        <ele>342.6</ele>
        <time>2024-04-14T08:32:37Z</time>
      </trkpt>
      <trkpt lat="46.03271" lon="3.24958">
        <ele>342.6</ele>
        <time>2024-04-14T08:32:38Z</time>
      </trkpt>
      <trkpt lat="46.03278" lon="3.24963">
        <ele>342.6</ele>
        <time>2024-04-14T08:32:39Z</time>
      </trkpt>
      <trkpt lat="46.03286" lon="3.24969">
        <ele>342.6</ele>
        <time>2024-04-14T08:32:40Z</time>
      </trkpt>
      <trkpt lat="46.03294" lon="3.24974">
        <ele>342.6</ele>
        <time>2024-04-14T08:32:41Z</time>
      </trkpt>
      <trkpt lat="46.03302" lon="3.24979">
        <ele>342.4</ele>
        <time>2024-04-14T08:32:42Z</time>
      </trkpt>
      <trkpt lat="46.03309" lon="3.24985">
        <ele>342.8</ele>
        <time>2024-04-14T08:32:43Z</time>
      </trkpt>
      <trkpt lat="46.03317" lon="3.2499">
        <ele>342.4</ele>
        <time>2024-04-14T08:32:44Z</time>
      </trkpt>
      <trkpt lat="46.03325" lon="3.24995">
        <ele>342.4</ele>
        <time>2024-04-14T08:32:45Z</time>
      </trkpt>
      <trkpt lat="46.03332" lon="3.25001">
        <ele>342.2</ele>
        <time>2024-04-14T08:32:46Z</time>
      </trkpt>
      <trkpt lat="46.0334" lon="3.25006">
        <ele>342.2</ele>
        <time>2024-04-14T08:32:47Z</time>
      </trkpt>
      <trkpt lat="46.03347" lon="3.25011">
        <ele>342.2</ele>
        <time>2024-04-14T08:32:48Z</time>
      </trkpt>
      <trkpt lat="46.03355" lon="3.25016">
        <ele>342.2</ele>
        <time>2024-04-14T08:32:49Z</time>
      </trkpt>
      <trkpt lat="46.03362" lon="3.25021">
        <ele>342.2</ele>
        <time>2024-04-14T08:32:50Z</time>
      </trkpt>
      <trkpt lat="46.03369" lon="3.25026">
        <ele>342.2</ele>
        <time>2024-04-14T08:32:51Z</time>
      </trkpt>
      <trkpt lat="46.03377" lon="3.25031">
        <ele>342.2</ele>
        <time>2024-04-14T08:32:52Z</time>
      </trkpt>
      <trkpt lat="46.03384" lon="3.25036">
        <ele>342</ele>
        <time>2024-04-14T08:32:53Z</time>
      </trkpt>
      <trkpt lat="46.03392" lon="3.25041">
        <ele>342.2</ele>
        <time>2024-04-14T08:32:54Z</time>
      </trkpt>
      <trkpt lat="46.03399" lon="3.25046">
        <ele>342</ele>
        <time>2024-04-14T08:32:55Z</time>
      </trkpt>
      <trkpt lat="46.03406" lon="3.25051">
        <ele>342</ele>
        <time>2024-04-14T08:32:56Z</time>
      </trkpt>
      <trkpt lat="46.03413" lon="3.25055">
        <ele>342</ele>
        <time>2024-04-14T08:32:57Z</time>
      </trkpt>
      <trkpt lat="46.03421" lon="3.25059">
        <ele>341.8</ele>
        <time>2024-04-14T08:32:58Z</time>
      </trkpt>
      <trkpt lat="46.03428" lon="3.25063">
        <ele>341.8</ele>
        <time>2024-04-14T08:32:59Z</time>
      </trkpt>
      <trkpt lat="46.03435" lon="3.25067">
        <ele>341.8</ele>
        <time>2024-04-14T08:33:00Z</time>
      </trkpt>
      <trkpt lat="46.03442" lon="3.25071">
        <ele>341.8</ele>
        <time>2024-04-14T08:33:01Z</time>
      </trkpt>
      <trkpt lat="46.0345" lon="3.25075">
        <ele>341.8</ele>
        <time>2024-04-14T08:33:02Z</time>
      </trkpt>
      <trkpt lat="46.03457" lon="3.25079">
        <ele>341.6</ele>
        <time>2024-04-14T08:33:03Z</time>
      </trkpt>
      <trkpt lat="46.03464" lon="3.25083">
        <ele>341.6</ele>
        <time>2024-04-14T08:33:04Z</time>
      </trkpt>
      <trkpt lat="46.03471" lon="3.25087">
        <ele>341.6</ele>
        <time>2024-04-14T08:33:05Z</time>
      </trkpt>
      <trkpt lat="46.03478" lon="3.25091">
        <ele>341.6</ele>
        <time>2024-04-14T08:33:06Z</time>
      </trkpt>
      <trkpt lat="46.03485" lon="3.25095">
        <ele>341.6</ele>
        <time>2024-04-14T08:33:07Z</time>
      </trkpt>
      <trkpt lat="46.03492" lon="3.25099">
        <ele>341.4</ele>
        <time>2024-04-14T08:33:08Z</time>
      </trkpt>
      <trkpt lat="46.03499" lon="3.25103">
        <ele>341.4</ele>
        <time>2024-04-14T08:33:09Z</time>
      </trkpt>
      <trkpt lat="46.03507" lon="3.25107">
        <ele>341.4</ele>
        <time>2024-04-14T08:33:10Z</time>
      </trkpt>
      <trkpt lat="46.03514" lon="3.25111">
        <ele>341.2</ele>
        <time>2024-04-14T08:33:11Z</time>
      </trkpt>
      <trkpt lat="46.03521" lon="3.25115">
        <ele>341.2</ele>
        <time>2024-04-14T08:33:12Z</time>
      </trkpt>
      <trkpt lat="46.03528" lon="3.25119">
        <ele>341.2</ele>
        <time>2024-04-14T08:33:13Z</time>
      </trkpt>
      <trkpt lat="46.03536" lon="3.25123">
        <ele>341.2</ele>
        <time>2024-04-14T08:33:14Z</time>
      </trkpt>
      <trkpt lat="46.03543" lon="3.25127">
        <ele>341.2</ele>
        <time>2024-04-14T08:33:15Z</time>
      </trkpt>
      <trkpt lat="46.0355" lon="3.25131">
        <ele>341.2</ele>
        <time>2024-04-14T08:33:16Z</time>
      </trkpt>
      <trkpt lat="46.03557" lon="3.25135">
        <ele>341.2</ele>
        <time>2024-04-14T08:33:17Z</time>
      </trkpt>
      <trkpt lat="46.03564" lon="3.25139">
        <ele>341.2</ele>
        <time>2024-04-14T08:33:18Z</time>
      </trkpt>
      <trkpt lat="46.03571" lon="3.25143">
        <ele>341</ele>
        <time>2024-04-14T08:33:19Z</time>
      </trkpt>
      <trkpt lat="46.03578" lon="3.25147">
        <ele>341</ele>
        <time>2024-04-14T08:33:20Z</time>
      </trkpt>
      <trkpt lat="46.03585" lon="3.25151">
        <ele>341</ele>
        <time>2024-04-14T08:33:21Z</time>
      </trkpt>
      <trkpt lat="46.03592" lon="3.25155">
        <ele>341</ele>
        <time>2024-04-14T08:33:22Z</time>
      </trkpt>
      <trkpt lat="46.03599" lon="3.25159">
        <ele>341</ele>
        <time>2024-04-14T08:33:23Z</time>
      </trkpt>
      <trkpt lat="46.03606" lon="3.25163">
        <ele>341</ele>
        <time>2024-04-14T08:33:24Z</time>
      </trkpt>
      <trkpt lat="46.03614" lon="3.25167">
        <ele>341</ele>
        <time>2024-04-14T08:33:25Z</time>
      </trkpt>
      <trkpt lat="46.03621" lon="3.25171">
        <ele>340.8</ele>
        <time>2024-04-14T08:33:26Z</time>
      </trkpt>
      <trkpt lat="46.03628" lon="3.25175">
        <ele>340.8</ele>
        <time>2024-04-14T08:33:27Z</time>
      </trkpt>
      <trkpt lat="46.03635" lon="3.25178">
        <ele>340.8</ele>
        <time>2024-04-14T08:33:28Z</time>
      </trkpt>
      <trkpt lat="46.03642" lon="3.25182">
        <ele>340.8</ele>
        <time>2024-04-14T08:33:29Z</time>
      </trkpt>
      <trkpt lat="46.03648" lon="3.25186">
        <ele>340.8</ele>
        <time>2024-04-14T08:33:30Z</time>
      </trkpt>
      <trkpt lat="46.03655" lon="3.2519">
        <ele>340.6</ele>
        <time>2024-04-14T08:33:31Z</time>
      </trkpt>
      <trkpt lat="46.03662" lon="3.25194">
        <ele>340.6</ele>
        <time>2024-04-14T08:33:32Z</time>
      </trkpt>
      <trkpt lat="46.03669" lon="3.25198">
        <ele>340.6</ele>
        <time>2024-04-14T08:33:33Z</time>
      </trkpt>
      <trkpt lat="46.03676" lon="3.25202">
        <ele>340.6</ele>
        <time>2024-04-14T08:33:34Z</time>
      </trkpt>
      <trkpt lat="46.03682" lon="3.25206">
        <ele>340.6</ele>
        <time>2024-04-14T08:33:35Z</time>
      </trkpt>
      <trkpt lat="46.03689" lon="3.2521">
        <ele>340.6</ele>
        <time>2024-04-14T08:33:36Z</time>
      </trkpt>
      <trkpt lat="46.03696" lon="3.25214">
        <ele>340.6</ele>
        <time>2024-04-14T08:33:37Z</time>
      </trkpt>
      <trkpt lat="46.03702" lon="3.25218">
        <ele>340.6</ele>
        <time>2024-04-14T08:33:38Z</time>
      </trkpt>
      <trkpt lat="46.03709" lon="3.25221">
        <ele>340.6</ele>
        <time>2024-04-14T08:33:39Z</time>
      </trkpt>
      <trkpt lat="46.03715" lon="3.25225">
        <ele>340.6</ele>
        <time>2024-04-14T08:33:40Z</time>
      </trkpt>
      <trkpt lat="46.03722" lon="3.25229">
        <ele>340.6</ele>
        <time>2024-04-14T08:33:41Z</time>
      </trkpt>
      <trkpt lat="46.03728" lon="3.25233">
        <ele>340.6</ele>
        <time>2024-04-14T08:33:42Z</time>
      </trkpt>
      <trkpt lat="46.03735" lon="3.25237">
        <ele>340.6</ele>
        <time>2024-04-14T08:33:43Z</time>
      </trkpt>
      <trkpt lat="46.03742" lon="3.2524">
        <ele>340.6</ele>
        <time>2024-04-14T08:33:44Z</time>
      </trkpt>
      <trkpt lat="46.03748" lon="3.25244">
        <ele>340.6</ele>
        <time>2024-04-14T08:33:45Z</time>
      </trkpt>
      <trkpt lat="46.03754" lon="3.25248">
        <ele>340.6</ele>
        <time>2024-04-14T08:33:46Z</time>
      </trkpt>
      <trkpt lat="46.03761" lon="3.25251">
        <ele>340.6</ele>
        <time>2024-04-14T08:33:47Z</time>
      </trkpt>
      <trkpt lat="46.03767" lon="3.25255">
        <ele>340.6</ele>
        <time>2024-04-14T08:33:48Z</time>
      </trkpt>
      <trkpt lat="46.03774" lon="3.25259">
        <ele>340.6</ele>
        <time>2024-04-14T08:33:49Z</time>
      </trkpt>
      <trkpt lat="46.0378" lon="3.25262">
        <ele>340.6</ele>
        <time>2024-04-14T08:33:50Z</time>
      </trkpt>
      <trkpt lat="46.03786" lon="3.25266">
        <ele>340.6</ele>
        <time>2024-04-14T08:33:51Z</time>
      </trkpt>
      <trkpt lat="46.03792" lon="3.2527">
        <ele>340.4</ele>
        <time>2024-04-14T08:33:52Z</time>
      </trkpt>
      <trkpt lat="46.03798" lon="3.25273">
        <ele>340.6</ele>
        <time>2024-04-14T08:33:53Z</time>
      </trkpt>
      <trkpt lat="46.03804" lon="3.25277">
        <ele>340.6</ele>
        <time>2024-04-14T08:33:54Z</time>
      </trkpt>
      <trkpt lat="46.0381" lon="3.2528">
        <ele>340.6</ele>
        <time>2024-04-14T08:33:55Z</time>
      </trkpt>
      <trkpt lat="46.03816" lon="3.25283">
        <ele>340.8</ele>
        <time>2024-04-14T08:33:56Z</time>
      </trkpt>
      <trkpt lat="46.03822" lon="3.25287">
        <ele>340.8</ele>
        <time>2024-04-14T08:33:57Z</time>
      </trkpt>
      <trkpt lat="46.03828" lon="3.2529">
        <ele>340.8</ele>
        <time>2024-04-14T08:33:58Z</time>
      </trkpt>
      <trkpt lat="46.03834" lon="3.25294">
        <ele>340.8</ele>
        <time>2024-04-14T08:33:59Z</time>
      </trkpt>
      <trkpt lat="46.0384" lon="3.25297">
        <ele>340.8</ele>
        <time>2024-04-14T08:34:00Z</time>
      </trkpt>
      <trkpt lat="46.03846" lon="3.25301">
        <ele>340.8</ele>
        <time>2024-04-14T08:34:01Z</time>
      </trkpt>
      <trkpt lat="46.03852" lon="3.25304">
        <ele>340.8</ele>
        <time>2024-04-14T08:34:02Z</time>
      </trkpt>
      <trkpt lat="46.03857" lon="3.25307">
        <ele>340.8</ele>
        <time>2024-04-14T08:34:03Z</time>
      </trkpt>
      <trkpt lat="46.03863" lon="3.25311">
        <ele>340.8</ele>
        <time>2024-04-14T08:34:04Z</time>
      </trkpt>
      <trkpt lat="46.03869" lon="3.25314">
        <ele>341</ele>
        <time>2024-04-14T08:34:05Z</time>
      </trkpt>
      <trkpt lat="46.03875" lon="3.25317">
        <ele>341</ele>
        <time>2024-04-14T08:34:06Z</time>
      </trkpt>
      <trkpt lat="46.03881" lon="3.25321">
        <ele>341</ele>
        <time>2024-04-14T08:34:07Z</time>
      </trkpt>
      <trkpt lat="46.03886" lon="3.25324">
        <ele>341</ele>
        <time>2024-04-14T08:34:08Z</time>
      </trkpt>
      <trkpt lat="46.03892" lon="3.25328">
        <ele>341.2</ele>
        <time>2024-04-14T08:34:09Z</time>
      </trkpt>
      <trkpt lat="46.03898" lon="3.2533">
        <ele>341.2</ele>
        <time>2024-04-14T08:34:10Z</time>
      </trkpt>
      <trkpt lat="46.03905" lon="3.25333">
        <ele>341.2</ele>
        <time>2024-04-14T08:34:11Z</time>
      </trkpt>
      <trkpt lat="46.03911" lon="3.25335">
        <ele>341.4</ele>
        <time>2024-04-14T08:34:12Z</time>
      </trkpt>
      <trkpt lat="46.03917" lon="3.25338">
        <ele>341.4</ele>
        <time>2024-04-14T08:34:13Z</time>
      </trkpt>
      <trkpt lat="46.03923" lon="3.25341">
        <ele>341.4</ele>
        <time>2024-04-14T08:34:14Z</time>
      </trkpt>
      <trkpt lat="46.0393" lon="3.25343">
        <ele>341.4</ele>
        <time>2024-04-14T08:34:15Z</time>
      </trkpt>
      <trkpt lat="46.03936" lon="3.25346">
        <ele>341.6</ele>
        <time>2024-04-14T08:34:16Z</time>
      </trkpt>
      <trkpt lat="46.03942" lon="3.25348">
        <ele>341.6</ele>
        <time>2024-04-14T08:34:17Z</time>
      </trkpt>
      <trkpt lat="46.03948" lon="3.25351">
        <ele>341.6</ele>
        <time>2024-04-14T08:34:18Z</time>
      </trkpt>
      <trkpt lat="46.03954" lon="3.25353">
        <ele>341.6</ele>
        <time>2024-04-14T08:34:19Z</time>
      </trkpt>
      <trkpt lat="46.03961" lon="3.25356">
        <ele>341.6</ele>
        <time>2024-04-14T08:34:20Z</time>
      </trkpt>
      <trkpt lat="46.03967" lon="3.25358">
        <ele>341.8</ele>
        <time>2024-04-14T08:34:21Z</time>
      </trkpt>
      <trkpt lat="46.03973" lon="3.25361">
        <ele>341.8</ele>
        <time>2024-04-14T08:34:22Z</time>
      </trkpt>
      <trkpt lat="46.03979" lon="3.25363">
        <ele>342</ele>
        <time>2024-04-14T08:34:23Z</time>
      </trkpt>
      <trkpt lat="46.03985" lon="3.25366">
        <ele>342</ele>
        <time>2024-04-14T08:34:24Z</time>
      </trkpt>
      <trkpt lat="46.03991" lon="3.25369">
        <ele>342</ele>
        <time>2024-04-14T08:34:25Z</time>
      </trkpt>
      <trkpt lat="46.03997" lon="3.25371">
        <ele>342.2</ele>
        <time>2024-04-14T08:34:26Z</time>
      </trkpt>
      <trkpt lat="46.04003" lon="3.25374">
        <ele>342.2</ele>
        <time>2024-04-14T08:34:27Z</time>
      </trkpt>
      <trkpt lat="46.0401" lon="3.25376">
        <ele>342.4</ele>
        <time>2024-04-14T08:34:28Z</time>
      </trkpt>
      <trkpt lat="46.04016" lon="3.25379">
        <ele>342.4</ele>
        <time>2024-04-14T08:34:29Z</time>
      </trkpt>
      <trkpt lat="46.04023" lon="3.25382">
        <ele>342.4</ele>
        <time>2024-04-14T08:34:30Z</time>
      </trkpt>
      <trkpt lat="46.04029" lon="3.25384">
        <ele>342.6</ele>
        <time>2024-04-14T08:34:31Z</time>
      </trkpt>
      <trkpt lat="46.04035" lon="3.25387">
        <ele>342.6</ele>
        <time>2024-04-14T08:34:32Z</time>
      </trkpt>
      <trkpt lat="46.04042" lon="3.25389">
        <ele>342.8</ele>
        <time>2024-04-14T08:34:33Z</time>
      </trkpt>
      <trkpt lat="46.04048" lon="3.25392">
        <ele>342.8</ele>
        <time>2024-04-14T08:34:34Z</time>
      </trkpt>
      <trkpt lat="46.04054" lon="3.25394">
        <ele>343</ele>
        <time>2024-04-14T08:34:35Z</time>
      </trkpt>
      <trkpt lat="46.0406" lon="3.25396">
        <ele>343.2</ele>
        <time>2024-04-14T08:34:36Z</time>
      </trkpt>
      <trkpt lat="46.04067" lon="3.25399">
        <ele>343.2</ele>
        <time>2024-04-14T08:34:37Z</time>
      </trkpt>
      <trkpt lat="46.04073" lon="3.25401">
        <ele>343.4</ele>
        <time>2024-04-14T08:34:38Z</time>
      </trkpt>
      <trkpt lat="46.04079" lon="3.25404">
        <ele>343.6</ele>
        <time>2024-04-14T08:34:39Z</time>
      </trkpt>
      <trkpt lat="46.04086" lon="3.25406">
        <ele>343.6</ele>
        <time>2024-04-14T08:34:40Z</time>
      </trkpt>
      <trkpt lat="46.04092" lon="3.25409">
        <ele>343.8</ele>
        <time>2024-04-14T08:34:41Z</time>
      </trkpt>
      <trkpt lat="46.04099" lon="3.25412">
        <ele>343.8</ele>
        <time>2024-04-14T08:34:42Z</time>
      </trkpt>
      <trkpt lat="46.04105" lon="3.25414">
        <ele>343.8</ele>
        <time>2024-04-14T08:34:43Z</time>
      </trkpt>
      <trkpt lat="46.04111" lon="3.25416">
        <ele>344</ele>
        <time>2024-04-14T08:34:44Z</time>
      </trkpt>
      <trkpt lat="46.04117" lon="3.25419">
        <ele>344</ele>
        <time>2024-04-14T08:34:45Z</time>
      </trkpt>
      <trkpt lat="46.04124" lon="3.25421">
        <ele>344.2</ele>
        <time>2024-04-14T08:34:46Z</time>
      </trkpt>
      <trkpt lat="46.0413" lon="3.25424">
        <ele>344.2</ele>
        <time>2024-04-14T08:34:47Z</time>
      </trkpt>
      <trkpt lat="46.04136" lon="3.25426">
        <ele>344.2</ele>
        <time>2024-04-14T08:34:48Z</time>
      </trkpt>
      <trkpt lat="46.04141" lon="3.25428">
        <ele>344.2</ele>
        <time>2024-04-14T08:34:49Z</time>
      </trkpt>
      <trkpt lat="46.04148" lon="3.25431">
        <ele>344.2</ele>
        <time>2024-04-14T08:34:50Z</time>
      </trkpt>
      <trkpt lat="46.04154" lon="3.25434">
        <ele>344.2</ele>
        <time>2024-04-14T08:34:51Z</time>
      </trkpt>
      <trkpt lat="46.0416" lon="3.25436">
        <ele>344.2</ele>
        <time>2024-04-14T08:34:52Z</time>
      </trkpt>
      <trkpt lat="46.04167" lon="3.25438">
        <ele>344.4</ele>
        <time>2024-04-14T08:34:53Z</time>
      </trkpt>
      <trkpt lat="46.04173" lon="3.25441">
        <ele>344.4</ele>
        <time>2024-04-14T08:34:54Z</time>
      </trkpt>
      <trkpt lat="46.04179" lon="3.25445">
        <ele>344.4</ele>
        <time>2024-04-14T08:34:55Z</time>
      </trkpt>
      <trkpt lat="46.04185" lon="3.25451">
        <ele>344.6</ele>
        <time>2024-04-14T08:34:56Z</time>
      </trkpt>
      <trkpt lat="46.04189" lon="3.25457">
        <ele>344.6</ele>
        <time>2024-04-14T08:34:57Z</time>
      </trkpt>
      <trkpt lat="46.04194" lon="3.25464">
        <ele>344.8</ele>
        <time>2024-04-14T08:34:58Z</time>
      </trkpt>
      <trkpt lat="46.04199" lon="3.2547">
        <ele>344.8</ele>
        <time>2024-04-14T08:34:59Z</time>
      </trkpt>
      <trkpt lat="46.04203" lon="3.25477">
        <ele>345</ele>
        <time>2024-04-14T08:35:00Z</time>
      </trkpt>
      <trkpt lat="46.04208" lon="3.25483">
        <ele>345</ele>
        <time>2024-04-14T08:35:01Z</time>
      </trkpt>
      <trkpt lat="46.04213" lon="3.2549">
        <ele>345.2</ele>
        <time>2024-04-14T08:35:02Z</time>
      </trkpt>
      <trkpt lat="46.04217" lon="3.25496">
        <ele>345.2</ele>
        <time>2024-04-14T08:35:03Z</time>
      </trkpt>
      <trkpt lat="46.04222" lon="3.25503">
        <ele>345.4</ele>
        <time>2024-04-14T08:35:04Z</time>
      </trkpt>
      <trkpt lat="46.04227" lon="3.2551">
        <ele>345.4</ele>
        <time>2024-04-14T08:35:05Z</time>
      </trkpt>
      <trkpt lat="46.04232" lon="3.25516">
        <ele>345.4</ele>
        <time>2024-04-14T08:35:06Z</time>
      </trkpt>
      <trkpt lat="46.04237" lon="3.25523">
        <ele>345.6</ele>
        <time>2024-04-14T08:35:07Z</time>
      </trkpt>
      <trkpt lat="46.04241" lon="3.25529">
        <ele>345.6</ele>
        <time>2024-04-14T08:35:08Z</time>
      </trkpt>
      <trkpt lat="46.04246" lon="3.25536">
        <ele>345.6</ele>
        <time>2024-04-14T08:35:09Z</time>
      </trkpt>
      <trkpt lat="46.04251" lon="3.25543">
        <ele>345.8</ele>
        <time>2024-04-14T08:35:10Z</time>
      </trkpt>
      <trkpt lat="46.04256" lon="3.2555">
        <ele>345.8</ele>
        <time>2024-04-14T08:35:11Z</time>
      </trkpt>
      <trkpt lat="46.04261" lon="3.25557">
        <ele>345.8</ele>
        <time>2024-04-14T08:35:12Z</time>
      </trkpt>
      <trkpt lat="46.04266" lon="3.25564">
        <ele>346</ele>
        <time>2024-04-14T08:35:13Z</time>
      </trkpt>
      <trkpt lat="46.04271" lon="3.25571">
        <ele>345.8</ele>
        <time>2024-04-14T08:35:14Z</time>
      </trkpt>
      <trkpt lat="46.04276" lon="3.25578">
        <ele>346</ele>
        <time>2024-04-14T08:35:15Z</time>
      </trkpt>
      <trkpt lat="46.04281" lon="3.25585">
        <ele>346</ele>
        <time>2024-04-14T08:35:16Z</time>
      </trkpt>
      <trkpt lat="46.04286" lon="3.25592">
        <ele>346</ele>
        <time>2024-04-14T08:35:17Z</time>
      </trkpt>
      <trkpt lat="46.04291" lon="3.256">
        <ele>346</ele>
        <time>2024-04-14T08:35:18Z</time>
      </trkpt>
      <trkpt lat="46.04301" lon="3.25614">
        <ele>346</ele>
        <time>2024-04-14T08:35:19Z</time>
      </trkpt>
      <trkpt lat="46.04301" lon="3.25614">
        <ele>346</ele>
        <time>2024-04-14T08:35:20Z</time>
      </trkpt>
      <trkpt lat="46.04306" lon="3.25621">
        <ele>346.2</ele>
        <time>2024-04-14T08:35:21Z</time>
      </trkpt>
      <trkpt lat="46.04312" lon="3.25628">
        <ele>346.2</ele>
        <time>2024-04-14T08:35:22Z</time>
      </trkpt>
      <trkpt lat="46.04317" lon="3.25636">
        <ele>346.2</ele>
        <time>2024-04-14T08:35:23Z</time>
      </trkpt>
      <trkpt lat="46.04327" lon="3.25651">
        <ele>346.2</ele>
        <time>2024-04-14T08:35:24Z</time>
      </trkpt>
      <trkpt lat="46.04327" lon="3.25651">
        <ele>346.2</ele>
        <time>2024-04-14T08:35:25Z</time>
      </trkpt>
      <trkpt lat="46.04332" lon="3.25658">
        <ele>346.2</ele>
        <time>2024-04-14T08:35:26Z</time>
      </trkpt>
      <trkpt lat="46.04337" lon="3.25665">
        <ele>346.2</ele>
        <time>2024-04-14T08:35:27Z</time>
      </trkpt>
      <trkpt lat="46.04342" lon="3.25672">
        <ele>346.4</ele>
        <time>2024-04-14T08:35:28Z</time>
      </trkpt>
      <trkpt lat="46.04347" lon="3.25679">
        <ele>346.4</ele>
        <time>2024-04-14T08:35:29Z</time>
      </trkpt>
      <trkpt lat="46.04352" lon="3.25686">
        <ele>346.4</ele>
        <time>2024-04-14T08:35:30Z</time>
      </trkpt>
      <trkpt lat="46.04357" lon="3.25694">
        <ele>346.4</ele>
        <time>2024-04-14T08:35:31Z</time>
      </trkpt>
      <trkpt lat="46.04368" lon="3.25709">
        <ele>346.4</ele>
        <time>2024-04-14T08:35:32Z</time>
      </trkpt>
      <trkpt lat="46.04368" lon="3.25709">
        <ele>346.4</ele>
        <time>2024-04-14T08:35:33Z</time>
      </trkpt>
      <trkpt lat="46.04379" lon="3.25725">
        <ele>346.4</ele>
        <time>2024-04-14T08:35:34Z</time>
      </trkpt>
      <trkpt lat="46.04385" lon="3.25733">
        <ele>346.4</ele>
        <time>2024-04-14T08:35:35Z</time>
      </trkpt>
      <trkpt lat="46.04385" lon="3.25733">
        <ele>346.4</ele>
        <time>2024-04-14T08:35:36Z</time>
      </trkpt>
      <trkpt lat="46.0439" lon="3.25741">
        <ele>346.4</ele>
        <time>2024-04-14T08:35:37Z</time>
      </trkpt>
      <trkpt lat="46.04396" lon="3.25749">
        <ele>346.4</ele>
        <time>2024-04-14T08:35:38Z</time>
      </trkpt>
      <trkpt lat="46.04402" lon="3.25757">
        <ele>346.4</ele>
        <time>2024-04-14T08:35:39Z</time>
      </trkpt>
      <trkpt lat="46.04408" lon="3.25765">
        <ele>346.4</ele>
        <time>2024-04-14T08:35:40Z</time>
      </trkpt>
      <trkpt lat="46.04418" lon="3.2578">
        <ele>346.4</ele>
        <time>2024-04-14T08:35:41Z</time>
      </trkpt>
      <trkpt lat="46.04418" lon="3.2578">
        <ele>346.4</ele>
        <time>2024-04-14T08:35:42Z</time>
      </trkpt>
      <trkpt lat="46.04429" lon="3.25795">
        <ele>346.4</ele>
        <time>2024-04-14T08:35:43Z</time>
      </trkpt>
      <trkpt lat="46.04434" lon="3.25802">
        <ele>346.4</ele>
        <time>2024-04-14T08:35:44Z</time>
      </trkpt>
      <trkpt lat="46.04439" lon="3.25809">
        <ele>346.6</ele>
        <time>2024-04-14T08:35:45Z</time>
      </trkpt>
      <trkpt lat="46.04445" lon="3.25817">
        <ele>346.6</ele>
        <time>2024-04-14T08:35:46Z</time>
      </trkpt>
      <trkpt lat="46.04445" lon="3.25817">
        <ele>346.6</ele>
        <time>2024-04-14T08:35:47Z</time>
      </trkpt>
      <trkpt lat="46.0445" lon="3.25824">
        <ele>346.6</ele>
        <time>2024-04-14T08:35:48Z</time>
      </trkpt>
      <trkpt lat="46.0446" lon="3.25838">
        <ele>346.6</ele>
        <time>2024-04-14T08:35:49Z</time>
      </trkpt>
      <trkpt lat="46.04465" lon="3.25845">
        <ele>346.8</ele>
        <time>2024-04-14T08:35:50Z</time>
      </trkpt>
      <trkpt lat="46.0447" lon="3.25852">
        <ele>346.8</ele>
        <time>2024-04-14T08:35:51Z</time>
      </trkpt>
      <trkpt lat="46.0447" lon="3.25852">
        <ele>346.8</ele>
        <time>2024-04-14T08:35:52Z</time>
      </trkpt>
      <trkpt lat="46.04481" lon="3.25866">
        <ele>346.8</ele>
        <time>2024-04-14T08:35:53Z</time>
      </trkpt>
      <trkpt lat="46.04486" lon="3.25874">
        <ele>346.8</ele>
        <time>2024-04-14T08:35:54Z</time>
      </trkpt>
      <trkpt lat="46.04491" lon="3.2588">
        <ele>346.8</ele>
        <time>2024-04-14T08:35:55Z</time>
      </trkpt>
      <trkpt lat="46.04496" lon="3.25887">
        <ele>347</ele>
        <time>2024-04-14T08:35:56Z</time>
      </trkpt>
      <trkpt lat="46.04501" lon="3.25894">
        <ele>347</ele>
        <time>2024-04-14T08:35:57Z</time>
      </trkpt>
      <trkpt lat="46.04507" lon="3.25902">
        <ele>347</ele>
        <time>2024-04-14T08:35:58Z</time>
      </trkpt>
      <trkpt lat="46.04512" lon="3.25909">
        <ele>347</ele>
        <time>2024-04-14T08:35:59Z</time>
      </trkpt>
      <trkpt lat="46.04517" lon="3.25916">
        <ele>347</ele>
        <time>2024-04-14T08:36:00Z</time>
      </trkpt>
      <trkpt lat="46.04522" lon="3.25923">
        <ele>347</ele>
        <time>2024-04-14T08:36:01Z</time>
      </trkpt>
      <trkpt lat="46.04527" lon="3.25931">
        <ele>347</ele>
        <time>2024-04-14T08:36:02Z</time>
      </trkpt>
      <trkpt lat="46.04532" lon="3.25937">
        <ele>347</ele>
        <time>2024-04-14T08:36:03Z</time>
      </trkpt>
      <trkpt lat="46.04537" lon="3.25944">
        <ele>347</ele>
        <time>2024-04-14T08:36:04Z</time>
      </trkpt>
      <trkpt lat="46.04537" lon="3.25944">
        <ele>347</ele>
        <time>2024-04-14T08:36:05Z</time>
      </trkpt>
      <trkpt lat="46.04542" lon="3.25952">
        <ele>347</ele>
        <time>2024-04-14T08:36:06Z</time>
      </trkpt>
      <trkpt lat="46.04552" lon="3.25968">
        <ele>347</ele>
        <time>2024-04-14T08:36:07Z</time>
      </trkpt>
      <trkpt lat="46.04556" lon="3.25976">
        <ele>347</ele>
        <time>2024-04-14T08:36:08Z</time>
      </trkpt>
      <trkpt lat="46.04561" lon="3.25984">
        <ele>347</ele>
        <time>2024-04-14T08:36:09Z</time>
      </trkpt>
      <trkpt lat="46.04566" lon="3.25992">
        <ele>347</ele>
        <time>2024-04-14T08:36:10Z</time>
      </trkpt>
      <trkpt lat="46.0457" lon="3.26">
        <ele>347</ele>
        <time>2024-04-14T08:36:11Z</time>
      </trkpt>
      <trkpt lat="46.04575" lon="3.26008">
        <ele>347.2</ele>
        <time>2024-04-14T08:36:12Z</time>
      </trkpt>
      <trkpt lat="46.0458" lon="3.26016">
        <ele>347.2</ele>
        <time>2024-04-14T08:36:13Z</time>
      </trkpt>
      <trkpt lat="46.04584" lon="3.26025">
        <ele>347.2</ele>
        <time>2024-04-14T08:36:14Z</time>
      </trkpt>
      <trkpt lat="46.04589" lon="3.26033">
        <ele>347.2</ele>
        <time>2024-04-14T08:36:15Z</time>
      </trkpt>
      <trkpt lat="46.04589" lon="3.26033">
        <ele>347.2</ele>
        <time>2024-04-14T08:36:16Z</time>
      </trkpt>
      <trkpt lat="46.04598" lon="3.26049">
        <ele>347.2</ele>
        <time>2024-04-14T08:36:17Z</time>
      </trkpt>
      <trkpt lat="46.04602" lon="3.26058">
        <ele>347.2</ele>
        <time>2024-04-14T08:36:18Z</time>
      </trkpt>
      <trkpt lat="46.04605" lon="3.26067">
        <ele>347.2</ele>
        <time>2024-04-14T08:36:19Z</time>
      </trkpt>
      <trkpt lat="46.04609" lon="3.26077">
        <ele>347.2</ele>
        <time>2024-04-14T08:36:20Z</time>
      </trkpt>
      <trkpt lat="46.04612" lon="3.26087">
        <ele>347.2</ele>
        <time>2024-04-14T08:36:21Z</time>
      </trkpt>
      <trkpt lat="46.04616" lon="3.26096">
        <ele>347.2</ele>
        <time>2024-04-14T08:36:22Z</time>
      </trkpt>
      <trkpt lat="46.04619" lon="3.26106">
        <ele>347.2</ele>
        <time>2024-04-14T08:36:23Z</time>
      </trkpt>
      <trkpt lat="46.04623" lon="3.26116">
        <ele>347.2</ele>
        <time>2024-04-14T08:36:24Z</time>
      </trkpt>
      <trkpt lat="46.04626" lon="3.26125">
        <ele>347.2</ele>
        <time>2024-04-14T08:36:25Z</time>
      </trkpt>
      <trkpt lat="46.04629" lon="3.26134">
        <ele>347.2</ele>
        <time>2024-04-14T08:36:26Z</time>
      </trkpt>
      <trkpt lat="46.04633" lon="3.26144">
        <ele>347.2</ele>
        <time>2024-04-14T08:36:27Z</time>
      </trkpt>
      <trkpt lat="46.04633" lon="3.26144">
        <ele>347.2</ele>
        <time>2024-04-14T08:36:28Z</time>
      </trkpt>
      <trkpt lat="46.04639" lon="3.26162">
        <ele>347.2</ele>
        <time>2024-04-14T08:36:29Z</time>
      </trkpt>
      <trkpt lat="46.04643" lon="3.26171">
        <ele>347.2</ele>
        <time>2024-04-14T08:36:30Z</time>
      </trkpt>
      <trkpt lat="46.04646" lon="3.26181">
        <ele>347.2</ele>
        <time>2024-04-14T08:36:31Z</time>
      </trkpt>
      <trkpt lat="46.0465" lon="3.26191">
        <ele>347.2</ele>
        <time>2024-04-14T08:36:32Z</time>
      </trkpt>
      <trkpt lat="46.04654" lon="3.26202">
        <ele>347.2</ele>
        <time>2024-04-14T08:36:33Z</time>
      </trkpt>
      <trkpt lat="46.04657" lon="3.26212">
        <ele>347.2</ele>
        <time>2024-04-14T08:36:34Z</time>
      </trkpt>
      <trkpt lat="46.04661" lon="3.26222">
        <ele>347.2</ele>
        <time>2024-04-14T08:36:35Z</time>
      </trkpt>
      <trkpt lat="46.04664" lon="3.26232">
        <ele>347.2</ele>
        <time>2024-04-14T08:36:36Z</time>
      </trkpt>
      <trkpt lat="46.04668" lon="3.26241">
        <ele>347.2</ele>
        <time>2024-04-14T08:36:37Z</time>
      </trkpt>
      <trkpt lat="46.04671" lon="3.26251">
        <ele>347.2</ele>
        <time>2024-04-14T08:36:38Z</time>
      </trkpt>
      <trkpt lat="46.04674" lon="3.2626">
        <ele>347.2</ele>
        <time>2024-04-14T08:36:39Z</time>
      </trkpt>
      <trkpt lat="46.04678" lon="3.26269">
        <ele>347</ele>
        <time>2024-04-14T08:36:40Z</time>
      </trkpt>
      <trkpt lat="46.04681" lon="3.26279">
        <ele>347.2</ele>
        <time>2024-04-14T08:36:41Z</time>
      </trkpt>
      <trkpt lat="46.04685" lon="3.26288">
        <ele>347</ele>
        <time>2024-04-14T08:36:42Z</time>
      </trkpt>
      <trkpt lat="46.04689" lon="3.26297">
        <ele>347.2</ele>
        <time>2024-04-14T08:36:43Z</time>
      </trkpt>
      <trkpt lat="46.04692" lon="3.26305">
        <ele>347</ele>
        <time>2024-04-14T08:36:44Z</time>
      </trkpt>
      <trkpt lat="46.04696" lon="3.26314">
        <ele>347</ele>
        <time>2024-04-14T08:36:45Z</time>
      </trkpt>
      <trkpt lat="46.047" lon="3.26323">
        <ele>347</ele>
        <time>2024-04-14T08:36:46Z</time>
      </trkpt>
      <trkpt lat="46.04704" lon="3.26332">
        <ele>347</ele>
        <time>2024-04-14T08:36:47Z</time>
      </trkpt>
      <trkpt lat="46.04704" lon="3.26332">
        <ele>347</ele>
        <time>2024-04-14T08:36:48Z</time>
      </trkpt>
      <trkpt lat="46.04714" lon="3.26348">
        <ele>347</ele>
        <time>2024-04-14T08:36:49Z</time>
      </trkpt>
      <trkpt lat="46.04718" lon="3.26355">
        <ele>347</ele>
        <time>2024-04-14T08:36:50Z</time>
      </trkpt>
      <trkpt lat="46.04723" lon="3.26362">
        <ele>347</ele>
        <time>2024-04-14T08:36:51Z</time>
      </trkpt>
      <trkpt lat="46.04728" lon="3.2637">
        <ele>346.8</ele>
        <time>2024-04-14T08:36:52Z</time>
      </trkpt>
      <trkpt lat="46.04733" lon="3.26377">
        <ele>346.8</ele>
        <time>2024-04-14T08:36:53Z</time>
      </trkpt>
      <trkpt lat="46.04738" lon="3.26384">
        <ele>346.8</ele>
        <time>2024-04-14T08:36:54Z</time>
      </trkpt>
      <trkpt lat="46.04743" lon="3.26392">
        <ele>346.8</ele>
        <time>2024-04-14T08:36:55Z</time>
      </trkpt>
      <trkpt lat="46.04748" lon="3.264">
        <ele>346.8</ele>
        <time>2024-04-14T08:36:56Z</time>
      </trkpt>
      <trkpt lat="46.04753" lon="3.26407">
        <ele>346.8</ele>
        <time>2024-04-14T08:36:57Z</time>
      </trkpt>
      <trkpt lat="46.04758" lon="3.26415">
        <ele>346.8</ele>
        <time>2024-04-14T08:36:58Z</time>
      </trkpt>
      <trkpt lat="46.04764" lon="3.26422">
        <ele>346.8</ele>
        <time>2024-04-14T08:36:59Z</time>
      </trkpt>
      <trkpt lat="46.04769" lon="3.26429">
        <ele>346.8</ele>
        <time>2024-04-14T08:37:00Z</time>
      </trkpt>
      <trkpt lat="46.04776" lon="3.26436">
        <ele>346.8</ele>
        <time>2024-04-14T08:37:01Z</time>
      </trkpt>
      <trkpt lat="46.04781" lon="3.26443">
        <ele>346.8</ele>
        <time>2024-04-14T08:37:02Z</time>
      </trkpt>
      <trkpt lat="46.04787" lon="3.2645">
        <ele>346.8</ele>
        <time>2024-04-14T08:37:03Z</time>
      </trkpt>
      <trkpt lat="46.04793" lon="3.26457">
        <ele>346.6</ele>
        <time>2024-04-14T08:37:04Z</time>
      </trkpt>
      <trkpt lat="46.04799" lon="3.26465">
        <ele>346.6</ele>
        <time>2024-04-14T08:37:05Z</time>
      </trkpt>
      <trkpt lat="46.04805" lon="3.26472">
        <ele>346.6</ele>
        <time>2024-04-14T08:37:06Z</time>
      </trkpt>
      <trkpt lat="46.04811" lon="3.26479">
        <ele>346.6</ele>
        <time>2024-04-14T08:37:07Z</time>
      </trkpt>
      <trkpt lat="46.04817" lon="3.26486">
        <ele>346.6</ele>
        <time>2024-04-14T08:37:08Z</time>
      </trkpt>
      <trkpt lat="46.04822" lon="3.26493">
        <ele>346.4</ele>
        <time>2024-04-14T08:37:09Z</time>
      </trkpt>
      <trkpt lat="46.04828" lon="3.265">
        <ele>346.4</ele>
        <time>2024-04-14T08:37:10Z</time>
      </trkpt>
      <trkpt lat="46.04834" lon="3.26507">
        <ele>346.4</ele>
        <time>2024-04-14T08:37:11Z</time>
      </trkpt>
      <trkpt lat="46.04839" lon="3.26513">
        <ele>346.4</ele>
        <time>2024-04-14T08:37:12Z</time>
      </trkpt>
      <trkpt lat="46.04845" lon="3.2652">
        <ele>346.4</ele>
        <time>2024-04-14T08:37:13Z</time>
      </trkpt>
      <trkpt lat="46.0485" lon="3.26526">
        <ele>346.4</ele>
        <time>2024-04-14T08:37:14Z</time>
      </trkpt>
      <trkpt lat="46.04856" lon="3.26533">
        <ele>346.4</ele>
        <time>2024-04-14T08:37:15Z</time>
      </trkpt>
      <trkpt lat="46.04862" lon="3.2654">
        <ele>346.4</ele>
        <time>2024-04-14T08:37:16Z</time>
      </trkpt>
      <trkpt lat="46.04867" lon="3.26546">
        <ele>346.4</ele>
        <time>2024-04-14T08:37:17Z</time>
      </trkpt>
      <trkpt lat="46.04873" lon="3.26553">
        <ele>346.2</ele>
        <time>2024-04-14T08:37:18Z</time>
      </trkpt>
      <trkpt lat="46.04878" lon="3.2656">
        <ele>346.2</ele>
        <time>2024-04-14T08:37:19Z</time>
      </trkpt>
      <trkpt lat="46.04884" lon="3.26567">
        <ele>346.2</ele>
        <time>2024-04-14T08:37:20Z</time>
      </trkpt>
      <trkpt lat="46.0489" lon="3.26574">
        <ele>346.2</ele>
        <time>2024-04-14T08:37:21Z</time>
      </trkpt>
      <trkpt lat="46.04896" lon="3.26581">
        <ele>346.2</ele>
        <time>2024-04-14T08:37:22Z</time>
      </trkpt>
      <trkpt lat="46.04902" lon="3.26588">
        <ele>346.2</ele>
        <time>2024-04-14T08:37:23Z</time>
      </trkpt>
      <trkpt lat="46.04907" lon="3.26595">
        <ele>346.2</ele>
        <time>2024-04-14T08:37:24Z</time>
      </trkpt>
      <trkpt lat="46.04913" lon="3.26601">
        <ele>346</ele>
        <time>2024-04-14T08:37:25Z</time>
      </trkpt>
      <trkpt lat="46.04918" lon="3.26608">
        <ele>346</ele>
        <time>2024-04-14T08:37:26Z</time>
      </trkpt>
      <trkpt lat="46.04924" lon="3.26615">
        <ele>346</ele>
        <time>2024-04-14T08:37:27Z</time>
      </trkpt>
      <trkpt lat="46.04931" lon="3.26623">
        <ele>346</ele>
        <time>2024-04-14T08:37:28Z</time>
      </trkpt>
      <trkpt lat="46.04936" lon="3.2663">
        <ele>346</ele>
        <time>2024-04-14T08:37:29Z</time>
      </trkpt>
      <trkpt lat="46.04942" lon="3.26637">
        <ele>346</ele>
        <time>2024-04-14T08:37:30Z</time>
      </trkpt>
      <trkpt lat="46.04948" lon="3.26643">
        <ele>346</ele>
        <time>2024-04-14T08:37:31Z</time>
      </trkpt>
      <trkpt lat="46.04954" lon="3.2665">
        <ele>346</ele>
        <time>2024-04-14T08:37:32Z</time>
      </trkpt>
      <trkpt lat="46.04959" lon="3.26657">
        <ele>346</ele>
        <time>2024-04-14T08:37:33Z</time>
      </trkpt>
      <trkpt lat="46.04959" lon="3.26657">
        <ele>346</ele>
        <time>2024-04-14T08:37:34Z</time>
      </trkpt>
      <trkpt lat="46.0497" lon="3.26671">
        <ele>346</ele>
        <time>2024-04-14T08:37:35Z</time>
      </trkpt>
      <trkpt lat="46.04976" lon="3.26678">
        <ele>346</ele>
        <time>2024-04-14T08:37:36Z</time>
      </trkpt>
      <trkpt lat="46.04981" lon="3.26685">
        <ele>346</ele>
        <time>2024-04-14T08:37:37Z</time>
      </trkpt>
      <trkpt lat="46.04986" lon="3.26692">
        <ele>346</ele>
        <time>2024-04-14T08:37:38Z</time>
      </trkpt>
      <trkpt lat="46.04992" lon="3.26699">
        <ele>346</ele>
        <time>2024-04-14T08:37:39Z</time>
      </trkpt>
      <trkpt lat="46.04997" lon="3.26706">
        <ele>346</ele>
        <time>2024-04-14T08:37:40Z</time>
      </trkpt>
      <trkpt lat="46.05003" lon="3.26713">
        <ele>346</ele>
        <time>2024-04-14T08:37:41Z</time>
      </trkpt>
      <trkpt lat="46.05008" lon="3.2672">
        <ele>346</ele>
        <time>2024-04-14T08:37:42Z</time>
      </trkpt>
      <trkpt lat="46.05014" lon="3.26728">
        <ele>346</ele>
        <time>2024-04-14T08:37:43Z</time>
      </trkpt>
      <trkpt lat="46.05019" lon="3.26735">
        <ele>346</ele>
        <time>2024-04-14T08:37:44Z</time>
      </trkpt>
      <trkpt lat="46.05025" lon="3.26742">
        <ele>346</ele>
        <time>2024-04-14T08:37:45Z</time>
      </trkpt>
      <trkpt lat="46.0503" lon="3.26749">
        <ele>346</ele>
        <time>2024-04-14T08:37:46Z</time>
      </trkpt>
      <trkpt lat="46.05035" lon="3.26756">
        <ele>346</ele>
        <time>2024-04-14T08:37:47Z</time>
      </trkpt>
      <trkpt lat="46.05041" lon="3.26763">
        <ele>346</ele>
        <time>2024-04-14T08:37:48Z</time>
      </trkpt>
      <trkpt lat="46.05046" lon="3.2677">
        <ele>345.8</ele>
        <time>2024-04-14T08:37:49Z</time>
      </trkpt>
      <trkpt lat="46.05051" lon="3.26777">
        <ele>346.2</ele>
        <time>2024-04-14T08:37:50Z</time>
      </trkpt>
      <trkpt lat="46.05057" lon="3.26784">
        <ele>346.2</ele>
        <time>2024-04-14T08:37:51Z</time>
      </trkpt>
      <trkpt lat="46.05062" lon="3.26791">
        <ele>346.2</ele>
        <time>2024-04-14T08:37:52Z</time>
      </trkpt>
      <trkpt lat="46.05068" lon="3.26798">
        <ele>346.2</ele>
        <time>2024-04-14T08:37:53Z</time>
      </trkpt>
      <trkpt lat="46.05073" lon="3.26805">
        <ele>346.2</ele>
        <time>2024-04-14T08:37:54Z</time>
      </trkpt>
      <trkpt lat="46.05078" lon="3.26812">
        <ele>346.2</ele>
        <time>2024-04-14T08:37:55Z</time>
      </trkpt>
      <trkpt lat="46.05083" lon="3.26819">
        <ele>346.2</ele>
        <time>2024-04-14T08:37:56Z</time>
      </trkpt>
      <trkpt lat="46.05088" lon="3.26826">
        <ele>346.2</ele>
        <time>2024-04-14T08:37:57Z</time>
      </trkpt>
      <trkpt lat="46.05094" lon="3.26833">
        <ele>346.2</ele>
        <time>2024-04-14T08:37:58Z</time>
      </trkpt>
      <trkpt lat="46.05099" lon="3.2684">
        <ele>346.2</ele>
        <time>2024-04-14T08:37:59Z</time>
      </trkpt>
      <trkpt lat="46.05104" lon="3.26848">
        <ele>346.2</ele>
        <time>2024-04-14T08:38:00Z</time>
      </trkpt>
      <trkpt lat="46.05109" lon="3.26855">
        <ele>346.2</ele>
        <time>2024-04-14T08:38:01Z</time>
      </trkpt>
      <trkpt lat="46.05114" lon="3.26862">
        <ele>346.2</ele>
        <time>2024-04-14T08:38:02Z</time>
      </trkpt>
      <trkpt lat="46.0512" lon="3.26869">
        <ele>346.2</ele>
        <time>2024-04-14T08:38:03Z</time>
      </trkpt>
      <trkpt lat="46.05125" lon="3.26876">
        <ele>346.2</ele>
        <time>2024-04-14T08:38:04Z</time>
      </trkpt>
      <trkpt lat="46.0513" lon="3.26884">
        <ele>346.2</ele>
        <time>2024-04-14T08:38:05Z</time>
      </trkpt>
      <trkpt lat="46.05135" lon="3.26891">
        <ele>346.2</ele>
        <time>2024-04-14T08:38:06Z</time>
      </trkpt>
      <trkpt lat="46.0514" lon="3.26899">
        <ele>346.2</ele>
        <time>2024-04-14T08:38:07Z</time>
      </trkpt>
      <trkpt lat="46.05144" lon="3.26907">
        <ele>346.2</ele>
        <time>2024-04-14T08:38:08Z</time>
      </trkpt>
      <trkpt lat="46.05148" lon="3.26916">
        <ele>346.2</ele>
        <time>2024-04-14T08:38:09Z</time>
      </trkpt>
      <trkpt lat="46.05152" lon="3.26924">
        <ele>346.2</ele>
        <time>2024-04-14T08:38:10Z</time>
      </trkpt>
      <trkpt lat="46.05156" lon="3.26932">
        <ele>346.4</ele>
        <time>2024-04-14T08:38:11Z</time>
      </trkpt>
      <trkpt lat="46.0516" lon="3.26941">
        <ele>346.2</ele>
        <time>2024-04-14T08:38:12Z</time>
      </trkpt>
      <trkpt lat="46.05165" lon="3.2695">
        <ele>346.4</ele>
        <time>2024-04-14T08:38:13Z</time>
      </trkpt>
      <trkpt lat="46.05169" lon="3.26958">
        <ele>346.4</ele>
        <time>2024-04-14T08:38:14Z</time>
      </trkpt>
      <trkpt lat="46.05173" lon="3.26967">
        <ele>346.4</ele>
        <time>2024-04-14T08:38:15Z</time>
      </trkpt>
      <trkpt lat="46.05177" lon="3.26976">
        <ele>346.4</ele>
        <time>2024-04-14T08:38:16Z</time>
      </trkpt>
      <trkpt lat="46.05182" lon="3.26985">
        <ele>346.4</ele>
        <time>2024-04-14T08:38:17Z</time>
      </trkpt>
      <trkpt lat="46.05186" lon="3.26994">
        <ele>346.4</ele>
        <time>2024-04-14T08:38:18Z</time>
      </trkpt>
      <trkpt lat="46.0519" lon="3.27003">
        <ele>346.4</ele>
        <time>2024-04-14T08:38:19Z</time>
      </trkpt>
      <trkpt lat="46.05193" lon="3.27012">
        <ele>346.4</ele>
        <time>2024-04-14T08:38:20Z</time>
      </trkpt>
      <trkpt lat="46.05197" lon="3.27021">
        <ele>346.4</ele>
        <time>2024-04-14T08:38:21Z</time>
      </trkpt>
      <trkpt lat="46.052" lon="3.27031">
        <ele>346.4</ele>
        <time>2024-04-14T08:38:22Z</time>
      </trkpt>
      <trkpt lat="46.05204" lon="3.2704">
        <ele>346.4</ele>
        <time>2024-04-14T08:38:23Z</time>
      </trkpt>
      <trkpt lat="46.05207" lon="3.27049">
        <ele>346.6</ele>
        <time>2024-04-14T08:38:24Z</time>
      </trkpt>
      <trkpt lat="46.0521" lon="3.27058">
        <ele>346.6</ele>
        <time>2024-04-14T08:38:25Z</time>
      </trkpt>
      <trkpt lat="46.05214" lon="3.27067">
        <ele>346.6</ele>
        <time>2024-04-14T08:38:26Z</time>
      </trkpt>
      <trkpt lat="46.05217" lon="3.27075">
        <ele>346.6</ele>
        <time>2024-04-14T08:38:27Z</time>
      </trkpt>
      <trkpt lat="46.0522" lon="3.27084">
        <ele>346.6</ele>
        <time>2024-04-14T08:38:28Z</time>
      </trkpt>
      <trkpt lat="46.05224" lon="3.27093">
        <ele>346.8</ele>
        <time>2024-04-14T08:38:29Z</time>
      </trkpt>
      <trkpt lat="46.05227" lon="3.27102">
        <ele>346.8</ele>
        <time>2024-04-14T08:38:30Z</time>
      </trkpt>
      <trkpt lat="46.05231" lon="3.27111">
        <ele>346.8</ele>
        <time>2024-04-14T08:38:31Z</time>
      </trkpt>
      <trkpt lat="46.05234" lon="3.2712">
        <ele>346.8</ele>
        <time>2024-04-14T08:38:32Z</time>
      </trkpt>
      <trkpt lat="46.05237" lon="3.27129">
        <ele>346.8</ele>
        <time>2024-04-14T08:38:33Z</time>
      </trkpt>
      <trkpt lat="46.05241" lon="3.27138">
        <ele>346.8</ele>
        <time>2024-04-14T08:38:34Z</time>
      </trkpt>
      <trkpt lat="46.05244" lon="3.27147">
        <ele>346.8</ele>
        <time>2024-04-14T08:38:35Z</time>
      </trkpt>
      <trkpt lat="46.05247" lon="3.27155">
        <ele>346.8</ele>
        <time>2024-04-14T08:38:36Z</time>
      </trkpt>
      <trkpt lat="46.05251" lon="3.27164">
        <ele>347</ele>
        <time>2024-04-14T08:38:37Z</time>
      </trkpt>
      <trkpt lat="46.05254" lon="3.27173">
        <ele>347</ele>
        <time>2024-04-14T08:38:38Z</time>
      </trkpt>
      <trkpt lat="46.05257" lon="3.27181">
        <ele>347</ele>
        <time>2024-04-14T08:38:39Z</time>
      </trkpt>
      <trkpt lat="46.05262" lon="3.27189">
        <ele>347</ele>
        <time>2024-04-14T08:38:40Z</time>
      </trkpt>
      <trkpt lat="46.05267" lon="3.27195">
        <ele>347</ele>
        <time>2024-04-14T08:38:41Z</time>
      </trkpt>
      <trkpt lat="46.05273" lon="3.27202">
        <ele>347.2</ele>
        <time>2024-04-14T08:38:42Z</time>
      </trkpt>
      <trkpt lat="46.05278" lon="3.27208">
        <ele>347.2</ele>
        <time>2024-04-14T08:38:43Z</time>
      </trkpt>
      <trkpt lat="46.05283" lon="3.27214">
        <ele>347.2</ele>
        <time>2024-04-14T08:38:44Z</time>
      </trkpt>
      <trkpt lat="46.05288" lon="3.27221">
        <ele>347.2</ele>
        <time>2024-04-14T08:38:45Z</time>
      </trkpt>
      <trkpt lat="46.05293" lon="3.27227">
        <ele>347.2</ele>
        <time>2024-04-14T08:38:46Z</time>
      </trkpt>
      <trkpt lat="46.05298" lon="3.27233">
        <ele>347.2</ele>
        <time>2024-04-14T08:38:47Z</time>
      </trkpt>
      <trkpt lat="46.05303" lon="3.27239">
        <ele>347.2</ele>
        <time>2024-04-14T08:38:48Z</time>
      </trkpt>
      <trkpt lat="46.05308" lon="3.27245">
        <ele>347.4</ele>
        <time>2024-04-14T08:38:49Z</time>
      </trkpt>
      <trkpt lat="46.05313" lon="3.27251">
        <ele>347.4</ele>
        <time>2024-04-14T08:38:50Z</time>
      </trkpt>
      <trkpt lat="46.05318" lon="3.27256">
        <ele>347.4</ele>
        <time>2024-04-14T08:38:51Z</time>
      </trkpt>
      <trkpt lat="46.05323" lon="3.27262">
        <ele>347.4</ele>
        <time>2024-04-14T08:38:52Z</time>
      </trkpt>
      <trkpt lat="46.05327" lon="3.27268">
        <ele>347.4</ele>
        <time>2024-04-14T08:38:53Z</time>
      </trkpt>
      <trkpt lat="46.05332" lon="3.27274">
        <ele>347.6</ele>
        <time>2024-04-14T08:38:54Z</time>
      </trkpt>
      <trkpt lat="46.05337" lon="3.2728">
        <ele>347.6</ele>
        <time>2024-04-14T08:38:55Z</time>
      </trkpt>
      <trkpt lat="46.05341" lon="3.27285">
        <ele>347.6</ele>
        <time>2024-04-14T08:38:56Z</time>
      </trkpt>
      <trkpt lat="46.05346" lon="3.27291">
        <ele>347.6</ele>
        <time>2024-04-14T08:38:57Z</time>
      </trkpt>
      <trkpt lat="46.05351" lon="3.27297">
        <ele>347.8</ele>
        <time>2024-04-14T08:38:58Z</time>
      </trkpt>
      <trkpt lat="46.05356" lon="3.27303">
        <ele>347.8</ele>
        <time>2024-04-14T08:38:59Z</time>
      </trkpt>
      <trkpt lat="46.05361" lon="3.27309">
        <ele>347.8</ele>
        <time>2024-04-14T08:39:00Z</time>
      </trkpt>
      <trkpt lat="46.05366" lon="3.27315">
        <ele>347.8</ele>
        <time>2024-04-14T08:39:01Z</time>
      </trkpt>
      <trkpt lat="46.0537" lon="3.27321">
        <ele>347.8</ele>
        <time>2024-04-14T08:39:02Z</time>
      </trkpt>
      <trkpt lat="46.05375" lon="3.27326">
        <ele>348</ele>
        <time>2024-04-14T08:39:03Z</time>
      </trkpt>
      <trkpt lat="46.0538" lon="3.27332">
        <ele>348</ele>
        <time>2024-04-14T08:39:04Z</time>
      </trkpt>
      <trkpt lat="46.05384" lon="3.27338">
        <ele>348</ele>
        <time>2024-04-14T08:39:05Z</time>
      </trkpt>
      <trkpt lat="46.05389" lon="3.27344">
        <ele>348</ele>
        <time>2024-04-14T08:39:06Z</time>
      </trkpt>
      <trkpt lat="46.05393" lon="3.2735">
        <ele>348</ele>
        <time>2024-04-14T08:39:07Z</time>
      </trkpt>
      <trkpt lat="46.05398" lon="3.27357">
        <ele>348</ele>
        <time>2024-04-14T08:39:08Z</time>
      </trkpt>
      <trkpt lat="46.05402" lon="3.27364">
        <ele>348.2</ele>
        <time>2024-04-14T08:39:09Z</time>
      </trkpt>
      <trkpt lat="46.05406" lon="3.27371">
        <ele>348.2</ele>
        <time>2024-04-14T08:39:10Z</time>
      </trkpt>
      <trkpt lat="46.05411" lon="3.27378">
        <ele>348.2</ele>
        <time>2024-04-14T08:39:11Z</time>
      </trkpt>
      <trkpt lat="46.05415" lon="3.27385">
        <ele>348.2</ele>
        <time>2024-04-14T08:39:12Z</time>
      </trkpt>
      <trkpt lat="46.0542" lon="3.27392">
        <ele>348.2</ele>
        <time>2024-04-14T08:39:13Z</time>
      </trkpt>
      <trkpt lat="46.05424" lon="3.27398">
        <ele>348.2</ele>
        <time>2024-04-14T08:39:14Z</time>
      </trkpt>
      <trkpt lat="46.05429" lon="3.27405">
        <ele>348.4</ele>
        <time>2024-04-14T08:39:15Z</time>
      </trkpt>
      <trkpt lat="46.05433" lon="3.27412">
        <ele>348.4</ele>
        <time>2024-04-14T08:39:16Z</time>
      </trkpt>
      <trkpt lat="46.05437" lon="3.27419">
        <ele>348.4</ele>
        <time>2024-04-14T08:39:17Z</time>
      </trkpt>
      <trkpt lat="46.05442" lon="3.27426">
        <ele>348.6</ele>
        <time>2024-04-14T08:39:18Z</time>
      </trkpt>
      <trkpt lat="46.05446" lon="3.27433">
        <ele>348.6</ele>
        <time>2024-04-14T08:39:19Z</time>
      </trkpt>
      <trkpt lat="46.05451" lon="3.2744">
        <ele>348.6</ele>
        <time>2024-04-14T08:39:20Z</time>
      </trkpt>
      <trkpt lat="46.05456" lon="3.27447">
        <ele>348.6</ele>
        <time>2024-04-14T08:39:21Z</time>
      </trkpt>
      <trkpt lat="46.0546" lon="3.27454">
        <ele>348.6</ele>
        <time>2024-04-14T08:39:22Z</time>
      </trkpt>
      <trkpt lat="46.05464" lon="3.27461">
        <ele>348.8</ele>
        <time>2024-04-14T08:39:23Z</time>
      </trkpt>
      <trkpt lat="46.05469" lon="3.27468">
        <ele>348.8</ele>
        <time>2024-04-14T08:39:24Z</time>
      </trkpt>
      <trkpt lat="46.05474" lon="3.27476">
        <ele>348.8</ele>
        <time>2024-04-14T08:39:25Z</time>
      </trkpt>
      <trkpt lat="46.05478" lon="3.27482">
        <ele>348.8</ele>
        <time>2024-04-14T08:39:26Z</time>
      </trkpt>
      <trkpt lat="46.05482" lon="3.27489">
        <ele>349</ele>
        <time>2024-04-14T08:39:27Z</time>
      </trkpt>
      <trkpt lat="46.05487" lon="3.27496">
        <ele>349</ele>
        <time>2024-04-14T08:39:28Z</time>
      </trkpt>
      <trkpt lat="46.05491" lon="3.27503">
        <ele>349</ele>
        <time>2024-04-14T08:39:29Z</time>
      </trkpt>
      <trkpt lat="46.05496" lon="3.2751">
        <ele>349</ele>
        <time>2024-04-14T08:39:30Z</time>
      </trkpt>
      <trkpt lat="46.05501" lon="3.27517">
        <ele>349.2</ele>
        <time>2024-04-14T08:39:31Z</time>
      </trkpt>
      <trkpt lat="46.05505" lon="3.27525">
        <ele>349.2</ele>
        <time>2024-04-14T08:39:32Z</time>
      </trkpt>
      <trkpt lat="46.05509" lon="3.27532">
        <ele>349.2</ele>
        <time>2024-04-14T08:39:33Z</time>
      </trkpt>
      <trkpt lat="46.05513" lon="3.2754">
        <ele>349.2</ele>
        <time>2024-04-14T08:39:34Z</time>
      </trkpt>
      <trkpt lat="46.05517" lon="3.27547">
        <ele>349.4</ele>
        <time>2024-04-14T08:39:35Z</time>
      </trkpt>
      <trkpt lat="46.05522" lon="3.27554">
        <ele>349.4</ele>
        <time>2024-04-14T08:39:36Z</time>
      </trkpt>
      <trkpt lat="46.05526" lon="3.27562">
        <ele>349.4</ele>
        <time>2024-04-14T08:39:37Z</time>
      </trkpt>
      <trkpt lat="46.0553" lon="3.27569">
        <ele>349.6</ele>
        <time>2024-04-14T08:39:38Z</time>
      </trkpt>
      <trkpt lat="46.05534" lon="3.27577">
        <ele>349.6</ele>
        <time>2024-04-14T08:39:39Z</time>
      </trkpt>
      <trkpt lat="46.05538" lon="3.27584">
        <ele>349.6</ele>
        <time>2024-04-14T08:39:40Z</time>
      </trkpt>
      <trkpt lat="46.05543" lon="3.27592">
        <ele>349.8</ele>
        <time>2024-04-14T08:39:41Z</time>
      </trkpt>
      <trkpt lat="46.05547" lon="3.27599">
        <ele>349.8</ele>
        <time>2024-04-14T08:39:42Z</time>
      </trkpt>
      <trkpt lat="46.05551" lon="3.27607">
        <ele>349.8</ele>
        <time>2024-04-14T08:39:43Z</time>
      </trkpt>
      <trkpt lat="46.05555" lon="3.27615">
        <ele>349.8</ele>
        <time>2024-04-14T08:39:44Z</time>
      </trkpt>
      <trkpt lat="46.0556" lon="3.27622">
        <ele>350</ele>
        <time>2024-04-14T08:39:45Z</time>
      </trkpt>
      <trkpt lat="46.05564" lon="3.2763">
        <ele>350</ele>
        <time>2024-04-14T08:39:46Z</time>
      </trkpt>
      <trkpt lat="46.05568" lon="3.27637">
        <ele>350</ele>
        <time>2024-04-14T08:39:47Z</time>
      </trkpt>
      <trkpt lat="46.05572" lon="3.27645">
        <ele>350</ele>
        <time>2024-04-14T08:39:48Z</time>
      </trkpt>
      <trkpt lat="46.05577" lon="3.27652">
        <ele>350.2</ele>
        <time>2024-04-14T08:39:49Z</time>
      </trkpt>
      <trkpt lat="46.05581" lon="3.2766">
        <ele>350.2</ele>
        <time>2024-04-14T08:39:50Z</time>
      </trkpt>
      <trkpt lat="46.05584" lon="3.27668">
        <ele>350.2</ele>
        <time>2024-04-14T08:39:51Z</time>
      </trkpt>
      <trkpt lat="46.05587" lon="3.27676">
        <ele>350.2</ele>
        <time>2024-04-14T08:39:52Z</time>
      </trkpt>
      <trkpt lat="46.0559" lon="3.27684">
        <ele>350.4</ele>
        <time>2024-04-14T08:39:53Z</time>
      </trkpt>
      <trkpt lat="46.05593" lon="3.27692">
        <ele>350.4</ele>
        <time>2024-04-14T08:39:54Z</time>
      </trkpt>
      <trkpt lat="46.05596" lon="3.277">
        <ele>350.4</ele>
        <time>2024-04-14T08:39:55Z</time>
      </trkpt>
      <trkpt lat="46.05599" lon="3.27708">
        <ele>350.6</ele>
        <time>2024-04-14T08:39:56Z</time>
      </trkpt>
      <trkpt lat="46.05602" lon="3.27716">
        <ele>350.6</ele>
        <time>2024-04-14T08:39:57Z</time>
      </trkpt>
      <trkpt lat="46.05605" lon="3.27723">
        <ele>350.6</ele>
        <time>2024-04-14T08:39:58Z</time>
      </trkpt>
      <trkpt lat="46.05607" lon="3.27731">
        <ele>350.8</ele>
        <time>2024-04-14T08:39:59Z</time>
      </trkpt>
      <trkpt lat="46.0561" lon="3.27739">
        <ele>350.8</ele>
        <time>2024-04-14T08:40:00Z</time>
      </trkpt>
      <trkpt lat="46.05613" lon="3.27746">
        <ele>351</ele>
        <time>2024-04-14T08:40:01Z</time>
      </trkpt>
      <trkpt lat="46.05616" lon="3.27754">
        <ele>351</ele>
        <time>2024-04-14T08:40:02Z</time>
      </trkpt>
      <trkpt lat="46.05618" lon="3.27761">
        <ele>351.2</ele>
        <time>2024-04-14T08:40:03Z</time>
      </trkpt>
      <trkpt lat="46.05621" lon="3.27769">
        <ele>351.2</ele>
        <time>2024-04-14T08:40:04Z</time>
      </trkpt>
      <trkpt lat="46.05624" lon="3.27776">
        <ele>351.2</ele>
        <time>2024-04-14T08:40:05Z</time>
      </trkpt>
      <trkpt lat="46.05627" lon="3.27783">
        <ele>351.4</ele>
        <time>2024-04-14T08:40:06Z</time>
      </trkpt>
      <trkpt lat="46.05629" lon="3.27791">
        <ele>351.4</ele>
        <time>2024-04-14T08:40:07Z</time>
      </trkpt>
      <trkpt lat="46.05632" lon="3.27798">
        <ele>351.6</ele>
        <time>2024-04-14T08:40:08Z</time>
      </trkpt>
      <trkpt lat="46.05634" lon="3.27805">
        <ele>351.6</ele>
        <time>2024-04-14T08:40:09Z</time>
      </trkpt>
      <trkpt lat="46.05637" lon="3.27813">
        <ele>351.6</ele>
        <time>2024-04-14T08:40:10Z</time>
      </trkpt>
      <trkpt lat="46.05639" lon="3.27821">
        <ele>351.8</ele>
        <time>2024-04-14T08:40:11Z</time>
      </trkpt>
      <trkpt lat="46.05641" lon="3.27828">
        <ele>352</ele>
        <time>2024-04-14T08:40:12Z</time>
      </trkpt>
      <trkpt lat="46.05644" lon="3.27835">
        <ele>352</ele>
        <time>2024-04-14T08:40:13Z</time>
      </trkpt>
      <trkpt lat="46.05646" lon="3.27842">
        <ele>352</ele>
        <time>2024-04-14T08:40:14Z</time>
      </trkpt>
      <trkpt lat="46.05649" lon="3.2785">
        <ele>352.2</ele>
        <time>2024-04-14T08:40:15Z</time>
      </trkpt>
      <trkpt lat="46.05651" lon="3.27857">
        <ele>352.2</ele>
        <time>2024-04-14T08:40:16Z</time>
      </trkpt>
      <trkpt lat="46.05653" lon="3.27864">
        <ele>352.4</ele>
        <time>2024-04-14T08:40:17Z</time>
      </trkpt>
      <trkpt lat="46.05655" lon="3.27871">
        <ele>352.4</ele>
        <time>2024-04-14T08:40:18Z</time>
      </trkpt>
      <trkpt lat="46.05658" lon="3.27878">
        <ele>352.6</ele>
        <time>2024-04-14T08:40:19Z</time>
      </trkpt>
      <trkpt lat="46.0566" lon="3.27885">
        <ele>352.6</ele>
        <time>2024-04-14T08:40:20Z</time>
      </trkpt>
      <trkpt lat="46.05662" lon="3.27892">
        <ele>352.8</ele>
        <time>2024-04-14T08:40:21Z</time>
      </trkpt>
      <trkpt lat="46.05665" lon="3.27899">
        <ele>352.8</ele>
        <time>2024-04-14T08:40:22Z</time>
      </trkpt>
      <trkpt lat="46.05667" lon="3.27906">
        <ele>353</ele>
        <time>2024-04-14T08:40:23Z</time>
      </trkpt>
      <trkpt lat="46.05669" lon="3.27912">
        <ele>353</ele>
        <time>2024-04-14T08:40:24Z</time>
      </trkpt>
      <trkpt lat="46.05671" lon="3.27919">
        <ele>353.2</ele>
        <time>2024-04-14T08:40:25Z</time>
      </trkpt>
      <trkpt lat="46.05673" lon="3.27926">
        <ele>353.4</ele>
        <time>2024-04-14T08:40:26Z</time>
      </trkpt>
      <trkpt lat="46.05675" lon="3.27933">
        <ele>353.4</ele>
        <time>2024-04-14T08:40:27Z</time>
      </trkpt>
      <trkpt lat="46.05675" lon="3.27933">
        <ele>353.6</ele>
        <time>2024-04-14T08:40:28Z</time>
      </trkpt>
      <trkpt lat="46.0568" lon="3.27947">
        <ele>353.6</ele>
        <time>2024-04-14T08:40:29Z</time>
      </trkpt>
      <trkpt lat="46.05682" lon="3.27953">
        <ele>353.8</ele>
        <time>2024-04-14T08:40:30Z</time>
      </trkpt>
      <trkpt lat="46.05684" lon="3.2796">
        <ele>353.8</ele>
        <time>2024-04-14T08:40:31Z</time>
      </trkpt>
      <trkpt lat="46.05687" lon="3.27967">
        <ele>354</ele>
        <time>2024-04-14T08:40:32Z</time>
      </trkpt>
      <trkpt lat="46.05687" lon="3.27967">
        <ele>354</ele>
        <time>2024-04-14T08:40:33Z</time>
      </trkpt>
      <trkpt lat="46.05689" lon="3.27974">
        <ele>354.2</ele>
        <time>2024-04-14T08:40:34Z</time>
      </trkpt>
      <trkpt lat="46.05693" lon="3.27988">
        <ele>354.2</ele>
        <time>2024-04-14T08:40:35Z</time>
      </trkpt>
      <trkpt lat="46.05696" lon="3.27996">
        <ele>354.4</ele>
        <time>2024-04-14T08:40:36Z</time>
      </trkpt>
      <trkpt lat="46.05698" lon="3.28003">
        <ele>354.4</ele>
        <time>2024-04-14T08:40:37Z</time>
      </trkpt>
      <trkpt lat="46.05701" lon="3.2801">
        <ele>354.6</ele>
        <time>2024-04-14T08:40:38Z</time>
      </trkpt>
      <trkpt lat="46.05703" lon="3.28017">
        <ele>354.8</ele>
        <time>2024-04-14T08:40:39Z</time>
      </trkpt>
      <trkpt lat="46.05705" lon="3.28025">
        <ele>354.8</ele>
        <time>2024-04-14T08:40:40Z</time>
      </trkpt>
      <trkpt lat="46.05708" lon="3.28032">
        <ele>355</ele>
        <time>2024-04-14T08:40:41Z</time>
      </trkpt>
      <trkpt lat="46.0571" lon="3.2804">
        <ele>355</ele>
        <time>2024-04-14T08:40:42Z</time>
      </trkpt>
      <trkpt lat="46.05713" lon="3.28048">
        <ele>355.2</ele>
        <time>2024-04-14T08:40:43Z</time>
      </trkpt>
      <trkpt lat="46.05715" lon="3.28055">
        <ele>355.2</ele>
        <time>2024-04-14T08:40:44Z</time>
      </trkpt>
      <trkpt lat="46.05718" lon="3.28063">
        <ele>355.4</ele>
        <time>2024-04-14T08:40:45Z</time>
      </trkpt>
      <trkpt lat="46.0572" lon="3.2807">
        <ele>355.4</ele>
        <time>2024-04-14T08:40:46Z</time>
      </trkpt>
      <trkpt lat="46.05722" lon="3.28077">
        <ele>355.6</ele>
        <time>2024-04-14T08:40:47Z</time>
      </trkpt>
      <trkpt lat="46.05725" lon="3.28085">
        <ele>355.6</ele>
        <time>2024-04-14T08:40:48Z</time>
      </trkpt>
      <trkpt lat="46.05727" lon="3.28093">
        <ele>355.8</ele>
        <time>2024-04-14T08:40:49Z</time>
      </trkpt>
      <trkpt lat="46.0573" lon="3.28101">
        <ele>355.8</ele>
        <time>2024-04-14T08:40:50Z</time>
      </trkpt>
      <trkpt lat="46.05732" lon="3.28108">
        <ele>356</ele>
        <time>2024-04-14T08:40:51Z</time>
      </trkpt>
      <trkpt lat="46.05735" lon="3.28116">
        <ele>356</ele>
        <time>2024-04-14T08:40:52Z</time>
      </trkpt>
      <trkpt lat="46.05739" lon="3.28123">
        <ele>356.2</ele>
        <time>2024-04-14T08:40:53Z</time>
      </trkpt>
      <trkpt lat="46.05742" lon="3.2813">
        <ele>356.2</ele>
        <time>2024-04-14T08:40:54Z</time>
      </trkpt>
      <trkpt lat="46.05746" lon="3.28137">
        <ele>356.4</ele>
        <time>2024-04-14T08:40:55Z</time>
      </trkpt>
      <trkpt lat="46.0575" lon="3.28144">
        <ele>356.4</ele>
        <time>2024-04-14T08:40:56Z</time>
      </trkpt>
      <trkpt lat="46.05753" lon="3.28151">
        <ele>356.4</ele>
        <time>2024-04-14T08:40:57Z</time>
      </trkpt>
      <trkpt lat="46.05757" lon="3.28157">
        <ele>356.6</ele>
        <time>2024-04-14T08:40:58Z</time>
      </trkpt>
      <trkpt lat="46.0576" lon="3.28164">
        <ele>356.6</ele>
        <time>2024-04-14T08:40:59Z</time>
      </trkpt>
      <trkpt lat="46.05764" lon="3.28171">
        <ele>356.6</ele>
        <time>2024-04-14T08:41:00Z</time>
      </trkpt>
      <trkpt lat="46.05768" lon="3.28178">
        <ele>356.8</ele>
        <time>2024-04-14T08:41:01Z</time>
      </trkpt>
      <trkpt lat="46.05771" lon="3.28186">
        <ele>356.8</ele>
        <time>2024-04-14T08:41:02Z</time>
      </trkpt>
      <trkpt lat="46.05775" lon="3.28193">
        <ele>356.8</ele>
        <time>2024-04-14T08:41:03Z</time>
      </trkpt>
      <trkpt lat="46.05779" lon="3.282">
        <ele>357</ele>
        <time>2024-04-14T08:41:04Z</time>
      </trkpt>
      <trkpt lat="46.05783" lon="3.28207">
        <ele>357</ele>
        <time>2024-04-14T08:41:05Z</time>
      </trkpt>
      <trkpt lat="46.05787" lon="3.28215">
        <ele>357.2</ele>
        <time>2024-04-14T08:41:06Z</time>
      </trkpt>
      <trkpt lat="46.05791" lon="3.28222">
        <ele>357.2</ele>
        <time>2024-04-14T08:41:07Z</time>
      </trkpt>
      <trkpt lat="46.05794" lon="3.2823">
        <ele>357.2</ele>
        <time>2024-04-14T08:41:08Z</time>
      </trkpt>
      <trkpt lat="46.05798" lon="3.28237">
        <ele>357.4</ele>
        <time>2024-04-14T08:41:09Z</time>
      </trkpt>
      <trkpt lat="46.05802" lon="3.28245">
        <ele>357.4</ele>
        <time>2024-04-14T08:41:10Z</time>
      </trkpt>
      <trkpt lat="46.05806" lon="3.28252">
        <ele>357.6</ele>
        <time>2024-04-14T08:41:11Z</time>
      </trkpt>
      <trkpt lat="46.0581" lon="3.28259">
        <ele>357.6</ele>
        <time>2024-04-14T08:41:12Z</time>
      </trkpt>
      <trkpt lat="46.05814" lon="3.28266">
        <ele>357.8</ele>
        <time>2024-04-14T08:41:13Z</time>
      </trkpt>
      <trkpt lat="46.05818" lon="3.28274">
        <ele>357.8</ele>
        <time>2024-04-14T08:41:14Z</time>
      </trkpt>
      <trkpt lat="46.05821" lon="3.28281">
        <ele>357.8</ele>
        <time>2024-04-14T08:41:15Z</time>
      </trkpt>
      <trkpt lat="46.05825" lon="3.28289">
        <ele>358</ele>
        <time>2024-04-14T08:41:16Z</time>
      </trkpt>
      <trkpt lat="46.05829" lon="3.28296">
        <ele>358</ele>
        <time>2024-04-14T08:41:17Z</time>
      </trkpt>
      <trkpt lat="46.05833" lon="3.28303">
        <ele>358</ele>
        <time>2024-04-14T08:41:18Z</time>
      </trkpt>
      <trkpt lat="46.05837" lon="3.28311">
        <ele>358.2</ele>
        <time>2024-04-14T08:41:19Z</time>
      </trkpt>
      <trkpt lat="46.0584" lon="3.28318">
        <ele>358.2</ele>
        <time>2024-04-14T08:41:20Z</time>
      </trkpt>
      <trkpt lat="46.05844" lon="3.28326">
        <ele>358.4</ele>
        <time>2024-04-14T08:41:21Z</time>
      </trkpt>
      <trkpt lat="46.05847" lon="3.28333">
        <ele>358.4</ele>
        <time>2024-04-14T08:41:22Z</time>
      </trkpt>
      <trkpt lat="46.05851" lon="3.2834">
        <ele>358.4</ele>
        <time>2024-04-14T08:41:23Z</time>
      </trkpt>
      <trkpt lat="46.05854" lon="3.28348">
        <ele>358.6</ele>
        <time>2024-04-14T08:41:24Z</time>
      </trkpt>
      <trkpt lat="46.05858" lon="3.28355">
        <ele>358.6</ele>
        <time>2024-04-14T08:41:25Z</time>
      </trkpt>
      <trkpt lat="46.05861" lon="3.28363">
        <ele>358.8</ele>
        <time>2024-04-14T08:41:26Z</time>
      </trkpt>
      <trkpt lat="46.05865" lon="3.2837">
        <ele>358.8</ele>
        <time>2024-04-14T08:41:27Z</time>
      </trkpt>
      <trkpt lat="46.05868" lon="3.28378">
        <ele>359</ele>
        <time>2024-04-14T08:41:28Z</time>
      </trkpt>
      <trkpt lat="46.05872" lon="3.28385">
        <ele>359</ele>
        <time>2024-04-14T08:41:29Z</time>
      </trkpt>
      <trkpt lat="46.05875" lon="3.28392">
        <ele>359</ele>
        <time>2024-04-14T08:41:30Z</time>
      </trkpt>
      <trkpt lat="46.05879" lon="3.284">
        <ele>359</ele>
        <time>2024-04-14T08:41:31Z</time>
      </trkpt>
      <trkpt lat="46.05882" lon="3.28407">
        <ele>359.2</ele>
        <time>2024-04-14T08:41:32Z</time>
      </trkpt>
      <trkpt lat="46.05886" lon="3.28415">
        <ele>359.2</ele>
        <time>2024-04-14T08:41:33Z</time>
      </trkpt>
      <trkpt lat="46.05889" lon="3.28422">
        <ele>359.4</ele>
        <time>2024-04-14T08:41:34Z</time>
      </trkpt>
      <trkpt lat="46.05893" lon="3.28429">
        <ele>359.4</ele>
        <time>2024-04-14T08:41:35Z</time>
      </trkpt>
      <trkpt lat="46.05896" lon="3.28437">
        <ele>359.4</ele>
        <time>2024-04-14T08:41:36Z</time>
      </trkpt>
      <trkpt lat="46.059" lon="3.28444">
        <ele>359.6</ele>
        <time>2024-04-14T08:41:37Z</time>
      </trkpt>
      <trkpt lat="46.05903" lon="3.28452">
        <ele>359.6</ele>
        <time>2024-04-14T08:41:38Z</time>
      </trkpt>
      <trkpt lat="46.05907" lon="3.28459">
        <ele>359.6</ele>
        <time>2024-04-14T08:41:39Z</time>
      </trkpt>
      <trkpt lat="46.0591" lon="3.28466">
        <ele>359.8</ele>
        <time>2024-04-14T08:41:40Z</time>
      </trkpt>
      <trkpt lat="46.05913" lon="3.28473">
        <ele>359.8</ele>
        <time>2024-04-14T08:41:41Z</time>
      </trkpt>
      <trkpt lat="46.05917" lon="3.2848">
        <ele>360</ele>
        <time>2024-04-14T08:41:42Z</time>
      </trkpt>
      <trkpt lat="46.0592" lon="3.28488">
        <ele>360</ele>
        <time>2024-04-14T08:41:43Z</time>
      </trkpt>
      <trkpt lat="46.05924" lon="3.28495">
        <ele>360.2</ele>
        <time>2024-04-14T08:41:44Z</time>
      </trkpt>
      <trkpt lat="46.05927" lon="3.28503">
        <ele>360.2</ele>
        <time>2024-04-14T08:41:45Z</time>
      </trkpt>
      <trkpt lat="46.05931" lon="3.2851">
        <ele>360.2</ele>
        <time>2024-04-14T08:41:46Z</time>
      </trkpt>
      <trkpt lat="46.05934" lon="3.28517">
        <ele>360.4</ele>
        <time>2024-04-14T08:41:47Z</time>
      </trkpt>
      <trkpt lat="46.05937" lon="3.28524">
        <ele>360.6</ele>
        <time>2024-04-14T08:41:48Z</time>
      </trkpt>
      <trkpt lat="46.05941" lon="3.28531">
        <ele>360.6</ele>
        <time>2024-04-14T08:41:49Z</time>
      </trkpt>
      <trkpt lat="46.05944" lon="3.28539">
        <ele>360.8</ele>
        <time>2024-04-14T08:41:50Z</time>
      </trkpt>
      <trkpt lat="46.05948" lon="3.28546">
        <ele>360.8</ele>
        <time>2024-04-14T08:41:51Z</time>
      </trkpt>
      <trkpt lat="46.05948" lon="3.28546">
        <ele>361</ele>
        <time>2024-04-14T08:41:52Z</time>
      </trkpt>
      <trkpt lat="46.05954" lon="3.2856">
        <ele>361</ele>
        <time>2024-04-14T08:41:53Z</time>
      </trkpt>
      <trkpt lat="46.05958" lon="3.28567">
        <ele>361.2</ele>
        <time>2024-04-14T08:41:54Z</time>
      </trkpt>
      <trkpt lat="46.05961" lon="3.28574">
        <ele>361.2</ele>
        <time>2024-04-14T08:41:55Z</time>
      </trkpt>
      <trkpt lat="46.05964" lon="3.28581">
        <ele>361.4</ele>
        <time>2024-04-14T08:41:56Z</time>
      </trkpt>
      <trkpt lat="46.05967" lon="3.28588">
        <ele>361.4</ele>
        <time>2024-04-14T08:41:57Z</time>
      </trkpt>
      <trkpt lat="46.05971" lon="3.28594">
        <ele>361.4</ele>
        <time>2024-04-14T08:41:58Z</time>
      </trkpt>
      <trkpt lat="46.05974" lon="3.28601">
        <ele>361.6</ele>
        <time>2024-04-14T08:41:59Z</time>
      </trkpt>
      <trkpt lat="46.05977" lon="3.28607">
        <ele>361.8</ele>
        <time>2024-04-14T08:42:00Z</time>
      </trkpt>
      <trkpt lat="46.0598" lon="3.28613">
        <ele>361.8</ele>
        <time>2024-04-14T08:42:01Z</time>
      </trkpt>
      <trkpt lat="46.05983" lon="3.2862">
        <ele>362</ele>
        <time>2024-04-14T08:42:02Z</time>
      </trkpt>
      <trkpt lat="46.05985" lon="3.28626">
        <ele>362</ele>
        <time>2024-04-14T08:42:03Z</time>
      </trkpt>
      <trkpt lat="46.05987" lon="3.28632">
        <ele>362.2</ele>
        <time>2024-04-14T08:42:04Z</time>
      </trkpt>
      <trkpt lat="46.0599" lon="3.28639">
        <ele>362.2</ele>
        <time>2024-04-14T08:42:05Z</time>
      </trkpt>
      <trkpt lat="46.05992" lon="3.28645">
        <ele>362.4</ele>
        <time>2024-04-14T08:42:06Z</time>
      </trkpt>
      <trkpt lat="46.05994" lon="3.28651">
        <ele>362.4</ele>
        <time>2024-04-14T08:42:07Z</time>
      </trkpt>
      <trkpt lat="46.05996" lon="3.28656">
        <ele>362.6</ele>
        <time>2024-04-14T08:42:08Z</time>
      </trkpt>
      <trkpt lat="46.05998" lon="3.28662">
        <ele>362.6</ele>
        <time>2024-04-14T08:42:09Z</time>
      </trkpt>
      <trkpt lat="46.06" lon="3.28668">
        <ele>362.8</ele>
        <time>2024-04-14T08:42:10Z</time>
      </trkpt>
      <trkpt lat="46.06002" lon="3.28674">
        <ele>362.8</ele>
        <time>2024-04-14T08:42:11Z</time>
      </trkpt>
      <trkpt lat="46.06004" lon="3.2868">
        <ele>363</ele>
        <time>2024-04-14T08:42:12Z</time>
      </trkpt>
      <trkpt lat="46.06006" lon="3.28686">
        <ele>363.2</ele>
        <time>2024-04-14T08:42:13Z</time>
      </trkpt>
      <trkpt lat="46.06008" lon="3.28691">
        <ele>363.2</ele>
        <time>2024-04-14T08:42:14Z</time>
      </trkpt>
      <trkpt lat="46.0601" lon="3.28696">
        <ele>363.4</ele>
        <time>2024-04-14T08:42:15Z</time>
      </trkpt>
      <trkpt lat="46.06012" lon="3.28702">
        <ele>363.6</ele>
        <time>2024-04-14T08:42:16Z</time>
      </trkpt>
      <trkpt lat="46.06014" lon="3.28707">
        <ele>363.6</ele>
        <time>2024-04-14T08:42:17Z</time>
      </trkpt>
      <trkpt lat="46.06016" lon="3.28713">
        <ele>363.8</ele>
        <time>2024-04-14T08:42:18Z</time>
      </trkpt>
      <trkpt lat="46.06018" lon="3.28718">
        <ele>364</ele>
        <time>2024-04-14T08:42:19Z</time>
      </trkpt>
      <trkpt lat="46.06019" lon="3.28723">
        <ele>364</ele>
        <time>2024-04-14T08:42:20Z</time>
      </trkpt>
      <trkpt lat="46.06021" lon="3.28729">
        <ele>364.2</ele>
        <time>2024-04-14T08:42:21Z</time>
      </trkpt>
      <trkpt lat="46.06023" lon="3.28734">
        <ele>364.4</ele>
        <time>2024-04-14T08:42:22Z</time>
      </trkpt>
      <trkpt lat="46.06024" lon="3.28739">
        <ele>364.4</ele>
        <time>2024-04-14T08:42:23Z</time>
      </trkpt>
      <trkpt lat="46.06026" lon="3.28745">
        <ele>364.6</ele>
        <time>2024-04-14T08:42:24Z</time>
      </trkpt>
      <trkpt lat="46.06027" lon="3.2875">
        <ele>364.8</ele>
        <time>2024-04-14T08:42:25Z</time>
      </trkpt>
      <trkpt lat="46.06028" lon="3.28755">
        <ele>364.8</ele>
        <time>2024-04-14T08:42:26Z</time>
      </trkpt>
      <trkpt lat="46.0603" lon="3.2876">
        <ele>365</ele>
        <time>2024-04-14T08:42:27Z</time>
      </trkpt>
      <trkpt lat="46.06031" lon="3.28765">
        <ele>365.2</ele>
        <time>2024-04-14T08:42:28Z</time>
      </trkpt>
      <trkpt lat="46.06032" lon="3.2877">
        <ele>365.4</ele>
        <time>2024-04-14T08:42:29Z</time>
      </trkpt>
      <trkpt lat="46.06033" lon="3.28775">
        <ele>365.4</ele>
        <time>2024-04-14T08:42:30Z</time>
      </trkpt>
      <trkpt lat="46.06035" lon="3.2878">
        <ele>365.6</ele>
        <time>2024-04-14T08:42:31Z</time>
      </trkpt>
      <trkpt lat="46.06036" lon="3.28785">
        <ele>365.8</ele>
        <time>2024-04-14T08:42:32Z</time>
      </trkpt>
      <trkpt lat="46.06037" lon="3.28791">
        <ele>366</ele>
        <time>2024-04-14T08:42:33Z</time>
      </trkpt>
      <trkpt lat="46.06039" lon="3.28796">
        <ele>366.2</ele>
        <time>2024-04-14T08:42:34Z</time>
      </trkpt>
      <trkpt lat="46.0604" lon="3.28801">
        <ele>366.4</ele>
        <time>2024-04-14T08:42:35Z</time>
      </trkpt>
      <trkpt lat="46.06041" lon="3.28806">
        <ele>366.4</ele>
        <time>2024-04-14T08:42:36Z</time>
      </trkpt>
      <trkpt lat="46.06042" lon="3.28811">
        <ele>366.6</ele>
        <time>2024-04-14T08:42:37Z</time>
      </trkpt>
      <trkpt lat="46.06044" lon="3.28815">
        <ele>366.8</ele>
        <time>2024-04-14T08:42:38Z</time>
      </trkpt>
      <trkpt lat="46.06045" lon="3.2882">
        <ele>367</ele>
        <time>2024-04-14T08:42:39Z</time>
      </trkpt>
      <trkpt lat="46.06046" lon="3.28825">
        <ele>367.2</ele>
        <time>2024-04-14T08:42:40Z</time>
      </trkpt>
      <trkpt lat="46.06047" lon="3.2883">
        <ele>367.2</ele>
        <time>2024-04-14T08:42:41Z</time>
      </trkpt>
      <trkpt lat="46.06048" lon="3.28834">
        <ele>367.4</ele>
        <time>2024-04-14T08:42:42Z</time>
      </trkpt>
      <trkpt lat="46.0605" lon="3.28839">
        <ele>367.6</ele>
        <time>2024-04-14T08:42:43Z</time>
      </trkpt>
      <trkpt lat="46.06051" lon="3.28844">
        <ele>367.8</ele>
        <time>2024-04-14T08:42:44Z</time>
      </trkpt>
      <trkpt lat="46.06052" lon="3.28849">
        <ele>368</ele>
        <time>2024-04-14T08:42:45Z</time>
      </trkpt>
      <trkpt lat="46.06053" lon="3.28854">
        <ele>368.2</ele>
        <time>2024-04-14T08:42:46Z</time>
      </trkpt>
      <trkpt lat="46.06055" lon="3.28859">
        <ele>368.4</ele>
        <time>2024-04-14T08:42:47Z</time>
      </trkpt>
      <trkpt lat="46.06056" lon="3.28864">
        <ele>368.6</ele>
        <time>2024-04-14T08:42:48Z</time>
      </trkpt>
      <trkpt lat="46.06057" lon="3.28869">
        <ele>368.6</ele>
        <time>2024-04-14T08:42:49Z</time>
      </trkpt>
      <trkpt lat="46.06059" lon="3.28874">
        <ele>368.8</ele>
        <time>2024-04-14T08:42:50Z</time>
      </trkpt>
      <trkpt lat="46.06061" lon="3.28879">
        <ele>369</ele>
        <time>2024-04-14T08:42:51Z</time>
      </trkpt>
      <trkpt lat="46.06063" lon="3.28884">
        <ele>369.2</ele>
        <time>2024-04-14T08:42:52Z</time>
      </trkpt>
      <trkpt lat="46.06065" lon="3.28888">
        <ele>369.4</ele>
        <time>2024-04-14T08:42:53Z</time>
      </trkpt>
      <trkpt lat="46.06067" lon="3.28892">
        <ele>369.6</ele>
        <time>2024-04-14T08:42:54Z</time>
      </trkpt>
      <trkpt lat="46.06069" lon="3.28897">
        <ele>369.8</ele>
        <time>2024-04-14T08:42:55Z</time>
      </trkpt>
      <trkpt lat="46.06071" lon="3.28902">
        <ele>370</ele>
        <time>2024-04-14T08:42:56Z</time>
      </trkpt>
      <trkpt lat="46.06073" lon="3.28907">
        <ele>370.2</ele>
        <time>2024-04-14T08:42:57Z</time>
      </trkpt>
      <trkpt lat="46.06076" lon="3.28911">
        <ele>370.4</ele>
        <time>2024-04-14T08:42:58Z</time>
      </trkpt>
      <trkpt lat="46.06077" lon="3.28916">
        <ele>370.6</ele>
        <time>2024-04-14T08:42:59Z</time>
      </trkpt>
      <trkpt lat="46.06079" lon="3.2892">
        <ele>370.8</ele>
        <time>2024-04-14T08:43:00Z</time>
      </trkpt>
      <trkpt lat="46.06082" lon="3.28924">
        <ele>371</ele>
        <time>2024-04-14T08:43:01Z</time>
      </trkpt>
      <trkpt lat="46.06084" lon="3.28929">
        <ele>371.2</ele>
        <time>2024-04-14T08:43:02Z</time>
      </trkpt>
      <trkpt lat="46.06085" lon="3.28933">
        <ele>371.4</ele>
        <time>2024-04-14T08:43:03Z</time>
      </trkpt>
      <trkpt lat="46.06087" lon="3.28937">
        <ele>371.6</ele>
        <time>2024-04-14T08:43:04Z</time>
      </trkpt>
      <trkpt lat="46.06089" lon="3.28941">
        <ele>371.8</ele>
        <time>2024-04-14T08:43:05Z</time>
      </trkpt>
      <trkpt lat="46.06091" lon="3.28945">
        <ele>372.2</ele>
        <time>2024-04-14T08:43:06Z</time>
      </trkpt>
      <trkpt lat="46.06093" lon="3.28949">
        <ele>372.4</ele>
        <time>2024-04-14T08:43:07Z</time>
      </trkpt>
      <trkpt lat="46.06095" lon="3.28953">
        <ele>372.6</ele>
        <time>2024-04-14T08:43:08Z</time>
      </trkpt>
      <trkpt lat="46.06097" lon="3.28957">
        <ele>372.8</ele>
        <time>2024-04-14T08:43:09Z</time>
      </trkpt>
      <trkpt lat="46.06098" lon="3.28961">
        <ele>373</ele>
        <time>2024-04-14T08:43:10Z</time>
      </trkpt>
      <trkpt lat="46.061" lon="3.28965">
        <ele>373.2</ele>
        <time>2024-04-14T08:43:11Z</time>
      </trkpt>
      <trkpt lat="46.06102" lon="3.28968">
        <ele>373.4</ele>
        <time>2024-04-14T08:43:12Z</time>
      </trkpt>
      <trkpt lat="46.06104" lon="3.28972">
        <ele>373.6</ele>
        <time>2024-04-14T08:43:13Z</time>
      </trkpt>
      <trkpt lat="46.06106" lon="3.28977">
        <ele>373.6</ele>
        <time>2024-04-14T08:43:14Z</time>
      </trkpt>
      <trkpt lat="46.06108" lon="3.28981">
        <ele>373.8</ele>
        <time>2024-04-14T08:43:15Z</time>
      </trkpt>
      <trkpt lat="46.0611" lon="3.28985">
        <ele>374</ele>
        <time>2024-04-14T08:43:16Z</time>
      </trkpt>
      <trkpt lat="46.06112" lon="3.28989">
        <ele>374.2</ele>
        <time>2024-04-14T08:43:17Z</time>
      </trkpt>
      <trkpt lat="46.06114" lon="3.28994">
        <ele>374.4</ele>
        <time>2024-04-14T08:43:18Z</time>
      </trkpt>
      <trkpt lat="46.06116" lon="3.28998">
        <ele>374.6</ele>
        <time>2024-04-14T08:43:19Z</time>
      </trkpt>
      <trkpt lat="46.06118" lon="3.29003">
        <ele>374.8</ele>
        <time>2024-04-14T08:43:20Z</time>
      </trkpt>
      <trkpt lat="46.0612" lon="3.29007">
        <ele>375</ele>
        <time>2024-04-14T08:43:21Z</time>
      </trkpt>
      <trkpt lat="46.06122" lon="3.29012">
        <ele>375.2</ele>
        <time>2024-04-14T08:43:22Z</time>
      </trkpt>
      <trkpt lat="46.06124" lon="3.29016">
        <ele>375.4</ele>
        <time>2024-04-14T08:43:23Z</time>
      </trkpt>
      <trkpt lat="46.06126" lon="3.29021">
        <ele>375.6</ele>
        <time>2024-04-14T08:43:24Z</time>
      </trkpt>
      <trkpt lat="46.06127" lon="3.29026">
        <ele>375.8</ele>
        <time>2024-04-14T08:43:25Z</time>
      </trkpt>
      <trkpt lat="46.06129" lon="3.29031">
        <ele>376</ele>
        <time>2024-04-14T08:43:26Z</time>
      </trkpt>
      <trkpt lat="46.06131" lon="3.29037">
        <ele>376.2</ele>
        <time>2024-04-14T08:43:27Z</time>
      </trkpt>
      <trkpt lat="46.06132" lon="3.29042">
        <ele>376.4</ele>
        <time>2024-04-14T08:43:28Z</time>
      </trkpt>
      <trkpt lat="46.06134" lon="3.29047">
        <ele>376.6</ele>
        <time>2024-04-14T08:43:29Z</time>
      </trkpt>
      <trkpt lat="46.06136" lon="3.29052">
        <ele>376.8</ele>
        <time>2024-04-14T08:43:30Z</time>
      </trkpt>
      <trkpt lat="46.06137" lon="3.29058">
        <ele>377</ele>
        <time>2024-04-14T08:43:31Z</time>
      </trkpt>
      <trkpt lat="46.06139" lon="3.29063">
        <ele>377.2</ele>
        <time>2024-04-14T08:43:32Z</time>
      </trkpt>
      <trkpt lat="46.06141" lon="3.29069">
        <ele>377.4</ele>
        <time>2024-04-14T08:43:33Z</time>
      </trkpt>
      <trkpt lat="46.06143" lon="3.29076">
        <ele>377.6</ele>
        <time>2024-04-14T08:43:34Z</time>
      </trkpt>
      <trkpt lat="46.06144" lon="3.29082">
        <ele>377.8</ele>
        <time>2024-04-14T08:43:35Z</time>
      </trkpt>
      <trkpt lat="46.06144" lon="3.29088">
        <ele>378</ele>
        <time>2024-04-14T08:43:36Z</time>
      </trkpt>
      <trkpt lat="46.06145" lon="3.29094">
        <ele>378</ele>
        <time>2024-04-14T08:43:37Z</time>
      </trkpt>
      <trkpt lat="46.06146" lon="3.29101">
        <ele>378.2</ele>
        <time>2024-04-14T08:43:38Z</time>
      </trkpt>
      <trkpt lat="46.06147" lon="3.29108">
        <ele>378.4</ele>
        <time>2024-04-14T08:43:39Z</time>
      </trkpt>
      <trkpt lat="46.06148" lon="3.29115">
        <ele>378.6</ele>
        <time>2024-04-14T08:43:40Z</time>
      </trkpt>
      <trkpt lat="46.06149" lon="3.29122">
        <ele>378.8</ele>
        <time>2024-04-14T08:43:41Z</time>
      </trkpt>
      <trkpt lat="46.0615" lon="3.29129">
        <ele>378.8</ele>
        <time>2024-04-14T08:43:42Z</time>
      </trkpt>
      <trkpt lat="46.06151" lon="3.29136">
        <ele>379</ele>
        <time>2024-04-14T08:43:43Z</time>
      </trkpt>
      <trkpt lat="46.06152" lon="3.29143">
        <ele>379.2</ele>
        <time>2024-04-14T08:43:44Z</time>
      </trkpt>
      <trkpt lat="46.06153" lon="3.29151">
        <ele>379.4</ele>
        <time>2024-04-14T08:43:45Z</time>
      </trkpt>
      <trkpt lat="46.06155" lon="3.29158">
        <ele>379.4</ele>
        <time>2024-04-14T08:43:46Z</time>
      </trkpt>
      <trkpt lat="46.06156" lon="3.29166">
        <ele>379.6</ele>
        <time>2024-04-14T08:43:47Z</time>
      </trkpt>
      <trkpt lat="46.06157" lon="3.29174">
        <ele>379.6</ele>
        <time>2024-04-14T08:43:48Z</time>
      </trkpt>
      <trkpt lat="46.06158" lon="3.29182">
        <ele>379.8</ele>
        <time>2024-04-14T08:43:49Z</time>
      </trkpt>
      <trkpt lat="46.06159" lon="3.2919">
        <ele>380</ele>
        <time>2024-04-14T08:43:50Z</time>
      </trkpt>
      <trkpt lat="46.0616" lon="3.29198">
        <ele>380.2</ele>
        <time>2024-04-14T08:43:51Z</time>
      </trkpt>
      <trkpt lat="46.06162" lon="3.29206">
        <ele>380.2</ele>
        <time>2024-04-14T08:43:52Z</time>
      </trkpt>
      <trkpt lat="46.06163" lon="3.29215">
        <ele>380.4</ele>
        <time>2024-04-14T08:43:53Z</time>
      </trkpt>
      <trkpt lat="46.06164" lon="3.29223">
        <ele>380.6</ele>
        <time>2024-04-14T08:43:54Z</time>
      </trkpt>
      <trkpt lat="46.06165" lon="3.29232">
        <ele>380.6</ele>
        <time>2024-04-14T08:43:55Z</time>
      </trkpt>
      <trkpt lat="46.06166" lon="3.2924">
        <ele>380.8</ele>
        <time>2024-04-14T08:43:56Z</time>
      </trkpt>
      <trkpt lat="46.06168" lon="3.29249">
        <ele>381</ele>
        <time>2024-04-14T08:43:57Z</time>
      </trkpt>
      <trkpt lat="46.06169" lon="3.29257">
        <ele>381</ele>
        <time>2024-04-14T08:43:58Z</time>
      </trkpt>
      <trkpt lat="46.06171" lon="3.29265">
        <ele>381.2</ele>
        <time>2024-04-14T08:43:59Z</time>
      </trkpt>
      <trkpt lat="46.06173" lon="3.29274">
        <ele>381.2</ele>
        <time>2024-04-14T08:44:00Z</time>
      </trkpt>
      <trkpt lat="46.06175" lon="3.29282">
        <ele>381.4</ele>
        <time>2024-04-14T08:44:01Z</time>
      </trkpt>
      <trkpt lat="46.06177" lon="3.2929">
        <ele>381.6</ele>
        <time>2024-04-14T08:44:02Z</time>
      </trkpt>
      <trkpt lat="46.06179" lon="3.29297">
        <ele>381.6</ele>
        <time>2024-04-14T08:44:03Z</time>
      </trkpt>
      <trkpt lat="46.06181" lon="3.29305">
        <ele>381.8</ele>
        <time>2024-04-14T08:44:04Z</time>
      </trkpt>
      <trkpt lat="46.06183" lon="3.29313">
        <ele>381.8</ele>
        <time>2024-04-14T08:44:05Z</time>
      </trkpt>
      <trkpt lat="46.06186" lon="3.2932">
        <ele>381.8</ele>
        <time>2024-04-14T08:44:06Z</time>
      </trkpt>
      <trkpt lat="46.06188" lon="3.29327">
        <ele>381.8</ele>
        <time>2024-04-14T08:44:07Z</time>
      </trkpt>
      <trkpt lat="46.0619" lon="3.29335">
        <ele>382</ele>
        <time>2024-04-14T08:44:08Z</time>
      </trkpt>
      <trkpt lat="46.06193" lon="3.29343">
        <ele>382</ele>
        <time>2024-04-14T08:44:09Z</time>
      </trkpt>
      <trkpt lat="46.06196" lon="3.29351">
        <ele>382</ele>
        <time>2024-04-14T08:44:10Z</time>
      </trkpt>
      <trkpt lat="46.06198" lon="3.29359">
        <ele>382.2</ele>
        <time>2024-04-14T08:44:11Z</time>
      </trkpt>
      <trkpt lat="46.06201" lon="3.29367">
        <ele>382.2</ele>
        <time>2024-04-14T08:44:12Z</time>
      </trkpt>
      <trkpt lat="46.06204" lon="3.29376">
        <ele>382.4</ele>
        <time>2024-04-14T08:44:13Z</time>
      </trkpt>
      <trkpt lat="46.06207" lon="3.29385">
        <ele>382.4</ele>
        <time>2024-04-14T08:44:14Z</time>
      </trkpt>
      <trkpt lat="46.0621" lon="3.29394">
        <ele>382.4</ele>
        <time>2024-04-14T08:44:15Z</time>
      </trkpt>
      <trkpt lat="46.06213" lon="3.29403">
        <ele>382.6</ele>
        <time>2024-04-14T08:44:16Z</time>
      </trkpt>
      <trkpt lat="46.06216" lon="3.29411">
        <ele>382.6</ele>
        <time>2024-04-14T08:44:17Z</time>
      </trkpt>
      <trkpt lat="46.0622" lon="3.2942">
        <ele>382.8</ele>
        <time>2024-04-14T08:44:18Z</time>
      </trkpt>
      <trkpt lat="46.06224" lon="3.29428">
        <ele>382.8</ele>
        <time>2024-04-14T08:44:19Z</time>
      </trkpt>
      <trkpt lat="46.06228" lon="3.29437">
        <ele>383</ele>
        <time>2024-04-14T08:44:20Z</time>
      </trkpt>
      <trkpt lat="46.06232" lon="3.29446">
        <ele>383</ele>
        <time>2024-04-14T08:44:21Z</time>
      </trkpt>
      <trkpt lat="46.06236" lon="3.29454">
        <ele>383</ele>
        <time>2024-04-14T08:44:22Z</time>
      </trkpt>
      <trkpt lat="46.0624" lon="3.29463">
        <ele>383.2</ele>
        <time>2024-04-14T08:44:23Z</time>
      </trkpt>
      <trkpt lat="46.06244" lon="3.29472">
        <ele>383.2</ele>
        <time>2024-04-14T08:44:24Z</time>
      </trkpt>
      <trkpt lat="46.06248" lon="3.2948">
        <ele>383.4</ele>
        <time>2024-04-14T08:44:25Z</time>
      </trkpt>
      <trkpt lat="46.06252" lon="3.29489">
        <ele>383.4</ele>
        <time>2024-04-14T08:44:26Z</time>
      </trkpt>
      <trkpt lat="46.06256" lon="3.29497">
        <ele>383.4</ele>
        <time>2024-04-14T08:44:27Z</time>
      </trkpt>
      <trkpt lat="46.0626" lon="3.29506">
        <ele>383.6</ele>
        <time>2024-04-14T08:44:28Z</time>
      </trkpt>
      <trkpt lat="46.06264" lon="3.29515">
        <ele>383.6</ele>
        <time>2024-04-14T08:44:29Z</time>
      </trkpt>
      <trkpt lat="46.06268" lon="3.29523">
        <ele>383.8</ele>
        <time>2024-04-14T08:44:30Z</time>
      </trkpt>
      <trkpt lat="46.06272" lon="3.29532">
        <ele>383.8</ele>
        <time>2024-04-14T08:44:31Z</time>
      </trkpt>
      <trkpt lat="46.06277" lon="3.29541">
        <ele>383.8</ele>
        <time>2024-04-14T08:44:32Z</time>
      </trkpt>
      <trkpt lat="46.06281" lon="3.2955">
        <ele>383.8</ele>
        <time>2024-04-14T08:44:33Z</time>
      </trkpt>
      <trkpt lat="46.06286" lon="3.29559">
        <ele>384</ele>
        <time>2024-04-14T08:44:34Z</time>
      </trkpt>
      <trkpt lat="46.0629" lon="3.29568">
        <ele>384</ele>
        <time>2024-04-14T08:44:35Z</time>
      </trkpt>
      <trkpt lat="46.06295" lon="3.29577">
        <ele>384</ele>
        <time>2024-04-14T08:44:36Z</time>
      </trkpt>
      <trkpt lat="46.06299" lon="3.29586">
        <ele>384</ele>
        <time>2024-04-14T08:44:37Z</time>
      </trkpt>
      <trkpt lat="46.06304" lon="3.29595">
        <ele>384.2</ele>
        <time>2024-04-14T08:44:38Z</time>
      </trkpt>
      <trkpt lat="46.06308" lon="3.29604">
        <ele>384.2</ele>
        <time>2024-04-14T08:44:39Z</time>
      </trkpt>
      <trkpt lat="46.06313" lon="3.29613">
        <ele>384.2</ele>
        <time>2024-04-14T08:44:40Z</time>
      </trkpt>
      <trkpt lat="46.06318" lon="3.29622">
        <ele>384.2</ele>
        <time>2024-04-14T08:44:41Z</time>
      </trkpt>
      <trkpt lat="46.06321" lon="3.2963">
        <ele>384.2</ele>
        <time>2024-04-14T08:44:42Z</time>
      </trkpt>
      <trkpt lat="46.06324" lon="3.29636">
        <ele>384</ele>
        <time>2024-04-14T08:44:43Z</time>
      </trkpt>
      <trkpt lat="46.06328" lon="3.29643">
        <ele>383.6</ele>
        <time>2024-04-14T08:44:44Z</time>
      </trkpt>
      <trkpt lat="46.06332" lon="3.29651">
        <ele>383.6</ele>
        <time>2024-04-14T08:44:45Z</time>
      </trkpt>
      <trkpt lat="46.06336" lon="3.29659">
        <ele>382.4</ele>
        <time>2024-04-14T08:44:46Z</time>
      </trkpt>
      <trkpt lat="46.0634" lon="3.29667">
        <ele>383</ele>
        <time>2024-04-14T08:44:47Z</time>
      </trkpt>
      <trkpt lat="46.06344" lon="3.29676">
        <ele>382.6</ele>
        <time>2024-04-14T08:44:48Z</time>
      </trkpt>
      <trkpt lat="46.06349" lon="3.29685">
        <ele>382.4</ele>
        <time>2024-04-14T08:44:49Z</time>
      </trkpt>
      <trkpt lat="46.06353" lon="3.29694">
        <ele>382.2</ele>
        <time>2024-04-14T08:44:50Z</time>
      </trkpt>
      <trkpt lat="46.06358" lon="3.29702">
        <ele>382</ele>
        <time>2024-04-14T08:44:51Z</time>
      </trkpt>
      <trkpt lat="46.06362" lon="3.29711">
        <ele>381.8</ele>
        <time>2024-04-14T08:44:52Z</time>
      </trkpt>
      <trkpt lat="46.06368" lon="3.29719">
        <ele>381.6</ele>
        <time>2024-04-14T08:44:53Z</time>
      </trkpt>
      <trkpt lat="46.06374" lon="3.29726">
        <ele>381.6</ele>
        <time>2024-04-14T08:44:54Z</time>
      </trkpt>
      <trkpt lat="46.0638" lon="3.29732">
        <ele>381.4</ele>
        <time>2024-04-14T08:44:55Z</time>
      </trkpt>
      <trkpt lat="46.06385" lon="3.29739">
        <ele>381.4</ele>
        <time>2024-04-14T08:44:56Z</time>
      </trkpt>
      <trkpt lat="46.06391" lon="3.29745">
        <ele>381.2</ele>
        <time>2024-04-14T08:44:57Z</time>
      </trkpt>
      <trkpt lat="46.06397" lon="3.29751">
        <ele>381</ele>
        <time>2024-04-14T08:44:58Z</time>
      </trkpt>
      <trkpt lat="46.06402" lon="3.29757">
        <ele>380.8</ele>
        <time>2024-04-14T08:44:59Z</time>
      </trkpt>
      <trkpt lat="46.06407" lon="3.29763">
        <ele>381</ele>
        <time>2024-04-14T08:45:00Z</time>
      </trkpt>
      <trkpt lat="46.06412" lon="3.29769">
        <ele>380.8</ele>
        <time>2024-04-14T08:45:01Z</time>
      </trkpt>
      <trkpt lat="46.06418" lon="3.29775">
        <ele>380.6</ele>
        <time>2024-04-14T08:45:02Z</time>
      </trkpt>
      <trkpt lat="46.06423" lon="3.29781">
        <ele>380.4</ele>
        <time>2024-04-14T08:45:03Z</time>
      </trkpt>
      <trkpt lat="46.06429" lon="3.29787">
        <ele>380.2</ele>
        <time>2024-04-14T08:45:04Z</time>
      </trkpt>
      <trkpt lat="46.06434" lon="3.29793">
        <ele>380</ele>
        <time>2024-04-14T08:45:05Z</time>
      </trkpt>
      <trkpt lat="46.0644" lon="3.29799">
        <ele>380</ele>
        <time>2024-04-14T08:45:06Z</time>
      </trkpt>
      <trkpt lat="46.06446" lon="3.29805">
        <ele>380</ele>
        <time>2024-04-14T08:45:07Z</time>
      </trkpt>
      <trkpt lat="46.06451" lon="3.29812">
        <ele>380</ele>
        <time>2024-04-14T08:45:08Z</time>
      </trkpt>
      <trkpt lat="46.06457" lon="3.29818">
        <ele>380.2</ele>
        <time>2024-04-14T08:45:09Z</time>
      </trkpt>
      <trkpt lat="46.06463" lon="3.29825">
        <ele>380.4</ele>
        <time>2024-04-14T08:45:10Z</time>
      </trkpt>
      <trkpt lat="46.06469" lon="3.29831">
        <ele>380.4</ele>
        <time>2024-04-14T08:45:11Z</time>
      </trkpt>
      <trkpt lat="46.06475" lon="3.29838">
        <ele>380.4</ele>
        <time>2024-04-14T08:45:12Z</time>
      </trkpt>
      <trkpt lat="46.06481" lon="3.29845">
        <ele>380.4</ele>
        <time>2024-04-14T08:45:13Z</time>
      </trkpt>
      <trkpt lat="46.06487" lon="3.29852">
        <ele>380.4</ele>
        <time>2024-04-14T08:45:14Z</time>
      </trkpt>
      <trkpt lat="46.06493" lon="3.29859">
        <ele>380.4</ele>
        <time>2024-04-14T08:45:15Z</time>
      </trkpt>
      <trkpt lat="46.06499" lon="3.29865">
        <ele>380.4</ele>
        <time>2024-04-14T08:45:16Z</time>
      </trkpt>
      <trkpt lat="46.06505" lon="3.29872">
        <ele>380.4</ele>
        <time>2024-04-14T08:45:17Z</time>
      </trkpt>
      <trkpt lat="46.0651" lon="3.29879">
        <ele>380.4</ele>
        <time>2024-04-14T08:45:18Z</time>
      </trkpt>
      <trkpt lat="46.06516" lon="3.29886">
        <ele>380.4</ele>
        <time>2024-04-14T08:45:19Z</time>
      </trkpt>
      <trkpt lat="46.06521" lon="3.29893">
        <ele>380.4</ele>
        <time>2024-04-14T08:45:20Z</time>
      </trkpt>
      <trkpt lat="46.06527" lon="3.299">
        <ele>380.4</ele>
        <time>2024-04-14T08:45:21Z</time>
      </trkpt>
      <trkpt lat="46.06532" lon="3.29907">
        <ele>380.4</ele>
        <time>2024-04-14T08:45:22Z</time>
      </trkpt>
      <trkpt lat="46.06538" lon="3.29914">
        <ele>380.4</ele>
        <time>2024-04-14T08:45:23Z</time>
      </trkpt>
      <trkpt lat="46.06543" lon="3.29921">
        <ele>379.8</ele>
        <time>2024-04-14T08:45:24Z</time>
      </trkpt>
      <trkpt lat="46.06549" lon="3.29928">
        <ele>380</ele>
        <time>2024-04-14T08:45:25Z</time>
      </trkpt>
      <trkpt lat="46.06555" lon="3.29935">
        <ele>380.2</ele>
        <time>2024-04-14T08:45:26Z</time>
      </trkpt>
      <trkpt lat="46.0656" lon="3.29942">
        <ele>380.6</ele>
        <time>2024-04-14T08:45:27Z</time>
      </trkpt>
      <trkpt lat="46.06566" lon="3.2995">
        <ele>380.8</ele>
        <time>2024-04-14T08:45:28Z</time>
      </trkpt>
      <trkpt lat="46.06572" lon="3.29957">
        <ele>380.8</ele>
        <time>2024-04-14T08:45:29Z</time>
      </trkpt>
      <trkpt lat="46.06577" lon="3.29964">
        <ele>380.6</ele>
        <time>2024-04-14T08:45:30Z</time>
      </trkpt>
      <trkpt lat="46.06583" lon="3.29971">
        <ele>381</ele>
        <time>2024-04-14T08:45:31Z</time>
      </trkpt>
      <trkpt lat="46.06588" lon="3.29978">
        <ele>380.6</ele>
        <time>2024-04-14T08:45:32Z</time>
      </trkpt>
      <trkpt lat="46.06594" lon="3.29985">
        <ele>380.6</ele>
        <time>2024-04-14T08:45:33Z</time>
      </trkpt>
      <trkpt lat="46.066" lon="3.29993">
        <ele>380.6</ele>
        <time>2024-04-14T08:45:34Z</time>
      </trkpt>
      <trkpt lat="46.06606" lon="3.3">
        <ele>380.6</ele>
        <time>2024-04-14T08:45:35Z</time>
      </trkpt>
      <trkpt lat="46.06611" lon="3.30008">
        <ele>380.6</ele>
        <time>2024-04-14T08:45:36Z</time>
      </trkpt>
      <trkpt lat="46.06617" lon="3.30017">
        <ele>380.6</ele>
        <time>2024-04-14T08:45:37Z</time>
      </trkpt>
      <trkpt lat="46.06622" lon="3.30025">
        <ele>380.8</ele>
        <time>2024-04-14T08:45:38Z</time>
      </trkpt>
      <trkpt lat="46.06628" lon="3.30033">
        <ele>380.8</ele>
        <time>2024-04-14T08:45:39Z</time>
      </trkpt>
      <trkpt lat="46.06634" lon="3.30042">
        <ele>380.8</ele>
        <time>2024-04-14T08:45:40Z</time>
      </trkpt>
      <trkpt lat="46.06639" lon="3.3005">
        <ele>380.8</ele>
        <time>2024-04-14T08:45:41Z</time>
      </trkpt>
      <trkpt lat="46.06645" lon="3.30059">
        <ele>380.8</ele>
        <time>2024-04-14T08:45:42Z</time>
      </trkpt>
      <trkpt lat="46.06651" lon="3.30068">
        <ele>380.8</ele>
        <time>2024-04-14T08:45:43Z</time>
      </trkpt>
      <trkpt lat="46.06657" lon="3.30076">
        <ele>380.8</ele>
        <time>2024-04-14T08:45:44Z</time>
      </trkpt>
      <trkpt lat="46.06662" lon="3.30085">
        <ele>380.8</ele>
        <time>2024-04-14T08:45:45Z</time>
      </trkpt>
      <trkpt lat="46.06668" lon="3.30094">
        <ele>380.8</ele>
        <time>2024-04-14T08:45:46Z</time>
      </trkpt>
      <trkpt lat="46.06674" lon="3.30103">
        <ele>380.8</ele>
        <time>2024-04-14T08:45:47Z</time>
      </trkpt>
      <trkpt lat="46.0668" lon="3.30112">
        <ele>380.8</ele>
        <time>2024-04-14T08:45:48Z</time>
      </trkpt>
      <trkpt lat="46.06687" lon="3.30121">
        <ele>380.6</ele>
        <time>2024-04-14T08:45:49Z</time>
      </trkpt>
      <trkpt lat="46.06693" lon="3.3013">
        <ele>380.8</ele>
        <time>2024-04-14T08:45:50Z</time>
      </trkpt>
      <trkpt lat="46.06699" lon="3.30139">
        <ele>380.8</ele>
        <time>2024-04-14T08:45:51Z</time>
      </trkpt>
      <trkpt lat="46.06705" lon="3.30149">
        <ele>380.6</ele>
        <time>2024-04-14T08:45:52Z</time>
      </trkpt>
      <trkpt lat="46.06711" lon="3.30158">
        <ele>380.6</ele>
        <time>2024-04-14T08:45:53Z</time>
      </trkpt>
      <trkpt lat="46.06717" lon="3.30167">
        <ele>380.6</ele>
        <time>2024-04-14T08:45:54Z</time>
      </trkpt>
      <trkpt lat="46.06724" lon="3.30177">
        <ele>380.6</ele>
        <time>2024-04-14T08:45:55Z</time>
      </trkpt>
      <trkpt lat="46.0673" lon="3.30186">
        <ele>380.6</ele>
        <time>2024-04-14T08:45:56Z</time>
      </trkpt>
      <trkpt lat="46.06736" lon="3.30195">
        <ele>380.6</ele>
        <time>2024-04-14T08:45:57Z</time>
      </trkpt>
      <trkpt lat="46.06742" lon="3.30204">
        <ele>380.6</ele>
        <time>2024-04-14T08:45:58Z</time>
      </trkpt>
      <trkpt lat="46.06748" lon="3.30213">
        <ele>380.4</ele>
        <time>2024-04-14T08:45:59Z</time>
      </trkpt>
      <trkpt lat="46.06754" lon="3.30222">
        <ele>380.4</ele>
        <time>2024-04-14T08:46:00Z</time>
      </trkpt>
      <trkpt lat="46.0676" lon="3.30231">
        <ele>380.4</ele>
        <time>2024-04-14T08:46:01Z</time>
      </trkpt>
      <trkpt lat="46.06766" lon="3.3024">
        <ele>380.4</ele>
        <time>2024-04-14T08:46:02Z</time>
      </trkpt>
      <trkpt lat="46.06772" lon="3.30248">
        <ele>380.4</ele>
        <time>2024-04-14T08:46:03Z</time>
      </trkpt>
      <trkpt lat="46.06777" lon="3.30257">
        <ele>380.2</ele>
        <time>2024-04-14T08:46:04Z</time>
      </trkpt>
      <trkpt lat="46.06783" lon="3.30266">
        <ele>380.2</ele>
        <time>2024-04-14T08:46:05Z</time>
      </trkpt>
      <trkpt lat="46.06788" lon="3.30275">
        <ele>380.2</ele>
        <time>2024-04-14T08:46:06Z</time>
      </trkpt>
      <trkpt lat="46.06794" lon="3.30284">
        <ele>380.2</ele>
        <time>2024-04-14T08:46:07Z</time>
      </trkpt>
      <trkpt lat="46.06799" lon="3.30293">
        <ele>380</ele>
        <time>2024-04-14T08:46:08Z</time>
      </trkpt>
      <trkpt lat="46.06804" lon="3.30302">
        <ele>380</ele>
        <time>2024-04-14T08:46:09Z</time>
      </trkpt>
      <trkpt lat="46.06809" lon="3.30311">
        <ele>380</ele>
        <time>2024-04-14T08:46:10Z</time>
      </trkpt>
      <trkpt lat="46.06814" lon="3.3032">
        <ele>380</ele>
        <time>2024-04-14T08:46:11Z</time>
      </trkpt>
      <trkpt lat="46.0682" lon="3.30329">
        <ele>380</ele>
        <time>2024-04-14T08:46:12Z</time>
      </trkpt>
      <trkpt lat="46.06825" lon="3.30338">
        <ele>379.8</ele>
        <time>2024-04-14T08:46:13Z</time>
      </trkpt>
      <trkpt lat="46.0683" lon="3.30346">
        <ele>379.8</ele>
        <time>2024-04-14T08:46:14Z</time>
      </trkpt>
      <trkpt lat="46.06835" lon="3.30355">
        <ele>379.8</ele>
        <time>2024-04-14T08:46:15Z</time>
      </trkpt>
      <trkpt lat="46.0684" lon="3.30364">
        <ele>379.8</ele>
        <time>2024-04-14T08:46:16Z</time>
      </trkpt>
      <trkpt lat="46.06845" lon="3.30373">
        <ele>379.8</ele>
        <time>2024-04-14T08:46:17Z</time>
      </trkpt>
      <trkpt lat="46.0685" lon="3.30382">
        <ele>379.6</ele>
        <time>2024-04-14T08:46:18Z</time>
      </trkpt>
      <trkpt lat="46.06855" lon="3.3039">
        <ele>379.6</ele>
        <time>2024-04-14T08:46:19Z</time>
      </trkpt>
      <trkpt lat="46.0686" lon="3.30399">
        <ele>379.6</ele>
        <time>2024-04-14T08:46:20Z</time>
      </trkpt>
      <trkpt lat="46.06865" lon="3.30408">
        <ele>379.4</ele>
        <time>2024-04-14T08:46:21Z</time>
      </trkpt>
      <trkpt lat="46.06871" lon="3.30417">
        <ele>379.4</ele>
        <time>2024-04-14T08:46:22Z</time>
      </trkpt>
      <trkpt lat="46.06876" lon="3.30426">
        <ele>379.4</ele>
        <time>2024-04-14T08:46:23Z</time>
      </trkpt>
      <trkpt lat="46.06881" lon="3.30435">
        <ele>379.2</ele>
        <time>2024-04-14T08:46:24Z</time>
      </trkpt>
      <trkpt lat="46.06886" lon="3.30444">
        <ele>379.2</ele>
        <time>2024-04-14T08:46:25Z</time>
      </trkpt>
      <trkpt lat="46.06891" lon="3.30452">
        <ele>379.2</ele>
        <time>2024-04-14T08:46:26Z</time>
      </trkpt>
      <trkpt lat="46.06896" lon="3.30461">
        <ele>379.2</ele>
        <time>2024-04-14T08:46:27Z</time>
      </trkpt>
      <trkpt lat="46.06901" lon="3.30469">
        <ele>379.2</ele>
        <time>2024-04-14T08:46:28Z</time>
      </trkpt>
      <trkpt lat="46.06906" lon="3.30478">
        <ele>379</ele>
        <time>2024-04-14T08:46:29Z</time>
      </trkpt>
      <trkpt lat="46.06911" lon="3.30487">
        <ele>379</ele>
        <time>2024-04-14T08:46:30Z</time>
      </trkpt>
      <trkpt lat="46.06916" lon="3.30496">
        <ele>379</ele>
        <time>2024-04-14T08:46:31Z</time>
      </trkpt>
      <trkpt lat="46.06921" lon="3.30505">
        <ele>379</ele>
        <time>2024-04-14T08:46:32Z</time>
      </trkpt>
      <trkpt lat="46.06926" lon="3.30514">
        <ele>379</ele>
        <time>2024-04-14T08:46:33Z</time>
      </trkpt>
      <trkpt lat="46.0693" lon="3.30523">
        <ele>378.8</ele>
        <time>2024-04-14T08:46:34Z</time>
      </trkpt>
      <trkpt lat="46.06935" lon="3.30533">
        <ele>378.8</ele>
        <time>2024-04-14T08:46:35Z</time>
      </trkpt>
      <trkpt lat="46.06939" lon="3.30542">
        <ele>378.6</ele>
        <time>2024-04-14T08:46:36Z</time>
      </trkpt>
      <trkpt lat="46.06944" lon="3.30551">
        <ele>378.6</ele>
        <time>2024-04-14T08:46:37Z</time>
      </trkpt>
      <trkpt lat="46.06948" lon="3.30561">
        <ele>378.6</ele>
        <time>2024-04-14T08:46:38Z</time>
      </trkpt>
      <trkpt lat="46.06953" lon="3.3057">
        <ele>378.6</ele>
        <time>2024-04-14T08:46:39Z</time>
      </trkpt>
      <trkpt lat="46.06958" lon="3.3058">
        <ele>378.4</ele>
        <time>2024-04-14T08:46:40Z</time>
      </trkpt>
      <trkpt lat="46.06962" lon="3.30589">
        <ele>378.4</ele>
        <time>2024-04-14T08:46:41Z</time>
      </trkpt>
      <trkpt lat="46.06967" lon="3.30599">
        <ele>378.2</ele>
        <time>2024-04-14T08:46:42Z</time>
      </trkpt>
      <trkpt lat="46.06972" lon="3.30609">
        <ele>378.2</ele>
        <time>2024-04-14T08:46:43Z</time>
      </trkpt>
      <trkpt lat="46.06977" lon="3.30619">
        <ele>378</ele>
        <time>2024-04-14T08:46:44Z</time>
      </trkpt>
      <trkpt lat="46.06982" lon="3.3063">
        <ele>377.8</ele>
        <time>2024-04-14T08:46:45Z</time>
      </trkpt>
      <trkpt lat="46.06986" lon="3.30641">
        <ele>377.8</ele>
        <time>2024-04-14T08:46:46Z</time>
      </trkpt>
      <trkpt lat="46.0699" lon="3.30653">
        <ele>377.6</ele>
        <time>2024-04-14T08:46:47Z</time>
      </trkpt>
      <trkpt lat="46.06994" lon="3.30664">
        <ele>377.4</ele>
        <time>2024-04-14T08:46:48Z</time>
      </trkpt>
      <trkpt lat="46.06998" lon="3.30676">
        <ele>377.4</ele>
        <time>2024-04-14T08:46:49Z</time>
      </trkpt>
      <trkpt lat="46.07002" lon="3.30688">
        <ele>377.2</ele>
        <time>2024-04-14T08:46:50Z</time>
      </trkpt>
      <trkpt lat="46.07006" lon="3.307">
        <ele>377</ele>
        <time>2024-04-14T08:46:51Z</time>
      </trkpt>
      <trkpt lat="46.0701" lon="3.30712">
        <ele>376.8</ele>
        <time>2024-04-14T08:46:52Z</time>
      </trkpt>
      <trkpt lat="46.07015" lon="3.30724">
        <ele>376.6</ele>
        <time>2024-04-14T08:46:53Z</time>
      </trkpt>
      <trkpt lat="46.07019" lon="3.30738">
        <ele>376.4</ele>
        <time>2024-04-14T08:46:54Z</time>
      </trkpt>
      <trkpt lat="46.07024" lon="3.30751">
        <ele>376.2</ele>
        <time>2024-04-14T08:46:55Z</time>
      </trkpt>
      <trkpt lat="46.07028" lon="3.30765">
        <ele>376</ele>
        <time>2024-04-14T08:46:56Z</time>
      </trkpt>
      <trkpt lat="46.07032" lon="3.3078">
        <ele>375.8</ele>
        <time>2024-04-14T08:46:57Z</time>
      </trkpt>
      <trkpt lat="46.07036" lon="3.30795">
        <ele>375.6</ele>
        <time>2024-04-14T08:46:58Z</time>
      </trkpt>
      <trkpt lat="46.0704" lon="3.30811">
        <ele>375.2</ele>
        <time>2024-04-14T08:46:59Z</time>
      </trkpt>
      <trkpt lat="46.07044" lon="3.30826">
        <ele>375</ele>
        <time>2024-04-14T08:47:00Z</time>
      </trkpt>
      <trkpt lat="46.07048" lon="3.30842">
        <ele>374.8</ele>
        <time>2024-04-14T08:47:01Z</time>
      </trkpt>
      <trkpt lat="46.07052" lon="3.30858">
        <ele>374.6</ele>
        <time>2024-04-14T08:47:02Z</time>
      </trkpt>
      <trkpt lat="46.07056" lon="3.30874">
        <ele>374.4</ele>
        <time>2024-04-14T08:47:03Z</time>
      </trkpt>
      <trkpt lat="46.0706" lon="3.3089">
        <ele>374</ele>
        <time>2024-04-14T08:47:04Z</time>
      </trkpt>
      <trkpt lat="46.07064" lon="3.30906">
        <ele>373.8</ele>
        <time>2024-04-14T08:47:05Z</time>
      </trkpt>
      <trkpt lat="46.07068" lon="3.30922">
        <ele>373.6</ele>
        <time>2024-04-14T08:47:06Z</time>
      </trkpt>
      <trkpt lat="46.07072" lon="3.30937">
        <ele>373.4</ele>
        <time>2024-04-14T08:47:07Z</time>
      </trkpt>
      <trkpt lat="46.07076" lon="3.30953">
        <ele>373</ele>
        <time>2024-04-14T08:47:08Z</time>
      </trkpt>
      <trkpt lat="46.0708" lon="3.30969">
        <ele>372.8</ele>
        <time>2024-04-14T08:47:09Z</time>
      </trkpt>
      <trkpt lat="46.07084" lon="3.30984">
        <ele>372.6</ele>
        <time>2024-04-14T08:47:10Z</time>
      </trkpt>
      <trkpt lat="46.07088" lon="3.30999">
        <ele>372.2</ele>
        <time>2024-04-14T08:47:11Z</time>
      </trkpt>
      <trkpt lat="46.07092" lon="3.31015">
        <ele>372</ele>
        <time>2024-04-14T08:47:12Z</time>
      </trkpt>
      <trkpt lat="46.07096" lon="3.31029">
        <ele>371.8</ele>
        <time>2024-04-14T08:47:13Z</time>
      </trkpt>
      <trkpt lat="46.07099" lon="3.31044">
        <ele>371.6</ele>
        <time>2024-04-14T08:47:14Z</time>
      </trkpt>
      <trkpt lat="46.07099" lon="3.31044">
        <ele>371.4</ele>
        <time>2024-04-14T08:47:15Z</time>
      </trkpt>
      <trkpt lat="46.07107" lon="3.31073">
        <ele>371.2</ele>
        <time>2024-04-14T08:47:16Z</time>
      </trkpt>
      <trkpt lat="46.0711" lon="3.31087">
        <ele>370.8</ele>
        <time>2024-04-14T08:47:17Z</time>
      </trkpt>
      <trkpt lat="46.07114" lon="3.31101">
        <ele>370.6</ele>
        <time>2024-04-14T08:47:18Z</time>
      </trkpt>
      <trkpt lat="46.07117" lon="3.31114">
        <ele>370.4</ele>
        <time>2024-04-14T08:47:19Z</time>
      </trkpt>
      <trkpt lat="46.07121" lon="3.31128">
        <ele>370</ele>
        <time>2024-04-14T08:47:20Z</time>
      </trkpt>
      <trkpt lat="46.07124" lon="3.31141">
        <ele>369.8</ele>
        <time>2024-04-14T08:47:21Z</time>
      </trkpt>
      <trkpt lat="46.07128" lon="3.31155">
        <ele>369.6</ele>
        <time>2024-04-14T08:47:22Z</time>
      </trkpt>
      <trkpt lat="46.07131" lon="3.31168">
        <ele>369.4</ele>
        <time>2024-04-14T08:47:23Z</time>
      </trkpt>
      <trkpt lat="46.07134" lon="3.31181">
        <ele>369.2</ele>
        <time>2024-04-14T08:47:24Z</time>
      </trkpt>
      <trkpt lat="46.07138" lon="3.31194">
        <ele>369</ele>
        <time>2024-04-14T08:47:25Z</time>
      </trkpt>
      <trkpt lat="46.07141" lon="3.31208">
        <ele>368.8</ele>
        <time>2024-04-14T08:47:26Z</time>
      </trkpt>
      <trkpt lat="46.07145" lon="3.31221">
        <ele>368.6</ele>
        <time>2024-04-14T08:47:27Z</time>
      </trkpt>
      <trkpt lat="46.07148" lon="3.31233">
        <ele>368.4</ele>
        <time>2024-04-14T08:47:28Z</time>
      </trkpt>
      <trkpt lat="46.07148" lon="3.31233">
        <ele>368</ele>
        <time>2024-04-14T08:47:29Z</time>
      </trkpt>
      <trkpt lat="46.07151" lon="3.31246">
        <ele>367.8</ele>
        <time>2024-04-14T08:47:30Z</time>
      </trkpt>
      <trkpt lat="46.07158" lon="3.31272">
        <ele>367.6</ele>
        <time>2024-04-14T08:47:31Z</time>
      </trkpt>
      <trkpt lat="46.07161" lon="3.31285">
        <ele>367.4</ele>
        <time>2024-04-14T08:47:32Z</time>
      </trkpt>
      <trkpt lat="46.07164" lon="3.31298">
        <ele>367.2</ele>
        <time>2024-04-14T08:47:33Z</time>
      </trkpt>
      <trkpt lat="46.07168" lon="3.31311">
        <ele>367</ele>
        <time>2024-04-14T08:47:34Z</time>
      </trkpt>
      <trkpt lat="46.07171" lon="3.31324">
        <ele>366.8</ele>
        <time>2024-04-14T08:47:35Z</time>
      </trkpt>
      <trkpt lat="46.07174" lon="3.31337">
        <ele>366.6</ele>
        <time>2024-04-14T08:47:36Z</time>
      </trkpt>
      <trkpt lat="46.07177" lon="3.3135">
        <ele>366.4</ele>
        <time>2024-04-14T08:47:37Z</time>
      </trkpt>
      <trkpt lat="46.07177" lon="3.3135">
        <ele>366.2</ele>
        <time>2024-04-14T08:47:38Z</time>
      </trkpt>
      <trkpt lat="46.07184" lon="3.31377">
        <ele>366</ele>
        <time>2024-04-14T08:47:39Z</time>
      </trkpt>
      <trkpt lat="46.07187" lon="3.3139">
        <ele>365.8</ele>
        <time>2024-04-14T08:47:40Z</time>
      </trkpt>
      <trkpt lat="46.0719" lon="3.31403">
        <ele>365.6</ele>
        <time>2024-04-14T08:47:41Z</time>
      </trkpt>
      <trkpt lat="46.07193" lon="3.31416">
        <ele>365.4</ele>
        <time>2024-04-14T08:47:42Z</time>
      </trkpt>
      <trkpt lat="46.07197" lon="3.31428">
        <ele>365</ele>
        <time>2024-04-14T08:47:43Z</time>
      </trkpt>
      <trkpt lat="46.072" lon="3.3144">
        <ele>365</ele>
        <time>2024-04-14T08:47:44Z</time>
      </trkpt>
      <trkpt lat="46.07203" lon="3.31452">
        <ele>364.8</ele>
        <time>2024-04-14T08:47:45Z</time>
      </trkpt>
      <trkpt lat="46.07206" lon="3.31463">
        <ele>364.6</ele>
        <time>2024-04-14T08:47:46Z</time>
      </trkpt>
      <trkpt lat="46.07209" lon="3.31474">
        <ele>364.6</ele>
        <time>2024-04-14T08:47:47Z</time>
      </trkpt>
      <trkpt lat="46.07211" lon="3.31485">
        <ele>364.4</ele>
        <time>2024-04-14T08:47:48Z</time>
      </trkpt>
      <trkpt lat="46.07214" lon="3.31495">
        <ele>364.4</ele>
        <time>2024-04-14T08:47:49Z</time>
      </trkpt>
      <trkpt lat="46.07217" lon="3.31506">
        <ele>364.2</ele>
        <time>2024-04-14T08:47:50Z</time>
      </trkpt>
      <trkpt lat="46.07219" lon="3.31515">
        <ele>364.2</ele>
        <time>2024-04-14T08:47:51Z</time>
      </trkpt>
      <trkpt lat="46.07222" lon="3.31525">
        <ele>364</ele>
        <time>2024-04-14T08:47:52Z</time>
      </trkpt>
      <trkpt lat="46.07224" lon="3.31534">
        <ele>364</ele>
        <time>2024-04-14T08:47:53Z</time>
      </trkpt>
      <trkpt lat="46.07226" lon="3.31543">
        <ele>364</ele>
        <time>2024-04-14T08:47:54Z</time>
      </trkpt>
      <trkpt lat="46.07228" lon="3.31551">
        <ele>363.8</ele>
        <time>2024-04-14T08:47:55Z</time>
      </trkpt>
      <trkpt lat="46.0723" lon="3.31559">
        <ele>363.8</ele>
        <time>2024-04-14T08:47:56Z</time>
      </trkpt>
      <trkpt lat="46.07232" lon="3.31567">
        <ele>363.8</ele>
        <time>2024-04-14T08:47:57Z</time>
      </trkpt>
      <trkpt lat="46.07234" lon="3.31574">
        <ele>363.6</ele>
        <time>2024-04-14T08:47:58Z</time>
      </trkpt>
      <trkpt lat="46.07236" lon="3.31582">
        <ele>363.6</ele>
        <time>2024-04-14T08:47:59Z</time>
      </trkpt>
      <trkpt lat="46.07238" lon="3.31589">
        <ele>363.6</ele>
        <time>2024-04-14T08:48:00Z</time>
      </trkpt>
      <trkpt lat="46.0724" lon="3.31596">
        <ele>363.6</ele>
        <time>2024-04-14T08:48:01Z</time>
      </trkpt>
      <trkpt lat="46.07242" lon="3.31603">
        <ele>363.6</ele>
        <time>2024-04-14T08:48:02Z</time>
      </trkpt>
      <trkpt lat="46.07243" lon="3.3161">
        <ele>363.6</ele>
        <time>2024-04-14T08:48:03Z</time>
      </trkpt>
      <trkpt lat="46.07245" lon="3.31617">
        <ele>363.6</ele>
        <time>2024-04-14T08:48:04Z</time>
      </trkpt>
      <trkpt lat="46.07247" lon="3.31624">
        <ele>363.4</ele>
        <time>2024-04-14T08:48:05Z</time>
      </trkpt>
      <trkpt lat="46.07249" lon="3.31631">
        <ele>363.6</ele>
        <time>2024-04-14T08:48:06Z</time>
      </trkpt>
      <trkpt lat="46.0725" lon="3.31638">
        <ele>363.4</ele>
        <time>2024-04-14T08:48:07Z</time>
      </trkpt>
      <trkpt lat="46.07252" lon="3.31644">
        <ele>363.4</ele>
        <time>2024-04-14T08:48:08Z</time>
      </trkpt>
      <trkpt lat="46.07254" lon="3.31651">
        <ele>363.4</ele>
        <time>2024-04-14T08:48:09Z</time>
      </trkpt>
      <trkpt lat="46.07256" lon="3.31658">
        <ele>363.4</ele>
        <time>2024-04-14T08:48:10Z</time>
      </trkpt>
      <trkpt lat="46.07257" lon="3.31664">
        <ele>363.4</ele>
        <time>2024-04-14T08:48:11Z</time>
      </trkpt>
      <trkpt lat="46.07259" lon="3.31671">
        <ele>363.4</ele>
        <time>2024-04-14T08:48:12Z</time>
      </trkpt>
      <trkpt lat="46.0726" lon="3.31677">
        <ele>363.4</ele>
        <time>2024-04-14T08:48:13Z</time>
      </trkpt>
      <trkpt lat="46.07262" lon="3.31683">
        <ele>363.2</ele>
        <time>2024-04-14T08:48:14Z</time>
      </trkpt>
      <trkpt lat="46.07263" lon="3.31689">
        <ele>363.2</ele>
        <time>2024-04-14T08:48:15Z</time>
      </trkpt>
      <trkpt lat="46.07265" lon="3.31694">
        <ele>363.4</ele>
        <time>2024-04-14T08:48:16Z</time>
      </trkpt>
      <trkpt lat="46.07266" lon="3.317">
        <ele>363.4</ele>
        <time>2024-04-14T08:48:17Z</time>
      </trkpt>
      <trkpt lat="46.07268" lon="3.31706">
        <ele>363.4</ele>
        <time>2024-04-14T08:48:18Z</time>
      </trkpt>
      <trkpt lat="46.0727" lon="3.31713">
        <ele>363.4</ele>
        <time>2024-04-14T08:48:19Z</time>
      </trkpt>
      <trkpt lat="46.07271" lon="3.31719">
        <ele>363.4</ele>
        <time>2024-04-14T08:48:20Z</time>
      </trkpt>
      <trkpt lat="46.07273" lon="3.31725">
        <ele>363.4</ele>
        <time>2024-04-14T08:48:21Z</time>
      </trkpt>
      <trkpt lat="46.07274" lon="3.31731">
        <ele>363.4</ele>
        <time>2024-04-14T08:48:22Z</time>
      </trkpt>
      <trkpt lat="46.07276" lon="3.31737">
        <ele>363</ele>
        <time>2024-04-14T08:48:23Z</time>
      </trkpt>
      <trkpt lat="46.07277" lon="3.31743">
        <ele>363.2</ele>
        <time>2024-04-14T08:48:24Z</time>
      </trkpt>
      <trkpt lat="46.07279" lon="3.31749">
        <ele>363.4</ele>
        <time>2024-04-14T08:48:25Z</time>
      </trkpt>
      <trkpt lat="46.07281" lon="3.31755">
        <ele>363.8</ele>
        <time>2024-04-14T08:48:26Z</time>
      </trkpt>
      <trkpt lat="46.07282" lon="3.31761">
        <ele>364</ele>
        <time>2024-04-14T08:48:27Z</time>
      </trkpt>
      <trkpt lat="46.07283" lon="3.31766">
        <ele>363.6</ele>
        <time>2024-04-14T08:48:28Z</time>
      </trkpt>
      <trkpt lat="46.07285" lon="3.31772">
        <ele>363.6</ele>
        <time>2024-04-14T08:48:29Z</time>
      </trkpt>
      <trkpt lat="46.07286" lon="3.31778">
        <ele>363.6</ele>
        <time>2024-04-14T08:48:30Z</time>
      </trkpt>
      <trkpt lat="46.07288" lon="3.31784">
        <ele>363.8</ele>
        <time>2024-04-14T08:48:31Z</time>
      </trkpt>
      <trkpt lat="46.0729" lon="3.3179">
        <ele>363.8</ele>
        <time>2024-04-14T08:48:32Z</time>
      </trkpt>
      <trkpt lat="46.07291" lon="3.31797">
        <ele>363.8</ele>
        <time>2024-04-14T08:48:33Z</time>
      </trkpt>
      <trkpt lat="46.07293" lon="3.31804">
        <ele>363.8</ele>
        <time>2024-04-14T08:48:34Z</time>
      </trkpt>
      <trkpt lat="46.07295" lon="3.31811">
        <ele>364</ele>
        <time>2024-04-14T08:48:35Z</time>
      </trkpt>
      <trkpt lat="46.07297" lon="3.31818">
        <ele>364</ele>
        <time>2024-04-14T08:48:36Z</time>
      </trkpt>
      <trkpt lat="46.07298" lon="3.31825">
        <ele>364</ele>
        <time>2024-04-14T08:48:37Z</time>
      </trkpt>
      <trkpt lat="46.073" lon="3.31832">
        <ele>364</ele>
        <time>2024-04-14T08:48:38Z</time>
      </trkpt>
      <trkpt lat="46.07301" lon="3.31839">
        <ele>364.2</ele>
        <time>2024-04-14T08:48:39Z</time>
      </trkpt>
      <trkpt lat="46.07303" lon="3.31846">
        <ele>364.2</ele>
        <time>2024-04-14T08:48:40Z</time>
      </trkpt>
      <trkpt lat="46.07305" lon="3.31853">
        <ele>364.2</ele>
        <time>2024-04-14T08:48:41Z</time>
      </trkpt>
      <trkpt lat="46.07306" lon="3.3186">
        <ele>364.4</ele>
        <time>2024-04-14T08:48:42Z</time>
      </trkpt>
      <trkpt lat="46.07308" lon="3.31867">
        <ele>364.4</ele>
        <time>2024-04-14T08:48:43Z</time>
      </trkpt>
      <trkpt lat="46.0731" lon="3.31874">
        <ele>364.6</ele>
        <time>2024-04-14T08:48:44Z</time>
      </trkpt>
      <trkpt lat="46.07311" lon="3.31881">
        <ele>364.6</ele>
        <time>2024-04-14T08:48:45Z</time>
      </trkpt>
      <trkpt lat="46.07313" lon="3.31888">
        <ele>364.6</ele>
        <time>2024-04-14T08:48:46Z</time>
      </trkpt>
      <trkpt lat="46.07315" lon="3.31895">
        <ele>364.8</ele>
        <time>2024-04-14T08:48:47Z</time>
      </trkpt>
      <trkpt lat="46.07316" lon="3.31903">
        <ele>364.8</ele>
        <time>2024-04-14T08:48:48Z</time>
      </trkpt>
      <trkpt lat="46.07318" lon="3.31911">
        <ele>365</ele>
        <time>2024-04-14T08:48:49Z</time>
      </trkpt>
      <trkpt lat="46.0732" lon="3.31919">
        <ele>365</ele>
        <time>2024-04-14T08:48:50Z</time>
      </trkpt>
      <trkpt lat="46.07322" lon="3.31927">
        <ele>365.2</ele>
        <time>2024-04-14T08:48:51Z</time>
      </trkpt>
      <trkpt lat="46.07324" lon="3.31935">
        <ele>365.2</ele>
        <time>2024-04-14T08:48:52Z</time>
      </trkpt>
      <trkpt lat="46.07326" lon="3.31943">
        <ele>365.4</ele>
        <time>2024-04-14T08:48:53Z</time>
      </trkpt>
      <trkpt lat="46.07328" lon="3.31951">
        <ele>365.4</ele>
        <time>2024-04-14T08:48:54Z</time>
      </trkpt>
      <trkpt lat="46.0733" lon="3.31959">
        <ele>365.4</ele>
        <time>2024-04-14T08:48:55Z</time>
      </trkpt>
      <trkpt lat="46.07332" lon="3.31967">
        <ele>365.6</ele>
        <time>2024-04-14T08:48:56Z</time>
      </trkpt>
      <trkpt lat="46.07334" lon="3.31976">
        <ele>365.6</ele>
        <time>2024-04-14T08:48:57Z</time>
      </trkpt>
      <trkpt lat="46.07336" lon="3.31985">
        <ele>365.8</ele>
        <time>2024-04-14T08:48:58Z</time>
      </trkpt>
      <trkpt lat="46.07338" lon="3.31993">
        <ele>365.8</ele>
        <time>2024-04-14T08:48:59Z</time>
      </trkpt>
      <trkpt lat="46.0734" lon="3.32002">
        <ele>365.8</ele>
        <time>2024-04-14T08:49:00Z</time>
      </trkpt>
      <trkpt lat="46.07342" lon="3.32011">
        <ele>366</ele>
        <time>2024-04-14T08:49:01Z</time>
      </trkpt>
      <trkpt lat="46.07344" lon="3.3202">
        <ele>366</ele>
        <time>2024-04-14T08:49:02Z</time>
      </trkpt>
      <trkpt lat="46.07346" lon="3.32029">
        <ele>366</ele>
        <time>2024-04-14T08:49:03Z</time>
      </trkpt>
      <trkpt lat="46.07348" lon="3.32037">
        <ele>366</ele>
        <time>2024-04-14T08:49:04Z</time>
      </trkpt>
      <trkpt lat="46.0735" lon="3.32046">
        <ele>366.2</ele>
        <time>2024-04-14T08:49:05Z</time>
      </trkpt>
      <trkpt lat="46.07352" lon="3.32055">
        <ele>366.2</ele>
        <time>2024-04-14T08:49:06Z</time>
      </trkpt>
      <trkpt lat="46.07354" lon="3.32064">
        <ele>366.4</ele>
        <time>2024-04-14T08:49:07Z</time>
      </trkpt>
      <trkpt lat="46.07356" lon="3.32073">
        <ele>366.4</ele>
        <time>2024-04-14T08:49:08Z</time>
      </trkpt>
      <trkpt lat="46.07359" lon="3.32082">
        <ele>366.4</ele>
        <time>2024-04-14T08:49:09Z</time>
      </trkpt>
      <trkpt lat="46.07361" lon="3.32092">
        <ele>366.6</ele>
        <time>2024-04-14T08:49:10Z</time>
      </trkpt>
      <trkpt lat="46.07363" lon="3.32101">
        <ele>366.6</ele>
        <time>2024-04-14T08:49:11Z</time>
      </trkpt>
      <trkpt lat="46.07365" lon="3.3211">
        <ele>366.6</ele>
        <time>2024-04-14T08:49:12Z</time>
      </trkpt>
      <trkpt lat="46.07368" lon="3.3212">
        <ele>366.6</ele>
        <time>2024-04-14T08:49:13Z</time>
      </trkpt>
      <trkpt lat="46.0737" lon="3.32129">
        <ele>366.8</ele>
        <time>2024-04-14T08:49:14Z</time>
      </trkpt>
      <trkpt lat="46.07372" lon="3.32139">
        <ele>366.8</ele>
        <time>2024-04-14T08:49:15Z</time>
      </trkpt>
      <trkpt lat="46.07374" lon="3.32149">
        <ele>366.8</ele>
        <time>2024-04-14T08:49:16Z</time>
      </trkpt>
      <trkpt lat="46.07377" lon="3.32159">
        <ele>366.8</ele>
        <time>2024-04-14T08:49:17Z</time>
      </trkpt>
      <trkpt lat="46.07379" lon="3.32168">
        <ele>366.8</ele>
        <time>2024-04-14T08:49:18Z</time>
      </trkpt>
      <trkpt lat="46.07381" lon="3.32178">
        <ele>366.8</ele>
        <time>2024-04-14T08:49:19Z</time>
      </trkpt>
      <trkpt lat="46.07384" lon="3.32188">
        <ele>366.8</ele>
        <time>2024-04-14T08:49:20Z</time>
      </trkpt>
      <trkpt lat="46.07386" lon="3.32198">
        <ele>366.8</ele>
        <time>2024-04-14T08:49:21Z</time>
      </trkpt>
      <trkpt lat="46.07388" lon="3.32207">
        <ele>366.8</ele>
        <time>2024-04-14T08:49:22Z</time>
      </trkpt>
      <trkpt lat="46.0739" lon="3.32217">
        <ele>367</ele>
        <time>2024-04-14T08:49:23Z</time>
      </trkpt>
      <trkpt lat="46.07393" lon="3.32226">
        <ele>367</ele>
        <time>2024-04-14T08:49:24Z</time>
      </trkpt>
      <trkpt lat="46.07395" lon="3.32236">
        <ele>367</ele>
        <time>2024-04-14T08:49:25Z</time>
      </trkpt>
      <trkpt lat="46.07397" lon="3.32245">
        <ele>367</ele>
        <time>2024-04-14T08:49:26Z</time>
      </trkpt>
      <trkpt lat="46.07399" lon="3.32255">
        <ele>367.2</ele>
        <time>2024-04-14T08:49:27Z</time>
      </trkpt>
      <trkpt lat="46.07402" lon="3.32265">
        <ele>367.2</ele>
        <time>2024-04-14T08:49:28Z</time>
      </trkpt>
      <trkpt lat="46.07404" lon="3.32274">
        <ele>367.4</ele>
        <time>2024-04-14T08:49:29Z</time>
      </trkpt>
      <trkpt lat="46.07406" lon="3.32284">
        <ele>367.4</ele>
        <time>2024-04-14T08:49:30Z</time>
      </trkpt>
      <trkpt lat="46.07408" lon="3.32293">
        <ele>367.4</ele>
        <time>2024-04-14T08:49:31Z</time>
      </trkpt>
      <trkpt lat="46.07411" lon="3.32303">
        <ele>367.4</ele>
        <time>2024-04-14T08:49:32Z</time>
      </trkpt>
      <trkpt lat="46.07413" lon="3.32312">
        <ele>367.4</ele>
        <time>2024-04-14T08:49:33Z</time>
      </trkpt>
      <trkpt lat="46.07415" lon="3.32321">
        <ele>367.6</ele>
        <time>2024-04-14T08:49:34Z</time>
      </trkpt>
      <trkpt lat="46.07417" lon="3.32331">
        <ele>367.6</ele>
        <time>2024-04-14T08:49:35Z</time>
      </trkpt>
      <trkpt lat="46.07419" lon="3.3234">
        <ele>367.6</ele>
        <time>2024-04-14T08:49:36Z</time>
      </trkpt>
      <trkpt lat="46.07422" lon="3.32349">
        <ele>367.6</ele>
        <time>2024-04-14T08:49:37Z</time>
      </trkpt>
      <trkpt lat="46.07424" lon="3.32359">
        <ele>367.8</ele>
        <time>2024-04-14T08:49:38Z</time>
      </trkpt>
      <trkpt lat="46.07426" lon="3.32368">
        <ele>367.8</ele>
        <time>2024-04-14T08:49:39Z</time>
      </trkpt>
      <trkpt lat="46.07428" lon="3.32378">
        <ele>367.8</ele>
        <time>2024-04-14T08:49:40Z</time>
      </trkpt>
      <trkpt lat="46.07431" lon="3.32387">
        <ele>367.8</ele>
        <time>2024-04-14T08:49:41Z</time>
      </trkpt>
      <trkpt lat="46.07433" lon="3.32397">
        <ele>367.8</ele>
        <time>2024-04-14T08:49:42Z</time>
      </trkpt>
      <trkpt lat="46.07435" lon="3.32407">
        <ele>367.8</ele>
        <time>2024-04-14T08:49:43Z</time>
      </trkpt>
      <trkpt lat="46.07437" lon="3.32416">
        <ele>368</ele>
        <time>2024-04-14T08:49:44Z</time>
      </trkpt>
      <trkpt lat="46.0744" lon="3.32426">
        <ele>368</ele>
        <time>2024-04-14T08:49:45Z</time>
      </trkpt>
      <trkpt lat="46.07442" lon="3.32436">
        <ele>368</ele>
        <time>2024-04-14T08:49:46Z</time>
      </trkpt>
      <trkpt lat="46.07444" lon="3.32445">
        <ele>368</ele>
        <time>2024-04-14T08:49:47Z</time>
      </trkpt>
      <trkpt lat="46.07447" lon="3.32455">
        <ele>368</ele>
        <time>2024-04-14T08:49:48Z</time>
      </trkpt>
      <trkpt lat="46.07447" lon="3.32455">
        <ele>368</ele>
        <time>2024-04-14T08:49:49Z</time>
      </trkpt>
      <trkpt lat="46.07451" lon="3.32475">
        <ele>368</ele>
        <time>2024-04-14T08:49:50Z</time>
      </trkpt>
      <trkpt lat="46.07454" lon="3.32484">
        <ele>368</ele>
        <time>2024-04-14T08:49:51Z</time>
      </trkpt>
      <trkpt lat="46.07456" lon="3.32494">
        <ele>368</ele>
        <time>2024-04-14T08:49:52Z</time>
      </trkpt>
      <trkpt lat="46.07458" lon="3.32504">
        <ele>368</ele>
        <time>2024-04-14T08:49:53Z</time>
      </trkpt>
      <trkpt lat="46.07461" lon="3.32514">
        <ele>368</ele>
        <time>2024-04-14T08:49:54Z</time>
      </trkpt>
      <trkpt lat="46.07463" lon="3.32525">
        <ele>368.2</ele>
        <time>2024-04-14T08:49:55Z</time>
      </trkpt>
      <trkpt lat="46.07465" lon="3.32535">
        <ele>368</ele>
        <time>2024-04-14T08:49:56Z</time>
      </trkpt>
      <trkpt lat="46.07465" lon="3.32535">
        <ele>368</ele>
        <time>2024-04-14T08:49:57Z</time>
      </trkpt>
      <trkpt lat="46.0747" lon="3.32555">
        <ele>368</ele>
        <time>2024-04-14T08:49:58Z</time>
      </trkpt>
      <trkpt lat="46.07473" lon="3.32566">
        <ele>368.2</ele>
        <time>2024-04-14T08:49:59Z</time>
      </trkpt>
      <trkpt lat="46.07475" lon="3.32576">
        <ele>368.2</ele>
        <time>2024-04-14T08:50:00Z</time>
      </trkpt>
      <trkpt lat="46.07478" lon="3.32587">
        <ele>368.2</ele>
        <time>2024-04-14T08:50:01Z</time>
      </trkpt>
      <trkpt lat="46.07481" lon="3.32597">
        <ele>368.2</ele>
        <time>2024-04-14T08:50:02Z</time>
      </trkpt>
      <trkpt lat="46.07483" lon="3.32608">
        <ele>368.2</ele>
        <time>2024-04-14T08:50:03Z</time>
      </trkpt>
      <trkpt lat="46.07486" lon="3.32619">
        <ele>368.2</ele>
        <time>2024-04-14T08:50:04Z</time>
      </trkpt>
      <trkpt lat="46.07489" lon="3.3263">
        <ele>368.2</ele>
        <time>2024-04-14T08:50:05Z</time>
      </trkpt>
      <trkpt lat="46.07491" lon="3.32641">
        <ele>368.2</ele>
        <time>2024-04-14T08:50:06Z</time>
      </trkpt>
      <trkpt lat="46.07494" lon="3.32651">
        <ele>368.2</ele>
        <time>2024-04-14T08:50:07Z</time>
      </trkpt>
      <trkpt lat="46.07496" lon="3.32661">
        <ele>368.2</ele>
        <time>2024-04-14T08:50:08Z</time>
      </trkpt>
      <trkpt lat="46.07499" lon="3.32672">
        <ele>368.2</ele>
        <time>2024-04-14T08:50:09Z</time>
      </trkpt>
      <trkpt lat="46.07502" lon="3.32682">
        <ele>368</ele>
        <time>2024-04-14T08:50:10Z</time>
      </trkpt>
      <trkpt lat="46.07504" lon="3.32692">
        <ele>368</ele>
        <time>2024-04-14T08:50:11Z</time>
      </trkpt>
      <trkpt lat="46.07507" lon="3.32702">
        <ele>368.2</ele>
        <time>2024-04-14T08:50:12Z</time>
      </trkpt>
      <trkpt lat="46.07509" lon="3.32712">
        <ele>368.2</ele>
        <time>2024-04-14T08:50:13Z</time>
      </trkpt>
      <trkpt lat="46.07511" lon="3.32722">
        <ele>368</ele>
        <time>2024-04-14T08:50:14Z</time>
      </trkpt>
      <trkpt lat="46.07514" lon="3.32731">
        <ele>367.8</ele>
        <time>2024-04-14T08:50:15Z</time>
      </trkpt>
      <trkpt lat="46.07516" lon="3.32741">
        <ele>368</ele>
        <time>2024-04-14T08:50:16Z</time>
      </trkpt>
      <trkpt lat="46.07519" lon="3.3275">
        <ele>367.8</ele>
        <time>2024-04-14T08:50:17Z</time>
      </trkpt>
      <trkpt lat="46.07521" lon="3.32759">
        <ele>368</ele>
        <time>2024-04-14T08:50:18Z</time>
      </trkpt>
      <trkpt lat="46.07523" lon="3.32769">
        <ele>367.8</ele>
        <time>2024-04-14T08:50:19Z</time>
      </trkpt>
      <trkpt lat="46.07525" lon="3.32778">
        <ele>367.8</ele>
        <time>2024-04-14T08:50:20Z</time>
      </trkpt>
      <trkpt lat="46.07528" lon="3.32787">
        <ele>367.8</ele>
        <time>2024-04-14T08:50:21Z</time>
      </trkpt>
      <trkpt lat="46.0753" lon="3.32796">
        <ele>367.8</ele>
        <time>2024-04-14T08:50:22Z</time>
      </trkpt>
      <trkpt lat="46.07534" lon="3.32805">
        <ele>367.8</ele>
        <time>2024-04-14T08:50:23Z</time>
      </trkpt>
      <trkpt lat="46.07537" lon="3.32814">
        <ele>367.8</ele>
        <time>2024-04-14T08:50:24Z</time>
      </trkpt>
      <trkpt lat="46.0754" lon="3.32822">
        <ele>367.8</ele>
        <time>2024-04-14T08:50:25Z</time>
      </trkpt>
      <trkpt lat="46.07543" lon="3.32831">
        <ele>367.8</ele>
        <time>2024-04-14T08:50:26Z</time>
      </trkpt>
      <trkpt lat="46.07547" lon="3.32839">
        <ele>367.8</ele>
        <time>2024-04-14T08:50:27Z</time>
      </trkpt>
      <trkpt lat="46.0755" lon="3.32847">
        <ele>367.8</ele>
        <time>2024-04-14T08:50:28Z</time>
      </trkpt>
      <trkpt lat="46.07554" lon="3.32856">
        <ele>367.8</ele>
        <time>2024-04-14T08:50:29Z</time>
      </trkpt>
      <trkpt lat="46.07558" lon="3.32865">
        <ele>367.8</ele>
        <time>2024-04-14T08:50:30Z</time>
      </trkpt>
      <trkpt lat="46.07562" lon="3.32874">
        <ele>367.8</ele>
        <time>2024-04-14T08:50:31Z</time>
      </trkpt>
      <trkpt lat="46.07566" lon="3.32883">
        <ele>367.8</ele>
        <time>2024-04-14T08:50:32Z</time>
      </trkpt>
      <trkpt lat="46.0757" lon="3.32892">
        <ele>367.8</ele>
        <time>2024-04-14T08:50:33Z</time>
      </trkpt>
      <trkpt lat="46.07574" lon="3.32901">
        <ele>367.6</ele>
        <time>2024-04-14T08:50:34Z</time>
      </trkpt>
      <trkpt lat="46.07578" lon="3.3291">
        <ele>367.8</ele>
        <time>2024-04-14T08:50:35Z</time>
      </trkpt>
      <trkpt lat="46.07582" lon="3.32919">
        <ele>367.8</ele>
        <time>2024-04-14T08:50:36Z</time>
      </trkpt>
      <trkpt lat="46.07586" lon="3.32928">
        <ele>367.8</ele>
        <time>2024-04-14T08:50:37Z</time>
      </trkpt>
      <trkpt lat="46.0759" lon="3.32937">
        <ele>367.6</ele>
        <time>2024-04-14T08:50:38Z</time>
      </trkpt>
      <trkpt lat="46.07594" lon="3.32946">
        <ele>367.6</ele>
        <time>2024-04-14T08:50:39Z</time>
      </trkpt>
      <trkpt lat="46.07598" lon="3.32955">
        <ele>367.6</ele>
        <time>2024-04-14T08:50:40Z</time>
      </trkpt>
      <trkpt lat="46.07602" lon="3.32965">
        <ele>367.6</ele>
        <time>2024-04-14T08:50:41Z</time>
      </trkpt>
      <trkpt lat="46.07607" lon="3.32974">
        <ele>367.6</ele>
        <time>2024-04-14T08:50:42Z</time>
      </trkpt>
      <trkpt lat="46.07611" lon="3.32984">
        <ele>367.6</ele>
        <time>2024-04-14T08:50:43Z</time>
      </trkpt>
      <trkpt lat="46.07615" lon="3.32993">
        <ele>367.6</ele>
        <time>2024-04-14T08:50:44Z</time>
      </trkpt>
      <trkpt lat="46.0762" lon="3.33003">
        <ele>367.6</ele>
        <time>2024-04-14T08:50:45Z</time>
      </trkpt>
      <trkpt lat="46.07625" lon="3.33011">
        <ele>367.6</ele>
        <time>2024-04-14T08:50:46Z</time>
      </trkpt>
      <trkpt lat="46.0763" lon="3.33019">
        <ele>367.6</ele>
        <time>2024-04-14T08:50:47Z</time>
      </trkpt>
      <trkpt lat="46.07635" lon="3.33028">
        <ele>367.4</ele>
        <time>2024-04-14T08:50:48Z</time>
      </trkpt>
      <trkpt lat="46.07641" lon="3.33036">
        <ele>367.4</ele>
        <time>2024-04-14T08:50:49Z</time>
      </trkpt>
      <trkpt lat="46.07646" lon="3.33045">
        <ele>367.4</ele>
        <time>2024-04-14T08:50:50Z</time>
      </trkpt>
      <trkpt lat="46.07651" lon="3.33053">
        <ele>367.4</ele>
        <time>2024-04-14T08:50:51Z</time>
      </trkpt>
      <trkpt lat="46.07656" lon="3.33062">
        <ele>367.4</ele>
        <time>2024-04-14T08:50:52Z</time>
      </trkpt>
      <trkpt lat="46.07661" lon="3.3307">
        <ele>367.4</ele>
        <time>2024-04-14T08:50:53Z</time>
      </trkpt>
      <trkpt lat="46.07666" lon="3.33078">
        <ele>367.4</ele>
        <time>2024-04-14T08:50:54Z</time>
      </trkpt>
      <trkpt lat="46.07671" lon="3.33086">
        <ele>367.4</ele>
        <time>2024-04-14T08:50:55Z</time>
      </trkpt>
      <trkpt lat="46.07677" lon="3.33094">
        <ele>367.2</ele>
        <time>2024-04-14T08:50:56Z</time>
      </trkpt>
      <trkpt lat="46.07682" lon="3.33101">
        <ele>367.2</ele>
        <time>2024-04-14T08:50:57Z</time>
      </trkpt>
      <trkpt lat="46.07688" lon="3.33108">
        <ele>367.2</ele>
        <time>2024-04-14T08:50:58Z</time>
      </trkpt>
      <trkpt lat="46.07694" lon="3.33114">
        <ele>367.2</ele>
        <time>2024-04-14T08:50:59Z</time>
      </trkpt>
      <trkpt lat="46.07699" lon="3.3312">
        <ele>367.2</ele>
        <time>2024-04-14T08:51:00Z</time>
      </trkpt>
      <trkpt lat="46.07705" lon="3.33127">
        <ele>367.2</ele>
        <time>2024-04-14T08:51:01Z</time>
      </trkpt>
      <trkpt lat="46.0771" lon="3.33134">
        <ele>367.4</ele>
        <time>2024-04-14T08:51:02Z</time>
      </trkpt>
      <trkpt lat="46.07716" lon="3.33139">
        <ele>367.4</ele>
        <time>2024-04-14T08:51:03Z</time>
      </trkpt>
      <trkpt lat="46.07722" lon="3.33145">
        <ele>367.4</ele>
        <time>2024-04-14T08:51:04Z</time>
      </trkpt>
      <trkpt lat="46.07728" lon="3.3315">
        <ele>367.4</ele>
        <time>2024-04-14T08:51:05Z</time>
      </trkpt>
      <trkpt lat="46.07734" lon="3.33155">
        <ele>367.4</ele>
        <time>2024-04-14T08:51:06Z</time>
      </trkpt>
      <trkpt lat="46.0774" lon="3.3316">
        <ele>367.4</ele>
        <time>2024-04-14T08:51:07Z</time>
      </trkpt>
      <trkpt lat="46.07746" lon="3.33165">
        <ele>367.6</ele>
        <time>2024-04-14T08:51:08Z</time>
      </trkpt>
      <trkpt lat="46.07751" lon="3.3317">
        <ele>367.6</ele>
        <time>2024-04-14T08:51:09Z</time>
      </trkpt>
      <trkpt lat="46.07757" lon="3.33174">
        <ele>367.6</ele>
        <time>2024-04-14T08:51:10Z</time>
      </trkpt>
      <trkpt lat="46.07763" lon="3.33178">
        <ele>367.6</ele>
        <time>2024-04-14T08:51:11Z</time>
      </trkpt>
      <trkpt lat="46.0777" lon="3.33182">
        <ele>367.8</ele>
        <time>2024-04-14T08:51:12Z</time>
      </trkpt>
      <trkpt lat="46.07776" lon="3.33185">
        <ele>367.8</ele>
        <time>2024-04-14T08:51:13Z</time>
      </trkpt>
      <trkpt lat="46.07783" lon="3.33189">
        <ele>367.8</ele>
        <time>2024-04-14T08:51:14Z</time>
      </trkpt>
      <trkpt lat="46.07789" lon="3.33192">
        <ele>368</ele>
        <time>2024-04-14T08:51:15Z</time>
      </trkpt>
      <trkpt lat="46.07795" lon="3.33196">
        <ele>368</ele>
        <time>2024-04-14T08:51:16Z</time>
      </trkpt>
      <trkpt lat="46.07801" lon="3.33199">
        <ele>368</ele>
        <time>2024-04-14T08:51:17Z</time>
      </trkpt>
      <trkpt lat="46.07808" lon="3.33203">
        <ele>368</ele>
        <time>2024-04-14T08:51:18Z</time>
      </trkpt>
      <trkpt lat="46.07814" lon="3.33206">
        <ele>368.2</ele>
        <time>2024-04-14T08:51:19Z</time>
      </trkpt>
      <trkpt lat="46.0782" lon="3.33209">
        <ele>368.2</ele>
        <time>2024-04-14T08:51:20Z</time>
      </trkpt>
      <trkpt lat="46.07826" lon="3.33213">
        <ele>368.2</ele>
        <time>2024-04-14T08:51:21Z</time>
      </trkpt>
      <trkpt lat="46.07831" lon="3.33216">
        <ele>368.4</ele>
        <time>2024-04-14T08:51:22Z</time>
      </trkpt>
      <trkpt lat="46.07837" lon="3.33219">
        <ele>368.4</ele>
        <time>2024-04-14T08:51:23Z</time>
      </trkpt>
      <trkpt lat="46.07844" lon="3.33222">
        <ele>368.4</ele>
        <time>2024-04-14T08:51:24Z</time>
      </trkpt>
      <trkpt lat="46.0785" lon="3.33224">
        <ele>368.6</ele>
        <time>2024-04-14T08:51:25Z</time>
      </trkpt>
      <trkpt lat="46.07856" lon="3.33227">
        <ele>368.6</ele>
        <time>2024-04-14T08:51:26Z</time>
      </trkpt>
      <trkpt lat="46.07862" lon="3.33229">
        <ele>368.6</ele>
        <time>2024-04-14T08:51:27Z</time>
      </trkpt>
      <trkpt lat="46.07869" lon="3.33231">
        <ele>368.8</ele>
        <time>2024-04-14T08:51:28Z</time>
      </trkpt>
      <trkpt lat="46.07875" lon="3.33233">
        <ele>368.8</ele>
        <time>2024-04-14T08:51:29Z</time>
      </trkpt>
      <trkpt lat="46.07881" lon="3.33236">
        <ele>369</ele>
        <time>2024-04-14T08:51:30Z</time>
      </trkpt>
      <trkpt lat="46.07887" lon="3.33238">
        <ele>369</ele>
        <time>2024-04-14T08:51:31Z</time>
      </trkpt>
      <trkpt lat="46.07893" lon="3.3324">
        <ele>369</ele>
        <time>2024-04-14T08:51:32Z</time>
      </trkpt>
      <trkpt lat="46.07899" lon="3.33242">
        <ele>369.2</ele>
        <time>2024-04-14T08:51:33Z</time>
      </trkpt>
      <trkpt lat="46.07905" lon="3.33244">
        <ele>369.2</ele>
        <time>2024-04-14T08:51:34Z</time>
      </trkpt>
      <trkpt lat="46.0791" lon="3.33247">
        <ele>369.2</ele>
        <time>2024-04-14T08:51:35Z</time>
      </trkpt>
      <trkpt lat="46.07916" lon="3.33249">
        <ele>369.4</ele>
        <time>2024-04-14T08:51:36Z</time>
      </trkpt>
      <trkpt lat="46.07922" lon="3.33251">
        <ele>369.4</ele>
        <time>2024-04-14T08:51:37Z</time>
      </trkpt>
      <trkpt lat="46.07928" lon="3.33253">
        <ele>369.4</ele>
        <time>2024-04-14T08:51:38Z</time>
      </trkpt>
      <trkpt lat="46.07934" lon="3.33255">
        <ele>369.6</ele>
        <time>2024-04-14T08:51:39Z</time>
      </trkpt>
      <trkpt lat="46.0794" lon="3.33257">
        <ele>369.6</ele>
        <time>2024-04-14T08:51:40Z</time>
      </trkpt>
      <trkpt lat="46.07946" lon="3.3326">
        <ele>369.6</ele>
        <time>2024-04-14T08:51:41Z</time>
      </trkpt>
      <trkpt lat="46.07952" lon="3.33262">
        <ele>369.6</ele>
        <time>2024-04-14T08:51:42Z</time>
      </trkpt>
      <trkpt lat="46.07958" lon="3.33264">
        <ele>369.8</ele>
        <time>2024-04-14T08:51:43Z</time>
      </trkpt>
      <trkpt lat="46.07964" lon="3.33266">
        <ele>369.8</ele>
        <time>2024-04-14T08:51:44Z</time>
      </trkpt>
      <trkpt lat="46.0797" lon="3.33269">
        <ele>369.8</ele>
        <time>2024-04-14T08:51:45Z</time>
      </trkpt>
      <trkpt lat="46.07976" lon="3.33271">
        <ele>369.8</ele>
        <time>2024-04-14T08:51:46Z</time>
      </trkpt>
      <trkpt lat="46.07982" lon="3.33273">
        <ele>370</ele>
        <time>2024-04-14T08:51:47Z</time>
      </trkpt>
      <trkpt lat="46.07988" lon="3.33275">
        <ele>370</ele>
        <time>2024-04-14T08:51:48Z</time>
      </trkpt>
      <trkpt lat="46.07995" lon="3.33278">
        <ele>370</ele>
        <time>2024-04-14T08:51:49Z</time>
      </trkpt>
      <trkpt lat="46.08001" lon="3.3328">
        <ele>370</ele>
        <time>2024-04-14T08:51:50Z</time>
      </trkpt>
      <trkpt lat="46.08007" lon="3.33282">
        <ele>370</ele>
        <time>2024-04-14T08:51:51Z</time>
      </trkpt>
      <trkpt lat="46.08014" lon="3.33285">
        <ele>370.2</ele>
        <time>2024-04-14T08:51:52Z</time>
      </trkpt>
      <trkpt lat="46.0802" lon="3.33287">
        <ele>370.2</ele>
        <time>2024-04-14T08:51:53Z</time>
      </trkpt>
      <trkpt lat="46.08027" lon="3.3329">
        <ele>370.2</ele>
        <time>2024-04-14T08:51:54Z</time>
      </trkpt>
      <trkpt lat="46.08033" lon="3.33292">
        <ele>370.4</ele>
        <time>2024-04-14T08:51:55Z</time>
      </trkpt>
      <trkpt lat="46.0804" lon="3.33294">
        <ele>370.4</ele>
        <time>2024-04-14T08:51:56Z</time>
      </trkpt>
      <trkpt lat="46.08046" lon="3.33297">
        <ele>370.4</ele>
        <time>2024-04-14T08:51:57Z</time>
      </trkpt>
      <trkpt lat="46.08053" lon="3.33299">
        <ele>370.6</ele>
        <time>2024-04-14T08:51:58Z</time>
      </trkpt>
      <trkpt lat="46.08059" lon="3.33302">
        <ele>370.6</ele>
        <time>2024-04-14T08:51:59Z</time>
      </trkpt>
      <trkpt lat="46.08066" lon="3.33304">
        <ele>370.6</ele>
        <time>2024-04-14T08:52:00Z</time>
      </trkpt>
      <trkpt lat="46.08073" lon="3.33307">
        <ele>370.8</ele>
        <time>2024-04-14T08:52:01Z</time>
      </trkpt>
      <trkpt lat="46.08079" lon="3.33309">
        <ele>370.8</ele>
        <time>2024-04-14T08:52:02Z</time>
      </trkpt>
      <trkpt lat="46.08086" lon="3.33311">
        <ele>370.8</ele>
        <time>2024-04-14T08:52:03Z</time>
      </trkpt>
      <trkpt lat="46.08092" lon="3.33314">
        <ele>370.8</ele>
        <time>2024-04-14T08:52:04Z</time>
      </trkpt>
      <trkpt lat="46.08099" lon="3.33316">
        <ele>370.8</ele>
        <time>2024-04-14T08:52:05Z</time>
      </trkpt>
      <trkpt lat="46.08105" lon="3.33318">
        <ele>370.8</ele>
        <time>2024-04-14T08:52:06Z</time>
      </trkpt>
      <trkpt lat="46.08112" lon="3.33321">
        <ele>370.8</ele>
        <time>2024-04-14T08:52:07Z</time>
      </trkpt>
      <trkpt lat="46.08118" lon="3.33323">
        <ele>370.8</ele>
        <time>2024-04-14T08:52:08Z</time>
      </trkpt>
      <trkpt lat="46.08124" lon="3.33326">
        <ele>370.8</ele>
        <time>2024-04-14T08:52:09Z</time>
      </trkpt>
      <trkpt lat="46.08131" lon="3.33328">
        <ele>370.8</ele>
        <time>2024-04-14T08:52:10Z</time>
      </trkpt>
      <trkpt lat="46.08138" lon="3.33331">
        <ele>370.6</ele>
        <time>2024-04-14T08:52:11Z</time>
      </trkpt>
      <trkpt lat="46.08144" lon="3.33336">
        <ele>370.6</ele>
        <time>2024-04-14T08:52:12Z</time>
      </trkpt>
      <trkpt lat="46.08149" lon="3.33341">
        <ele>370.6</ele>
        <time>2024-04-14T08:52:13Z</time>
      </trkpt>
      <trkpt lat="46.08155" lon="3.33346">
        <ele>371.2</ele>
        <time>2024-04-14T08:52:14Z</time>
      </trkpt>
      <trkpt lat="46.0816" lon="3.33351">
        <ele>370.6</ele>
        <time>2024-04-14T08:52:15Z</time>
      </trkpt>
      <trkpt lat="46.08166" lon="3.33355">
        <ele>370</ele>
        <time>2024-04-14T08:52:16Z</time>
      </trkpt>
      <trkpt lat="46.08172" lon="3.33361">
        <ele>369.8</ele>
        <time>2024-04-14T08:52:17Z</time>
      </trkpt>
      <trkpt lat="46.08178" lon="3.33365">
        <ele>370.2</ele>
        <time>2024-04-14T08:52:18Z</time>
      </trkpt>
      <trkpt lat="46.08184" lon="3.33371">
        <ele>370</ele>
        <time>2024-04-14T08:52:19Z</time>
      </trkpt>
      <trkpt lat="46.0819" lon="3.33375">
        <ele>370</ele>
        <time>2024-04-14T08:52:20Z</time>
      </trkpt>
      <trkpt lat="46.08196" lon="3.3338">
        <ele>370</ele>
        <time>2024-04-14T08:52:21Z</time>
      </trkpt>
      <trkpt lat="46.08202" lon="3.33386">
        <ele>369.8</ele>
        <time>2024-04-14T08:52:22Z</time>
      </trkpt>
      <trkpt lat="46.08208" lon="3.33391">
        <ele>369.6</ele>
        <time>2024-04-14T08:52:23Z</time>
      </trkpt>
      <trkpt lat="46.08213" lon="3.33398">
        <ele>369.6</ele>
        <time>2024-04-14T08:52:24Z</time>
      </trkpt>
      <trkpt lat="46.08218" lon="3.33404">
        <ele>369.4</ele>
        <time>2024-04-14T08:52:25Z</time>
      </trkpt>
      <trkpt lat="46.08224" lon="3.3341">
        <ele>369.4</ele>
        <time>2024-04-14T08:52:26Z</time>
      </trkpt>
      <trkpt lat="46.0823" lon="3.33417">
        <ele>369.2</ele>
        <time>2024-04-14T08:52:27Z</time>
      </trkpt>
      <trkpt lat="46.08235" lon="3.33424">
        <ele>369.2</ele>
        <time>2024-04-14T08:52:28Z</time>
      </trkpt>
      <trkpt lat="46.08241" lon="3.33431">
        <ele>369.2</ele>
        <time>2024-04-14T08:52:29Z</time>
      </trkpt>
      <trkpt lat="46.08247" lon="3.33438">
        <ele>369</ele>
        <time>2024-04-14T08:52:30Z</time>
      </trkpt>
      <trkpt lat="46.08254" lon="3.33445">
        <ele>369</ele>
        <time>2024-04-14T08:52:31Z</time>
      </trkpt>
      <trkpt lat="46.0826" lon="3.33452">
        <ele>368.8</ele>
        <time>2024-04-14T08:52:32Z</time>
      </trkpt>
      <trkpt lat="46.08266" lon="3.33459">
        <ele>368.8</ele>
        <time>2024-04-14T08:52:33Z</time>
      </trkpt>
      <trkpt lat="46.08272" lon="3.33466">
        <ele>368.8</ele>
        <time>2024-04-14T08:52:34Z</time>
      </trkpt>
      <trkpt lat="46.08278" lon="3.33473">
        <ele>368.6</ele>
        <time>2024-04-14T08:52:35Z</time>
      </trkpt>
      <trkpt lat="46.08283" lon="3.3348">
        <ele>368.6</ele>
        <time>2024-04-14T08:52:36Z</time>
      </trkpt>
      <trkpt lat="46.08289" lon="3.33486">
        <ele>368.4</ele>
        <time>2024-04-14T08:52:37Z</time>
      </trkpt>
      <trkpt lat="46.08295" lon="3.33493">
        <ele>368.4</ele>
        <time>2024-04-14T08:52:38Z</time>
      </trkpt>
      <trkpt lat="46.08301" lon="3.335">
        <ele>368.2</ele>
        <time>2024-04-14T08:52:39Z</time>
      </trkpt>
      <trkpt lat="46.08306" lon="3.33507">
        <ele>368.2</ele>
        <time>2024-04-14T08:52:40Z</time>
      </trkpt>
      <trkpt lat="46.08312" lon="3.33513">
        <ele>368</ele>
        <time>2024-04-14T08:52:41Z</time>
      </trkpt>
      <trkpt lat="46.08318" lon="3.3352">
        <ele>368</ele>
        <time>2024-04-14T08:52:42Z</time>
      </trkpt>
      <trkpt lat="46.08323" lon="3.33528">
        <ele>368</ele>
        <time>2024-04-14T08:52:43Z</time>
      </trkpt>
      <trkpt lat="46.08327" lon="3.33537">
        <ele>367.8</ele>
        <time>2024-04-14T08:52:44Z</time>
      </trkpt>
      <trkpt lat="46.08332" lon="3.33545">
        <ele>367.8</ele>
        <time>2024-04-14T08:52:45Z</time>
      </trkpt>
      <trkpt lat="46.08336" lon="3.33553">
        <ele>367.8</ele>
        <time>2024-04-14T08:52:46Z</time>
      </trkpt>
      <trkpt lat="46.0834" lon="3.33562">
        <ele>367.8</ele>
        <time>2024-04-14T08:52:47Z</time>
      </trkpt>
      <trkpt lat="46.08345" lon="3.3357">
        <ele>367.8</ele>
        <time>2024-04-14T08:52:48Z</time>
      </trkpt>
      <trkpt lat="46.08349" lon="3.33578">
        <ele>367.8</ele>
        <time>2024-04-14T08:52:49Z</time>
      </trkpt>
      <trkpt lat="46.08353" lon="3.33586">
        <ele>367.8</ele>
        <time>2024-04-14T08:52:50Z</time>
      </trkpt>
      <trkpt lat="46.08357" lon="3.33594">
        <ele>367.8</ele>
        <time>2024-04-14T08:52:51Z</time>
      </trkpt>
      <trkpt lat="46.08361" lon="3.33602">
        <ele>367.8</ele>
        <time>2024-04-14T08:52:52Z</time>
      </trkpt>
      <trkpt lat="46.08365" lon="3.3361">
        <ele>367.8</ele>
        <time>2024-04-14T08:52:53Z</time>
      </trkpt>
      <trkpt lat="46.08369" lon="3.33618">
        <ele>367.8</ele>
        <time>2024-04-14T08:52:54Z</time>
      </trkpt>
      <trkpt lat="46.08374" lon="3.33626">
        <ele>367.6</ele>
        <time>2024-04-14T08:52:55Z</time>
      </trkpt>
      <trkpt lat="46.08378" lon="3.33634">
        <ele>367.6</ele>
        <time>2024-04-14T08:52:56Z</time>
      </trkpt>
      <trkpt lat="46.08381" lon="3.33641">
        <ele>367.6</ele>
        <time>2024-04-14T08:52:57Z</time>
      </trkpt>
      <trkpt lat="46.08385" lon="3.33649">
        <ele>367.6</ele>
        <time>2024-04-14T08:52:58Z</time>
      </trkpt>
      <trkpt lat="46.08389" lon="3.33656">
        <ele>367.6</ele>
        <time>2024-04-14T08:52:59Z</time>
      </trkpt>
      <trkpt lat="46.08393" lon="3.33664">
        <ele>367.6</ele>
        <time>2024-04-14T08:53:00Z</time>
      </trkpt>
      <trkpt lat="46.08397" lon="3.33672">
        <ele>367.6</ele>
        <time>2024-04-14T08:53:01Z</time>
      </trkpt>
      <trkpt lat="46.08399" lon="3.3368">
        <ele>367.8</ele>
        <time>2024-04-14T08:53:02Z</time>
      </trkpt>
      <trkpt lat="46.08402" lon="3.33689">
        <ele>367.8</ele>
        <time>2024-04-14T08:53:03Z</time>
      </trkpt>
      <trkpt lat="46.08405" lon="3.33697">
        <ele>367.4</ele>
        <time>2024-04-14T08:53:04Z</time>
      </trkpt>
      <trkpt lat="46.08408" lon="3.33705">
        <ele>367.6</ele>
        <time>2024-04-14T08:53:05Z</time>
      </trkpt>
      <trkpt lat="46.08411" lon="3.33713">
        <ele>367.8</ele>
        <time>2024-04-14T08:53:06Z</time>
      </trkpt>
      <trkpt lat="46.08414" lon="3.33721">
        <ele>368.2</ele>
        <time>2024-04-14T08:53:07Z</time>
      </trkpt>
      <trkpt lat="46.08416" lon="3.33729">
        <ele>368.4</ele>
        <time>2024-04-14T08:53:08Z</time>
      </trkpt>
      <trkpt lat="46.08419" lon="3.33737">
        <ele>368</ele>
        <time>2024-04-14T08:53:09Z</time>
      </trkpt>
      <trkpt lat="46.08422" lon="3.33745">
        <ele>368</ele>
        <time>2024-04-14T08:53:10Z</time>
      </trkpt>
      <trkpt lat="46.08425" lon="3.33753">
        <ele>368.2</ele>
        <time>2024-04-14T08:53:11Z</time>
      </trkpt>
      <trkpt lat="46.08427" lon="3.33761">
        <ele>368.2</ele>
        <time>2024-04-14T08:53:12Z</time>
      </trkpt>
      <trkpt lat="46.0843" lon="3.33769">
        <ele>368.2</ele>
        <time>2024-04-14T08:53:13Z</time>
      </trkpt>
      <trkpt lat="46.08433" lon="3.33777">
        <ele>368.4</ele>
        <time>2024-04-14T08:53:14Z</time>
      </trkpt>
      <trkpt lat="46.08436" lon="3.33785">
        <ele>368.4</ele>
        <time>2024-04-14T08:53:15Z</time>
      </trkpt>
      <trkpt lat="46.08439" lon="3.33793">
        <ele>368.4</ele>
        <time>2024-04-14T08:53:16Z</time>
      </trkpt>
      <trkpt lat="46.08442" lon="3.33802">
        <ele>368.4</ele>
        <time>2024-04-14T08:53:17Z</time>
      </trkpt>
      <trkpt lat="46.08445" lon="3.3381">
        <ele>368.6</ele>
        <time>2024-04-14T08:53:18Z</time>
      </trkpt>
      <trkpt lat="46.08447" lon="3.33819">
        <ele>368.6</ele>
        <time>2024-04-14T08:53:19Z</time>
      </trkpt>
      <trkpt lat="46.0845" lon="3.33827">
        <ele>368.6</ele>
        <time>2024-04-14T08:53:20Z</time>
      </trkpt>
      <trkpt lat="46.08453" lon="3.33836">
        <ele>368.6</ele>
        <time>2024-04-14T08:53:21Z</time>
      </trkpt>
      <trkpt lat="46.08457" lon="3.33845">
        <ele>368.6</ele>
        <time>2024-04-14T08:53:22Z</time>
      </trkpt>
      <trkpt lat="46.0846" lon="3.33853">
        <ele>368.8</ele>
        <time>2024-04-14T08:53:23Z</time>
      </trkpt>
      <trkpt lat="46.08463" lon="3.33862">
        <ele>368.8</ele>
        <time>2024-04-14T08:53:24Z</time>
      </trkpt>
      <trkpt lat="46.08466" lon="3.33871">
        <ele>368.8</ele>
        <time>2024-04-14T08:53:25Z</time>
      </trkpt>
      <trkpt lat="46.0847" lon="3.3388">
        <ele>368.8</ele>
        <time>2024-04-14T08:53:26Z</time>
      </trkpt>
      <trkpt lat="46.08473" lon="3.33889">
        <ele>369</ele>
        <time>2024-04-14T08:53:27Z</time>
      </trkpt>
      <trkpt lat="46.08476" lon="3.33898">
        <ele>369</ele>
        <time>2024-04-14T08:53:28Z</time>
      </trkpt>
      <trkpt lat="46.0848" lon="3.33906">
        <ele>369</ele>
        <time>2024-04-14T08:53:29Z</time>
      </trkpt>
      <trkpt lat="46.08483" lon="3.33915">
        <ele>369</ele>
        <time>2024-04-14T08:53:30Z</time>
      </trkpt>
      <trkpt lat="46.08487" lon="3.33924">
        <ele>369</ele>
        <time>2024-04-14T08:53:31Z</time>
      </trkpt>
      <trkpt lat="46.0849" lon="3.33933">
        <ele>369</ele>
        <time>2024-04-14T08:53:32Z</time>
      </trkpt>
      <trkpt lat="46.08493" lon="3.33942">
        <ele>369</ele>
        <time>2024-04-14T08:53:33Z</time>
      </trkpt>
      <trkpt lat="46.08497" lon="3.33951">
        <ele>369</ele>
        <time>2024-04-14T08:53:34Z</time>
      </trkpt>
      <trkpt lat="46.085" lon="3.3396">
        <ele>369.2</ele>
        <time>2024-04-14T08:53:35Z</time>
      </trkpt>
      <trkpt lat="46.08503" lon="3.33969">
        <ele>369</ele>
        <time>2024-04-14T08:53:36Z</time>
      </trkpt>
      <trkpt lat="46.08506" lon="3.33977">
        <ele>369.2</ele>
        <time>2024-04-14T08:53:37Z</time>
      </trkpt>
      <trkpt lat="46.0851" lon="3.33986">
        <ele>369.2</ele>
        <time>2024-04-14T08:53:38Z</time>
      </trkpt>
      <trkpt lat="46.08513" lon="3.33995">
        <ele>369.2</ele>
        <time>2024-04-14T08:53:39Z</time>
      </trkpt>
      <trkpt lat="46.08516" lon="3.34004">
        <ele>369.2</ele>
        <time>2024-04-14T08:53:40Z</time>
      </trkpt>
      <trkpt lat="46.0852" lon="3.34012">
        <ele>369.2</ele>
        <time>2024-04-14T08:53:41Z</time>
      </trkpt>
      <trkpt lat="46.08523" lon="3.34021">
        <ele>369.4</ele>
        <time>2024-04-14T08:53:42Z</time>
      </trkpt>
      <trkpt lat="46.08526" lon="3.3403">
        <ele>369.4</ele>
        <time>2024-04-14T08:53:43Z</time>
      </trkpt>
      <trkpt lat="46.0853" lon="3.3404">
        <ele>369.4</ele>
        <time>2024-04-14T08:53:44Z</time>
      </trkpt>
      <trkpt lat="46.08533" lon="3.34049">
        <ele>369.2</ele>
        <time>2024-04-14T08:53:45Z</time>
      </trkpt>
      <trkpt lat="46.08536" lon="3.34057">
        <ele>369.2</ele>
        <time>2024-04-14T08:53:46Z</time>
      </trkpt>
      <trkpt lat="46.0854" lon="3.34066">
        <ele>369.2</ele>
        <time>2024-04-14T08:53:47Z</time>
      </trkpt>
      <trkpt lat="46.08543" lon="3.34075">
        <ele>369.2</ele>
        <time>2024-04-14T08:53:48Z</time>
      </trkpt>
      <trkpt lat="46.08546" lon="3.34083">
        <ele>369.4</ele>
        <time>2024-04-14T08:53:49Z</time>
      </trkpt>
      <trkpt lat="46.08549" lon="3.34092">
        <ele>369.4</ele>
        <time>2024-04-14T08:53:50Z</time>
      </trkpt>
      <trkpt lat="46.08552" lon="3.341">
        <ele>369.4</ele>
        <time>2024-04-14T08:53:51Z</time>
      </trkpt>
      <trkpt lat="46.08556" lon="3.34108">
        <ele>369.4</ele>
        <time>2024-04-14T08:53:52Z</time>
      </trkpt>
      <trkpt lat="46.08559" lon="3.34117">
        <ele>369.4</ele>
        <time>2024-04-14T08:53:53Z</time>
      </trkpt>
      <trkpt lat="46.08562" lon="3.34125">
        <ele>369.4</ele>
        <time>2024-04-14T08:53:54Z</time>
      </trkpt>
      <trkpt lat="46.08565" lon="3.34133">
        <ele>369.6</ele>
        <time>2024-04-14T08:53:55Z</time>
      </trkpt>
      <trkpt lat="46.08568" lon="3.34142">
        <ele>369.6</ele>
        <time>2024-04-14T08:53:56Z</time>
      </trkpt>
      <trkpt lat="46.08571" lon="3.34149">
        <ele>369.6</ele>
        <time>2024-04-14T08:53:57Z</time>
      </trkpt>
      <trkpt lat="46.08575" lon="3.34156">
        <ele>369.6</ele>
        <time>2024-04-14T08:53:58Z</time>
      </trkpt>
      <trkpt lat="46.08579" lon="3.34162">
        <ele>369.6</ele>
        <time>2024-04-14T08:53:59Z</time>
      </trkpt>
      <trkpt lat="46.08584" lon="3.34169">
        <ele>369.6</ele>
        <time>2024-04-14T08:54:00Z</time>
      </trkpt>
      <trkpt lat="46.08588" lon="3.34176">
        <ele>369.8</ele>
        <time>2024-04-14T08:54:01Z</time>
      </trkpt>
      <trkpt lat="46.08592" lon="3.34184">
        <ele>369.8</ele>
        <time>2024-04-14T08:54:02Z</time>
      </trkpt>
      <trkpt lat="46.08597" lon="3.34191">
        <ele>369.8</ele>
        <time>2024-04-14T08:54:03Z</time>
      </trkpt>
      <trkpt lat="46.08601" lon="3.34198">
        <ele>369.8</ele>
        <time>2024-04-14T08:54:04Z</time>
      </trkpt>
      <trkpt lat="46.08606" lon="3.34205">
        <ele>369.8</ele>
        <time>2024-04-14T08:54:05Z</time>
      </trkpt>
      <trkpt lat="46.0861" lon="3.34211">
        <ele>370</ele>
        <time>2024-04-14T08:54:06Z</time>
      </trkpt>
      <trkpt lat="46.08616" lon="3.34217">
        <ele>370</ele>
        <time>2024-04-14T08:54:07Z</time>
      </trkpt>
      <trkpt lat="46.08621" lon="3.34223">
        <ele>370</ele>
        <time>2024-04-14T08:54:08Z</time>
      </trkpt>
      <trkpt lat="46.08627" lon="3.34229">
        <ele>370</ele>
        <time>2024-04-14T08:54:09Z</time>
      </trkpt>
      <trkpt lat="46.08632" lon="3.34235">
        <ele>370.2</ele>
        <time>2024-04-14T08:54:10Z</time>
      </trkpt>
      <trkpt lat="46.08638" lon="3.34241">
        <ele>370.2</ele>
        <time>2024-04-14T08:54:11Z</time>
      </trkpt>
      <trkpt lat="46.08643" lon="3.34247">
        <ele>370.2</ele>
        <time>2024-04-14T08:54:12Z</time>
      </trkpt>
      <trkpt lat="46.08649" lon="3.34252">
        <ele>370.2</ele>
        <time>2024-04-14T08:54:13Z</time>
      </trkpt>
      <trkpt lat="46.08655" lon="3.34256">
        <ele>370.4</ele>
        <time>2024-04-14T08:54:14Z</time>
      </trkpt>
      <trkpt lat="46.08662" lon="3.3426">
        <ele>370.4</ele>
        <time>2024-04-14T08:54:15Z</time>
      </trkpt>
      <trkpt lat="46.08668" lon="3.34264">
        <ele>370.4</ele>
        <time>2024-04-14T08:54:16Z</time>
      </trkpt>
      <trkpt lat="46.08675" lon="3.34268">
        <ele>370.6</ele>
        <time>2024-04-14T08:54:17Z</time>
      </trkpt>
      <trkpt lat="46.08681" lon="3.34272">
        <ele>370.6</ele>
        <time>2024-04-14T08:54:18Z</time>
      </trkpt>
      <trkpt lat="46.08688" lon="3.34276">
        <ele>370.6</ele>
        <time>2024-04-14T08:54:19Z</time>
      </trkpt>
      <trkpt lat="46.08694" lon="3.3428">
        <ele>370.6</ele>
        <time>2024-04-14T08:54:20Z</time>
      </trkpt>
      <trkpt lat="46.08701" lon="3.34284">
        <ele>370.6</ele>
        <time>2024-04-14T08:54:21Z</time>
      </trkpt>
      <trkpt lat="46.08707" lon="3.34287">
        <ele>370.6</ele>
        <time>2024-04-14T08:54:22Z</time>
      </trkpt>
      <trkpt lat="46.08714" lon="3.3429">
        <ele>370.8</ele>
        <time>2024-04-14T08:54:23Z</time>
      </trkpt>
      <trkpt lat="46.08721" lon="3.34293">
        <ele>370.8</ele>
        <time>2024-04-14T08:54:24Z</time>
      </trkpt>
      <trkpt lat="46.08728" lon="3.34296">
        <ele>370.8</ele>
        <time>2024-04-14T08:54:25Z</time>
      </trkpt>
      <trkpt lat="46.08735" lon="3.34296">
        <ele>370.8</ele>
        <time>2024-04-14T08:54:26Z</time>
      </trkpt>
      <trkpt lat="46.08742" lon="3.34297">
        <ele>370.8</ele>
        <time>2024-04-14T08:54:27Z</time>
      </trkpt>
      <trkpt lat="46.08749" lon="3.34298">
        <ele>370.8</ele>
        <time>2024-04-14T08:54:28Z</time>
      </trkpt>
      <trkpt lat="46.08756" lon="3.34298">
        <ele>370.8</ele>
        <time>2024-04-14T08:54:29Z</time>
      </trkpt>
      <trkpt lat="46.08764" lon="3.34299">
        <ele>370.8</ele>
        <time>2024-04-14T08:54:30Z</time>
      </trkpt>
      <trkpt lat="46.08771" lon="3.343">
        <ele>370.8</ele>
        <time>2024-04-14T08:54:31Z</time>
      </trkpt>
      <trkpt lat="46.08779" lon="3.343">
        <ele>370.8</ele>
        <time>2024-04-14T08:54:32Z</time>
      </trkpt>
      <trkpt lat="46.08786" lon="3.34301">
        <ele>370.8</ele>
        <time>2024-04-14T08:54:33Z</time>
      </trkpt>
      <trkpt lat="46.08794" lon="3.34302">
        <ele>370.8</ele>
        <time>2024-04-14T08:54:34Z</time>
      </trkpt>
      <trkpt lat="46.08801" lon="3.34301">
        <ele>370.8</ele>
        <time>2024-04-14T08:54:35Z</time>
      </trkpt>
      <trkpt lat="46.08809" lon="3.34299">
        <ele>370.6</ele>
        <time>2024-04-14T08:54:36Z</time>
      </trkpt>
      <trkpt lat="46.08816" lon="3.34298">
        <ele>370.6</ele>
        <time>2024-04-14T08:54:37Z</time>
      </trkpt>
      <trkpt lat="46.08824" lon="3.34296">
        <ele>370.6</ele>
        <time>2024-04-14T08:54:38Z</time>
      </trkpt>
      <trkpt lat="46.08832" lon="3.34294">
        <ele>370.2</ele>
        <time>2024-04-14T08:54:39Z</time>
      </trkpt>
      <trkpt lat="46.08839" lon="3.34292">
        <ele>370.2</ele>
        <time>2024-04-14T08:54:40Z</time>
      </trkpt>
      <trkpt lat="46.08847" lon="3.34291">
        <ele>370.2</ele>
        <time>2024-04-14T08:54:41Z</time>
      </trkpt>
      <trkpt lat="46.08855" lon="3.34289">
        <ele>370</ele>
        <time>2024-04-14T08:54:42Z</time>
      </trkpt>
      <trkpt lat="46.08863" lon="3.34287">
        <ele>369.8</ele>
        <time>2024-04-14T08:54:43Z</time>
      </trkpt>
      <trkpt lat="46.0887" lon="3.34285">
        <ele>369.8</ele>
        <time>2024-04-14T08:54:44Z</time>
      </trkpt>
      <trkpt lat="46.08878" lon="3.34284">
        <ele>369.6</ele>
        <time>2024-04-14T08:54:45Z</time>
      </trkpt>
      <trkpt lat="46.08885" lon="3.34282">
        <ele>369.2</ele>
        <time>2024-04-14T08:54:46Z</time>
      </trkpt>
      <trkpt lat="46.08893" lon="3.3428">
        <ele>369.2</ele>
        <time>2024-04-14T08:54:47Z</time>
      </trkpt>
      <trkpt lat="46.089" lon="3.34279">
        <ele>369</ele>
        <time>2024-04-14T08:54:48Z</time>
      </trkpt>
      <trkpt lat="46.08907" lon="3.34277">
        <ele>368.6</ele>
        <time>2024-04-14T08:54:49Z</time>
      </trkpt>
      <trkpt lat="46.08913" lon="3.34276">
        <ele>368.4</ele>
        <time>2024-04-14T08:54:50Z</time>
      </trkpt>
      <trkpt lat="46.0892" lon="3.34274">
        <ele>368.2</ele>
        <time>2024-04-14T08:54:51Z</time>
      </trkpt>
      <trkpt lat="46.08927" lon="3.34273">
        <ele>367.8</ele>
        <time>2024-04-14T08:54:52Z</time>
      </trkpt>
      <trkpt lat="46.08935" lon="3.34273">
        <ele>367.6</ele>
        <time>2024-04-14T08:54:53Z</time>
      </trkpt>
      <trkpt lat="46.08942" lon="3.34272">
        <ele>367.4</ele>
        <time>2024-04-14T08:54:54Z</time>
      </trkpt>
      <trkpt lat="46.0895" lon="3.34271">
        <ele>367.2</ele>
        <time>2024-04-14T08:54:55Z</time>
      </trkpt>
      <trkpt lat="46.08958" lon="3.3427">
        <ele>367</ele>
        <time>2024-04-14T08:54:56Z</time>
      </trkpt>
      <trkpt lat="46.08966" lon="3.34272">
        <ele>367</ele>
        <time>2024-04-14T08:54:57Z</time>
      </trkpt>
      <trkpt lat="46.08974" lon="3.34274">
        <ele>366.8</ele>
        <time>2024-04-14T08:54:58Z</time>
      </trkpt>
      <trkpt lat="46.08982" lon="3.34277">
        <ele>366.8</ele>
        <time>2024-04-14T08:54:59Z</time>
      </trkpt>
      <trkpt lat="46.08989" lon="3.34279">
        <ele>366.6</ele>
        <time>2024-04-14T08:55:00Z</time>
      </trkpt>
      <trkpt lat="46.08997" lon="3.34282">
        <ele>366.4</ele>
        <time>2024-04-14T08:55:01Z</time>
      </trkpt>
      <trkpt lat="46.09005" lon="3.34284">
        <ele>366.2</ele>
        <time>2024-04-14T08:55:02Z</time>
      </trkpt>
      <trkpt lat="46.09013" lon="3.34287">
        <ele>366.2</ele>
        <time>2024-04-14T08:55:03Z</time>
      </trkpt>
      <trkpt lat="46.09021" lon="3.34289">
        <ele>366</ele>
        <time>2024-04-14T08:55:04Z</time>
      </trkpt>
      <trkpt lat="46.09028" lon="3.34292">
        <ele>366</ele>
        <time>2024-04-14T08:55:05Z</time>
      </trkpt>
      <trkpt lat="46.09036" lon="3.34296">
        <ele>365.8</ele>
        <time>2024-04-14T08:55:06Z</time>
      </trkpt>
      <trkpt lat="46.09043" lon="3.34301">
        <ele>365.8</ele>
        <time>2024-04-14T08:55:07Z</time>
      </trkpt>
      <trkpt lat="46.0905" lon="3.34305">
        <ele>365.6</ele>
        <time>2024-04-14T08:55:08Z</time>
      </trkpt>
      <trkpt lat="46.09057" lon="3.3431">
        <ele>365.6</ele>
        <time>2024-04-14T08:55:09Z</time>
      </trkpt>
      <trkpt lat="46.09064" lon="3.34315">
        <ele>365.6</ele>
        <time>2024-04-14T08:55:10Z</time>
      </trkpt>
      <trkpt lat="46.09071" lon="3.3432">
        <ele>365.6</ele>
        <time>2024-04-14T08:55:11Z</time>
      </trkpt>
      <trkpt lat="46.09077" lon="3.34325">
        <ele>365.6</ele>
        <time>2024-04-14T08:55:12Z</time>
      </trkpt>
      <trkpt lat="46.09084" lon="3.34332">
        <ele>365.6</ele>
        <time>2024-04-14T08:55:13Z</time>
      </trkpt>
      <trkpt lat="46.09089" lon="3.34339">
        <ele>365.6</ele>
        <time>2024-04-14T08:55:14Z</time>
      </trkpt>
      <trkpt lat="46.09095" lon="3.34346">
        <ele>365.4</ele>
        <time>2024-04-14T08:55:15Z</time>
      </trkpt>
      <trkpt lat="46.09101" lon="3.34353">
        <ele>365.4</ele>
        <time>2024-04-14T08:55:16Z</time>
      </trkpt>
      <trkpt lat="46.09106" lon="3.3436">
        <ele>365.4</ele>
        <time>2024-04-14T08:55:17Z</time>
      </trkpt>
      <trkpt lat="46.09112" lon="3.34367">
        <ele>365.4</ele>
        <time>2024-04-14T08:55:18Z</time>
      </trkpt>
      <trkpt lat="46.09117" lon="3.34374">
        <ele>365.4</ele>
        <time>2024-04-14T08:55:19Z</time>
      </trkpt>
      <trkpt lat="46.09122" lon="3.34381">
        <ele>365.4</ele>
        <time>2024-04-14T08:55:20Z</time>
      </trkpt>
      <trkpt lat="46.09127" lon="3.34388">
        <ele>365.4</ele>
        <time>2024-04-14T08:55:21Z</time>
      </trkpt>
      <trkpt lat="46.09132" lon="3.34394">
        <ele>365.4</ele>
        <time>2024-04-14T08:55:22Z</time>
      </trkpt>
      <trkpt lat="46.09137" lon="3.34401">
        <ele>365.4</ele>
        <time>2024-04-14T08:55:23Z</time>
      </trkpt>
      <trkpt lat="46.09142" lon="3.34408">
        <ele>365.4</ele>
        <time>2024-04-14T08:55:24Z</time>
      </trkpt>
      <trkpt lat="46.09146" lon="3.34414">
        <ele>365.4</ele>
        <time>2024-04-14T08:55:25Z</time>
      </trkpt>
      <trkpt lat="46.09151" lon="3.34421">
        <ele>365.4</ele>
        <time>2024-04-14T08:55:26Z</time>
      </trkpt>
      <trkpt lat="46.09156" lon="3.34427">
        <ele>365.4</ele>
        <time>2024-04-14T08:55:27Z</time>
      </trkpt>
      <trkpt lat="46.09161" lon="3.34434">
        <ele>365.6</ele>
        <time>2024-04-14T08:55:28Z</time>
      </trkpt>
      <trkpt lat="46.09166" lon="3.3444">
        <ele>365.6</ele>
        <time>2024-04-14T08:55:29Z</time>
      </trkpt>
      <trkpt lat="46.0917" lon="3.34447">
        <ele>365</ele>
        <time>2024-04-14T08:55:30Z</time>
      </trkpt>
      <trkpt lat="46.09175" lon="3.34453">
        <ele>365.4</ele>
        <time>2024-04-14T08:55:31Z</time>
      </trkpt>
      <trkpt lat="46.0918" lon="3.34459">
        <ele>365.8</ele>
        <time>2024-04-14T08:55:32Z</time>
      </trkpt>
      <trkpt lat="46.09184" lon="3.34465">
        <ele>366.2</ele>
        <time>2024-04-14T08:55:33Z</time>
      </trkpt>
      <trkpt lat="46.09189" lon="3.34472">
        <ele>365.8</ele>
        <time>2024-04-14T08:55:34Z</time>
      </trkpt>
      <trkpt lat="46.09193" lon="3.34478">
        <ele>366</ele>
        <time>2024-04-14T08:55:35Z</time>
      </trkpt>
      <trkpt lat="46.09198" lon="3.34484">
        <ele>366</ele>
        <time>2024-04-14T08:55:36Z</time>
      </trkpt>
      <trkpt lat="46.09203" lon="3.34489">
        <ele>366</ele>
        <time>2024-04-14T08:55:37Z</time>
      </trkpt>
      <trkpt lat="46.09208" lon="3.34495">
        <ele>366</ele>
        <time>2024-04-14T08:55:38Z</time>
      </trkpt>
      <trkpt lat="46.09213" lon="3.345">
        <ele>366</ele>
        <time>2024-04-14T08:55:39Z</time>
      </trkpt>
      <trkpt lat="46.09217" lon="3.34506">
        <ele>366.2</ele>
        <time>2024-04-14T08:55:40Z</time>
      </trkpt>
      <trkpt lat="46.09222" lon="3.34511">
        <ele>366.2</ele>
        <time>2024-04-14T08:55:41Z</time>
      </trkpt>
      <trkpt lat="46.09227" lon="3.34516">
        <ele>366.2</ele>
        <time>2024-04-14T08:55:42Z</time>
      </trkpt>
      <trkpt lat="46.09232" lon="3.34521">
        <ele>366.4</ele>
        <time>2024-04-14T08:55:43Z</time>
      </trkpt>
      <trkpt lat="46.09237" lon="3.34527">
        <ele>366.4</ele>
        <time>2024-04-14T08:55:44Z</time>
      </trkpt>
      <trkpt lat="46.09242" lon="3.34532">
        <ele>366.6</ele>
        <time>2024-04-14T08:55:45Z</time>
      </trkpt>
      <trkpt lat="46.09247" lon="3.34537">
        <ele>366.6</ele>
        <time>2024-04-14T08:55:46Z</time>
      </trkpt>
      <trkpt lat="46.09252" lon="3.34541">
        <ele>366.6</ele>
        <time>2024-04-14T08:55:47Z</time>
      </trkpt>
      <trkpt lat="46.09257" lon="3.34546">
        <ele>366.6</ele>
        <time>2024-04-14T08:55:48Z</time>
      </trkpt>
      <trkpt lat="46.09262" lon="3.3455">
        <ele>366.8</ele>
        <time>2024-04-14T08:55:49Z</time>
      </trkpt>
      <trkpt lat="46.09267" lon="3.34555">
        <ele>366.8</ele>
        <time>2024-04-14T08:55:50Z</time>
      </trkpt>
      <trkpt lat="46.09272" lon="3.34559">
        <ele>366.8</ele>
        <time>2024-04-14T08:55:51Z</time>
      </trkpt>
      <trkpt lat="46.09278" lon="3.34564">
        <ele>367</ele>
        <time>2024-04-14T08:55:52Z</time>
      </trkpt>
      <trkpt lat="46.09283" lon="3.34569">
        <ele>367</ele>
        <time>2024-04-14T08:55:53Z</time>
      </trkpt>
      <trkpt lat="46.09289" lon="3.34573">
        <ele>367.2</ele>
        <time>2024-04-14T08:55:54Z</time>
      </trkpt>
      <trkpt lat="46.09295" lon="3.34578">
        <ele>367.2</ele>
        <time>2024-04-14T08:55:55Z</time>
      </trkpt>
      <trkpt lat="46.09301" lon="3.34581">
        <ele>367.2</ele>
        <time>2024-04-14T08:55:56Z</time>
      </trkpt>
      <trkpt lat="46.09307" lon="3.34584">
        <ele>367.4</ele>
        <time>2024-04-14T08:55:57Z</time>
      </trkpt>
      <trkpt lat="46.09313" lon="3.34586">
        <ele>367.4</ele>
        <time>2024-04-14T08:55:58Z</time>
      </trkpt>
      <trkpt lat="46.09319" lon="3.34589">
        <ele>367.4</ele>
        <time>2024-04-14T08:55:59Z</time>
      </trkpt>
      <trkpt lat="46.09325" lon="3.34592">
        <ele>367.2</ele>
        <time>2024-04-14T08:56:00Z</time>
      </trkpt>
      <trkpt lat="46.09331" lon="3.34595">
        <ele>367.2</ele>
        <time>2024-04-14T08:56:01Z</time>
      </trkpt>
      <trkpt lat="46.09337" lon="3.34598">
        <ele>367.2</ele>
        <time>2024-04-14T08:56:02Z</time>
      </trkpt>
      <trkpt lat="46.09344" lon="3.34601">
        <ele>367</ele>
        <time>2024-04-14T08:56:03Z</time>
      </trkpt>
      <trkpt lat="46.0935" lon="3.34604">
        <ele>367</ele>
        <time>2024-04-14T08:56:04Z</time>
      </trkpt>
      <trkpt lat="46.09356" lon="3.34607">
        <ele>367</ele>
        <time>2024-04-14T08:56:05Z</time>
      </trkpt>
      <trkpt lat="46.09362" lon="3.3461">
        <ele>367</ele>
        <time>2024-04-14T08:56:06Z</time>
      </trkpt>
      <trkpt lat="46.09369" lon="3.34613">
        <ele>366.8</ele>
        <time>2024-04-14T08:56:07Z</time>
      </trkpt>
      <trkpt lat="46.09375" lon="3.34616">
        <ele>367.6</ele>
        <time>2024-04-14T08:56:08Z</time>
      </trkpt>
      <trkpt lat="46.09382" lon="3.34619">
        <ele>367.2</ele>
        <time>2024-04-14T08:56:09Z</time>
      </trkpt>
      <trkpt lat="46.09388" lon="3.34623">
        <ele>366.8</ele>
        <time>2024-04-14T08:56:10Z</time>
      </trkpt>
      <trkpt lat="46.09395" lon="3.34626">
        <ele>366.2</ele>
        <time>2024-04-14T08:56:11Z</time>
      </trkpt>
      <trkpt lat="46.09401" lon="3.34629">
        <ele>366.6</ele>
        <time>2024-04-14T08:56:12Z</time>
      </trkpt>
      <trkpt lat="46.09406" lon="3.34634">
        <ele>366.6</ele>
        <time>2024-04-14T08:56:13Z</time>
      </trkpt>
      <trkpt lat="46.09412" lon="3.34639">
        <ele>366.4</ele>
        <time>2024-04-14T08:56:14Z</time>
      </trkpt>
      <trkpt lat="46.09417" lon="3.34644">
        <ele>366.4</ele>
        <time>2024-04-14T08:56:15Z</time>
      </trkpt>
      <trkpt lat="46.09423" lon="3.34649">
        <ele>366.2</ele>
        <time>2024-04-14T08:56:16Z</time>
      </trkpt>
      <trkpt lat="46.09428" lon="3.34654">
        <ele>366.2</ele>
        <time>2024-04-14T08:56:17Z</time>
      </trkpt>
      <trkpt lat="46.09434" lon="3.34659">
        <ele>366.2</ele>
        <time>2024-04-14T08:56:18Z</time>
      </trkpt>
      <trkpt lat="46.09439" lon="3.34664">
        <ele>366</ele>
        <time>2024-04-14T08:56:19Z</time>
      </trkpt>
      <trkpt lat="46.09445" lon="3.34669">
        <ele>365.8</ele>
        <time>2024-04-14T08:56:20Z</time>
      </trkpt>
      <trkpt lat="46.09451" lon="3.34674">
        <ele>365.8</ele>
        <time>2024-04-14T08:56:21Z</time>
      </trkpt>
      <trkpt lat="46.09456" lon="3.34679">
        <ele>365.8</ele>
        <time>2024-04-14T08:56:22Z</time>
      </trkpt>
      <trkpt lat="46.09462" lon="3.34684">
        <ele>365.6</ele>
        <time>2024-04-14T08:56:23Z</time>
      </trkpt>
      <trkpt lat="46.09468" lon="3.3469">
        <ele>365.4</ele>
        <time>2024-04-14T08:56:24Z</time>
      </trkpt>
      <trkpt lat="46.09473" lon="3.34695">
        <ele>365.4</ele>
        <time>2024-04-14T08:56:25Z</time>
      </trkpt>
      <trkpt lat="46.09479" lon="3.347">
        <ele>365.4</ele>
        <time>2024-04-14T08:56:26Z</time>
      </trkpt>
      <trkpt lat="46.09485" lon="3.34705">
        <ele>365.2</ele>
        <time>2024-04-14T08:56:27Z</time>
      </trkpt>
      <trkpt lat="46.0949" lon="3.3471">
        <ele>365.2</ele>
        <time>2024-04-14T08:56:28Z</time>
      </trkpt>
      <trkpt lat="46.09496" lon="3.34715">
        <ele>365</ele>
        <time>2024-04-14T08:56:29Z</time>
      </trkpt>
      <trkpt lat="46.09501" lon="3.3472">
        <ele>364.8</ele>
        <time>2024-04-14T08:56:30Z</time>
      </trkpt>
      <trkpt lat="46.09506" lon="3.34725">
        <ele>364.8</ele>
        <time>2024-04-14T08:56:31Z</time>
      </trkpt>
      <trkpt lat="46.09512" lon="3.3473">
        <ele>364.6</ele>
        <time>2024-04-14T08:56:32Z</time>
      </trkpt>
      <trkpt lat="46.09517" lon="3.34735">
        <ele>364.4</ele>
        <time>2024-04-14T08:56:33Z</time>
      </trkpt>
      <trkpt lat="46.09523" lon="3.34741">
        <ele>364.4</ele>
        <time>2024-04-14T08:56:34Z</time>
      </trkpt>
      <trkpt lat="46.09528" lon="3.34747">
        <ele>364.2</ele>
        <time>2024-04-14T08:56:35Z</time>
      </trkpt>
      <trkpt lat="46.09533" lon="3.34752">
        <ele>364.2</ele>
        <time>2024-04-14T08:56:36Z</time>
      </trkpt>
      <trkpt lat="46.09539" lon="3.34759">
        <ele>364.2</ele>
        <time>2024-04-14T08:56:37Z</time>
      </trkpt>
      <trkpt lat="46.09544" lon="3.34765">
        <ele>364</ele>
        <time>2024-04-14T08:56:38Z</time>
      </trkpt>
      <trkpt lat="46.0955" lon="3.34771">
        <ele>364</ele>
        <time>2024-04-14T08:56:39Z</time>
      </trkpt>
      <trkpt lat="46.09556" lon="3.34777">
        <ele>364</ele>
        <time>2024-04-14T08:56:40Z</time>
      </trkpt>
      <trkpt lat="46.09561" lon="3.34784">
        <ele>363.8</ele>
        <time>2024-04-14T08:56:41Z</time>
      </trkpt>
      <trkpt lat="46.09564" lon="3.34792">
        <ele>363.8</ele>
        <time>2024-04-14T08:56:42Z</time>
      </trkpt>
      <trkpt lat="46.09568" lon="3.34799">
        <ele>363.6</ele>
        <time>2024-04-14T08:56:43Z</time>
      </trkpt>
      <trkpt lat="46.09571" lon="3.34806">
        <ele>363.6</ele>
        <time>2024-04-14T08:56:44Z</time>
      </trkpt>
      <trkpt lat="46.09575" lon="3.34813">
        <ele>363.4</ele>
        <time>2024-04-14T08:56:45Z</time>
      </trkpt>
      <trkpt lat="46.09578" lon="3.34819">
        <ele>363.2</ele>
        <time>2024-04-14T08:56:46Z</time>
      </trkpt>
      <trkpt lat="46.09579" lon="3.34832">
        <ele>363</ele>
        <time>2024-04-14T08:56:47Z</time>
      </trkpt>
      <trkpt lat="46.09583" lon="3.34839">
        <ele>363</ele>
        <time>2024-04-14T08:56:48Z</time>
      </trkpt>
      <trkpt lat="46.09591" lon="3.34851">
        <ele>363</ele>
        <time>2024-04-14T08:56:49Z</time>
      </trkpt>
      <trkpt lat="46.09603" lon="3.34852">
        <ele>363.2</ele>
        <time>2024-04-14T08:56:50Z</time>
      </trkpt>
      <trkpt lat="46.09603" lon="3.34852">
        <ele>363.4</ele>
        <time>2024-04-14T08:56:51Z</time>
      </trkpt>
      <trkpt lat="46.09617" lon="3.34836">
        <ele>363.6</ele>
        <time>2024-04-14T08:56:52Z</time>
      </trkpt>
      <trkpt lat="46.09617" lon="3.34822">
        <ele>363.8</ele>
        <time>2024-04-14T08:56:53Z</time>
      </trkpt>
      <trkpt lat="46.09617" lon="3.34815">
        <ele>362.6</ele>
        <time>2024-04-14T08:56:54Z</time>
      </trkpt>
      <trkpt lat="46.09613" lon="3.34807">
        <ele>363.4</ele>
        <time>2024-04-14T08:56:55Z</time>
      </trkpt>
      <trkpt lat="46.09613" lon="3.34807">
        <ele>364</ele>
        <time>2024-04-14T08:56:56Z</time>
      </trkpt>
      <trkpt lat="46.09611" lon="3.34786">
        <ele>364.4</ele>
        <time>2024-04-14T08:56:57Z</time>
      </trkpt>
      <trkpt lat="46.09612" lon="3.34776">
        <ele>364.6</ele>
        <time>2024-04-14T08:56:58Z</time>
      </trkpt>
      <trkpt lat="46.09613" lon="3.34766">
        <ele>364.6</ele>
        <time>2024-04-14T08:56:59Z</time>
      </trkpt>
      <trkpt lat="46.09618" lon="3.3476">
        <ele>365</ele>
        <time>2024-04-14T08:57:00Z</time>
      </trkpt>
      <trkpt lat="46.09622" lon="3.34753">
        <ele>365.2</ele>
        <time>2024-04-14T08:57:01Z</time>
      </trkpt>
      <trkpt lat="46.09627" lon="3.34746">
        <ele>364.4</ele>
        <time>2024-04-14T08:57:02Z</time>
      </trkpt>
      <trkpt lat="46.09627" lon="3.34746">
        <ele>364.4</ele>
        <time>2024-04-14T08:57:03Z</time>
      </trkpt>
      <trkpt lat="46.09637" lon="3.34735">
        <ele>364.4</ele>
        <time>2024-04-14T08:57:04Z</time>
      </trkpt>
      <trkpt lat="46.09643" lon="3.3473">
        <ele>364.4</ele>
        <time>2024-04-14T08:57:05Z</time>
      </trkpt>
      <trkpt lat="46.09648" lon="3.34724">
        <ele>364.4</ele>
        <time>2024-04-14T08:57:06Z</time>
      </trkpt>
      <trkpt lat="46.09654" lon="3.34719">
        <ele>364.6</ele>
        <time>2024-04-14T08:57:07Z</time>
      </trkpt>
      <trkpt lat="46.09659" lon="3.34714">
        <ele>364.6</ele>
        <time>2024-04-14T08:57:08Z</time>
      </trkpt>
      <trkpt lat="46.09664" lon="3.34712">
        <ele>364.6</ele>
        <time>2024-04-14T08:57:09Z</time>
      </trkpt>
      <trkpt lat="46.09671" lon="3.3471">
        <ele>364.6</ele>
        <time>2024-04-14T08:57:10Z</time>
      </trkpt>
      <trkpt lat="46.09677" lon="3.34707">
        <ele>364.8</ele>
        <time>2024-04-14T08:57:11Z</time>
      </trkpt>
      <trkpt lat="46.09684" lon="3.34705">
        <ele>364.8</ele>
        <time>2024-04-14T08:57:12Z</time>
      </trkpt>
      <trkpt lat="46.0969" lon="3.34702">
        <ele>364.8</ele>
        <time>2024-04-14T08:57:13Z</time>
      </trkpt>
      <trkpt lat="46.09697" lon="3.347">
        <ele>364.8</ele>
        <time>2024-04-14T08:57:14Z</time>
      </trkpt>
      <trkpt lat="46.09703" lon="3.34697">
        <ele>364.8</ele>
        <time>2024-04-14T08:57:15Z</time>
      </trkpt>
      <trkpt lat="46.0971" lon="3.34695">
        <ele>365</ele>
        <time>2024-04-14T08:57:16Z</time>
      </trkpt>
      <trkpt lat="46.09717" lon="3.34692">
        <ele>365</ele>
        <time>2024-04-14T08:57:17Z</time>
      </trkpt>
      <trkpt lat="46.09723" lon="3.3469">
        <ele>365</ele>
        <time>2024-04-14T08:57:18Z</time>
      </trkpt>
      <trkpt lat="46.0973" lon="3.34687">
        <ele>365</ele>
        <time>2024-04-14T08:57:19Z</time>
      </trkpt>
      <trkpt lat="46.09737" lon="3.34685">
        <ele>365.2</ele>
        <time>2024-04-14T08:57:20Z</time>
      </trkpt>
      <trkpt lat="46.09744" lon="3.34682">
        <ele>365.2</ele>
        <time>2024-04-14T08:57:21Z</time>
      </trkpt>
      <trkpt lat="46.09751" lon="3.34679">
        <ele>365.2</ele>
        <time>2024-04-14T08:57:22Z</time>
      </trkpt>
      <trkpt lat="46.09759" lon="3.34674">
        <ele>365.2</ele>
        <time>2024-04-14T08:57:23Z</time>
      </trkpt>
      <trkpt lat="46.09765" lon="3.34668">
        <ele>365.2</ele>
        <time>2024-04-14T08:57:24Z</time>
      </trkpt>
      <trkpt lat="46.09771" lon="3.34661">
        <ele>365.4</ele>
        <time>2024-04-14T08:57:25Z</time>
      </trkpt>
      <trkpt lat="46.09777" lon="3.34655">
        <ele>365.4</ele>
        <time>2024-04-14T08:57:26Z</time>
      </trkpt>
      <trkpt lat="46.09783" lon="3.34648">
        <ele>365.4</ele>
        <time>2024-04-14T08:57:27Z</time>
      </trkpt>
      <trkpt lat="46.09788" lon="3.34641">
        <ele>365.6</ele>
        <time>2024-04-14T08:57:28Z</time>
      </trkpt>
      <trkpt lat="46.09793" lon="3.34632">
        <ele>365.6</ele>
        <time>2024-04-14T08:57:29Z</time>
      </trkpt>
      <trkpt lat="46.09798" lon="3.34624">
        <ele>365.6</ele>
        <time>2024-04-14T08:57:30Z</time>
      </trkpt>
      <trkpt lat="46.09802" lon="3.34615">
        <ele>365.6</ele>
        <time>2024-04-14T08:57:31Z</time>
      </trkpt>
      <trkpt lat="46.09807" lon="3.34607">
        <ele>365.6</ele>
        <time>2024-04-14T08:57:32Z</time>
      </trkpt>
      <trkpt lat="46.09812" lon="3.34598">
        <ele>365.6</ele>
        <time>2024-04-14T08:57:33Z</time>
      </trkpt>
      <trkpt lat="46.09814" lon="3.34588">
        <ele>365.4</ele>
        <time>2024-04-14T08:57:34Z</time>
      </trkpt>
      <trkpt lat="46.09815" lon="3.34578">
        <ele>365.4</ele>
        <time>2024-04-14T08:57:35Z</time>
      </trkpt>
      <trkpt lat="46.09817" lon="3.34567">
        <ele>365.2</ele>
        <time>2024-04-14T08:57:36Z</time>
      </trkpt>
      <trkpt lat="46.09819" lon="3.34555">
        <ele>365.4</ele>
        <time>2024-04-14T08:57:37Z</time>
      </trkpt>
      <trkpt lat="46.09821" lon="3.34544">
        <ele>364.8</ele>
        <time>2024-04-14T08:57:38Z</time>
      </trkpt>
      <trkpt lat="46.09823" lon="3.34533">
        <ele>364.8</ele>
        <time>2024-04-14T08:57:39Z</time>
      </trkpt>
      <trkpt lat="46.09825" lon="3.34522">
        <ele>364.6</ele>
        <time>2024-04-14T08:57:40Z</time>
      </trkpt>
      <trkpt lat="46.09827" lon="3.34509">
        <ele>364.4</ele>
        <time>2024-04-14T08:57:41Z</time>
      </trkpt>
      <trkpt lat="46.09829" lon="3.34496">
        <ele>364.2</ele>
        <time>2024-04-14T08:57:42Z</time>
      </trkpt>
      <trkpt lat="46.09831" lon="3.34481">
        <ele>364</ele>
        <time>2024-04-14T08:57:43Z</time>
      </trkpt>
      <trkpt lat="46.09833" lon="3.34468">
        <ele>363.8</ele>
        <time>2024-04-14T08:57:44Z</time>
      </trkpt>
      <trkpt lat="46.09835" lon="3.34454">
        <ele>363.6</ele>
        <time>2024-04-14T08:57:45Z</time>
      </trkpt>
      <trkpt lat="46.09837" lon="3.3444">
        <ele>363.4</ele>
        <time>2024-04-14T08:57:46Z</time>
      </trkpt>
      <trkpt lat="46.09839" lon="3.34427">
        <ele>363.2</ele>
        <time>2024-04-14T08:57:47Z</time>
      </trkpt>
      <trkpt lat="46.09841" lon="3.34414">
        <ele>363</ele>
        <time>2024-04-14T08:57:48Z</time>
      </trkpt>
      <trkpt lat="46.09843" lon="3.34401">
        <ele>362.8</ele>
        <time>2024-04-14T08:57:49Z</time>
      </trkpt>
      <trkpt lat="46.09845" lon="3.34389">
        <ele>362.6</ele>
        <time>2024-04-14T08:57:50Z</time>
      </trkpt>
      <trkpt lat="46.09847" lon="3.34376">
        <ele>362.2</ele>
        <time>2024-04-14T08:57:51Z</time>
      </trkpt>
      <trkpt lat="46.09848" lon="3.34363">
        <ele>362</ele>
        <time>2024-04-14T08:57:52Z</time>
      </trkpt>
      <trkpt lat="46.0985" lon="3.34351">
        <ele>361.8</ele>
        <time>2024-04-14T08:57:53Z</time>
      </trkpt>
      <trkpt lat="46.09852" lon="3.3434">
        <ele>361.4</ele>
        <time>2024-04-14T08:57:54Z</time>
      </trkpt>
      <trkpt lat="46.09854" lon="3.34328">
        <ele>361</ele>
        <time>2024-04-14T08:57:55Z</time>
      </trkpt>
      <trkpt lat="46.09855" lon="3.34316">
        <ele>360.6</ele>
        <time>2024-04-14T08:57:56Z</time>
      </trkpt>
      <trkpt lat="46.09857" lon="3.34305">
        <ele>360.2</ele>
        <time>2024-04-14T08:57:57Z</time>
      </trkpt>
      <trkpt lat="46.09859" lon="3.34294">
        <ele>359.8</ele>
        <time>2024-04-14T08:57:58Z</time>
      </trkpt>
      <trkpt lat="46.0986" lon="3.34282">
        <ele>359.4</ele>
        <time>2024-04-14T08:57:59Z</time>
      </trkpt>
      <trkpt lat="46.09862" lon="3.34271">
        <ele>359</ele>
        <time>2024-04-14T08:58:00Z</time>
      </trkpt>
      <trkpt lat="46.09864" lon="3.3426">
        <ele>358.6</ele>
        <time>2024-04-14T08:58:01Z</time>
      </trkpt>
      <trkpt lat="46.09866" lon="3.34248">
        <ele>358.2</ele>
        <time>2024-04-14T08:58:02Z</time>
      </trkpt>
      <trkpt lat="46.09867" lon="3.34235">
        <ele>357.8</ele>
        <time>2024-04-14T08:58:03Z</time>
      </trkpt>
      <trkpt lat="46.09869" lon="3.34223">
        <ele>357.4</ele>
        <time>2024-04-14T08:58:04Z</time>
      </trkpt>
      <trkpt lat="46.09871" lon="3.3421">
        <ele>357</ele>
        <time>2024-04-14T08:58:05Z</time>
      </trkpt>
      <trkpt lat="46.09873" lon="3.34198">
        <ele>356.6</ele>
        <time>2024-04-14T08:58:06Z</time>
      </trkpt>
      <trkpt lat="46.09875" lon="3.34186">
        <ele>356.2</ele>
        <time>2024-04-14T08:58:07Z</time>
      </trkpt>
      <trkpt lat="46.09876" lon="3.34174">
        <ele>355.8</ele>
        <time>2024-04-14T08:58:08Z</time>
      </trkpt>
      <trkpt lat="46.09878" lon="3.34163">
        <ele>355.6</ele>
        <time>2024-04-14T08:58:09Z</time>
      </trkpt>
      <trkpt lat="46.0988" lon="3.34151">
        <ele>355.2</ele>
        <time>2024-04-14T08:58:10Z</time>
      </trkpt>
      <trkpt lat="46.0988" lon="3.34138">
        <ele>354.8</ele>
        <time>2024-04-14T08:58:11Z</time>
      </trkpt>
      <trkpt lat="46.09879" lon="3.34124">
        <ele>354.4</ele>
        <time>2024-04-14T08:58:12Z</time>
      </trkpt>
      <trkpt lat="46.09878" lon="3.34109">
        <ele>354</ele>
        <time>2024-04-14T08:58:13Z</time>
      </trkpt>
      <trkpt lat="46.09877" lon="3.34093">
        <ele>353.6</ele>
        <time>2024-04-14T08:58:14Z</time>
      </trkpt>
      <trkpt lat="46.09876" lon="3.34075">
        <ele>353.4</ele>
        <time>2024-04-14T08:58:15Z</time>
      </trkpt>
      <trkpt lat="46.09873" lon="3.34056">
        <ele>353</ele>
        <time>2024-04-14T08:58:16Z</time>
      </trkpt>
      <trkpt lat="46.09869" lon="3.34038">
        <ele>352.4</ele>
        <time>2024-04-14T08:58:17Z</time>
      </trkpt>
      <trkpt lat="46.09865" lon="3.3402">
        <ele>352</ele>
        <time>2024-04-14T08:58:18Z</time>
      </trkpt>
      <trkpt lat="46.09861" lon="3.34002">
        <ele>351.6</ele>
        <time>2024-04-14T08:58:19Z</time>
      </trkpt>
      <trkpt lat="46.09858" lon="3.33985">
        <ele>351.2</ele>
        <time>2024-04-14T08:58:20Z</time>
      </trkpt>
      <trkpt lat="46.09854" lon="3.33968">
        <ele>351</ele>
        <time>2024-04-14T08:58:21Z</time>
      </trkpt>
      <trkpt lat="46.09853" lon="3.33949">
        <ele>350.6</ele>
        <time>2024-04-14T08:58:22Z</time>
      </trkpt>
      <trkpt lat="46.09853" lon="3.3393">
        <ele>350.2</ele>
        <time>2024-04-14T08:58:23Z</time>
      </trkpt>
      <trkpt lat="46.09854" lon="3.33911">
        <ele>349.8</ele>
        <time>2024-04-14T08:58:24Z</time>
      </trkpt>
      <trkpt lat="46.09857" lon="3.33891">
        <ele>349.4</ele>
        <time>2024-04-14T08:58:25Z</time>
      </trkpt>
      <trkpt lat="46.0986" lon="3.33873">
        <ele>349.2</ele>
        <time>2024-04-14T08:58:26Z</time>
      </trkpt>
      <trkpt lat="46.09862" lon="3.33855">
        <ele>349</ele>
        <time>2024-04-14T08:58:27Z</time>
      </trkpt>
      <trkpt lat="46.09865" lon="3.33837">
        <ele>348.8</ele>
        <time>2024-04-14T08:58:28Z</time>
      </trkpt>
      <trkpt lat="46.09861" lon="3.33816">
        <ele>348.8</ele>
        <time>2024-04-14T08:58:29Z</time>
      </trkpt>
      <trkpt lat="46.09857" lon="3.338">
        <ele>348.8</ele>
        <time>2024-04-14T08:58:30Z</time>
      </trkpt>
      <trkpt lat="46.09853" lon="3.33784">
        <ele>348.8</ele>
        <time>2024-04-14T08:58:31Z</time>
      </trkpt>
      <trkpt lat="46.0985" lon="3.33768">
        <ele>349</ele>
        <time>2024-04-14T08:58:32Z</time>
      </trkpt>
      <trkpt lat="46.09846" lon="3.33753">
        <ele>349</ele>
        <time>2024-04-14T08:58:33Z</time>
      </trkpt>
      <trkpt lat="46.09842" lon="3.33739">
        <ele>349</ele>
        <time>2024-04-14T08:58:34Z</time>
      </trkpt>
      <trkpt lat="46.09839" lon="3.33726">
        <ele>349</ele>
        <time>2024-04-14T08:58:35Z</time>
      </trkpt>
      <trkpt lat="46.09836" lon="3.33714">
        <ele>349</ele>
        <time>2024-04-14T08:58:36Z</time>
      </trkpt>
      <trkpt lat="46.09833" lon="3.33702">
        <ele>349</ele>
        <time>2024-04-14T08:58:37Z</time>
      </trkpt>
      <trkpt lat="46.0983" lon="3.33691">
        <ele>348.8</ele>
        <time>2024-04-14T08:58:38Z</time>
      </trkpt>
      <trkpt lat="46.09828" lon="3.3368">
        <ele>348.8</ele>
        <time>2024-04-14T08:58:39Z</time>
      </trkpt>
      <trkpt lat="46.09825" lon="3.33669">
        <ele>348.8</ele>
        <time>2024-04-14T08:58:40Z</time>
      </trkpt>
      <trkpt lat="46.09823" lon="3.33659">
        <ele>348.6</ele>
        <time>2024-04-14T08:58:41Z</time>
      </trkpt>
      <trkpt lat="46.0982" lon="3.33649">
        <ele>348.6</ele>
        <time>2024-04-14T08:58:42Z</time>
      </trkpt>
      <trkpt lat="46.09818" lon="3.33639">
        <ele>348.6</ele>
        <time>2024-04-14T08:58:43Z</time>
      </trkpt>
      <trkpt lat="46.09815" lon="3.33629">
        <ele>348.4</ele>
        <time>2024-04-14T08:58:44Z</time>
      </trkpt>
      <trkpt lat="46.09813" lon="3.3362">
        <ele>348.4</ele>
        <time>2024-04-14T08:58:45Z</time>
      </trkpt>
      <trkpt lat="46.09811" lon="3.33611">
        <ele>348.4</ele>
        <time>2024-04-14T08:58:46Z</time>
      </trkpt>
      <trkpt lat="46.09809" lon="3.33603">
        <ele>348.4</ele>
        <time>2024-04-14T08:58:47Z</time>
      </trkpt>
      <trkpt lat="46.09806" lon="3.33594">
        <ele>348.2</ele>
        <time>2024-04-14T08:58:48Z</time>
      </trkpt>
      <trkpt lat="46.09804" lon="3.33586">
        <ele>348.2</ele>
        <time>2024-04-14T08:58:49Z</time>
      </trkpt>
      <trkpt lat="46.09802" lon="3.33577">
        <ele>348.2</ele>
        <time>2024-04-14T08:58:50Z</time>
      </trkpt>
      <trkpt lat="46.09801" lon="3.33569">
        <ele>348.2</ele>
        <time>2024-04-14T08:58:51Z</time>
      </trkpt>
      <trkpt lat="46.09799" lon="3.33561">
        <ele>348.2</ele>
        <time>2024-04-14T08:58:52Z</time>
      </trkpt>
      <trkpt lat="46.09798" lon="3.33553">
        <ele>348</ele>
        <time>2024-04-14T08:58:53Z</time>
      </trkpt>
      <trkpt lat="46.09796" lon="3.33546">
        <ele>348</ele>
        <time>2024-04-14T08:58:54Z</time>
      </trkpt>
      <trkpt lat="46.09795" lon="3.33538">
        <ele>348</ele>
        <time>2024-04-14T08:58:55Z</time>
      </trkpt>
      <trkpt lat="46.09793" lon="3.33531">
        <ele>348</ele>
        <time>2024-04-14T08:58:56Z</time>
      </trkpt>
      <trkpt lat="46.09792" lon="3.33524">
        <ele>348</ele>
        <time>2024-04-14T08:58:57Z</time>
      </trkpt>
      <trkpt lat="46.0979" lon="3.33517">
        <ele>348</ele>
        <time>2024-04-14T08:58:58Z</time>
      </trkpt>
      <trkpt lat="46.09789" lon="3.3351">
        <ele>347.8</ele>
        <time>2024-04-14T08:58:59Z</time>
      </trkpt>
      <trkpt lat="46.09787" lon="3.33502">
        <ele>348</ele>
        <time>2024-04-14T08:59:00Z</time>
      </trkpt>
      <trkpt lat="46.09786" lon="3.33495">
        <ele>348</ele>
        <time>2024-04-14T08:59:01Z</time>
      </trkpt>
      <trkpt lat="46.09785" lon="3.33488">
        <ele>348</ele>
        <time>2024-04-14T08:59:02Z</time>
      </trkpt>
      <trkpt lat="46.09783" lon="3.33481">
        <ele>348</ele>
        <time>2024-04-14T08:59:03Z</time>
      </trkpt>
      <trkpt lat="46.09782" lon="3.33474">
        <ele>348.2</ele>
        <time>2024-04-14T08:59:04Z</time>
      </trkpt>
      <trkpt lat="46.0978" lon="3.33467">
        <ele>348.2</ele>
        <time>2024-04-14T08:59:05Z</time>
      </trkpt>
      <trkpt lat="46.09779" lon="3.33461">
        <ele>348.2</ele>
        <time>2024-04-14T08:59:06Z</time>
      </trkpt>
      <trkpt lat="46.09778" lon="3.33455">
        <ele>347.8</ele>
        <time>2024-04-14T08:59:07Z</time>
      </trkpt>
      <trkpt lat="46.09777" lon="3.33448">
        <ele>348</ele>
        <time>2024-04-14T08:59:08Z</time>
      </trkpt>
      <trkpt lat="46.09775" lon="3.33442">
        <ele>348.4</ele>
        <time>2024-04-14T08:59:09Z</time>
      </trkpt>
      <trkpt lat="46.09774" lon="3.33435">
        <ele>348.8</ele>
        <time>2024-04-14T08:59:10Z</time>
      </trkpt>
      <trkpt lat="46.09773" lon="3.33428">
        <ele>348.4</ele>
        <time>2024-04-14T08:59:11Z</time>
      </trkpt>
      <trkpt lat="46.09771" lon="3.33422">
        <ele>348.4</ele>
        <time>2024-04-14T08:59:12Z</time>
      </trkpt>
      <trkpt lat="46.0977" lon="3.33415">
        <ele>348.4</ele>
        <time>2024-04-14T08:59:13Z</time>
      </trkpt>
      <trkpt lat="46.09769" lon="3.33409">
        <ele>348.4</ele>
        <time>2024-04-14T08:59:14Z</time>
      </trkpt>
      <trkpt lat="46.09767" lon="3.33402">
        <ele>348.4</ele>
        <time>2024-04-14T08:59:15Z</time>
      </trkpt>
      <trkpt lat="46.09766" lon="3.33396">
        <ele>348.4</ele>
        <time>2024-04-14T08:59:16Z</time>
      </trkpt>
      <trkpt lat="46.09765" lon="3.33389">
        <ele>348.4</ele>
        <time>2024-04-14T08:59:17Z</time>
      </trkpt>
      <trkpt lat="46.09763" lon="3.33382">
        <ele>348.6</ele>
        <time>2024-04-14T08:59:18Z</time>
      </trkpt>
      <trkpt lat="46.09762" lon="3.33376">
        <ele>348.6</ele>
        <time>2024-04-14T08:59:19Z</time>
      </trkpt>
      <trkpt lat="46.09761" lon="3.33369">
        <ele>348.6</ele>
        <time>2024-04-14T08:59:20Z</time>
      </trkpt>
      <trkpt lat="46.09759" lon="3.33361">
        <ele>348.8</ele>
        <time>2024-04-14T08:59:21Z</time>
      </trkpt>
      <trkpt lat="46.09758" lon="3.33354">
        <ele>348.8</ele>
        <time>2024-04-14T08:59:22Z</time>
      </trkpt>
      <trkpt lat="46.09756" lon="3.33347">
        <ele>348.8</ele>
        <time>2024-04-14T08:59:23Z</time>
      </trkpt>
      <trkpt lat="46.09755" lon="3.33339">
        <ele>348.8</ele>
        <time>2024-04-14T08:59:24Z</time>
      </trkpt>
      <trkpt lat="46.09753" lon="3.33332">
        <ele>348.8</ele>
        <time>2024-04-14T08:59:25Z</time>
      </trkpt>
      <trkpt lat="46.09751" lon="3.33325">
        <ele>348.8</ele>
        <time>2024-04-14T08:59:26Z</time>
      </trkpt>
      <trkpt lat="46.0975" lon="3.33318">
        <ele>348.8</ele>
        <time>2024-04-14T08:59:27Z</time>
      </trkpt>
      <trkpt lat="46.09748" lon="3.3331">
        <ele>348.8</ele>
        <time>2024-04-14T08:59:28Z</time>
      </trkpt>
      <trkpt lat="46.09746" lon="3.33303">
        <ele>348.8</ele>
        <time>2024-04-14T08:59:29Z</time>
      </trkpt>
      <trkpt lat="46.09744" lon="3.33296">
        <ele>349</ele>
        <time>2024-04-14T08:59:30Z</time>
      </trkpt>
      <trkpt lat="46.09742" lon="3.33289">
        <ele>349</ele>
        <time>2024-04-14T08:59:31Z</time>
      </trkpt>
      <trkpt lat="46.09741" lon="3.33282">
        <ele>349</ele>
        <time>2024-04-14T08:59:32Z</time>
      </trkpt>
      <trkpt lat="46.09739" lon="3.33275">
        <ele>349.2</ele>
        <time>2024-04-14T08:59:33Z</time>
      </trkpt>
      <trkpt lat="46.09737" lon="3.33268">
        <ele>349.2</ele>
        <time>2024-04-14T08:59:34Z</time>
      </trkpt>
      <trkpt lat="46.09735" lon="3.33261">
        <ele>349.2</ele>
        <time>2024-04-14T08:59:35Z</time>
      </trkpt>
      <trkpt lat="46.09733" lon="3.33254">
        <ele>349.2</ele>
        <time>2024-04-14T08:59:36Z</time>
      </trkpt>
      <trkpt lat="46.09732" lon="3.33247">
        <ele>349.4</ele>
        <time>2024-04-14T08:59:37Z</time>
      </trkpt>
      <trkpt lat="46.0973" lon="3.33239">
        <ele>349.4</ele>
        <time>2024-04-14T08:59:38Z</time>
      </trkpt>
      <trkpt lat="46.09728" lon="3.33232">
        <ele>349.4</ele>
        <time>2024-04-14T08:59:39Z</time>
      </trkpt>
      <trkpt lat="46.09726" lon="3.33225">
        <ele>349.4</ele>
        <time>2024-04-14T08:59:40Z</time>
      </trkpt>
      <trkpt lat="46.09724" lon="3.33218">
        <ele>349.4</ele>
        <time>2024-04-14T08:59:41Z</time>
      </trkpt>
      <trkpt lat="46.09722" lon="3.33211">
        <ele>349.6</ele>
        <time>2024-04-14T08:59:42Z</time>
      </trkpt>
      <trkpt lat="46.09721" lon="3.33203">
        <ele>349.6</ele>
        <time>2024-04-14T08:59:43Z</time>
      </trkpt>
      <trkpt lat="46.09719" lon="3.33196">
        <ele>349.6</ele>
        <time>2024-04-14T08:59:44Z</time>
      </trkpt>
      <trkpt lat="46.09717" lon="3.33189">
        <ele>349.6</ele>
        <time>2024-04-14T08:59:45Z</time>
      </trkpt>
      <trkpt lat="46.09715" lon="3.33182">
        <ele>349.6</ele>
        <time>2024-04-14T08:59:46Z</time>
      </trkpt>
      <trkpt lat="46.09713" lon="3.33174">
        <ele>349.6</ele>
        <time>2024-04-14T08:59:47Z</time>
      </trkpt>
      <trkpt lat="46.09711" lon="3.33167">
        <ele>349.8</ele>
        <time>2024-04-14T08:59:48Z</time>
      </trkpt>
      <trkpt lat="46.0971" lon="3.3316">
        <ele>349.8</ele>
        <time>2024-04-14T08:59:49Z</time>
      </trkpt>
      <trkpt lat="46.09708" lon="3.33152">
        <ele>349.8</ele>
        <time>2024-04-14T08:59:50Z</time>
      </trkpt>
      <trkpt lat="46.09706" lon="3.33145">
        <ele>349.8</ele>
        <time>2024-04-14T08:59:51Z</time>
      </trkpt>
      <trkpt lat="46.09704" lon="3.33138">
        <ele>350</ele>
        <time>2024-04-14T08:59:52Z</time>
      </trkpt>
      <trkpt lat="46.09702" lon="3.33131">
        <ele>350</ele>
        <time>2024-04-14T08:59:53Z</time>
      </trkpt>
      <trkpt lat="46.097" lon="3.33124">
        <ele>350</ele>
        <time>2024-04-14T08:59:54Z</time>
      </trkpt>
      <trkpt lat="46.09699" lon="3.33117">
        <ele>350</ele>
        <time>2024-04-14T08:59:55Z</time>
      </trkpt>
      <trkpt lat="46.09697" lon="3.3311">
        <ele>350.2</ele>
        <time>2024-04-14T08:59:56Z</time>
      </trkpt>
      <trkpt lat="46.09695" lon="3.33102">
        <ele>350.2</ele>
        <time>2024-04-14T08:59:57Z</time>
      </trkpt>
      <trkpt lat="46.09693" lon="3.33095">
        <ele>350.2</ele>
        <time>2024-04-14T08:59:58Z</time>
      </trkpt>
      <trkpt lat="46.09691" lon="3.33088">
        <ele>350.4</ele>
        <time>2024-04-14T08:59:59Z</time>
      </trkpt>
      <trkpt lat="46.09689" lon="3.33081">
        <ele>350.4</ele>
        <time>2024-04-14T09:00:00Z</time>
      </trkpt>
      <trkpt lat="46.09687" lon="3.33073">
        <ele>350.4</ele>
        <time>2024-04-14T09:00:01Z</time>
      </trkpt>
      <trkpt lat="46.09686" lon="3.33066">
        <ele>350.6</ele>
        <time>2024-04-14T09:00:02Z</time>
      </trkpt>
      <trkpt lat="46.09684" lon="3.33059">
        <ele>350.6</ele>
        <time>2024-04-14T09:00:03Z</time>
      </trkpt>
      <trkpt lat="46.09682" lon="3.33051">
        <ele>350.6</ele>
        <time>2024-04-14T09:00:04Z</time>
      </trkpt>
      <trkpt lat="46.0968" lon="3.33044">
        <ele>350.8</ele>
        <time>2024-04-14T09:00:05Z</time>
      </trkpt>
      <trkpt lat="46.09678" lon="3.33037">
        <ele>350.8</ele>
        <time>2024-04-14T09:00:06Z</time>
      </trkpt>
      <trkpt lat="46.09676" lon="3.33029">
        <ele>350.8</ele>
        <time>2024-04-14T09:00:07Z</time>
      </trkpt>
      <trkpt lat="46.09674" lon="3.33022">
        <ele>351</ele>
        <time>2024-04-14T09:00:08Z</time>
      </trkpt>
      <trkpt lat="46.09672" lon="3.33015">
        <ele>351</ele>
        <time>2024-04-14T09:00:09Z</time>
      </trkpt>
      <trkpt lat="46.0967" lon="3.33007">
        <ele>351</ele>
        <time>2024-04-14T09:00:10Z</time>
      </trkpt>
      <trkpt lat="46.09668" lon="3.33">
        <ele>351</ele>
        <time>2024-04-14T09:00:11Z</time>
      </trkpt>
      <trkpt lat="46.09666" lon="3.32993">
        <ele>351</ele>
        <time>2024-04-14T09:00:12Z</time>
      </trkpt>
      <trkpt lat="46.09664" lon="3.32986">
        <ele>351.2</ele>
        <time>2024-04-14T09:00:13Z</time>
      </trkpt>
      <trkpt lat="46.09662" lon="3.32979">
        <ele>351.2</ele>
        <time>2024-04-14T09:00:14Z</time>
      </trkpt>
      <trkpt lat="46.09661" lon="3.32972">
        <ele>351.2</ele>
        <time>2024-04-14T09:00:15Z</time>
      </trkpt>
      <trkpt lat="46.09659" lon="3.32966">
        <ele>351.4</ele>
        <time>2024-04-14T09:00:16Z</time>
      </trkpt>
      <trkpt lat="46.09657" lon="3.32958">
        <ele>351.4</ele>
        <time>2024-04-14T09:00:17Z</time>
      </trkpt>
      <trkpt lat="46.09655" lon="3.32951">
        <ele>351.4</ele>
        <time>2024-04-14T09:00:18Z</time>
      </trkpt>
      <trkpt lat="46.09653" lon="3.32944">
        <ele>351.4</ele>
        <time>2024-04-14T09:00:19Z</time>
      </trkpt>
      <trkpt lat="46.09651" lon="3.32936">
        <ele>351.6</ele>
        <time>2024-04-14T09:00:20Z</time>
      </trkpt>
      <trkpt lat="46.09649" lon="3.32929">
        <ele>351.6</ele>
        <time>2024-04-14T09:00:21Z</time>
      </trkpt>
      <trkpt lat="46.09647" lon="3.32922">
        <ele>351.8</ele>
        <time>2024-04-14T09:00:22Z</time>
      </trkpt>
      <trkpt lat="46.09645" lon="3.32915">
        <ele>351.8</ele>
        <time>2024-04-14T09:00:23Z</time>
      </trkpt>
      <trkpt lat="46.09643" lon="3.32907">
        <ele>351.8</ele>
        <time>2024-04-14T09:00:24Z</time>
      </trkpt>
      <trkpt lat="46.09642" lon="3.329">
        <ele>351.8</ele>
        <time>2024-04-14T09:00:25Z</time>
      </trkpt>
      <trkpt lat="46.0964" lon="3.32893">
        <ele>352</ele>
        <time>2024-04-14T09:00:26Z</time>
      </trkpt>
      <trkpt lat="46.09637" lon="3.32887">
        <ele>352</ele>
        <time>2024-04-14T09:00:27Z</time>
      </trkpt>
      <trkpt lat="46.09634" lon="3.3288">
        <ele>352</ele>
        <time>2024-04-14T09:00:28Z</time>
      </trkpt>
      <trkpt lat="46.09631" lon="3.32874">
        <ele>352.2</ele>
        <time>2024-04-14T09:00:29Z</time>
      </trkpt>
      <trkpt lat="46.09629" lon="3.32868">
        <ele>352.2</ele>
        <time>2024-04-14T09:00:30Z</time>
      </trkpt>
      <trkpt lat="46.09626" lon="3.32861">
        <ele>352.2</ele>
        <time>2024-04-14T09:00:31Z</time>
      </trkpt>
      <trkpt lat="46.09623" lon="3.32855">
        <ele>352.2</ele>
        <time>2024-04-14T09:00:32Z</time>
      </trkpt>
      <trkpt lat="46.0962" lon="3.32849">
        <ele>352.4</ele>
        <time>2024-04-14T09:00:33Z</time>
      </trkpt>
      <trkpt lat="46.09618" lon="3.32843">
        <ele>352.4</ele>
        <time>2024-04-14T09:00:34Z</time>
      </trkpt>
      <trkpt lat="46.09615" lon="3.32837">
        <ele>352.6</ele>
        <time>2024-04-14T09:00:35Z</time>
      </trkpt>
      <trkpt lat="46.09613" lon="3.32831">
        <ele>352.6</ele>
        <time>2024-04-14T09:00:36Z</time>
      </trkpt>
      <trkpt lat="46.0961" lon="3.32825">
        <ele>352.6</ele>
        <time>2024-04-14T09:00:37Z</time>
      </trkpt>
      <trkpt lat="46.09607" lon="3.32819">
        <ele>352.6</ele>
        <time>2024-04-14T09:00:38Z</time>
      </trkpt>
      <trkpt lat="46.09605" lon="3.32813">
        <ele>352.8</ele>
        <time>2024-04-14T09:00:39Z</time>
      </trkpt>
      <trkpt lat="46.09602" lon="3.32806">
        <ele>352.8</ele>
        <time>2024-04-14T09:00:40Z</time>
      </trkpt>
      <trkpt lat="46.09599" lon="3.328">
        <ele>353</ele>
        <time>2024-04-14T09:00:41Z</time>
      </trkpt>
      <trkpt lat="46.09597" lon="3.32793">
        <ele>353</ele>
        <time>2024-04-14T09:00:42Z</time>
      </trkpt>
      <trkpt lat="46.09595" lon="3.32786">
        <ele>353.2</ele>
        <time>2024-04-14T09:00:43Z</time>
      </trkpt>
      <trkpt lat="46.09593" lon="3.32779">
        <ele>353.2</ele>
        <time>2024-04-14T09:00:44Z</time>
      </trkpt>
      <trkpt lat="46.09591" lon="3.32772">
        <ele>353.4</ele>
        <time>2024-04-14T09:00:45Z</time>
      </trkpt>
      <trkpt lat="46.0959" lon="3.32765">
        <ele>353.4</ele>
        <time>2024-04-14T09:00:46Z</time>
      </trkpt>
      <trkpt lat="46.09588" lon="3.32758">
        <ele>353.4</ele>
        <time>2024-04-14T09:00:47Z</time>
      </trkpt>
      <trkpt lat="46.09586" lon="3.32751">
        <ele>353.6</ele>
        <time>2024-04-14T09:00:48Z</time>
      </trkpt>
      <trkpt lat="46.09584" lon="3.32744">
        <ele>353.8</ele>
        <time>2024-04-14T09:00:49Z</time>
      </trkpt>
      <trkpt lat="46.09583" lon="3.32737">
        <ele>353.8</ele>
        <time>2024-04-14T09:00:50Z</time>
      </trkpt>
      <trkpt lat="46.09581" lon="3.3273">
        <ele>354</ele>
        <time>2024-04-14T09:00:51Z</time>
      </trkpt>
      <trkpt lat="46.09579" lon="3.32723">
        <ele>354</ele>
        <time>2024-04-14T09:00:52Z</time>
      </trkpt>
      <trkpt lat="46.09578" lon="3.32716">
        <ele>354</ele>
        <time>2024-04-14T09:00:53Z</time>
      </trkpt>
      <trkpt lat="46.09576" lon="3.3271">
        <ele>354.2</ele>
        <time>2024-04-14T09:00:54Z</time>
      </trkpt>
      <trkpt lat="46.09574" lon="3.32703">
        <ele>354.2</ele>
        <time>2024-04-14T09:00:55Z</time>
      </trkpt>
      <trkpt lat="46.09572" lon="3.32695">
        <ele>354.4</ele>
        <time>2024-04-14T09:00:56Z</time>
      </trkpt>
      <trkpt lat="46.09571" lon="3.32688">
        <ele>354.6</ele>
        <time>2024-04-14T09:00:57Z</time>
      </trkpt>
      <trkpt lat="46.09569" lon="3.32681">
        <ele>354.6</ele>
        <time>2024-04-14T09:00:58Z</time>
      </trkpt>
      <trkpt lat="46.09567" lon="3.32673">
        <ele>354.8</ele>
        <time>2024-04-14T09:00:59Z</time>
      </trkpt>
      <trkpt lat="46.09565" lon="3.32666">
        <ele>354.8</ele>
        <time>2024-04-14T09:01:00Z</time>
      </trkpt>
      <trkpt lat="46.09563" lon="3.32658">
        <ele>354.8</ele>
        <time>2024-04-14T09:01:01Z</time>
      </trkpt>
      <trkpt lat="46.09561" lon="3.3265">
        <ele>355</ele>
        <time>2024-04-14T09:01:02Z</time>
      </trkpt>
      <trkpt lat="46.09559" lon="3.32642">
        <ele>355</ele>
        <time>2024-04-14T09:01:03Z</time>
      </trkpt>
      <trkpt lat="46.09557" lon="3.32634">
        <ele>355</ele>
        <time>2024-04-14T09:01:04Z</time>
      </trkpt>
      <trkpt lat="46.09556" lon="3.32626">
        <ele>355.2</ele>
        <time>2024-04-14T09:01:05Z</time>
      </trkpt>
      <trkpt lat="46.09555" lon="3.32618">
        <ele>355.2</ele>
        <time>2024-04-14T09:01:06Z</time>
      </trkpt>
      <trkpt lat="46.09554" lon="3.32609">
        <ele>355.2</ele>
        <time>2024-04-14T09:01:07Z</time>
      </trkpt>
      <trkpt lat="46.09554" lon="3.326">
        <ele>355.4</ele>
        <time>2024-04-14T09:01:08Z</time>
      </trkpt>
      <trkpt lat="46.09553" lon="3.32592">
        <ele>355.4</ele>
        <time>2024-04-14T09:01:09Z</time>
      </trkpt>
      <trkpt lat="46.09552" lon="3.32584">
        <ele>355.4</ele>
        <time>2024-04-14T09:01:10Z</time>
      </trkpt>
      <trkpt lat="46.09551" lon="3.32576">
        <ele>355.4</ele>
        <time>2024-04-14T09:01:11Z</time>
      </trkpt>
      <trkpt lat="46.0955" lon="3.32567">
        <ele>355.6</ele>
        <time>2024-04-14T09:01:12Z</time>
      </trkpt>
      <trkpt lat="46.0955" lon="3.32559">
        <ele>355.6</ele>
        <time>2024-04-14T09:01:13Z</time>
      </trkpt>
      <trkpt lat="46.09549" lon="3.32551">
        <ele>355.8</ele>
        <time>2024-04-14T09:01:14Z</time>
      </trkpt>
      <trkpt lat="46.09548" lon="3.32543">
        <ele>355.8</ele>
        <time>2024-04-14T09:01:15Z</time>
      </trkpt>
      <trkpt lat="46.09547" lon="3.32534">
        <ele>355.8</ele>
        <time>2024-04-14T09:01:16Z</time>
      </trkpt>
      <trkpt lat="46.09546" lon="3.32527">
        <ele>355.8</ele>
        <time>2024-04-14T09:01:17Z</time>
      </trkpt>
      <trkpt lat="46.09546" lon="3.32518">
        <ele>356</ele>
        <time>2024-04-14T09:01:18Z</time>
      </trkpt>
      <trkpt lat="46.09545" lon="3.3251">
        <ele>356</ele>
        <time>2024-04-14T09:01:19Z</time>
      </trkpt>
      <trkpt lat="46.09544" lon="3.32501">
        <ele>356</ele>
        <time>2024-04-14T09:01:20Z</time>
      </trkpt>
      <trkpt lat="46.09543" lon="3.32492">
        <ele>356</ele>
        <time>2024-04-14T09:01:21Z</time>
      </trkpt>
      <trkpt lat="46.09542" lon="3.32483">
        <ele>356</ele>
        <time>2024-04-14T09:01:22Z</time>
      </trkpt>
      <trkpt lat="46.09541" lon="3.32475">
        <ele>356</ele>
        <time>2024-04-14T09:01:23Z</time>
      </trkpt>
      <trkpt lat="46.09541" lon="3.32466">
        <ele>356.2</ele>
        <time>2024-04-14T09:01:24Z</time>
      </trkpt>
      <trkpt lat="46.0954" lon="3.32457">
        <ele>356.2</ele>
        <time>2024-04-14T09:01:25Z</time>
      </trkpt>
      <trkpt lat="46.09539" lon="3.32448">
        <ele>356.2</ele>
        <time>2024-04-14T09:01:26Z</time>
      </trkpt>
      <trkpt lat="46.09538" lon="3.32439">
        <ele>356.2</ele>
        <time>2024-04-14T09:01:27Z</time>
      </trkpt>
      <trkpt lat="46.09537" lon="3.32429">
        <ele>356.2</ele>
        <time>2024-04-14T09:01:28Z</time>
      </trkpt>
      <trkpt lat="46.09538" lon="3.32419">
        <ele>356.2</ele>
        <time>2024-04-14T09:01:29Z</time>
      </trkpt>
      <trkpt lat="46.09539" lon="3.3241">
        <ele>356</ele>
        <time>2024-04-14T09:01:30Z</time>
      </trkpt>
      <trkpt lat="46.0954" lon="3.324">
        <ele>356</ele>
        <time>2024-04-14T09:01:31Z</time>
      </trkpt>
      <trkpt lat="46.09541" lon="3.32391">
        <ele>356</ele>
        <time>2024-04-14T09:01:32Z</time>
      </trkpt>
      <trkpt lat="46.09541" lon="3.32382">
        <ele>356</ele>
        <time>2024-04-14T09:01:33Z</time>
      </trkpt>
      <trkpt lat="46.09542" lon="3.32373">
        <ele>355.8</ele>
        <time>2024-04-14T09:01:34Z</time>
      </trkpt>
      <trkpt lat="46.09543" lon="3.32364">
        <ele>355.8</ele>
        <time>2024-04-14T09:01:35Z</time>
      </trkpt>
      <trkpt lat="46.09544" lon="3.32354">
        <ele>356.2</ele>
        <time>2024-04-14T09:01:36Z</time>
      </trkpt>
      <trkpt lat="46.09544" lon="3.32345">
        <ele>356</ele>
        <time>2024-04-14T09:01:37Z</time>
      </trkpt>
      <trkpt lat="46.09545" lon="3.32336">
        <ele>356</ele>
        <time>2024-04-14T09:01:38Z</time>
      </trkpt>
      <trkpt lat="46.09546" lon="3.32328">
        <ele>355.6</ele>
        <time>2024-04-14T09:01:39Z</time>
      </trkpt>
      <trkpt lat="46.09547" lon="3.32319">
        <ele>355.4</ele>
        <time>2024-04-14T09:01:40Z</time>
      </trkpt>
      <trkpt lat="46.09547" lon="3.32311">
        <ele>355.6</ele>
        <time>2024-04-14T09:01:41Z</time>
      </trkpt>
      <trkpt lat="46.09548" lon="3.32302">
        <ele>355.6</ele>
        <time>2024-04-14T09:01:42Z</time>
      </trkpt>
      <trkpt lat="46.09549" lon="3.32294">
        <ele>355.6</ele>
        <time>2024-04-14T09:01:43Z</time>
      </trkpt>
      <trkpt lat="46.09549" lon="3.32287">
        <ele>355.4</ele>
        <time>2024-04-14T09:01:44Z</time>
      </trkpt>
      <trkpt lat="46.0955" lon="3.32281">
        <ele>355.4</ele>
        <time>2024-04-14T09:01:45Z</time>
      </trkpt>
      <trkpt lat="46.0955" lon="3.32281">
        <ele>355.4</ele>
        <time>2024-04-14T09:01:46Z</time>
      </trkpt>
      <trkpt lat="46.0955" lon="3.32281">
        <ele>355.2</ele>
        <time>2024-04-14T09:01:47Z</time>
      </trkpt>
      <trkpt lat="46.09549" lon="3.32267">
        <ele>355.2</ele>
        <time>2024-04-14T09:01:48Z</time>
      </trkpt>
      <trkpt lat="46.09548" lon="3.32256">
        <ele>355</ele>
        <time>2024-04-14T09:01:49Z</time>
      </trkpt>
      <trkpt lat="46.09548" lon="3.32243">
        <ele>354.8</ele>
        <time>2024-04-14T09:01:50Z</time>
      </trkpt>
      <trkpt lat="46.09547" lon="3.32228">
        <ele>354.6</ele>
        <time>2024-04-14T09:01:51Z</time>
      </trkpt>
      <trkpt lat="46.09546" lon="3.32214">
        <ele>354.4</ele>
        <time>2024-04-14T09:01:52Z</time>
      </trkpt>
      <trkpt lat="46.09545" lon="3.322">
        <ele>354</ele>
        <time>2024-04-14T09:01:53Z</time>
      </trkpt>
      <trkpt lat="46.09544" lon="3.32186">
        <ele>353.8</ele>
        <time>2024-04-14T09:01:54Z</time>
      </trkpt>
      <trkpt lat="46.09545" lon="3.32171">
        <ele>353.4</ele>
        <time>2024-04-14T09:01:55Z</time>
      </trkpt>
      <trkpt lat="46.09547" lon="3.32159">
        <ele>353.2</ele>
        <time>2024-04-14T09:01:56Z</time>
      </trkpt>
      <trkpt lat="46.0955" lon="3.32147">
        <ele>352.8</ele>
        <time>2024-04-14T09:01:57Z</time>
      </trkpt>
      <trkpt lat="46.09555" lon="3.32131">
        <ele>352.4</ele>
        <time>2024-04-14T09:01:58Z</time>
      </trkpt>
      <trkpt lat="46.09562" lon="3.32123">
        <ele>352</ele>
        <time>2024-04-14T09:01:59Z</time>
      </trkpt>
      <trkpt lat="46.09568" lon="3.32115">
        <ele>351.4</ele>
        <time>2024-04-14T09:02:00Z</time>
      </trkpt>
      <trkpt lat="46.09574" lon="3.32106">
        <ele>350.6</ele>
        <time>2024-04-14T09:02:01Z</time>
      </trkpt>
      <trkpt lat="46.09581" lon="3.32099">
        <ele>350</ele>
        <time>2024-04-14T09:02:02Z</time>
      </trkpt>
      <trkpt lat="46.09585" lon="3.32089">
        <ele>349.4</ele>
        <time>2024-04-14T09:02:03Z</time>
      </trkpt>
      <trkpt lat="46.09586" lon="3.32078">
        <ele>348.6</ele>
        <time>2024-04-14T09:02:04Z</time>
      </trkpt>
      <trkpt lat="46.09588" lon="3.32067">
        <ele>348</ele>
        <time>2024-04-14T09:02:05Z</time>
      </trkpt>
      <trkpt lat="46.09588" lon="3.32055">
        <ele>347.4</ele>
        <time>2024-04-14T09:02:06Z</time>
      </trkpt>
      <trkpt lat="46.09587" lon="3.32042">
        <ele>346.8</ele>
        <time>2024-04-14T09:02:07Z</time>
      </trkpt>
      <trkpt lat="46.09585" lon="3.32029">
        <ele>346.4</ele>
        <time>2024-04-14T09:02:08Z</time>
      </trkpt>
      <trkpt lat="46.09584" lon="3.32016">
        <ele>346</ele>
        <time>2024-04-14T09:02:09Z</time>
      </trkpt>
      <trkpt lat="46.09582" lon="3.32003">
        <ele>345.6</ele>
        <time>2024-04-14T09:02:10Z</time>
      </trkpt>
      <trkpt lat="46.09581" lon="3.31991">
        <ele>345.4</ele>
        <time>2024-04-14T09:02:11Z</time>
      </trkpt>
      <trkpt lat="46.0958" lon="3.3198">
        <ele>345</ele>
        <time>2024-04-14T09:02:12Z</time>
      </trkpt>
      <trkpt lat="46.09579" lon="3.31969">
        <ele>344.8</ele>
        <time>2024-04-14T09:02:13Z</time>
      </trkpt>
      <trkpt lat="46.09578" lon="3.3196">
        <ele>344.6</ele>
        <time>2024-04-14T09:02:14Z</time>
      </trkpt>
      <trkpt lat="46.09577" lon="3.3195">
        <ele>344.4</ele>
        <time>2024-04-14T09:02:15Z</time>
      </trkpt>
      <trkpt lat="46.09576" lon="3.31941">
        <ele>344.2</ele>
        <time>2024-04-14T09:02:16Z</time>
      </trkpt>
      <trkpt lat="46.09576" lon="3.31931">
        <ele>344</ele>
        <time>2024-04-14T09:02:17Z</time>
      </trkpt>
      <trkpt lat="46.09576" lon="3.31921">
        <ele>343.6</ele>
        <time>2024-04-14T09:02:18Z</time>
      </trkpt>
      <trkpt lat="46.09576" lon="3.3191">
        <ele>343.4</ele>
        <time>2024-04-14T09:02:19Z</time>
      </trkpt>
      <trkpt lat="46.09576" lon="3.31899">
        <ele>343.2</ele>
        <time>2024-04-14T09:02:20Z</time>
      </trkpt>
      <trkpt lat="46.09576" lon="3.31888">
        <ele>343</ele>
        <time>2024-04-14T09:02:21Z</time>
      </trkpt>
      <trkpt lat="46.09576" lon="3.31876">
        <ele>342.8</ele>
        <time>2024-04-14T09:02:22Z</time>
      </trkpt>
      <trkpt lat="46.09576" lon="3.31865">
        <ele>342.6</ele>
        <time>2024-04-14T09:02:23Z</time>
      </trkpt>
      <trkpt lat="46.09576" lon="3.31855">
        <ele>342.4</ele>
        <time>2024-04-14T09:02:24Z</time>
      </trkpt>
      <trkpt lat="46.09576" lon="3.31844">
        <ele>342.2</ele>
        <time>2024-04-14T09:02:25Z</time>
      </trkpt>
      <trkpt lat="46.09576" lon="3.31833">
        <ele>342</ele>
        <time>2024-04-14T09:02:26Z</time>
      </trkpt>
      <trkpt lat="46.09576" lon="3.31823">
        <ele>341.6</ele>
        <time>2024-04-14T09:02:27Z</time>
      </trkpt>
      <trkpt lat="46.09576" lon="3.31813">
        <ele>341.4</ele>
        <time>2024-04-14T09:02:28Z</time>
      </trkpt>
      <trkpt lat="46.09576" lon="3.31803">
        <ele>341.2</ele>
        <time>2024-04-14T09:02:29Z</time>
      </trkpt>
      <trkpt lat="46.09576" lon="3.31793">
        <ele>341</ele>
        <time>2024-04-14T09:02:30Z</time>
      </trkpt>
      <trkpt lat="46.09577" lon="3.31783">
        <ele>340.8</ele>
        <time>2024-04-14T09:02:31Z</time>
      </trkpt>
      <trkpt lat="46.09578" lon="3.31773">
        <ele>340.4</ele>
        <time>2024-04-14T09:02:32Z</time>
      </trkpt>
      <trkpt lat="46.0958" lon="3.31764">
        <ele>340.2</ele>
        <time>2024-04-14T09:02:33Z</time>
      </trkpt>
      <trkpt lat="46.09581" lon="3.31754">
        <ele>340</ele>
        <time>2024-04-14T09:02:34Z</time>
      </trkpt>
      <trkpt lat="46.09582" lon="3.31745">
        <ele>339.8</ele>
        <time>2024-04-14T09:02:35Z</time>
      </trkpt>
      <trkpt lat="46.09584" lon="3.31735">
        <ele>339.8</ele>
        <time>2024-04-14T09:02:36Z</time>
      </trkpt>
      <trkpt lat="46.09586" lon="3.31726">
        <ele>339.6</ele>
        <time>2024-04-14T09:02:37Z</time>
      </trkpt>
      <trkpt lat="46.0959" lon="3.31717">
        <ele>339.4</ele>
        <time>2024-04-14T09:02:38Z</time>
      </trkpt>
      <trkpt lat="46.09593" lon="3.31709">
        <ele>339.2</ele>
        <time>2024-04-14T09:02:39Z</time>
      </trkpt>
      <trkpt lat="46.09595" lon="3.31701">
        <ele>339</ele>
        <time>2024-04-14T09:02:40Z</time>
      </trkpt>
      <trkpt lat="46.09598" lon="3.31694">
        <ele>338.8</ele>
        <time>2024-04-14T09:02:41Z</time>
      </trkpt>
      <trkpt lat="46.09601" lon="3.31686">
        <ele>338.8</ele>
        <time>2024-04-14T09:02:42Z</time>
      </trkpt>
      <trkpt lat="46.09604" lon="3.31679">
        <ele>338.6</ele>
        <time>2024-04-14T09:02:43Z</time>
      </trkpt>
      <trkpt lat="46.09607" lon="3.31671">
        <ele>338.6</ele>
        <time>2024-04-14T09:02:44Z</time>
      </trkpt>
      <trkpt lat="46.09611" lon="3.31666">
        <ele>338.4</ele>
        <time>2024-04-14T09:02:45Z</time>
      </trkpt>
      <trkpt lat="46.09615" lon="3.3166">
        <ele>338.4</ele>
        <time>2024-04-14T09:02:46Z</time>
      </trkpt>
      <trkpt lat="46.09619" lon="3.31654">
        <ele>338.4</ele>
        <time>2024-04-14T09:02:47Z</time>
      </trkpt>
      <trkpt lat="46.09623" lon="3.31648">
        <ele>338.2</ele>
        <time>2024-04-14T09:02:48Z</time>
      </trkpt>
      <trkpt lat="46.09628" lon="3.31644">
        <ele>338</ele>
        <time>2024-04-14T09:02:49Z</time>
      </trkpt>
      <trkpt lat="46.09633" lon="3.3164">
        <ele>338</ele>
        <time>2024-04-14T09:02:50Z</time>
      </trkpt>
      <trkpt lat="46.09637" lon="3.31637">
        <ele>337.8</ele>
        <time>2024-04-14T09:02:51Z</time>
      </trkpt>
      <trkpt lat="46.09642" lon="3.31634">
        <ele>337.8</ele>
        <time>2024-04-14T09:02:52Z</time>
      </trkpt>
      <trkpt lat="46.09647" lon="3.3163">
        <ele>337.8</ele>
        <time>2024-04-14T09:02:53Z</time>
      </trkpt>
      <trkpt lat="46.09652" lon="3.31629">
        <ele>337.6</ele>
        <time>2024-04-14T09:02:54Z</time>
      </trkpt>
      <trkpt lat="46.09657" lon="3.31627">
        <ele>337.6</ele>
        <time>2024-04-14T09:02:55Z</time>
      </trkpt>
      <trkpt lat="46.09662" lon="3.31625">
        <ele>337.6</ele>
        <time>2024-04-14T09:02:56Z</time>
      </trkpt>
      <trkpt lat="46.09667" lon="3.31624">
        <ele>337.4</ele>
        <time>2024-04-14T09:02:57Z</time>
      </trkpt>
      <trkpt lat="46.09672" lon="3.31622">
        <ele>337.4</ele>
        <time>2024-04-14T09:02:58Z</time>
      </trkpt>
      <trkpt lat="46.09677" lon="3.3162">
        <ele>337.4</ele>
        <time>2024-04-14T09:02:59Z</time>
      </trkpt>
      <trkpt lat="46.09682" lon="3.31619">
        <ele>337.2</ele>
        <time>2024-04-14T09:03:00Z</time>
      </trkpt>
      <trkpt lat="46.09687" lon="3.31617">
        <ele>337.2</ele>
        <time>2024-04-14T09:03:01Z</time>
      </trkpt>
      <trkpt lat="46.09693" lon="3.31615">
        <ele>337.2</ele>
        <time>2024-04-14T09:03:02Z</time>
      </trkpt>
      <trkpt lat="46.09698" lon="3.31613">
        <ele>337</ele>
        <time>2024-04-14T09:03:03Z</time>
      </trkpt>
      <trkpt lat="46.09702" lon="3.3161">
        <ele>337</ele>
        <time>2024-04-14T09:03:04Z</time>
      </trkpt>
      <trkpt lat="46.09707" lon="3.31606">
        <ele>337</ele>
        <time>2024-04-14T09:03:05Z</time>
      </trkpt>
      <trkpt lat="46.09711" lon="3.31603">
        <ele>337</ele>
        <time>2024-04-14T09:03:06Z</time>
      </trkpt>
      <trkpt lat="46.09716" lon="3.31599">
        <ele>336.8</ele>
        <time>2024-04-14T09:03:07Z</time>
      </trkpt>
      <trkpt lat="46.0972" lon="3.31595">
        <ele>336.8</ele>
        <time>2024-04-14T09:03:08Z</time>
      </trkpt>
      <trkpt lat="46.09725" lon="3.31592">
        <ele>336.8</ele>
        <time>2024-04-14T09:03:09Z</time>
      </trkpt>
      <trkpt lat="46.09729" lon="3.31588">
        <ele>336.8</ele>
        <time>2024-04-14T09:03:10Z</time>
      </trkpt>
      <trkpt lat="46.09734" lon="3.31584">
        <ele>336.8</ele>
        <time>2024-04-14T09:03:11Z</time>
      </trkpt>
      <trkpt lat="46.09739" lon="3.31581">
        <ele>336.8</ele>
        <time>2024-04-14T09:03:12Z</time>
      </trkpt>
      <trkpt lat="46.09743" lon="3.31577">
        <ele>337</ele>
        <time>2024-04-14T09:03:13Z</time>
      </trkpt>
      <trkpt lat="46.09748" lon="3.31573">
        <ele>337</ele>
        <time>2024-04-14T09:03:14Z</time>
      </trkpt>
      <trkpt lat="46.09752" lon="3.3157">
        <ele>337</ele>
        <time>2024-04-14T09:03:15Z</time>
      </trkpt>
      <trkpt lat="46.09756" lon="3.31566">
        <ele>337</ele>
        <time>2024-04-14T09:03:16Z</time>
      </trkpt>
      <trkpt lat="46.0976" lon="3.31563">
        <ele>337</ele>
        <time>2024-04-14T09:03:17Z</time>
      </trkpt>
      <trkpt lat="46.09764" lon="3.3156">
        <ele>337</ele>
        <time>2024-04-14T09:03:18Z</time>
      </trkpt>
      <trkpt lat="46.09768" lon="3.31557">
        <ele>337</ele>
        <time>2024-04-14T09:03:19Z</time>
      </trkpt>
      <trkpt lat="46.09773" lon="3.31553">
        <ele>337</ele>
        <time>2024-04-14T09:03:20Z</time>
      </trkpt>
      <trkpt lat="46.09776" lon="3.3155">
        <ele>336.6</ele>
        <time>2024-04-14T09:03:21Z</time>
      </trkpt>
      <trkpt lat="46.0978" lon="3.31545">
        <ele>337</ele>
        <time>2024-04-14T09:03:22Z</time>
      </trkpt>
      <trkpt lat="46.09783" lon="3.31541">
        <ele>337.2</ele>
        <time>2024-04-14T09:03:23Z</time>
      </trkpt>
      <trkpt lat="46.09786" lon="3.31537">
        <ele>337.4</ele>
        <time>2024-04-14T09:03:24Z</time>
      </trkpt>
      <trkpt lat="46.09789" lon="3.31533">
        <ele>337.4</ele>
        <time>2024-04-14T09:03:25Z</time>
      </trkpt>
      <trkpt lat="46.09792" lon="3.31528">
        <ele>337.6</ele>
        <time>2024-04-14T09:03:26Z</time>
      </trkpt>
      <trkpt lat="46.09795" lon="3.31524">
        <ele>337.4</ele>
        <time>2024-04-14T09:03:27Z</time>
      </trkpt>
      <trkpt lat="46.09798" lon="3.3152">
        <ele>337.4</ele>
        <time>2024-04-14T09:03:28Z</time>
      </trkpt>
      <trkpt lat="46.09801" lon="3.31516">
        <ele>337.4</ele>
        <time>2024-04-14T09:03:29Z</time>
      </trkpt>
      <trkpt lat="46.09804" lon="3.31512">
        <ele>337.4</ele>
        <time>2024-04-14T09:03:30Z</time>
      </trkpt>
      <trkpt lat="46.09807" lon="3.31508">
        <ele>337.4</ele>
        <time>2024-04-14T09:03:31Z</time>
      </trkpt>
      <trkpt lat="46.0981" lon="3.31504">
        <ele>337.6</ele>
        <time>2024-04-14T09:03:32Z</time>
      </trkpt>
      <trkpt lat="46.09813" lon="3.315">
        <ele>337.6</ele>
        <time>2024-04-14T09:03:33Z</time>
      </trkpt>
      <trkpt lat="46.09816" lon="3.31496">
        <ele>337.6</ele>
        <time>2024-04-14T09:03:34Z</time>
      </trkpt>
      <trkpt lat="46.09819" lon="3.31492">
        <ele>337.6</ele>
        <time>2024-04-14T09:03:35Z</time>
      </trkpt>
      <trkpt lat="46.09822" lon="3.31487">
        <ele>337.6</ele>
        <time>2024-04-14T09:03:36Z</time>
      </trkpt>
      <trkpt lat="46.09825" lon="3.31483">
        <ele>337.8</ele>
        <time>2024-04-14T09:03:37Z</time>
      </trkpt>
      <trkpt lat="46.09828" lon="3.31479">
        <ele>337.8</ele>
        <time>2024-04-14T09:03:38Z</time>
      </trkpt>
      <trkpt lat="46.09831" lon="3.31476">
        <ele>337.8</ele>
        <time>2024-04-14T09:03:39Z</time>
      </trkpt>
      <trkpt lat="46.09834" lon="3.31472">
        <ele>338</ele>
        <time>2024-04-14T09:03:40Z</time>
      </trkpt>
      <trkpt lat="46.09836" lon="3.31468">
        <ele>338</ele>
        <time>2024-04-14T09:03:41Z</time>
      </trkpt>
      <trkpt lat="46.09839" lon="3.31464">
        <ele>338.2</ele>
        <time>2024-04-14T09:03:42Z</time>
      </trkpt>
      <trkpt lat="46.09842" lon="3.3146">
        <ele>338.2</ele>
        <time>2024-04-14T09:03:43Z</time>
      </trkpt>
      <trkpt lat="46.09845" lon="3.31456">
        <ele>338.2</ele>
        <time>2024-04-14T09:03:44Z</time>
      </trkpt>
      <trkpt lat="46.09848" lon="3.31453">
        <ele>338.4</ele>
        <time>2024-04-14T09:03:45Z</time>
      </trkpt>
      <trkpt lat="46.0985" lon="3.31449">
        <ele>338.6</ele>
        <time>2024-04-14T09:03:46Z</time>
      </trkpt>
      <trkpt lat="46.09853" lon="3.31445">
        <ele>338.6</ele>
        <time>2024-04-14T09:03:47Z</time>
      </trkpt>
      <trkpt lat="46.09856" lon="3.31441">
        <ele>338.6</ele>
        <time>2024-04-14T09:03:48Z</time>
      </trkpt>
      <trkpt lat="46.09858" lon="3.31438">
        <ele>338.8</ele>
        <time>2024-04-14T09:03:49Z</time>
      </trkpt>
      <trkpt lat="46.09861" lon="3.31434">
        <ele>338.8</ele>
        <time>2024-04-14T09:03:50Z</time>
      </trkpt>
      <trkpt lat="46.09864" lon="3.31431">
        <ele>339</ele>
        <time>2024-04-14T09:03:51Z</time>
      </trkpt>
      <trkpt lat="46.09866" lon="3.31427">
        <ele>339</ele>
        <time>2024-04-14T09:03:52Z</time>
      </trkpt>
      <trkpt lat="46.09869" lon="3.31424">
        <ele>339.2</ele>
        <time>2024-04-14T09:03:53Z</time>
      </trkpt>
      <trkpt lat="46.09872" lon="3.3142">
        <ele>339.4</ele>
        <time>2024-04-14T09:03:54Z</time>
      </trkpt>
      <trkpt lat="46.09874" lon="3.31416">
        <ele>339.4</ele>
        <time>2024-04-14T09:03:55Z</time>
      </trkpt>
      <trkpt lat="46.09877" lon="3.31412">
        <ele>339.6</ele>
        <time>2024-04-14T09:03:56Z</time>
      </trkpt>
      <trkpt lat="46.0988" lon="3.31409">
        <ele>339.6</ele>
        <time>2024-04-14T09:03:57Z</time>
      </trkpt>
      <trkpt lat="46.09883" lon="3.31405">
        <ele>339.8</ele>
        <time>2024-04-14T09:03:58Z</time>
      </trkpt>
      <trkpt lat="46.09885" lon="3.31401">
        <ele>340</ele>
        <time>2024-04-14T09:03:59Z</time>
      </trkpt>
      <trkpt lat="46.09888" lon="3.31398">
        <ele>340</ele>
        <time>2024-04-14T09:04:00Z</time>
      </trkpt>
      <trkpt lat="46.09891" lon="3.31394">
        <ele>340.2</ele>
        <time>2024-04-14T09:04:01Z</time>
      </trkpt>
      <trkpt lat="46.09893" lon="3.3139">
        <ele>340.4</ele>
        <time>2024-04-14T09:04:02Z</time>
      </trkpt>
      <trkpt lat="46.09896" lon="3.31387">
        <ele>340.4</ele>
        <time>2024-04-14T09:04:03Z</time>
      </trkpt>
      <trkpt lat="46.09899" lon="3.31383">
        <ele>340.6</ele>
        <time>2024-04-14T09:04:04Z</time>
      </trkpt>
      <trkpt lat="46.09902" lon="3.31379">
        <ele>340.8</ele>
        <time>2024-04-14T09:04:05Z</time>
      </trkpt>
      <trkpt lat="46.09904" lon="3.31375">
        <ele>340.8</ele>
        <time>2024-04-14T09:04:06Z</time>
      </trkpt>
      <trkpt lat="46.09907" lon="3.31372">
        <ele>341</ele>
        <time>2024-04-14T09:04:07Z</time>
      </trkpt>
      <trkpt lat="46.0991" lon="3.31368">
        <ele>341.2</ele>
        <time>2024-04-14T09:04:08Z</time>
      </trkpt>
      <trkpt lat="46.09913" lon="3.31364">
        <ele>341.2</ele>
        <time>2024-04-14T09:04:09Z</time>
      </trkpt>
      <trkpt lat="46.09916" lon="3.3136">
        <ele>341.4</ele>
        <time>2024-04-14T09:04:10Z</time>
      </trkpt>
      <trkpt lat="46.09918" lon="3.31356">
        <ele>341.6</ele>
        <time>2024-04-14T09:04:11Z</time>
      </trkpt>
      <trkpt lat="46.09921" lon="3.31352">
        <ele>341.6</ele>
        <time>2024-04-14T09:04:12Z</time>
      </trkpt>
      <trkpt lat="46.09924" lon="3.31349">
        <ele>341.8</ele>
        <time>2024-04-14T09:04:13Z</time>
      </trkpt>
      <trkpt lat="46.09927" lon="3.31346">
        <ele>342</ele>
        <time>2024-04-14T09:04:14Z</time>
      </trkpt>
      <trkpt lat="46.09929" lon="3.31344">
        <ele>342</ele>
        <time>2024-04-14T09:04:15Z</time>
      </trkpt>
      <trkpt lat="46.09932" lon="3.31341">
        <ele>342.2</ele>
        <time>2024-04-14T09:04:16Z</time>
      </trkpt>
      <trkpt lat="46.09936" lon="3.31338">
        <ele>342.4</ele>
        <time>2024-04-14T09:04:17Z</time>
      </trkpt>
      <trkpt lat="46.09939" lon="3.31335">
        <ele>342.6</ele>
        <time>2024-04-14T09:04:18Z</time>
      </trkpt>
      <trkpt lat="46.09942" lon="3.31332">
        <ele>342.8</ele>
        <time>2024-04-14T09:04:19Z</time>
      </trkpt>
      <trkpt lat="46.09945" lon="3.31328">
        <ele>342.8</ele>
        <time>2024-04-14T09:04:20Z</time>
      </trkpt>
      <trkpt lat="46.09949" lon="3.31325">
        <ele>343</ele>
        <time>2024-04-14T09:04:21Z</time>
      </trkpt>
      <trkpt lat="46.09952" lon="3.31322">
        <ele>343.2</ele>
        <time>2024-04-14T09:04:22Z</time>
      </trkpt>
      <trkpt lat="46.09956" lon="3.31318">
        <ele>343.2</ele>
        <time>2024-04-14T09:04:23Z</time>
      </trkpt>
      <trkpt lat="46.0996" lon="3.31315">
        <ele>343.4</ele>
        <time>2024-04-14T09:04:24Z</time>
      </trkpt>
      <trkpt lat="46.09963" lon="3.31312">
        <ele>343.4</ele>
        <time>2024-04-14T09:04:25Z</time>
      </trkpt>
      <trkpt lat="46.09966" lon="3.31308">
        <ele>343.6</ele>
        <time>2024-04-14T09:04:26Z</time>
      </trkpt>
      <trkpt lat="46.09971" lon="3.31307">
        <ele>343.8</ele>
        <time>2024-04-14T09:04:27Z</time>
      </trkpt>
      <trkpt lat="46.09975" lon="3.31309">
        <ele>343.8</ele>
        <time>2024-04-14T09:04:28Z</time>
      </trkpt>
      <trkpt lat="46.0998" lon="3.3131">
        <ele>344</ele>
        <time>2024-04-14T09:04:29Z</time>
      </trkpt>
      <trkpt lat="46.09985" lon="3.31312">
        <ele>344</ele>
        <time>2024-04-14T09:04:30Z</time>
      </trkpt>
      <trkpt lat="46.0999" lon="3.31315">
        <ele>344.2</ele>
        <time>2024-04-14T09:04:31Z</time>
      </trkpt>
      <trkpt lat="46.09993" lon="3.3132">
        <ele>344.4</ele>
        <time>2024-04-14T09:04:32Z</time>
      </trkpt>
      <trkpt lat="46.09997" lon="3.31326">
        <ele>344.4</ele>
        <time>2024-04-14T09:04:33Z</time>
      </trkpt>
      <trkpt lat="46.10002" lon="3.31331">
        <ele>344.6</ele>
        <time>2024-04-14T09:04:34Z</time>
      </trkpt>
      <trkpt lat="46.10006" lon="3.31337">
        <ele>344.6</ele>
        <time>2024-04-14T09:04:35Z</time>
      </trkpt>
      <trkpt lat="46.1001" lon="3.31342">
        <ele>344.8</ele>
        <time>2024-04-14T09:04:36Z</time>
      </trkpt>
      <trkpt lat="46.10016" lon="3.31345">
        <ele>344.8</ele>
        <time>2024-04-14T09:04:37Z</time>
      </trkpt>
      <trkpt lat="46.10021" lon="3.31349">
        <ele>345</ele>
        <time>2024-04-14T09:04:38Z</time>
      </trkpt>
      <trkpt lat="46.10027" lon="3.3135">
        <ele>345</ele>
        <time>2024-04-14T09:04:39Z</time>
      </trkpt>
      <trkpt lat="46.10033" lon="3.31351">
        <ele>345</ele>
        <time>2024-04-14T09:04:40Z</time>
      </trkpt>
      <trkpt lat="46.10039" lon="3.31351">
        <ele>345.2</ele>
        <time>2024-04-14T09:04:41Z</time>
      </trkpt>
      <trkpt lat="46.10046" lon="3.31349">
        <ele>345.2</ele>
        <time>2024-04-14T09:04:42Z</time>
      </trkpt>
      <trkpt lat="46.10051" lon="3.31345">
        <ele>345.2</ele>
        <time>2024-04-14T09:04:43Z</time>
      </trkpt>
      <trkpt lat="46.10057" lon="3.31342">
        <ele>345.4</ele>
        <time>2024-04-14T09:04:44Z</time>
      </trkpt>
      <trkpt lat="46.10063" lon="3.31338">
        <ele>345.4</ele>
        <time>2024-04-14T09:04:45Z</time>
      </trkpt>
      <trkpt lat="46.10069" lon="3.31334">
        <ele>345.6</ele>
        <time>2024-04-14T09:04:46Z</time>
      </trkpt>
      <trkpt lat="46.10075" lon="3.3133">
        <ele>345.6</ele>
        <time>2024-04-14T09:04:47Z</time>
      </trkpt>
      <trkpt lat="46.10081" lon="3.31327">
        <ele>345.6</ele>
        <time>2024-04-14T09:04:48Z</time>
      </trkpt>
      <trkpt lat="46.10087" lon="3.31323">
        <ele>345.8</ele>
        <time>2024-04-14T09:04:49Z</time>
      </trkpt>
      <trkpt lat="46.10094" lon="3.31319">
        <ele>345.8</ele>
        <time>2024-04-14T09:04:50Z</time>
      </trkpt>
      <trkpt lat="46.101" lon="3.31315">
        <ele>345.8</ele>
        <time>2024-04-14T09:04:51Z</time>
      </trkpt>
      <trkpt lat="46.10106" lon="3.31311">
        <ele>345.8</ele>
        <time>2024-04-14T09:04:52Z</time>
      </trkpt>
      <trkpt lat="46.10113" lon="3.31307">
        <ele>345.8</ele>
        <time>2024-04-14T09:04:53Z</time>
      </trkpt>
      <trkpt lat="46.1012" lon="3.31302">
        <ele>345.8</ele>
        <time>2024-04-14T09:04:54Z</time>
      </trkpt>
      <trkpt lat="46.10126" lon="3.31298">
        <ele>345.8</ele>
        <time>2024-04-14T09:04:55Z</time>
      </trkpt>
      <trkpt lat="46.10133" lon="3.31294">
        <ele>345.8</ele>
        <time>2024-04-14T09:04:56Z</time>
      </trkpt>
      <trkpt lat="46.1014" lon="3.3129">
        <ele>345.8</ele>
        <time>2024-04-14T09:04:57Z</time>
      </trkpt>
      <trkpt lat="46.10147" lon="3.31285">
        <ele>345.8</ele>
        <time>2024-04-14T09:04:58Z</time>
      </trkpt>
      <trkpt lat="46.10155" lon="3.31281">
        <ele>345.8</ele>
        <time>2024-04-14T09:04:59Z</time>
      </trkpt>
      <trkpt lat="46.10162" lon="3.31278">
        <ele>345.8</ele>
        <time>2024-04-14T09:05:00Z</time>
      </trkpt>
      <trkpt lat="46.1017" lon="3.31275">
        <ele>345.8</ele>
        <time>2024-04-14T09:05:01Z</time>
      </trkpt>
      <trkpt lat="46.10179" lon="3.31272">
        <ele>345.6</ele>
        <time>2024-04-14T09:05:02Z</time>
      </trkpt>
      <trkpt lat="46.10187" lon="3.31268">
        <ele>345.6</ele>
        <time>2024-04-14T09:05:03Z</time>
      </trkpt>
      <trkpt lat="46.10196" lon="3.31264">
        <ele>345.6</ele>
        <time>2024-04-14T09:05:04Z</time>
      </trkpt>
      <trkpt lat="46.10205" lon="3.31261">
        <ele>346</ele>
        <time>2024-04-14T09:05:05Z</time>
      </trkpt>
      <trkpt lat="46.10214" lon="3.31257">
        <ele>345.6</ele>
        <time>2024-04-14T09:05:06Z</time>
      </trkpt>
      <trkpt lat="46.10223" lon="3.31254">
        <ele>345</ele>
        <time>2024-04-14T09:05:07Z</time>
      </trkpt>
      <trkpt lat="46.10232" lon="3.3125">
        <ele>345.2</ele>
        <time>2024-04-14T09:05:08Z</time>
      </trkpt>
      <trkpt lat="46.10242" lon="3.31245">
        <ele>345</ele>
        <time>2024-04-14T09:05:09Z</time>
      </trkpt>
      <trkpt lat="46.10252" lon="3.31241">
        <ele>345</ele>
        <time>2024-04-14T09:05:10Z</time>
      </trkpt>
      <trkpt lat="46.10263" lon="3.31237">
        <ele>344.8</ele>
        <time>2024-04-14T09:05:11Z</time>
      </trkpt>
      <trkpt lat="46.10273" lon="3.31232">
        <ele>344.6</ele>
        <time>2024-04-14T09:05:12Z</time>
      </trkpt>
      <trkpt lat="46.10284" lon="3.31228">
        <ele>344.4</ele>
        <time>2024-04-14T09:05:13Z</time>
      </trkpt>
      <trkpt lat="46.10295" lon="3.31223">
        <ele>344.2</ele>
        <time>2024-04-14T09:05:14Z</time>
      </trkpt>
      <trkpt lat="46.10306" lon="3.31219">
        <ele>344.2</ele>
        <time>2024-04-14T09:05:15Z</time>
      </trkpt>
      <trkpt lat="46.10318" lon="3.31214">
        <ele>344</ele>
        <time>2024-04-14T09:05:16Z</time>
      </trkpt>
      <trkpt lat="46.10329" lon="3.31209">
        <ele>343.8</ele>
        <time>2024-04-14T09:05:17Z</time>
      </trkpt>
      <trkpt lat="46.10341" lon="3.31204">
        <ele>343.6</ele>
        <time>2024-04-14T09:05:18Z</time>
      </trkpt>
      <trkpt lat="46.10352" lon="3.31199">
        <ele>343.4</ele>
        <time>2024-04-14T09:05:19Z</time>
      </trkpt>
      <trkpt lat="46.10364" lon="3.31195">
        <ele>343.2</ele>
        <time>2024-04-14T09:05:20Z</time>
      </trkpt>
      <trkpt lat="46.10375" lon="3.3119">
        <ele>343.2</ele>
        <time>2024-04-14T09:05:21Z</time>
      </trkpt>
      <trkpt lat="46.10386" lon="3.31185">
        <ele>343</ele>
        <time>2024-04-14T09:05:22Z</time>
      </trkpt>
      <trkpt lat="46.10397" lon="3.31181">
        <ele>343</ele>
        <time>2024-04-14T09:05:23Z</time>
      </trkpt>
      <trkpt lat="46.10408" lon="3.31176">
        <ele>342.8</ele>
        <time>2024-04-14T09:05:24Z</time>
      </trkpt>
      <trkpt lat="46.10419" lon="3.31172">
        <ele>342.8</ele>
        <time>2024-04-14T09:05:25Z</time>
      </trkpt>
      <trkpt lat="46.10429" lon="3.31168">
        <ele>342.8</ele>
        <time>2024-04-14T09:05:26Z</time>
      </trkpt>
      <trkpt lat="46.10439" lon="3.31163">
        <ele>342.8</ele>
        <time>2024-04-14T09:05:27Z</time>
      </trkpt>
      <trkpt lat="46.10439" lon="3.31163">
        <ele>342.8</ele>
        <time>2024-04-14T09:05:28Z</time>
      </trkpt>
      <trkpt lat="46.10459" lon="3.31155">
        <ele>342.8</ele>
        <time>2024-04-14T09:05:29Z</time>
      </trkpt>
      <trkpt lat="46.10468" lon="3.3115">
        <ele>342.6</ele>
        <time>2024-04-14T09:05:30Z</time>
      </trkpt>
      <trkpt lat="46.10476" lon="3.31143">
        <ele>342.6</ele>
        <time>2024-04-14T09:05:31Z</time>
      </trkpt>
      <trkpt lat="46.10484" lon="3.31136">
        <ele>342.6</ele>
        <time>2024-04-14T09:05:32Z</time>
      </trkpt>
      <trkpt lat="46.10489" lon="3.31125">
        <ele>342.6</ele>
        <time>2024-04-14T09:05:33Z</time>
      </trkpt>
      <trkpt lat="46.10493" lon="3.31113">
        <ele>342.6</ele>
        <time>2024-04-14T09:05:34Z</time>
      </trkpt>
      <trkpt lat="46.10494" lon="3.31101">
        <ele>342.6</ele>
        <time>2024-04-14T09:05:35Z</time>
      </trkpt>
      <trkpt lat="46.10494" lon="3.31101">
        <ele>342.8</ele>
        <time>2024-04-14T09:05:36Z</time>
      </trkpt>
      <trkpt lat="46.10494" lon="3.31089">
        <ele>342.8</ele>
        <time>2024-04-14T09:05:37Z</time>
      </trkpt>
      <trkpt lat="46.10493" lon="3.31065">
        <ele>342.8</ele>
        <time>2024-04-14T09:05:38Z</time>
      </trkpt>
      <trkpt lat="46.10493" lon="3.31053">
        <ele>342.8</ele>
        <time>2024-04-14T09:05:39Z</time>
      </trkpt>
      <trkpt lat="46.10492" lon="3.31042">
        <ele>342.8</ele>
        <time>2024-04-14T09:05:40Z</time>
      </trkpt>
      <trkpt lat="46.10492" lon="3.31032">
        <ele>342.6</ele>
        <time>2024-04-14T09:05:41Z</time>
      </trkpt>
      <trkpt lat="46.10492" lon="3.31032">
        <ele>342.6</ele>
        <time>2024-04-14T09:05:42Z</time>
      </trkpt>
      <trkpt lat="46.10492" lon="3.31011">
        <ele>342.8</ele>
        <time>2024-04-14T09:05:43Z</time>
      </trkpt>
      <trkpt lat="46.10491" lon="3.31001">
        <ele>342.8</ele>
        <time>2024-04-14T09:05:44Z</time>
      </trkpt>
      <trkpt lat="46.10491" lon="3.30991">
        <ele>342.8</ele>
        <time>2024-04-14T09:05:45Z</time>
      </trkpt>
      <trkpt lat="46.10491" lon="3.30981">
        <ele>342.2</ele>
        <time>2024-04-14T09:05:46Z</time>
      </trkpt>
      <trkpt lat="46.10491" lon="3.30971">
        <ele>342.4</ele>
        <time>2024-04-14T09:05:47Z</time>
      </trkpt>
      <trkpt lat="46.1049" lon="3.30962">
        <ele>342.6</ele>
        <time>2024-04-14T09:05:48Z</time>
      </trkpt>
      <trkpt lat="46.1049" lon="3.30953">
        <ele>343</ele>
        <time>2024-04-14T09:05:49Z</time>
      </trkpt>
      <trkpt lat="46.1049" lon="3.30943">
        <ele>343.2</ele>
        <time>2024-04-14T09:05:50Z</time>
      </trkpt>
      <trkpt lat="46.10493" lon="3.30935">
        <ele>343</ele>
        <time>2024-04-14T09:05:51Z</time>
      </trkpt>
      <trkpt lat="46.10495" lon="3.30926">
        <ele>343.2</ele>
        <time>2024-04-14T09:05:52Z</time>
      </trkpt>
      <trkpt lat="46.10498" lon="3.30918">
        <ele>343.2</ele>
        <time>2024-04-14T09:05:53Z</time>
      </trkpt>
      <trkpt lat="46.10501" lon="3.30909">
        <ele>343.2</ele>
        <time>2024-04-14T09:05:54Z</time>
      </trkpt>
      <trkpt lat="46.10504" lon="3.30902">
        <ele>343</ele>
        <time>2024-04-14T09:05:55Z</time>
      </trkpt>
      <trkpt lat="46.10509" lon="3.30897">
        <ele>343</ele>
        <time>2024-04-14T09:05:56Z</time>
      </trkpt>
      <trkpt lat="46.10515" lon="3.30892">
        <ele>343</ele>
        <time>2024-04-14T09:05:57Z</time>
      </trkpt>
      <trkpt lat="46.1052" lon="3.30887">
        <ele>343</ele>
        <time>2024-04-14T09:05:58Z</time>
      </trkpt>
      <trkpt lat="46.10527" lon="3.30885">
        <ele>343</ele>
        <time>2024-04-14T09:05:59Z</time>
      </trkpt>
      <trkpt lat="46.10533" lon="3.30883">
        <ele>343</ele>
        <time>2024-04-14T09:06:00Z</time>
      </trkpt>
      <trkpt lat="46.1054" lon="3.30882">
        <ele>343</ele>
        <time>2024-04-14T09:06:01Z</time>
      </trkpt>
      <trkpt lat="46.10546" lon="3.3088">
        <ele>343.2</ele>
        <time>2024-04-14T09:06:02Z</time>
      </trkpt>
      <trkpt lat="46.10553" lon="3.30879">
        <ele>343.2</ele>
        <time>2024-04-14T09:06:03Z</time>
      </trkpt>
      <trkpt lat="46.10559" lon="3.30878">
        <ele>343.2</ele>
        <time>2024-04-14T09:06:04Z</time>
      </trkpt>
      <trkpt lat="46.10565" lon="3.30876">
        <ele>343.4</ele>
        <time>2024-04-14T09:06:05Z</time>
      </trkpt>
      <trkpt lat="46.10571" lon="3.30875">
        <ele>343.4</ele>
        <time>2024-04-14T09:06:06Z</time>
      </trkpt>
      <trkpt lat="46.10577" lon="3.30873">
        <ele>343.4</ele>
        <time>2024-04-14T09:06:07Z</time>
      </trkpt>
      <trkpt lat="46.10583" lon="3.30872">
        <ele>343.4</ele>
        <time>2024-04-14T09:06:08Z</time>
      </trkpt>
      <trkpt lat="46.1059" lon="3.30871">
        <ele>343.6</ele>
        <time>2024-04-14T09:06:09Z</time>
      </trkpt>
      <trkpt lat="46.10596" lon="3.30869">
        <ele>343.6</ele>
        <time>2024-04-14T09:06:10Z</time>
      </trkpt>
      <trkpt lat="46.10602" lon="3.30868">
        <ele>343.6</ele>
        <time>2024-04-14T09:06:11Z</time>
      </trkpt>
      <trkpt lat="46.10608" lon="3.30867">
        <ele>343.6</ele>
        <time>2024-04-14T09:06:12Z</time>
      </trkpt>
      <trkpt lat="46.10614" lon="3.30865">
        <ele>343.8</ele>
        <time>2024-04-14T09:06:13Z</time>
      </trkpt>
      <trkpt lat="46.1062" lon="3.30864">
        <ele>343.8</ele>
        <time>2024-04-14T09:06:14Z</time>
      </trkpt>
      <trkpt lat="46.10627" lon="3.30862">
        <ele>344</ele>
        <time>2024-04-14T09:06:15Z</time>
      </trkpt>
      <trkpt lat="46.10633" lon="3.30861">
        <ele>344</ele>
        <time>2024-04-14T09:06:16Z</time>
      </trkpt>
      <trkpt lat="46.10639" lon="3.30859">
        <ele>344</ele>
        <time>2024-04-14T09:06:17Z</time>
      </trkpt>
      <trkpt lat="46.10645" lon="3.30858">
        <ele>344</ele>
        <time>2024-04-14T09:06:18Z</time>
      </trkpt>
      <trkpt lat="46.10651" lon="3.30856">
        <ele>344</ele>
        <time>2024-04-14T09:06:19Z</time>
      </trkpt>
      <trkpt lat="46.10658" lon="3.30854">
        <ele>344.2</ele>
        <time>2024-04-14T09:06:20Z</time>
      </trkpt>
      <trkpt lat="46.10664" lon="3.30853">
        <ele>344.2</ele>
        <time>2024-04-14T09:06:21Z</time>
      </trkpt>
      <trkpt lat="46.1067" lon="3.30851">
        <ele>344.4</ele>
        <time>2024-04-14T09:06:22Z</time>
      </trkpt>
      <trkpt lat="46.10675" lon="3.3085">
        <ele>344.4</ele>
        <time>2024-04-14T09:06:23Z</time>
      </trkpt>
      <trkpt lat="46.10681" lon="3.30848">
        <ele>344.4</ele>
        <time>2024-04-14T09:06:24Z</time>
      </trkpt>
      <trkpt lat="46.10687" lon="3.30847">
        <ele>344.6</ele>
        <time>2024-04-14T09:06:25Z</time>
      </trkpt>
      <trkpt lat="46.10693" lon="3.30845">
        <ele>344.6</ele>
        <time>2024-04-14T09:06:26Z</time>
      </trkpt>
      <trkpt lat="46.10698" lon="3.30844">
        <ele>344.6</ele>
        <time>2024-04-14T09:06:27Z</time>
      </trkpt>
      <trkpt lat="46.10704" lon="3.30843">
        <ele>344.8</ele>
        <time>2024-04-14T09:06:28Z</time>
      </trkpt>
      <trkpt lat="46.1071" lon="3.30841">
        <ele>344.8</ele>
        <time>2024-04-14T09:06:29Z</time>
      </trkpt>
      <trkpt lat="46.10715" lon="3.3084">
        <ele>345</ele>
        <time>2024-04-14T09:06:30Z</time>
      </trkpt>
      <trkpt lat="46.1072" lon="3.30839">
        <ele>345</ele>
        <time>2024-04-14T09:06:31Z</time>
      </trkpt>
      <trkpt lat="46.10724" lon="3.30838">
        <ele>345.2</ele>
        <time>2024-04-14T09:06:32Z</time>
      </trkpt>
      <trkpt lat="46.10729" lon="3.30837">
        <ele>345.2</ele>
        <time>2024-04-14T09:06:33Z</time>
      </trkpt>
      <trkpt lat="46.10733" lon="3.30836">
        <ele>345.4</ele>
        <time>2024-04-14T09:06:34Z</time>
      </trkpt>
      <trkpt lat="46.10736" lon="3.30835">
        <ele>345.6</ele>
        <time>2024-04-14T09:06:35Z</time>
      </trkpt>
      <trkpt lat="46.10739" lon="3.30834">
        <ele>345.6</ele>
        <time>2024-04-14T09:06:36Z</time>
      </trkpt>
      <trkpt lat="46.10741" lon="3.30834">
        <ele>345.8</ele>
        <time>2024-04-14T09:06:37Z</time>
      </trkpt>
      <trkpt lat="46.10744" lon="3.30833">
        <ele>345.8</ele>
        <time>2024-04-14T09:06:38Z</time>
      </trkpt>
      <trkpt lat="46.10747" lon="3.30832">
        <ele>346</ele>
        <time>2024-04-14T09:06:39Z</time>
      </trkpt>
      <trkpt lat="46.1075" lon="3.30832">
        <ele>346</ele>
        <time>2024-04-14T09:06:40Z</time>
      </trkpt>
      <trkpt lat="46.10753" lon="3.30831">
        <ele>346.2</ele>
        <time>2024-04-14T09:06:41Z</time>
      </trkpt>
      <trkpt lat="46.10756" lon="3.30827">
        <ele>346.2</ele>
        <time>2024-04-14T09:06:42Z</time>
      </trkpt>
      <trkpt lat="46.10755" lon="3.30821">
        <ele>346.2</ele>
        <time>2024-04-14T09:06:43Z</time>
      </trkpt>
      <trkpt lat="46.10755" lon="3.30813">
        <ele>346.4</ele>
        <time>2024-04-14T09:06:44Z</time>
      </trkpt>
      <trkpt lat="46.10754" lon="3.30803">
        <ele>346.4</ele>
        <time>2024-04-14T09:06:45Z</time>
      </trkpt>
      <trkpt lat="46.10754" lon="3.30793">
        <ele>346.6</ele>
        <time>2024-04-14T09:06:46Z</time>
      </trkpt>
      <trkpt lat="46.10754" lon="3.30783">
        <ele>346.6</ele>
        <time>2024-04-14T09:06:47Z</time>
      </trkpt>
      <trkpt lat="46.10755" lon="3.30773">
        <ele>346.8</ele>
        <time>2024-04-14T09:06:48Z</time>
      </trkpt>
      <trkpt lat="46.10755" lon="3.30763">
        <ele>347</ele>
        <time>2024-04-14T09:06:49Z</time>
      </trkpt>
      <trkpt lat="46.10756" lon="3.30754">
        <ele>347</ele>
        <time>2024-04-14T09:06:50Z</time>
      </trkpt>
      <trkpt lat="46.10756" lon="3.30744">
        <ele>347.2</ele>
        <time>2024-04-14T09:06:51Z</time>
      </trkpt>
      <trkpt lat="46.10757" lon="3.30735">
        <ele>347.2</ele>
        <time>2024-04-14T09:06:52Z</time>
      </trkpt>
      <trkpt lat="46.10757" lon="3.30725">
        <ele>347.4</ele>
        <time>2024-04-14T09:06:53Z</time>
      </trkpt>
      <trkpt lat="46.10758" lon="3.30716">
        <ele>347.6</ele>
        <time>2024-04-14T09:06:54Z</time>
      </trkpt>
      <trkpt lat="46.10758" lon="3.30707">
        <ele>347.6</ele>
        <time>2024-04-14T09:06:55Z</time>
      </trkpt>
      <trkpt lat="46.10759" lon="3.30698">
        <ele>347.8</ele>
        <time>2024-04-14T09:06:56Z</time>
      </trkpt>
      <trkpt lat="46.10759" lon="3.30689">
        <ele>347.8</ele>
        <time>2024-04-14T09:06:57Z</time>
      </trkpt>
      <trkpt lat="46.1076" lon="3.30679">
        <ele>348</ele>
        <time>2024-04-14T09:06:58Z</time>
      </trkpt>
      <trkpt lat="46.1076" lon="3.3067">
        <ele>348.2</ele>
        <time>2024-04-14T09:06:59Z</time>
      </trkpt>
      <trkpt lat="46.10761" lon="3.3066">
        <ele>348.2</ele>
        <time>2024-04-14T09:07:00Z</time>
      </trkpt>
      <trkpt lat="46.10761" lon="3.30651">
        <ele>348.4</ele>
        <time>2024-04-14T09:07:01Z</time>
      </trkpt>
      <trkpt lat="46.10762" lon="3.30641">
        <ele>348.4</ele>
        <time>2024-04-14T09:07:02Z</time>
      </trkpt>
      <trkpt lat="46.10763" lon="3.30632">
        <ele>348.6</ele>
        <time>2024-04-14T09:07:03Z</time>
      </trkpt>
      <trkpt lat="46.10763" lon="3.30623">
        <ele>348.6</ele>
        <time>2024-04-14T09:07:04Z</time>
      </trkpt>
      <trkpt lat="46.10764" lon="3.30614">
        <ele>348.8</ele>
        <time>2024-04-14T09:07:05Z</time>
      </trkpt>
      <trkpt lat="46.10765" lon="3.30604">
        <ele>349</ele>
        <time>2024-04-14T09:07:06Z</time>
      </trkpt>
      <trkpt lat="46.10766" lon="3.30594">
        <ele>349</ele>
        <time>2024-04-14T09:07:07Z</time>
      </trkpt>
      <trkpt lat="46.10767" lon="3.30585">
        <ele>349.2</ele>
        <time>2024-04-14T09:07:08Z</time>
      </trkpt>
      <trkpt lat="46.10767" lon="3.30575">
        <ele>349.2</ele>
        <time>2024-04-14T09:07:09Z</time>
      </trkpt>
      <trkpt lat="46.10768" lon="3.30566">
        <ele>349.4</ele>
        <time>2024-04-14T09:07:10Z</time>
      </trkpt>
      <trkpt lat="46.10769" lon="3.30556">
        <ele>349.4</ele>
        <time>2024-04-14T09:07:11Z</time>
      </trkpt>
      <trkpt lat="46.1077" lon="3.30546">
        <ele>349.6</ele>
        <time>2024-04-14T09:07:12Z</time>
      </trkpt>
      <trkpt lat="46.10771" lon="3.30536">
        <ele>349.6</ele>
        <time>2024-04-14T09:07:13Z</time>
      </trkpt>
      <trkpt lat="46.10772" lon="3.30526">
        <ele>349.8</ele>
        <time>2024-04-14T09:07:14Z</time>
      </trkpt>
      <trkpt lat="46.10773" lon="3.30516">
        <ele>349.8</ele>
        <time>2024-04-14T09:07:15Z</time>
      </trkpt>
      <trkpt lat="46.10773" lon="3.30505">
        <ele>350</ele>
        <time>2024-04-14T09:07:16Z</time>
      </trkpt>
      <trkpt lat="46.10774" lon="3.30494">
        <ele>350</ele>
        <time>2024-04-14T09:07:17Z</time>
      </trkpt>
      <trkpt lat="46.10775" lon="3.30483">
        <ele>350</ele>
        <time>2024-04-14T09:07:18Z</time>
      </trkpt>
      <trkpt lat="46.10776" lon="3.30472">
        <ele>350</ele>
        <time>2024-04-14T09:07:19Z</time>
      </trkpt>
      <trkpt lat="46.10777" lon="3.3046">
        <ele>350</ele>
        <time>2024-04-14T09:07:20Z</time>
      </trkpt>
      <trkpt lat="46.10778" lon="3.30449">
        <ele>350</ele>
        <time>2024-04-14T09:07:21Z</time>
      </trkpt>
      <trkpt lat="46.10779" lon="3.30436">
        <ele>350</ele>
        <time>2024-04-14T09:07:22Z</time>
      </trkpt>
      <trkpt lat="46.1078" lon="3.30424">
        <ele>350</ele>
        <time>2024-04-14T09:07:23Z</time>
      </trkpt>
      <trkpt lat="46.10781" lon="3.3041">
        <ele>350</ele>
        <time>2024-04-14T09:07:24Z</time>
      </trkpt>
      <trkpt lat="46.10783" lon="3.30397">
        <ele>350</ele>
        <time>2024-04-14T09:07:25Z</time>
      </trkpt>
      <trkpt lat="46.10784" lon="3.30384">
        <ele>349.8</ele>
        <time>2024-04-14T09:07:26Z</time>
      </trkpt>
      <trkpt lat="46.10785" lon="3.3037">
        <ele>349.8</ele>
        <time>2024-04-14T09:07:27Z</time>
      </trkpt>
      <trkpt lat="46.10786" lon="3.30356">
        <ele>349.8</ele>
        <time>2024-04-14T09:07:28Z</time>
      </trkpt>
      <trkpt lat="46.10787" lon="3.30342">
        <ele>349.6</ele>
        <time>2024-04-14T09:07:29Z</time>
      </trkpt>
      <trkpt lat="46.10789" lon="3.30327">
        <ele>349.6</ele>
        <time>2024-04-14T09:07:30Z</time>
      </trkpt>
      <trkpt lat="46.1079" lon="3.30312">
        <ele>350.4</ele>
        <time>2024-04-14T09:07:31Z</time>
      </trkpt>
      <trkpt lat="46.10791" lon="3.30296">
        <ele>349.8</ele>
        <time>2024-04-14T09:07:32Z</time>
      </trkpt>
      <trkpt lat="46.10792" lon="3.3028">
        <ele>349.2</ele>
        <time>2024-04-14T09:07:33Z</time>
      </trkpt>
      <trkpt lat="46.10792" lon="3.30265">
        <ele>348.6</ele>
        <time>2024-04-14T09:07:34Z</time>
      </trkpt>
      <trkpt lat="46.10793" lon="3.30249">
        <ele>349</ele>
        <time>2024-04-14T09:07:35Z</time>
      </trkpt>
      <trkpt lat="46.10794" lon="3.30233">
        <ele>349</ele>
        <time>2024-04-14T09:07:36Z</time>
      </trkpt>
      <trkpt lat="46.10794" lon="3.30217">
        <ele>349</ele>
        <time>2024-04-14T09:07:37Z</time>
      </trkpt>
      <trkpt lat="46.10794" lon="3.30201">
        <ele>349</ele>
        <time>2024-04-14T09:07:38Z</time>
      </trkpt>
      <trkpt lat="46.10794" lon="3.30186">
        <ele>348.8</ele>
        <time>2024-04-14T09:07:39Z</time>
      </trkpt>
      <trkpt lat="46.10793" lon="3.3017">
        <ele>348.8</ele>
        <time>2024-04-14T09:07:40Z</time>
      </trkpt>
      <trkpt lat="46.10793" lon="3.30154">
        <ele>348.6</ele>
        <time>2024-04-14T09:07:41Z</time>
      </trkpt>
      <trkpt lat="46.10793" lon="3.30139">
        <ele>348.6</ele>
        <time>2024-04-14T09:07:42Z</time>
      </trkpt>
      <trkpt lat="46.10792" lon="3.30125">
        <ele>348.6</ele>
        <time>2024-04-14T09:07:43Z</time>
      </trkpt>
      <trkpt lat="46.10792" lon="3.3011">
        <ele>348.6</ele>
        <time>2024-04-14T09:07:44Z</time>
      </trkpt>
      <trkpt lat="46.10791" lon="3.30096">
        <ele>348.4</ele>
        <time>2024-04-14T09:07:45Z</time>
      </trkpt>
      <trkpt lat="46.1079" lon="3.30081">
        <ele>348.4</ele>
        <time>2024-04-14T09:07:46Z</time>
      </trkpt>
      <trkpt lat="46.1079" lon="3.30067">
        <ele>348.4</ele>
        <time>2024-04-14T09:07:47Z</time>
      </trkpt>
      <trkpt lat="46.10789" lon="3.30054">
        <ele>348.2</ele>
        <time>2024-04-14T09:07:48Z</time>
      </trkpt>
      <trkpt lat="46.10789" lon="3.3004">
        <ele>348.2</ele>
        <time>2024-04-14T09:07:49Z</time>
      </trkpt>
      <trkpt lat="46.10788" lon="3.30027">
        <ele>348.2</ele>
        <time>2024-04-14T09:07:50Z</time>
      </trkpt>
      <trkpt lat="46.10788" lon="3.30014">
        <ele>348.2</ele>
        <time>2024-04-14T09:07:51Z</time>
      </trkpt>
      <trkpt lat="46.10787" lon="3.30001">
        <ele>348.2</ele>
        <time>2024-04-14T09:07:52Z</time>
      </trkpt>
      <trkpt lat="46.10786" lon="3.29988">
        <ele>348.2</ele>
        <time>2024-04-14T09:07:53Z</time>
      </trkpt>
      <trkpt lat="46.10786" lon="3.29975">
        <ele>348.2</ele>
        <time>2024-04-14T09:07:54Z</time>
      </trkpt>
      <trkpt lat="46.10785" lon="3.29963">
        <ele>348.2</ele>
        <time>2024-04-14T09:07:55Z</time>
      </trkpt>
      <trkpt lat="46.10785" lon="3.29951">
        <ele>348</ele>
        <time>2024-04-14T09:07:56Z</time>
      </trkpt>
      <trkpt lat="46.10784" lon="3.29938">
        <ele>348</ele>
        <time>2024-04-14T09:07:57Z</time>
      </trkpt>
      <trkpt lat="46.10784" lon="3.29926">
        <ele>348</ele>
        <time>2024-04-14T09:07:58Z</time>
      </trkpt>
      <trkpt lat="46.10783" lon="3.29914">
        <ele>348</ele>
        <time>2024-04-14T09:07:59Z</time>
      </trkpt>
      <trkpt lat="46.10782" lon="3.29903">
        <ele>347.8</ele>
        <time>2024-04-14T09:08:00Z</time>
      </trkpt>
      <trkpt lat="46.10781" lon="3.29892">
        <ele>347.8</ele>
        <time>2024-04-14T09:08:01Z</time>
      </trkpt>
      <trkpt lat="46.1078" lon="3.2988">
        <ele>347.8</ele>
        <time>2024-04-14T09:08:02Z</time>
      </trkpt>
      <trkpt lat="46.10779" lon="3.29869">
        <ele>347.8</ele>
        <time>2024-04-14T09:08:03Z</time>
      </trkpt>
      <trkpt lat="46.10779" lon="3.29858">
        <ele>347.8</ele>
        <time>2024-04-14T09:08:04Z</time>
      </trkpt>
      <trkpt lat="46.10778" lon="3.29847">
        <ele>347.8</ele>
        <time>2024-04-14T09:08:05Z</time>
      </trkpt>
      <trkpt lat="46.10777" lon="3.29836">
        <ele>347.8</ele>
        <time>2024-04-14T09:08:06Z</time>
      </trkpt>
      <trkpt lat="46.10776" lon="3.29825">
        <ele>347.8</ele>
        <time>2024-04-14T09:08:07Z</time>
      </trkpt>
      <trkpt lat="46.10775" lon="3.29814">
        <ele>347.8</ele>
        <time>2024-04-14T09:08:08Z</time>
      </trkpt>
      <trkpt lat="46.10774" lon="3.29803">
        <ele>347.6</ele>
        <time>2024-04-14T09:08:09Z</time>
      </trkpt>
      <trkpt lat="46.10774" lon="3.29792">
        <ele>347.6</ele>
        <time>2024-04-14T09:08:10Z</time>
      </trkpt>
      <trkpt lat="46.10773" lon="3.29781">
        <ele>347.6</ele>
        <time>2024-04-14T09:08:11Z</time>
      </trkpt>
      <trkpt lat="46.10772" lon="3.29769">
        <ele>347.4</ele>
        <time>2024-04-14T09:08:12Z</time>
      </trkpt>
      <trkpt lat="46.10771" lon="3.29757">
        <ele>347.4</ele>
        <time>2024-04-14T09:08:13Z</time>
      </trkpt>
      <trkpt lat="46.1077" lon="3.29746">
        <ele>347.2</ele>
        <time>2024-04-14T09:08:14Z</time>
      </trkpt>
      <trkpt lat="46.10769" lon="3.29734">
        <ele>347.2</ele>
        <time>2024-04-14T09:08:15Z</time>
      </trkpt>
      <trkpt lat="46.10768" lon="3.29722">
        <ele>347</ele>
        <time>2024-04-14T09:08:16Z</time>
      </trkpt>
      <trkpt lat="46.10767" lon="3.29709">
        <ele>346.8</ele>
        <time>2024-04-14T09:08:17Z</time>
      </trkpt>
      <trkpt lat="46.10766" lon="3.29697">
        <ele>346.6</ele>
        <time>2024-04-14T09:08:18Z</time>
      </trkpt>
      <trkpt lat="46.10766" lon="3.29684">
        <ele>346.6</ele>
        <time>2024-04-14T09:08:19Z</time>
      </trkpt>
      <trkpt lat="46.10765" lon="3.29671">
        <ele>346.2</ele>
        <time>2024-04-14T09:08:20Z</time>
      </trkpt>
      <trkpt lat="46.10764" lon="3.29658">
        <ele>346</ele>
        <time>2024-04-14T09:08:21Z</time>
      </trkpt>
      <trkpt lat="46.10763" lon="3.29645">
        <ele>345.8</ele>
        <time>2024-04-14T09:08:22Z</time>
      </trkpt>
      <trkpt lat="46.10762" lon="3.29631">
        <ele>345.6</ele>
        <time>2024-04-14T09:08:23Z</time>
      </trkpt>
      <trkpt lat="46.10761" lon="3.29618">
        <ele>345.4</ele>
        <time>2024-04-14T09:08:24Z</time>
      </trkpt>
      <trkpt lat="46.1076" lon="3.29604">
        <ele>345.2</ele>
        <time>2024-04-14T09:08:25Z</time>
      </trkpt>
      <trkpt lat="46.10759" lon="3.2959">
        <ele>345</ele>
        <time>2024-04-14T09:08:26Z</time>
      </trkpt>
      <trkpt lat="46.10757" lon="3.29576">
        <ele>344.8</ele>
        <time>2024-04-14T09:08:27Z</time>
      </trkpt>
      <trkpt lat="46.10756" lon="3.29562">
        <ele>344.6</ele>
        <time>2024-04-14T09:08:28Z</time>
      </trkpt>
      <trkpt lat="46.10755" lon="3.29548">
        <ele>344.4</ele>
        <time>2024-04-14T09:08:29Z</time>
      </trkpt>
      <trkpt lat="46.10754" lon="3.29534">
        <ele>344.2</ele>
        <time>2024-04-14T09:08:30Z</time>
      </trkpt>
      <trkpt lat="46.10753" lon="3.2952">
        <ele>344</ele>
        <time>2024-04-14T09:08:31Z</time>
      </trkpt>
      <trkpt lat="46.10752" lon="3.29506">
        <ele>343.8</ele>
        <time>2024-04-14T09:08:32Z</time>
      </trkpt>
      <trkpt lat="46.10751" lon="3.29491">
        <ele>343.6</ele>
        <time>2024-04-14T09:08:33Z</time>
      </trkpt>
      <trkpt lat="46.1075" lon="3.29477">
        <ele>343.4</ele>
        <time>2024-04-14T09:08:34Z</time>
      </trkpt>
      <trkpt lat="46.10749" lon="3.29463">
        <ele>343.2</ele>
        <time>2024-04-14T09:08:35Z</time>
      </trkpt>
      <trkpt lat="46.10748" lon="3.29449">
        <ele>343</ele>
        <time>2024-04-14T09:08:36Z</time>
      </trkpt>
      <trkpt lat="46.10747" lon="3.29435">
        <ele>342.6</ele>
        <time>2024-04-14T09:08:37Z</time>
      </trkpt>
      <trkpt lat="46.10746" lon="3.2942">
        <ele>342.4</ele>
        <time>2024-04-14T09:08:38Z</time>
      </trkpt>
      <trkpt lat="46.10745" lon="3.29406">
        <ele>342.2</ele>
        <time>2024-04-14T09:08:39Z</time>
      </trkpt>
      <trkpt lat="46.10744" lon="3.29391">
        <ele>341.8</ele>
        <time>2024-04-14T09:08:40Z</time>
      </trkpt>
      <trkpt lat="46.10743" lon="3.29376">
        <ele>341.6</ele>
        <time>2024-04-14T09:08:41Z</time>
      </trkpt>
      <trkpt lat="46.10741" lon="3.29362">
        <ele>341.2</ele>
        <time>2024-04-14T09:08:42Z</time>
      </trkpt>
      <trkpt lat="46.1074" lon="3.29348">
        <ele>341</ele>
        <time>2024-04-14T09:08:43Z</time>
      </trkpt>
      <trkpt lat="46.10739" lon="3.29333">
        <ele>340.6</ele>
        <time>2024-04-14T09:08:44Z</time>
      </trkpt>
      <trkpt lat="46.10738" lon="3.29319">
        <ele>340.4</ele>
        <time>2024-04-14T09:08:45Z</time>
      </trkpt>
      <trkpt lat="46.10737" lon="3.29304">
        <ele>340.2</ele>
        <time>2024-04-14T09:08:46Z</time>
      </trkpt>
      <trkpt lat="46.10736" lon="3.2929">
        <ele>339.8</ele>
        <time>2024-04-14T09:08:47Z</time>
      </trkpt>
      <trkpt lat="46.10735" lon="3.29275">
        <ele>339.6</ele>
        <time>2024-04-14T09:08:48Z</time>
      </trkpt>
      <trkpt lat="46.10734" lon="3.29261">
        <ele>339.2</ele>
        <time>2024-04-14T09:08:49Z</time>
      </trkpt>
      <trkpt lat="46.10733" lon="3.29248">
        <ele>339</ele>
        <time>2024-04-14T09:08:50Z</time>
      </trkpt>
      <trkpt lat="46.10732" lon="3.29235">
        <ele>338.8</ele>
        <time>2024-04-14T09:08:51Z</time>
      </trkpt>
      <trkpt lat="46.10731" lon="3.29222">
        <ele>338.6</ele>
        <time>2024-04-14T09:08:52Z</time>
      </trkpt>
      <trkpt lat="46.1073" lon="3.2921">
        <ele>338.2</ele>
        <time>2024-04-14T09:08:53Z</time>
      </trkpt>
      <trkpt lat="46.10729" lon="3.29197">
        <ele>338</ele>
        <time>2024-04-14T09:08:54Z</time>
      </trkpt>
      <trkpt lat="46.10728" lon="3.29185">
        <ele>337.8</ele>
        <time>2024-04-14T09:08:55Z</time>
      </trkpt>
      <trkpt lat="46.10727" lon="3.29173">
        <ele>337.6</ele>
        <time>2024-04-14T09:08:56Z</time>
      </trkpt>
      <trkpt lat="46.10727" lon="3.29173">
        <ele>337.4</ele>
        <time>2024-04-14T09:08:57Z</time>
      </trkpt>
      <trkpt lat="46.10726" lon="3.2915">
        <ele>337.2</ele>
        <time>2024-04-14T09:08:58Z</time>
      </trkpt>
      <trkpt lat="46.10725" lon="3.29138">
        <ele>337</ele>
        <time>2024-04-14T09:08:59Z</time>
      </trkpt>
      <trkpt lat="46.10724" lon="3.29127">
        <ele>336.8</ele>
        <time>2024-04-14T09:09:00Z</time>
      </trkpt>
      <trkpt lat="46.10723" lon="3.29116">
        <ele>336.6</ele>
        <time>2024-04-14T09:09:01Z</time>
      </trkpt>
      <trkpt lat="46.10722" lon="3.29105">
        <ele>336.4</ele>
        <time>2024-04-14T09:09:02Z</time>
      </trkpt>
      <trkpt lat="46.10721" lon="3.29094">
        <ele>336.2</ele>
        <time>2024-04-14T09:09:03Z</time>
      </trkpt>
      <trkpt lat="46.10721" lon="3.29094">
        <ele>336</ele>
        <time>2024-04-14T09:09:04Z</time>
      </trkpt>
      <trkpt lat="46.1072" lon="3.29072">
        <ele>335.8</ele>
        <time>2024-04-14T09:09:05Z</time>
      </trkpt>
      <trkpt lat="46.10719" lon="3.29062">
        <ele>335.8</ele>
        <time>2024-04-14T09:09:06Z</time>
      </trkpt>
      <trkpt lat="46.10718" lon="3.29051">
        <ele>335.6</ele>
        <time>2024-04-14T09:09:07Z</time>
      </trkpt>
      <trkpt lat="46.10717" lon="3.2904">
        <ele>335.4</ele>
        <time>2024-04-14T09:09:08Z</time>
      </trkpt>
      <trkpt lat="46.10717" lon="3.29029">
        <ele>335.2</ele>
        <time>2024-04-14T09:09:09Z</time>
      </trkpt>
      <trkpt lat="46.10717" lon="3.29029">
        <ele>335</ele>
        <time>2024-04-14T09:09:10Z</time>
      </trkpt>
      <trkpt lat="46.10715" lon="3.29008">
        <ele>334.8</ele>
        <time>2024-04-14T09:09:11Z</time>
      </trkpt>
      <trkpt lat="46.10715" lon="3.29008">
        <ele>334.8</ele>
        <time>2024-04-14T09:09:12Z</time>
      </trkpt>
      <trkpt lat="46.10714" lon="3.28997">
        <ele>334.6</ele>
        <time>2024-04-14T09:09:13Z</time>
      </trkpt>
      <trkpt lat="46.10713" lon="3.28987">
        <ele>334.4</ele>
        <time>2024-04-14T09:09:14Z</time>
      </trkpt>
      <trkpt lat="46.10712" lon="3.28967">
        <ele>334.2</ele>
        <time>2024-04-14T09:09:15Z</time>
      </trkpt>
      <trkpt lat="46.10711" lon="3.28957">
        <ele>334</ele>
        <time>2024-04-14T09:09:16Z</time>
      </trkpt>
      <trkpt lat="46.1071" lon="3.28946">
        <ele>334</ele>
        <time>2024-04-14T09:09:17Z</time>
      </trkpt>
      <trkpt lat="46.1071" lon="3.28936">
        <ele>333.8</ele>
        <time>2024-04-14T09:09:18Z</time>
      </trkpt>
      <trkpt lat="46.10709" lon="3.28926">
        <ele>333.8</ele>
        <time>2024-04-14T09:09:19Z</time>
      </trkpt>
      <trkpt lat="46.10708" lon="3.28916">
        <ele>333.6</ele>
        <time>2024-04-14T09:09:20Z</time>
      </trkpt>
      <trkpt lat="46.10707" lon="3.28906">
        <ele>333.6</ele>
        <time>2024-04-14T09:09:21Z</time>
      </trkpt>
      <trkpt lat="46.10707" lon="3.28896">
        <ele>333.4</ele>
        <time>2024-04-14T09:09:22Z</time>
      </trkpt>
      <trkpt lat="46.10706" lon="3.28886">
        <ele>333.4</ele>
        <time>2024-04-14T09:09:23Z</time>
      </trkpt>
      <trkpt lat="46.10705" lon="3.28876">
        <ele>333.2</ele>
        <time>2024-04-14T09:09:24Z</time>
      </trkpt>
      <trkpt lat="46.10704" lon="3.28866">
        <ele>333.2</ele>
        <time>2024-04-14T09:09:25Z</time>
      </trkpt>
      <trkpt lat="46.10704" lon="3.28856">
        <ele>333</ele>
        <time>2024-04-14T09:09:26Z</time>
      </trkpt>
      <trkpt lat="46.10703" lon="3.28847">
        <ele>333</ele>
        <time>2024-04-14T09:09:27Z</time>
      </trkpt>
      <trkpt lat="46.10702" lon="3.28837">
        <ele>332.8</ele>
        <time>2024-04-14T09:09:28Z</time>
      </trkpt>
      <trkpt lat="46.10702" lon="3.28827">
        <ele>332.8</ele>
        <time>2024-04-14T09:09:29Z</time>
      </trkpt>
      <trkpt lat="46.10701" lon="3.28818">
        <ele>332.8</ele>
        <time>2024-04-14T09:09:30Z</time>
      </trkpt>
      <trkpt lat="46.107" lon="3.28808">
        <ele>332.6</ele>
        <time>2024-04-14T09:09:31Z</time>
      </trkpt>
      <trkpt lat="46.10699" lon="3.28799">
        <ele>332.6</ele>
        <time>2024-04-14T09:09:32Z</time>
      </trkpt>
      <trkpt lat="46.10698" lon="3.2879">
        <ele>332.4</ele>
        <time>2024-04-14T09:09:33Z</time>
      </trkpt>
      <trkpt lat="46.10697" lon="3.2878">
        <ele>332.4</ele>
        <time>2024-04-14T09:09:34Z</time>
      </trkpt>
      <trkpt lat="46.10696" lon="3.28771">
        <ele>332.4</ele>
        <time>2024-04-14T09:09:35Z</time>
      </trkpt>
      <trkpt lat="46.10694" lon="3.28761">
        <ele>332.2</ele>
        <time>2024-04-14T09:09:36Z</time>
      </trkpt>
      <trkpt lat="46.10693" lon="3.28752">
        <ele>332.2</ele>
        <time>2024-04-14T09:09:37Z</time>
      </trkpt>
      <trkpt lat="46.10692" lon="3.28742">
        <ele>332.2</ele>
        <time>2024-04-14T09:09:38Z</time>
      </trkpt>
      <trkpt lat="46.10691" lon="3.28733">
        <ele>332</ele>
        <time>2024-04-14T09:09:39Z</time>
      </trkpt>
      <trkpt lat="46.1069" lon="3.28723">
        <ele>332</ele>
        <time>2024-04-14T09:09:40Z</time>
      </trkpt>
      <trkpt lat="46.10689" lon="3.28714">
        <ele>331.8</ele>
        <time>2024-04-14T09:09:41Z</time>
      </trkpt>
      <trkpt lat="46.10688" lon="3.28705">
        <ele>331.8</ele>
        <time>2024-04-14T09:09:42Z</time>
      </trkpt>
      <trkpt lat="46.10687" lon="3.28695">
        <ele>331.8</ele>
        <time>2024-04-14T09:09:43Z</time>
      </trkpt>
      <trkpt lat="46.10686" lon="3.28686">
        <ele>331.8</ele>
        <time>2024-04-14T09:09:44Z</time>
      </trkpt>
      <trkpt lat="46.10685" lon="3.28676">
        <ele>331.8</ele>
        <time>2024-04-14T09:09:45Z</time>
      </trkpt>
      <trkpt lat="46.10685" lon="3.28667">
        <ele>331.6</ele>
        <time>2024-04-14T09:09:46Z</time>
      </trkpt>
      <trkpt lat="46.10684" lon="3.28658">
        <ele>331.6</ele>
        <time>2024-04-14T09:09:47Z</time>
      </trkpt>
      <trkpt lat="46.10683" lon="3.28649">
        <ele>331.6</ele>
        <time>2024-04-14T09:09:48Z</time>
      </trkpt>
      <trkpt lat="46.10683" lon="3.2864">
        <ele>331.6</ele>
        <time>2024-04-14T09:09:49Z</time>
      </trkpt>
      <trkpt lat="46.10682" lon="3.2863">
        <ele>331.6</ele>
        <time>2024-04-14T09:09:50Z</time>
      </trkpt>
      <trkpt lat="46.10681" lon="3.28621">
        <ele>331.6</ele>
        <time>2024-04-14T09:09:51Z</time>
      </trkpt>
      <trkpt lat="46.10681" lon="3.28612">
        <ele>331.4</ele>
        <time>2024-04-14T09:09:52Z</time>
      </trkpt>
      <trkpt lat="46.1068" lon="3.28603">
        <ele>331.4</ele>
        <time>2024-04-14T09:09:53Z</time>
      </trkpt>
      <trkpt lat="46.10679" lon="3.28594">
        <ele>331.4</ele>
        <time>2024-04-14T09:09:54Z</time>
      </trkpt>
      <trkpt lat="46.10679" lon="3.28585">
        <ele>331.4</ele>
        <time>2024-04-14T09:09:55Z</time>
      </trkpt>
      <trkpt lat="46.10678" lon="3.28576">
        <ele>331.4</ele>
        <time>2024-04-14T09:09:56Z</time>
      </trkpt>
      <trkpt lat="46.10677" lon="3.28567">
        <ele>331.2</ele>
        <time>2024-04-14T09:09:57Z</time>
      </trkpt>
      <trkpt lat="46.10677" lon="3.28557">
        <ele>331.2</ele>
        <time>2024-04-14T09:09:58Z</time>
      </trkpt>
      <trkpt lat="46.10676" lon="3.28548">
        <ele>331.2</ele>
        <time>2024-04-14T09:09:59Z</time>
      </trkpt>
      <trkpt lat="46.10675" lon="3.28539">
        <ele>331.2</ele>
        <time>2024-04-14T09:10:00Z</time>
      </trkpt>
      <trkpt lat="46.10675" lon="3.2853">
        <ele>331.2</ele>
        <time>2024-04-14T09:10:01Z</time>
      </trkpt>
      <trkpt lat="46.10674" lon="3.28521">
        <ele>331.2</ele>
        <time>2024-04-14T09:10:02Z</time>
      </trkpt>
      <trkpt lat="46.10674" lon="3.28512">
        <ele>331.2</ele>
        <time>2024-04-14T09:10:03Z</time>
      </trkpt>
      <trkpt lat="46.10673" lon="3.28503">
        <ele>331.2</ele>
        <time>2024-04-14T09:10:04Z</time>
      </trkpt>
      <trkpt lat="46.10672" lon="3.28494">
        <ele>331</ele>
        <time>2024-04-14T09:10:05Z</time>
      </trkpt>
      <trkpt lat="46.10672" lon="3.28485">
        <ele>331</ele>
        <time>2024-04-14T09:10:06Z</time>
      </trkpt>
      <trkpt lat="46.10671" lon="3.28477">
        <ele>331</ele>
        <time>2024-04-14T09:10:07Z</time>
      </trkpt>
      <trkpt lat="46.1067" lon="3.28468">
        <ele>331</ele>
        <time>2024-04-14T09:10:08Z</time>
      </trkpt>
      <trkpt lat="46.1067" lon="3.28459">
        <ele>331</ele>
        <time>2024-04-14T09:10:09Z</time>
      </trkpt>
      <trkpt lat="46.10669" lon="3.2845">
        <ele>331</ele>
        <time>2024-04-14T09:10:10Z</time>
      </trkpt>
      <trkpt lat="46.10668" lon="3.28442">
        <ele>331</ele>
        <time>2024-04-14T09:10:11Z</time>
      </trkpt>
      <trkpt lat="46.10668" lon="3.28433">
        <ele>331</ele>
        <time>2024-04-14T09:10:12Z</time>
      </trkpt>
      <trkpt lat="46.10667" lon="3.28424">
        <ele>331</ele>
        <time>2024-04-14T09:10:13Z</time>
      </trkpt>
      <trkpt lat="46.10666" lon="3.28415">
        <ele>331</ele>
        <time>2024-04-14T09:10:14Z</time>
      </trkpt>
      <trkpt lat="46.10666" lon="3.28406">
        <ele>331</ele>
        <time>2024-04-14T09:10:15Z</time>
      </trkpt>
      <trkpt lat="46.10665" lon="3.28397">
        <ele>331</ele>
        <time>2024-04-14T09:10:16Z</time>
      </trkpt>
      <trkpt lat="46.10664" lon="3.28388">
        <ele>331</ele>
        <time>2024-04-14T09:10:17Z</time>
      </trkpt>
      <trkpt lat="46.10664" lon="3.28379">
        <ele>330.8</ele>
        <time>2024-04-14T09:10:18Z</time>
      </trkpt>
      <trkpt lat="46.10663" lon="3.2837">
        <ele>330.8</ele>
        <time>2024-04-14T09:10:19Z</time>
      </trkpt>
      <trkpt lat="46.10663" lon="3.28362">
        <ele>330.8</ele>
        <time>2024-04-14T09:10:20Z</time>
      </trkpt>
      <trkpt lat="46.10662" lon="3.28353">
        <ele>331</ele>
        <time>2024-04-14T09:10:21Z</time>
      </trkpt>
      <trkpt lat="46.10661" lon="3.28344">
        <ele>331</ele>
        <time>2024-04-14T09:10:22Z</time>
      </trkpt>
      <trkpt lat="46.10661" lon="3.28335">
        <ele>331</ele>
        <time>2024-04-14T09:10:23Z</time>
      </trkpt>
      <trkpt lat="46.1066" lon="3.28326">
        <ele>331</ele>
        <time>2024-04-14T09:10:24Z</time>
      </trkpt>
      <trkpt lat="46.10659" lon="3.28317">
        <ele>331</ele>
        <time>2024-04-14T09:10:25Z</time>
      </trkpt>
      <trkpt lat="46.10659" lon="3.28308">
        <ele>331</ele>
        <time>2024-04-14T09:10:26Z</time>
      </trkpt>
      <trkpt lat="46.10658" lon="3.28299">
        <ele>330.8</ele>
        <time>2024-04-14T09:10:27Z</time>
      </trkpt>
      <trkpt lat="46.10657" lon="3.2829">
        <ele>330.8</ele>
        <time>2024-04-14T09:10:28Z</time>
      </trkpt>
      <trkpt lat="46.10657" lon="3.28281">
        <ele>330.8</ele>
        <time>2024-04-14T09:10:29Z</time>
      </trkpt>
      <trkpt lat="46.10656" lon="3.28271">
        <ele>331</ele>
        <time>2024-04-14T09:10:30Z</time>
      </trkpt>
      <trkpt lat="46.10655" lon="3.28262">
        <ele>331</ele>
        <time>2024-04-14T09:10:31Z</time>
      </trkpt>
      <trkpt lat="46.10655" lon="3.28253">
        <ele>330.8</ele>
        <time>2024-04-14T09:10:32Z</time>
      </trkpt>
      <trkpt lat="46.10654" lon="3.28244">
        <ele>331</ele>
        <time>2024-04-14T09:10:33Z</time>
      </trkpt>
      <trkpt lat="46.10653" lon="3.28234">
        <ele>331</ele>
        <time>2024-04-14T09:10:34Z</time>
      </trkpt>
      <trkpt lat="46.10653" lon="3.28225">
        <ele>331.2</ele>
        <time>2024-04-14T09:10:35Z</time>
      </trkpt>
      <trkpt lat="46.10652" lon="3.28216">
        <ele>331</ele>
        <time>2024-04-14T09:10:36Z</time>
      </trkpt>
      <trkpt lat="46.10651" lon="3.28207">
        <ele>331</ele>
        <time>2024-04-14T09:10:37Z</time>
      </trkpt>
      <trkpt lat="46.10651" lon="3.28198">
        <ele>331</ele>
        <time>2024-04-14T09:10:38Z</time>
      </trkpt>
      <trkpt lat="46.1065" lon="3.28188">
        <ele>331</ele>
        <time>2024-04-14T09:10:39Z</time>
      </trkpt>
      <trkpt lat="46.10649" lon="3.28179">
        <ele>331</ele>
        <time>2024-04-14T09:10:40Z</time>
      </trkpt>
      <trkpt lat="46.10649" lon="3.2817">
        <ele>331.2</ele>
        <time>2024-04-14T09:10:41Z</time>
      </trkpt>
      <trkpt lat="46.10648" lon="3.28161">
        <ele>331</ele>
        <time>2024-04-14T09:10:42Z</time>
      </trkpt>
      <trkpt lat="46.10647" lon="3.28152">
        <ele>331</ele>
        <time>2024-04-14T09:10:43Z</time>
      </trkpt>
      <trkpt lat="46.10647" lon="3.28143">
        <ele>331.2</ele>
        <time>2024-04-14T09:10:44Z</time>
      </trkpt>
      <trkpt lat="46.10646" lon="3.28134">
        <ele>331.2</ele>
        <time>2024-04-14T09:10:45Z</time>
      </trkpt>
      <trkpt lat="46.10646" lon="3.28125">
        <ele>331.2</ele>
        <time>2024-04-14T09:10:46Z</time>
      </trkpt>
      <trkpt lat="46.10645" lon="3.28116">
        <ele>331.2</ele>
        <time>2024-04-14T09:10:47Z</time>
      </trkpt>
      <trkpt lat="46.10644" lon="3.28107">
        <ele>331.2</ele>
        <time>2024-04-14T09:10:48Z</time>
      </trkpt>
      <trkpt lat="46.10644" lon="3.28098">
        <ele>331.2</ele>
        <time>2024-04-14T09:10:49Z</time>
      </trkpt>
      <trkpt lat="46.10643" lon="3.2809">
        <ele>331.2</ele>
        <time>2024-04-14T09:10:50Z</time>
      </trkpt>
      <trkpt lat="46.10643" lon="3.28081">
        <ele>331.2</ele>
        <time>2024-04-14T09:10:51Z</time>
      </trkpt>
      <trkpt lat="46.10642" lon="3.28072">
        <ele>331.2</ele>
        <time>2024-04-14T09:10:52Z</time>
      </trkpt>
      <trkpt lat="46.10641" lon="3.28064">
        <ele>331.4</ele>
        <time>2024-04-14T09:10:53Z</time>
      </trkpt>
      <trkpt lat="46.10641" lon="3.28055">
        <ele>331.4</ele>
        <time>2024-04-14T09:10:54Z</time>
      </trkpt>
      <trkpt lat="46.1064" lon="3.28046">
        <ele>331.4</ele>
        <time>2024-04-14T09:10:55Z</time>
      </trkpt>
      <trkpt lat="46.1064" lon="3.28038">
        <ele>331.4</ele>
        <time>2024-04-14T09:10:56Z</time>
      </trkpt>
      <trkpt lat="46.10639" lon="3.28029">
        <ele>331.4</ele>
        <time>2024-04-14T09:10:57Z</time>
      </trkpt>
      <trkpt lat="46.10638" lon="3.28021">
        <ele>331.4</ele>
        <time>2024-04-14T09:10:58Z</time>
      </trkpt>
      <trkpt lat="46.10638" lon="3.28012">
        <ele>331.4</ele>
        <time>2024-04-14T09:10:59Z</time>
      </trkpt>
      <trkpt lat="46.10637" lon="3.28004">
        <ele>331.6</ele>
        <time>2024-04-14T09:11:00Z</time>
      </trkpt>
      <trkpt lat="46.10637" lon="3.27995">
        <ele>331.6</ele>
        <time>2024-04-14T09:11:01Z</time>
      </trkpt>
      <trkpt lat="46.10636" lon="3.27987">
        <ele>331.6</ele>
        <time>2024-04-14T09:11:02Z</time>
      </trkpt>
      <trkpt lat="46.10635" lon="3.27979">
        <ele>331.6</ele>
        <time>2024-04-14T09:11:03Z</time>
      </trkpt>
      <trkpt lat="46.10635" lon="3.27971">
        <ele>331.6</ele>
        <time>2024-04-14T09:11:04Z</time>
      </trkpt>
      <trkpt lat="46.10634" lon="3.27962">
        <ele>331.6</ele>
        <time>2024-04-14T09:11:05Z</time>
      </trkpt>
      <trkpt lat="46.10634" lon="3.27954">
        <ele>331.8</ele>
        <time>2024-04-14T09:11:06Z</time>
      </trkpt>
      <trkpt lat="46.10633" lon="3.27946">
        <ele>331.8</ele>
        <time>2024-04-14T09:11:07Z</time>
      </trkpt>
      <trkpt lat="46.10633" lon="3.27938">
        <ele>331.8</ele>
        <time>2024-04-14T09:11:08Z</time>
      </trkpt>
      <trkpt lat="46.10632" lon="3.27929">
        <ele>331.8</ele>
        <time>2024-04-14T09:11:09Z</time>
      </trkpt>
      <trkpt lat="46.10631" lon="3.27921">
        <ele>332</ele>
        <time>2024-04-14T09:11:10Z</time>
      </trkpt>
      <trkpt lat="46.10631" lon="3.27913">
        <ele>332</ele>
        <time>2024-04-14T09:11:11Z</time>
      </trkpt>
      <trkpt lat="46.1063" lon="3.27905">
        <ele>332</ele>
        <time>2024-04-14T09:11:12Z</time>
      </trkpt>
      <trkpt lat="46.1063" lon="3.27897">
        <ele>332</ele>
        <time>2024-04-14T09:11:13Z</time>
      </trkpt>
      <trkpt lat="46.10629" lon="3.27888">
        <ele>332.2</ele>
        <time>2024-04-14T09:11:14Z</time>
      </trkpt>
      <trkpt lat="46.10629" lon="3.2788">
        <ele>332.2</ele>
        <time>2024-04-14T09:11:15Z</time>
      </trkpt>
      <trkpt lat="46.10628" lon="3.27872">
        <ele>332.4</ele>
        <time>2024-04-14T09:11:16Z</time>
      </trkpt>
      <trkpt lat="46.10627" lon="3.27863">
        <ele>332.4</ele>
        <time>2024-04-14T09:11:17Z</time>
      </trkpt>
      <trkpt lat="46.10627" lon="3.27854">
        <ele>332.4</ele>
        <time>2024-04-14T09:11:18Z</time>
      </trkpt>
      <trkpt lat="46.10626" lon="3.27846">
        <ele>332.4</ele>
        <time>2024-04-14T09:11:19Z</time>
      </trkpt>
      <trkpt lat="46.10626" lon="3.27837">
        <ele>332.6</ele>
        <time>2024-04-14T09:11:20Z</time>
      </trkpt>
      <trkpt lat="46.10625" lon="3.27828">
        <ele>332.6</ele>
        <time>2024-04-14T09:11:21Z</time>
      </trkpt>
      <trkpt lat="46.10624" lon="3.27819">
        <ele>332.6</ele>
        <time>2024-04-14T09:11:22Z</time>
      </trkpt>
      <trkpt lat="46.10624" lon="3.27811">
        <ele>332.6</ele>
        <time>2024-04-14T09:11:23Z</time>
      </trkpt>
      <trkpt lat="46.10623" lon="3.27802">
        <ele>332.6</ele>
        <time>2024-04-14T09:11:24Z</time>
      </trkpt>
      <trkpt lat="46.10623" lon="3.27794">
        <ele>332.8</ele>
        <time>2024-04-14T09:11:25Z</time>
      </trkpt>
      <trkpt lat="46.10622" lon="3.27785">
        <ele>332.8</ele>
        <time>2024-04-14T09:11:26Z</time>
      </trkpt>
      <trkpt lat="46.10621" lon="3.27777">
        <ele>333</ele>
        <time>2024-04-14T09:11:27Z</time>
      </trkpt>
      <trkpt lat="46.10621" lon="3.27768">
        <ele>333</ele>
        <time>2024-04-14T09:11:28Z</time>
      </trkpt>
      <trkpt lat="46.1062" lon="3.2776">
        <ele>333</ele>
        <time>2024-04-14T09:11:29Z</time>
      </trkpt>
      <trkpt lat="46.1062" lon="3.27752">
        <ele>333.2</ele>
        <time>2024-04-14T09:11:30Z</time>
      </trkpt>
      <trkpt lat="46.10619" lon="3.27743">
        <ele>333.2</ele>
        <time>2024-04-14T09:11:31Z</time>
      </trkpt>
      <trkpt lat="46.10618" lon="3.27735">
        <ele>333.2</ele>
        <time>2024-04-14T09:11:32Z</time>
      </trkpt>
      <trkpt lat="46.10616" lon="3.27727">
        <ele>333.2</ele>
        <time>2024-04-14T09:11:33Z</time>
      </trkpt>
      <trkpt lat="46.10616" lon="3.27719">
        <ele>333.4</ele>
        <time>2024-04-14T09:11:34Z</time>
      </trkpt>
      <trkpt lat="46.10615" lon="3.2771">
        <ele>333.4</ele>
        <time>2024-04-14T09:11:35Z</time>
      </trkpt>
      <trkpt lat="46.10614" lon="3.27702">
        <ele>333.4</ele>
        <time>2024-04-14T09:11:36Z</time>
      </trkpt>
      <trkpt lat="46.10613" lon="3.27693">
        <ele>333.6</ele>
        <time>2024-04-14T09:11:37Z</time>
      </trkpt>
      <trkpt lat="46.10612" lon="3.27685">
        <ele>333.6</ele>
        <time>2024-04-14T09:11:38Z</time>
      </trkpt>
      <trkpt lat="46.10612" lon="3.27677">
        <ele>333.6</ele>
        <time>2024-04-14T09:11:39Z</time>
      </trkpt>
      <trkpt lat="46.10611" lon="3.27669">
        <ele>333.6</ele>
        <time>2024-04-14T09:11:40Z</time>
      </trkpt>
      <trkpt lat="46.1061" lon="3.2766">
        <ele>333.8</ele>
        <time>2024-04-14T09:11:41Z</time>
      </trkpt>
      <trkpt lat="46.10609" lon="3.27652">
        <ele>333.8</ele>
        <time>2024-04-14T09:11:42Z</time>
      </trkpt>
      <trkpt lat="46.10608" lon="3.27644">
        <ele>333.8</ele>
        <time>2024-04-14T09:11:43Z</time>
      </trkpt>
      <trkpt lat="46.10608" lon="3.27636">
        <ele>334</ele>
        <time>2024-04-14T09:11:44Z</time>
      </trkpt>
      <trkpt lat="46.10607" lon="3.27627">
        <ele>334</ele>
        <time>2024-04-14T09:11:45Z</time>
      </trkpt>
      <trkpt lat="46.10606" lon="3.27619">
        <ele>334.2</ele>
        <time>2024-04-14T09:11:46Z</time>
      </trkpt>
      <trkpt lat="46.10605" lon="3.27611">
        <ele>334.2</ele>
        <time>2024-04-14T09:11:47Z</time>
      </trkpt>
      <trkpt lat="46.10604" lon="3.27603">
        <ele>334.2</ele>
        <time>2024-04-14T09:11:48Z</time>
      </trkpt>
      <trkpt lat="46.10604" lon="3.27595">
        <ele>334.2</ele>
        <time>2024-04-14T09:11:49Z</time>
      </trkpt>
      <trkpt lat="46.10603" lon="3.27587">
        <ele>334.4</ele>
        <time>2024-04-14T09:11:50Z</time>
      </trkpt>
      <trkpt lat="46.10602" lon="3.27579">
        <ele>334.4</ele>
        <time>2024-04-14T09:11:51Z</time>
      </trkpt>
      <trkpt lat="46.10601" lon="3.27571">
        <ele>334.6</ele>
        <time>2024-04-14T09:11:52Z</time>
      </trkpt>
      <trkpt lat="46.10601" lon="3.27563">
        <ele>334.6</ele>
        <time>2024-04-14T09:11:53Z</time>
      </trkpt>
      <trkpt lat="46.106" lon="3.27555">
        <ele>334.6</ele>
        <time>2024-04-14T09:11:54Z</time>
      </trkpt>
      <trkpt lat="46.10599" lon="3.27548">
        <ele>334.8</ele>
        <time>2024-04-14T09:11:55Z</time>
      </trkpt>
      <trkpt lat="46.10598" lon="3.2754">
        <ele>334.8</ele>
        <time>2024-04-14T09:11:56Z</time>
      </trkpt>
      <trkpt lat="46.10598" lon="3.27533">
        <ele>335</ele>
        <time>2024-04-14T09:11:57Z</time>
      </trkpt>
      <trkpt lat="46.10597" lon="3.27525">
        <ele>335</ele>
        <time>2024-04-14T09:11:58Z</time>
      </trkpt>
      <trkpt lat="46.10596" lon="3.27517">
        <ele>335.2</ele>
        <time>2024-04-14T09:11:59Z</time>
      </trkpt>
      <trkpt lat="46.10595" lon="3.27509">
        <ele>335.2</ele>
        <time>2024-04-14T09:12:00Z</time>
      </trkpt>
      <trkpt lat="46.10595" lon="3.27501">
        <ele>335.4</ele>
        <time>2024-04-14T09:12:01Z</time>
      </trkpt>
      <trkpt lat="46.10594" lon="3.27494">
        <ele>335.4</ele>
        <time>2024-04-14T09:12:02Z</time>
      </trkpt>
      <trkpt lat="46.10593" lon="3.27486">
        <ele>335.6</ele>
        <time>2024-04-14T09:12:03Z</time>
      </trkpt>
      <trkpt lat="46.10592" lon="3.27479">
        <ele>335.6</ele>
        <time>2024-04-14T09:12:04Z</time>
      </trkpt>
      <trkpt lat="46.1059" lon="3.27472">
        <ele>335.8</ele>
        <time>2024-04-14T09:12:05Z</time>
      </trkpt>
      <trkpt lat="46.10589" lon="3.27465">
        <ele>335.8</ele>
        <time>2024-04-14T09:12:06Z</time>
      </trkpt>
      <trkpt lat="46.10587" lon="3.27458">
        <ele>335.8</ele>
        <time>2024-04-14T09:12:07Z</time>
      </trkpt>
      <trkpt lat="46.10585" lon="3.27451">
        <ele>336</ele>
        <time>2024-04-14T09:12:08Z</time>
      </trkpt>
      <trkpt lat="46.10584" lon="3.27444">
        <ele>336</ele>
        <time>2024-04-14T09:12:09Z</time>
      </trkpt>
      <trkpt lat="46.10582" lon="3.27437">
        <ele>336.2</ele>
        <time>2024-04-14T09:12:10Z</time>
      </trkpt>
      <trkpt lat="46.1058" lon="3.2743">
        <ele>336.2</ele>
        <time>2024-04-14T09:12:11Z</time>
      </trkpt>
      <trkpt lat="46.10579" lon="3.27424">
        <ele>336.4</ele>
        <time>2024-04-14T09:12:12Z</time>
      </trkpt>
      <trkpt lat="46.10577" lon="3.27417">
        <ele>336.4</ele>
        <time>2024-04-14T09:12:13Z</time>
      </trkpt>
      <trkpt lat="46.10576" lon="3.27411">
        <ele>336.6</ele>
        <time>2024-04-14T09:12:14Z</time>
      </trkpt>
      <trkpt lat="46.10574" lon="3.27404">
        <ele>336.6</ele>
        <time>2024-04-14T09:12:15Z</time>
      </trkpt>
      <trkpt lat="46.10572" lon="3.27397">
        <ele>336.8</ele>
        <time>2024-04-14T09:12:16Z</time>
      </trkpt>
      <trkpt lat="46.10571" lon="3.2739">
        <ele>337</ele>
        <time>2024-04-14T09:12:17Z</time>
      </trkpt>
      <trkpt lat="46.10569" lon="3.27383">
        <ele>337</ele>
        <time>2024-04-14T09:12:18Z</time>
      </trkpt>
      <trkpt lat="46.10567" lon="3.27376">
        <ele>337.2</ele>
        <time>2024-04-14T09:12:19Z</time>
      </trkpt>
      <trkpt lat="46.10565" lon="3.2737">
        <ele>337.4</ele>
        <time>2024-04-14T09:12:20Z</time>
      </trkpt>
      <trkpt lat="46.10562" lon="3.27363">
        <ele>337.4</ele>
        <time>2024-04-14T09:12:21Z</time>
      </trkpt>
      <trkpt lat="46.1056" lon="3.27357">
        <ele>337.6</ele>
        <time>2024-04-14T09:12:22Z</time>
      </trkpt>
      <trkpt lat="46.10557" lon="3.2735">
        <ele>337.6</ele>
        <time>2024-04-14T09:12:23Z</time>
      </trkpt>
      <trkpt lat="46.10555" lon="3.27344">
        <ele>337.8</ele>
        <time>2024-04-14T09:12:24Z</time>
      </trkpt>
      <trkpt lat="46.10552" lon="3.27337">
        <ele>337.8</ele>
        <time>2024-04-14T09:12:25Z</time>
      </trkpt>
      <trkpt lat="46.1055" lon="3.27331">
        <ele>338</ele>
        <time>2024-04-14T09:12:26Z</time>
      </trkpt>
      <trkpt lat="46.10547" lon="3.27324">
        <ele>338.2</ele>
        <time>2024-04-14T09:12:27Z</time>
      </trkpt>
      <trkpt lat="46.10545" lon="3.27317">
        <ele>338.2</ele>
        <time>2024-04-14T09:12:28Z</time>
      </trkpt>
      <trkpt lat="46.10542" lon="3.27311">
        <ele>338.4</ele>
        <time>2024-04-14T09:12:29Z</time>
      </trkpt>
      <trkpt lat="46.1054" lon="3.27304">
        <ele>338.6</ele>
        <time>2024-04-14T09:12:30Z</time>
      </trkpt>
      <trkpt lat="46.10537" lon="3.27297">
        <ele>338.6</ele>
        <time>2024-04-14T09:12:31Z</time>
      </trkpt>
      <trkpt lat="46.10535" lon="3.2729">
        <ele>338.8</ele>
        <time>2024-04-14T09:12:32Z</time>
      </trkpt>
      <trkpt lat="46.10532" lon="3.27284">
        <ele>339</ele>
        <time>2024-04-14T09:12:33Z</time>
      </trkpt>
      <trkpt lat="46.1053" lon="3.27277">
        <ele>339</ele>
        <time>2024-04-14T09:12:34Z</time>
      </trkpt>
      <trkpt lat="46.10527" lon="3.27271">
        <ele>339.2</ele>
        <time>2024-04-14T09:12:35Z</time>
      </trkpt>
      <trkpt lat="46.10525" lon="3.27265">
        <ele>339.2</ele>
        <time>2024-04-14T09:12:36Z</time>
      </trkpt>
      <trkpt lat="46.10522" lon="3.27258">
        <ele>339.4</ele>
        <time>2024-04-14T09:12:37Z</time>
      </trkpt>
      <trkpt lat="46.1052" lon="3.27252">
        <ele>339.4</ele>
        <time>2024-04-14T09:12:38Z</time>
      </trkpt>
      <trkpt lat="46.10517" lon="3.27246">
        <ele>339.4</ele>
        <time>2024-04-14T09:12:39Z</time>
      </trkpt>
      <trkpt lat="46.10515" lon="3.27239">
        <ele>339.6</ele>
        <time>2024-04-14T09:12:40Z</time>
      </trkpt>
      <trkpt lat="46.10512" lon="3.27233">
        <ele>339.8</ele>
        <time>2024-04-14T09:12:41Z</time>
      </trkpt>
      <trkpt lat="46.1051" lon="3.27226">
        <ele>339.8</ele>
        <time>2024-04-14T09:12:42Z</time>
      </trkpt>
      <trkpt lat="46.10508" lon="3.2722">
        <ele>340</ele>
        <time>2024-04-14T09:12:43Z</time>
      </trkpt>
      <trkpt lat="46.10505" lon="3.27213">
        <ele>340</ele>
        <time>2024-04-14T09:12:44Z</time>
      </trkpt>
      <trkpt lat="46.10503" lon="3.27207">
        <ele>340.2</ele>
        <time>2024-04-14T09:12:45Z</time>
      </trkpt>
      <trkpt lat="46.10501" lon="3.272">
        <ele>340.4</ele>
        <time>2024-04-14T09:12:46Z</time>
      </trkpt>
      <trkpt lat="46.10498" lon="3.27194">
        <ele>340.4</ele>
        <time>2024-04-14T09:12:47Z</time>
      </trkpt>
      <trkpt lat="46.10496" lon="3.27187">
        <ele>340.6</ele>
        <time>2024-04-14T09:12:48Z</time>
      </trkpt>
      <trkpt lat="46.10494" lon="3.27181">
        <ele>340.8</ele>
        <time>2024-04-14T09:12:49Z</time>
      </trkpt>
      <trkpt lat="46.10492" lon="3.27173">
        <ele>340.8</ele>
        <time>2024-04-14T09:12:50Z</time>
      </trkpt>
      <trkpt lat="46.10491" lon="3.27166">
        <ele>341</ele>
        <time>2024-04-14T09:12:51Z</time>
      </trkpt>
      <trkpt lat="46.1049" lon="3.27159">
        <ele>341</ele>
        <time>2024-04-14T09:12:52Z</time>
      </trkpt>
      <trkpt lat="46.10488" lon="3.27152">
        <ele>341.2</ele>
        <time>2024-04-14T09:12:53Z</time>
      </trkpt>
      <trkpt lat="46.10487" lon="3.27145">
        <ele>341.4</ele>
        <time>2024-04-14T09:12:54Z</time>
      </trkpt>
      <trkpt lat="46.10485" lon="3.27137">
        <ele>341.6</ele>
        <time>2024-04-14T09:12:55Z</time>
      </trkpt>
      <trkpt lat="46.10484" lon="3.2713">
        <ele>341.6</ele>
        <time>2024-04-14T09:12:56Z</time>
      </trkpt>
      <trkpt lat="46.10483" lon="3.27122">
        <ele>341.8</ele>
        <time>2024-04-14T09:12:57Z</time>
      </trkpt>
      <trkpt lat="46.10481" lon="3.27115">
        <ele>341.8</ele>
        <time>2024-04-14T09:12:58Z</time>
      </trkpt>
      <trkpt lat="46.1048" lon="3.27107">
        <ele>342</ele>
        <time>2024-04-14T09:12:59Z</time>
      </trkpt>
      <trkpt lat="46.10479" lon="3.271">
        <ele>342.2</ele>
        <time>2024-04-14T09:13:00Z</time>
      </trkpt>
      <trkpt lat="46.10478" lon="3.27092">
        <ele>342.2</ele>
        <time>2024-04-14T09:13:01Z</time>
      </trkpt>
      <trkpt lat="46.10477" lon="3.27084">
        <ele>342.4</ele>
        <time>2024-04-14T09:13:02Z</time>
      </trkpt>
      <trkpt lat="46.10476" lon="3.27076">
        <ele>342.6</ele>
        <time>2024-04-14T09:13:03Z</time>
      </trkpt>
      <trkpt lat="46.10475" lon="3.27068">
        <ele>342.6</ele>
        <time>2024-04-14T09:13:04Z</time>
      </trkpt>
      <trkpt lat="46.10474" lon="3.2706">
        <ele>342.8</ele>
        <time>2024-04-14T09:13:05Z</time>
      </trkpt>
      <trkpt lat="46.10473" lon="3.27052">
        <ele>343</ele>
        <time>2024-04-14T09:13:06Z</time>
      </trkpt>
      <trkpt lat="46.10472" lon="3.27044">
        <ele>343</ele>
        <time>2024-04-14T09:13:07Z</time>
      </trkpt>
      <trkpt lat="46.10471" lon="3.27036">
        <ele>343.2</ele>
        <time>2024-04-14T09:13:08Z</time>
      </trkpt>
      <trkpt lat="46.1047" lon="3.27028">
        <ele>343.4</ele>
        <time>2024-04-14T09:13:09Z</time>
      </trkpt>
      <trkpt lat="46.10469" lon="3.2702">
        <ele>343.4</ele>
        <time>2024-04-14T09:13:10Z</time>
      </trkpt>
      <trkpt lat="46.10468" lon="3.27012">
        <ele>343.6</ele>
        <time>2024-04-14T09:13:11Z</time>
      </trkpt>
      <trkpt lat="46.10467" lon="3.27004">
        <ele>343.6</ele>
        <time>2024-04-14T09:13:12Z</time>
      </trkpt>
      <trkpt lat="46.10466" lon="3.26995">
        <ele>343.8</ele>
        <time>2024-04-14T09:13:13Z</time>
      </trkpt>
      <trkpt lat="46.10465" lon="3.26987">
        <ele>343.8</ele>
        <time>2024-04-14T09:13:14Z</time>
      </trkpt>
      <trkpt lat="46.10464" lon="3.26978">
        <ele>344</ele>
        <time>2024-04-14T09:13:15Z</time>
      </trkpt>
      <trkpt lat="46.10463" lon="3.2697">
        <ele>344.2</ele>
        <time>2024-04-14T09:13:16Z</time>
      </trkpt>
      <trkpt lat="46.10462" lon="3.26961">
        <ele>344.2</ele>
        <time>2024-04-14T09:13:17Z</time>
      </trkpt>
      <trkpt lat="46.10461" lon="3.26953">
        <ele>344.4</ele>
        <time>2024-04-14T09:13:18Z</time>
      </trkpt>
      <trkpt lat="46.1046" lon="3.26944">
        <ele>344.6</ele>
        <time>2024-04-14T09:13:19Z</time>
      </trkpt>
      <trkpt lat="46.10459" lon="3.26936">
        <ele>344.6</ele>
        <time>2024-04-14T09:13:20Z</time>
      </trkpt>
      <trkpt lat="46.10458" lon="3.26927">
        <ele>344.8</ele>
        <time>2024-04-14T09:13:21Z</time>
      </trkpt>
      <trkpt lat="46.10457" lon="3.26918">
        <ele>344.8</ele>
        <time>2024-04-14T09:13:22Z</time>
      </trkpt>
      <trkpt lat="46.10455" lon="3.26909">
        <ele>345</ele>
        <time>2024-04-14T09:13:23Z</time>
      </trkpt>
      <trkpt lat="46.10454" lon="3.269">
        <ele>345</ele>
        <time>2024-04-14T09:13:24Z</time>
      </trkpt>
      <trkpt lat="46.10453" lon="3.26892">
        <ele>345.2</ele>
        <time>2024-04-14T09:13:25Z</time>
      </trkpt>
      <trkpt lat="46.10452" lon="3.26883">
        <ele>345.2</ele>
        <time>2024-04-14T09:13:26Z</time>
      </trkpt>
      <trkpt lat="46.10451" lon="3.26874">
        <ele>345.2</ele>
        <time>2024-04-14T09:13:27Z</time>
      </trkpt>
      <trkpt lat="46.1045" lon="3.26865">
        <ele>345.4</ele>
        <time>2024-04-14T09:13:28Z</time>
      </trkpt>
      <trkpt lat="46.10449" lon="3.26856">
        <ele>345.4</ele>
        <time>2024-04-14T09:13:29Z</time>
      </trkpt>
      <trkpt lat="46.10447" lon="3.26847">
        <ele>345.4</ele>
        <time>2024-04-14T09:13:30Z</time>
      </trkpt>
      <trkpt lat="46.10446" lon="3.26837">
        <ele>345.6</ele>
        <time>2024-04-14T09:13:31Z</time>
      </trkpt>
      <trkpt lat="46.10445" lon="3.26828">
        <ele>345.6</ele>
        <time>2024-04-14T09:13:32Z</time>
      </trkpt>
      <trkpt lat="46.10444" lon="3.26818">
        <ele>345.6</ele>
        <time>2024-04-14T09:13:33Z</time>
      </trkpt>
      <trkpt lat="46.10443" lon="3.26809">
        <ele>345.8</ele>
        <time>2024-04-14T09:13:34Z</time>
      </trkpt>
      <trkpt lat="46.10441" lon="3.26799">
        <ele>345.8</ele>
        <time>2024-04-14T09:13:35Z</time>
      </trkpt>
      <trkpt lat="46.1044" lon="3.2679">
        <ele>345.8</ele>
        <time>2024-04-14T09:13:36Z</time>
      </trkpt>
      <trkpt lat="46.10439" lon="3.2678">
        <ele>346</ele>
        <time>2024-04-14T09:13:37Z</time>
      </trkpt>
      <trkpt lat="46.10438" lon="3.26771">
        <ele>346</ele>
        <time>2024-04-14T09:13:38Z</time>
      </trkpt>
      <trkpt lat="46.10437" lon="3.26762">
        <ele>346</ele>
        <time>2024-04-14T09:13:39Z</time>
      </trkpt>
      <trkpt lat="46.10436" lon="3.26752">
        <ele>346.2</ele>
        <time>2024-04-14T09:13:40Z</time>
      </trkpt>
      <trkpt lat="46.10434" lon="3.26743">
        <ele>346.2</ele>
        <time>2024-04-14T09:13:41Z</time>
      </trkpt>
      <trkpt lat="46.10433" lon="3.26733">
        <ele>346.2</ele>
        <time>2024-04-14T09:13:42Z</time>
      </trkpt>
      <trkpt lat="46.10432" lon="3.26723">
        <ele>346.2</ele>
        <time>2024-04-14T09:13:43Z</time>
      </trkpt>
      <trkpt lat="46.10431" lon="3.26714">
        <ele>346.4</ele>
        <time>2024-04-14T09:13:44Z</time>
      </trkpt>
      <trkpt lat="46.1043" lon="3.26704">
        <ele>346.4</ele>
        <time>2024-04-14T09:13:45Z</time>
      </trkpt>
      <trkpt lat="46.10428" lon="3.26695">
        <ele>346.4</ele>
        <time>2024-04-14T09:13:46Z</time>
      </trkpt>
      <trkpt lat="46.10427" lon="3.26685">
        <ele>346.4</ele>
        <time>2024-04-14T09:13:47Z</time>
      </trkpt>
      <trkpt lat="46.10426" lon="3.26676">
        <ele>346.6</ele>
        <time>2024-04-14T09:13:48Z</time>
      </trkpt>
      <trkpt lat="46.10425" lon="3.26666">
        <ele>346.6</ele>
        <time>2024-04-14T09:13:49Z</time>
      </trkpt>
      <trkpt lat="46.10424" lon="3.26657">
        <ele>346.6</ele>
        <time>2024-04-14T09:13:50Z</time>
      </trkpt>
      <trkpt lat="46.10422" lon="3.26647">
        <ele>346.6</ele>
        <time>2024-04-14T09:13:51Z</time>
      </trkpt>
      <trkpt lat="46.10421" lon="3.26637">
        <ele>346.6</ele>
        <time>2024-04-14T09:13:52Z</time>
      </trkpt>
      <trkpt lat="46.1042" lon="3.26627">
        <ele>346.6</ele>
        <time>2024-04-14T09:13:53Z</time>
      </trkpt>
      <trkpt lat="46.10419" lon="3.26617">
        <ele>346.8</ele>
        <time>2024-04-14T09:13:54Z</time>
      </trkpt>
      <trkpt lat="46.10417" lon="3.26608">
        <ele>346.8</ele>
        <time>2024-04-14T09:13:55Z</time>
      </trkpt>
      <trkpt lat="46.10416" lon="3.26598">
        <ele>346.8</ele>
        <time>2024-04-14T09:13:56Z</time>
      </trkpt>
      <trkpt lat="46.10415" lon="3.26588">
        <ele>346.8</ele>
        <time>2024-04-14T09:13:57Z</time>
      </trkpt>
      <trkpt lat="46.10414" lon="3.26579">
        <ele>346.8</ele>
        <time>2024-04-14T09:13:58Z</time>
      </trkpt>
      <trkpt lat="46.10413" lon="3.26569">
        <ele>346.8</ele>
        <time>2024-04-14T09:13:59Z</time>
      </trkpt>
      <trkpt lat="46.10411" lon="3.26559">
        <ele>346.8</ele>
        <time>2024-04-14T09:14:00Z</time>
      </trkpt>
      <trkpt lat="46.1041" lon="3.26549">
        <ele>346.8</ele>
        <time>2024-04-14T09:14:01Z</time>
      </trkpt>
      <trkpt lat="46.10409" lon="3.26539">
        <ele>346.8</ele>
        <time>2024-04-14T09:14:02Z</time>
      </trkpt>
      <trkpt lat="46.10408" lon="3.26529">
        <ele>346.8</ele>
        <time>2024-04-14T09:14:03Z</time>
      </trkpt>
      <trkpt lat="46.10406" lon="3.26519">
        <ele>346.8</ele>
        <time>2024-04-14T09:14:04Z</time>
      </trkpt>
      <trkpt lat="46.10405" lon="3.26509">
        <ele>346.8</ele>
        <time>2024-04-14T09:14:05Z</time>
      </trkpt>
      <trkpt lat="46.10404" lon="3.26499">
        <ele>346.8</ele>
        <time>2024-04-14T09:14:06Z</time>
      </trkpt>
      <trkpt lat="46.10403" lon="3.26489">
        <ele>346.8</ele>
        <time>2024-04-14T09:14:07Z</time>
      </trkpt>
      <trkpt lat="46.10401" lon="3.26479">
        <ele>346.8</ele>
        <time>2024-04-14T09:14:08Z</time>
      </trkpt>
      <trkpt lat="46.104" lon="3.26469">
        <ele>346.8</ele>
        <time>2024-04-14T09:14:09Z</time>
      </trkpt>
      <trkpt lat="46.10399" lon="3.26459">
        <ele>346.8</ele>
        <time>2024-04-14T09:14:10Z</time>
      </trkpt>
      <trkpt lat="46.10398" lon="3.26449">
        <ele>346.8</ele>
        <time>2024-04-14T09:14:11Z</time>
      </trkpt>
      <trkpt lat="46.10397" lon="3.26438">
        <ele>346.8</ele>
        <time>2024-04-14T09:14:12Z</time>
      </trkpt>
      <trkpt lat="46.10395" lon="3.26428">
        <ele>346.8</ele>
        <time>2024-04-14T09:14:13Z</time>
      </trkpt>
      <trkpt lat="46.10394" lon="3.26417">
        <ele>347.2</ele>
        <time>2024-04-14T09:14:14Z</time>
      </trkpt>
      <trkpt lat="46.10393" lon="3.26406">
        <ele>347</ele>
        <time>2024-04-14T09:14:15Z</time>
      </trkpt>
      <trkpt lat="46.10391" lon="3.26396">
        <ele>346.6</ele>
        <time>2024-04-14T09:14:16Z</time>
      </trkpt>
      <trkpt lat="46.1039" lon="3.26385">
        <ele>346.4</ele>
        <time>2024-04-14T09:14:17Z</time>
      </trkpt>
      <trkpt lat="46.10389" lon="3.26374">
        <ele>346.6</ele>
        <time>2024-04-14T09:14:18Z</time>
      </trkpt>
      <trkpt lat="46.10388" lon="3.26363">
        <ele>346.6</ele>
        <time>2024-04-14T09:14:19Z</time>
      </trkpt>
      <trkpt lat="46.10386" lon="3.26352">
        <ele>346.4</ele>
        <time>2024-04-14T09:14:20Z</time>
      </trkpt>
      <trkpt lat="46.10385" lon="3.26341">
        <ele>346.4</ele>
        <time>2024-04-14T09:14:21Z</time>
      </trkpt>
      <trkpt lat="46.10383" lon="3.26329">
        <ele>346.4</ele>
        <time>2024-04-14T09:14:22Z</time>
      </trkpt>
      <trkpt lat="46.10382" lon="3.26318">
        <ele>346.4</ele>
        <time>2024-04-14T09:14:23Z</time>
      </trkpt>
      <trkpt lat="46.10381" lon="3.26307">
        <ele>346.2</ele>
        <time>2024-04-14T09:14:24Z</time>
      </trkpt>
      <trkpt lat="46.10379" lon="3.26296">
        <ele>346.2</ele>
        <time>2024-04-14T09:14:25Z</time>
      </trkpt>
      <trkpt lat="46.10378" lon="3.26285">
        <ele>346.2</ele>
        <time>2024-04-14T09:14:26Z</time>
      </trkpt>
      <trkpt lat="46.10377" lon="3.26274">
        <ele>346</ele>
        <time>2024-04-14T09:14:27Z</time>
      </trkpt>
      <trkpt lat="46.10376" lon="3.26263">
        <ele>346</ele>
        <time>2024-04-14T09:14:28Z</time>
      </trkpt>
      <trkpt lat="46.10374" lon="3.26252">
        <ele>345.8</ele>
        <time>2024-04-14T09:14:29Z</time>
      </trkpt>
      <trkpt lat="46.10373" lon="3.26241">
        <ele>345.8</ele>
        <time>2024-04-14T09:14:30Z</time>
      </trkpt>
      <trkpt lat="46.10371" lon="3.26229">
        <ele>345.8</ele>
        <time>2024-04-14T09:14:31Z</time>
      </trkpt>
      <trkpt lat="46.1037" lon="3.26218">
        <ele>345.6</ele>
        <time>2024-04-14T09:14:32Z</time>
      </trkpt>
      <trkpt lat="46.10369" lon="3.26206">
        <ele>345.6</ele>
        <time>2024-04-14T09:14:33Z</time>
      </trkpt>
      <trkpt lat="46.10367" lon="3.26195">
        <ele>345.6</ele>
        <time>2024-04-14T09:14:34Z</time>
      </trkpt>
      <trkpt lat="46.10366" lon="3.26183">
        <ele>345.4</ele>
        <time>2024-04-14T09:14:35Z</time>
      </trkpt>
      <trkpt lat="46.10365" lon="3.26172">
        <ele>345.4</ele>
        <time>2024-04-14T09:14:36Z</time>
      </trkpt>
      <trkpt lat="46.10363" lon="3.26161">
        <ele>345.4</ele>
        <time>2024-04-14T09:14:37Z</time>
      </trkpt>
      <trkpt lat="46.10362" lon="3.2615">
        <ele>345.2</ele>
        <time>2024-04-14T09:14:38Z</time>
      </trkpt>
      <trkpt lat="46.10361" lon="3.26139">
        <ele>345.2</ele>
        <time>2024-04-14T09:14:39Z</time>
      </trkpt>
      <trkpt lat="46.10359" lon="3.26129">
        <ele>345.2</ele>
        <time>2024-04-14T09:14:40Z</time>
      </trkpt>
      <trkpt lat="46.10358" lon="3.26118">
        <ele>345</ele>
        <time>2024-04-14T09:14:41Z</time>
      </trkpt>
      <trkpt lat="46.10357" lon="3.26108">
        <ele>345</ele>
        <time>2024-04-14T09:14:42Z</time>
      </trkpt>
      <trkpt lat="46.10356" lon="3.26098">
        <ele>345</ele>
        <time>2024-04-14T09:14:43Z</time>
      </trkpt>
      <trkpt lat="46.10355" lon="3.26088">
        <ele>345</ele>
        <time>2024-04-14T09:14:44Z</time>
      </trkpt>
      <trkpt lat="46.10353" lon="3.26078">
        <ele>344.8</ele>
        <time>2024-04-14T09:14:45Z</time>
      </trkpt>
      <trkpt lat="46.10352" lon="3.26069">
        <ele>344.8</ele>
        <time>2024-04-14T09:14:46Z</time>
      </trkpt>
      <trkpt lat="46.10351" lon="3.2606">
        <ele>344.8</ele>
        <time>2024-04-14T09:14:47Z</time>
      </trkpt>
      <trkpt lat="46.10342" lon="3.26051">
        <ele>344.6</ele>
        <time>2024-04-14T09:14:48Z</time>
      </trkpt>
      <trkpt lat="46.10334" lon="3.26054">
        <ele>344.6</ele>
        <time>2024-04-14T09:14:49Z</time>
      </trkpt>
      <trkpt lat="46.10327" lon="3.26056">
        <ele>344.6</ele>
        <time>2024-04-14T09:14:50Z</time>
      </trkpt>
      <trkpt lat="46.1032" lon="3.26059">
        <ele>344.6</ele>
        <time>2024-04-14T09:14:51Z</time>
      </trkpt>
      <trkpt lat="46.10314" lon="3.26061">
        <ele>344.4</ele>
        <time>2024-04-14T09:14:52Z</time>
      </trkpt>
      <trkpt lat="46.10306" lon="3.26062">
        <ele>344.4</ele>
        <time>2024-04-14T09:14:53Z</time>
      </trkpt>
      <trkpt lat="46.10299" lon="3.26062">
        <ele>344.4</ele>
        <time>2024-04-14T09:14:54Z</time>
      </trkpt>
      <trkpt lat="46.10291" lon="3.26062">
        <ele>344.4</ele>
        <time>2024-04-14T09:14:55Z</time>
      </trkpt>
      <trkpt lat="46.10284" lon="3.26062">
        <ele>344.2</ele>
        <time>2024-04-14T09:14:56Z</time>
      </trkpt>
      <trkpt lat="46.10277" lon="3.26062">
        <ele>344.2</ele>
        <time>2024-04-14T09:14:57Z</time>
      </trkpt>
      <trkpt lat="46.1027" lon="3.26062">
        <ele>344.2</ele>
        <time>2024-04-14T09:14:58Z</time>
      </trkpt>
      <trkpt lat="46.10262" lon="3.26062">
        <ele>344.2</ele>
        <time>2024-04-14T09:14:59Z</time>
      </trkpt>
      <trkpt lat="46.10255" lon="3.26062">
        <ele>344.2</ele>
        <time>2024-04-14T09:15:00Z</time>
      </trkpt>
      <trkpt lat="46.10248" lon="3.26062">
        <ele>344.2</ele>
        <time>2024-04-14T09:15:01Z</time>
      </trkpt>
      <trkpt lat="46.10241" lon="3.26062">
        <ele>344.2</ele>
        <time>2024-04-14T09:15:02Z</time>
      </trkpt>
      <trkpt lat="46.10234" lon="3.26062">
        <ele>344</ele>
        <time>2024-04-14T09:15:03Z</time>
      </trkpt>
      <trkpt lat="46.10227" lon="3.26062">
        <ele>344</ele>
        <time>2024-04-14T09:15:04Z</time>
      </trkpt>
      <trkpt lat="46.1022" lon="3.26062">
        <ele>344</ele>
        <time>2024-04-14T09:15:05Z</time>
      </trkpt>
      <trkpt lat="46.10213" lon="3.26062">
        <ele>344</ele>
        <time>2024-04-14T09:15:06Z</time>
      </trkpt>
      <trkpt lat="46.10206" lon="3.26062">
        <ele>344</ele>
        <time>2024-04-14T09:15:07Z</time>
      </trkpt>
      <trkpt lat="46.10199" lon="3.26062">
        <ele>344</ele>
        <time>2024-04-14T09:15:08Z</time>
      </trkpt>
      <trkpt lat="46.10192" lon="3.26062">
        <ele>344</ele>
        <time>2024-04-14T09:15:09Z</time>
      </trkpt>
      <trkpt lat="46.10185" lon="3.26062">
        <ele>344</ele>
        <time>2024-04-14T09:15:10Z</time>
      </trkpt>
      <trkpt lat="46.10178" lon="3.26062">
        <ele>344</ele>
        <time>2024-04-14T09:15:11Z</time>
      </trkpt>
      <trkpt lat="46.10171" lon="3.26062">
        <ele>343.8</ele>
        <time>2024-04-14T09:15:12Z</time>
      </trkpt>
      <trkpt lat="46.10164" lon="3.26062">
        <ele>343.8</ele>
        <time>2024-04-14T09:15:13Z</time>
      </trkpt>
      <trkpt lat="46.10157" lon="3.26062">
        <ele>343.8</ele>
        <time>2024-04-14T09:15:14Z</time>
      </trkpt>
      <trkpt lat="46.1015" lon="3.26062">
        <ele>343.8</ele>
        <time>2024-04-14T09:15:15Z</time>
      </trkpt>
      <trkpt lat="46.10144" lon="3.26062">
        <ele>343.8</ele>
        <time>2024-04-14T09:15:16Z</time>
      </trkpt>
      <trkpt lat="46.10137" lon="3.26062">
        <ele>343.8</ele>
        <time>2024-04-14T09:15:17Z</time>
      </trkpt>
      <trkpt lat="46.1013" lon="3.26062">
        <ele>343.8</ele>
        <time>2024-04-14T09:15:18Z</time>
      </trkpt>
      <trkpt lat="46.10123" lon="3.26062">
        <ele>343.8</ele>
        <time>2024-04-14T09:15:19Z</time>
      </trkpt>
      <trkpt lat="46.10116" lon="3.26062">
        <ele>343.8</ele>
        <time>2024-04-14T09:15:20Z</time>
      </trkpt>
      <trkpt lat="46.1011" lon="3.26062">
        <ele>343.8</ele>
        <time>2024-04-14T09:15:21Z</time>
      </trkpt>
      <trkpt lat="46.10103" lon="3.26062">
        <ele>343.8</ele>
        <time>2024-04-14T09:15:22Z</time>
      </trkpt>
      <trkpt lat="46.10096" lon="3.26062">
        <ele>343.8</ele>
        <time>2024-04-14T09:15:23Z</time>
      </trkpt>
      <trkpt lat="46.10089" lon="3.26062">
        <ele>343.8</ele>
        <time>2024-04-14T09:15:24Z</time>
      </trkpt>
      <trkpt lat="46.10082" lon="3.26062">
        <ele>343.8</ele>
        <time>2024-04-14T09:15:25Z</time>
      </trkpt>
      <trkpt lat="46.10075" lon="3.26062">
        <ele>343.8</ele>
        <time>2024-04-14T09:15:26Z</time>
      </trkpt>
      <trkpt lat="46.10068" lon="3.26062">
        <ele>343.8</ele>
        <time>2024-04-14T09:15:27Z</time>
      </trkpt>
      <trkpt lat="46.10062" lon="3.26062">
        <ele>343.8</ele>
        <time>2024-04-14T09:15:28Z</time>
      </trkpt>
      <trkpt lat="46.10055" lon="3.26062">
        <ele>343.8</ele>
        <time>2024-04-14T09:15:29Z</time>
      </trkpt>
      <trkpt lat="46.10048" lon="3.26062">
        <ele>343.8</ele>
        <time>2024-04-14T09:15:30Z</time>
      </trkpt>
      <trkpt lat="46.10041" lon="3.26062">
        <ele>343.8</ele>
        <time>2024-04-14T09:15:31Z</time>
      </trkpt>
      <trkpt lat="46.10034" lon="3.26062">
        <ele>343.8</ele>
        <time>2024-04-14T09:15:32Z</time>
      </trkpt>
      <trkpt lat="46.10027" lon="3.26062">
        <ele>343.8</ele>
        <time>2024-04-14T09:15:33Z</time>
      </trkpt>
      <trkpt lat="46.10021" lon="3.26062">
        <ele>343.8</ele>
        <time>2024-04-14T09:15:34Z</time>
      </trkpt>
      <trkpt lat="46.10014" lon="3.26062">
        <ele>343.6</ele>
        <time>2024-04-14T09:15:35Z</time>
      </trkpt>
      <trkpt lat="46.10007" lon="3.26062">
        <ele>343.8</ele>
        <time>2024-04-14T09:15:36Z</time>
      </trkpt>
      <trkpt lat="46.10001" lon="3.26062">
        <ele>343.8</ele>
        <time>2024-04-14T09:15:37Z</time>
      </trkpt>
      <trkpt lat="46.09994" lon="3.26062">
        <ele>343.8</ele>
        <time>2024-04-14T09:15:38Z</time>
      </trkpt>
      <trkpt lat="46.09988" lon="3.26062">
        <ele>343.8</ele>
        <time>2024-04-14T09:15:39Z</time>
      </trkpt>
      <trkpt lat="46.09982" lon="3.26062">
        <ele>344</ele>
        <time>2024-04-14T09:15:40Z</time>
      </trkpt>
      <trkpt lat="46.09975" lon="3.26062">
        <ele>343.8</ele>
        <time>2024-04-14T09:15:41Z</time>
      </trkpt>
      <trkpt lat="46.09969" lon="3.26062">
        <ele>344</ele>
        <time>2024-04-14T09:15:42Z</time>
      </trkpt>
      <trkpt lat="46.09963" lon="3.26062">
        <ele>344</ele>
        <time>2024-04-14T09:15:43Z</time>
      </trkpt>
      <trkpt lat="46.09957" lon="3.26062">
        <ele>344</ele>
        <time>2024-04-14T09:15:44Z</time>
      </trkpt>
      <trkpt lat="46.0995" lon="3.26062">
        <ele>344</ele>
        <time>2024-04-14T09:15:45Z</time>
      </trkpt>
      <trkpt lat="46.09944" lon="3.26062">
        <ele>344</ele>
        <time>2024-04-14T09:15:46Z</time>
      </trkpt>
      <trkpt lat="46.09938" lon="3.26062">
        <ele>344</ele>
        <time>2024-04-14T09:15:47Z</time>
      </trkpt>
      <trkpt lat="46.09932" lon="3.26062">
        <ele>344</ele>
        <time>2024-04-14T09:15:48Z</time>
      </trkpt>
      <trkpt lat="46.09926" lon="3.26062">
        <ele>344</ele>
        <time>2024-04-14T09:15:49Z</time>
      </trkpt>
      <trkpt lat="46.09919" lon="3.26062">
        <ele>344</ele>
        <time>2024-04-14T09:15:50Z</time>
      </trkpt>
      <trkpt lat="46.09913" lon="3.26062">
        <ele>344</ele>
        <time>2024-04-14T09:15:51Z</time>
      </trkpt>
      <trkpt lat="46.09907" lon="3.26062">
        <ele>344</ele>
        <time>2024-04-14T09:15:52Z</time>
      </trkpt>
      <trkpt lat="46.09901" lon="3.26061">
        <ele>344</ele>
        <time>2024-04-14T09:15:53Z</time>
      </trkpt>
      <trkpt lat="46.09895" lon="3.26061">
        <ele>344</ele>
        <time>2024-04-14T09:15:54Z</time>
      </trkpt>
      <trkpt lat="46.09889" lon="3.26061">
        <ele>344</ele>
        <time>2024-04-14T09:15:55Z</time>
      </trkpt>
      <trkpt lat="46.09882" lon="3.26061">
        <ele>344</ele>
        <time>2024-04-14T09:15:56Z</time>
      </trkpt>
      <trkpt lat="46.09876" lon="3.26061">
        <ele>344.2</ele>
        <time>2024-04-14T09:15:57Z</time>
      </trkpt>
      <trkpt lat="46.0987" lon="3.26061">
        <ele>344.2</ele>
        <time>2024-04-14T09:15:58Z</time>
      </trkpt>
      <trkpt lat="46.09864" lon="3.26061">
        <ele>344.2</ele>
        <time>2024-04-14T09:15:59Z</time>
      </trkpt>
      <trkpt lat="46.09857" lon="3.26061">
        <ele>344</ele>
        <time>2024-04-14T09:16:00Z</time>
      </trkpt>
      <trkpt lat="46.09851" lon="3.26061">
        <ele>344.2</ele>
        <time>2024-04-14T09:16:01Z</time>
      </trkpt>
      <trkpt lat="46.09845" lon="3.26061">
        <ele>344.2</ele>
        <time>2024-04-14T09:16:02Z</time>
      </trkpt>
      <trkpt lat="46.09839" lon="3.26061">
        <ele>344.2</ele>
        <time>2024-04-14T09:16:03Z</time>
      </trkpt>
      <trkpt lat="46.09833" lon="3.2606">
        <ele>344.2</ele>
        <time>2024-04-14T09:16:04Z</time>
      </trkpt>
      <trkpt lat="46.09827" lon="3.2606">
        <ele>344.2</ele>
        <time>2024-04-14T09:16:05Z</time>
      </trkpt>
      <trkpt lat="46.09821" lon="3.2606">
        <ele>344.2</ele>
        <time>2024-04-14T09:16:06Z</time>
      </trkpt>
      <trkpt lat="46.09815" lon="3.2606">
        <ele>344.4</ele>
        <time>2024-04-14T09:16:07Z</time>
      </trkpt>
      <trkpt lat="46.09809" lon="3.26061">
        <ele>344.4</ele>
        <time>2024-04-14T09:16:08Z</time>
      </trkpt>
      <trkpt lat="46.09804" lon="3.26063">
        <ele>344.4</ele>
        <time>2024-04-14T09:16:09Z</time>
      </trkpt>
      <trkpt lat="46.09798" lon="3.26064">
        <ele>344.4</ele>
        <time>2024-04-14T09:16:10Z</time>
      </trkpt>
      <trkpt lat="46.09792" lon="3.26066">
        <ele>344.4</ele>
        <time>2024-04-14T09:16:11Z</time>
      </trkpt>
      <trkpt lat="46.09786" lon="3.26068">
        <ele>344.4</ele>
        <time>2024-04-14T09:16:12Z</time>
      </trkpt>
      <trkpt lat="46.0978" lon="3.2607">
        <ele>344.4</ele>
        <time>2024-04-14T09:16:13Z</time>
      </trkpt>
      <trkpt lat="46.09774" lon="3.26072">
        <ele>344.6</ele>
        <time>2024-04-14T09:16:14Z</time>
      </trkpt>
      <trkpt lat="46.09768" lon="3.26074">
        <ele>344.6</ele>
        <time>2024-04-14T09:16:15Z</time>
      </trkpt>
      <trkpt lat="46.09762" lon="3.26076">
        <ele>344.6</ele>
        <time>2024-04-14T09:16:16Z</time>
      </trkpt>
      <trkpt lat="46.09757" lon="3.26078">
        <ele>344.6</ele>
        <time>2024-04-14T09:16:17Z</time>
      </trkpt>
      <trkpt lat="46.09751" lon="3.2608">
        <ele>344.6</ele>
        <time>2024-04-14T09:16:18Z</time>
      </trkpt>
      <trkpt lat="46.09745" lon="3.26081">
        <ele>344.6</ele>
        <time>2024-04-14T09:16:19Z</time>
      </trkpt>
      <trkpt lat="46.09739" lon="3.26083">
        <ele>344.6</ele>
        <time>2024-04-14T09:16:20Z</time>
      </trkpt>
      <trkpt lat="46.09733" lon="3.26085">
        <ele>344.8</ele>
        <time>2024-04-14T09:16:21Z</time>
      </trkpt>
      <trkpt lat="46.09727" lon="3.26087">
        <ele>344.8</ele>
        <time>2024-04-14T09:16:22Z</time>
      </trkpt>
      <trkpt lat="46.09722" lon="3.26089">
        <ele>344.8</ele>
        <time>2024-04-14T09:16:23Z</time>
      </trkpt>
      <trkpt lat="46.09715" lon="3.26091">
        <ele>344.8</ele>
        <time>2024-04-14T09:16:24Z</time>
      </trkpt>
      <trkpt lat="46.09709" lon="3.26093">
        <ele>344.8</ele>
        <time>2024-04-14T09:16:25Z</time>
      </trkpt>
      <trkpt lat="46.09704" lon="3.26095">
        <ele>344.8</ele>
        <time>2024-04-14T09:16:26Z</time>
      </trkpt>
      <trkpt lat="46.09698" lon="3.26097">
        <ele>345</ele>
        <time>2024-04-14T09:16:27Z</time>
      </trkpt>
      <trkpt lat="46.09692" lon="3.26098">
        <ele>345</ele>
        <time>2024-04-14T09:16:28Z</time>
      </trkpt>
      <trkpt lat="46.09686" lon="3.261">
        <ele>345</ele>
        <time>2024-04-14T09:16:29Z</time>
      </trkpt>
      <trkpt lat="46.09681" lon="3.26102">
        <ele>345</ele>
        <time>2024-04-14T09:16:30Z</time>
      </trkpt>
      <trkpt lat="46.09675" lon="3.26104">
        <ele>345</ele>
        <time>2024-04-14T09:16:31Z</time>
      </trkpt>
      <trkpt lat="46.09669" lon="3.26106">
        <ele>345.2</ele>
        <time>2024-04-14T09:16:32Z</time>
      </trkpt>
      <trkpt lat="46.09663" lon="3.26107">
        <ele>345.2</ele>
        <time>2024-04-14T09:16:33Z</time>
      </trkpt>
      <trkpt lat="46.09658" lon="3.26109">
        <ele>345.2</ele>
        <time>2024-04-14T09:16:34Z</time>
      </trkpt>
      <trkpt lat="46.09652" lon="3.26111">
        <ele>345.2</ele>
        <time>2024-04-14T09:16:35Z</time>
      </trkpt>
      <trkpt lat="46.09647" lon="3.26113">
        <ele>345.2</ele>
        <time>2024-04-14T09:16:36Z</time>
      </trkpt>
      <trkpt lat="46.09642" lon="3.26114">
        <ele>345.4</ele>
        <time>2024-04-14T09:16:37Z</time>
      </trkpt>
      <trkpt lat="46.09636" lon="3.26116">
        <ele>345.4</ele>
        <time>2024-04-14T09:16:38Z</time>
      </trkpt>
      <trkpt lat="46.09631" lon="3.26118">
        <ele>345.4</ele>
        <time>2024-04-14T09:16:39Z</time>
      </trkpt>
      <trkpt lat="46.09625" lon="3.2612">
        <ele>345.4</ele>
        <time>2024-04-14T09:16:40Z</time>
      </trkpt>
      <trkpt lat="46.0962" lon="3.26121">
        <ele>345.4</ele>
        <time>2024-04-14T09:16:41Z</time>
      </trkpt>
      <trkpt lat="46.09615" lon="3.26123">
        <ele>345.4</ele>
        <time>2024-04-14T09:16:42Z</time>
      </trkpt>
      <trkpt lat="46.09609" lon="3.26125">
        <ele>345.6</ele>
        <time>2024-04-14T09:16:43Z</time>
      </trkpt>
      <trkpt lat="46.09604" lon="3.26126">
        <ele>345.6</ele>
        <time>2024-04-14T09:16:44Z</time>
      </trkpt>
      <trkpt lat="46.09599" lon="3.26128">
        <ele>345.6</ele>
        <time>2024-04-14T09:16:45Z</time>
      </trkpt>
      <trkpt lat="46.09594" lon="3.2613">
        <ele>345.8</ele>
        <time>2024-04-14T09:16:46Z</time>
      </trkpt>
      <trkpt lat="46.09588" lon="3.26131">
        <ele>345.8</ele>
        <time>2024-04-14T09:16:47Z</time>
      </trkpt>
      <trkpt lat="46.09583" lon="3.26133">
        <ele>345.8</ele>
        <time>2024-04-14T09:16:48Z</time>
      </trkpt>
      <trkpt lat="46.09578" lon="3.26135">
        <ele>346</ele>
        <time>2024-04-14T09:16:49Z</time>
      </trkpt>
      <trkpt lat="46.09573" lon="3.26136">
        <ele>346</ele>
        <time>2024-04-14T09:16:50Z</time>
      </trkpt>
      <trkpt lat="46.09567" lon="3.26138">
        <ele>346</ele>
        <time>2024-04-14T09:16:51Z</time>
      </trkpt>
      <trkpt lat="46.09562" lon="3.2614">
        <ele>346.2</ele>
        <time>2024-04-14T09:16:52Z</time>
      </trkpt>
      <trkpt lat="46.09557" lon="3.26141">
        <ele>346.2</ele>
        <time>2024-04-14T09:16:53Z</time>
      </trkpt>
      <trkpt lat="46.09552" lon="3.26143">
        <ele>346.4</ele>
        <time>2024-04-14T09:16:54Z</time>
      </trkpt>
      <trkpt lat="46.09546" lon="3.26145">
        <ele>346.4</ele>
        <time>2024-04-14T09:16:55Z</time>
      </trkpt>
      <trkpt lat="46.09541" lon="3.26147">
        <ele>346.4</ele>
        <time>2024-04-14T09:16:56Z</time>
      </trkpt>
      <trkpt lat="46.09536" lon="3.26148">
        <ele>346.4</ele>
        <time>2024-04-14T09:16:57Z</time>
      </trkpt>
      <trkpt lat="46.0953" lon="3.2615">
        <ele>346.6</ele>
        <time>2024-04-14T09:16:58Z</time>
      </trkpt>
      <trkpt lat="46.09525" lon="3.26152">
        <ele>346.6</ele>
        <time>2024-04-14T09:16:59Z</time>
      </trkpt>
      <trkpt lat="46.0952" lon="3.26153">
        <ele>346.6</ele>
        <time>2024-04-14T09:17:00Z</time>
      </trkpt>
      <trkpt lat="46.09515" lon="3.26155">
        <ele>346.8</ele>
        <time>2024-04-14T09:17:01Z</time>
      </trkpt>
      <trkpt lat="46.0951" lon="3.26156">
        <ele>346.8</ele>
        <time>2024-04-14T09:17:02Z</time>
      </trkpt>
      <trkpt lat="46.09506" lon="3.26158">
        <ele>347</ele>
        <time>2024-04-14T09:17:03Z</time>
      </trkpt>
      <trkpt lat="46.09501" lon="3.26159">
        <ele>347</ele>
        <time>2024-04-14T09:17:04Z</time>
      </trkpt>
      <trkpt lat="46.09496" lon="3.26161">
        <ele>347</ele>
        <time>2024-04-14T09:17:05Z</time>
      </trkpt>
      <trkpt lat="46.09491" lon="3.26162">
        <ele>347.2</ele>
        <time>2024-04-14T09:17:06Z</time>
      </trkpt>
      <trkpt lat="46.09487" lon="3.26164">
        <ele>347.2</ele>
        <time>2024-04-14T09:17:07Z</time>
      </trkpt>
      <trkpt lat="46.09482" lon="3.26165">
        <ele>347.2</ele>
        <time>2024-04-14T09:17:08Z</time>
      </trkpt>
      <trkpt lat="46.09478" lon="3.26167">
        <ele>347.4</ele>
        <time>2024-04-14T09:17:09Z</time>
      </trkpt>
      <trkpt lat="46.09473" lon="3.26168">
        <ele>347.4</ele>
        <time>2024-04-14T09:17:10Z</time>
      </trkpt>
      <trkpt lat="46.09468" lon="3.2617">
        <ele>347.6</ele>
        <time>2024-04-14T09:17:11Z</time>
      </trkpt>
      <trkpt lat="46.09464" lon="3.26171">
        <ele>347.6</ele>
        <time>2024-04-14T09:17:12Z</time>
      </trkpt>
      <trkpt lat="46.0946" lon="3.26173">
        <ele>347.6</ele>
        <time>2024-04-14T09:17:13Z</time>
      </trkpt>
      <trkpt lat="46.09455" lon="3.26174">
        <ele>347.8</ele>
        <time>2024-04-14T09:17:14Z</time>
      </trkpt>
      <trkpt lat="46.0945" lon="3.26176">
        <ele>347.8</ele>
        <time>2024-04-14T09:17:15Z</time>
      </trkpt>
      <trkpt lat="46.09446" lon="3.26177">
        <ele>348</ele>
        <time>2024-04-14T09:17:16Z</time>
      </trkpt>
      <trkpt lat="46.09442" lon="3.26178">
        <ele>348</ele>
        <time>2024-04-14T09:17:17Z</time>
      </trkpt>
      <trkpt lat="46.09437" lon="3.2618">
        <ele>348</ele>
        <time>2024-04-14T09:17:18Z</time>
      </trkpt>
      <trkpt lat="46.09433" lon="3.26181">
        <ele>348.2</ele>
        <time>2024-04-14T09:17:19Z</time>
      </trkpt>
      <trkpt lat="46.09428" lon="3.26183">
        <ele>348.2</ele>
        <time>2024-04-14T09:17:20Z</time>
      </trkpt>
      <trkpt lat="46.09424" lon="3.26184">
        <ele>348.4</ele>
        <time>2024-04-14T09:17:21Z</time>
      </trkpt>
      <trkpt lat="46.0942" lon="3.26186">
        <ele>348.4</ele>
        <time>2024-04-14T09:17:22Z</time>
      </trkpt>
      <trkpt lat="46.09415" lon="3.26187">
        <ele>348.4</ele>
        <time>2024-04-14T09:17:23Z</time>
      </trkpt>
      <trkpt lat="46.09411" lon="3.26188">
        <ele>348.6</ele>
        <time>2024-04-14T09:17:24Z</time>
      </trkpt>
      <trkpt lat="46.09407" lon="3.2619">
        <ele>348.6</ele>
        <time>2024-04-14T09:17:25Z</time>
      </trkpt>
      <trkpt lat="46.09403" lon="3.26191">
        <ele>348.8</ele>
        <time>2024-04-14T09:17:26Z</time>
      </trkpt>
      <trkpt lat="46.09399" lon="3.26192">
        <ele>349</ele>
        <time>2024-04-14T09:17:27Z</time>
      </trkpt>
      <trkpt lat="46.09394" lon="3.26194">
        <ele>349</ele>
        <time>2024-04-14T09:17:28Z</time>
      </trkpt>
      <trkpt lat="46.0939" lon="3.26195">
        <ele>349</ele>
        <time>2024-04-14T09:17:29Z</time>
      </trkpt>
      <trkpt lat="46.09386" lon="3.26197">
        <ele>349.2</ele>
        <time>2024-04-14T09:17:30Z</time>
      </trkpt>
      <trkpt lat="46.09381" lon="3.26198">
        <ele>349.2</ele>
        <time>2024-04-14T09:17:31Z</time>
      </trkpt>
      <trkpt lat="46.09377" lon="3.26199">
        <ele>349.4</ele>
        <time>2024-04-14T09:17:32Z</time>
      </trkpt>
      <trkpt lat="46.09373" lon="3.26201">
        <ele>349.6</ele>
        <time>2024-04-14T09:17:33Z</time>
      </trkpt>
      <trkpt lat="46.09369" lon="3.26202">
        <ele>349.6</ele>
        <time>2024-04-14T09:17:34Z</time>
      </trkpt>
      <trkpt lat="46.09366" lon="3.26205">
        <ele>349.8</ele>
        <time>2024-04-14T09:17:35Z</time>
      </trkpt>
      <trkpt lat="46.09362" lon="3.26209">
        <ele>349.8</ele>
        <time>2024-04-14T09:17:36Z</time>
      </trkpt>
      <trkpt lat="46.09358" lon="3.26213">
        <ele>349.8</ele>
        <time>2024-04-14T09:17:37Z</time>
      </trkpt>
      <trkpt lat="46.09355" lon="3.26216">
        <ele>350</ele>
        <time>2024-04-14T09:17:38Z</time>
      </trkpt>
      <trkpt lat="46.09351" lon="3.2622">
        <ele>350</ele>
        <time>2024-04-14T09:17:39Z</time>
      </trkpt>
      <trkpt lat="46.09347" lon="3.26224">
        <ele>350.2</ele>
        <time>2024-04-14T09:17:40Z</time>
      </trkpt>
      <trkpt lat="46.09343" lon="3.26228">
        <ele>350.2</ele>
        <time>2024-04-14T09:17:41Z</time>
      </trkpt>
      <trkpt lat="46.09339" lon="3.26231">
        <ele>350.4</ele>
        <time>2024-04-14T09:17:42Z</time>
      </trkpt>
      <trkpt lat="46.09335" lon="3.26235">
        <ele>350.4</ele>
        <time>2024-04-14T09:17:43Z</time>
      </trkpt>
      <trkpt lat="46.09331" lon="3.26239">
        <ele>350.6</ele>
        <time>2024-04-14T09:17:44Z</time>
      </trkpt>
      <trkpt lat="46.09327" lon="3.26243">
        <ele>350.6</ele>
        <time>2024-04-14T09:17:45Z</time>
      </trkpt>
      <trkpt lat="46.09323" lon="3.26247">
        <ele>350.8</ele>
        <time>2024-04-14T09:17:46Z</time>
      </trkpt>
      <trkpt lat="46.09319" lon="3.26251">
        <ele>350.8</ele>
        <time>2024-04-14T09:17:47Z</time>
      </trkpt>
      <trkpt lat="46.09314" lon="3.26255">
        <ele>351</ele>
        <time>2024-04-14T09:17:48Z</time>
      </trkpt>
      <trkpt lat="46.0931" lon="3.26259">
        <ele>351</ele>
        <time>2024-04-14T09:17:49Z</time>
      </trkpt>
      <trkpt lat="46.09306" lon="3.26264">
        <ele>351.2</ele>
        <time>2024-04-14T09:17:50Z</time>
      </trkpt>
      <trkpt lat="46.09302" lon="3.26268">
        <ele>351.4</ele>
        <time>2024-04-14T09:17:51Z</time>
      </trkpt>
      <trkpt lat="46.09297" lon="3.26272">
        <ele>351.4</ele>
        <time>2024-04-14T09:17:52Z</time>
      </trkpt>
      <trkpt lat="46.09293" lon="3.26276">
        <ele>351.6</ele>
        <time>2024-04-14T09:17:53Z</time>
      </trkpt>
      <trkpt lat="46.09288" lon="3.26281">
        <ele>351.6</ele>
        <time>2024-04-14T09:17:54Z</time>
      </trkpt>
      <trkpt lat="46.09284" lon="3.26285">
        <ele>351.8</ele>
        <time>2024-04-14T09:17:55Z</time>
      </trkpt>
      <trkpt lat="46.0928" lon="3.26289">
        <ele>352</ele>
        <time>2024-04-14T09:17:56Z</time>
      </trkpt>
      <trkpt lat="46.09275" lon="3.26293">
        <ele>352</ele>
        <time>2024-04-14T09:17:57Z</time>
      </trkpt>
      <trkpt lat="46.09271" lon="3.26297">
        <ele>352.2</ele>
        <time>2024-04-14T09:17:58Z</time>
      </trkpt>
      <trkpt lat="46.09266" lon="3.26302">
        <ele>352.2</ele>
        <time>2024-04-14T09:17:59Z</time>
      </trkpt>
      <trkpt lat="46.09262" lon="3.26306">
        <ele>352.2</ele>
        <time>2024-04-14T09:18:00Z</time>
      </trkpt>
      <trkpt lat="46.09258" lon="3.2631">
        <ele>352.4</ele>
        <time>2024-04-14T09:18:01Z</time>
      </trkpt>
      <trkpt lat="46.09253" lon="3.26315">
        <ele>352.4</ele>
        <time>2024-04-14T09:18:02Z</time>
      </trkpt>
      <trkpt lat="46.09248" lon="3.26319">
        <ele>352.6</ele>
        <time>2024-04-14T09:18:03Z</time>
      </trkpt>
      <trkpt lat="46.09244" lon="3.26324">
        <ele>352.6</ele>
        <time>2024-04-14T09:18:04Z</time>
      </trkpt>
      <trkpt lat="46.09239" lon="3.26328">
        <ele>352.8</ele>
        <time>2024-04-14T09:18:05Z</time>
      </trkpt>
      <trkpt lat="46.09234" lon="3.26333">
        <ele>352.8</ele>
        <time>2024-04-14T09:18:06Z</time>
      </trkpt>
      <trkpt lat="46.0923" lon="3.26337">
        <ele>353</ele>
        <time>2024-04-14T09:18:07Z</time>
      </trkpt>
      <trkpt lat="46.09225" lon="3.26341">
        <ele>353</ele>
        <time>2024-04-14T09:18:08Z</time>
      </trkpt>
      <trkpt lat="46.0922" lon="3.26345">
        <ele>353.2</ele>
        <time>2024-04-14T09:18:09Z</time>
      </trkpt>
      <trkpt lat="46.09214" lon="3.26349">
        <ele>353.2</ele>
        <time>2024-04-14T09:18:10Z</time>
      </trkpt>
      <trkpt lat="46.09209" lon="3.26353">
        <ele>353.4</ele>
        <time>2024-04-14T09:18:11Z</time>
      </trkpt>
      <trkpt lat="46.09204" lon="3.26356">
        <ele>353.4</ele>
        <time>2024-04-14T09:18:12Z</time>
      </trkpt>
      <trkpt lat="46.09199" lon="3.2636">
        <ele>353.6</ele>
        <time>2024-04-14T09:18:13Z</time>
      </trkpt>
      <trkpt lat="46.09194" lon="3.26364">
        <ele>353.6</ele>
        <time>2024-04-14T09:18:14Z</time>
      </trkpt>
      <trkpt lat="46.09189" lon="3.26367">
        <ele>353.8</ele>
        <time>2024-04-14T09:18:15Z</time>
      </trkpt>
      <trkpt lat="46.09183" lon="3.26371">
        <ele>353.8</ele>
        <time>2024-04-14T09:18:16Z</time>
      </trkpt>
      <trkpt lat="46.09178" lon="3.26375">
        <ele>354</ele>
        <time>2024-04-14T09:18:17Z</time>
      </trkpt>
      <trkpt lat="46.09173" lon="3.26379">
        <ele>354</ele>
        <time>2024-04-14T09:18:18Z</time>
      </trkpt>
      <trkpt lat="46.09167" lon="3.26383">
        <ele>354.2</ele>
        <time>2024-04-14T09:18:19Z</time>
      </trkpt>
      <trkpt lat="46.09162" lon="3.26387">
        <ele>354.2</ele>
        <time>2024-04-14T09:18:20Z</time>
      </trkpt>
      <trkpt lat="46.09156" lon="3.26391">
        <ele>354.4</ele>
        <time>2024-04-14T09:18:21Z</time>
      </trkpt>
      <trkpt lat="46.09151" lon="3.26395">
        <ele>354.4</ele>
        <time>2024-04-14T09:18:22Z</time>
      </trkpt>
      <trkpt lat="46.09146" lon="3.26398">
        <ele>354.6</ele>
        <time>2024-04-14T09:18:23Z</time>
      </trkpt>
      <trkpt lat="46.09141" lon="3.26402">
        <ele>354.6</ele>
        <time>2024-04-14T09:18:24Z</time>
      </trkpt>
      <trkpt lat="46.09136" lon="3.26406">
        <ele>354.6</ele>
        <time>2024-04-14T09:18:25Z</time>
      </trkpt>
      <trkpt lat="46.09131" lon="3.2641">
        <ele>354.8</ele>
        <time>2024-04-14T09:18:26Z</time>
      </trkpt>
      <trkpt lat="46.09125" lon="3.26413">
        <ele>354.8</ele>
        <time>2024-04-14T09:18:27Z</time>
      </trkpt>
      <trkpt lat="46.0912" lon="3.26417">
        <ele>355</ele>
        <time>2024-04-14T09:18:28Z</time>
      </trkpt>
      <trkpt lat="46.09114" lon="3.26421">
        <ele>355</ele>
        <time>2024-04-14T09:18:29Z</time>
      </trkpt>
      <trkpt lat="46.09109" lon="3.26425">
        <ele>355</ele>
        <time>2024-04-14T09:18:30Z</time>
      </trkpt>
      <trkpt lat="46.09104" lon="3.26429">
        <ele>355.2</ele>
        <time>2024-04-14T09:18:31Z</time>
      </trkpt>
      <trkpt lat="46.09098" lon="3.26433">
        <ele>355.2</ele>
        <time>2024-04-14T09:18:32Z</time>
      </trkpt>
      <trkpt lat="46.09093" lon="3.26437">
        <ele>355.4</ele>
        <time>2024-04-14T09:18:33Z</time>
      </trkpt>
      <trkpt lat="46.09088" lon="3.26441">
        <ele>355.4</ele>
        <time>2024-04-14T09:18:34Z</time>
      </trkpt>
      <trkpt lat="46.09082" lon="3.26445">
        <ele>355.4</ele>
        <time>2024-04-14T09:18:35Z</time>
      </trkpt>
      <trkpt lat="46.09076" lon="3.26449">
        <ele>355.6</ele>
        <time>2024-04-14T09:18:36Z</time>
      </trkpt>
      <trkpt lat="46.09071" lon="3.26453">
        <ele>355.6</ele>
        <time>2024-04-14T09:18:37Z</time>
      </trkpt>
      <trkpt lat="46.09065" lon="3.26457">
        <ele>355.8</ele>
        <time>2024-04-14T09:18:38Z</time>
      </trkpt>
      <trkpt lat="46.0906" lon="3.26461">
        <ele>355.8</ele>
        <time>2024-04-14T09:18:39Z</time>
      </trkpt>
      <trkpt lat="46.09054" lon="3.26465">
        <ele>356</ele>
        <time>2024-04-14T09:18:40Z</time>
      </trkpt>
      <trkpt lat="46.09049" lon="3.26469">
        <ele>356</ele>
        <time>2024-04-14T09:18:41Z</time>
      </trkpt>
      <trkpt lat="46.09043" lon="3.26473">
        <ele>356</ele>
        <time>2024-04-14T09:18:42Z</time>
      </trkpt>
      <trkpt lat="46.09037" lon="3.26477">
        <ele>356</ele>
        <time>2024-04-14T09:18:43Z</time>
      </trkpt>
      <trkpt lat="46.09032" lon="3.26481">
        <ele>356.2</ele>
        <time>2024-04-14T09:18:44Z</time>
      </trkpt>
      <trkpt lat="46.09026" lon="3.26485">
        <ele>356.2</ele>
        <time>2024-04-14T09:18:45Z</time>
      </trkpt>
      <trkpt lat="46.09021" lon="3.26489">
        <ele>356.4</ele>
        <time>2024-04-14T09:18:46Z</time>
      </trkpt>
      <trkpt lat="46.09015" lon="3.26493">
        <ele>356.4</ele>
        <time>2024-04-14T09:18:47Z</time>
      </trkpt>
      <trkpt lat="46.0901" lon="3.26497">
        <ele>356.4</ele>
        <time>2024-04-14T09:18:48Z</time>
      </trkpt>
      <trkpt lat="46.09004" lon="3.26501">
        <ele>356.6</ele>
        <time>2024-04-14T09:18:49Z</time>
      </trkpt>
      <trkpt lat="46.08998" lon="3.26506">
        <ele>356.6</ele>
        <time>2024-04-14T09:18:50Z</time>
      </trkpt>
      <trkpt lat="46.08992" lon="3.2651">
        <ele>356.6</ele>
        <time>2024-04-14T09:18:51Z</time>
      </trkpt>
      <trkpt lat="46.08986" lon="3.26514">
        <ele>356.8</ele>
        <time>2024-04-14T09:18:52Z</time>
      </trkpt>
      <trkpt lat="46.0898" lon="3.26518">
        <ele>356.8</ele>
        <time>2024-04-14T09:18:53Z</time>
      </trkpt>
      <trkpt lat="46.08974" lon="3.26523">
        <ele>356.8</ele>
        <time>2024-04-14T09:18:54Z</time>
      </trkpt>
      <trkpt lat="46.08969" lon="3.26527">
        <ele>356.8</ele>
        <time>2024-04-14T09:18:55Z</time>
      </trkpt>
      <trkpt lat="46.08962" lon="3.26532">
        <ele>357</ele>
        <time>2024-04-14T09:18:56Z</time>
      </trkpt>
      <trkpt lat="46.08957" lon="3.26538">
        <ele>357</ele>
        <time>2024-04-14T09:18:57Z</time>
      </trkpt>
      <trkpt lat="46.08952" lon="3.26544">
        <ele>357</ele>
        <time>2024-04-14T09:18:58Z</time>
      </trkpt>
      <trkpt lat="46.08947" lon="3.2655">
        <ele>357.2</ele>
        <time>2024-04-14T09:18:59Z</time>
      </trkpt>
      <trkpt lat="46.08942" lon="3.26556">
        <ele>357.2</ele>
        <time>2024-04-14T09:19:00Z</time>
      </trkpt>
      <trkpt lat="46.08936" lon="3.26563">
        <ele>357.2</ele>
        <time>2024-04-14T09:19:01Z</time>
      </trkpt>
      <trkpt lat="46.08931" lon="3.26569">
        <ele>357.2</ele>
        <time>2024-04-14T09:19:02Z</time>
      </trkpt>
      <trkpt lat="46.08926" lon="3.26575">
        <ele>357.2</ele>
        <time>2024-04-14T09:19:03Z</time>
      </trkpt>
      <trkpt lat="46.0892" lon="3.26581">
        <ele>357.4</ele>
        <time>2024-04-14T09:19:04Z</time>
      </trkpt>
      <trkpt lat="46.08915" lon="3.26587">
        <ele>357.4</ele>
        <time>2024-04-14T09:19:05Z</time>
      </trkpt>
      <trkpt lat="46.0891" lon="3.26594">
        <ele>357.4</ele>
        <time>2024-04-14T09:19:06Z</time>
      </trkpt>
      <trkpt lat="46.08905" lon="3.266">
        <ele>357.4</ele>
        <time>2024-04-14T09:19:07Z</time>
      </trkpt>
      <trkpt lat="46.08899" lon="3.26606">
        <ele>357.4</ele>
        <time>2024-04-14T09:19:08Z</time>
      </trkpt>
      <trkpt lat="46.08894" lon="3.26612">
        <ele>357.4</ele>
        <time>2024-04-14T09:19:09Z</time>
      </trkpt>
      <trkpt lat="46.08889" lon="3.26618">
        <ele>357.4</ele>
        <time>2024-04-14T09:19:10Z</time>
      </trkpt>
      <trkpt lat="46.08884" lon="3.26624">
        <ele>357.4</ele>
        <time>2024-04-14T09:19:11Z</time>
      </trkpt>
      <trkpt lat="46.08879" lon="3.2663">
        <ele>357.6</ele>
        <time>2024-04-14T09:19:12Z</time>
      </trkpt>
      <trkpt lat="46.08874" lon="3.26637">
        <ele>357.6</ele>
        <time>2024-04-14T09:19:13Z</time>
      </trkpt>
      <trkpt lat="46.08869" lon="3.26644">
        <ele>357.6</ele>
        <time>2024-04-14T09:19:14Z</time>
      </trkpt>
      <trkpt lat="46.08864" lon="3.26651">
        <ele>357.6</ele>
        <time>2024-04-14T09:19:15Z</time>
      </trkpt>
      <trkpt lat="46.08859" lon="3.26658">
        <ele>357.6</ele>
        <time>2024-04-14T09:19:16Z</time>
      </trkpt>
      <trkpt lat="46.08853" lon="3.26664">
        <ele>357.6</ele>
        <time>2024-04-14T09:19:17Z</time>
      </trkpt>
      <trkpt lat="46.08848" lon="3.26671">
        <ele>357.6</ele>
        <time>2024-04-14T09:19:18Z</time>
      </trkpt>
      <trkpt lat="46.08843" lon="3.26678">
        <ele>357.6</ele>
        <time>2024-04-14T09:19:19Z</time>
      </trkpt>
      <trkpt lat="46.08837" lon="3.26685">
        <ele>357.6</ele>
        <time>2024-04-14T09:19:20Z</time>
      </trkpt>
      <trkpt lat="46.08832" lon="3.26692">
        <ele>357.6</ele>
        <time>2024-04-14T09:19:21Z</time>
      </trkpt>
      <trkpt lat="46.08826" lon="3.26699">
        <ele>357.6</ele>
        <time>2024-04-14T09:19:22Z</time>
      </trkpt>
      <trkpt lat="46.08821" lon="3.26706">
        <ele>357.6</ele>
        <time>2024-04-14T09:19:23Z</time>
      </trkpt>
      <trkpt lat="46.08816" lon="3.26713">
        <ele>357.6</ele>
        <time>2024-04-14T09:19:24Z</time>
      </trkpt>
      <trkpt lat="46.0881" lon="3.2672">
        <ele>357.6</ele>
        <time>2024-04-14T09:19:25Z</time>
      </trkpt>
      <trkpt lat="46.08805" lon="3.26727">
        <ele>357.6</ele>
        <time>2024-04-14T09:19:26Z</time>
      </trkpt>
      <trkpt lat="46.08799" lon="3.26734">
        <ele>357.6</ele>
        <time>2024-04-14T09:19:27Z</time>
      </trkpt>
      <trkpt lat="46.08794" lon="3.26741">
        <ele>357.6</ele>
        <time>2024-04-14T09:19:28Z</time>
      </trkpt>
      <trkpt lat="46.08788" lon="3.26748">
        <ele>357.6</ele>
        <time>2024-04-14T09:19:29Z</time>
      </trkpt>
      <trkpt lat="46.08783" lon="3.26755">
        <ele>357.6</ele>
        <time>2024-04-14T09:19:30Z</time>
      </trkpt>
      <trkpt lat="46.08777" lon="3.26762">
        <ele>357.6</ele>
        <time>2024-04-14T09:19:31Z</time>
      </trkpt>
      <trkpt lat="46.08772" lon="3.26769">
        <ele>357.6</ele>
        <time>2024-04-14T09:19:32Z</time>
      </trkpt>
      <trkpt lat="46.08766" lon="3.26776">
        <ele>357.6</ele>
        <time>2024-04-14T09:19:33Z</time>
      </trkpt>
      <trkpt lat="46.08761" lon="3.26783">
        <ele>357.6</ele>
        <time>2024-04-14T09:19:34Z</time>
      </trkpt>
      <trkpt lat="46.08756" lon="3.2679">
        <ele>357.6</ele>
        <time>2024-04-14T09:19:35Z</time>
      </trkpt>
      <trkpt lat="46.0875" lon="3.26797">
        <ele>357.4</ele>
        <time>2024-04-14T09:19:36Z</time>
      </trkpt>
      <trkpt lat="46.08745" lon="3.26803">
        <ele>357.4</ele>
        <time>2024-04-14T09:19:37Z</time>
      </trkpt>
      <trkpt lat="46.0874" lon="3.2681">
        <ele>357.4</ele>
        <time>2024-04-14T09:19:38Z</time>
      </trkpt>
      <trkpt lat="46.08734" lon="3.26817">
        <ele>357.4</ele>
        <time>2024-04-14T09:19:39Z</time>
      </trkpt>
      <trkpt lat="46.08729" lon="3.26824">
        <ele>357.4</ele>
        <time>2024-04-14T09:19:40Z</time>
      </trkpt>
      <trkpt lat="46.08723" lon="3.26831">
        <ele>357.2</ele>
        <time>2024-04-14T09:19:41Z</time>
      </trkpt>
      <trkpt lat="46.08716" lon="3.26835">
        <ele>357.2</ele>
        <time>2024-04-14T09:19:42Z</time>
      </trkpt>
      <trkpt lat="46.08709" lon="3.26838">
        <ele>357.2</ele>
        <time>2024-04-14T09:19:43Z</time>
      </trkpt>
      <trkpt lat="46.08702" lon="3.26842">
        <ele>357.2</ele>
        <time>2024-04-14T09:19:44Z</time>
      </trkpt>
      <trkpt lat="46.08695" lon="3.26845">
        <ele>357.2</ele>
        <time>2024-04-14T09:19:45Z</time>
      </trkpt>
      <trkpt lat="46.08688" lon="3.26849">
        <ele>357.2</ele>
        <time>2024-04-14T09:19:46Z</time>
      </trkpt>
      <trkpt lat="46.08682" lon="3.26852">
        <ele>357</ele>
        <time>2024-04-14T09:19:47Z</time>
      </trkpt>
      <trkpt lat="46.08675" lon="3.26855">
        <ele>357</ele>
        <time>2024-04-14T09:19:48Z</time>
      </trkpt>
      <trkpt lat="46.08669" lon="3.26859">
        <ele>357</ele>
        <time>2024-04-14T09:19:49Z</time>
      </trkpt>
      <trkpt lat="46.08662" lon="3.26862">
        <ele>357</ele>
        <time>2024-04-14T09:19:50Z</time>
      </trkpt>
      <trkpt lat="46.08656" lon="3.26865">
        <ele>357</ele>
        <time>2024-04-14T09:19:51Z</time>
      </trkpt>
      <trkpt lat="46.08649" lon="3.26869">
        <ele>357</ele>
        <time>2024-04-14T09:19:52Z</time>
      </trkpt>
      <trkpt lat="46.08643" lon="3.26872">
        <ele>357</ele>
        <time>2024-04-14T09:19:53Z</time>
      </trkpt>
      <trkpt lat="46.08636" lon="3.26876">
        <ele>357</ele>
        <time>2024-04-14T09:19:54Z</time>
      </trkpt>
      <trkpt lat="46.0863" lon="3.26879">
        <ele>357</ele>
        <time>2024-04-14T09:19:55Z</time>
      </trkpt>
      <trkpt lat="46.08623" lon="3.26882">
        <ele>357</ele>
        <time>2024-04-14T09:19:56Z</time>
      </trkpt>
      <trkpt lat="46.08617" lon="3.26886">
        <ele>357</ele>
        <time>2024-04-14T09:19:57Z</time>
      </trkpt>
      <trkpt lat="46.0861" lon="3.26889">
        <ele>356.8</ele>
        <time>2024-04-14T09:19:58Z</time>
      </trkpt>
      <trkpt lat="46.08603" lon="3.26892">
        <ele>356.8</ele>
        <time>2024-04-14T09:19:59Z</time>
      </trkpt>
      <trkpt lat="46.08597" lon="3.26896">
        <ele>356.8</ele>
        <time>2024-04-14T09:20:00Z</time>
      </trkpt>
      <trkpt lat="46.0859" lon="3.26899">
        <ele>356.8</ele>
        <time>2024-04-14T09:20:01Z</time>
      </trkpt>
      <trkpt lat="46.08584" lon="3.26903">
        <ele>356.8</ele>
        <time>2024-04-14T09:20:02Z</time>
      </trkpt>
      <trkpt lat="46.08577" lon="3.26906">
        <ele>356.6</ele>
        <time>2024-04-14T09:20:03Z</time>
      </trkpt>
      <trkpt lat="46.0857" lon="3.26909">
        <ele>356.6</ele>
        <time>2024-04-14T09:20:04Z</time>
      </trkpt>
      <trkpt lat="46.08564" lon="3.26913">
        <ele>356.6</ele>
        <time>2024-04-14T09:20:05Z</time>
      </trkpt>
      <trkpt lat="46.08558" lon="3.26916">
        <ele>356.6</ele>
        <time>2024-04-14T09:20:06Z</time>
      </trkpt>
      <trkpt lat="46.08552" lon="3.26919">
        <ele>356.6</ele>
        <time>2024-04-14T09:20:07Z</time>
      </trkpt>
      <trkpt lat="46.08545" lon="3.26922">
        <ele>356.6</ele>
        <time>2024-04-14T09:20:08Z</time>
      </trkpt>
      <trkpt lat="46.08539" lon="3.26926">
        <ele>356.6</ele>
        <time>2024-04-14T09:20:09Z</time>
      </trkpt>
      <trkpt lat="46.08533" lon="3.26929">
        <ele>356.6</ele>
        <time>2024-04-14T09:20:10Z</time>
      </trkpt>
      <trkpt lat="46.08527" lon="3.26932">
        <ele>356.6</ele>
        <time>2024-04-14T09:20:11Z</time>
      </trkpt>
      <trkpt lat="46.08521" lon="3.26935">
        <ele>356.6</ele>
        <time>2024-04-14T09:20:12Z</time>
      </trkpt>
      <trkpt lat="46.08514" lon="3.26938">
        <ele>356.6</ele>
        <time>2024-04-14T09:20:13Z</time>
      </trkpt>
      <trkpt lat="46.08508" lon="3.26942">
        <ele>356.6</ele>
        <time>2024-04-14T09:20:14Z</time>
      </trkpt>
      <trkpt lat="46.08503" lon="3.26944">
        <ele>356.6</ele>
        <time>2024-04-14T09:20:15Z</time>
      </trkpt>
      <trkpt lat="46.08496" lon="3.26948">
        <ele>356.6</ele>
        <time>2024-04-14T09:20:16Z</time>
      </trkpt>
      <trkpt lat="46.08491" lon="3.26951">
        <ele>356.4</ele>
        <time>2024-04-14T09:20:17Z</time>
      </trkpt>
      <trkpt lat="46.08485" lon="3.26954">
        <ele>356.4</ele>
        <time>2024-04-14T09:20:18Z</time>
      </trkpt>
      <trkpt lat="46.08479" lon="3.26957">
        <ele>356.4</ele>
        <time>2024-04-14T09:20:19Z</time>
      </trkpt>
      <trkpt lat="46.08473" lon="3.2696">
        <ele>356.4</ele>
        <time>2024-04-14T09:20:20Z</time>
      </trkpt>
      <trkpt lat="46.08467" lon="3.26963">
        <ele>356.4</ele>
        <time>2024-04-14T09:20:21Z</time>
      </trkpt>
      <trkpt lat="46.08461" lon="3.26966">
        <ele>356.4</ele>
        <time>2024-04-14T09:20:22Z</time>
      </trkpt>
      <trkpt lat="46.08455" lon="3.26969">
        <ele>356.4</ele>
        <time>2024-04-14T09:20:23Z</time>
      </trkpt>
      <trkpt lat="46.08449" lon="3.26972">
        <ele>356.4</ele>
        <time>2024-04-14T09:20:24Z</time>
      </trkpt>
      <trkpt lat="46.08443" lon="3.26975">
        <ele>356.4</ele>
        <time>2024-04-14T09:20:25Z</time>
      </trkpt>
      <trkpt lat="46.08443" lon="3.26975">
        <ele>356.4</ele>
        <time>2024-04-14T09:20:26Z</time>
      </trkpt>
      <trkpt lat="46.08437" lon="3.26978">
        <ele>356.4</ele>
        <time>2024-04-14T09:20:27Z</time>
      </trkpt>
      <trkpt lat="46.08425" lon="3.26985">
        <ele>356.4</ele>
        <time>2024-04-14T09:20:28Z</time>
      </trkpt>
      <trkpt lat="46.08419" lon="3.26987">
        <ele>356.4</ele>
        <time>2024-04-14T09:20:29Z</time>
      </trkpt>
      <trkpt lat="46.08413" lon="3.26991">
        <ele>356.4</ele>
        <time>2024-04-14T09:20:30Z</time>
      </trkpt>
      <trkpt lat="46.08407" lon="3.26994">
        <ele>356.4</ele>
        <time>2024-04-14T09:20:31Z</time>
      </trkpt>
      <trkpt lat="46.08402" lon="3.26997">
        <ele>356.4</ele>
        <time>2024-04-14T09:20:32Z</time>
      </trkpt>
      <trkpt lat="46.08396" lon="3.27">
        <ele>356.6</ele>
        <time>2024-04-14T09:20:33Z</time>
      </trkpt>
      <trkpt lat="46.0839" lon="3.27003">
        <ele>356.6</ele>
        <time>2024-04-14T09:20:34Z</time>
      </trkpt>
      <trkpt lat="46.08384" lon="3.27006">
        <ele>356.6</ele>
        <time>2024-04-14T09:20:35Z</time>
      </trkpt>
      <trkpt lat="46.08378" lon="3.27009">
        <ele>356.6</ele>
        <time>2024-04-14T09:20:36Z</time>
      </trkpt>
      <trkpt lat="46.08373" lon="3.27011">
        <ele>356.6</ele>
        <time>2024-04-14T09:20:37Z</time>
      </trkpt>
      <trkpt lat="46.08367" lon="3.27014">
        <ele>356.6</ele>
        <time>2024-04-14T09:20:38Z</time>
      </trkpt>
      <trkpt lat="46.08362" lon="3.27017">
        <ele>356.6</ele>
        <time>2024-04-14T09:20:39Z</time>
      </trkpt>
      <trkpt lat="46.08356" lon="3.2702">
        <ele>356.8</ele>
        <time>2024-04-14T09:20:40Z</time>
      </trkpt>
      <trkpt lat="46.0835" lon="3.27023">
        <ele>356.8</ele>
        <time>2024-04-14T09:20:41Z</time>
      </trkpt>
      <trkpt lat="46.08344" lon="3.27026">
        <ele>356.8</ele>
        <time>2024-04-14T09:20:42Z</time>
      </trkpt>
      <trkpt lat="46.08337" lon="3.27029">
        <ele>356.8</ele>
        <time>2024-04-14T09:20:43Z</time>
      </trkpt>
      <trkpt lat="46.08331" lon="3.27032">
        <ele>356.8</ele>
        <time>2024-04-14T09:20:44Z</time>
      </trkpt>
      <trkpt lat="46.08325" lon="3.27035">
        <ele>356.8</ele>
        <time>2024-04-14T09:20:45Z</time>
      </trkpt>
      <trkpt lat="46.08319" lon="3.27037">
        <ele>356.8</ele>
        <time>2024-04-14T09:20:46Z</time>
      </trkpt>
      <trkpt lat="46.08313" lon="3.2704">
        <ele>356.8</ele>
        <time>2024-04-14T09:20:47Z</time>
      </trkpt>
      <trkpt lat="46.08307" lon="3.27043">
        <ele>356.8</ele>
        <time>2024-04-14T09:20:48Z</time>
      </trkpt>
      <trkpt lat="46.08301" lon="3.27046">
        <ele>356.8</ele>
        <time>2024-04-14T09:20:49Z</time>
      </trkpt>
      <trkpt lat="46.08295" lon="3.27049">
        <ele>356.8</ele>
        <time>2024-04-14T09:20:50Z</time>
      </trkpt>
      <trkpt lat="46.08289" lon="3.27052">
        <ele>356.8</ele>
        <time>2024-04-14T09:20:51Z</time>
      </trkpt>
      <trkpt lat="46.08284" lon="3.27055">
        <ele>356.8</ele>
        <time>2024-04-14T09:20:52Z</time>
      </trkpt>
      <trkpt lat="46.08277" lon="3.27058">
        <ele>356.8</ele>
        <time>2024-04-14T09:20:53Z</time>
      </trkpt>
      <trkpt lat="46.0827" lon="3.27057">
        <ele>356.8</ele>
        <time>2024-04-14T09:20:54Z</time>
      </trkpt>
      <trkpt lat="46.08264" lon="3.27057">
        <ele>356.6</ele>
        <time>2024-04-14T09:20:55Z</time>
      </trkpt>
      <trkpt lat="46.08257" lon="3.27056">
        <ele>356.8</ele>
        <time>2024-04-14T09:20:56Z</time>
      </trkpt>
      <trkpt lat="46.08251" lon="3.27056">
        <ele>356.6</ele>
        <time>2024-04-14T09:20:57Z</time>
      </trkpt>
      <trkpt lat="46.08245" lon="3.27055">
        <ele>356.6</ele>
        <time>2024-04-14T09:20:58Z</time>
      </trkpt>
      <trkpt lat="46.08239" lon="3.27055">
        <ele>356.4</ele>
        <time>2024-04-14T09:20:59Z</time>
      </trkpt>
      <trkpt lat="46.08232" lon="3.27055">
        <ele>356.6</ele>
        <time>2024-04-14T09:21:00Z</time>
      </trkpt>
      <trkpt lat="46.08226" lon="3.27054">
        <ele>356.6</ele>
        <time>2024-04-14T09:21:01Z</time>
      </trkpt>
      <trkpt lat="46.08219" lon="3.27054">
        <ele>356.6</ele>
        <time>2024-04-14T09:21:02Z</time>
      </trkpt>
      <trkpt lat="46.08212" lon="3.27053">
        <ele>356.6</ele>
        <time>2024-04-14T09:21:03Z</time>
      </trkpt>
      <trkpt lat="46.08206" lon="3.27053">
        <ele>356.6</ele>
        <time>2024-04-14T09:21:04Z</time>
      </trkpt>
      <trkpt lat="46.08199" lon="3.27052">
        <ele>356.6</ele>
        <time>2024-04-14T09:21:05Z</time>
      </trkpt>
      <trkpt lat="46.08193" lon="3.27052">
        <ele>356.4</ele>
        <time>2024-04-14T09:21:06Z</time>
      </trkpt>
      <trkpt lat="46.08187" lon="3.27051">
        <ele>356.4</ele>
        <time>2024-04-14T09:21:07Z</time>
      </trkpt>
      <trkpt lat="46.08181" lon="3.27051">
        <ele>356.4</ele>
        <time>2024-04-14T09:21:08Z</time>
      </trkpt>
      <trkpt lat="46.08175" lon="3.2705">
        <ele>356.4</ele>
        <time>2024-04-14T09:21:09Z</time>
      </trkpt>
      <trkpt lat="46.08169" lon="3.2705">
        <ele>356.4</ele>
        <time>2024-04-14T09:21:10Z</time>
      </trkpt>
      <trkpt lat="46.08162" lon="3.27049">
        <ele>356.4</ele>
        <time>2024-04-14T09:21:11Z</time>
      </trkpt>
      <trkpt lat="46.08155" lon="3.27049">
        <ele>356.4</ele>
        <time>2024-04-14T09:21:12Z</time>
      </trkpt>
      <trkpt lat="46.08148" lon="3.27048">
        <ele>356.4</ele>
        <time>2024-04-14T09:21:13Z</time>
      </trkpt>
      <trkpt lat="46.08141" lon="3.27048">
        <ele>356.2</ele>
        <time>2024-04-14T09:21:14Z</time>
      </trkpt>
      <trkpt lat="46.08135" lon="3.27047">
        <ele>356.2</ele>
        <time>2024-04-14T09:21:15Z</time>
      </trkpt>
      <trkpt lat="46.08128" lon="3.27047">
        <ele>356.2</ele>
        <time>2024-04-14T09:21:16Z</time>
      </trkpt>
      <trkpt lat="46.08121" lon="3.27049">
        <ele>356.2</ele>
        <time>2024-04-14T09:21:17Z</time>
      </trkpt>
      <trkpt lat="46.08115" lon="3.2705">
        <ele>356.2</ele>
        <time>2024-04-14T09:21:18Z</time>
      </trkpt>
      <trkpt lat="46.08108" lon="3.27051">
        <ele>356.2</ele>
        <time>2024-04-14T09:21:19Z</time>
      </trkpt>
      <trkpt lat="46.08101" lon="3.27053">
        <ele>356.2</ele>
        <time>2024-04-14T09:21:20Z</time>
      </trkpt>
      <trkpt lat="46.08094" lon="3.27054">
        <ele>356.2</ele>
        <time>2024-04-14T09:21:21Z</time>
      </trkpt>
      <trkpt lat="46.08087" lon="3.27056">
        <ele>356.2</ele>
        <time>2024-04-14T09:21:22Z</time>
      </trkpt>
      <trkpt lat="46.08081" lon="3.27058">
        <ele>356</ele>
        <time>2024-04-14T09:21:23Z</time>
      </trkpt>
      <trkpt lat="46.08074" lon="3.27061">
        <ele>356</ele>
        <time>2024-04-14T09:21:24Z</time>
      </trkpt>
      <trkpt lat="46.08068" lon="3.27063">
        <ele>356</ele>
        <time>2024-04-14T09:21:25Z</time>
      </trkpt>
      <trkpt lat="46.08061" lon="3.27065">
        <ele>356</ele>
        <time>2024-04-14T09:21:26Z</time>
      </trkpt>
      <trkpt lat="46.08055" lon="3.27068">
        <ele>356</ele>
        <time>2024-04-14T09:21:27Z</time>
      </trkpt>
      <trkpt lat="46.08049" lon="3.2707">
        <ele>356</ele>
        <time>2024-04-14T09:21:28Z</time>
      </trkpt>
      <trkpt lat="46.08043" lon="3.27072">
        <ele>356</ele>
        <time>2024-04-14T09:21:29Z</time>
      </trkpt>
      <trkpt lat="46.08037" lon="3.27074">
        <ele>356</ele>
        <time>2024-04-14T09:21:30Z</time>
      </trkpt>
      <trkpt lat="46.08031" lon="3.27076">
        <ele>355.8</ele>
        <time>2024-04-14T09:21:31Z</time>
      </trkpt>
      <trkpt lat="46.08025" lon="3.27078">
        <ele>355.8</ele>
        <time>2024-04-14T09:21:32Z</time>
      </trkpt>
      <trkpt lat="46.08018" lon="3.2708">
        <ele>355.8</ele>
        <time>2024-04-14T09:21:33Z</time>
      </trkpt>
      <trkpt lat="46.08012" lon="3.27082">
        <ele>355.6</ele>
        <time>2024-04-14T09:21:34Z</time>
      </trkpt>
      <trkpt lat="46.08007" lon="3.27084">
        <ele>355.6</ele>
        <time>2024-04-14T09:21:35Z</time>
      </trkpt>
      <trkpt lat="46.08002" lon="3.27085">
        <ele>355.4</ele>
        <time>2024-04-14T09:21:36Z</time>
      </trkpt>
      <trkpt lat="46.07996" lon="3.27087">
        <ele>355.4</ele>
        <time>2024-04-14T09:21:37Z</time>
      </trkpt>
      <trkpt lat="46.0799" lon="3.27089">
        <ele>355.4</ele>
        <time>2024-04-14T09:21:38Z</time>
      </trkpt>
      <trkpt lat="46.07985" lon="3.27091">
        <ele>355.2</ele>
        <time>2024-04-14T09:21:39Z</time>
      </trkpt>
      <trkpt lat="46.07979" lon="3.27092">
        <ele>355.2</ele>
        <time>2024-04-14T09:21:40Z</time>
      </trkpt>
      <trkpt lat="46.07973" lon="3.27093">
        <ele>355.2</ele>
        <time>2024-04-14T09:21:41Z</time>
      </trkpt>
      <trkpt lat="46.07966" lon="3.27094">
        <ele>355.2</ele>
        <time>2024-04-14T09:21:42Z</time>
      </trkpt>
      <trkpt lat="46.0796" lon="3.27095">
        <ele>355.2</ele>
        <time>2024-04-14T09:21:43Z</time>
      </trkpt>
      <trkpt lat="46.07953" lon="3.27096">
        <ele>355</ele>
        <time>2024-04-14T09:21:44Z</time>
      </trkpt>
      <trkpt lat="46.07946" lon="3.27097">
        <ele>355</ele>
        <time>2024-04-14T09:21:45Z</time>
      </trkpt>
      <trkpt lat="46.0794" lon="3.27098">
        <ele>355</ele>
        <time>2024-04-14T09:21:46Z</time>
      </trkpt>
      <trkpt lat="46.07934" lon="3.27099">
        <ele>355</ele>
        <time>2024-04-14T09:21:47Z</time>
      </trkpt>
      <trkpt lat="46.07928" lon="3.271">
        <ele>355</ele>
        <time>2024-04-14T09:21:48Z</time>
      </trkpt>
      <trkpt lat="46.07922" lon="3.27101">
        <ele>355</ele>
        <time>2024-04-14T09:21:49Z</time>
      </trkpt>
      <trkpt lat="46.07916" lon="3.27102">
        <ele>355</ele>
        <time>2024-04-14T09:21:50Z</time>
      </trkpt>
      <trkpt lat="46.0791" lon="3.27103">
        <ele>355</ele>
        <time>2024-04-14T09:21:51Z</time>
      </trkpt>
      <trkpt lat="46.07905" lon="3.27105">
        <ele>355</ele>
        <time>2024-04-14T09:21:52Z</time>
      </trkpt>
      <trkpt lat="46.079" lon="3.27108">
        <ele>355.2</ele>
        <time>2024-04-14T09:21:53Z</time>
      </trkpt>
      <trkpt lat="46.07894" lon="3.27111">
        <ele>355.2</ele>
        <time>2024-04-14T09:21:54Z</time>
      </trkpt>
      <trkpt lat="46.07889" lon="3.27115">
        <ele>355.2</ele>
        <time>2024-04-14T09:21:55Z</time>
      </trkpt>
      <trkpt lat="46.07883" lon="3.2712">
        <ele>355.2</ele>
        <time>2024-04-14T09:21:56Z</time>
      </trkpt>
      <trkpt lat="46.07878" lon="3.27124">
        <ele>355.2</ele>
        <time>2024-04-14T09:21:57Z</time>
      </trkpt>
      <trkpt lat="46.07873" lon="3.27128">
        <ele>355.2</ele>
        <time>2024-04-14T09:21:58Z</time>
      </trkpt>
      <trkpt lat="46.07867" lon="3.27133">
        <ele>355.2</ele>
        <time>2024-04-14T09:21:59Z</time>
      </trkpt>
      <trkpt lat="46.07862" lon="3.27137">
        <ele>354.6</ele>
        <time>2024-04-14T09:22:00Z</time>
      </trkpt>
      <trkpt lat="46.07856" lon="3.27142">
        <ele>355</ele>
        <time>2024-04-14T09:22:01Z</time>
      </trkpt>
      <trkpt lat="46.07851" lon="3.27147">
        <ele>355.2</ele>
        <time>2024-04-14T09:22:02Z</time>
      </trkpt>
      <trkpt lat="46.07846" lon="3.27151">
        <ele>355.4</ele>
        <time>2024-04-14T09:22:03Z</time>
      </trkpt>
      <trkpt lat="46.0784" lon="3.27155">
        <ele>355.4</ele>
        <time>2024-04-14T09:22:04Z</time>
      </trkpt>
      <trkpt lat="46.07835" lon="3.2716">
        <ele>355.4</ele>
        <time>2024-04-14T09:22:05Z</time>
      </trkpt>
      <trkpt lat="46.0783" lon="3.27164">
        <ele>355.4</ele>
        <time>2024-04-14T09:22:06Z</time>
      </trkpt>
      <trkpt lat="46.07825" lon="3.27168">
        <ele>355.4</ele>
        <time>2024-04-14T09:22:07Z</time>
      </trkpt>
      <trkpt lat="46.0782" lon="3.27172">
        <ele>355.4</ele>
        <time>2024-04-14T09:22:08Z</time>
      </trkpt>
      <trkpt lat="46.07815" lon="3.27176">
        <ele>355.4</ele>
        <time>2024-04-14T09:22:09Z</time>
      </trkpt>
      <trkpt lat="46.07811" lon="3.2718">
        <ele>355.4</ele>
        <time>2024-04-14T09:22:10Z</time>
      </trkpt>
      <trkpt lat="46.07806" lon="3.27184">
        <ele>355.4</ele>
        <time>2024-04-14T09:22:11Z</time>
      </trkpt>
      <trkpt lat="46.07801" lon="3.27188">
        <ele>355.4</ele>
        <time>2024-04-14T09:22:12Z</time>
      </trkpt>
      <trkpt lat="46.07796" lon="3.27192">
        <ele>355.4</ele>
        <time>2024-04-14T09:22:13Z</time>
      </trkpt>
      <trkpt lat="46.0779" lon="3.27196">
        <ele>355.4</ele>
        <time>2024-04-14T09:22:14Z</time>
      </trkpt>
      <trkpt lat="46.07784" lon="3.27201">
        <ele>355.6</ele>
        <time>2024-04-14T09:22:15Z</time>
      </trkpt>
      <trkpt lat="46.07778" lon="3.27204">
        <ele>355.6</ele>
        <time>2024-04-14T09:22:16Z</time>
      </trkpt>
      <trkpt lat="46.07772" lon="3.27208">
        <ele>355.6</ele>
        <time>2024-04-14T09:22:17Z</time>
      </trkpt>
      <trkpt lat="46.07766" lon="3.27211">
        <ele>355.4</ele>
        <time>2024-04-14T09:22:18Z</time>
      </trkpt>
      <trkpt lat="46.0776" lon="3.27215">
        <ele>355.6</ele>
        <time>2024-04-14T09:22:19Z</time>
      </trkpt>
      <trkpt lat="46.07754" lon="3.27218">
        <ele>355.6</ele>
        <time>2024-04-14T09:22:20Z</time>
      </trkpt>
      <trkpt lat="46.07748" lon="3.27221">
        <ele>355.4</ele>
        <time>2024-04-14T09:22:21Z</time>
      </trkpt>
      <trkpt lat="46.07743" lon="3.27225">
        <ele>355.4</ele>
        <time>2024-04-14T09:22:22Z</time>
      </trkpt>
      <trkpt lat="46.07736" lon="3.27228">
        <ele>355.4</ele>
        <time>2024-04-14T09:22:23Z</time>
      </trkpt>
      <trkpt lat="46.0773" lon="3.27232">
        <ele>355.6</ele>
        <time>2024-04-14T09:22:24Z</time>
      </trkpt>
      <trkpt lat="46.07724" lon="3.27236">
        <ele>355.6</ele>
        <time>2024-04-14T09:22:25Z</time>
      </trkpt>
      <trkpt lat="46.07719" lon="3.27239">
        <ele>355.6</ele>
        <time>2024-04-14T09:22:26Z</time>
      </trkpt>
      <trkpt lat="46.07714" lon="3.27244">
        <ele>355.6</ele>
        <time>2024-04-14T09:22:27Z</time>
      </trkpt>
      <trkpt lat="46.07709" lon="3.27249">
        <ele>355.6</ele>
        <time>2024-04-14T09:22:28Z</time>
      </trkpt>
      <trkpt lat="46.07705" lon="3.27254">
        <ele>355.6</ele>
        <time>2024-04-14T09:22:29Z</time>
      </trkpt>
      <trkpt lat="46.077" lon="3.27259">
        <ele>355.6</ele>
        <time>2024-04-14T09:22:30Z</time>
      </trkpt>
      <trkpt lat="46.07696" lon="3.27264">
        <ele>355.6</ele>
        <time>2024-04-14T09:22:31Z</time>
      </trkpt>
      <trkpt lat="46.07682" lon="3.27268">
        <ele>355.6</ele>
        <time>2024-04-14T09:22:32Z</time>
      </trkpt>
      <trkpt lat="46.07679" lon="3.27261">
        <ele>355.6</ele>
        <time>2024-04-14T09:22:33Z</time>
      </trkpt>
      <trkpt lat="46.07675" lon="3.27254">
        <ele>355.8</ele>
        <time>2024-04-14T09:22:34Z</time>
      </trkpt>
      <trkpt lat="46.07672" lon="3.27247">
        <ele>355.8</ele>
        <time>2024-04-14T09:22:35Z</time>
      </trkpt>
      <trkpt lat="46.07669" lon="3.27239">
        <ele>356</ele>
        <time>2024-04-14T09:22:36Z</time>
      </trkpt>
      <trkpt lat="46.07665" lon="3.27232">
        <ele>356</ele>
        <time>2024-04-14T09:22:37Z</time>
      </trkpt>
      <trkpt lat="46.07661" lon="3.27224">
        <ele>356</ele>
        <time>2024-04-14T09:22:38Z</time>
      </trkpt>
      <trkpt lat="46.07658" lon="3.27217">
        <ele>356.2</ele>
        <time>2024-04-14T09:22:39Z</time>
      </trkpt>
      <trkpt lat="46.07654" lon="3.2721">
        <ele>356.2</ele>
        <time>2024-04-14T09:22:40Z</time>
      </trkpt>
      <trkpt lat="46.07651" lon="3.27203">
        <ele>356.2</ele>
        <time>2024-04-14T09:22:41Z</time>
      </trkpt>
      <trkpt lat="46.07648" lon="3.27196">
        <ele>356.4</ele>
        <time>2024-04-14T09:22:42Z</time>
      </trkpt>
      <trkpt lat="46.07644" lon="3.27189">
        <ele>356.4</ele>
        <time>2024-04-14T09:22:43Z</time>
      </trkpt>
      <trkpt lat="46.07641" lon="3.27182">
        <ele>356.6</ele>
        <time>2024-04-14T09:22:44Z</time>
      </trkpt>
      <trkpt lat="46.07638" lon="3.27175">
        <ele>356.6</ele>
        <time>2024-04-14T09:22:45Z</time>
      </trkpt>
      <trkpt lat="46.07634" lon="3.27167">
        <ele>356.8</ele>
        <time>2024-04-14T09:22:46Z</time>
      </trkpt>
      <trkpt lat="46.07631" lon="3.2716">
        <ele>356.8</ele>
        <time>2024-04-14T09:22:47Z</time>
      </trkpt>
      <trkpt lat="46.07628" lon="3.27153">
        <ele>357</ele>
        <time>2024-04-14T09:22:48Z</time>
      </trkpt>
      <trkpt lat="46.07624" lon="3.27146">
        <ele>357</ele>
        <time>2024-04-14T09:22:49Z</time>
      </trkpt>
      <trkpt lat="46.07621" lon="3.27138">
        <ele>357.2</ele>
        <time>2024-04-14T09:22:50Z</time>
      </trkpt>
      <trkpt lat="46.07619" lon="3.2713">
        <ele>357.2</ele>
        <time>2024-04-14T09:22:51Z</time>
      </trkpt>
      <trkpt lat="46.07617" lon="3.27122">
        <ele>357.4</ele>
        <time>2024-04-14T09:22:52Z</time>
      </trkpt>
      <trkpt lat="46.07617" lon="3.27113">
        <ele>357.4</ele>
        <time>2024-04-14T09:22:53Z</time>
      </trkpt>
      <trkpt lat="46.07617" lon="3.27105">
        <ele>357.4</ele>
        <time>2024-04-14T09:22:54Z</time>
      </trkpt>
      <trkpt lat="46.07617" lon="3.27097">
        <ele>357.6</ele>
        <time>2024-04-14T09:22:55Z</time>
      </trkpt>
      <trkpt lat="46.07617" lon="3.27089">
        <ele>357.6</ele>
        <time>2024-04-14T09:22:56Z</time>
      </trkpt>
      <trkpt lat="46.07617" lon="3.2708">
        <ele>357.6</ele>
        <time>2024-04-14T09:22:57Z</time>
      </trkpt>
      <trkpt lat="46.07618" lon="3.27072">
        <ele>357.8</ele>
        <time>2024-04-14T09:22:58Z</time>
      </trkpt>
      <trkpt lat="46.07619" lon="3.27064">
        <ele>357.8</ele>
        <time>2024-04-14T09:22:59Z</time>
      </trkpt>
      <trkpt lat="46.0762" lon="3.27055">
        <ele>358</ele>
        <time>2024-04-14T09:23:00Z</time>
      </trkpt>
      <trkpt lat="46.07621" lon="3.27047">
        <ele>358</ele>
        <time>2024-04-14T09:23:01Z</time>
      </trkpt>
      <trkpt lat="46.07622" lon="3.27039">
        <ele>358.2</ele>
        <time>2024-04-14T09:23:02Z</time>
      </trkpt>
      <trkpt lat="46.07624" lon="3.2703">
        <ele>358.2</ele>
        <time>2024-04-14T09:23:03Z</time>
      </trkpt>
      <trkpt lat="46.07625" lon="3.27021">
        <ele>358.4</ele>
        <time>2024-04-14T09:23:04Z</time>
      </trkpt>
      <trkpt lat="46.07626" lon="3.27013">
        <ele>358.4</ele>
        <time>2024-04-14T09:23:05Z</time>
      </trkpt>
      <trkpt lat="46.07627" lon="3.27004">
        <ele>358.4</ele>
        <time>2024-04-14T09:23:06Z</time>
      </trkpt>
      <trkpt lat="46.07628" lon="3.26995">
        <ele>358.6</ele>
        <time>2024-04-14T09:23:07Z</time>
      </trkpt>
      <trkpt lat="46.07629" lon="3.26986">
        <ele>358.6</ele>
        <time>2024-04-14T09:23:08Z</time>
      </trkpt>
      <trkpt lat="46.07631" lon="3.26977">
        <ele>358.8</ele>
        <time>2024-04-14T09:23:09Z</time>
      </trkpt>
      <trkpt lat="46.07632" lon="3.26969">
        <ele>359</ele>
        <time>2024-04-14T09:23:10Z</time>
      </trkpt>
      <trkpt lat="46.07633" lon="3.2696">
        <ele>359</ele>
        <time>2024-04-14T09:23:11Z</time>
      </trkpt>
      <trkpt lat="46.07634" lon="3.26952">
        <ele>359.2</ele>
        <time>2024-04-14T09:23:12Z</time>
      </trkpt>
      <trkpt lat="46.07634" lon="3.26943">
        <ele>359.2</ele>
        <time>2024-04-14T09:23:13Z</time>
      </trkpt>
      <trkpt lat="46.07635" lon="3.26935">
        <ele>359.4</ele>
        <time>2024-04-14T09:23:14Z</time>
      </trkpt>
      <trkpt lat="46.07636" lon="3.26927">
        <ele>359.4</ele>
        <time>2024-04-14T09:23:15Z</time>
      </trkpt>
      <trkpt lat="46.07637" lon="3.26919">
        <ele>359.6</ele>
        <time>2024-04-14T09:23:16Z</time>
      </trkpt>
      <trkpt lat="46.07638" lon="3.26911">
        <ele>359.6</ele>
        <time>2024-04-14T09:23:17Z</time>
      </trkpt>
      <trkpt lat="46.07639" lon="3.26903">
        <ele>359.8</ele>
        <time>2024-04-14T09:23:18Z</time>
      </trkpt>
      <trkpt lat="46.0764" lon="3.26894">
        <ele>359.8</ele>
        <time>2024-04-14T09:23:19Z</time>
      </trkpt>
      <trkpt lat="46.0764" lon="3.26886">
        <ele>360</ele>
        <time>2024-04-14T09:23:20Z</time>
      </trkpt>
      <trkpt lat="46.07641" lon="3.26878">
        <ele>360.2</ele>
        <time>2024-04-14T09:23:21Z</time>
      </trkpt>
      <trkpt lat="46.07642" lon="3.2687">
        <ele>360.2</ele>
        <time>2024-04-14T09:23:22Z</time>
      </trkpt>
      <trkpt lat="46.07642" lon="3.26862">
        <ele>360.2</ele>
        <time>2024-04-14T09:23:23Z</time>
      </trkpt>
      <trkpt lat="46.07641" lon="3.26853">
        <ele>360.4</ele>
        <time>2024-04-14T09:23:24Z</time>
      </trkpt>
      <trkpt lat="46.07641" lon="3.26845">
        <ele>360.4</ele>
        <time>2024-04-14T09:23:25Z</time>
      </trkpt>
      <trkpt lat="46.0764" lon="3.26836">
        <ele>360.4</ele>
        <time>2024-04-14T09:23:26Z</time>
      </trkpt>
      <trkpt lat="46.0764" lon="3.26827">
        <ele>360.6</ele>
        <time>2024-04-14T09:23:27Z</time>
      </trkpt>
      <trkpt lat="46.07639" lon="3.26818">
        <ele>360.6</ele>
        <time>2024-04-14T09:23:28Z</time>
      </trkpt>
      <trkpt lat="46.07638" lon="3.26809">
        <ele>360.8</ele>
        <time>2024-04-14T09:23:29Z</time>
      </trkpt>
      <trkpt lat="46.07638" lon="3.26799">
        <ele>360.8</ele>
        <time>2024-04-14T09:23:30Z</time>
      </trkpt>
      <trkpt lat="46.07637" lon="3.2679">
        <ele>361</ele>
        <time>2024-04-14T09:23:31Z</time>
      </trkpt>
      <trkpt lat="46.07636" lon="3.26781">
        <ele>361</ele>
        <time>2024-04-14T09:23:32Z</time>
      </trkpt>
      <trkpt lat="46.07636" lon="3.26772">
        <ele>361</ele>
        <time>2024-04-14T09:23:33Z</time>
      </trkpt>
      <trkpt lat="46.07635" lon="3.26763">
        <ele>361.2</ele>
        <time>2024-04-14T09:23:34Z</time>
      </trkpt>
      <trkpt lat="46.07634" lon="3.26754">
        <ele>361.2</ele>
        <time>2024-04-14T09:23:35Z</time>
      </trkpt>
      <trkpt lat="46.07634" lon="3.26745">
        <ele>361.4</ele>
        <time>2024-04-14T09:23:36Z</time>
      </trkpt>
      <trkpt lat="46.07633" lon="3.26736">
        <ele>361.4</ele>
        <time>2024-04-14T09:23:37Z</time>
      </trkpt>
      <trkpt lat="46.07633" lon="3.26727">
        <ele>361.6</ele>
        <time>2024-04-14T09:23:38Z</time>
      </trkpt>
      <trkpt lat="46.07632" lon="3.26719">
        <ele>361.6</ele>
        <time>2024-04-14T09:23:39Z</time>
      </trkpt>
      <trkpt lat="46.07631" lon="3.2671">
        <ele>361.6</ele>
        <time>2024-04-14T09:23:40Z</time>
      </trkpt>
      <trkpt lat="46.07631" lon="3.26701">
        <ele>361.8</ele>
        <time>2024-04-14T09:23:41Z</time>
      </trkpt>
      <trkpt lat="46.0763" lon="3.26692">
        <ele>361.8</ele>
        <time>2024-04-14T09:23:42Z</time>
      </trkpt>
      <trkpt lat="46.0763" lon="3.26683">
        <ele>362</ele>
        <time>2024-04-14T09:23:43Z</time>
      </trkpt>
      <trkpt lat="46.07629" lon="3.26675">
        <ele>362</ele>
        <time>2024-04-14T09:23:44Z</time>
      </trkpt>
      <trkpt lat="46.07628" lon="3.26666">
        <ele>362.2</ele>
        <time>2024-04-14T09:23:45Z</time>
      </trkpt>
      <trkpt lat="46.07628" lon="3.26657">
        <ele>362.2</ele>
        <time>2024-04-14T09:23:46Z</time>
      </trkpt>
      <trkpt lat="46.07627" lon="3.26648">
        <ele>362.2</ele>
        <time>2024-04-14T09:23:47Z</time>
      </trkpt>
      <trkpt lat="46.07628" lon="3.2664">
        <ele>362.4</ele>
        <time>2024-04-14T09:23:48Z</time>
      </trkpt>
      <trkpt lat="46.07628" lon="3.26631">
        <ele>362.4</ele>
        <time>2024-04-14T09:23:49Z</time>
      </trkpt>
      <trkpt lat="46.07629" lon="3.26622">
        <ele>362.4</ele>
        <time>2024-04-14T09:23:50Z</time>
      </trkpt>
      <trkpt lat="46.07629" lon="3.26614">
        <ele>362.6</ele>
        <time>2024-04-14T09:23:51Z</time>
      </trkpt>
      <trkpt lat="46.07629" lon="3.26606">
        <ele>362.6</ele>
        <time>2024-04-14T09:23:52Z</time>
      </trkpt>
      <trkpt lat="46.0763" lon="3.26597">
        <ele>362.8</ele>
        <time>2024-04-14T09:23:53Z</time>
      </trkpt>
      <trkpt lat="46.0763" lon="3.26589">
        <ele>363</ele>
        <time>2024-04-14T09:23:54Z</time>
      </trkpt>
      <trkpt lat="46.0763" lon="3.26581">
        <ele>363</ele>
        <time>2024-04-14T09:23:55Z</time>
      </trkpt>
      <trkpt lat="46.07631" lon="3.26572">
        <ele>363.2</ele>
        <time>2024-04-14T09:23:56Z</time>
      </trkpt>
      <trkpt lat="46.07631" lon="3.26564">
        <ele>363.2</ele>
        <time>2024-04-14T09:23:57Z</time>
      </trkpt>
      <trkpt lat="46.07631" lon="3.26555">
        <ele>363.4</ele>
        <time>2024-04-14T09:23:58Z</time>
      </trkpt>
      <trkpt lat="46.07632" lon="3.26546">
        <ele>363.4</ele>
        <time>2024-04-14T09:23:59Z</time>
      </trkpt>
      <trkpt lat="46.07632" lon="3.26538">
        <ele>363.4</ele>
        <time>2024-04-14T09:24:00Z</time>
      </trkpt>
      <trkpt lat="46.07633" lon="3.26529">
        <ele>363.6</ele>
        <time>2024-04-14T09:24:01Z</time>
      </trkpt>
      <trkpt lat="46.07633" lon="3.2652">
        <ele>363.8</ele>
        <time>2024-04-14T09:24:02Z</time>
      </trkpt>
      <trkpt lat="46.07633" lon="3.26512">
        <ele>363.8</ele>
        <time>2024-04-14T09:24:03Z</time>
      </trkpt>
      <trkpt lat="46.07634" lon="3.26503">
        <ele>364</ele>
        <time>2024-04-14T09:24:04Z</time>
      </trkpt>
      <trkpt lat="46.07634" lon="3.26495">
        <ele>364</ele>
        <time>2024-04-14T09:24:05Z</time>
      </trkpt>
      <trkpt lat="46.07634" lon="3.26487">
        <ele>364.2</ele>
        <time>2024-04-14T09:24:06Z</time>
      </trkpt>
      <trkpt lat="46.07635" lon="3.26479">
        <ele>364.4</ele>
        <time>2024-04-14T09:24:07Z</time>
      </trkpt>
      <trkpt lat="46.07635" lon="3.26471">
        <ele>364.4</ele>
        <time>2024-04-14T09:24:08Z</time>
      </trkpt>
      <trkpt lat="46.07635" lon="3.26463">
        <ele>364.6</ele>
        <time>2024-04-14T09:24:09Z</time>
      </trkpt>
      <trkpt lat="46.07635" lon="3.26463">
        <ele>364.6</ele>
        <time>2024-04-14T09:24:10Z</time>
      </trkpt>
      <trkpt lat="46.07636" lon="3.26446">
        <ele>364.8</ele>
        <time>2024-04-14T09:24:11Z</time>
      </trkpt>
      <trkpt lat="46.07636" lon="3.26438">
        <ele>364.8</ele>
        <time>2024-04-14T09:24:12Z</time>
      </trkpt>
      <trkpt lat="46.07637" lon="3.2643">
        <ele>365</ele>
        <time>2024-04-14T09:24:13Z</time>
      </trkpt>
      <trkpt lat="46.07637" lon="3.26422">
        <ele>365</ele>
        <time>2024-04-14T09:24:14Z</time>
      </trkpt>
      <trkpt lat="46.07637" lon="3.26414">
        <ele>365.2</ele>
        <time>2024-04-14T09:24:15Z</time>
      </trkpt>
      <trkpt lat="46.07637" lon="3.26414">
        <ele>365.2</ele>
        <time>2024-04-14T09:24:16Z</time>
      </trkpt>
      <trkpt lat="46.07638" lon="3.26399">
        <ele>365.4</ele>
        <time>2024-04-14T09:24:17Z</time>
      </trkpt>
      <trkpt lat="46.07638" lon="3.26391">
        <ele>365.4</ele>
        <time>2024-04-14T09:24:18Z</time>
      </trkpt>
      <trkpt lat="46.07639" lon="3.26383">
        <ele>365.6</ele>
        <time>2024-04-14T09:24:19Z</time>
      </trkpt>
      <trkpt lat="46.07639" lon="3.26375">
        <ele>365.6</ele>
        <time>2024-04-14T09:24:20Z</time>
      </trkpt>
      <trkpt lat="46.07639" lon="3.26368">
        <ele>365.8</ele>
        <time>2024-04-14T09:24:21Z</time>
      </trkpt>
      <trkpt lat="46.0764" lon="3.2636">
        <ele>365.8</ele>
        <time>2024-04-14T09:24:22Z</time>
      </trkpt>
      <trkpt lat="46.0764" lon="3.26352">
        <ele>366</ele>
        <time>2024-04-14T09:24:23Z</time>
      </trkpt>
      <trkpt lat="46.0764" lon="3.26345">
        <ele>366.2</ele>
        <time>2024-04-14T09:24:24Z</time>
      </trkpt>
      <trkpt lat="46.07641" lon="3.26337">
        <ele>366.2</ele>
        <time>2024-04-14T09:24:25Z</time>
      </trkpt>
      <trkpt lat="46.07641" lon="3.26329">
        <ele>366.4</ele>
        <time>2024-04-14T09:24:26Z</time>
      </trkpt>
      <trkpt lat="46.07641" lon="3.26321">
        <ele>366.6</ele>
        <time>2024-04-14T09:24:27Z</time>
      </trkpt>
      <trkpt lat="46.07642" lon="3.26312">
        <ele>366.6</ele>
        <time>2024-04-14T09:24:28Z</time>
      </trkpt>
      <trkpt lat="46.07642" lon="3.26304">
        <ele>366.8</ele>
        <time>2024-04-14T09:24:29Z</time>
      </trkpt>
      <trkpt lat="46.07642" lon="3.26296">
        <ele>367</ele>
        <time>2024-04-14T09:24:30Z</time>
      </trkpt>
      <trkpt lat="46.07642" lon="3.26288">
        <ele>367</ele>
        <time>2024-04-14T09:24:31Z</time>
      </trkpt>
      <trkpt lat="46.07642" lon="3.2628">
        <ele>367.2</ele>
        <time>2024-04-14T09:24:32Z</time>
      </trkpt>
      <trkpt lat="46.07642" lon="3.26272">
        <ele>367.2</ele>
        <time>2024-04-14T09:24:33Z</time>
      </trkpt>
      <trkpt lat="46.07642" lon="3.26264">
        <ele>367.4</ele>
        <time>2024-04-14T09:24:34Z</time>
      </trkpt>
      <trkpt lat="46.07642" lon="3.26256">
        <ele>367.6</ele>
        <time>2024-04-14T09:24:35Z</time>
      </trkpt>
      <trkpt lat="46.07641" lon="3.26247">
        <ele>367.6</ele>
        <time>2024-04-14T09:24:36Z</time>
      </trkpt>
      <trkpt lat="46.07641" lon="3.2624">
        <ele>367.8</ele>
        <time>2024-04-14T09:24:37Z</time>
      </trkpt>
      <trkpt lat="46.07641" lon="3.26232">
        <ele>368</ele>
        <time>2024-04-14T09:24:38Z</time>
      </trkpt>
      <trkpt lat="46.07641" lon="3.26224">
        <ele>368</ele>
        <time>2024-04-14T09:24:39Z</time>
      </trkpt>
      <trkpt lat="46.07641" lon="3.26216">
        <ele>368.2</ele>
        <time>2024-04-14T09:24:40Z</time>
      </trkpt>
      <trkpt lat="46.07641" lon="3.26207">
        <ele>368.4</ele>
        <time>2024-04-14T09:24:41Z</time>
      </trkpt>
      <trkpt lat="46.0764" lon="3.262">
        <ele>368.4</ele>
        <time>2024-04-14T09:24:42Z</time>
      </trkpt>
      <trkpt lat="46.0764" lon="3.26192">
        <ele>368.6</ele>
        <time>2024-04-14T09:24:43Z</time>
      </trkpt>
      <trkpt lat="46.0764" lon="3.26185">
        <ele>368.8</ele>
        <time>2024-04-14T09:24:44Z</time>
      </trkpt>
      <trkpt lat="46.0764" lon="3.26176">
        <ele>368.8</ele>
        <time>2024-04-14T09:24:45Z</time>
      </trkpt>
      <trkpt lat="46.0764" lon="3.26168">
        <ele>369</ele>
        <time>2024-04-14T09:24:46Z</time>
      </trkpt>
      <trkpt lat="46.07639" lon="3.2616">
        <ele>369</ele>
        <time>2024-04-14T09:24:47Z</time>
      </trkpt>
      <trkpt lat="46.07639" lon="3.26152">
        <ele>369.2</ele>
        <time>2024-04-14T09:24:48Z</time>
      </trkpt>
      <trkpt lat="46.07639" lon="3.26143">
        <ele>369.2</ele>
        <time>2024-04-14T09:24:49Z</time>
      </trkpt>
      <trkpt lat="46.07638" lon="3.26136">
        <ele>369.4</ele>
        <time>2024-04-14T09:24:50Z</time>
      </trkpt>
      <trkpt lat="46.07638" lon="3.26128">
        <ele>369.6</ele>
        <time>2024-04-14T09:24:51Z</time>
      </trkpt>
      <trkpt lat="46.07638" lon="3.26119">
        <ele>369.6</ele>
        <time>2024-04-14T09:24:52Z</time>
      </trkpt>
      <trkpt lat="46.07637" lon="3.26112">
        <ele>369.8</ele>
        <time>2024-04-14T09:24:53Z</time>
      </trkpt>
      <trkpt lat="46.07637" lon="3.26103">
        <ele>370</ele>
        <time>2024-04-14T09:24:54Z</time>
      </trkpt>
      <trkpt lat="46.07637" lon="3.26095">
        <ele>370.2</ele>
        <time>2024-04-14T09:24:55Z</time>
      </trkpt>
      <trkpt lat="46.07636" lon="3.26087">
        <ele>370.2</ele>
        <time>2024-04-14T09:24:56Z</time>
      </trkpt>
      <trkpt lat="46.07636" lon="3.26079">
        <ele>370.4</ele>
        <time>2024-04-14T09:24:57Z</time>
      </trkpt>
      <trkpt lat="46.07636" lon="3.26071">
        <ele>370.4</ele>
        <time>2024-04-14T09:24:58Z</time>
      </trkpt>
      <trkpt lat="46.07636" lon="3.26063">
        <ele>370.6</ele>
        <time>2024-04-14T09:24:59Z</time>
      </trkpt>
      <trkpt lat="46.07635" lon="3.26055">
        <ele>370.6</ele>
        <time>2024-04-14T09:25:00Z</time>
      </trkpt>
      <trkpt lat="46.07635" lon="3.26046">
        <ele>370.8</ele>
        <time>2024-04-14T09:25:01Z</time>
      </trkpt>
      <trkpt lat="46.07635" lon="3.26038">
        <ele>371</ele>
        <time>2024-04-14T09:25:02Z</time>
      </trkpt>
      <trkpt lat="46.07634" lon="3.26029">
        <ele>371</ele>
        <time>2024-04-14T09:25:03Z</time>
      </trkpt>
      <trkpt lat="46.07634" lon="3.26021">
        <ele>371</ele>
        <time>2024-04-14T09:25:04Z</time>
      </trkpt>
      <trkpt lat="46.07634" lon="3.26012">
        <ele>371.2</ele>
        <time>2024-04-14T09:25:05Z</time>
      </trkpt>
      <trkpt lat="46.07633" lon="3.26003">
        <ele>371.4</ele>
        <time>2024-04-14T09:25:06Z</time>
      </trkpt>
      <trkpt lat="46.07633" lon="3.25995">
        <ele>371.4</ele>
        <time>2024-04-14T09:25:07Z</time>
      </trkpt>
      <trkpt lat="46.07633" lon="3.25986">
        <ele>371.6</ele>
        <time>2024-04-14T09:25:08Z</time>
      </trkpt>
      <trkpt lat="46.07632" lon="3.25977">
        <ele>371.6</ele>
        <time>2024-04-14T09:25:09Z</time>
      </trkpt>
      <trkpt lat="46.07632" lon="3.25968">
        <ele>371.8</ele>
        <time>2024-04-14T09:25:10Z</time>
      </trkpt>
      <trkpt lat="46.07631" lon="3.2596">
        <ele>371.8</ele>
        <time>2024-04-14T09:25:11Z</time>
      </trkpt>
      <trkpt lat="46.0763" lon="3.25951">
        <ele>371.8</ele>
        <time>2024-04-14T09:25:12Z</time>
      </trkpt>
      <trkpt lat="46.07628" lon="3.25943">
        <ele>372</ele>
        <time>2024-04-14T09:25:13Z</time>
      </trkpt>
      <trkpt lat="46.07627" lon="3.25934">
        <ele>372</ele>
        <time>2024-04-14T09:25:14Z</time>
      </trkpt>
      <trkpt lat="46.07625" lon="3.25925">
        <ele>372</ele>
        <time>2024-04-14T09:25:15Z</time>
      </trkpt>
      <trkpt lat="46.07624" lon="3.25916">
        <ele>372.2</ele>
        <time>2024-04-14T09:25:16Z</time>
      </trkpt>
      <trkpt lat="46.07622" lon="3.25907">
        <ele>372.2</ele>
        <time>2024-04-14T09:25:17Z</time>
      </trkpt>
      <trkpt lat="46.0762" lon="3.25898">
        <ele>372.2</ele>
        <time>2024-04-14T09:25:18Z</time>
      </trkpt>
      <trkpt lat="46.07619" lon="3.25889">
        <ele>372.2</ele>
        <time>2024-04-14T09:25:19Z</time>
      </trkpt>
      <trkpt lat="46.07617" lon="3.2588">
        <ele>372.4</ele>
        <time>2024-04-14T09:25:20Z</time>
      </trkpt>
      <trkpt lat="46.07616" lon="3.25871">
        <ele>372.4</ele>
        <time>2024-04-14T09:25:21Z</time>
      </trkpt>
      <trkpt lat="46.07614" lon="3.25862">
        <ele>372.4</ele>
        <time>2024-04-14T09:25:22Z</time>
      </trkpt>
      <trkpt lat="46.07613" lon="3.25853">
        <ele>372.4</ele>
        <time>2024-04-14T09:25:23Z</time>
      </trkpt>
      <trkpt lat="46.07611" lon="3.25845">
        <ele>372.4</ele>
        <time>2024-04-14T09:25:24Z</time>
      </trkpt>
      <trkpt lat="46.0761" lon="3.25836">
        <ele>372.4</ele>
        <time>2024-04-14T09:25:25Z</time>
      </trkpt>
      <trkpt lat="46.07608" lon="3.25827">
        <ele>372.6</ele>
        <time>2024-04-14T09:25:26Z</time>
      </trkpt>
      <trkpt lat="46.07607" lon="3.25817">
        <ele>372.6</ele>
        <time>2024-04-14T09:25:27Z</time>
      </trkpt>
      <trkpt lat="46.07605" lon="3.25808">
        <ele>372.6</ele>
        <time>2024-04-14T09:25:28Z</time>
      </trkpt>
      <trkpt lat="46.07603" lon="3.25799">
        <ele>372.6</ele>
        <time>2024-04-14T09:25:29Z</time>
      </trkpt>
      <trkpt lat="46.07601" lon="3.25791">
        <ele>372.8</ele>
        <time>2024-04-14T09:25:30Z</time>
      </trkpt>
      <trkpt lat="46.07599" lon="3.25782">
        <ele>372.8</ele>
        <time>2024-04-14T09:25:31Z</time>
      </trkpt>
      <trkpt lat="46.07597" lon="3.25773">
        <ele>372.8</ele>
        <time>2024-04-14T09:25:32Z</time>
      </trkpt>
      <trkpt lat="46.07595" lon="3.25765">
        <ele>372.8</ele>
        <time>2024-04-14T09:25:33Z</time>
      </trkpt>
      <trkpt lat="46.07593" lon="3.25756">
        <ele>372.8</ele>
        <time>2024-04-14T09:25:34Z</time>
      </trkpt>
      <trkpt lat="46.0759" lon="3.25748">
        <ele>372.6</ele>
        <time>2024-04-14T09:25:35Z</time>
      </trkpt>
      <trkpt lat="46.07587" lon="3.2574">
        <ele>372.8</ele>
        <time>2024-04-14T09:25:36Z</time>
      </trkpt>
      <trkpt lat="46.07585" lon="3.25732">
        <ele>372.8</ele>
        <time>2024-04-14T09:25:37Z</time>
      </trkpt>
      <trkpt lat="46.07582" lon="3.25724">
        <ele>372.6</ele>
        <time>2024-04-14T09:25:38Z</time>
      </trkpt>
      <trkpt lat="46.07579" lon="3.25716">
        <ele>372.8</ele>
        <time>2024-04-14T09:25:39Z</time>
      </trkpt>
      <trkpt lat="46.07577" lon="3.25708">
        <ele>372.8</ele>
        <time>2024-04-14T09:25:40Z</time>
      </trkpt>
      <trkpt lat="46.07574" lon="3.257">
        <ele>372.8</ele>
        <time>2024-04-14T09:25:41Z</time>
      </trkpt>
      <trkpt lat="46.07571" lon="3.25691">
        <ele>372.6</ele>
        <time>2024-04-14T09:25:42Z</time>
      </trkpt>
      <trkpt lat="46.07569" lon="3.25683">
        <ele>372.6</ele>
        <time>2024-04-14T09:25:43Z</time>
      </trkpt>
      <trkpt lat="46.07566" lon="3.25674">
        <ele>372.6</ele>
        <time>2024-04-14T09:25:44Z</time>
      </trkpt>
      <trkpt lat="46.07563" lon="3.25666">
        <ele>373</ele>
        <time>2024-04-14T09:25:45Z</time>
      </trkpt>
      <trkpt lat="46.0756" lon="3.25657">
        <ele>372.8</ele>
        <time>2024-04-14T09:25:46Z</time>
      </trkpt>
      <trkpt lat="46.07558" lon="3.25649">
        <ele>372.8</ele>
        <time>2024-04-14T09:25:47Z</time>
      </trkpt>
      <trkpt lat="46.07555" lon="3.25641">
        <ele>372.4</ele>
        <time>2024-04-14T09:25:48Z</time>
      </trkpt>
      <trkpt lat="46.07554" lon="3.25632">
        <ele>372.2</ele>
        <time>2024-04-14T09:25:49Z</time>
      </trkpt>
      <trkpt lat="46.07553" lon="3.25622">
        <ele>372.2</ele>
        <time>2024-04-14T09:25:50Z</time>
      </trkpt>
      <trkpt lat="46.07553" lon="3.25612">
        <ele>372.2</ele>
        <time>2024-04-14T09:25:51Z</time>
      </trkpt>
      <trkpt lat="46.07554" lon="3.25603">
        <ele>372.4</ele>
        <time>2024-04-14T09:25:52Z</time>
      </trkpt>
      <trkpt lat="46.07556" lon="3.25593">
        <ele>372.4</ele>
        <time>2024-04-14T09:25:53Z</time>
      </trkpt>
      <trkpt lat="46.07557" lon="3.25583">
        <ele>372.2</ele>
        <time>2024-04-14T09:25:54Z</time>
      </trkpt>
      <trkpt lat="46.0756" lon="3.25574">
        <ele>372.2</ele>
        <time>2024-04-14T09:25:55Z</time>
      </trkpt>
      <trkpt lat="46.07564" lon="3.25565">
        <ele>372.2</ele>
        <time>2024-04-14T09:25:56Z</time>
      </trkpt>
      <trkpt lat="46.07567" lon="3.25557">
        <ele>372</ele>
        <time>2024-04-14T09:25:57Z</time>
      </trkpt>
      <trkpt lat="46.0757" lon="3.25547">
        <ele>372</ele>
        <time>2024-04-14T09:25:58Z</time>
      </trkpt>
      <trkpt lat="46.07573" lon="3.25538">
        <ele>371.8</ele>
        <time>2024-04-14T09:25:59Z</time>
      </trkpt>
      <trkpt lat="46.07576" lon="3.25528">
        <ele>371.8</ele>
        <time>2024-04-14T09:26:00Z</time>
      </trkpt>
      <trkpt lat="46.0758" lon="3.25518">
        <ele>371.6</ele>
        <time>2024-04-14T09:26:01Z</time>
      </trkpt>
      <trkpt lat="46.07583" lon="3.25508">
        <ele>371.6</ele>
        <time>2024-04-14T09:26:02Z</time>
      </trkpt>
      <trkpt lat="46.07586" lon="3.25498">
        <ele>371.4</ele>
        <time>2024-04-14T09:26:03Z</time>
      </trkpt>
      <trkpt lat="46.0759" lon="3.25487">
        <ele>371.4</ele>
        <time>2024-04-14T09:26:04Z</time>
      </trkpt>
      <trkpt lat="46.07592" lon="3.25476">
        <ele>371.2</ele>
        <time>2024-04-14T09:26:05Z</time>
      </trkpt>
      <trkpt lat="46.07594" lon="3.25464">
        <ele>371.2</ele>
        <time>2024-04-14T09:26:06Z</time>
      </trkpt>
      <trkpt lat="46.07596" lon="3.25452">
        <ele>371</ele>
        <time>2024-04-14T09:26:07Z</time>
      </trkpt>
      <trkpt lat="46.07599" lon="3.2544">
        <ele>370.8</ele>
        <time>2024-04-14T09:26:08Z</time>
      </trkpt>
      <trkpt lat="46.07601" lon="3.25427">
        <ele>370.6</ele>
        <time>2024-04-14T09:26:09Z</time>
      </trkpt>
      <trkpt lat="46.07606" lon="3.25414">
        <ele>370.4</ele>
        <time>2024-04-14T09:26:10Z</time>
      </trkpt>
      <trkpt lat="46.0761" lon="3.25402">
        <ele>370.2</ele>
        <time>2024-04-14T09:26:11Z</time>
      </trkpt>
      <trkpt lat="46.07616" lon="3.2539">
        <ele>370</ele>
        <time>2024-04-14T09:26:12Z</time>
      </trkpt>
      <trkpt lat="46.07622" lon="3.2538">
        <ele>369.8</ele>
        <time>2024-04-14T09:26:13Z</time>
      </trkpt>
      <trkpt lat="46.07628" lon="3.25368">
        <ele>369.6</ele>
        <time>2024-04-14T09:26:14Z</time>
      </trkpt>
      <trkpt lat="46.07634" lon="3.25357">
        <ele>369.6</ele>
        <time>2024-04-14T09:26:15Z</time>
      </trkpt>
      <trkpt lat="46.07641" lon="3.25346">
        <ele>369.4</ele>
        <time>2024-04-14T09:26:16Z</time>
      </trkpt>
      <trkpt lat="46.07646" lon="3.25335">
        <ele>369.2</ele>
        <time>2024-04-14T09:26:17Z</time>
      </trkpt>
      <trkpt lat="46.0765" lon="3.25322">
        <ele>369</ele>
        <time>2024-04-14T09:26:18Z</time>
      </trkpt>
      <trkpt lat="46.07655" lon="3.25309">
        <ele>368.8</ele>
        <time>2024-04-14T09:26:19Z</time>
      </trkpt>
      <trkpt lat="46.07659" lon="3.25297">
        <ele>368.8</ele>
        <time>2024-04-14T09:26:20Z</time>
      </trkpt>
      <trkpt lat="46.07663" lon="3.25285">
        <ele>368.8</ele>
        <time>2024-04-14T09:26:21Z</time>
      </trkpt>
      <trkpt lat="46.07667" lon="3.25274">
        <ele>368.6</ele>
        <time>2024-04-14T09:26:22Z</time>
      </trkpt>
      <trkpt lat="46.0767" lon="3.25265">
        <ele>368.4</ele>
        <time>2024-04-14T09:26:23Z</time>
      </trkpt>
      <trkpt lat="46.07672" lon="3.25257">
        <ele>368.2</ele>
        <time>2024-04-14T09:26:24Z</time>
      </trkpt>
      <trkpt lat="46.07675" lon="3.25251">
        <ele>368</ele>
        <time>2024-04-14T09:26:25Z</time>
      </trkpt>
      <trkpt lat="46.07677" lon="3.25245">
        <ele>367.8</ele>
        <time>2024-04-14T09:26:26Z</time>
      </trkpt>
      <trkpt lat="46.07671" lon="3.25241">
        <ele>367.8</ele>
        <time>2024-04-14T09:26:27Z</time>
      </trkpt>
      <trkpt lat="46.07667" lon="3.25238">
        <ele>367.6</ele>
        <time>2024-04-14T09:26:28Z</time>
      </trkpt>
      <trkpt lat="46.07663" lon="3.25235">
        <ele>367.4</ele>
        <time>2024-04-14T09:26:29Z</time>
      </trkpt>
      <trkpt lat="46.07658" lon="3.25232">
        <ele>367</ele>
        <time>2024-04-14T09:26:30Z</time>
      </trkpt>
      <trkpt lat="46.07653" lon="3.25229">
        <ele>366.8</ele>
        <time>2024-04-14T09:26:31Z</time>
      </trkpt>
      <trkpt lat="46.07648" lon="3.25225">
        <ele>366.6</ele>
        <time>2024-04-14T09:26:32Z</time>
      </trkpt>
      <trkpt lat="46.07642" lon="3.25221">
        <ele>366.4</ele>
        <time>2024-04-14T09:26:33Z</time>
      </trkpt>
      <trkpt lat="46.07637" lon="3.25218">
        <ele>366.2</ele>
        <time>2024-04-14T09:26:34Z</time>
      </trkpt>
      <trkpt lat="46.07631" lon="3.25214">
        <ele>366.2</ele>
        <time>2024-04-14T09:26:35Z</time>
      </trkpt>
      <trkpt lat="46.07626" lon="3.2521">
        <ele>366</ele>
        <time>2024-04-14T09:26:36Z</time>
      </trkpt>
      <trkpt lat="46.0762" lon="3.25207">
        <ele>365.8</ele>
        <time>2024-04-14T09:26:37Z</time>
      </trkpt>
      <trkpt lat="46.07615" lon="3.25204">
        <ele>365.8</ele>
        <time>2024-04-14T09:26:38Z</time>
      </trkpt>
      <trkpt lat="46.07609" lon="3.252">
        <ele>365.6</ele>
        <time>2024-04-14T09:26:39Z</time>
      </trkpt>
      <trkpt lat="46.07604" lon="3.25197">
        <ele>365.4</ele>
        <time>2024-04-14T09:26:40Z</time>
      </trkpt>
      <trkpt lat="46.07598" lon="3.25193">
        <ele>365.4</ele>
        <time>2024-04-14T09:26:41Z</time>
      </trkpt>
      <trkpt lat="46.07592" lon="3.2519">
        <ele>365.4</ele>
        <time>2024-04-14T09:26:42Z</time>
      </trkpt>
      <trkpt lat="46.07586" lon="3.25186">
        <ele>365.2</ele>
        <time>2024-04-14T09:26:43Z</time>
      </trkpt>
      <trkpt lat="46.0758" lon="3.25183">
        <ele>365.2</ele>
        <time>2024-04-14T09:26:44Z</time>
      </trkpt>
      <trkpt lat="46.07574" lon="3.25179">
        <ele>365</ele>
        <time>2024-04-14T09:26:45Z</time>
      </trkpt>
      <trkpt lat="46.07567" lon="3.25175">
        <ele>365</ele>
        <time>2024-04-14T09:26:46Z</time>
      </trkpt>
      <trkpt lat="46.07561" lon="3.25171">
        <ele>365</ele>
        <time>2024-04-14T09:26:47Z</time>
      </trkpt>
      <trkpt lat="46.07555" lon="3.25167">
        <ele>364.8</ele>
        <time>2024-04-14T09:26:48Z</time>
      </trkpt>
      <trkpt lat="46.07549" lon="3.25163">
        <ele>364.8</ele>
        <time>2024-04-14T09:26:49Z</time>
      </trkpt>
      <trkpt lat="46.07543" lon="3.2516">
        <ele>364.8</ele>
        <time>2024-04-14T09:26:50Z</time>
      </trkpt>
      <trkpt lat="46.07537" lon="3.25156">
        <ele>364.8</ele>
        <time>2024-04-14T09:26:51Z</time>
      </trkpt>
      <trkpt lat="46.07531" lon="3.25154">
        <ele>364.8</ele>
        <time>2024-04-14T09:26:52Z</time>
      </trkpt>
      <trkpt lat="46.07525" lon="3.25152">
        <ele>364.8</ele>
        <time>2024-04-14T09:26:53Z</time>
      </trkpt>
      <trkpt lat="46.07518" lon="3.25151">
        <ele>364.8</ele>
        <time>2024-04-14T09:26:54Z</time>
      </trkpt>
      <trkpt lat="46.07512" lon="3.25149">
        <ele>364.8</ele>
        <time>2024-04-14T09:26:55Z</time>
      </trkpt>
      <trkpt lat="46.07507" lon="3.25148">
        <ele>364.8</ele>
        <time>2024-04-14T09:26:56Z</time>
      </trkpt>
      <trkpt lat="46.07501" lon="3.25146">
        <ele>364.8</ele>
        <time>2024-04-14T09:26:57Z</time>
      </trkpt>
      <trkpt lat="46.07495" lon="3.25145">
        <ele>364.8</ele>
        <time>2024-04-14T09:26:58Z</time>
      </trkpt>
      <trkpt lat="46.07489" lon="3.25144">
        <ele>364.8</ele>
        <time>2024-04-14T09:26:59Z</time>
      </trkpt>
      <trkpt lat="46.07483" lon="3.25142">
        <ele>364.6</ele>
        <time>2024-04-14T09:27:00Z</time>
      </trkpt>
      <trkpt lat="46.07478" lon="3.2514">
        <ele>364.6</ele>
        <time>2024-04-14T09:27:01Z</time>
      </trkpt>
      <trkpt lat="46.07472" lon="3.25137">
        <ele>364.6</ele>
        <time>2024-04-14T09:27:02Z</time>
      </trkpt>
      <trkpt lat="46.07466" lon="3.25134">
        <ele>364.6</ele>
        <time>2024-04-14T09:27:03Z</time>
      </trkpt>
      <trkpt lat="46.07461" lon="3.25131">
        <ele>364.6</ele>
        <time>2024-04-14T09:27:04Z</time>
      </trkpt>
      <trkpt lat="46.07455" lon="3.25128">
        <ele>364.6</ele>
        <time>2024-04-14T09:27:05Z</time>
      </trkpt>
      <trkpt lat="46.07448" lon="3.25125">
        <ele>364.4</ele>
        <time>2024-04-14T09:27:06Z</time>
      </trkpt>
      <trkpt lat="46.07442" lon="3.25121">
        <ele>364.6</ele>
        <time>2024-04-14T09:27:07Z</time>
      </trkpt>
      <trkpt lat="46.07436" lon="3.25116">
        <ele>364.6</ele>
        <time>2024-04-14T09:27:08Z</time>
      </trkpt>
      <trkpt lat="46.07431" lon="3.25112">
        <ele>364.6</ele>
        <time>2024-04-14T09:27:09Z</time>
      </trkpt>
      <trkpt lat="46.07426" lon="3.25107">
        <ele>364.4</ele>
        <time>2024-04-14T09:27:10Z</time>
      </trkpt>
      <trkpt lat="46.0742" lon="3.25102">
        <ele>364.4</ele>
        <time>2024-04-14T09:27:11Z</time>
      </trkpt>
      <trkpt lat="46.07416" lon="3.25094">
        <ele>364.4</ele>
        <time>2024-04-14T09:27:12Z</time>
      </trkpt>
      <trkpt lat="46.07412" lon="3.25086">
        <ele>364.4</ele>
        <time>2024-04-14T09:27:13Z</time>
      </trkpt>
      <trkpt lat="46.07407" lon="3.2508">
        <ele>364.4</ele>
        <time>2024-04-14T09:27:14Z</time>
      </trkpt>
      <trkpt lat="46.07402" lon="3.25074">
        <ele>364.4</ele>
        <time>2024-04-14T09:27:15Z</time>
      </trkpt>
      <trkpt lat="46.07396" lon="3.25068">
        <ele>364.4</ele>
        <time>2024-04-14T09:27:16Z</time>
      </trkpt>
      <trkpt lat="46.07391" lon="3.25062">
        <ele>364.4</ele>
        <time>2024-04-14T09:27:17Z</time>
      </trkpt>
      <trkpt lat="46.07386" lon="3.25056">
        <ele>364.4</ele>
        <time>2024-04-14T09:27:18Z</time>
      </trkpt>
      <trkpt lat="46.07381" lon="3.25051">
        <ele>364.4</ele>
        <time>2024-04-14T09:27:19Z</time>
      </trkpt>
      <trkpt lat="46.07376" lon="3.25045">
        <ele>364.4</ele>
        <time>2024-04-14T09:27:20Z</time>
      </trkpt>
      <trkpt lat="46.07371" lon="3.25039">
        <ele>364.4</ele>
        <time>2024-04-14T09:27:21Z</time>
      </trkpt>
      <trkpt lat="46.07365" lon="3.25034">
        <ele>364.4</ele>
        <time>2024-04-14T09:27:22Z</time>
      </trkpt>
      <trkpt lat="46.0736" lon="3.25028">
        <ele>364.4</ele>
        <time>2024-04-14T09:27:23Z</time>
      </trkpt>
      <trkpt lat="46.07355" lon="3.25022">
        <ele>364.4</ele>
        <time>2024-04-14T09:27:24Z</time>
      </trkpt>
      <trkpt lat="46.0735" lon="3.25016">
        <ele>364.4</ele>
        <time>2024-04-14T09:27:25Z</time>
      </trkpt>
      <trkpt lat="46.07345" lon="3.25011">
        <ele>364.4</ele>
        <time>2024-04-14T09:27:26Z</time>
      </trkpt>
      <trkpt lat="46.07339" lon="3.25005">
        <ele>364.4</ele>
        <time>2024-04-14T09:27:27Z</time>
      </trkpt>
      <trkpt lat="46.07334" lon="3.24999">
        <ele>364.4</ele>
        <time>2024-04-14T09:27:28Z</time>
      </trkpt>
      <trkpt lat="46.07329" lon="3.24993">
        <ele>364.4</ele>
        <time>2024-04-14T09:27:29Z</time>
      </trkpt>
      <trkpt lat="46.07324" lon="3.24988">
        <ele>364.2</ele>
        <time>2024-04-14T09:27:30Z</time>
      </trkpt>
      <trkpt lat="46.07319" lon="3.24982">
        <ele>364.4</ele>
        <time>2024-04-14T09:27:31Z</time>
      </trkpt>
      <trkpt lat="46.07313" lon="3.24976">
        <ele>364.2</ele>
        <time>2024-04-14T09:27:32Z</time>
      </trkpt>
      <trkpt lat="46.07308" lon="3.2497">
        <ele>364.4</ele>
        <time>2024-04-14T09:27:33Z</time>
      </trkpt>
      <trkpt lat="46.07303" lon="3.24964">
        <ele>364.4</ele>
        <time>2024-04-14T09:27:34Z</time>
      </trkpt>
      <trkpt lat="46.07298" lon="3.24959">
        <ele>364.4</ele>
        <time>2024-04-14T09:27:35Z</time>
      </trkpt>
      <trkpt lat="46.07292" lon="3.24953">
        <ele>364.4</ele>
        <time>2024-04-14T09:27:36Z</time>
      </trkpt>
      <trkpt lat="46.07287" lon="3.24947">
        <ele>364.4</ele>
        <time>2024-04-14T09:27:37Z</time>
      </trkpt>
      <trkpt lat="46.07282" lon="3.24941">
        <ele>364.4</ele>
        <time>2024-04-14T09:27:38Z</time>
      </trkpt>
      <trkpt lat="46.07277" lon="3.24935">
        <ele>364.4</ele>
        <time>2024-04-14T09:27:39Z</time>
      </trkpt>
      <trkpt lat="46.07271" lon="3.24929">
        <ele>364.4</ele>
        <time>2024-04-14T09:27:40Z</time>
      </trkpt>
      <trkpt lat="46.07266" lon="3.24924">
        <ele>364.4</ele>
        <time>2024-04-14T09:27:41Z</time>
      </trkpt>
      <trkpt lat="46.07261" lon="3.24918">
        <ele>364.4</ele>
        <time>2024-04-14T09:27:42Z</time>
      </trkpt>
      <trkpt lat="46.07256" lon="3.24913">
        <ele>364.2</ele>
        <time>2024-04-14T09:27:43Z</time>
      </trkpt>
      <trkpt lat="46.07251" lon="3.24907">
        <ele>364.4</ele>
        <time>2024-04-14T09:27:44Z</time>
      </trkpt>
      <trkpt lat="46.07248" lon="3.249">
        <ele>364.4</ele>
        <time>2024-04-14T09:27:45Z</time>
      </trkpt>
      <trkpt lat="46.07244" lon="3.24893">
        <ele>364.4</ele>
        <time>2024-04-14T09:27:46Z</time>
      </trkpt>
      <trkpt lat="46.0724" lon="3.24885">
        <ele>364.4</ele>
        <time>2024-04-14T09:27:47Z</time>
      </trkpt>
      <trkpt lat="46.07235" lon="3.24878">
        <ele>364.4</ele>
        <time>2024-04-14T09:27:48Z</time>
      </trkpt>
      <trkpt lat="46.07231" lon="3.24871">
        <ele>364.4</ele>
        <time>2024-04-14T09:27:49Z</time>
      </trkpt>
      <trkpt lat="46.07227" lon="3.24863">
        <ele>364.4</ele>
        <time>2024-04-14T09:27:50Z</time>
      </trkpt>
      <trkpt lat="46.07223" lon="3.24856">
        <ele>364.4</ele>
        <time>2024-04-14T09:27:51Z</time>
      </trkpt>
      <trkpt lat="46.07219" lon="3.24848">
        <ele>364.4</ele>
        <time>2024-04-14T09:27:52Z</time>
      </trkpt>
      <trkpt lat="46.07215" lon="3.24841">
        <ele>364.4</ele>
        <time>2024-04-14T09:27:53Z</time>
      </trkpt>
      <trkpt lat="46.07211" lon="3.24833">
        <ele>364.4</ele>
        <time>2024-04-14T09:27:54Z</time>
      </trkpt>
      <trkpt lat="46.07207" lon="3.24826">
        <ele>364.4</ele>
        <time>2024-04-14T09:27:55Z</time>
      </trkpt>
      <trkpt lat="46.07203" lon="3.24819">
        <ele>364.4</ele>
        <time>2024-04-14T09:27:56Z</time>
      </trkpt>
      <trkpt lat="46.07199" lon="3.24811">
        <ele>364.4</ele>
        <time>2024-04-14T09:27:57Z</time>
      </trkpt>
      <trkpt lat="46.07195" lon="3.24804">
        <ele>364.6</ele>
        <time>2024-04-14T09:27:58Z</time>
      </trkpt>
      <trkpt lat="46.0719" lon="3.24797">
        <ele>364.6</ele>
        <time>2024-04-14T09:27:59Z</time>
      </trkpt>
      <trkpt lat="46.07186" lon="3.24789">
        <ele>364.6</ele>
        <time>2024-04-14T09:28:00Z</time>
      </trkpt>
      <trkpt lat="46.07182" lon="3.24782">
        <ele>364.6</ele>
        <time>2024-04-14T09:28:01Z</time>
      </trkpt>
      <trkpt lat="46.07178" lon="3.24774">
        <ele>364.6</ele>
        <time>2024-04-14T09:28:02Z</time>
      </trkpt>
      <trkpt lat="46.07174" lon="3.24767">
        <ele>364.6</ele>
        <time>2024-04-14T09:28:03Z</time>
      </trkpt>
      <trkpt lat="46.07169" lon="3.24761">
        <ele>364.6</ele>
        <time>2024-04-14T09:28:04Z</time>
      </trkpt>
      <trkpt lat="46.07164" lon="3.24755">
        <ele>364.6</ele>
        <time>2024-04-14T09:28:05Z</time>
      </trkpt>
      <trkpt lat="46.07159" lon="3.24749">
        <ele>364.6</ele>
        <time>2024-04-14T09:28:06Z</time>
      </trkpt>
      <trkpt lat="46.07155" lon="3.24744">
        <ele>364.8</ele>
        <time>2024-04-14T09:28:07Z</time>
      </trkpt>
      <trkpt lat="46.07149" lon="3.24738">
        <ele>364.8</ele>
        <time>2024-04-14T09:28:08Z</time>
      </trkpt>
      <trkpt lat="46.07144" lon="3.24732">
        <ele>364.8</ele>
        <time>2024-04-14T09:28:09Z</time>
      </trkpt>
      <trkpt lat="46.07139" lon="3.24726">
        <ele>364.8</ele>
        <time>2024-04-14T09:28:10Z</time>
      </trkpt>
      <trkpt lat="46.07134" lon="3.2472">
        <ele>364.8</ele>
        <time>2024-04-14T09:28:11Z</time>
      </trkpt>
      <trkpt lat="46.07128" lon="3.24714">
        <ele>364.8</ele>
        <time>2024-04-14T09:28:12Z</time>
      </trkpt>
      <trkpt lat="46.07123" lon="3.24709">
        <ele>364.8</ele>
        <time>2024-04-14T09:28:13Z</time>
      </trkpt>
      <trkpt lat="46.07118" lon="3.24703">
        <ele>364.8</ele>
        <time>2024-04-14T09:28:14Z</time>
      </trkpt>
      <trkpt lat="46.07113" lon="3.24697">
        <ele>364.8</ele>
        <time>2024-04-14T09:28:15Z</time>
      </trkpt>
      <trkpt lat="46.07108" lon="3.24691">
        <ele>365</ele>
        <time>2024-04-14T09:28:16Z</time>
      </trkpt>
      <trkpt lat="46.07103" lon="3.24686">
        <ele>365</ele>
        <time>2024-04-14T09:28:17Z</time>
      </trkpt>
      <trkpt lat="46.07098" lon="3.2468">
        <ele>365</ele>
        <time>2024-04-14T09:28:18Z</time>
      </trkpt>
      <trkpt lat="46.07093" lon="3.24675">
        <ele>365.2</ele>
        <time>2024-04-14T09:28:19Z</time>
      </trkpt>
      <trkpt lat="46.07088" lon="3.24669">
        <ele>365.2</ele>
        <time>2024-04-14T09:28:20Z</time>
      </trkpt>
      <trkpt lat="46.07083" lon="3.24663">
        <ele>365.2</ele>
        <time>2024-04-14T09:28:21Z</time>
      </trkpt>
      <trkpt lat="46.07078" lon="3.24658">
        <ele>365.2</ele>
        <time>2024-04-14T09:28:22Z</time>
      </trkpt>
      <trkpt lat="46.07073" lon="3.24652">
        <ele>365.2</ele>
        <time>2024-04-14T09:28:23Z</time>
      </trkpt>
      <trkpt lat="46.07069" lon="3.24646">
        <ele>365.4</ele>
        <time>2024-04-14T09:28:24Z</time>
      </trkpt>
      <trkpt lat="46.07064" lon="3.24639">
        <ele>365.4</ele>
        <time>2024-04-14T09:28:25Z</time>
      </trkpt>
      <trkpt lat="46.0706" lon="3.24633">
        <ele>365.4</ele>
        <time>2024-04-14T09:28:26Z</time>
      </trkpt>
      <trkpt lat="46.07056" lon="3.24627">
        <ele>365.4</ele>
        <time>2024-04-14T09:28:27Z</time>
      </trkpt>
      <trkpt lat="46.07051" lon="3.24621">
        <ele>365.4</ele>
        <time>2024-04-14T09:28:28Z</time>
      </trkpt>
      <trkpt lat="46.07047" lon="3.24615">
        <ele>365.4</ele>
        <time>2024-04-14T09:28:29Z</time>
      </trkpt>
      <trkpt lat="46.07043" lon="3.24608">
        <ele>365.6</ele>
        <time>2024-04-14T09:28:30Z</time>
      </trkpt>
      <trkpt lat="46.07039" lon="3.24603">
        <ele>365.6</ele>
        <time>2024-04-14T09:28:31Z</time>
      </trkpt>
      <trkpt lat="46.07034" lon="3.24596">
        <ele>365.6</ele>
        <time>2024-04-14T09:28:32Z</time>
      </trkpt>
      <trkpt lat="46.0703" lon="3.2459">
        <ele>365.8</ele>
        <time>2024-04-14T09:28:33Z</time>
      </trkpt>
      <trkpt lat="46.07025" lon="3.24584">
        <ele>365.8</ele>
        <time>2024-04-14T09:28:34Z</time>
      </trkpt>
      <trkpt lat="46.07021" lon="3.24578">
        <ele>365.8</ele>
        <time>2024-04-14T09:28:35Z</time>
      </trkpt>
      <trkpt lat="46.07017" lon="3.24571">
        <ele>365.8</ele>
        <time>2024-04-14T09:28:36Z</time>
      </trkpt>
      <trkpt lat="46.07012" lon="3.24565">
        <ele>366</ele>
        <time>2024-04-14T09:28:37Z</time>
      </trkpt>
      <trkpt lat="46.07008" lon="3.24559">
        <ele>366</ele>
        <time>2024-04-14T09:28:38Z</time>
      </trkpt>
      <trkpt lat="46.07003" lon="3.24552">
        <ele>366</ele>
        <time>2024-04-14T09:28:39Z</time>
      </trkpt>
      <trkpt lat="46.06999" lon="3.24546">
        <ele>366</ele>
        <time>2024-04-14T09:28:40Z</time>
      </trkpt>
      <trkpt lat="46.06995" lon="3.2454">
        <ele>366</ele>
        <time>2024-04-14T09:28:41Z</time>
      </trkpt>
      <trkpt lat="46.0699" lon="3.24534">
        <ele>366.2</ele>
        <time>2024-04-14T09:28:42Z</time>
      </trkpt>
      <trkpt lat="46.06986" lon="3.24528">
        <ele>366.2</ele>
        <time>2024-04-14T09:28:43Z</time>
      </trkpt>
      <trkpt lat="46.06982" lon="3.24522">
        <ele>366.2</ele>
        <time>2024-04-14T09:28:44Z</time>
      </trkpt>
      <trkpt lat="46.06977" lon="3.24516">
        <ele>366.2</ele>
        <time>2024-04-14T09:28:45Z</time>
      </trkpt>
      <trkpt lat="46.06973" lon="3.24511">
        <ele>366.4</ele>
        <time>2024-04-14T09:28:46Z</time>
      </trkpt>
      <trkpt lat="46.06968" lon="3.24506">
        <ele>366.4</ele>
        <time>2024-04-14T09:28:47Z</time>
      </trkpt>
      <trkpt lat="46.06964" lon="3.245">
        <ele>366.4</ele>
        <time>2024-04-14T09:28:48Z</time>
      </trkpt>
      <trkpt lat="46.06959" lon="3.24495">
        <ele>366.4</ele>
        <time>2024-04-14T09:28:49Z</time>
      </trkpt>
      <trkpt lat="46.06954" lon="3.24489">
        <ele>366.4</ele>
        <time>2024-04-14T09:28:50Z</time>
      </trkpt>
      <trkpt lat="46.0695" lon="3.24484">
        <ele>366.6</ele>
        <time>2024-04-14T09:28:51Z</time>
      </trkpt>
      <trkpt lat="46.06945" lon="3.24478">
        <ele>366.6</ele>
        <time>2024-04-14T09:28:52Z</time>
      </trkpt>
      <trkpt lat="46.06941" lon="3.24473">
        <ele>366.6</ele>
        <time>2024-04-14T09:28:53Z</time>
      </trkpt>
      <trkpt lat="46.06936" lon="3.24467">
        <ele>366.8</ele>
        <time>2024-04-14T09:28:54Z</time>
      </trkpt>
      <trkpt lat="46.06931" lon="3.24462">
        <ele>366.8</ele>
        <time>2024-04-14T09:28:55Z</time>
      </trkpt>
      <trkpt lat="46.06926" lon="3.24456">
        <ele>366.8</ele>
        <time>2024-04-14T09:28:56Z</time>
      </trkpt>
      <trkpt lat="46.06922" lon="3.24451">
        <ele>367</ele>
        <time>2024-04-14T09:28:57Z</time>
      </trkpt>
      <trkpt lat="46.06917" lon="3.24445">
        <ele>367</ele>
        <time>2024-04-14T09:28:58Z</time>
      </trkpt>
      <trkpt lat="46.06913" lon="3.2444">
        <ele>367.2</ele>
        <time>2024-04-14T09:28:59Z</time>
      </trkpt>
      <trkpt lat="46.06908" lon="3.24434">
        <ele>367.2</ele>
        <time>2024-04-14T09:29:00Z</time>
      </trkpt>
      <trkpt lat="46.06904" lon="3.24429">
        <ele>367.2</ele>
        <time>2024-04-14T09:29:01Z</time>
      </trkpt>
      <trkpt lat="46.06899" lon="3.24423">
        <ele>367.4</ele>
        <time>2024-04-14T09:29:02Z</time>
      </trkpt>
      <trkpt lat="46.06894" lon="3.24418">
        <ele>367.4</ele>
        <time>2024-04-14T09:29:03Z</time>
      </trkpt>
      <trkpt lat="46.06889" lon="3.24412">
        <ele>367.4</ele>
        <time>2024-04-14T09:29:04Z</time>
      </trkpt>
      <trkpt lat="46.06884" lon="3.24406">
        <ele>367.4</ele>
        <time>2024-04-14T09:29:05Z</time>
      </trkpt>
      <trkpt lat="46.0688" lon="3.24401">
        <ele>367.6</ele>
        <time>2024-04-14T09:29:06Z</time>
      </trkpt>
      <trkpt lat="46.06875" lon="3.24395">
        <ele>367.6</ele>
        <time>2024-04-14T09:29:07Z</time>
      </trkpt>
      <trkpt lat="46.06871" lon="3.2439">
        <ele>367.6</ele>
        <time>2024-04-14T09:29:08Z</time>
      </trkpt>
      <trkpt lat="46.06866" lon="3.24384">
        <ele>367.6</ele>
        <time>2024-04-14T09:29:09Z</time>
      </trkpt>
      <trkpt lat="46.06862" lon="3.24379">
        <ele>367.6</ele>
        <time>2024-04-14T09:29:10Z</time>
      </trkpt>
      <trkpt lat="46.06857" lon="3.24373">
        <ele>367.8</ele>
        <time>2024-04-14T09:29:11Z</time>
      </trkpt>
      <trkpt lat="46.06852" lon="3.24368">
        <ele>367.8</ele>
        <time>2024-04-14T09:29:12Z</time>
      </trkpt>
      <trkpt lat="46.06848" lon="3.24363">
        <ele>367.8</ele>
        <time>2024-04-14T09:29:13Z</time>
      </trkpt>
      <trkpt lat="46.06843" lon="3.24357">
        <ele>368</ele>
        <time>2024-04-14T09:29:14Z</time>
      </trkpt>
      <trkpt lat="46.06839" lon="3.24352">
        <ele>368</ele>
        <time>2024-04-14T09:29:15Z</time>
      </trkpt>
      <trkpt lat="46.06834" lon="3.24346">
        <ele>368</ele>
        <time>2024-04-14T09:29:16Z</time>
      </trkpt>
      <trkpt lat="46.0683" lon="3.24341">
        <ele>368</ele>
        <time>2024-04-14T09:29:17Z</time>
      </trkpt>
      <trkpt lat="46.06825" lon="3.24335">
        <ele>368.2</ele>
        <time>2024-04-14T09:29:18Z</time>
      </trkpt>
      <trkpt lat="46.0682" lon="3.2433">
        <ele>368.2</ele>
        <time>2024-04-14T09:29:19Z</time>
      </trkpt>
      <trkpt lat="46.06816" lon="3.24324">
        <ele>368.2</ele>
        <time>2024-04-14T09:29:20Z</time>
      </trkpt>
      <trkpt lat="46.06811" lon="3.24319">
        <ele>368.4</ele>
        <time>2024-04-14T09:29:21Z</time>
      </trkpt>
      <trkpt lat="46.06806" lon="3.24313">
        <ele>368.4</ele>
        <time>2024-04-14T09:29:22Z</time>
      </trkpt>
      <trkpt lat="46.06802" lon="3.24308">
        <ele>368.4</ele>
        <time>2024-04-14T09:29:23Z</time>
      </trkpt>
      <trkpt lat="46.06797" lon="3.24302">
        <ele>368.6</ele>
        <time>2024-04-14T09:29:24Z</time>
      </trkpt>
      <trkpt lat="46.06792" lon="3.24297">
        <ele>368.6</ele>
        <time>2024-04-14T09:29:25Z</time>
      </trkpt>
      <trkpt lat="46.06788" lon="3.24291">
        <ele>368.8</ele>
        <time>2024-04-14T09:29:26Z</time>
      </trkpt>
      <trkpt lat="46.06784" lon="3.24284">
        <ele>368.8</ele>
        <time>2024-04-14T09:29:27Z</time>
      </trkpt>
      <trkpt lat="46.0678" lon="3.24278">
        <ele>368.8</ele>
        <time>2024-04-14T09:29:28Z</time>
      </trkpt>
      <trkpt lat="46.06777" lon="3.24271">
        <ele>369</ele>
        <time>2024-04-14T09:29:29Z</time>
      </trkpt>
      <trkpt lat="46.06773" lon="3.24265">
        <ele>369</ele>
        <time>2024-04-14T09:29:30Z</time>
      </trkpt>
      <trkpt lat="46.06769" lon="3.24258">
        <ele>369</ele>
        <time>2024-04-14T09:29:31Z</time>
      </trkpt>
      <trkpt lat="46.06766" lon="3.24251">
        <ele>369.2</ele>
        <time>2024-04-14T09:29:32Z</time>
      </trkpt>
      <trkpt lat="46.06762" lon="3.24244">
        <ele>369.2</ele>
        <time>2024-04-14T09:29:33Z</time>
      </trkpt>
      <trkpt lat="46.06758" lon="3.24238">
        <ele>369.2</ele>
        <time>2024-04-14T09:29:34Z</time>
      </trkpt>
      <trkpt lat="46.06754" lon="3.24231">
        <ele>369.4</ele>
        <time>2024-04-14T09:29:35Z</time>
      </trkpt>
      <trkpt lat="46.06751" lon="3.24224">
        <ele>369.4</ele>
        <time>2024-04-14T09:29:36Z</time>
      </trkpt>
      <trkpt lat="46.06747" lon="3.24218">
        <ele>369.4</ele>
        <time>2024-04-14T09:29:37Z</time>
      </trkpt>
      <trkpt lat="46.06743" lon="3.24211">
        <ele>369.6</ele>
        <time>2024-04-14T09:29:38Z</time>
      </trkpt>
      <trkpt lat="46.0674" lon="3.24205">
        <ele>369.6</ele>
        <time>2024-04-14T09:29:39Z</time>
      </trkpt>
      <trkpt lat="46.06736" lon="3.24198">
        <ele>369.8</ele>
        <time>2024-04-14T09:29:40Z</time>
      </trkpt>
      <trkpt lat="46.06732" lon="3.24192">
        <ele>369.8</ele>
        <time>2024-04-14T09:29:41Z</time>
      </trkpt>
      <trkpt lat="46.06729" lon="3.24185">
        <ele>369.8</ele>
        <time>2024-04-14T09:29:42Z</time>
      </trkpt>
      <trkpt lat="46.06725" lon="3.24178">
        <ele>370</ele>
        <time>2024-04-14T09:29:43Z</time>
      </trkpt>
      <trkpt lat="46.06721" lon="3.24171">
        <ele>370</ele>
        <time>2024-04-14T09:29:44Z</time>
      </trkpt>
      <trkpt lat="46.06717" lon="3.24165">
        <ele>370</ele>
        <time>2024-04-14T09:29:45Z</time>
      </trkpt>
      <trkpt lat="46.06713" lon="3.24158">
        <ele>370.2</ele>
        <time>2024-04-14T09:29:46Z</time>
      </trkpt>
      <trkpt lat="46.06709" lon="3.24151">
        <ele>370.2</ele>
        <time>2024-04-14T09:29:47Z</time>
      </trkpt>
      <trkpt lat="46.06705" lon="3.24143">
        <ele>370.2</ele>
        <time>2024-04-14T09:29:48Z</time>
      </trkpt>
      <trkpt lat="46.06701" lon="3.24137">
        <ele>370.2</ele>
        <time>2024-04-14T09:29:49Z</time>
      </trkpt>
      <trkpt lat="46.06698" lon="3.2413">
        <ele>370.2</ele>
        <time>2024-04-14T09:29:50Z</time>
      </trkpt>
      <trkpt lat="46.06694" lon="3.24123">
        <ele>370.4</ele>
        <time>2024-04-14T09:29:51Z</time>
      </trkpt>
      <trkpt lat="46.0669" lon="3.24116">
        <ele>370.4</ele>
        <time>2024-04-14T09:29:52Z</time>
      </trkpt>
      <trkpt lat="46.06686" lon="3.24109">
        <ele>370.6</ele>
        <time>2024-04-14T09:29:53Z</time>
      </trkpt>
      <trkpt lat="46.06682" lon="3.24102">
        <ele>370.6</ele>
        <time>2024-04-14T09:29:54Z</time>
      </trkpt>
      <trkpt lat="46.06678" lon="3.24096">
        <ele>370.6</ele>
        <time>2024-04-14T09:29:55Z</time>
      </trkpt>
      <trkpt lat="46.06674" lon="3.24089">
        <ele>370.8</ele>
        <time>2024-04-14T09:29:56Z</time>
      </trkpt>
      <trkpt lat="46.0667" lon="3.24083">
        <ele>370.8</ele>
        <time>2024-04-14T09:29:57Z</time>
      </trkpt>
      <trkpt lat="46.06665" lon="3.24076">
        <ele>370.8</ele>
        <time>2024-04-14T09:29:58Z</time>
      </trkpt>
      <trkpt lat="46.0666" lon="3.24069">
        <ele>371</ele>
        <time>2024-04-14T09:29:59Z</time>
      </trkpt>
      <trkpt lat="46.06656" lon="3.24063">
        <ele>371</ele>
        <time>2024-04-14T09:30:00Z</time>
      </trkpt>
      <trkpt lat="46.06652" lon="3.24056">
        <ele>371</ele>
        <time>2024-04-14T09:30:01Z</time>
      </trkpt>
      <trkpt lat="46.06647" lon="3.2405">
        <ele>371.2</ele>
        <time>2024-04-14T09:30:02Z</time>
      </trkpt>
      <trkpt lat="46.06643" lon="3.24043">
        <ele>371.2</ele>
        <time>2024-04-14T09:30:03Z</time>
      </trkpt>
      <trkpt lat="46.06638" lon="3.24036">
        <ele>371.2</ele>
        <time>2024-04-14T09:30:04Z</time>
      </trkpt>
      <trkpt lat="46.06634" lon="3.2403">
        <ele>371.2</ele>
        <time>2024-04-14T09:30:05Z</time>
      </trkpt>
      <trkpt lat="46.06629" lon="3.24023">
        <ele>371.4</ele>
        <time>2024-04-14T09:30:06Z</time>
      </trkpt>
      <trkpt lat="46.06625" lon="3.24016">
        <ele>371.4</ele>
        <time>2024-04-14T09:30:07Z</time>
      </trkpt>
      <trkpt lat="46.0662" lon="3.2401">
        <ele>371.4</ele>
        <time>2024-04-14T09:30:08Z</time>
      </trkpt>
      <trkpt lat="46.06616" lon="3.24003">
        <ele>371.4</ele>
        <time>2024-04-14T09:30:09Z</time>
      </trkpt>
      <trkpt lat="46.06611" lon="3.23996">
        <ele>371.6</ele>
        <time>2024-04-14T09:30:10Z</time>
      </trkpt>
      <trkpt lat="46.06607" lon="3.2399">
        <ele>371.6</ele>
        <time>2024-04-14T09:30:11Z</time>
      </trkpt>
      <trkpt lat="46.06602" lon="3.23983">
        <ele>371.6</ele>
        <time>2024-04-14T09:30:12Z</time>
      </trkpt>
      <trkpt lat="46.06598" lon="3.23977">
        <ele>371.8</ele>
        <time>2024-04-14T09:30:13Z</time>
      </trkpt>
      <trkpt lat="46.06593" lon="3.2397">
        <ele>371.8</ele>
        <time>2024-04-14T09:30:14Z</time>
      </trkpt>
      <trkpt lat="46.06589" lon="3.23963">
        <ele>371.8</ele>
        <time>2024-04-14T09:30:15Z</time>
      </trkpt>
      <trkpt lat="46.06585" lon="3.23957">
        <ele>371.8</ele>
        <time>2024-04-14T09:30:16Z</time>
      </trkpt>
      <trkpt lat="46.0658" lon="3.2395">
        <ele>372</ele>
        <time>2024-04-14T09:30:17Z</time>
      </trkpt>
      <trkpt lat="46.06576" lon="3.23944">
        <ele>372</ele>
        <time>2024-04-14T09:30:18Z</time>
      </trkpt>
      <trkpt lat="46.06571" lon="3.23937">
        <ele>372</ele>
        <time>2024-04-14T09:30:19Z</time>
      </trkpt>
      <trkpt lat="46.06567" lon="3.23931">
        <ele>372.2</ele>
        <time>2024-04-14T09:30:20Z</time>
      </trkpt>
      <trkpt lat="46.06562" lon="3.23924">
        <ele>372.2</ele>
        <time>2024-04-14T09:30:21Z</time>
      </trkpt>
      <trkpt lat="46.06558" lon="3.23918">
        <ele>372.2</ele>
        <time>2024-04-14T09:30:22Z</time>
      </trkpt>
      <trkpt lat="46.06553" lon="3.23912">
        <ele>372.4</ele>
        <time>2024-04-14T09:30:23Z</time>
      </trkpt>
      <trkpt lat="46.06548" lon="3.23906">
        <ele>372.4</ele>
        <time>2024-04-14T09:30:24Z</time>
      </trkpt>
      <trkpt lat="46.06542" lon="3.23902">
        <ele>372.4</ele>
        <time>2024-04-14T09:30:25Z</time>
      </trkpt>
      <trkpt lat="46.06536" lon="3.23898">
        <ele>372.4</ele>
        <time>2024-04-14T09:30:26Z</time>
      </trkpt>
      <trkpt lat="46.0653" lon="3.23894">
        <ele>372.4</ele>
        <time>2024-04-14T09:30:27Z</time>
      </trkpt>
      <trkpt lat="46.06524" lon="3.23889">
        <ele>372.4</ele>
        <time>2024-04-14T09:30:28Z</time>
      </trkpt>
      <trkpt lat="46.06518" lon="3.23885">
        <ele>372.4</ele>
        <time>2024-04-14T09:30:29Z</time>
      </trkpt>
      <trkpt lat="46.06512" lon="3.23881">
        <ele>372.4</ele>
        <time>2024-04-14T09:30:30Z</time>
      </trkpt>
      <trkpt lat="46.06506" lon="3.23877">
        <ele>372.4</ele>
        <time>2024-04-14T09:30:31Z</time>
      </trkpt>
      <trkpt lat="46.06499" lon="3.23872">
        <ele>372.4</ele>
        <time>2024-04-14T09:30:32Z</time>
      </trkpt>
      <trkpt lat="46.06493" lon="3.23868">
        <ele>372.4</ele>
        <time>2024-04-14T09:30:33Z</time>
      </trkpt>
      <trkpt lat="46.06487" lon="3.23864">
        <ele>372.2</ele>
        <time>2024-04-14T09:30:34Z</time>
      </trkpt>
      <trkpt lat="46.0648" lon="3.23859">
        <ele>372.2</ele>
        <time>2024-04-14T09:30:35Z</time>
      </trkpt>
      <trkpt lat="46.06474" lon="3.23855">
        <ele>372.2</ele>
        <time>2024-04-14T09:30:36Z</time>
      </trkpt>
      <trkpt lat="46.06467" lon="3.2385">
        <ele>372.8</ele>
        <time>2024-04-14T09:30:37Z</time>
      </trkpt>
      <trkpt lat="46.0646" lon="3.23845">
        <ele>372.4</ele>
        <time>2024-04-14T09:30:38Z</time>
      </trkpt>
      <trkpt lat="46.06453" lon="3.23839">
        <ele>372</ele>
        <time>2024-04-14T09:30:39Z</time>
      </trkpt>
      <trkpt lat="46.06446" lon="3.23833">
        <ele>371.6</ele>
        <time>2024-04-14T09:30:40Z</time>
      </trkpt>
      <trkpt lat="46.06439" lon="3.23827">
        <ele>371.4</ele>
        <time>2024-04-14T09:30:41Z</time>
      </trkpt>
      <trkpt lat="46.06432" lon="3.23821">
        <ele>371.8</ele>
        <time>2024-04-14T09:30:42Z</time>
      </trkpt>
      <trkpt lat="46.06425" lon="3.23814">
        <ele>371.6</ele>
        <time>2024-04-14T09:30:43Z</time>
      </trkpt>
      <trkpt lat="46.06419" lon="3.23806">
        <ele>371.6</ele>
        <time>2024-04-14T09:30:44Z</time>
      </trkpt>
      <trkpt lat="46.06413" lon="3.23797">
        <ele>371.6</ele>
        <time>2024-04-14T09:30:45Z</time>
      </trkpt>
      <trkpt lat="46.06407" lon="3.23789">
        <ele>371.4</ele>
        <time>2024-04-14T09:30:46Z</time>
      </trkpt>
      <trkpt lat="46.064" lon="3.2378">
        <ele>371.4</ele>
        <time>2024-04-14T09:30:47Z</time>
      </trkpt>
      <trkpt lat="46.06394" lon="3.23771">
        <ele>371.4</ele>
        <time>2024-04-14T09:30:48Z</time>
      </trkpt>
      <trkpt lat="46.06387" lon="3.23762">
        <ele>371.2</ele>
        <time>2024-04-14T09:30:49Z</time>
      </trkpt>
      <trkpt lat="46.06381" lon="3.23754">
        <ele>371.2</ele>
        <time>2024-04-14T09:30:50Z</time>
      </trkpt>
      <trkpt lat="46.06375" lon="3.23745">
        <ele>371</ele>
        <time>2024-04-14T09:30:51Z</time>
      </trkpt>
      <trkpt lat="46.06369" lon="3.23737">
        <ele>371</ele>
        <time>2024-04-14T09:30:52Z</time>
      </trkpt>
      <trkpt lat="46.06362" lon="3.23728">
        <ele>370.8</ele>
        <time>2024-04-14T09:30:53Z</time>
      </trkpt>
      <trkpt lat="46.06356" lon="3.23719">
        <ele>370.8</ele>
        <time>2024-04-14T09:30:54Z</time>
      </trkpt>
      <trkpt lat="46.06349" lon="3.2371">
        <ele>370.6</ele>
        <time>2024-04-14T09:30:55Z</time>
      </trkpt>
      <trkpt lat="46.06343" lon="3.23702">
        <ele>370.6</ele>
        <time>2024-04-14T09:30:56Z</time>
      </trkpt>
      <trkpt lat="46.06337" lon="3.23693">
        <ele>370.4</ele>
        <time>2024-04-14T09:30:57Z</time>
      </trkpt>
      <trkpt lat="46.0633" lon="3.23685">
        <ele>370.4</ele>
        <time>2024-04-14T09:30:58Z</time>
      </trkpt>
      <trkpt lat="46.06324" lon="3.23677">
        <ele>370.4</ele>
        <time>2024-04-14T09:30:59Z</time>
      </trkpt>
      <trkpt lat="46.06318" lon="3.2367">
        <ele>370.2</ele>
        <time>2024-04-14T09:31:00Z</time>
      </trkpt>
      <trkpt lat="46.06312" lon="3.23662">
        <ele>370.2</ele>
        <time>2024-04-14T09:31:01Z</time>
      </trkpt>
      <trkpt lat="46.06306" lon="3.23655">
        <ele>370.2</ele>
        <time>2024-04-14T09:31:02Z</time>
      </trkpt>
      <trkpt lat="46.063" lon="3.23648">
        <ele>370</ele>
        <time>2024-04-14T09:31:03Z</time>
      </trkpt>
      <trkpt lat="46.06294" lon="3.23642">
        <ele>370</ele>
        <time>2024-04-14T09:31:04Z</time>
      </trkpt>
      <trkpt lat="46.06287" lon="3.23637">
        <ele>369.8</ele>
        <time>2024-04-14T09:31:05Z</time>
      </trkpt>
      <trkpt lat="46.0628" lon="3.23632">
        <ele>369.8</ele>
        <time>2024-04-14T09:31:06Z</time>
      </trkpt>
      <trkpt lat="46.06273" lon="3.23627">
        <ele>369.8</ele>
        <time>2024-04-14T09:31:07Z</time>
      </trkpt>
      <trkpt lat="46.06266" lon="3.23621">
        <ele>369.6</ele>
        <time>2024-04-14T09:31:08Z</time>
      </trkpt>
      <trkpt lat="46.06259" lon="3.23616">
        <ele>369.4</ele>
        <time>2024-04-14T09:31:09Z</time>
      </trkpt>
      <trkpt lat="46.06252" lon="3.23611">
        <ele>369.4</ele>
        <time>2024-04-14T09:31:10Z</time>
      </trkpt>
      <trkpt lat="46.06245" lon="3.23606">
        <ele>369.4</ele>
        <time>2024-04-14T09:31:11Z</time>
      </trkpt>
      <trkpt lat="46.06238" lon="3.23601">
        <ele>369.2</ele>
        <time>2024-04-14T09:31:12Z</time>
      </trkpt>
      <trkpt lat="46.0623" lon="3.23596">
        <ele>369</ele>
        <time>2024-04-14T09:31:13Z</time>
      </trkpt>
      <trkpt lat="46.06223" lon="3.23591">
        <ele>369</ele>
        <time>2024-04-14T09:31:14Z</time>
      </trkpt>
      <trkpt lat="46.06216" lon="3.23586">
        <ele>368.8</ele>
        <time>2024-04-14T09:31:15Z</time>
      </trkpt>
      <trkpt lat="46.06209" lon="3.23581">
        <ele>368.8</ele>
        <time>2024-04-14T09:31:16Z</time>
      </trkpt>
      <trkpt lat="46.06202" lon="3.23576">
        <ele>368.8</ele>
        <time>2024-04-14T09:31:17Z</time>
      </trkpt>
      <trkpt lat="46.06195" lon="3.2357">
        <ele>368.6</ele>
        <time>2024-04-14T09:31:18Z</time>
      </trkpt>
      <trkpt lat="46.06188" lon="3.23565">
        <ele>368.6</ele>
        <time>2024-04-14T09:31:19Z</time>
      </trkpt>
      <trkpt lat="46.06181" lon="3.2356">
        <ele>368.4</ele>
        <time>2024-04-14T09:31:20Z</time>
      </trkpt>
      <trkpt lat="46.06175" lon="3.23556">
        <ele>368.4</ele>
        <time>2024-04-14T09:31:21Z</time>
      </trkpt>
      <trkpt lat="46.06168" lon="3.23551">
        <ele>368.4</ele>
        <time>2024-04-14T09:31:22Z</time>
      </trkpt>
      <trkpt lat="46.06163" lon="3.23544">
        <ele>368.2</ele>
        <time>2024-04-14T09:31:23Z</time>
      </trkpt>
      <trkpt lat="46.06157" lon="3.23536">
        <ele>368.2</ele>
        <time>2024-04-14T09:31:24Z</time>
      </trkpt>
      <trkpt lat="46.06152" lon="3.23528">
        <ele>368</ele>
        <time>2024-04-14T09:31:25Z</time>
      </trkpt>
      <trkpt lat="46.06147" lon="3.2352">
        <ele>368</ele>
        <time>2024-04-14T09:31:26Z</time>
      </trkpt>
      <trkpt lat="46.06142" lon="3.23511">
        <ele>367.8</ele>
        <time>2024-04-14T09:31:27Z</time>
      </trkpt>
      <trkpt lat="46.06137" lon="3.23503">
        <ele>367.8</ele>
        <time>2024-04-14T09:31:28Z</time>
      </trkpt>
      <trkpt lat="46.06132" lon="3.23495">
        <ele>367.8</ele>
        <time>2024-04-14T09:31:29Z</time>
      </trkpt>
      <trkpt lat="46.06127" lon="3.23488">
        <ele>367.8</ele>
        <time>2024-04-14T09:31:30Z</time>
      </trkpt>
      <trkpt lat="46.06122" lon="3.2348">
        <ele>367.6</ele>
        <time>2024-04-14T09:31:31Z</time>
      </trkpt>
      <trkpt lat="46.06117" lon="3.23472">
        <ele>367.6</ele>
        <time>2024-04-14T09:31:32Z</time>
      </trkpt>
      <trkpt lat="46.06112" lon="3.23464">
        <ele>367.4</ele>
        <time>2024-04-14T09:31:33Z</time>
      </trkpt>
      <trkpt lat="46.06107" lon="3.23457">
        <ele>367.4</ele>
        <time>2024-04-14T09:31:34Z</time>
      </trkpt>
      <trkpt lat="46.06104" lon="3.23446">
        <ele>367.2</ele>
        <time>2024-04-14T09:31:35Z</time>
      </trkpt>
      <trkpt lat="46.06103" lon="3.23433">
        <ele>367.2</ele>
        <time>2024-04-14T09:31:36Z</time>
      </trkpt>
      <trkpt lat="46.06105" lon="3.23423">
        <ele>367</ele>
        <time>2024-04-14T09:31:37Z</time>
      </trkpt>
      <trkpt lat="46.06107" lon="3.23412">
        <ele>367</ele>
        <time>2024-04-14T09:31:38Z</time>
      </trkpt>
      <trkpt lat="46.06109" lon="3.23401">
        <ele>367</ele>
        <time>2024-04-14T09:31:39Z</time>
      </trkpt>
      <trkpt lat="46.06112" lon="3.23389">
        <ele>366.8</ele>
        <time>2024-04-14T09:31:40Z</time>
      </trkpt>
      <trkpt lat="46.06114" lon="3.23377">
        <ele>366.8</ele>
        <time>2024-04-14T09:31:41Z</time>
      </trkpt>
      <trkpt lat="46.06116" lon="3.23366">
        <ele>366.6</ele>
        <time>2024-04-14T09:31:42Z</time>
      </trkpt>
      <trkpt lat="46.06118" lon="3.23354">
        <ele>366.6</ele>
        <time>2024-04-14T09:31:43Z</time>
      </trkpt>
      <trkpt lat="46.0612" lon="3.23343">
        <ele>366.6</ele>
        <time>2024-04-14T09:31:44Z</time>
      </trkpt>
      <trkpt lat="46.06122" lon="3.23331">
        <ele>366.4</ele>
        <time>2024-04-14T09:31:45Z</time>
      </trkpt>
      <trkpt lat="46.06124" lon="3.23319">
        <ele>366.4</ele>
        <time>2024-04-14T09:31:46Z</time>
      </trkpt>
      <trkpt lat="46.06127" lon="3.23308">
        <ele>366.2</ele>
        <time>2024-04-14T09:31:47Z</time>
      </trkpt>
      <trkpt lat="46.06129" lon="3.23296">
        <ele>366.2</ele>
        <time>2024-04-14T09:31:48Z</time>
      </trkpt>
      <trkpt lat="46.06131" lon="3.23285">
        <ele>366</ele>
        <time>2024-04-14T09:31:49Z</time>
      </trkpt>
      <trkpt lat="46.06133" lon="3.23273">
        <ele>366</ele>
        <time>2024-04-14T09:31:50Z</time>
      </trkpt>
      <trkpt lat="46.06135" lon="3.23262">
        <ele>365.8</ele>
        <time>2024-04-14T09:31:51Z</time>
      </trkpt>
      <trkpt lat="46.06137" lon="3.23251">
        <ele>365.8</ele>
        <time>2024-04-14T09:31:52Z</time>
      </trkpt>
      <trkpt lat="46.06138" lon="3.23241">
        <ele>365.8</ele>
        <time>2024-04-14T09:31:53Z</time>
      </trkpt>
      <trkpt lat="46.0614" lon="3.2323">
        <ele>365.8</ele>
        <time>2024-04-14T09:31:54Z</time>
      </trkpt>
      <trkpt lat="46.06141" lon="3.2322">
        <ele>365.8</ele>
        <time>2024-04-14T09:31:55Z</time>
      </trkpt>
      <trkpt lat="46.06142" lon="3.2321">
        <ele>365.6</ele>
        <time>2024-04-14T09:31:56Z</time>
      </trkpt>
      <trkpt lat="46.06143" lon="3.232">
        <ele>365.6</ele>
        <time>2024-04-14T09:31:57Z</time>
      </trkpt>
      <trkpt lat="46.06143" lon="3.2319">
        <ele>365.6</ele>
        <time>2024-04-14T09:31:58Z</time>
      </trkpt>
      <trkpt lat="46.06144" lon="3.2318">
        <ele>365.6</ele>
        <time>2024-04-14T09:31:59Z</time>
      </trkpt>
      <trkpt lat="46.06145" lon="3.23171">
        <ele>365.6</ele>
        <time>2024-04-14T09:32:00Z</time>
      </trkpt>
      <trkpt lat="46.06146" lon="3.23161">
        <ele>365.6</ele>
        <time>2024-04-14T09:32:01Z</time>
      </trkpt>
      <trkpt lat="46.06146" lon="3.23151">
        <ele>365.6</ele>
        <time>2024-04-14T09:32:02Z</time>
      </trkpt>
      <trkpt lat="46.06148" lon="3.23141">
        <ele>365.4</ele>
        <time>2024-04-14T09:32:03Z</time>
      </trkpt>
      <trkpt lat="46.0615" lon="3.23132">
        <ele>365.4</ele>
        <time>2024-04-14T09:32:04Z</time>
      </trkpt>
      <trkpt lat="46.06151" lon="3.23122">
        <ele>365.4</ele>
        <time>2024-04-14T09:32:05Z</time>
      </trkpt>
      <trkpt lat="46.06153" lon="3.23113">
        <ele>365.4</ele>
        <time>2024-04-14T09:32:06Z</time>
      </trkpt>
      <trkpt lat="46.06155" lon="3.23104">
        <ele>365.4</ele>
        <time>2024-04-14T09:32:07Z</time>
      </trkpt>
      <trkpt lat="46.06157" lon="3.23095">
        <ele>365.4</ele>
        <time>2024-04-14T09:32:08Z</time>
      </trkpt>
      <trkpt lat="46.06159" lon="3.23085">
        <ele>365.4</ele>
        <time>2024-04-14T09:32:09Z</time>
      </trkpt>
      <trkpt lat="46.0616" lon="3.23076">
        <ele>365.4</ele>
        <time>2024-04-14T09:32:10Z</time>
      </trkpt>
      <trkpt lat="46.06162" lon="3.23067">
        <ele>365.4</ele>
        <time>2024-04-14T09:32:11Z</time>
      </trkpt>
      <trkpt lat="46.06164" lon="3.23058">
        <ele>365.4</ele>
        <time>2024-04-14T09:32:12Z</time>
      </trkpt>
      <trkpt lat="46.06164" lon="3.23049">
        <ele>365.4</ele>
        <time>2024-04-14T09:32:13Z</time>
      </trkpt>
      <trkpt lat="46.06165" lon="3.2304">
        <ele>365.4</ele>
        <time>2024-04-14T09:32:14Z</time>
      </trkpt>
      <trkpt lat="46.06165" lon="3.23031">
        <ele>365.4</ele>
        <time>2024-04-14T09:32:15Z</time>
      </trkpt>
      <trkpt lat="46.06165" lon="3.23022">
        <ele>365.4</ele>
        <time>2024-04-14T09:32:16Z</time>
      </trkpt>
      <trkpt lat="46.06166" lon="3.23012">
        <ele>365.2</ele>
        <time>2024-04-14T09:32:17Z</time>
      </trkpt>
      <trkpt lat="46.06166" lon="3.23003">
        <ele>365.2</ele>
        <time>2024-04-14T09:32:18Z</time>
      </trkpt>
      <trkpt lat="46.06166" lon="3.22994">
        <ele>365.2</ele>
        <time>2024-04-14T09:32:19Z</time>
      </trkpt>
      <trkpt lat="46.06165" lon="3.22984">
        <ele>365.2</ele>
        <time>2024-04-14T09:32:20Z</time>
      </trkpt>
      <trkpt lat="46.06165" lon="3.22974">
        <ele>365</ele>
        <time>2024-04-14T09:32:21Z</time>
      </trkpt>
      <trkpt lat="46.06164" lon="3.22964">
        <ele>365</ele>
        <time>2024-04-14T09:32:22Z</time>
      </trkpt>
      <trkpt lat="46.06164" lon="3.22955">
        <ele>365</ele>
        <time>2024-04-14T09:32:23Z</time>
      </trkpt>
      <trkpt lat="46.06163" lon="3.22945">
        <ele>365</ele>
        <time>2024-04-14T09:32:24Z</time>
      </trkpt>
      <trkpt lat="46.06162" lon="3.22936">
        <ele>365</ele>
        <time>2024-04-14T09:32:25Z</time>
      </trkpt>
      <trkpt lat="46.06162" lon="3.22926">
        <ele>365</ele>
        <time>2024-04-14T09:32:26Z</time>
      </trkpt>
      <trkpt lat="46.06161" lon="3.22917">
        <ele>364.8</ele>
        <time>2024-04-14T09:32:27Z</time>
      </trkpt>
      <trkpt lat="46.0616" lon="3.22907">
        <ele>365</ele>
        <time>2024-04-14T09:32:28Z</time>
      </trkpt>
      <trkpt lat="46.0616" lon="3.22898">
        <ele>364.8</ele>
        <time>2024-04-14T09:32:29Z</time>
      </trkpt>
      <trkpt lat="46.06159" lon="3.22889">
        <ele>364.8</ele>
        <time>2024-04-14T09:32:30Z</time>
      </trkpt>
      <trkpt lat="46.06159" lon="3.2288">
        <ele>364.8</ele>
        <time>2024-04-14T09:32:31Z</time>
      </trkpt>
      <trkpt lat="46.06158" lon="3.2287">
        <ele>364.8</ele>
        <time>2024-04-14T09:32:32Z</time>
      </trkpt>
      <trkpt lat="46.06157" lon="3.22861">
        <ele>364.8</ele>
        <time>2024-04-14T09:32:33Z</time>
      </trkpt>
      <trkpt lat="46.06157" lon="3.22852">
        <ele>364.6</ele>
        <time>2024-04-14T09:32:34Z</time>
      </trkpt>
      <trkpt lat="46.06156" lon="3.22843">
        <ele>364.6</ele>
        <time>2024-04-14T09:32:35Z</time>
      </trkpt>
      <trkpt lat="46.06155" lon="3.22833">
        <ele>364.6</ele>
        <time>2024-04-14T09:32:36Z</time>
      </trkpt>
      <trkpt lat="46.06155" lon="3.22823">
        <ele>364.6</ele>
        <time>2024-04-14T09:32:37Z</time>
      </trkpt>
      <trkpt lat="46.06154" lon="3.22813">
        <ele>364.6</ele>
        <time>2024-04-14T09:32:38Z</time>
      </trkpt>
      <trkpt lat="46.06153" lon="3.22803">
        <ele>364.4</ele>
        <time>2024-04-14T09:32:39Z</time>
      </trkpt>
      <trkpt lat="46.06153" lon="3.22793">
        <ele>364.4</ele>
        <time>2024-04-14T09:32:40Z</time>
      </trkpt>
      <trkpt lat="46.06152" lon="3.22783">
        <ele>364.4</ele>
        <time>2024-04-14T09:32:41Z</time>
      </trkpt>
      <trkpt lat="46.06151" lon="3.22774">
        <ele>364.4</ele>
        <time>2024-04-14T09:32:42Z</time>
      </trkpt>
      <trkpt lat="46.06151" lon="3.22764">
        <ele>364.4</ele>
        <time>2024-04-14T09:32:43Z</time>
      </trkpt>
      <trkpt lat="46.0615" lon="3.22754">
        <ele>364.2</ele>
        <time>2024-04-14T09:32:44Z</time>
      </trkpt>
      <trkpt lat="46.0615" lon="3.22745">
        <ele>364.2</ele>
        <time>2024-04-14T09:32:45Z</time>
      </trkpt>
      <trkpt lat="46.06149" lon="3.22735">
        <ele>364.2</ele>
        <time>2024-04-14T09:32:46Z</time>
      </trkpt>
      <trkpt lat="46.06147" lon="3.22726">
        <ele>364</ele>
        <time>2024-04-14T09:32:47Z</time>
      </trkpt>
      <trkpt lat="46.06146" lon="3.22716">
        <ele>364</ele>
        <time>2024-04-14T09:32:48Z</time>
      </trkpt>
      <trkpt lat="46.06144" lon="3.22707">
        <ele>364</ele>
        <time>2024-04-14T09:32:49Z</time>
      </trkpt>
      <trkpt lat="46.06143" lon="3.22697">
        <ele>363.8</ele>
        <time>2024-04-14T09:32:50Z</time>
      </trkpt>
      <trkpt lat="46.06142" lon="3.22688">
        <ele>363.8</ele>
        <time>2024-04-14T09:32:51Z</time>
      </trkpt>
      <trkpt lat="46.0614" lon="3.22678">
        <ele>363.8</ele>
        <time>2024-04-14T09:32:52Z</time>
      </trkpt>
      <trkpt lat="46.06139" lon="3.22669">
        <ele>363.6</ele>
        <time>2024-04-14T09:32:53Z</time>
      </trkpt>
      <trkpt lat="46.06137" lon="3.22659">
        <ele>363.6</ele>
        <time>2024-04-14T09:32:54Z</time>
      </trkpt>
      <trkpt lat="46.06136" lon="3.22649">
        <ele>363.4</ele>
        <time>2024-04-14T09:32:55Z</time>
      </trkpt>
      <trkpt lat="46.06134" lon="3.22639">
        <ele>363.4</ele>
        <time>2024-04-14T09:32:56Z</time>
      </trkpt>
      <trkpt lat="46.06133" lon="3.22629">
        <ele>363.4</ele>
        <time>2024-04-14T09:32:57Z</time>
      </trkpt>
      <trkpt lat="46.06131" lon="3.22619">
        <ele>363.2</ele>
        <time>2024-04-14T09:32:58Z</time>
      </trkpt>
      <trkpt lat="46.06129" lon="3.22608">
        <ele>363.2</ele>
        <time>2024-04-14T09:32:59Z</time>
      </trkpt>
      <trkpt lat="46.06127" lon="3.22598">
        <ele>363</ele>
        <time>2024-04-14T09:33:00Z</time>
      </trkpt>
      <trkpt lat="46.06126" lon="3.22588">
        <ele>363</ele>
        <time>2024-04-14T09:33:01Z</time>
      </trkpt>
      <trkpt lat="46.06124" lon="3.22578">
        <ele>362.8</ele>
        <time>2024-04-14T09:33:02Z</time>
      </trkpt>
      <trkpt lat="46.06122" lon="3.22568">
        <ele>362.8</ele>
        <time>2024-04-14T09:33:03Z</time>
      </trkpt>
      <trkpt lat="46.0612" lon="3.22558">
        <ele>362.6</ele>
        <time>2024-04-14T09:33:04Z</time>
      </trkpt>
      <trkpt lat="46.06118" lon="3.22548">
        <ele>362.4</ele>
        <time>2024-04-14T09:33:05Z</time>
      </trkpt>
      <trkpt lat="46.06116" lon="3.22538">
        <ele>362.2</ele>
        <time>2024-04-14T09:33:06Z</time>
      </trkpt>
      <trkpt lat="46.06114" lon="3.22528">
        <ele>362.2</ele>
        <time>2024-04-14T09:33:07Z</time>
      </trkpt>
      <trkpt lat="46.06112" lon="3.22518">
        <ele>362</ele>
        <time>2024-04-14T09:33:08Z</time>
      </trkpt>
      <trkpt lat="46.0611" lon="3.22507">
        <ele>362</ele>
        <time>2024-04-14T09:33:09Z</time>
      </trkpt>
      <trkpt lat="46.06108" lon="3.22497">
        <ele>361.8</ele>
        <time>2024-04-14T09:33:10Z</time>
      </trkpt>
      <trkpt lat="46.06106" lon="3.22487">
        <ele>361.8</ele>
        <time>2024-04-14T09:33:11Z</time>
      </trkpt>
      <trkpt lat="46.06104" lon="3.22476">
        <ele>361.6</ele>
        <time>2024-04-14T09:33:12Z</time>
      </trkpt>
      <trkpt lat="46.06102" lon="3.22466">
        <ele>361.4</ele>
        <time>2024-04-14T09:33:13Z</time>
      </trkpt>
      <trkpt lat="46.061" lon="3.22455">
        <ele>361.4</ele>
        <time>2024-04-14T09:33:14Z</time>
      </trkpt>
      <trkpt lat="46.06098" lon="3.22445">
        <ele>361.2</ele>
        <time>2024-04-14T09:33:15Z</time>
      </trkpt>
      <trkpt lat="46.06096" lon="3.22433">
        <ele>361.2</ele>
        <time>2024-04-14T09:33:16Z</time>
      </trkpt>
      <trkpt lat="46.06095" lon="3.22422">
        <ele>361</ele>
        <time>2024-04-14T09:33:17Z</time>
      </trkpt>
      <trkpt lat="46.06095" lon="3.2241">
        <ele>360.8</ele>
        <time>2024-04-14T09:33:18Z</time>
      </trkpt>
      <trkpt lat="46.06095" lon="3.22398">
        <ele>360.8</ele>
        <time>2024-04-14T09:33:19Z</time>
      </trkpt>
      <trkpt lat="46.06094" lon="3.22386">
        <ele>360.6</ele>
        <time>2024-04-14T09:33:20Z</time>
      </trkpt>
      <trkpt lat="46.06094" lon="3.22374">
        <ele>360.4</ele>
        <time>2024-04-14T09:33:21Z</time>
      </trkpt>
      <trkpt lat="46.06094" lon="3.22362">
        <ele>360.2</ele>
        <time>2024-04-14T09:33:22Z</time>
      </trkpt>
      <trkpt lat="46.06093" lon="3.2235">
        <ele>360.2</ele>
        <time>2024-04-14T09:33:23Z</time>
      </trkpt>
      <trkpt lat="46.06093" lon="3.22337">
        <ele>360</ele>
        <time>2024-04-14T09:33:24Z</time>
      </trkpt>
      <trkpt lat="46.06093" lon="3.22326">
        <ele>359.8</ele>
        <time>2024-04-14T09:33:25Z</time>
      </trkpt>
      <trkpt lat="46.06092" lon="3.22314">
        <ele>359.8</ele>
        <time>2024-04-14T09:33:26Z</time>
      </trkpt>
      <trkpt lat="46.06092" lon="3.22302">
        <ele>359.6</ele>
        <time>2024-04-14T09:33:27Z</time>
      </trkpt>
      <trkpt lat="46.06092" lon="3.22291">
        <ele>359.4</ele>
        <time>2024-04-14T09:33:28Z</time>
      </trkpt>
      <trkpt lat="46.06092" lon="3.2228">
        <ele>359.2</ele>
        <time>2024-04-14T09:33:29Z</time>
      </trkpt>
      <trkpt lat="46.06091" lon="3.22269">
        <ele>359.2</ele>
        <time>2024-04-14T09:33:30Z</time>
      </trkpt>
      <trkpt lat="46.06091" lon="3.22258">
        <ele>359</ele>
        <time>2024-04-14T09:33:31Z</time>
      </trkpt>
      <trkpt lat="46.0609" lon="3.22249">
        <ele>359</ele>
        <time>2024-04-14T09:33:32Z</time>
      </trkpt>
      <trkpt lat="46.06086" lon="3.22238">
        <ele>358.8</ele>
        <time>2024-04-14T09:33:33Z</time>
      </trkpt>
      <trkpt lat="46.06083" lon="3.22228">
        <ele>358.6</ele>
        <time>2024-04-14T09:33:34Z</time>
      </trkpt>
      <trkpt lat="46.0608" lon="3.22218">
        <ele>358.6</ele>
        <time>2024-04-14T09:33:35Z</time>
      </trkpt>
      <trkpt lat="46.06077" lon="3.22208">
        <ele>358.4</ele>
        <time>2024-04-14T09:33:36Z</time>
      </trkpt>
      <trkpt lat="46.06073" lon="3.22198">
        <ele>358.4</ele>
        <time>2024-04-14T09:33:37Z</time>
      </trkpt>
      <trkpt lat="46.06069" lon="3.22188">
        <ele>358.2</ele>
        <time>2024-04-14T09:33:38Z</time>
      </trkpt>
      <trkpt lat="46.06065" lon="3.22179">
        <ele>358.2</ele>
        <time>2024-04-14T09:33:39Z</time>
      </trkpt>
      <trkpt lat="46.06061" lon="3.2217">
        <ele>358</ele>
        <time>2024-04-14T09:33:40Z</time>
      </trkpt>
      <trkpt lat="46.06057" lon="3.22161">
        <ele>358</ele>
        <time>2024-04-14T09:33:41Z</time>
      </trkpt>
      <trkpt lat="46.06053" lon="3.22152">
        <ele>357.8</ele>
        <time>2024-04-14T09:33:42Z</time>
      </trkpt>
      <trkpt lat="46.06048" lon="3.22142">
        <ele>357.8</ele>
        <time>2024-04-14T09:33:43Z</time>
      </trkpt>
      <trkpt lat="46.06044" lon="3.22133">
        <ele>357.8</ele>
        <time>2024-04-14T09:33:44Z</time>
      </trkpt>
      <trkpt lat="46.0604" lon="3.22124">
        <ele>357.6</ele>
        <time>2024-04-14T09:33:45Z</time>
      </trkpt>
      <trkpt lat="46.06036" lon="3.22115">
        <ele>357.6</ele>
        <time>2024-04-14T09:33:46Z</time>
      </trkpt>
      <trkpt lat="46.06032" lon="3.22106">
        <ele>357.6</ele>
        <time>2024-04-14T09:33:47Z</time>
      </trkpt>
      <trkpt lat="46.06028" lon="3.22096">
        <ele>357.4</ele>
        <time>2024-04-14T09:33:48Z</time>
      </trkpt>
      <trkpt lat="46.06024" lon="3.22087">
        <ele>357.4</ele>
        <time>2024-04-14T09:33:49Z</time>
      </trkpt>
      <trkpt lat="46.0602" lon="3.22078">
        <ele>357.4</ele>
        <time>2024-04-14T09:33:50Z</time>
      </trkpt>
      <trkpt lat="46.06015" lon="3.22068">
        <ele>357.2</ele>
        <time>2024-04-14T09:33:51Z</time>
      </trkpt>
      <trkpt lat="46.06011" lon="3.22059">
        <ele>357.2</ele>
        <time>2024-04-14T09:33:52Z</time>
      </trkpt>
      <trkpt lat="46.06007" lon="3.2205">
        <ele>357.2</ele>
        <time>2024-04-14T09:33:53Z</time>
      </trkpt>
      <trkpt lat="46.06003" lon="3.22041">
        <ele>357.2</ele>
        <time>2024-04-14T09:33:54Z</time>
      </trkpt>
      <trkpt lat="46.05999" lon="3.22032">
        <ele>357</ele>
        <time>2024-04-14T09:33:55Z</time>
      </trkpt>
      <trkpt lat="46.05995" lon="3.22023">
        <ele>357</ele>
        <time>2024-04-14T09:33:56Z</time>
      </trkpt>
      <trkpt lat="46.05991" lon="3.22014">
        <ele>356.8</ele>
        <time>2024-04-14T09:33:57Z</time>
      </trkpt>
      <trkpt lat="46.05987" lon="3.22005">
        <ele>356.8</ele>
        <time>2024-04-14T09:33:58Z</time>
      </trkpt>
      <trkpt lat="46.05983" lon="3.21996">
        <ele>356.8</ele>
        <time>2024-04-14T09:33:59Z</time>
      </trkpt>
      <trkpt lat="46.05979" lon="3.21987">
        <ele>356.8</ele>
        <time>2024-04-14T09:34:00Z</time>
      </trkpt>
      <trkpt lat="46.05975" lon="3.21978">
        <ele>356.6</ele>
        <time>2024-04-14T09:34:01Z</time>
      </trkpt>
      <trkpt lat="46.05971" lon="3.2197">
        <ele>356.6</ele>
        <time>2024-04-14T09:34:02Z</time>
      </trkpt>
      <trkpt lat="46.05968" lon="3.21962">
        <ele>356.6</ele>
        <time>2024-04-14T09:34:03Z</time>
      </trkpt>
      <trkpt lat="46.05964" lon="3.21954">
        <ele>356.6</ele>
        <time>2024-04-14T09:34:04Z</time>
      </trkpt>
      <trkpt lat="46.0596" lon="3.21946">
        <ele>356.4</ele>
        <time>2024-04-14T09:34:05Z</time>
      </trkpt>
      <trkpt lat="46.05957" lon="3.21937">
        <ele>356.4</ele>
        <time>2024-04-14T09:34:06Z</time>
      </trkpt>
      <trkpt lat="46.05953" lon="3.21929">
        <ele>356.4</ele>
        <time>2024-04-14T09:34:07Z</time>
      </trkpt>
      <trkpt lat="46.05949" lon="3.21921">
        <ele>356.4</ele>
        <time>2024-04-14T09:34:08Z</time>
      </trkpt>
      <trkpt lat="46.05946" lon="3.21913">
        <ele>356.4</ele>
        <time>2024-04-14T09:34:09Z</time>
      </trkpt>
      <trkpt lat="46.05942" lon="3.21904">
        <ele>356.2</ele>
        <time>2024-04-14T09:34:10Z</time>
      </trkpt>
      <trkpt lat="46.05938" lon="3.21896">
        <ele>356.2</ele>
        <time>2024-04-14T09:34:11Z</time>
      </trkpt>
      <trkpt lat="46.05935" lon="3.21888">
        <ele>356.2</ele>
        <time>2024-04-14T09:34:12Z</time>
      </trkpt>
      <trkpt lat="46.05931" lon="3.2188">
        <ele>356.2</ele>
        <time>2024-04-14T09:34:13Z</time>
      </trkpt>
      <trkpt lat="46.05928" lon="3.21872">
        <ele>356.2</ele>
        <time>2024-04-14T09:34:14Z</time>
      </trkpt>
      <trkpt lat="46.05924" lon="3.21864">
        <ele>356</ele>
        <time>2024-04-14T09:34:15Z</time>
      </trkpt>
      <trkpt lat="46.05921" lon="3.21857">
        <ele>356</ele>
        <time>2024-04-14T09:34:16Z</time>
      </trkpt>
      <trkpt lat="46.05918" lon="3.2185">
        <ele>356</ele>
        <time>2024-04-14T09:34:17Z</time>
      </trkpt>
      <trkpt lat="46.05915" lon="3.21843">
        <ele>356</ele>
        <time>2024-04-14T09:34:18Z</time>
      </trkpt>
      <trkpt lat="46.05912" lon="3.21836">
        <ele>356</ele>
        <time>2024-04-14T09:34:19Z</time>
      </trkpt>
      <trkpt lat="46.05909" lon="3.21829">
        <ele>356</ele>
        <time>2024-04-14T09:34:20Z</time>
      </trkpt>
      <trkpt lat="46.05906" lon="3.21823">
        <ele>356</ele>
        <time>2024-04-14T09:34:21Z</time>
      </trkpt>
      <trkpt lat="46.05906" lon="3.21813">
        <ele>356</ele>
        <time>2024-04-14T09:34:22Z</time>
      </trkpt>
      <trkpt lat="46.05907" lon="3.21804">
        <ele>356</ele>
        <time>2024-04-14T09:34:23Z</time>
      </trkpt>
      <trkpt lat="46.05909" lon="3.21796">
        <ele>355.8</ele>
        <time>2024-04-14T09:34:24Z</time>
      </trkpt>
      <trkpt lat="46.05911" lon="3.21787">
        <ele>355.8</ele>
        <time>2024-04-14T09:34:25Z</time>
      </trkpt>
      <trkpt lat="46.05912" lon="3.21778">
        <ele>356</ele>
        <time>2024-04-14T09:34:26Z</time>
      </trkpt>
      <trkpt lat="46.05914" lon="3.21769">
        <ele>356</ele>
        <time>2024-04-14T09:34:27Z</time>
      </trkpt>
      <trkpt lat="46.05916" lon="3.2176">
        <ele>356</ele>
        <time>2024-04-14T09:34:28Z</time>
      </trkpt>
      <trkpt lat="46.05917" lon="3.21751">
        <ele>356</ele>
        <time>2024-04-14T09:34:29Z</time>
      </trkpt>
      <trkpt lat="46.05919" lon="3.21742">
        <ele>356</ele>
        <time>2024-04-14T09:34:30Z</time>
      </trkpt>
      <trkpt lat="46.05921" lon="3.21732">
        <ele>356</ele>
        <time>2024-04-14T09:34:31Z</time>
      </trkpt>
      <trkpt lat="46.05923" lon="3.21723">
        <ele>356</ele>
        <time>2024-04-14T09:34:32Z</time>
      </trkpt>
      <trkpt lat="46.05925" lon="3.21713">
        <ele>356</ele>
        <time>2024-04-14T09:34:33Z</time>
      </trkpt>
      <trkpt lat="46.05926" lon="3.21703">
        <ele>356</ele>
        <time>2024-04-14T09:34:34Z</time>
      </trkpt>
      <trkpt lat="46.05928" lon="3.21693">
        <ele>356</ele>
        <time>2024-04-14T09:34:35Z</time>
      </trkpt>
      <trkpt lat="46.0593" lon="3.21684">
        <ele>356</ele>
        <time>2024-04-14T09:34:36Z</time>
      </trkpt>
      <trkpt lat="46.05932" lon="3.21674">
        <ele>356</ele>
        <time>2024-04-14T09:34:37Z</time>
      </trkpt>
      <trkpt lat="46.05936" lon="3.21664">
        <ele>356</ele>
        <time>2024-04-14T09:34:38Z</time>
      </trkpt>
      <trkpt lat="46.0594" lon="3.21655">
        <ele>356</ele>
        <time>2024-04-14T09:34:39Z</time>
      </trkpt>
      <trkpt lat="46.05945" lon="3.21647">
        <ele>355.8</ele>
        <time>2024-04-14T09:34:40Z</time>
      </trkpt>
      <trkpt lat="46.0595" lon="3.2164">
        <ele>356</ele>
        <time>2024-04-14T09:34:41Z</time>
      </trkpt>
      <trkpt lat="46.05955" lon="3.21633">
        <ele>356.2</ele>
        <time>2024-04-14T09:34:42Z</time>
      </trkpt>
      <trkpt lat="46.0596" lon="3.21626">
        <ele>356.2</ele>
        <time>2024-04-14T09:34:43Z</time>
      </trkpt>
      <trkpt lat="46.05965" lon="3.2162">
        <ele>356.2</ele>
        <time>2024-04-14T09:34:44Z</time>
      </trkpt>
      <trkpt lat="46.0597" lon="3.21613">
        <ele>356.2</ele>
        <time>2024-04-14T09:34:45Z</time>
      </trkpt>
      <trkpt lat="46.05972" lon="3.21603">
        <ele>356.2</ele>
        <time>2024-04-14T09:34:46Z</time>
      </trkpt>
      <trkpt lat="46.05973" lon="3.21594">
        <ele>356.2</ele>
        <time>2024-04-14T09:34:47Z</time>
      </trkpt>
      <trkpt lat="46.05975" lon="3.21583">
        <ele>356.2</ele>
        <time>2024-04-14T09:34:48Z</time>
      </trkpt>
      <trkpt lat="46.05976" lon="3.21573">
        <ele>356</ele>
        <time>2024-04-14T09:34:49Z</time>
      </trkpt>
      <trkpt lat="46.05978" lon="3.21563">
        <ele>356.2</ele>
        <time>2024-04-14T09:34:50Z</time>
      </trkpt>
      <trkpt lat="46.05979" lon="3.21552">
        <ele>356.2</ele>
        <time>2024-04-14T09:34:51Z</time>
      </trkpt>
      <trkpt lat="46.05981" lon="3.21542">
        <ele>356</ele>
        <time>2024-04-14T09:34:52Z</time>
      </trkpt>
      <trkpt lat="46.05983" lon="3.21533">
        <ele>356</ele>
        <time>2024-04-14T09:34:53Z</time>
      </trkpt>
      <trkpt lat="46.05989" lon="3.21527">
        <ele>356</ele>
        <time>2024-04-14T09:34:54Z</time>
      </trkpt>
      <trkpt lat="46.05994" lon="3.21521">
        <ele>355.8</ele>
        <time>2024-04-14T09:34:55Z</time>
      </trkpt>
      <trkpt lat="46.06" lon="3.21515">
        <ele>355.8</ele>
        <time>2024-04-14T09:34:56Z</time>
      </trkpt>
      <trkpt lat="46.06006" lon="3.21514">
        <ele>355.6</ele>
        <time>2024-04-14T09:34:57Z</time>
      </trkpt>
      <trkpt lat="46.06013" lon="3.21513">
        <ele>355.6</ele>
        <time>2024-04-14T09:34:58Z</time>
      </trkpt>
      <trkpt lat="46.0602" lon="3.21511">
        <ele>355.4</ele>
        <time>2024-04-14T09:34:59Z</time>
      </trkpt>
      <trkpt lat="46.06027" lon="3.2151">
        <ele>355.4</ele>
        <time>2024-04-14T09:35:00Z</time>
      </trkpt>
      <trkpt lat="46.06035" lon="3.21508">
        <ele>355.2</ele>
        <time>2024-04-14T09:35:01Z</time>
      </trkpt>
      <trkpt lat="46.06042" lon="3.21506">
        <ele>355.2</ele>
        <time>2024-04-14T09:35:02Z</time>
      </trkpt>
      <trkpt lat="46.06049" lon="3.21501">
        <ele>355.2</ele>
        <time>2024-04-14T09:35:03Z</time>
      </trkpt>
      <trkpt lat="46.06055" lon="3.21496">
        <ele>355</ele>
        <time>2024-04-14T09:35:04Z</time>
      </trkpt>
      <trkpt lat="46.06062" lon="3.2149">
        <ele>355</ele>
        <time>2024-04-14T09:35:05Z</time>
      </trkpt>
      <trkpt lat="46.06068" lon="3.21485">
        <ele>354.8</ele>
        <time>2024-04-14T09:35:06Z</time>
      </trkpt>
      <trkpt lat="46.06075" lon="3.21479">
        <ele>354.6</ele>
        <time>2024-04-14T09:35:07Z</time>
      </trkpt>
      <trkpt lat="46.06082" lon="3.21474">
        <ele>354.6</ele>
        <time>2024-04-14T09:35:08Z</time>
      </trkpt>
      <trkpt lat="46.06089" lon="3.21468">
        <ele>354.6</ele>
        <time>2024-04-14T09:35:09Z</time>
      </trkpt>
      <trkpt lat="46.06095" lon="3.21463">
        <ele>354.4</ele>
        <time>2024-04-14T09:35:10Z</time>
      </trkpt>
      <trkpt lat="46.06102" lon="3.21457">
        <ele>354.2</ele>
        <time>2024-04-14T09:35:11Z</time>
      </trkpt>
      <trkpt lat="46.06109" lon="3.21452">
        <ele>354</ele>
        <time>2024-04-14T09:35:12Z</time>
      </trkpt>
      <trkpt lat="46.06115" lon="3.21446">
        <ele>354</ele>
        <time>2024-04-14T09:35:13Z</time>
      </trkpt>
      <trkpt lat="46.06121" lon="3.21441">
        <ele>354</ele>
        <time>2024-04-14T09:35:14Z</time>
      </trkpt>
      <trkpt lat="46.06127" lon="3.21436">
        <ele>353.8</ele>
        <time>2024-04-14T09:35:15Z</time>
      </trkpt>
      <trkpt lat="46.06132" lon="3.21429">
        <ele>353.8</ele>
        <time>2024-04-14T09:35:16Z</time>
      </trkpt>
      <trkpt lat="46.06137" lon="3.21423">
        <ele>353.8</ele>
        <time>2024-04-14T09:35:17Z</time>
      </trkpt>
      <trkpt lat="46.06142" lon="3.21417">
        <ele>353.8</ele>
        <time>2024-04-14T09:35:18Z</time>
      </trkpt>
      <trkpt lat="46.06146" lon="3.21411">
        <ele>353.6</ele>
        <time>2024-04-14T09:35:19Z</time>
      </trkpt>
      <trkpt lat="46.06151" lon="3.21405">
        <ele>353.6</ele>
        <time>2024-04-14T09:35:20Z</time>
      </trkpt>
      <trkpt lat="46.06155" lon="3.214">
        <ele>353.6</ele>
        <time>2024-04-14T09:35:21Z</time>
      </trkpt>
      <trkpt lat="46.06159" lon="3.21395">
        <ele>353.4</ele>
        <time>2024-04-14T09:35:22Z</time>
      </trkpt>
      <trkpt lat="46.06162" lon="3.2139">
        <ele>353.4</ele>
        <time>2024-04-14T09:35:23Z</time>
      </trkpt>
      <trkpt lat="46.06166" lon="3.21386">
        <ele>353.4</ele>
        <time>2024-04-14T09:35:24Z</time>
      </trkpt>
      <trkpt lat="46.06169" lon="3.21382">
        <ele>353.2</ele>
        <time>2024-04-14T09:35:25Z</time>
      </trkpt>
      <trkpt lat="46.06172" lon="3.21378">
        <ele>353.2</ele>
        <time>2024-04-14T09:35:26Z</time>
      </trkpt>
      <trkpt lat="46.06175" lon="3.21374">
        <ele>353</ele>
        <time>2024-04-14T09:35:27Z</time>
      </trkpt>
      <trkpt lat="46.06183" lon="3.21376">
        <ele>352.8</ele>
        <time>2024-04-14T09:35:28Z</time>
      </trkpt>
      <trkpt lat="46.06178" lon="3.21364">
        <ele>352.8</ele>
        <time>2024-04-14T09:35:29Z</time>
      </trkpt>
      <trkpt lat="46.06179" lon="3.21357">
        <ele>352.8</ele>
        <time>2024-04-14T09:35:30Z</time>
      </trkpt>
      <trkpt lat="46.0618" lon="3.2135">
        <ele>352.8</ele>
        <time>2024-04-14T09:35:31Z</time>
      </trkpt>
      <trkpt lat="46.06181" lon="3.21342">
        <ele>352.6</ele>
        <time>2024-04-14T09:35:32Z</time>
      </trkpt>
      <trkpt lat="46.06183" lon="3.21335">
        <ele>352.6</ele>
        <time>2024-04-14T09:35:33Z</time>
      </trkpt>
      <trkpt lat="46.06184" lon="3.21326">
        <ele>352.6</ele>
        <time>2024-04-14T09:35:34Z</time>
      </trkpt>
      <trkpt lat="46.06185" lon="3.21318">
        <ele>352.6</ele>
        <time>2024-04-14T09:35:35Z</time>
      </trkpt>
      <trkpt lat="46.06187" lon="3.2131">
        <ele>352.4</ele>
        <time>2024-04-14T09:35:36Z</time>
      </trkpt>
      <trkpt lat="46.06188" lon="3.21301">
        <ele>352.4</ele>
        <time>2024-04-14T09:35:37Z</time>
      </trkpt>
      <trkpt lat="46.06189" lon="3.21292">
        <ele>352.4</ele>
        <time>2024-04-14T09:35:38Z</time>
      </trkpt>
      <trkpt lat="46.06191" lon="3.21283">
        <ele>352.4</ele>
        <time>2024-04-14T09:35:39Z</time>
      </trkpt>
      <trkpt lat="46.06192" lon="3.21274">
        <ele>352.4</ele>
        <time>2024-04-14T09:35:40Z</time>
      </trkpt>
      <trkpt lat="46.06193" lon="3.21266">
        <ele>352.2</ele>
        <time>2024-04-14T09:35:41Z</time>
      </trkpt>
      <trkpt lat="46.06195" lon="3.21257">
        <ele>352.2</ele>
        <time>2024-04-14T09:35:42Z</time>
      </trkpt>
      <trkpt lat="46.06196" lon="3.21249">
        <ele>352.2</ele>
        <time>2024-04-14T09:35:43Z</time>
      </trkpt>
      <trkpt lat="46.06197" lon="3.21241">
        <ele>352.2</ele>
        <time>2024-04-14T09:35:44Z</time>
      </trkpt>
      <trkpt lat="46.06199" lon="3.21233">
        <ele>352.2</ele>
        <time>2024-04-14T09:35:45Z</time>
      </trkpt>
      <trkpt lat="46.062" lon="3.21226">
        <ele>352.2</ele>
        <time>2024-04-14T09:35:46Z</time>
      </trkpt>
      <trkpt lat="46.06201" lon="3.21217">
        <ele>352</ele>
        <time>2024-04-14T09:35:47Z</time>
      </trkpt>
      <trkpt lat="46.06201" lon="3.2121">
        <ele>352</ele>
        <time>2024-04-14T09:35:48Z</time>
      </trkpt>
      <trkpt lat="46.06202" lon="3.21202">
        <ele>352</ele>
        <time>2024-04-14T09:35:49Z</time>
      </trkpt>
      <trkpt lat="46.06202" lon="3.21195">
        <ele>352</ele>
        <time>2024-04-14T09:35:50Z</time>
      </trkpt>
      <trkpt lat="46.06202" lon="3.21187">
        <ele>352</ele>
        <time>2024-04-14T09:35:51Z</time>
      </trkpt>
      <trkpt lat="46.06203" lon="3.2118">
        <ele>352</ele>
        <time>2024-04-14T09:35:52Z</time>
      </trkpt>
      <trkpt lat="46.06203" lon="3.21172">
        <ele>351.8</ele>
        <time>2024-04-14T09:35:53Z</time>
      </trkpt>
      <trkpt lat="46.06204" lon="3.21165">
        <ele>351.8</ele>
        <time>2024-04-14T09:35:54Z</time>
      </trkpt>
      <trkpt lat="46.06204" lon="3.21157">
        <ele>352</ele>
        <time>2024-04-14T09:35:55Z</time>
      </trkpt>
      <trkpt lat="46.06204" lon="3.2115">
        <ele>352</ele>
        <time>2024-04-14T09:35:56Z</time>
      </trkpt>
      <trkpt lat="46.06205" lon="3.21143">
        <ele>352</ele>
        <time>2024-04-14T09:35:57Z</time>
      </trkpt>
      <trkpt lat="46.06205" lon="3.21136">
        <ele>352</ele>
        <time>2024-04-14T09:35:58Z</time>
      </trkpt>
      <trkpt lat="46.06206" lon="3.21129">
        <ele>352</ele>
        <time>2024-04-14T09:35:59Z</time>
      </trkpt>
      <trkpt lat="46.06206" lon="3.21122">
        <ele>352</ele>
        <time>2024-04-14T09:36:00Z</time>
      </trkpt>
      <trkpt lat="46.06206" lon="3.21115">
        <ele>351.8</ele>
        <time>2024-04-14T09:36:01Z</time>
      </trkpt>
      <trkpt lat="46.06207" lon="3.21108">
        <ele>352.2</ele>
        <time>2024-04-14T09:36:02Z</time>
      </trkpt>
      <trkpt lat="46.06207" lon="3.21101">
        <ele>352.6</ele>
        <time>2024-04-14T09:36:03Z</time>
      </trkpt>
      <trkpt lat="46.06207" lon="3.21094">
        <ele>352.4</ele>
        <time>2024-04-14T09:36:04Z</time>
      </trkpt>
      <trkpt lat="46.06208" lon="3.21088">
        <ele>352.4</ele>
        <time>2024-04-14T09:36:05Z</time>
      </trkpt>
      <trkpt lat="46.06208" lon="3.21081">
        <ele>352.6</ele>
        <time>2024-04-14T09:36:06Z</time>
      </trkpt>
      <trkpt lat="46.06208" lon="3.21075">
        <ele>352.6</ele>
        <time>2024-04-14T09:36:07Z</time>
      </trkpt>
      <trkpt lat="46.06209" lon="3.21068">
        <ele>352.6</ele>
        <time>2024-04-14T09:36:08Z</time>
      </trkpt>
      <trkpt lat="46.06209" lon="3.2106">
        <ele>352.6</ele>
        <time>2024-04-14T09:36:09Z</time>
      </trkpt>
      <trkpt lat="46.06209" lon="3.21053">
        <ele>352.8</ele>
        <time>2024-04-14T09:36:10Z</time>
      </trkpt>
      <trkpt lat="46.06209" lon="3.21046">
        <ele>352.8</ele>
        <time>2024-04-14T09:36:11Z</time>
      </trkpt>
      <trkpt lat="46.06209" lon="3.21038">
        <ele>352.8</ele>
        <time>2024-04-14T09:36:12Z</time>
      </trkpt>
      <trkpt lat="46.06209" lon="3.21031">
        <ele>352.8</ele>
        <time>2024-04-14T09:36:13Z</time>
      </trkpt>
      <trkpt lat="46.06209" lon="3.21024">
        <ele>353</ele>
        <time>2024-04-14T09:36:14Z</time>
      </trkpt>
      <trkpt lat="46.06209" lon="3.21016">
        <ele>353</ele>
        <time>2024-04-14T09:36:15Z</time>
      </trkpt>
      <trkpt lat="46.06209" lon="3.21009">
        <ele>353</ele>
        <time>2024-04-14T09:36:16Z</time>
      </trkpt>
      <trkpt lat="46.06209" lon="3.21002">
        <ele>353.2</ele>
        <time>2024-04-14T09:36:17Z</time>
      </trkpt>
      <trkpt lat="46.06209" lon="3.20994">
        <ele>353.2</ele>
        <time>2024-04-14T09:36:18Z</time>
      </trkpt>
      <trkpt lat="46.06209" lon="3.20987">
        <ele>353.2</ele>
        <time>2024-04-14T09:36:19Z</time>
      </trkpt>
      <trkpt lat="46.06209" lon="3.20979">
        <ele>353.4</ele>
        <time>2024-04-14T09:36:20Z</time>
      </trkpt>
      <trkpt lat="46.06209" lon="3.20971">
        <ele>353.4</ele>
        <time>2024-04-14T09:36:21Z</time>
      </trkpt>
      <trkpt lat="46.06209" lon="3.20963">
        <ele>353.4</ele>
        <time>2024-04-14T09:36:22Z</time>
      </trkpt>
      <trkpt lat="46.06209" lon="3.20954">
        <ele>353.6</ele>
        <time>2024-04-14T09:36:23Z</time>
      </trkpt>
      <trkpt lat="46.0621" lon="3.20945">
        <ele>353.6</ele>
        <time>2024-04-14T09:36:24Z</time>
      </trkpt>
      <trkpt lat="46.0621" lon="3.20937">
        <ele>353.6</ele>
        <time>2024-04-14T09:36:25Z</time>
      </trkpt>
      <trkpt lat="46.0621" lon="3.20928">
        <ele>353.8</ele>
        <time>2024-04-14T09:36:26Z</time>
      </trkpt>
      <trkpt lat="46.0621" lon="3.20919">
        <ele>353.8</ele>
        <time>2024-04-14T09:36:27Z</time>
      </trkpt>
      <trkpt lat="46.0621" lon="3.20911">
        <ele>353.8</ele>
        <time>2024-04-14T09:36:28Z</time>
      </trkpt>
      <trkpt lat="46.0621" lon="3.20903">
        <ele>353.8</ele>
        <time>2024-04-14T09:36:29Z</time>
      </trkpt>
      <trkpt lat="46.0621" lon="3.20895">
        <ele>354</ele>
        <time>2024-04-14T09:36:30Z</time>
      </trkpt>
      <trkpt lat="46.0621" lon="3.20886">
        <ele>354</ele>
        <time>2024-04-14T09:36:31Z</time>
      </trkpt>
      <trkpt lat="46.06211" lon="3.20878">
        <ele>354.2</ele>
        <time>2024-04-14T09:36:32Z</time>
      </trkpt>
      <trkpt lat="46.06211" lon="3.2087">
        <ele>354.2</ele>
        <time>2024-04-14T09:36:33Z</time>
      </trkpt>
      <trkpt lat="46.06211" lon="3.20862">
        <ele>354.2</ele>
        <time>2024-04-14T09:36:34Z</time>
      </trkpt>
      <trkpt lat="46.06211" lon="3.20854">
        <ele>354.4</ele>
        <time>2024-04-14T09:36:35Z</time>
      </trkpt>
      <trkpt lat="46.06211" lon="3.20846">
        <ele>354.4</ele>
        <time>2024-04-14T09:36:36Z</time>
      </trkpt>
      <trkpt lat="46.06211" lon="3.20838">
        <ele>354.4</ele>
        <time>2024-04-14T09:36:37Z</time>
      </trkpt>
      <trkpt lat="46.06211" lon="3.2083">
        <ele>354.6</ele>
        <time>2024-04-14T09:36:38Z</time>
      </trkpt>
      <trkpt lat="46.06211" lon="3.20822">
        <ele>354.6</ele>
        <time>2024-04-14T09:36:39Z</time>
      </trkpt>
      <trkpt lat="46.06211" lon="3.20814">
        <ele>354.6</ele>
        <time>2024-04-14T09:36:40Z</time>
      </trkpt>
      <trkpt lat="46.06212" lon="3.20805">
        <ele>354.8</ele>
        <time>2024-04-14T09:36:41Z</time>
      </trkpt>
      <trkpt lat="46.06212" lon="3.20796">
        <ele>354.8</ele>
        <time>2024-04-14T09:36:42Z</time>
      </trkpt>
      <trkpt lat="46.06212" lon="3.20788">
        <ele>354.8</ele>
        <time>2024-04-14T09:36:43Z</time>
      </trkpt>
      <trkpt lat="46.06212" lon="3.20779">
        <ele>355</ele>
        <time>2024-04-14T09:36:44Z</time>
      </trkpt>
      <trkpt lat="46.06212" lon="3.2077">
        <ele>355</ele>
        <time>2024-04-14T09:36:45Z</time>
      </trkpt>
      <trkpt lat="46.06212" lon="3.20761">
        <ele>355.2</ele>
        <time>2024-04-14T09:36:46Z</time>
      </trkpt>
      <trkpt lat="46.06212" lon="3.20752">
        <ele>355.2</ele>
        <time>2024-04-14T09:36:47Z</time>
      </trkpt>
      <trkpt lat="46.06213" lon="3.20744">
        <ele>355.4</ele>
        <time>2024-04-14T09:36:48Z</time>
      </trkpt>
      <trkpt lat="46.06213" lon="3.20735">
        <ele>355.4</ele>
        <time>2024-04-14T09:36:49Z</time>
      </trkpt>
      <trkpt lat="46.06213" lon="3.20727">
        <ele>355.4</ele>
        <time>2024-04-14T09:36:50Z</time>
      </trkpt>
      <trkpt lat="46.06213" lon="3.20718">
        <ele>355.6</ele>
        <time>2024-04-14T09:36:51Z</time>
      </trkpt>
      <trkpt lat="46.06213" lon="3.2071">
        <ele>355.6</ele>
        <time>2024-04-14T09:36:52Z</time>
      </trkpt>
      <trkpt lat="46.06213" lon="3.20701">
        <ele>355.8</ele>
        <time>2024-04-14T09:36:53Z</time>
      </trkpt>
      <trkpt lat="46.06213" lon="3.20693">
        <ele>355.8</ele>
        <time>2024-04-14T09:36:54Z</time>
      </trkpt>
      <trkpt lat="46.06213" lon="3.20685">
        <ele>355.8</ele>
        <time>2024-04-14T09:36:55Z</time>
      </trkpt>
      <trkpt lat="46.06214" lon="3.20677">
        <ele>356</ele>
        <time>2024-04-14T09:36:56Z</time>
      </trkpt>
      <trkpt lat="46.06214" lon="3.20668">
        <ele>356</ele>
        <time>2024-04-14T09:36:57Z</time>
      </trkpt>
      <trkpt lat="46.06214" lon="3.2066">
        <ele>356.2</ele>
        <time>2024-04-14T09:36:58Z</time>
      </trkpt>
      <trkpt lat="46.06214" lon="3.20651">
        <ele>356.4</ele>
        <time>2024-04-14T09:36:59Z</time>
      </trkpt>
      <trkpt lat="46.06214" lon="3.20643">
        <ele>356.4</ele>
        <time>2024-04-14T09:37:00Z</time>
      </trkpt>
      <trkpt lat="46.06214" lon="3.20635">
        <ele>356.4</ele>
        <time>2024-04-14T09:37:01Z</time>
      </trkpt>
      <trkpt lat="46.06214" lon="3.20627">
        <ele>356.6</ele>
        <time>2024-04-14T09:37:02Z</time>
      </trkpt>
      <trkpt lat="46.06214" lon="3.20619">
        <ele>356.8</ele>
        <time>2024-04-14T09:37:03Z</time>
      </trkpt>
      <trkpt lat="46.06215" lon="3.20611">
        <ele>356.8</ele>
        <time>2024-04-14T09:37:04Z</time>
      </trkpt>
      <trkpt lat="46.06215" lon="3.20603">
        <ele>356.8</ele>
        <time>2024-04-14T09:37:05Z</time>
      </trkpt>
      <trkpt lat="46.06215" lon="3.20595">
        <ele>357</ele>
        <time>2024-04-14T09:37:06Z</time>
      </trkpt>
      <trkpt lat="46.06215" lon="3.20588">
        <ele>357</ele>
        <time>2024-04-14T09:37:07Z</time>
      </trkpt>
      <trkpt lat="46.06215" lon="3.20581">
        <ele>357.2</ele>
        <time>2024-04-14T09:37:08Z</time>
      </trkpt>
      <trkpt lat="46.06215" lon="3.20575">
        <ele>357.2</ele>
        <time>2024-04-14T09:37:09Z</time>
      </trkpt>
      <trkpt lat="46.06215" lon="3.20569">
        <ele>357.2</ele>
        <time>2024-04-14T09:37:10Z</time>
      </trkpt>
      <trkpt lat="46.06215" lon="3.20564">
        <ele>357.4</ele>
        <time>2024-04-14T09:37:11Z</time>
      </trkpt>
      <trkpt lat="46.06215" lon="3.2056">
        <ele>357.4</ele>
        <time>2024-04-14T09:37:12Z</time>
      </trkpt>
      <trkpt lat="46.06215" lon="3.20558">
        <ele>357.4</ele>
        <time>2024-04-14T09:37:13Z</time>
      </trkpt>
      <trkpt lat="46.06215" lon="3.20557">
        <ele>357.6</ele>
        <time>2024-04-14T09:37:14Z</time>
      </trkpt>
      <trkpt lat="46.06215" lon="3.20556">
        <ele>357.6</ele>
        <time>2024-04-14T09:37:15Z</time>
      </trkpt>
      <trkpt lat="46.06215" lon="3.20555">
        <ele>357.6</ele>
        <time>2024-04-14T09:37:16Z</time>
      </trkpt>
      <trkpt lat="46.06215" lon="3.20553">
        <ele>357.6</ele>
        <time>2024-04-14T09:37:17Z</time>
      </trkpt>
      <trkpt lat="46.06215" lon="3.2055">
        <ele>357.8</ele>
        <time>2024-04-14T09:37:18Z</time>
      </trkpt>
      <trkpt lat="46.06213" lon="3.2055">
        <ele>357.8</ele>
        <time>2024-04-14T09:37:19Z</time>
      </trkpt>
      <trkpt lat="46.0621" lon="3.20551">
        <ele>357.8</ele>
        <time>2024-04-14T09:37:20Z</time>
      </trkpt>
      <trkpt lat="46.06206" lon="3.20552">
        <ele>357.8</ele>
        <time>2024-04-14T09:37:21Z</time>
      </trkpt>
      <trkpt lat="46.06201" lon="3.20553">
        <ele>358</ele>
        <time>2024-04-14T09:37:22Z</time>
      </trkpt>
      <trkpt lat="46.06196" lon="3.20554">
        <ele>358</ele>
        <time>2024-04-14T09:37:23Z</time>
      </trkpt>
      <trkpt lat="46.06189" lon="3.20556">
        <ele>358</ele>
        <time>2024-04-14T09:37:24Z</time>
      </trkpt>
      <trkpt lat="46.06183" lon="3.20557">
        <ele>358.2</ele>
        <time>2024-04-14T09:37:25Z</time>
      </trkpt>
      <trkpt lat="46.06176" lon="3.20559">
        <ele>358.2</ele>
        <time>2024-04-14T09:37:26Z</time>
      </trkpt>
      <trkpt lat="46.0617" lon="3.2056">
        <ele>358.2</ele>
        <time>2024-04-14T09:37:27Z</time>
      </trkpt>
      <trkpt lat="46.06164" lon="3.20562">
        <ele>358.2</ele>
        <time>2024-04-14T09:37:28Z</time>
      </trkpt>
      <trkpt lat="46.06158" lon="3.20563">
        <ele>358.4</ele>
        <time>2024-04-14T09:37:29Z</time>
      </trkpt>
      <trkpt lat="46.06151" lon="3.20565">
        <ele>358.4</ele>
        <time>2024-04-14T09:37:30Z</time>
      </trkpt>
      <trkpt lat="46.06145" lon="3.20566">
        <ele>358.4</ele>
        <time>2024-04-14T09:37:31Z</time>
      </trkpt>
      <trkpt lat="46.06139" lon="3.20568">
        <ele>358.6</ele>
        <time>2024-04-14T09:37:32Z</time>
      </trkpt>
      <trkpt lat="46.06132" lon="3.20569">
        <ele>358.6</ele>
        <time>2024-04-14T09:37:33Z</time>
      </trkpt>
      <trkpt lat="46.06126" lon="3.20571">
        <ele>358.6</ele>
        <time>2024-04-14T09:37:34Z</time>
      </trkpt>
      <trkpt lat="46.06119" lon="3.20572">
        <ele>358.6</ele>
        <time>2024-04-14T09:37:35Z</time>
      </trkpt>
      <trkpt lat="46.06113" lon="3.20574">
        <ele>358.6</ele>
        <time>2024-04-14T09:37:36Z</time>
      </trkpt>
      <trkpt lat="46.06106" lon="3.20575">
        <ele>358.8</ele>
        <time>2024-04-14T09:37:37Z</time>
      </trkpt>
      <trkpt lat="46.06099" lon="3.20577">
        <ele>358.8</ele>
        <time>2024-04-14T09:37:38Z</time>
      </trkpt>
      <trkpt lat="46.06093" lon="3.20578">
        <ele>358.8</ele>
        <time>2024-04-14T09:37:39Z</time>
      </trkpt>
      <trkpt lat="46.06087" lon="3.2058">
        <ele>358.8</ele>
        <time>2024-04-14T09:37:40Z</time>
      </trkpt>
      <trkpt lat="46.0608" lon="3.20581">
        <ele>358.8</ele>
        <time>2024-04-14T09:37:41Z</time>
      </trkpt>
      <trkpt lat="46.06073" lon="3.20583">
        <ele>358.8</ele>
        <time>2024-04-14T09:37:42Z</time>
      </trkpt>
      <trkpt lat="46.06067" lon="3.20584">
        <ele>359</ele>
        <time>2024-04-14T09:37:43Z</time>
      </trkpt>
      <trkpt lat="46.0606" lon="3.20586">
        <ele>359</ele>
        <time>2024-04-14T09:37:44Z</time>
      </trkpt>
      <trkpt lat="46.06053" lon="3.20588">
        <ele>359</ele>
        <time>2024-04-14T09:37:45Z</time>
      </trkpt>
      <trkpt lat="46.06046" lon="3.20589">
        <ele>359</ele>
        <time>2024-04-14T09:37:46Z</time>
      </trkpt>
      <trkpt lat="46.06039" lon="3.20591">
        <ele>359</ele>
        <time>2024-04-14T09:37:47Z</time>
      </trkpt>
      <trkpt lat="46.06032" lon="3.20593">
        <ele>359</ele>
        <time>2024-04-14T09:37:48Z</time>
      </trkpt>
      <trkpt lat="46.06025" lon="3.20594">
        <ele>359</ele>
        <time>2024-04-14T09:37:49Z</time>
      </trkpt>
      <trkpt lat="46.06018" lon="3.20596">
        <ele>359</ele>
        <time>2024-04-14T09:37:50Z</time>
      </trkpt>
      <trkpt lat="46.06011" lon="3.20598">
        <ele>359</ele>
        <time>2024-04-14T09:37:51Z</time>
      </trkpt>
      <trkpt lat="46.06003" lon="3.20599">
        <ele>359</ele>
        <time>2024-04-14T09:37:52Z</time>
      </trkpt>
      <trkpt lat="46.05996" lon="3.20601">
        <ele>359</ele>
        <time>2024-04-14T09:37:53Z</time>
      </trkpt>
      <trkpt lat="46.05988" lon="3.20603">
        <ele>359</ele>
        <time>2024-04-14T09:37:54Z</time>
      </trkpt>
      <trkpt lat="46.05981" lon="3.20604">
        <ele>359</ele>
        <time>2024-04-14T09:37:55Z</time>
      </trkpt>
      <trkpt lat="46.05974" lon="3.20606">
        <ele>359</ele>
        <time>2024-04-14T09:37:56Z</time>
      </trkpt>
      <trkpt lat="46.05966" lon="3.20608">
        <ele>359</ele>
        <time>2024-04-14T09:37:57Z</time>
      </trkpt>
      <trkpt lat="46.05958" lon="3.2061">
        <ele>359</ele>
        <time>2024-04-14T09:37:58Z</time>
      </trkpt>
      <trkpt lat="46.0595" lon="3.20612">
        <ele>359</ele>
        <time>2024-04-14T09:37:59Z</time>
      </trkpt>
      <trkpt lat="46.05943" lon="3.20613">
        <ele>359</ele>
        <time>2024-04-14T09:38:00Z</time>
      </trkpt>
      <trkpt lat="46.05935" lon="3.20615">
        <ele>359</ele>
        <time>2024-04-14T09:38:01Z</time>
      </trkpt>
      <trkpt lat="46.05927" lon="3.20617">
        <ele>359.2</ele>
        <time>2024-04-14T09:38:02Z</time>
      </trkpt>
      <trkpt lat="46.05919" lon="3.20619">
        <ele>359.2</ele>
        <time>2024-04-14T09:38:03Z</time>
      </trkpt>
      <trkpt lat="46.05911" lon="3.20621">
        <ele>359.2</ele>
        <time>2024-04-14T09:38:04Z</time>
      </trkpt>
      <trkpt lat="46.05903" lon="3.20623">
        <ele>359.2</ele>
        <time>2024-04-14T09:38:05Z</time>
      </trkpt>
      <trkpt lat="46.05895" lon="3.20625">
        <ele>359.2</ele>
        <time>2024-04-14T09:38:06Z</time>
      </trkpt>
      <trkpt lat="46.05887" lon="3.20627">
        <ele>359.2</ele>
        <time>2024-04-14T09:38:07Z</time>
      </trkpt>
      <trkpt lat="46.05878" lon="3.20629">
        <ele>359.2</ele>
        <time>2024-04-14T09:38:08Z</time>
      </trkpt>
      <trkpt lat="46.0587" lon="3.2063">
        <ele>359.2</ele>
        <time>2024-04-14T09:38:09Z</time>
      </trkpt>
      <trkpt lat="46.05862" lon="3.20632">
        <ele>359</ele>
        <time>2024-04-14T09:38:10Z</time>
      </trkpt>
      <trkpt lat="46.05854" lon="3.20634">
        <ele>359</ele>
        <time>2024-04-14T09:38:11Z</time>
      </trkpt>
      <trkpt lat="46.05846" lon="3.20636">
        <ele>359.2</ele>
        <time>2024-04-14T09:38:12Z</time>
      </trkpt>
      <trkpt lat="46.05838" lon="3.20638">
        <ele>359</ele>
        <time>2024-04-14T09:38:13Z</time>
      </trkpt>
      <trkpt lat="46.0583" lon="3.2064">
        <ele>359</ele>
        <time>2024-04-14T09:38:14Z</time>
      </trkpt>
      <trkpt lat="46.05822" lon="3.20642">
        <ele>359</ele>
        <time>2024-04-14T09:38:15Z</time>
      </trkpt>
      <trkpt lat="46.05815" lon="3.20643">
        <ele>359</ele>
        <time>2024-04-14T09:38:16Z</time>
      </trkpt>
      <trkpt lat="46.05807" lon="3.20645">
        <ele>359</ele>
        <time>2024-04-14T09:38:17Z</time>
      </trkpt>
      <trkpt lat="46.05799" lon="3.20647">
        <ele>359</ele>
        <time>2024-04-14T09:38:18Z</time>
      </trkpt>
      <trkpt lat="46.05791" lon="3.20649">
        <ele>359</ele>
        <time>2024-04-14T09:38:19Z</time>
      </trkpt>
      <trkpt lat="46.05784" lon="3.20651">
        <ele>359</ele>
        <time>2024-04-14T09:38:20Z</time>
      </trkpt>
      <trkpt lat="46.05777" lon="3.20652">
        <ele>359.2</ele>
        <time>2024-04-14T09:38:21Z</time>
      </trkpt>
      <trkpt lat="46.0577" lon="3.20654">
        <ele>359.2</ele>
        <time>2024-04-14T09:38:22Z</time>
      </trkpt>
      <trkpt lat="46.05764" lon="3.20655">
        <ele>359.2</ele>
        <time>2024-04-14T09:38:23Z</time>
      </trkpt>
      <trkpt lat="46.05757" lon="3.20657">
        <ele>359.2</ele>
        <time>2024-04-14T09:38:24Z</time>
      </trkpt>
      <trkpt lat="46.0575" lon="3.20659">
        <ele>359.2</ele>
        <time>2024-04-14T09:38:25Z</time>
      </trkpt>
      <trkpt lat="46.05743" lon="3.2066">
        <ele>359.2</ele>
        <time>2024-04-14T09:38:26Z</time>
      </trkpt>
      <trkpt lat="46.05737" lon="3.20662">
        <ele>359.4</ele>
        <time>2024-04-14T09:38:27Z</time>
      </trkpt>
      <trkpt lat="46.0573" lon="3.20663">
        <ele>359.4</ele>
        <time>2024-04-14T09:38:28Z</time>
      </trkpt>
      <trkpt lat="46.05725" lon="3.20664">
        <ele>359.4</ele>
        <time>2024-04-14T09:38:29Z</time>
      </trkpt>
      <trkpt lat="46.05718" lon="3.20666">
        <ele>359.4</ele>
        <time>2024-04-14T09:38:30Z</time>
      </trkpt>
      <trkpt lat="46.05712" lon="3.20667">
        <ele>359.4</ele>
        <time>2024-04-14T09:38:31Z</time>
      </trkpt>
      <trkpt lat="46.05706" lon="3.20669">
        <ele>359.4</ele>
        <time>2024-04-14T09:38:32Z</time>
      </trkpt>
      <trkpt lat="46.05699" lon="3.2067">
        <ele>359.4</ele>
        <time>2024-04-14T09:38:33Z</time>
      </trkpt>
      <trkpt lat="46.05694" lon="3.20672">
        <ele>359.4</ele>
        <time>2024-04-14T09:38:34Z</time>
      </trkpt>
      <trkpt lat="46.05688" lon="3.20673">
        <ele>359.4</ele>
        <time>2024-04-14T09:38:35Z</time>
      </trkpt>
      <trkpt lat="46.05682" lon="3.20674">
        <ele>359.4</ele>
        <time>2024-04-14T09:38:36Z</time>
      </trkpt>
      <trkpt lat="46.05676" lon="3.20676">
        <ele>359.4</ele>
        <time>2024-04-14T09:38:37Z</time>
      </trkpt>
      <trkpt lat="46.05671" lon="3.20677">
        <ele>359.4</ele>
        <time>2024-04-14T09:38:38Z</time>
      </trkpt>
      <trkpt lat="46.05665" lon="3.20678">
        <ele>359.4</ele>
        <time>2024-04-14T09:38:39Z</time>
      </trkpt>
      <trkpt lat="46.05659" lon="3.2068">
        <ele>359.4</ele>
        <time>2024-04-14T09:38:40Z</time>
      </trkpt>
      <trkpt lat="46.05654" lon="3.20681">
        <ele>359.4</ele>
        <time>2024-04-14T09:38:41Z</time>
      </trkpt>
      <trkpt lat="46.05648" lon="3.20682">
        <ele>359.4</ele>
        <time>2024-04-14T09:38:42Z</time>
      </trkpt>
      <trkpt lat="46.05642" lon="3.20684">
        <ele>359.4</ele>
        <time>2024-04-14T09:38:43Z</time>
      </trkpt>
      <trkpt lat="46.05636" lon="3.20685">
        <ele>359.4</ele>
        <time>2024-04-14T09:38:44Z</time>
      </trkpt>
      <trkpt lat="46.0563" lon="3.20687">
        <ele>359.4</ele>
        <time>2024-04-14T09:38:45Z</time>
      </trkpt>
      <trkpt lat="46.05625" lon="3.20688">
        <ele>359.4</ele>
        <time>2024-04-14T09:38:46Z</time>
      </trkpt>
      <trkpt lat="46.05618" lon="3.20689">
        <ele>359.4</ele>
        <time>2024-04-14T09:38:47Z</time>
      </trkpt>
      <trkpt lat="46.05612" lon="3.20691">
        <ele>359.4</ele>
        <time>2024-04-14T09:38:48Z</time>
      </trkpt>
      <trkpt lat="46.05606" lon="3.20692">
        <ele>359.4</ele>
        <time>2024-04-14T09:38:49Z</time>
      </trkpt>
      <trkpt lat="46.056" lon="3.20694">
        <ele>359.4</ele>
        <time>2024-04-14T09:38:50Z</time>
      </trkpt>
      <trkpt lat="46.05594" lon="3.20695">
        <ele>359.4</ele>
        <time>2024-04-14T09:38:51Z</time>
      </trkpt>
      <trkpt lat="46.05588" lon="3.20696">
        <ele>359.4</ele>
        <time>2024-04-14T09:38:52Z</time>
      </trkpt>
      <trkpt lat="46.05582" lon="3.20698">
        <ele>359.6</ele>
        <time>2024-04-14T09:38:53Z</time>
      </trkpt>
      <trkpt lat="46.05577" lon="3.20699">
        <ele>359.6</ele>
        <time>2024-04-14T09:38:54Z</time>
      </trkpt>
      <trkpt lat="46.05571" lon="3.207">
        <ele>359.6</ele>
        <time>2024-04-14T09:38:55Z</time>
      </trkpt>
      <trkpt lat="46.05566" lon="3.20702">
        <ele>359.6</ele>
        <time>2024-04-14T09:38:56Z</time>
      </trkpt>
      <trkpt lat="46.0556" lon="3.20703">
        <ele>359.6</ele>
        <time>2024-04-14T09:38:57Z</time>
      </trkpt>
      <trkpt lat="46.05555" lon="3.20704">
        <ele>359.6</ele>
        <time>2024-04-14T09:38:58Z</time>
      </trkpt>
      <trkpt lat="46.05549" lon="3.20706">
        <ele>359.6</ele>
        <time>2024-04-14T09:38:59Z</time>
      </trkpt>
      <trkpt lat="46.05543" lon="3.20707">
        <ele>359.6</ele>
        <time>2024-04-14T09:39:00Z</time>
      </trkpt>
      <trkpt lat="46.05537" lon="3.20708">
        <ele>359.6</ele>
        <time>2024-04-14T09:39:01Z</time>
      </trkpt>
      <trkpt lat="46.05532" lon="3.2071">
        <ele>359.6</ele>
        <time>2024-04-14T09:39:02Z</time>
      </trkpt>
      <trkpt lat="46.05526" lon="3.20711">
        <ele>359.6</ele>
        <time>2024-04-14T09:39:03Z</time>
      </trkpt>
      <trkpt lat="46.0552" lon="3.20712">
        <ele>359.6</ele>
        <time>2024-04-14T09:39:04Z</time>
      </trkpt>
      <trkpt lat="46.05515" lon="3.20714">
        <ele>359.8</ele>
        <time>2024-04-14T09:39:05Z</time>
      </trkpt>
      <trkpt lat="46.05509" lon="3.20715">
        <ele>359.8</ele>
        <time>2024-04-14T09:39:06Z</time>
      </trkpt>
      <trkpt lat="46.05504" lon="3.20716">
        <ele>359.8</ele>
        <time>2024-04-14T09:39:07Z</time>
      </trkpt>
      <trkpt lat="46.05498" lon="3.20717">
        <ele>359.8</ele>
        <time>2024-04-14T09:39:08Z</time>
      </trkpt>
      <trkpt lat="46.05493" lon="3.20719">
        <ele>359.8</ele>
        <time>2024-04-14T09:39:09Z</time>
      </trkpt>
      <trkpt lat="46.05488" lon="3.2072">
        <ele>359.8</ele>
        <time>2024-04-14T09:39:10Z</time>
      </trkpt>
      <trkpt lat="46.05482" lon="3.20721">
        <ele>360</ele>
        <time>2024-04-14T09:39:11Z</time>
      </trkpt>
      <trkpt lat="46.05477" lon="3.20722">
        <ele>360</ele>
        <time>2024-04-14T09:39:12Z</time>
      </trkpt>
      <trkpt lat="46.05471" lon="3.20724">
        <ele>360</ele>
        <time>2024-04-14T09:39:13Z</time>
      </trkpt>
      <trkpt lat="46.05466" lon="3.20725">
        <ele>360.2</ele>
        <time>2024-04-14T09:39:14Z</time>
      </trkpt>
      <trkpt lat="46.05461" lon="3.20726">
        <ele>360.2</ele>
        <time>2024-04-14T09:39:15Z</time>
      </trkpt>
      <trkpt lat="46.05456" lon="3.20727">
        <ele>360.4</ele>
        <time>2024-04-14T09:39:16Z</time>
      </trkpt>
      <trkpt lat="46.05451" lon="3.20729">
        <ele>360.4</ele>
        <time>2024-04-14T09:39:17Z</time>
      </trkpt>
      <trkpt lat="46.05446" lon="3.2073">
        <ele>360.4</ele>
        <time>2024-04-14T09:39:18Z</time>
      </trkpt>
      <trkpt lat="46.05441" lon="3.20731">
        <ele>360.6</ele>
        <time>2024-04-14T09:39:19Z</time>
      </trkpt>
      <trkpt lat="46.05436" lon="3.20732">
        <ele>360.6</ele>
        <time>2024-04-14T09:39:20Z</time>
      </trkpt>
      <trkpt lat="46.05431" lon="3.20733">
        <ele>360.6</ele>
        <time>2024-04-14T09:39:21Z</time>
      </trkpt>
      <trkpt lat="46.05427" lon="3.20734">
        <ele>360.6</ele>
        <time>2024-04-14T09:39:22Z</time>
      </trkpt>
      <trkpt lat="46.05422" lon="3.20735">
        <ele>360.8</ele>
        <time>2024-04-14T09:39:23Z</time>
      </trkpt>
      <trkpt lat="46.05418" lon="3.20736">
        <ele>360.8</ele>
        <time>2024-04-14T09:39:24Z</time>
      </trkpt>
      <trkpt lat="46.05408" lon="3.20723">
        <ele>361</ele>
        <time>2024-04-14T09:39:25Z</time>
      </trkpt>
      <trkpt lat="46.05406" lon="3.20716">
        <ele>361</ele>
        <time>2024-04-14T09:39:26Z</time>
      </trkpt>
      <trkpt lat="46.05404" lon="3.20709">
        <ele>361.2</ele>
        <time>2024-04-14T09:39:27Z</time>
      </trkpt>
      <trkpt lat="46.05401" lon="3.20703">
        <ele>361.2</ele>
        <time>2024-04-14T09:39:28Z</time>
      </trkpt>
      <trkpt lat="46.05397" lon="3.20696">
        <ele>361.2</ele>
        <time>2024-04-14T09:39:29Z</time>
      </trkpt>
      <trkpt lat="46.05394" lon="3.20688">
        <ele>361.4</ele>
        <time>2024-04-14T09:39:30Z</time>
      </trkpt>
      <trkpt lat="46.0539" lon="3.20681">
        <ele>361.4</ele>
        <time>2024-04-14T09:39:31Z</time>
      </trkpt>
      <trkpt lat="46.05387" lon="3.20674">
        <ele>361.4</ele>
        <time>2024-04-14T09:39:32Z</time>
      </trkpt>
      <trkpt lat="46.05383" lon="3.20667">
        <ele>361.4</ele>
        <time>2024-04-14T09:39:33Z</time>
      </trkpt>
      <trkpt lat="46.0538" lon="3.20659">
        <ele>361.6</ele>
        <time>2024-04-14T09:39:34Z</time>
      </trkpt>
      <trkpt lat="46.0538" lon="3.20659">
        <ele>361.6</ele>
        <time>2024-04-14T09:39:35Z</time>
      </trkpt>
      <trkpt lat="46.05372" lon="3.20645">
        <ele>361.8</ele>
        <time>2024-04-14T09:39:36Z</time>
      </trkpt>
      <trkpt lat="46.05369" lon="3.20637">
        <ele>361.8</ele>
        <time>2024-04-14T09:39:37Z</time>
      </trkpt>
      <trkpt lat="46.05365" lon="3.2063">
        <ele>361.8</ele>
        <time>2024-04-14T09:39:38Z</time>
      </trkpt>
      <trkpt lat="46.05362" lon="3.20623">
        <ele>362</ele>
        <time>2024-04-14T09:39:39Z</time>
      </trkpt>
      <trkpt lat="46.05359" lon="3.20616">
        <ele>362</ele>
        <time>2024-04-14T09:39:40Z</time>
      </trkpt>
      <trkpt lat="46.05355" lon="3.20609">
        <ele>362.2</ele>
        <time>2024-04-14T09:39:41Z</time>
      </trkpt>
      <trkpt lat="46.05352" lon="3.20602">
        <ele>362.2</ele>
        <time>2024-04-14T09:39:42Z</time>
      </trkpt>
      <trkpt lat="46.05348" lon="3.20595">
        <ele>362.2</ele>
        <time>2024-04-14T09:39:43Z</time>
      </trkpt>
      <trkpt lat="46.05345" lon="3.20588">
        <ele>362.4</ele>
        <time>2024-04-14T09:39:44Z</time>
      </trkpt>
      <trkpt lat="46.05341" lon="3.20581">
        <ele>362.4</ele>
        <time>2024-04-14T09:39:45Z</time>
      </trkpt>
      <trkpt lat="46.05338" lon="3.20574">
        <ele>362.6</ele>
        <time>2024-04-14T09:39:46Z</time>
      </trkpt>
      <trkpt lat="46.05335" lon="3.20567">
        <ele>362.6</ele>
        <time>2024-04-14T09:39:47Z</time>
      </trkpt>
      <trkpt lat="46.05331" lon="3.2056">
        <ele>362.8</ele>
        <time>2024-04-14T09:39:48Z</time>
      </trkpt>
      <trkpt lat="46.05328" lon="3.20553">
        <ele>362.8</ele>
        <time>2024-04-14T09:39:49Z</time>
      </trkpt>
      <trkpt lat="46.05325" lon="3.20546">
        <ele>362.8</ele>
        <time>2024-04-14T09:39:50Z</time>
      </trkpt>
      <trkpt lat="46.05321" lon="3.20539">
        <ele>363</ele>
        <time>2024-04-14T09:39:51Z</time>
      </trkpt>
      <trkpt lat="46.05318" lon="3.20532">
        <ele>363</ele>
        <time>2024-04-14T09:39:52Z</time>
      </trkpt>
      <trkpt lat="46.05315" lon="3.20525">
        <ele>363.2</ele>
        <time>2024-04-14T09:39:53Z</time>
      </trkpt>
      <trkpt lat="46.05311" lon="3.20518">
        <ele>363.2</ele>
        <time>2024-04-14T09:39:54Z</time>
      </trkpt>
      <trkpt lat="46.05308" lon="3.20511">
        <ele>363.4</ele>
        <time>2024-04-14T09:39:55Z</time>
      </trkpt>
      <trkpt lat="46.05305" lon="3.20504">
        <ele>363.4</ele>
        <time>2024-04-14T09:39:56Z</time>
      </trkpt>
      <trkpt lat="46.05301" lon="3.20497">
        <ele>363.4</ele>
        <time>2024-04-14T09:39:57Z</time>
      </trkpt>
      <trkpt lat="46.05298" lon="3.20491">
        <ele>363.6</ele>
        <time>2024-04-14T09:39:58Z</time>
      </trkpt>
      <trkpt lat="46.05295" lon="3.20484">
        <ele>363.6</ele>
        <time>2024-04-14T09:39:59Z</time>
      </trkpt>
      <trkpt lat="46.05291" lon="3.20477">
        <ele>363.8</ele>
        <time>2024-04-14T09:40:00Z</time>
      </trkpt>
      <trkpt lat="46.05288" lon="3.2047">
        <ele>363.8</ele>
        <time>2024-04-14T09:40:01Z</time>
      </trkpt>
      <trkpt lat="46.05285" lon="3.20463">
        <ele>363.8</ele>
        <time>2024-04-14T09:40:02Z</time>
      </trkpt>
      <trkpt lat="46.05281" lon="3.20456">
        <ele>364</ele>
        <time>2024-04-14T09:40:03Z</time>
      </trkpt>
      <trkpt lat="46.05278" lon="3.20449">
        <ele>364</ele>
        <time>2024-04-14T09:40:04Z</time>
      </trkpt>
      <trkpt lat="46.05274" lon="3.20442">
        <ele>364</ele>
        <time>2024-04-14T09:40:05Z</time>
      </trkpt>
      <trkpt lat="46.05271" lon="3.20435">
        <ele>364.2</ele>
        <time>2024-04-14T09:40:06Z</time>
      </trkpt>
      <trkpt lat="46.05268" lon="3.20428">
        <ele>364.2</ele>
        <time>2024-04-14T09:40:07Z</time>
      </trkpt>
      <trkpt lat="46.05264" lon="3.20421">
        <ele>364.4</ele>
        <time>2024-04-14T09:40:08Z</time>
      </trkpt>
      <trkpt lat="46.05261" lon="3.20414">
        <ele>364.4</ele>
        <time>2024-04-14T09:40:09Z</time>
      </trkpt>
      <trkpt lat="46.05257" lon="3.20407">
        <ele>364.6</ele>
        <time>2024-04-14T09:40:10Z</time>
      </trkpt>
      <trkpt lat="46.05254" lon="3.204">
        <ele>364.6</ele>
        <time>2024-04-14T09:40:11Z</time>
      </trkpt>
      <trkpt lat="46.05251" lon="3.20393">
        <ele>364.6</ele>
        <time>2024-04-14T09:40:12Z</time>
      </trkpt>
      <trkpt lat="46.05247" lon="3.20385">
        <ele>364.8</ele>
        <time>2024-04-14T09:40:13Z</time>
      </trkpt>
      <trkpt lat="46.05243" lon="3.20378">
        <ele>364.8</ele>
        <time>2024-04-14T09:40:14Z</time>
      </trkpt>
      <trkpt lat="46.0524" lon="3.20371">
        <ele>365</ele>
        <time>2024-04-14T09:40:15Z</time>
      </trkpt>
      <trkpt lat="46.05236" lon="3.20363">
        <ele>365</ele>
        <time>2024-04-14T09:40:16Z</time>
      </trkpt>
      <trkpt lat="46.05232" lon="3.20356">
        <ele>365</ele>
        <time>2024-04-14T09:40:17Z</time>
      </trkpt>
      <trkpt lat="46.05229" lon="3.20349">
        <ele>365.2</ele>
        <time>2024-04-14T09:40:18Z</time>
      </trkpt>
      <trkpt lat="46.05225" lon="3.20341">
        <ele>365.2</ele>
        <time>2024-04-14T09:40:19Z</time>
      </trkpt>
      <trkpt lat="46.05222" lon="3.20334">
        <ele>365.4</ele>
        <time>2024-04-14T09:40:20Z</time>
      </trkpt>
      <trkpt lat="46.05219" lon="3.20327">
        <ele>365.4</ele>
        <time>2024-04-14T09:40:21Z</time>
      </trkpt>
      <trkpt lat="46.05215" lon="3.2032">
        <ele>365.4</ele>
        <time>2024-04-14T09:40:22Z</time>
      </trkpt>
      <trkpt lat="46.05212" lon="3.20313">
        <ele>365.6</ele>
        <time>2024-04-14T09:40:23Z</time>
      </trkpt>
      <trkpt lat="46.05209" lon="3.20306">
        <ele>365.6</ele>
        <time>2024-04-14T09:40:24Z</time>
      </trkpt>
      <trkpt lat="46.05205" lon="3.20299">
        <ele>365.6</ele>
        <time>2024-04-14T09:40:25Z</time>
      </trkpt>
      <trkpt lat="46.05202" lon="3.20291">
        <ele>365.8</ele>
        <time>2024-04-14T09:40:26Z</time>
      </trkpt>
      <trkpt lat="46.05198" lon="3.20284">
        <ele>365.8</ele>
        <time>2024-04-14T09:40:27Z</time>
      </trkpt>
      <trkpt lat="46.05195" lon="3.20276">
        <ele>365.8</ele>
        <time>2024-04-14T09:40:28Z</time>
      </trkpt>
      <trkpt lat="46.05191" lon="3.20269">
        <ele>366</ele>
        <time>2024-04-14T09:40:29Z</time>
      </trkpt>
      <trkpt lat="46.05188" lon="3.20261">
        <ele>366</ele>
        <time>2024-04-14T09:40:30Z</time>
      </trkpt>
      <trkpt lat="46.05184" lon="3.20254">
        <ele>366.2</ele>
        <time>2024-04-14T09:40:31Z</time>
      </trkpt>
      <trkpt lat="46.05181" lon="3.20246">
        <ele>366.2</ele>
        <time>2024-04-14T09:40:32Z</time>
      </trkpt>
      <trkpt lat="46.05177" lon="3.20239">
        <ele>366.2</ele>
        <time>2024-04-14T09:40:33Z</time>
      </trkpt>
      <trkpt lat="46.05173" lon="3.20231">
        <ele>366.4</ele>
        <time>2024-04-14T09:40:34Z</time>
      </trkpt>
      <trkpt lat="46.0517" lon="3.20223">
        <ele>366.4</ele>
        <time>2024-04-14T09:40:35Z</time>
      </trkpt>
      <trkpt lat="46.05166" lon="3.20215">
        <ele>366.4</ele>
        <time>2024-04-14T09:40:36Z</time>
      </trkpt>
      <trkpt lat="46.05162" lon="3.20208">
        <ele>366.4</ele>
        <time>2024-04-14T09:40:37Z</time>
      </trkpt>
      <trkpt lat="46.05159" lon="3.202">
        <ele>366.6</ele>
        <time>2024-04-14T09:40:38Z</time>
      </trkpt>
      <trkpt lat="46.05155" lon="3.20192">
        <ele>366.6</ele>
        <time>2024-04-14T09:40:39Z</time>
      </trkpt>
      <trkpt lat="46.05151" lon="3.20184">
        <ele>366.6</ele>
        <time>2024-04-14T09:40:40Z</time>
      </trkpt>
      <trkpt lat="46.05148" lon="3.20177">
        <ele>366.6</ele>
        <time>2024-04-14T09:40:41Z</time>
      </trkpt>
      <trkpt lat="46.05144" lon="3.20169">
        <ele>366.6</ele>
        <time>2024-04-14T09:40:42Z</time>
      </trkpt>
      <trkpt lat="46.05141" lon="3.20162">
        <ele>366.8</ele>
        <time>2024-04-14T09:40:43Z</time>
      </trkpt>
      <trkpt lat="46.05137" lon="3.20154">
        <ele>366.8</ele>
        <time>2024-04-14T09:40:44Z</time>
      </trkpt>
      <trkpt lat="46.05133" lon="3.20147">
        <ele>366.8</ele>
        <time>2024-04-14T09:40:45Z</time>
      </trkpt>
      <trkpt lat="46.0513" lon="3.20139">
        <ele>366.8</ele>
        <time>2024-04-14T09:40:46Z</time>
      </trkpt>
      <trkpt lat="46.05126" lon="3.20131">
        <ele>366.8</ele>
        <time>2024-04-14T09:40:47Z</time>
      </trkpt>
      <trkpt lat="46.05122" lon="3.20123">
        <ele>367</ele>
        <time>2024-04-14T09:40:48Z</time>
      </trkpt>
      <trkpt lat="46.05119" lon="3.20115">
        <ele>367</ele>
        <time>2024-04-14T09:40:49Z</time>
      </trkpt>
      <trkpt lat="46.05115" lon="3.20107">
        <ele>367</ele>
        <time>2024-04-14T09:40:50Z</time>
      </trkpt>
      <trkpt lat="46.05111" lon="3.20098">
        <ele>367</ele>
        <time>2024-04-14T09:40:51Z</time>
      </trkpt>
      <trkpt lat="46.05107" lon="3.2009">
        <ele>367</ele>
        <time>2024-04-14T09:40:52Z</time>
      </trkpt>
      <trkpt lat="46.05103" lon="3.20082">
        <ele>367</ele>
        <time>2024-04-14T09:40:53Z</time>
      </trkpt>
      <trkpt lat="46.05099" lon="3.20073">
        <ele>367</ele>
        <time>2024-04-14T09:40:54Z</time>
      </trkpt>
      <trkpt lat="46.05095" lon="3.20065">
        <ele>367.2</ele>
        <time>2024-04-14T09:40:55Z</time>
      </trkpt>
      <trkpt lat="46.05091" lon="3.20056">
        <ele>367.2</ele>
        <time>2024-04-14T09:40:56Z</time>
      </trkpt>
      <trkpt lat="46.05087" lon="3.20048">
        <ele>367.2</ele>
        <time>2024-04-14T09:40:57Z</time>
      </trkpt>
      <trkpt lat="46.05084" lon="3.20039">
        <ele>367.2</ele>
        <time>2024-04-14T09:40:58Z</time>
      </trkpt>
      <trkpt lat="46.0508" lon="3.20031">
        <ele>367.4</ele>
        <time>2024-04-14T09:40:59Z</time>
      </trkpt>
      <trkpt lat="46.05077" lon="3.20022">
        <ele>367.4</ele>
        <time>2024-04-14T09:41:00Z</time>
      </trkpt>
      <trkpt lat="46.05073" lon="3.20013">
        <ele>367.4</ele>
        <time>2024-04-14T09:41:01Z</time>
      </trkpt>
      <trkpt lat="46.0507" lon="3.20005">
        <ele>367.4</ele>
        <time>2024-04-14T09:41:02Z</time>
      </trkpt>
      <trkpt lat="46.05066" lon="3.19996">
        <ele>367.6</ele>
        <time>2024-04-14T09:41:03Z</time>
      </trkpt>
      <trkpt lat="46.05063" lon="3.19988">
        <ele>367.6</ele>
        <time>2024-04-14T09:41:04Z</time>
      </trkpt>
      <trkpt lat="46.0506" lon="3.19979">
        <ele>367.6</ele>
        <time>2024-04-14T09:41:05Z</time>
      </trkpt>
      <trkpt lat="46.05059" lon="3.1997">
        <ele>367.6</ele>
        <time>2024-04-14T09:41:06Z</time>
      </trkpt>
      <trkpt lat="46.05057" lon="3.1996">
        <ele>367.8</ele>
        <time>2024-04-14T09:41:07Z</time>
      </trkpt>
      <trkpt lat="46.05056" lon="3.19952">
        <ele>367.8</ele>
        <time>2024-04-14T09:41:08Z</time>
      </trkpt>
      <trkpt lat="46.05055" lon="3.19943">
        <ele>367.8</ele>
        <time>2024-04-14T09:41:09Z</time>
      </trkpt>
      <trkpt lat="46.05053" lon="3.19935">
        <ele>367.8</ele>
        <time>2024-04-14T09:41:10Z</time>
      </trkpt>
      <trkpt lat="46.05052" lon="3.19926">
        <ele>368</ele>
        <time>2024-04-14T09:41:11Z</time>
      </trkpt>
      <trkpt lat="46.05052" lon="3.19917">
        <ele>368</ele>
        <time>2024-04-14T09:41:12Z</time>
      </trkpt>
      <trkpt lat="46.05052" lon="3.19908">
        <ele>368</ele>
        <time>2024-04-14T09:41:13Z</time>
      </trkpt>
      <trkpt lat="46.05051" lon="3.199">
        <ele>368</ele>
        <time>2024-04-14T09:41:14Z</time>
      </trkpt>
      <trkpt lat="46.05051" lon="3.19891">
        <ele>368</ele>
        <time>2024-04-14T09:41:15Z</time>
      </trkpt>
      <trkpt lat="46.05048" lon="3.19877">
        <ele>368.2</ele>
        <time>2024-04-14T09:41:16Z</time>
      </trkpt>
      <trkpt lat="46.05042" lon="3.19874">
        <ele>368.2</ele>
        <time>2024-04-14T09:41:17Z</time>
      </trkpt>
      <trkpt lat="46.05037" lon="3.19871">
        <ele>368.2</ele>
        <time>2024-04-14T09:41:18Z</time>
      </trkpt>
      <trkpt lat="46.05031" lon="3.19868">
        <ele>368.2</ele>
        <time>2024-04-14T09:41:19Z</time>
      </trkpt>
      <trkpt lat="46.05025" lon="3.19864">
        <ele>368.2</ele>
        <time>2024-04-14T09:41:20Z</time>
      </trkpt>
      <trkpt lat="46.05019" lon="3.19861">
        <ele>368.4</ele>
        <time>2024-04-14T09:41:21Z</time>
      </trkpt>
      <trkpt lat="46.05013" lon="3.19858">
        <ele>368.4</ele>
        <time>2024-04-14T09:41:22Z</time>
      </trkpt>
      <trkpt lat="46.05007" lon="3.19855">
        <ele>368.4</ele>
        <time>2024-04-14T09:41:23Z</time>
      </trkpt>
      <trkpt lat="46.05" lon="3.19851">
        <ele>368.4</ele>
        <time>2024-04-14T09:41:24Z</time>
      </trkpt>
      <trkpt lat="46.04995" lon="3.19848">
        <ele>368.4</ele>
        <time>2024-04-14T09:41:25Z</time>
      </trkpt>
      <trkpt lat="46.0499" lon="3.1984">
        <ele>368.4</ele>
        <time>2024-04-14T09:41:26Z</time>
      </trkpt>
      <trkpt lat="46.04987" lon="3.19832">
        <ele>368.4</ele>
        <time>2024-04-14T09:41:27Z</time>
      </trkpt>
      <trkpt lat="46.04983" lon="3.19825">
        <ele>368.6</ele>
        <time>2024-04-14T09:41:28Z</time>
      </trkpt>
      <trkpt lat="46.0498" lon="3.19818">
        <ele>368.6</ele>
        <time>2024-04-14T09:41:29Z</time>
      </trkpt>
      <trkpt lat="46.04976" lon="3.19811">
        <ele>368.6</ele>
        <time>2024-04-14T09:41:30Z</time>
      </trkpt>
      <trkpt lat="46.04973" lon="3.19803">
        <ele>368.8</ele>
        <time>2024-04-14T09:41:31Z</time>
      </trkpt>
      <trkpt lat="46.04969" lon="3.19796">
        <ele>368.8</ele>
        <time>2024-04-14T09:41:32Z</time>
      </trkpt>
      <trkpt lat="46.04965" lon="3.19789">
        <ele>369</ele>
        <time>2024-04-14T09:41:33Z</time>
      </trkpt>
      <trkpt lat="46.04962" lon="3.19781">
        <ele>369</ele>
        <time>2024-04-14T09:41:34Z</time>
      </trkpt>
      <trkpt lat="46.04958" lon="3.19774">
        <ele>369</ele>
        <time>2024-04-14T09:41:35Z</time>
      </trkpt>
      <trkpt lat="46.04955" lon="3.19767">
        <ele>369.2</ele>
        <time>2024-04-14T09:41:36Z</time>
      </trkpt>
      <trkpt lat="46.04951" lon="3.1976">
        <ele>369.2</ele>
        <time>2024-04-14T09:41:37Z</time>
      </trkpt>
      <trkpt lat="46.04948" lon="3.19753">
        <ele>369.2</ele>
        <time>2024-04-14T09:41:38Z</time>
      </trkpt>
      <trkpt lat="46.04944" lon="3.19746">
        <ele>369.4</ele>
        <time>2024-04-14T09:41:39Z</time>
      </trkpt>
      <trkpt lat="46.04941" lon="3.19739">
        <ele>369.4</ele>
        <time>2024-04-14T09:41:40Z</time>
      </trkpt>
      <trkpt lat="46.04938" lon="3.19733">
        <ele>369.4</ele>
        <time>2024-04-14T09:41:41Z</time>
      </trkpt>
      <trkpt lat="46.04934" lon="3.19726">
        <ele>369.6</ele>
        <time>2024-04-14T09:41:42Z</time>
      </trkpt>
      <trkpt lat="46.04931" lon="3.19719">
        <ele>369.6</ele>
        <time>2024-04-14T09:41:43Z</time>
      </trkpt>
      <trkpt lat="46.04927" lon="3.19711">
        <ele>369.6</ele>
        <time>2024-04-14T09:41:44Z</time>
      </trkpt>
      <trkpt lat="46.04924" lon="3.19704">
        <ele>369.8</ele>
        <time>2024-04-14T09:41:45Z</time>
      </trkpt>
      <trkpt lat="46.0492" lon="3.19697">
        <ele>369.8</ele>
        <time>2024-04-14T09:41:46Z</time>
      </trkpt>
      <trkpt lat="46.04917" lon="3.1969">
        <ele>369.8</ele>
        <time>2024-04-14T09:41:47Z</time>
      </trkpt>
      <trkpt lat="46.04913" lon="3.19683">
        <ele>370</ele>
        <time>2024-04-14T09:41:48Z</time>
      </trkpt>
      <trkpt lat="46.0491" lon="3.19676">
        <ele>370</ele>
        <time>2024-04-14T09:41:49Z</time>
      </trkpt>
      <trkpt lat="46.04907" lon="3.1967">
        <ele>370</ele>
        <time>2024-04-14T09:41:50Z</time>
      </trkpt>
      <trkpt lat="46.04903" lon="3.19662">
        <ele>370.2</ele>
        <time>2024-04-14T09:41:51Z</time>
      </trkpt>
      <trkpt lat="46.049" lon="3.19655">
        <ele>370.2</ele>
        <time>2024-04-14T09:41:52Z</time>
      </trkpt>
      <trkpt lat="46.04896" lon="3.19648">
        <ele>370.2</ele>
        <time>2024-04-14T09:41:53Z</time>
      </trkpt>
      <trkpt lat="46.04893" lon="3.19641">
        <ele>370.4</ele>
        <time>2024-04-14T09:41:54Z</time>
      </trkpt>
      <trkpt lat="46.04889" lon="3.19634">
        <ele>370.4</ele>
        <time>2024-04-14T09:41:55Z</time>
      </trkpt>
      <trkpt lat="46.04886" lon="3.19627">
        <ele>370.4</ele>
        <time>2024-04-14T09:41:56Z</time>
      </trkpt>
      <trkpt lat="46.04882" lon="3.1962">
        <ele>370.4</ele>
        <time>2024-04-14T09:41:57Z</time>
      </trkpt>
      <trkpt lat="46.04879" lon="3.19612">
        <ele>370.6</ele>
        <time>2024-04-14T09:41:58Z</time>
      </trkpt>
      <trkpt lat="46.04875" lon="3.19605">
        <ele>370.6</ele>
        <time>2024-04-14T09:41:59Z</time>
      </trkpt>
      <trkpt lat="46.04872" lon="3.19599">
        <ele>370.6</ele>
        <time>2024-04-14T09:42:00Z</time>
      </trkpt>
      <trkpt lat="46.04868" lon="3.19591">
        <ele>370.8</ele>
        <time>2024-04-14T09:42:01Z</time>
      </trkpt>
      <trkpt lat="46.04865" lon="3.19584">
        <ele>370.8</ele>
        <time>2024-04-14T09:42:02Z</time>
      </trkpt>
      <trkpt lat="46.04861" lon="3.19578">
        <ele>370.8</ele>
        <time>2024-04-14T09:42:03Z</time>
      </trkpt>
      <trkpt lat="46.04858" lon="3.1957">
        <ele>371</ele>
        <time>2024-04-14T09:42:04Z</time>
      </trkpt>
      <trkpt lat="46.04854" lon="3.19563">
        <ele>371</ele>
        <time>2024-04-14T09:42:05Z</time>
      </trkpt>
      <trkpt lat="46.04851" lon="3.19556">
        <ele>371</ele>
        <time>2024-04-14T09:42:06Z</time>
      </trkpt>
      <trkpt lat="46.04847" lon="3.19549">
        <ele>371</ele>
        <time>2024-04-14T09:42:07Z</time>
      </trkpt>
      <trkpt lat="46.04844" lon="3.19542">
        <ele>371.2</ele>
        <time>2024-04-14T09:42:08Z</time>
      </trkpt>
      <trkpt lat="46.0484" lon="3.19535">
        <ele>371.2</ele>
        <time>2024-04-14T09:42:09Z</time>
      </trkpt>
      <trkpt lat="46.04837" lon="3.19528">
        <ele>371.2</ele>
        <time>2024-04-14T09:42:10Z</time>
      </trkpt>
      <trkpt lat="46.04833" lon="3.19521">
        <ele>371.4</ele>
        <time>2024-04-14T09:42:11Z</time>
      </trkpt>
      <trkpt lat="46.0483" lon="3.19514">
        <ele>371.4</ele>
        <time>2024-04-14T09:42:12Z</time>
      </trkpt>
      <trkpt lat="46.04826" lon="3.19508">
        <ele>371.4</ele>
        <time>2024-04-14T09:42:13Z</time>
      </trkpt>
      <trkpt lat="46.04823" lon="3.19501">
        <ele>371.4</ele>
        <time>2024-04-14T09:42:14Z</time>
      </trkpt>
      <trkpt lat="46.0482" lon="3.19494">
        <ele>371.6</ele>
        <time>2024-04-14T09:42:15Z</time>
      </trkpt>
      <trkpt lat="46.04816" lon="3.19487">
        <ele>371.6</ele>
        <time>2024-04-14T09:42:16Z</time>
      </trkpt>
      <trkpt lat="46.04813" lon="3.19481">
        <ele>371.6</ele>
        <time>2024-04-14T09:42:17Z</time>
      </trkpt>
      <trkpt lat="46.0481" lon="3.19474">
        <ele>371.6</ele>
        <time>2024-04-14T09:42:18Z</time>
      </trkpt>
      <trkpt lat="46.04806" lon="3.19468">
        <ele>371.6</ele>
        <time>2024-04-14T09:42:19Z</time>
      </trkpt>
      <trkpt lat="46.04803" lon="3.19461">
        <ele>371.6</ele>
        <time>2024-04-14T09:42:20Z</time>
      </trkpt>
      <trkpt lat="46.048" lon="3.19454">
        <ele>371.4</ele>
        <time>2024-04-14T09:42:21Z</time>
      </trkpt>
      <trkpt lat="46.04796" lon="3.19447">
        <ele>371.4</ele>
        <time>2024-04-14T09:42:22Z</time>
      </trkpt>
      <trkpt lat="46.04793" lon="3.19441">
        <ele>371.4</ele>
        <time>2024-04-14T09:42:23Z</time>
      </trkpt>
      <trkpt lat="46.0479" lon="3.19434">
        <ele>371.4</ele>
        <time>2024-04-14T09:42:24Z</time>
      </trkpt>
      <trkpt lat="46.04786" lon="3.19427">
        <ele>371.4</ele>
        <time>2024-04-14T09:42:25Z</time>
      </trkpt>
      <trkpt lat="46.04783" lon="3.19421">
        <ele>371.4</ele>
        <time>2024-04-14T09:42:26Z</time>
      </trkpt>
      <trkpt lat="46.04779" lon="3.19414">
        <ele>371.4</ele>
        <time>2024-04-14T09:42:27Z</time>
      </trkpt>
      <trkpt lat="46.04776" lon="3.19407">
        <ele>371.4</ele>
        <time>2024-04-14T09:42:28Z</time>
      </trkpt>
      <trkpt lat="46.04773" lon="3.194">
        <ele>371.4</ele>
        <time>2024-04-14T09:42:29Z</time>
      </trkpt>
      <trkpt lat="46.04769" lon="3.19393">
        <ele>371.4</ele>
        <time>2024-04-14T09:42:30Z</time>
      </trkpt>
      <trkpt lat="46.04766" lon="3.19386">
        <ele>371.4</ele>
        <time>2024-04-14T09:42:31Z</time>
      </trkpt>
      <trkpt lat="46.04762" lon="3.19379">
        <ele>371.6</ele>
        <time>2024-04-14T09:42:32Z</time>
      </trkpt>
      <trkpt lat="46.04759" lon="3.19373">
        <ele>371.6</ele>
        <time>2024-04-14T09:42:33Z</time>
      </trkpt>
      <trkpt lat="46.04756" lon="3.19366">
        <ele>371.6</ele>
        <time>2024-04-14T09:42:34Z</time>
      </trkpt>
      <trkpt lat="46.04752" lon="3.19359">
        <ele>371.6</ele>
        <time>2024-04-14T09:42:35Z</time>
      </trkpt>
      <trkpt lat="46.04747" lon="3.19354">
        <ele>371.8</ele>
        <time>2024-04-14T09:42:36Z</time>
      </trkpt>
      <trkpt lat="46.04744" lon="3.19348">
        <ele>371.8</ele>
        <time>2024-04-14T09:42:37Z</time>
      </trkpt>
      <trkpt lat="46.0474" lon="3.19343">
        <ele>371.8</ele>
        <time>2024-04-14T09:42:38Z</time>
      </trkpt>
      <trkpt lat="46.04736" lon="3.19338">
        <ele>371.8</ele>
        <time>2024-04-14T09:42:39Z</time>
      </trkpt>
      <trkpt lat="46.04732" lon="3.19332">
        <ele>371.8</ele>
        <time>2024-04-14T09:42:40Z</time>
      </trkpt>
      <trkpt lat="46.04728" lon="3.19327">
        <ele>371.8</ele>
        <time>2024-04-14T09:42:41Z</time>
      </trkpt>
      <trkpt lat="46.04724" lon="3.19321">
        <ele>371.8</ele>
        <time>2024-04-14T09:42:42Z</time>
      </trkpt>
      <trkpt lat="46.04721" lon="3.19315">
        <ele>371.8</ele>
        <time>2024-04-14T09:42:43Z</time>
      </trkpt>
      <trkpt lat="46.04717" lon="3.1931">
        <ele>371.8</ele>
        <time>2024-04-14T09:42:44Z</time>
      </trkpt>
      <trkpt lat="46.04714" lon="3.19304">
        <ele>371.8</ele>
        <time>2024-04-14T09:42:45Z</time>
      </trkpt>
      <trkpt lat="46.0471" lon="3.19299">
        <ele>372</ele>
        <time>2024-04-14T09:42:46Z</time>
      </trkpt>
      <trkpt lat="46.04707" lon="3.19293">
        <ele>372</ele>
        <time>2024-04-14T09:42:47Z</time>
      </trkpt>
      <trkpt lat="46.04704" lon="3.19286">
        <ele>372</ele>
        <time>2024-04-14T09:42:48Z</time>
      </trkpt>
      <trkpt lat="46.04702" lon="3.1928">
        <ele>372</ele>
        <time>2024-04-14T09:42:49Z</time>
      </trkpt>
      <trkpt lat="46.047" lon="3.19273">
        <ele>372.2</ele>
        <time>2024-04-14T09:42:50Z</time>
      </trkpt>
      <trkpt lat="46.04698" lon="3.19266">
        <ele>372.2</ele>
        <time>2024-04-14T09:42:51Z</time>
      </trkpt>
      <trkpt lat="46.04695" lon="3.19259">
        <ele>372.4</ele>
        <time>2024-04-14T09:42:52Z</time>
      </trkpt>
      <trkpt lat="46.04694" lon="3.19252">
        <ele>372.6</ele>
        <time>2024-04-14T09:42:53Z</time>
      </trkpt>
      <trkpt lat="46.04692" lon="3.19245">
        <ele>372.6</ele>
        <time>2024-04-14T09:42:54Z</time>
      </trkpt>
      <trkpt lat="46.0469" lon="3.19238">
        <ele>372.8</ele>
        <time>2024-04-14T09:42:55Z</time>
      </trkpt>
      <trkpt lat="46.04688" lon="3.19231">
        <ele>372.8</ele>
        <time>2024-04-14T09:42:56Z</time>
      </trkpt>
      <trkpt lat="46.04688" lon="3.19231">
        <ele>372.8</ele>
        <time>2024-04-14T09:42:57Z</time>
      </trkpt>
      <trkpt lat="46.04684" lon="3.19217">
        <ele>373</ele>
        <time>2024-04-14T09:42:58Z</time>
      </trkpt>
      <trkpt lat="46.04682" lon="3.1921">
        <ele>373</ele>
        <time>2024-04-14T09:42:59Z</time>
      </trkpt>
      <trkpt lat="46.0468" lon="3.19204">
        <ele>373</ele>
        <time>2024-04-14T09:43:00Z</time>
      </trkpt>
      <trkpt lat="46.04679" lon="3.19197">
        <ele>373.2</ele>
        <time>2024-04-14T09:43:01Z</time>
      </trkpt>
      <trkpt lat="46.04677" lon="3.1919">
        <ele>373.2</ele>
        <time>2024-04-14T09:43:02Z</time>
      </trkpt>
      <trkpt lat="46.04675" lon="3.19183">
        <ele>373.4</ele>
        <time>2024-04-14T09:43:03Z</time>
      </trkpt>
      <trkpt lat="46.04673" lon="3.19176">
        <ele>373.6</ele>
        <time>2024-04-14T09:43:04Z</time>
      </trkpt>
      <trkpt lat="46.04671" lon="3.19169">
        <ele>373.6</ele>
        <time>2024-04-14T09:43:05Z</time>
      </trkpt>
      <trkpt lat="46.04669" lon="3.19162">
        <ele>373.8</ele>
        <time>2024-04-14T09:43:06Z</time>
      </trkpt>
      <trkpt lat="46.04667" lon="3.19155">
        <ele>373.8</ele>
        <time>2024-04-14T09:43:07Z</time>
      </trkpt>
      <trkpt lat="46.04665" lon="3.19148">
        <ele>374</ele>
        <time>2024-04-14T09:43:08Z</time>
      </trkpt>
      <trkpt lat="46.04663" lon="3.1914">
        <ele>374</ele>
        <time>2024-04-14T09:43:09Z</time>
      </trkpt>
      <trkpt lat="46.04661" lon="3.19133">
        <ele>374.2</ele>
        <time>2024-04-14T09:43:10Z</time>
      </trkpt>
      <trkpt lat="46.04659" lon="3.19126">
        <ele>374.4</ele>
        <time>2024-04-14T09:43:11Z</time>
      </trkpt>
      <trkpt lat="46.04657" lon="3.19118">
        <ele>374.4</ele>
        <time>2024-04-14T09:43:12Z</time>
      </trkpt>
      <trkpt lat="46.04655" lon="3.19111">
        <ele>374.6</ele>
        <time>2024-04-14T09:43:13Z</time>
      </trkpt>
      <trkpt lat="46.04653" lon="3.19104">
        <ele>374.6</ele>
        <time>2024-04-14T09:43:14Z</time>
      </trkpt>
      <trkpt lat="46.04651" lon="3.19097">
        <ele>374.8</ele>
        <time>2024-04-14T09:43:15Z</time>
      </trkpt>
      <trkpt lat="46.04649" lon="3.1909">
        <ele>374.8</ele>
        <time>2024-04-14T09:43:16Z</time>
      </trkpt>
      <trkpt lat="46.04647" lon="3.19082">
        <ele>375</ele>
        <time>2024-04-14T09:43:17Z</time>
      </trkpt>
      <trkpt lat="46.04645" lon="3.19075">
        <ele>375</ele>
        <time>2024-04-14T09:43:18Z</time>
      </trkpt>
      <trkpt lat="46.04643" lon="3.19068">
        <ele>375</ele>
        <time>2024-04-14T09:43:19Z</time>
      </trkpt>
      <trkpt lat="46.04641" lon="3.19061">
        <ele>375.2</ele>
        <time>2024-04-14T09:43:20Z</time>
      </trkpt>
      <trkpt lat="46.04639" lon="3.19054">
        <ele>375.2</ele>
        <time>2024-04-14T09:43:21Z</time>
      </trkpt>
      <trkpt lat="46.04637" lon="3.19047">
        <ele>375.4</ele>
        <time>2024-04-14T09:43:22Z</time>
      </trkpt>
      <trkpt lat="46.04635" lon="3.19039">
        <ele>375.6</ele>
        <time>2024-04-14T09:43:23Z</time>
      </trkpt>
      <trkpt lat="46.04634" lon="3.19032">
        <ele>375.6</ele>
        <time>2024-04-14T09:43:24Z</time>
      </trkpt>
      <trkpt lat="46.04632" lon="3.19022">
        <ele>375.8</ele>
        <time>2024-04-14T09:43:25Z</time>
      </trkpt>
      <trkpt lat="46.04633" lon="3.19015">
        <ele>376</ele>
        <time>2024-04-14T09:43:26Z</time>
      </trkpt>
      <trkpt lat="46.04634" lon="3.19007">
        <ele>376</ele>
        <time>2024-04-14T09:43:27Z</time>
      </trkpt>
      <trkpt lat="46.04634" lon="3.18999">
        <ele>376</ele>
        <time>2024-04-14T09:43:28Z</time>
      </trkpt>
      <trkpt lat="46.04635" lon="3.18991">
        <ele>376.2</ele>
        <time>2024-04-14T09:43:29Z</time>
      </trkpt>
      <trkpt lat="46.04636" lon="3.18983">
        <ele>376.4</ele>
        <time>2024-04-14T09:43:30Z</time>
      </trkpt>
      <trkpt lat="46.04637" lon="3.18975">
        <ele>376.6</ele>
        <time>2024-04-14T09:43:31Z</time>
      </trkpt>
      <trkpt lat="46.04637" lon="3.18967">
        <ele>376.6</ele>
        <time>2024-04-14T09:43:32Z</time>
      </trkpt>
      <trkpt lat="46.04638" lon="3.18959">
        <ele>376.8</ele>
        <time>2024-04-14T09:43:33Z</time>
      </trkpt>
      <trkpt lat="46.04638" lon="3.18952">
        <ele>377</ele>
        <time>2024-04-14T09:43:34Z</time>
      </trkpt>
      <trkpt lat="46.04636" lon="3.18945">
        <ele>377.2</ele>
        <time>2024-04-14T09:43:35Z</time>
      </trkpt>
      <trkpt lat="46.04635" lon="3.18938">
        <ele>377.2</ele>
        <time>2024-04-14T09:43:36Z</time>
      </trkpt>
      <trkpt lat="46.04634" lon="3.18931">
        <ele>377.4</ele>
        <time>2024-04-14T09:43:37Z</time>
      </trkpt>
      <trkpt lat="46.04632" lon="3.18924">
        <ele>377.6</ele>
        <time>2024-04-14T09:43:38Z</time>
      </trkpt>
      <trkpt lat="46.0463" lon="3.18918">
        <ele>377.8</ele>
        <time>2024-04-14T09:43:39Z</time>
      </trkpt>
      <trkpt lat="46.04629" lon="3.18911">
        <ele>377.8</ele>
        <time>2024-04-14T09:43:40Z</time>
      </trkpt>
      <trkpt lat="46.04627" lon="3.18904">
        <ele>378</ele>
        <time>2024-04-14T09:43:41Z</time>
      </trkpt>
      <trkpt lat="46.04624" lon="3.18898">
        <ele>378.2</ele>
        <time>2024-04-14T09:43:42Z</time>
      </trkpt>
      <trkpt lat="46.04621" lon="3.18893">
        <ele>378.4</ele>
        <time>2024-04-14T09:43:43Z</time>
      </trkpt>
      <trkpt lat="46.04617" lon="3.18888">
        <ele>378.4</ele>
        <time>2024-04-14T09:43:44Z</time>
      </trkpt>
      <trkpt lat="46.04613" lon="3.18884">
        <ele>378.6</ele>
        <time>2024-04-14T09:43:45Z</time>
      </trkpt>
      <trkpt lat="46.04608" lon="3.1888">
        <ele>378.8</ele>
        <time>2024-04-14T09:43:46Z</time>
      </trkpt>
      <trkpt lat="46.04604" lon="3.18878">
        <ele>378.8</ele>
        <time>2024-04-14T09:43:47Z</time>
      </trkpt>
      <trkpt lat="46.04599" lon="3.18875">
        <ele>379</ele>
        <time>2024-04-14T09:43:48Z</time>
      </trkpt>
      <trkpt lat="46.04595" lon="3.18872">
        <ele>379.2</ele>
        <time>2024-04-14T09:43:49Z</time>
      </trkpt>
      <trkpt lat="46.0459" lon="3.18869">
        <ele>379.2</ele>
        <time>2024-04-14T09:43:50Z</time>
      </trkpt>
      <trkpt lat="46.04586" lon="3.18866">
        <ele>379.4</ele>
        <time>2024-04-14T09:43:51Z</time>
      </trkpt>
      <trkpt lat="46.04582" lon="3.18863">
        <ele>379.6</ele>
        <time>2024-04-14T09:43:52Z</time>
      </trkpt>
      <trkpt lat="46.04577" lon="3.1886">
        <ele>379.6</ele>
        <time>2024-04-14T09:43:53Z</time>
      </trkpt>
      <trkpt lat="46.04573" lon="3.18857">
        <ele>379.8</ele>
        <time>2024-04-14T09:43:54Z</time>
      </trkpt>
      <trkpt lat="46.04569" lon="3.18855">
        <ele>380</ele>
        <time>2024-04-14T09:43:55Z</time>
      </trkpt>
      <trkpt lat="46.04564" lon="3.18852">
        <ele>380</ele>
        <time>2024-04-14T09:43:56Z</time>
      </trkpt>
      <trkpt lat="46.0456" lon="3.18849">
        <ele>380.2</ele>
        <time>2024-04-14T09:43:57Z</time>
      </trkpt>
      <trkpt lat="46.04555" lon="3.18846">
        <ele>380.4</ele>
        <time>2024-04-14T09:43:58Z</time>
      </trkpt>
      <trkpt lat="46.04551" lon="3.18843">
        <ele>380.4</ele>
        <time>2024-04-14T09:43:59Z</time>
      </trkpt>
      <trkpt lat="46.04547" lon="3.18841">
        <ele>380.6</ele>
        <time>2024-04-14T09:44:00Z</time>
      </trkpt>
      <trkpt lat="46.04543" lon="3.18838">
        <ele>380.6</ele>
        <time>2024-04-14T09:44:01Z</time>
      </trkpt>
      <trkpt lat="46.04539" lon="3.18835">
        <ele>380.8</ele>
        <time>2024-04-14T09:44:02Z</time>
      </trkpt>
      <trkpt lat="46.04535" lon="3.18832">
        <ele>381</ele>
        <time>2024-04-14T09:44:03Z</time>
      </trkpt>
      <trkpt lat="46.04531" lon="3.18829">
        <ele>381</ele>
        <time>2024-04-14T09:44:04Z</time>
      </trkpt>
      <trkpt lat="46.04527" lon="3.18825">
        <ele>381.2</ele>
        <time>2024-04-14T09:44:05Z</time>
      </trkpt>
      <trkpt lat="46.04523" lon="3.18822">
        <ele>381.4</ele>
        <time>2024-04-14T09:44:06Z</time>
      </trkpt>
      <trkpt lat="46.04519" lon="3.18819">
        <ele>381.4</ele>
        <time>2024-04-14T09:44:07Z</time>
      </trkpt>
      <trkpt lat="46.04516" lon="3.18815">
        <ele>381.6</ele>
        <time>2024-04-14T09:44:08Z</time>
      </trkpt>
      <trkpt lat="46.04512" lon="3.18812">
        <ele>381.8</ele>
        <time>2024-04-14T09:44:09Z</time>
      </trkpt>
      <trkpt lat="46.04508" lon="3.18808">
        <ele>382</ele>
        <time>2024-04-14T09:44:10Z</time>
      </trkpt>
      <trkpt lat="46.04504" lon="3.18805">
        <ele>382</ele>
        <time>2024-04-14T09:44:11Z</time>
      </trkpt>
      <trkpt lat="46.04501" lon="3.18802">
        <ele>382.2</ele>
        <time>2024-04-14T09:44:12Z</time>
      </trkpt>
      <trkpt lat="46.04497" lon="3.18798">
        <ele>382.4</ele>
        <time>2024-04-14T09:44:13Z</time>
      </trkpt>
      <trkpt lat="46.04493" lon="3.18795">
        <ele>382.6</ele>
        <time>2024-04-14T09:44:14Z</time>
      </trkpt>
      <trkpt lat="46.0449" lon="3.18791">
        <ele>382.6</ele>
        <time>2024-04-14T09:44:15Z</time>
      </trkpt>
      <trkpt lat="46.04488" lon="3.18786">
        <ele>382.8</ele>
        <time>2024-04-14T09:44:16Z</time>
      </trkpt>
      <trkpt lat="46.04486" lon="3.1878">
        <ele>383</ele>
        <time>2024-04-14T09:44:17Z</time>
      </trkpt>
      <trkpt lat="46.04484" lon="3.18775">
        <ele>383</ele>
        <time>2024-04-14T09:44:18Z</time>
      </trkpt>
      <trkpt lat="46.04483" lon="3.18769">
        <ele>383.2</ele>
        <time>2024-04-14T09:44:19Z</time>
      </trkpt>
      <trkpt lat="46.04482" lon="3.18764">
        <ele>383.2</ele>
        <time>2024-04-14T09:44:20Z</time>
      </trkpt>
      <trkpt lat="46.04482" lon="3.18756">
        <ele>383.4</ele>
        <time>2024-04-14T09:44:21Z</time>
      </trkpt>
      <trkpt lat="46.04482" lon="3.1875">
        <ele>383.6</ele>
        <time>2024-04-14T09:44:22Z</time>
      </trkpt>
      <trkpt lat="46.04481" lon="3.18744">
        <ele>383.6</ele>
        <time>2024-04-14T09:44:23Z</time>
      </trkpt>
      <trkpt lat="46.0448" lon="3.18738">
        <ele>383.6</ele>
        <time>2024-04-14T09:44:24Z</time>
      </trkpt>
      <trkpt lat="46.0448" lon="3.1873">
        <ele>383.8</ele>
        <time>2024-04-14T09:44:25Z</time>
      </trkpt>
      <trkpt lat="46.0448" lon="3.18722">
        <ele>383.8</ele>
        <time>2024-04-14T09:44:26Z</time>
      </trkpt>
      <trkpt lat="46.0448" lon="3.18715">
        <ele>384</ele>
        <time>2024-04-14T09:44:27Z</time>
      </trkpt>
      <trkpt lat="46.0448" lon="3.18705">
        <ele>384.2</ele>
        <time>2024-04-14T09:44:28Z</time>
      </trkpt>
      <trkpt lat="46.04481" lon="3.18698">
        <ele>384.2</ele>
        <time>2024-04-14T09:44:29Z</time>
      </trkpt>
      <trkpt lat="46.04482" lon="3.1869">
        <ele>384.4</ele>
        <time>2024-04-14T09:44:30Z</time>
      </trkpt>
      <trkpt lat="46.04483" lon="3.18682">
        <ele>384.4</ele>
        <time>2024-04-14T09:44:31Z</time>
      </trkpt>
      <trkpt lat="46.04484" lon="3.18674">
        <ele>384.6</ele>
        <time>2024-04-14T09:44:32Z</time>
      </trkpt>
      <trkpt lat="46.04484" lon="3.18666">
        <ele>384.6</ele>
        <time>2024-04-14T09:44:33Z</time>
      </trkpt>
      <trkpt lat="46.04485" lon="3.18658">
        <ele>384.8</ele>
        <time>2024-04-14T09:44:34Z</time>
      </trkpt>
      <trkpt lat="46.04486" lon="3.18649">
        <ele>384.8</ele>
        <time>2024-04-14T09:44:35Z</time>
      </trkpt>
      <trkpt lat="46.04487" lon="3.18641">
        <ele>384.8</ele>
        <time>2024-04-14T09:44:36Z</time>
      </trkpt>
      <trkpt lat="46.04487" lon="3.18633">
        <ele>384.8</ele>
        <time>2024-04-14T09:44:37Z</time>
      </trkpt>
      <trkpt lat="46.04488" lon="3.18624">
        <ele>385</ele>
        <time>2024-04-14T09:44:38Z</time>
      </trkpt>
      <trkpt lat="46.04489" lon="3.18616">
        <ele>385</ele>
        <time>2024-04-14T09:44:39Z</time>
      </trkpt>
      <trkpt lat="46.0449" lon="3.18608">
        <ele>385.2</ele>
        <time>2024-04-14T09:44:40Z</time>
      </trkpt>
      <trkpt lat="46.0449" lon="3.186">
        <ele>385.2</ele>
        <time>2024-04-14T09:44:41Z</time>
      </trkpt>
      <trkpt lat="46.04491" lon="3.18592">
        <ele>385.4</ele>
        <time>2024-04-14T09:44:42Z</time>
      </trkpt>
      <trkpt lat="46.04492" lon="3.18584">
        <ele>385.4</ele>
        <time>2024-04-14T09:44:43Z</time>
      </trkpt>
      <trkpt lat="46.04492" lon="3.18575">
        <ele>385.4</ele>
        <time>2024-04-14T09:44:44Z</time>
      </trkpt>
      <trkpt lat="46.04493" lon="3.18566">
        <ele>385.6</ele>
        <time>2024-04-14T09:44:45Z</time>
      </trkpt>
      <trkpt lat="46.04493" lon="3.18558">
        <ele>385.6</ele>
        <time>2024-04-14T09:44:46Z</time>
      </trkpt>
      <trkpt lat="46.04494" lon="3.18549">
        <ele>385.6</ele>
        <time>2024-04-14T09:44:47Z</time>
      </trkpt>
      <trkpt lat="46.04495" lon="3.18541">
        <ele>385.8</ele>
        <time>2024-04-14T09:44:48Z</time>
      </trkpt>
      <trkpt lat="46.04494" lon="3.18532">
        <ele>385.8</ele>
        <time>2024-04-14T09:44:49Z</time>
      </trkpt>
      <trkpt lat="46.04493" lon="3.18524">
        <ele>386</ele>
        <time>2024-04-14T09:44:50Z</time>
      </trkpt>
      <trkpt lat="46.04493" lon="3.18516">
        <ele>386</ele>
        <time>2024-04-14T09:44:51Z</time>
      </trkpt>
      <trkpt lat="46.04492" lon="3.18508">
        <ele>386.2</ele>
        <time>2024-04-14T09:44:52Z</time>
      </trkpt>
      <trkpt lat="46.04491" lon="3.185">
        <ele>386.2</ele>
        <time>2024-04-14T09:44:53Z</time>
      </trkpt>
      <trkpt lat="46.0449" lon="3.18492">
        <ele>386.2</ele>
        <time>2024-04-14T09:44:54Z</time>
      </trkpt>
      <trkpt lat="46.04489" lon="3.18483">
        <ele>386.4</ele>
        <time>2024-04-14T09:44:55Z</time>
      </trkpt>
      <trkpt lat="46.04488" lon="3.18475">
        <ele>386.4</ele>
        <time>2024-04-14T09:44:56Z</time>
      </trkpt>
      <trkpt lat="46.04488" lon="3.18467">
        <ele>386.6</ele>
        <time>2024-04-14T09:44:57Z</time>
      </trkpt>
      <trkpt lat="46.04487" lon="3.18459">
        <ele>386.6</ele>
        <time>2024-04-14T09:44:58Z</time>
      </trkpt>
      <trkpt lat="46.04487" lon="3.18451">
        <ele>386.6</ele>
        <time>2024-04-14T09:44:59Z</time>
      </trkpt>
      <trkpt lat="46.04486" lon="3.18443">
        <ele>386.8</ele>
        <time>2024-04-14T09:45:00Z</time>
      </trkpt>
      <trkpt lat="46.04486" lon="3.18435">
        <ele>386.8</ele>
        <time>2024-04-14T09:45:01Z</time>
      </trkpt>
      <trkpt lat="46.04485" lon="3.18427">
        <ele>386.8</ele>
        <time>2024-04-14T09:45:02Z</time>
      </trkpt>
      <trkpt lat="46.04485" lon="3.18419">
        <ele>387</ele>
        <time>2024-04-14T09:45:03Z</time>
      </trkpt>
      <trkpt lat="46.04484" lon="3.18411">
        <ele>387</ele>
        <time>2024-04-14T09:45:04Z</time>
      </trkpt>
      <trkpt lat="46.04485" lon="3.18402">
        <ele>387.2</ele>
        <time>2024-04-14T09:45:05Z</time>
      </trkpt>
      <trkpt lat="46.04487" lon="3.18395">
        <ele>387.2</ele>
        <time>2024-04-14T09:45:06Z</time>
      </trkpt>
      <trkpt lat="46.04488" lon="3.18387">
        <ele>387.4</ele>
        <time>2024-04-14T09:45:07Z</time>
      </trkpt>
      <trkpt lat="46.0449" lon="3.1838">
        <ele>387.4</ele>
        <time>2024-04-14T09:45:08Z</time>
      </trkpt>
      <trkpt lat="46.04492" lon="3.18372">
        <ele>387.6</ele>
        <time>2024-04-14T09:45:09Z</time>
      </trkpt>
      <trkpt lat="46.04494" lon="3.18365">
        <ele>387.6</ele>
        <time>2024-04-14T09:45:10Z</time>
      </trkpt>
      <trkpt lat="46.04496" lon="3.18359">
        <ele>387.6</ele>
        <time>2024-04-14T09:45:11Z</time>
      </trkpt>
      <trkpt lat="46.04498" lon="3.18352">
        <ele>387.6</ele>
        <time>2024-04-14T09:45:12Z</time>
      </trkpt>
      <trkpt lat="46.045" lon="3.18346">
        <ele>387.6</ele>
        <time>2024-04-14T09:45:13Z</time>
      </trkpt>
      <trkpt lat="46.04502" lon="3.1834">
        <ele>387.8</ele>
        <time>2024-04-14T09:45:14Z</time>
      </trkpt>
      <trkpt lat="46.04505" lon="3.18333">
        <ele>387.8</ele>
        <time>2024-04-14T09:45:15Z</time>
      </trkpt>
      <trkpt lat="46.04509" lon="3.18326">
        <ele>387.8</ele>
        <time>2024-04-14T09:45:16Z</time>
      </trkpt>
      <trkpt lat="46.04511" lon="3.18323">
        <ele>387.8</ele>
        <time>2024-04-14T09:45:17Z</time>
      </trkpt>
      <trkpt lat="46.04515" lon="3.18315">
        <ele>387.8</ele>
        <time>2024-04-14T09:45:18Z</time>
      </trkpt>
      <trkpt lat="46.04512" lon="3.1831">
        <ele>387.8</ele>
        <time>2024-04-14T09:45:19Z</time>
      </trkpt>
      <trkpt lat="46.04509" lon="3.18304">
        <ele>388</ele>
        <time>2024-04-14T09:45:20Z</time>
      </trkpt>
      <trkpt lat="46.04506" lon="3.18298">
        <ele>388</ele>
        <time>2024-04-14T09:45:21Z</time>
      </trkpt>
      <trkpt lat="46.04502" lon="3.18293">
        <ele>388</ele>
        <time>2024-04-14T09:45:22Z</time>
      </trkpt>
      <trkpt lat="46.045" lon="3.18284">
        <ele>388</ele>
        <time>2024-04-14T09:45:23Z</time>
      </trkpt>
      <trkpt lat="46.04499" lon="3.18276">
        <ele>388</ele>
        <time>2024-04-14T09:45:24Z</time>
      </trkpt>
      <trkpt lat="46.04499" lon="3.18269">
        <ele>388.2</ele>
        <time>2024-04-14T09:45:25Z</time>
      </trkpt>
      <trkpt lat="46.04498" lon="3.18261">
        <ele>388.2</ele>
        <time>2024-04-14T09:45:26Z</time>
      </trkpt>
      <trkpt lat="46.04497" lon="3.18253">
        <ele>388.2</ele>
        <time>2024-04-14T09:45:27Z</time>
      </trkpt>
      <trkpt lat="46.04498" lon="3.18245">
        <ele>388.2</ele>
        <time>2024-04-14T09:45:28Z</time>
      </trkpt>
      <trkpt lat="46.045" lon="3.18238">
        <ele>388.2</ele>
        <time>2024-04-14T09:45:29Z</time>
      </trkpt>
      <trkpt lat="46.04502" lon="3.1823">
        <ele>388.4</ele>
        <time>2024-04-14T09:45:30Z</time>
      </trkpt>
      <trkpt lat="46.04503" lon="3.18222">
        <ele>388.4</ele>
        <time>2024-04-14T09:45:31Z</time>
      </trkpt>
      <trkpt lat="46.04505" lon="3.18214">
        <ele>388.4</ele>
        <time>2024-04-14T09:45:32Z</time>
      </trkpt>
      <trkpt lat="46.04507" lon="3.18206">
        <ele>388.4</ele>
        <time>2024-04-14T09:45:33Z</time>
      </trkpt>
      <trkpt lat="46.04509" lon="3.18198">
        <ele>388.4</ele>
        <time>2024-04-14T09:45:34Z</time>
      </trkpt>
      <trkpt lat="46.0451" lon="3.1819">
        <ele>388.6</ele>
        <time>2024-04-14T09:45:35Z</time>
      </trkpt>
      <trkpt lat="46.04512" lon="3.18182">
        <ele>388.6</ele>
        <time>2024-04-14T09:45:36Z</time>
      </trkpt>
      <trkpt lat="46.04514" lon="3.18174">
        <ele>388.6</ele>
        <time>2024-04-14T09:45:37Z</time>
      </trkpt>
      <trkpt lat="46.04516" lon="3.18166">
        <ele>388.6</ele>
        <time>2024-04-14T09:45:38Z</time>
      </trkpt>
      <trkpt lat="46.04518" lon="3.18157">
        <ele>388.8</ele>
        <time>2024-04-14T09:45:39Z</time>
      </trkpt>
      <trkpt lat="46.04519" lon="3.18149">
        <ele>388.8</ele>
        <time>2024-04-14T09:45:40Z</time>
      </trkpt>
      <trkpt lat="46.04521" lon="3.18142">
        <ele>388.8</ele>
        <time>2024-04-14T09:45:41Z</time>
      </trkpt>
      <trkpt lat="46.04523" lon="3.18134">
        <ele>388.8</ele>
        <time>2024-04-14T09:45:42Z</time>
      </trkpt>
      <trkpt lat="46.04525" lon="3.18126">
        <ele>388.8</ele>
        <time>2024-04-14T09:45:43Z</time>
      </trkpt>
      <trkpt lat="46.04526" lon="3.18118">
        <ele>388.8</ele>
        <time>2024-04-14T09:45:44Z</time>
      </trkpt>
      <trkpt lat="46.04528" lon="3.1811">
        <ele>388.8</ele>
        <time>2024-04-14T09:45:45Z</time>
      </trkpt>
      <trkpt lat="46.0453" lon="3.18103">
        <ele>388.8</ele>
        <time>2024-04-14T09:45:46Z</time>
      </trkpt>
      <trkpt lat="46.04531" lon="3.18094">
        <ele>389</ele>
        <time>2024-04-14T09:45:47Z</time>
      </trkpt>
      <trkpt lat="46.04531" lon="3.18086">
        <ele>389</ele>
        <time>2024-04-14T09:45:48Z</time>
      </trkpt>
      <trkpt lat="46.04531" lon="3.18078">
        <ele>389</ele>
        <time>2024-04-14T09:45:49Z</time>
      </trkpt>
      <trkpt lat="46.0453" lon="3.1807">
        <ele>389</ele>
        <time>2024-04-14T09:45:50Z</time>
      </trkpt>
      <trkpt lat="46.0453" lon="3.18062">
        <ele>389</ele>
        <time>2024-04-14T09:45:51Z</time>
      </trkpt>
      <trkpt lat="46.0453" lon="3.18054">
        <ele>389.2</ele>
        <time>2024-04-14T09:45:52Z</time>
      </trkpt>
      <trkpt lat="46.0453" lon="3.18046">
        <ele>389.2</ele>
        <time>2024-04-14T09:45:53Z</time>
      </trkpt>
      <trkpt lat="46.0453" lon="3.18038">
        <ele>389.2</ele>
        <time>2024-04-14T09:45:54Z</time>
      </trkpt>
      <trkpt lat="46.04529" lon="3.18031">
        <ele>389.2</ele>
        <time>2024-04-14T09:45:55Z</time>
      </trkpt>
      <trkpt lat="46.04529" lon="3.18023">
        <ele>389.2</ele>
        <time>2024-04-14T09:45:56Z</time>
      </trkpt>
      <trkpt lat="46.04529" lon="3.18016">
        <ele>389.2</ele>
        <time>2024-04-14T09:45:57Z</time>
      </trkpt>
      <trkpt lat="46.04529" lon="3.18008">
        <ele>389.4</ele>
        <time>2024-04-14T09:45:58Z</time>
      </trkpt>
      <trkpt lat="46.0453" lon="3.18001">
        <ele>389.4</ele>
        <time>2024-04-14T09:45:59Z</time>
      </trkpt>
      <trkpt lat="46.0453" lon="3.17994">
        <ele>389.6</ele>
        <time>2024-04-14T09:46:00Z</time>
      </trkpt>
      <trkpt lat="46.0453" lon="3.17987">
        <ele>389.6</ele>
        <time>2024-04-14T09:46:01Z</time>
      </trkpt>
      <trkpt lat="46.0453" lon="3.1798">
        <ele>389.6</ele>
        <time>2024-04-14T09:46:02Z</time>
      </trkpt>
      <trkpt lat="46.04531" lon="3.17973">
        <ele>389.6</ele>
        <time>2024-04-14T09:46:03Z</time>
      </trkpt>
      <trkpt lat="46.04533" lon="3.17964">
        <ele>389.6</ele>
        <time>2024-04-14T09:46:04Z</time>
      </trkpt>
      <trkpt lat="46.04535" lon="3.17959">
        <ele>389.8</ele>
        <time>2024-04-14T09:46:05Z</time>
      </trkpt>
      <trkpt lat="46.04539" lon="3.17953">
        <ele>389.8</ele>
        <time>2024-04-14T09:46:06Z</time>
      </trkpt>
      <trkpt lat="46.04542" lon="3.17948">
        <ele>390</ele>
        <time>2024-04-14T09:46:07Z</time>
      </trkpt>
      <trkpt lat="46.04545" lon="3.17942">
        <ele>390</ele>
        <time>2024-04-14T09:46:08Z</time>
      </trkpt>
      <trkpt lat="46.04548" lon="3.17937">
        <ele>390.2</ele>
        <time>2024-04-14T09:46:09Z</time>
      </trkpt>
      <trkpt lat="46.04551" lon="3.17931">
        <ele>390.4</ele>
        <time>2024-04-14T09:46:10Z</time>
      </trkpt>
      <trkpt lat="46.04554" lon="3.17926">
        <ele>390.4</ele>
        <time>2024-04-14T09:46:11Z</time>
      </trkpt>
      <trkpt lat="46.04556" lon="3.1792">
        <ele>390.4</ele>
        <time>2024-04-14T09:46:12Z</time>
      </trkpt>
      <trkpt lat="46.04557" lon="3.17915">
        <ele>390.4</ele>
        <time>2024-04-14T09:46:13Z</time>
      </trkpt>
      <trkpt lat="46.04558" lon="3.1791">
        <ele>390.4</ele>
        <time>2024-04-14T09:46:14Z</time>
      </trkpt>
      <trkpt lat="46.04559" lon="3.17905">
        <ele>390.4</ele>
        <time>2024-04-14T09:46:15Z</time>
      </trkpt>
      <trkpt lat="46.04559" lon="3.17902">
        <ele>390.4</ele>
        <time>2024-04-14T09:46:16Z</time>
      </trkpt>
      <trkpt lat="46.04559" lon="3.17897">
        <ele>390.4</ele>
        <time>2024-04-14T09:46:17Z</time>
      </trkpt>
      <trkpt lat="46.04559" lon="3.17893">
        <ele>390.6</ele>
        <time>2024-04-14T09:46:18Z</time>
      </trkpt>
      <trkpt lat="46.0456" lon="3.17889">
        <ele>390.6</ele>
        <time>2024-04-14T09:46:19Z</time>
      </trkpt>
      <trkpt lat="46.0456" lon="3.17885">
        <ele>390.6</ele>
        <time>2024-04-14T09:46:20Z</time>
      </trkpt>
      <trkpt lat="46.0456" lon="3.17881">
        <ele>390.8</ele>
        <time>2024-04-14T09:46:21Z</time>
      </trkpt>
      <trkpt lat="46.0456" lon="3.17877">
        <ele>390.8</ele>
        <time>2024-04-14T09:46:22Z</time>
      </trkpt>
      <trkpt lat="46.0456" lon="3.17872">
        <ele>390.8</ele>
        <time>2024-04-14T09:46:23Z</time>
      </trkpt>
      <trkpt lat="46.04561" lon="3.17867">
        <ele>391</ele>
        <time>2024-04-14T09:46:24Z</time>
      </trkpt>
      <trkpt lat="46.04561" lon="3.17863">
        <ele>391</ele>
        <time>2024-04-14T09:46:25Z</time>
      </trkpt>
      <trkpt lat="46.04561" lon="3.17859">
        <ele>391</ele>
        <time>2024-04-14T09:46:26Z</time>
      </trkpt>
      <trkpt lat="46.04561" lon="3.17855">
        <ele>391</ele>
        <time>2024-04-14T09:46:27Z</time>
      </trkpt>
      <trkpt lat="46.0456" lon="3.17852">
        <ele>391</ele>
        <time>2024-04-14T09:46:28Z</time>
      </trkpt>
      <trkpt lat="46.04559" lon="3.17848">
        <ele>391.2</ele>
        <time>2024-04-14T09:46:29Z</time>
      </trkpt>
      <trkpt lat="46.04559" lon="3.17846">
        <ele>391.2</ele>
        <time>2024-04-14T09:46:30Z</time>
      </trkpt>
      <trkpt lat="46.04558" lon="3.17843">
        <ele>391.4</ele>
        <time>2024-04-14T09:46:31Z</time>
      </trkpt>
      <trkpt lat="46.04557" lon="3.1784">
        <ele>391.4</ele>
        <time>2024-04-14T09:46:32Z</time>
      </trkpt>
      <trkpt lat="46.04556" lon="3.17836">
        <ele>391.6</ele>
        <time>2024-04-14T09:46:33Z</time>
      </trkpt>
      <trkpt lat="46.04554" lon="3.17831">
        <ele>392</ele>
        <time>2024-04-14T09:46:34Z</time>
      </trkpt>
      <trkpt lat="46.04553" lon="3.17826">
        <ele>392.2</ele>
        <time>2024-04-14T09:46:35Z</time>
      </trkpt>
      <trkpt lat="46.04552" lon="3.17823">
        <ele>392.4</ele>
        <time>2024-04-14T09:46:36Z</time>
      </trkpt>
      <trkpt lat="46.04551" lon="3.17818">
        <ele>392.6</ele>
        <time>2024-04-14T09:46:37Z</time>
      </trkpt>
      <trkpt lat="46.0455" lon="3.17814">
        <ele>392.8</ele>
        <time>2024-04-14T09:46:38Z</time>
      </trkpt>
      <trkpt lat="46.04549" lon="3.1781">
        <ele>392.8</ele>
        <time>2024-04-14T09:46:39Z</time>
      </trkpt>
      <trkpt lat="46.04548" lon="3.17806">
        <ele>393</ele>
        <time>2024-04-14T09:46:40Z</time>
      </trkpt>
      <trkpt lat="46.04546" lon="3.17801">
        <ele>393.2</ele>
        <time>2024-04-14T09:46:41Z</time>
      </trkpt>
      <trkpt lat="46.04545" lon="3.17797">
        <ele>393.4</ele>
        <time>2024-04-14T09:46:42Z</time>
      </trkpt>
      <trkpt lat="46.04544" lon="3.17792">
        <ele>393.6</ele>
        <time>2024-04-14T09:46:43Z</time>
      </trkpt>
      <trkpt lat="46.04543" lon="3.17787">
        <ele>393.8</ele>
        <time>2024-04-14T09:46:44Z</time>
      </trkpt>
      <trkpt lat="46.04541" lon="3.17783">
        <ele>394</ele>
        <time>2024-04-14T09:46:45Z</time>
      </trkpt>
      <trkpt lat="46.0454" lon="3.17778">
        <ele>394</ele>
        <time>2024-04-14T09:46:46Z</time>
      </trkpt>
      <trkpt lat="46.04539" lon="3.17774">
        <ele>394.2</ele>
        <time>2024-04-14T09:46:47Z</time>
      </trkpt>
      <trkpt lat="46.04538" lon="3.17769">
        <ele>394.4</ele>
        <time>2024-04-14T09:46:48Z</time>
      </trkpt>
      <trkpt lat="46.04536" lon="3.17765">
        <ele>394.4</ele>
        <time>2024-04-14T09:46:49Z</time>
      </trkpt>
      <trkpt lat="46.04535" lon="3.1776">
        <ele>394.6</ele>
        <time>2024-04-14T09:46:50Z</time>
      </trkpt>
      <trkpt lat="46.04533" lon="3.17756">
        <ele>394.8</ele>
        <time>2024-04-14T09:46:51Z</time>
      </trkpt>
      <trkpt lat="46.04532" lon="3.17751">
        <ele>395</ele>
        <time>2024-04-14T09:46:52Z</time>
      </trkpt>
      <trkpt lat="46.04531" lon="3.17747">
        <ele>395.2</ele>
        <time>2024-04-14T09:46:53Z</time>
      </trkpt>
      <trkpt lat="46.04529" lon="3.17742">
        <ele>395.4</ele>
        <time>2024-04-14T09:46:54Z</time>
      </trkpt>
      <trkpt lat="46.04528" lon="3.17737">
        <ele>395.6</ele>
        <time>2024-04-14T09:46:55Z</time>
      </trkpt>
      <trkpt lat="46.04526" lon="3.17732">
        <ele>395.8</ele>
        <time>2024-04-14T09:46:56Z</time>
      </trkpt>
      <trkpt lat="46.04525" lon="3.17728">
        <ele>396</ele>
        <time>2024-04-14T09:46:57Z</time>
      </trkpt>
      <trkpt lat="46.04524" lon="3.17723">
        <ele>396</ele>
        <time>2024-04-14T09:46:58Z</time>
      </trkpt>
      <trkpt lat="46.04522" lon="3.17719">
        <ele>396.2</ele>
        <time>2024-04-14T09:46:59Z</time>
      </trkpt>
      <trkpt lat="46.04521" lon="3.17715">
        <ele>396.2</ele>
        <time>2024-04-14T09:47:00Z</time>
      </trkpt>
      <trkpt lat="46.04519" lon="3.17711">
        <ele>396.4</ele>
        <time>2024-04-14T09:47:01Z</time>
      </trkpt>
      <trkpt lat="46.04518" lon="3.17707">
        <ele>396.8</ele>
        <time>2024-04-14T09:47:02Z</time>
      </trkpt>
      <trkpt lat="46.04516" lon="3.17704">
        <ele>396.8</ele>
        <time>2024-04-14T09:47:03Z</time>
      </trkpt>
      <trkpt lat="46.04515" lon="3.17699">
        <ele>397.2</ele>
        <time>2024-04-14T09:47:04Z</time>
      </trkpt>
      <trkpt lat="46.04513" lon="3.17694">
        <ele>397.2</ele>
        <time>2024-04-14T09:47:05Z</time>
      </trkpt>
      <trkpt lat="46.04511" lon="3.17689">
        <ele>397.4</ele>
        <time>2024-04-14T09:47:06Z</time>
      </trkpt>
      <trkpt lat="46.0451" lon="3.17686">
        <ele>397.6</ele>
        <time>2024-04-14T09:47:07Z</time>
      </trkpt>
      <trkpt lat="46.04508" lon="3.17682">
        <ele>397.8</ele>
        <time>2024-04-14T09:47:08Z</time>
      </trkpt>
      <trkpt lat="46.04506" lon="3.17678">
        <ele>398</ele>
        <time>2024-04-14T09:47:09Z</time>
      </trkpt>
      <trkpt lat="46.04505" lon="3.17673">
        <ele>398.2</ele>
        <time>2024-04-14T09:47:10Z</time>
      </trkpt>
      <trkpt lat="46.04503" lon="3.17667">
        <ele>398.6</ele>
        <time>2024-04-14T09:47:11Z</time>
      </trkpt>
      <trkpt lat="46.045" lon="3.17662">
        <ele>398.8</ele>
        <time>2024-04-14T09:47:12Z</time>
      </trkpt>
      <trkpt lat="46.04499" lon="3.17657">
        <ele>399</ele>
        <time>2024-04-14T09:47:13Z</time>
      </trkpt>
      <trkpt lat="46.04497" lon="3.17652">
        <ele>399.2</ele>
        <time>2024-04-14T09:47:14Z</time>
      </trkpt>
      <trkpt lat="46.04495" lon="3.17648">
        <ele>399.4</ele>
        <time>2024-04-14T09:47:15Z</time>
      </trkpt>
      <trkpt lat="46.04493" lon="3.17643">
        <ele>399.6</ele>
        <time>2024-04-14T09:47:16Z</time>
      </trkpt>
      <trkpt lat="46.04491" lon="3.17638">
        <ele>400</ele>
        <time>2024-04-14T09:47:17Z</time>
      </trkpt>
      <trkpt lat="46.0449" lon="3.17634">
        <ele>400.2</ele>
        <time>2024-04-14T09:47:18Z</time>
      </trkpt>
      <trkpt lat="46.04488" lon="3.17629">
        <ele>400.6</ele>
        <time>2024-04-14T09:47:19Z</time>
      </trkpt>
      <trkpt lat="46.04486" lon="3.17625">
        <ele>400.8</ele>
        <time>2024-04-14T09:47:20Z</time>
      </trkpt>
      <trkpt lat="46.04485" lon="3.17621">
        <ele>400.8</ele>
        <time>2024-04-14T09:47:21Z</time>
      </trkpt>
      <trkpt lat="46.04484" lon="3.17615">
        <ele>401</ele>
        <time>2024-04-14T09:47:22Z</time>
      </trkpt>
      <trkpt lat="46.04484" lon="3.1761">
        <ele>401.2</ele>
        <time>2024-04-14T09:47:23Z</time>
      </trkpt>
      <trkpt lat="46.04484" lon="3.17605">
        <ele>401.4</ele>
        <time>2024-04-14T09:47:24Z</time>
      </trkpt>
      <trkpt lat="46.04484" lon="3.17602">
        <ele>401.6</ele>
        <time>2024-04-14T09:47:25Z</time>
      </trkpt>
      <trkpt lat="46.04484" lon="3.17599">
        <ele>401.8</ele>
        <time>2024-04-14T09:47:26Z</time>
      </trkpt>
      <trkpt lat="46.04484" lon="3.17595">
        <ele>402.2</ele>
        <time>2024-04-14T09:47:27Z</time>
      </trkpt>
      <trkpt lat="46.04484" lon="3.17591">
        <ele>402.4</ele>
        <time>2024-04-14T09:47:28Z</time>
      </trkpt>
      <trkpt lat="46.04484" lon="3.17586">
        <ele>402.6</ele>
        <time>2024-04-14T09:47:29Z</time>
      </trkpt>
      <trkpt lat="46.04484" lon="3.17582">
        <ele>402.8</ele>
        <time>2024-04-14T09:47:30Z</time>
      </trkpt>
      <trkpt lat="46.04484" lon="3.17574">
        <ele>403</ele>
        <time>2024-04-14T09:47:31Z</time>
      </trkpt>
      <trkpt lat="46.04484" lon="3.17566">
        <ele>403.2</ele>
        <time>2024-04-14T09:47:32Z</time>
      </trkpt>
      <trkpt lat="46.04484" lon="3.17558">
        <ele>403.4</ele>
        <time>2024-04-14T09:47:33Z</time>
      </trkpt>
      <trkpt lat="46.04484" lon="3.1755">
        <ele>403.4</ele>
        <time>2024-04-14T09:47:34Z</time>
      </trkpt>
      <trkpt lat="46.04484" lon="3.17543">
        <ele>403.6</ele>
        <time>2024-04-14T09:47:35Z</time>
      </trkpt>
      <trkpt lat="46.04485" lon="3.17534">
        <ele>403.8</ele>
        <time>2024-04-14T09:47:36Z</time>
      </trkpt>
      <trkpt lat="46.04486" lon="3.17527">
        <ele>404</ele>
        <time>2024-04-14T09:47:37Z</time>
      </trkpt>
      <trkpt lat="46.04487" lon="3.1752">
        <ele>404.2</ele>
        <time>2024-04-14T09:47:38Z</time>
      </trkpt>
      <trkpt lat="46.04488" lon="3.17512">
        <ele>404.4</ele>
        <time>2024-04-14T09:47:39Z</time>
      </trkpt>
      <trkpt lat="46.04489" lon="3.17504">
        <ele>404.6</ele>
        <time>2024-04-14T09:47:40Z</time>
      </trkpt>
      <trkpt lat="46.0449" lon="3.17497">
        <ele>404.8</ele>
        <time>2024-04-14T09:47:41Z</time>
      </trkpt>
      <trkpt lat="46.04492" lon="3.17489">
        <ele>404.8</ele>
        <time>2024-04-14T09:47:42Z</time>
      </trkpt>
      <trkpt lat="46.04493" lon="3.17482">
        <ele>405</ele>
        <time>2024-04-14T09:47:43Z</time>
      </trkpt>
      <trkpt lat="46.04494" lon="3.17474">
        <ele>405.2</ele>
        <time>2024-04-14T09:47:44Z</time>
      </trkpt>
      <trkpt lat="46.04495" lon="3.17467">
        <ele>405.4</ele>
        <time>2024-04-14T09:47:45Z</time>
      </trkpt>
      <trkpt lat="46.04496" lon="3.1746">
        <ele>405.4</ele>
        <time>2024-04-14T09:47:46Z</time>
      </trkpt>
      <trkpt lat="46.04497" lon="3.17453">
        <ele>405.6</ele>
        <time>2024-04-14T09:47:47Z</time>
      </trkpt>
      <trkpt lat="46.04498" lon="3.17447">
        <ele>405.6</ele>
        <time>2024-04-14T09:47:48Z</time>
      </trkpt>
      <trkpt lat="46.04499" lon="3.17442">
        <ele>405.8</ele>
        <time>2024-04-14T09:47:49Z</time>
      </trkpt>
      <trkpt lat="46.045" lon="3.17437">
        <ele>405.8</ele>
        <time>2024-04-14T09:47:50Z</time>
      </trkpt>
      <trkpt lat="46.04501" lon="3.17431">
        <ele>406</ele>
        <time>2024-04-14T09:47:51Z</time>
      </trkpt>
      <trkpt lat="46.04502" lon="3.17425">
        <ele>406</ele>
        <time>2024-04-14T09:47:52Z</time>
      </trkpt>
      <trkpt lat="46.04503" lon="3.17416">
        <ele>406</ele>
        <time>2024-04-14T09:47:53Z</time>
      </trkpt>
      <trkpt lat="46.04505" lon="3.17407">
        <ele>406.2</ele>
        <time>2024-04-14T09:47:54Z</time>
      </trkpt>
      <trkpt lat="46.04506" lon="3.17399">
        <ele>406.6</ele>
        <time>2024-04-14T09:47:55Z</time>
      </trkpt>
      <trkpt lat="46.04507" lon="3.17391">
        <ele>406.6</ele>
        <time>2024-04-14T09:47:56Z</time>
      </trkpt>
      <trkpt lat="46.04507" lon="3.17384">
        <ele>406.8</ele>
        <time>2024-04-14T09:47:57Z</time>
      </trkpt>
      <trkpt lat="46.04507" lon="3.17376">
        <ele>407</ele>
        <time>2024-04-14T09:47:58Z</time>
      </trkpt>
      <trkpt lat="46.04507" lon="3.17369">
        <ele>407.2</ele>
        <time>2024-04-14T09:47:59Z</time>
      </trkpt>
      <trkpt lat="46.04507" lon="3.17362">
        <ele>407.4</ele>
        <time>2024-04-14T09:48:00Z</time>
      </trkpt>
      <trkpt lat="46.04507" lon="3.17354">
        <ele>407.6</ele>
        <time>2024-04-14T09:48:01Z</time>
      </trkpt>
      <trkpt lat="46.04504" lon="3.17347">
        <ele>407.8</ele>
        <time>2024-04-14T09:48:02Z</time>
      </trkpt>
      <trkpt lat="46.04502" lon="3.1734">
        <ele>408.2</ele>
        <time>2024-04-14T09:48:03Z</time>
      </trkpt>
      <trkpt lat="46.045" lon="3.17333">
        <ele>408.6</ele>
        <time>2024-04-14T09:48:04Z</time>
      </trkpt>
      <trkpt lat="46.04498" lon="3.17327">
        <ele>408.8</ele>
        <time>2024-04-14T09:48:05Z</time>
      </trkpt>
      <trkpt lat="46.04496" lon="3.1732">
        <ele>409</ele>
        <time>2024-04-14T09:48:06Z</time>
      </trkpt>
      <trkpt lat="46.04493" lon="3.17313">
        <ele>409.2</ele>
        <time>2024-04-14T09:48:07Z</time>
      </trkpt>
      <trkpt lat="46.04491" lon="3.17306">
        <ele>409.4</ele>
        <time>2024-04-14T09:48:08Z</time>
      </trkpt>
      <trkpt lat="46.04489" lon="3.173">
        <ele>409.6</ele>
        <time>2024-04-14T09:48:09Z</time>
      </trkpt>
      <trkpt lat="46.04487" lon="3.17294">
        <ele>409.8</ele>
        <time>2024-04-14T09:48:10Z</time>
      </trkpt>
      <trkpt lat="46.04485" lon="3.17288">
        <ele>410</ele>
        <time>2024-04-14T09:48:11Z</time>
      </trkpt>
      <trkpt lat="46.04483" lon="3.17282">
        <ele>410.2</ele>
        <time>2024-04-14T09:48:12Z</time>
      </trkpt>
      <trkpt lat="46.04481" lon="3.17276">
        <ele>410.6</ele>
        <time>2024-04-14T09:48:13Z</time>
      </trkpt>
      <trkpt lat="46.0448" lon="3.1727">
        <ele>410.8</ele>
        <time>2024-04-14T09:48:14Z</time>
      </trkpt>
      <trkpt lat="46.04478" lon="3.17264">
        <ele>411</ele>
        <time>2024-04-14T09:48:15Z</time>
      </trkpt>
      <trkpt lat="46.04476" lon="3.17259">
        <ele>411.2</ele>
        <time>2024-04-14T09:48:16Z</time>
      </trkpt>
      <trkpt lat="46.04474" lon="3.17254">
        <ele>411.6</ele>
        <time>2024-04-14T09:48:17Z</time>
      </trkpt>
      <trkpt lat="46.04473" lon="3.17249">
        <ele>411.8</ele>
        <time>2024-04-14T09:48:18Z</time>
      </trkpt>
      <trkpt lat="46.04471" lon="3.17243">
        <ele>412.2</ele>
        <time>2024-04-14T09:48:19Z</time>
      </trkpt>
      <trkpt lat="46.04469" lon="3.17238">
        <ele>412.4</ele>
        <time>2024-04-14T09:48:20Z</time>
      </trkpt>
      <trkpt lat="46.04468" lon="3.17233">
        <ele>412.8</ele>
        <time>2024-04-14T09:48:21Z</time>
      </trkpt>
      <trkpt lat="46.04466" lon="3.17228">
        <ele>413</ele>
        <time>2024-04-14T09:48:22Z</time>
      </trkpt>
      <trkpt lat="46.04464" lon="3.17223">
        <ele>413.2</ele>
        <time>2024-04-14T09:48:23Z</time>
      </trkpt>
      <trkpt lat="46.04463" lon="3.17218">
        <ele>413.4</ele>
        <time>2024-04-14T09:48:24Z</time>
      </trkpt>
      <trkpt lat="46.04461" lon="3.17213">
        <ele>413.6</ele>
        <time>2024-04-14T09:48:25Z</time>
      </trkpt>
      <trkpt lat="46.0446" lon="3.17208">
        <ele>413.8</ele>
        <time>2024-04-14T09:48:26Z</time>
      </trkpt>
      <trkpt lat="46.04458" lon="3.17203">
        <ele>414</ele>
        <time>2024-04-14T09:48:27Z</time>
      </trkpt>
      <trkpt lat="46.04456" lon="3.17198">
        <ele>414.2</ele>
        <time>2024-04-14T09:48:28Z</time>
      </trkpt>
      <trkpt lat="46.04455" lon="3.17193">
        <ele>414.4</ele>
        <time>2024-04-14T09:48:29Z</time>
      </trkpt>
      <trkpt lat="46.04453" lon="3.17187">
        <ele>414.6</ele>
        <time>2024-04-14T09:48:30Z</time>
      </trkpt>
      <trkpt lat="46.04451" lon="3.17182">
        <ele>414.8</ele>
        <time>2024-04-14T09:48:31Z</time>
      </trkpt>
      <trkpt lat="46.0445" lon="3.17178">
        <ele>415</ele>
        <time>2024-04-14T09:48:32Z</time>
      </trkpt>
      <trkpt lat="46.04448" lon="3.17172">
        <ele>415.2</ele>
        <time>2024-04-14T09:48:33Z</time>
      </trkpt>
      <trkpt lat="46.04447" lon="3.17168">
        <ele>415.2</ele>
        <time>2024-04-14T09:48:34Z</time>
      </trkpt>
      <trkpt lat="46.04445" lon="3.17163">
        <ele>415.4</ele>
        <time>2024-04-14T09:48:35Z</time>
      </trkpt>
      <trkpt lat="46.04444" lon="3.17158">
        <ele>415.6</ele>
        <time>2024-04-14T09:48:36Z</time>
      </trkpt>
      <trkpt lat="46.04442" lon="3.17153">
        <ele>415.6</ele>
        <time>2024-04-14T09:48:37Z</time>
      </trkpt>
      <trkpt lat="46.0444" lon="3.17147">
        <ele>415.8</ele>
        <time>2024-04-14T09:48:38Z</time>
      </trkpt>
      <trkpt lat="46.04438" lon="3.17141">
        <ele>415.8</ele>
        <time>2024-04-14T09:48:39Z</time>
      </trkpt>
      <trkpt lat="46.04437" lon="3.17136">
        <ele>416</ele>
        <time>2024-04-14T09:48:40Z</time>
      </trkpt>
      <trkpt lat="46.04435" lon="3.1713">
        <ele>416.2</ele>
        <time>2024-04-14T09:48:41Z</time>
      </trkpt>
      <trkpt lat="46.04433" lon="3.17125">
        <ele>416.2</ele>
        <time>2024-04-14T09:48:42Z</time>
      </trkpt>
      <trkpt lat="46.04431" lon="3.17119">
        <ele>416.4</ele>
        <time>2024-04-14T09:48:43Z</time>
      </trkpt>
      <trkpt lat="46.0443" lon="3.17114">
        <ele>416.6</ele>
        <time>2024-04-14T09:48:44Z</time>
      </trkpt>
      <trkpt lat="46.04428" lon="3.17109">
        <ele>416.8</ele>
        <time>2024-04-14T09:48:45Z</time>
      </trkpt>
      <trkpt lat="46.04426" lon="3.17103">
        <ele>417</ele>
        <time>2024-04-14T09:48:46Z</time>
      </trkpt>
      <trkpt lat="46.04425" lon="3.17098">
        <ele>417.2</ele>
        <time>2024-04-14T09:48:47Z</time>
      </trkpt>
      <trkpt lat="46.04423" lon="3.17093">
        <ele>417.4</ele>
        <time>2024-04-14T09:48:48Z</time>
      </trkpt>
      <trkpt lat="46.04421" lon="3.17088">
        <ele>417.6</ele>
        <time>2024-04-14T09:48:49Z</time>
      </trkpt>
      <trkpt lat="46.04419" lon="3.17083">
        <ele>417.8</ele>
        <time>2024-04-14T09:48:50Z</time>
      </trkpt>
      <trkpt lat="46.04417" lon="3.17079">
        <ele>418</ele>
        <time>2024-04-14T09:48:51Z</time>
      </trkpt>
      <trkpt lat="46.04415" lon="3.17073">
        <ele>418.2</ele>
        <time>2024-04-14T09:48:52Z</time>
      </trkpt>
      <trkpt lat="46.04413" lon="3.17067">
        <ele>418.2</ele>
        <time>2024-04-14T09:48:53Z</time>
      </trkpt>
      <trkpt lat="46.04412" lon="3.17062">
        <ele>418.2</ele>
        <time>2024-04-14T09:48:54Z</time>
      </trkpt>
      <trkpt lat="46.0441" lon="3.17056">
        <ele>418.4</ele>
        <time>2024-04-14T09:48:55Z</time>
      </trkpt>
      <trkpt lat="46.04408" lon="3.1705">
        <ele>418.4</ele>
        <time>2024-04-14T09:48:56Z</time>
      </trkpt>
      <trkpt lat="46.04407" lon="3.17045">
        <ele>418.6</ele>
        <time>2024-04-14T09:48:57Z</time>
      </trkpt>
      <trkpt lat="46.04405" lon="3.1704">
        <ele>418.8</ele>
        <time>2024-04-14T09:48:58Z</time>
      </trkpt>
      <trkpt lat="46.04403" lon="3.17035">
        <ele>418.8</ele>
        <time>2024-04-14T09:48:59Z</time>
      </trkpt>
      <trkpt lat="46.04401" lon="3.17029">
        <ele>419</ele>
        <time>2024-04-14T09:49:00Z</time>
      </trkpt>
      <trkpt lat="46.044" lon="3.17023">
        <ele>419</ele>
        <time>2024-04-14T09:49:01Z</time>
      </trkpt>
      <trkpt lat="46.04398" lon="3.17017">
        <ele>419</ele>
        <time>2024-04-14T09:49:02Z</time>
      </trkpt>
      <trkpt lat="46.04396" lon="3.17011">
        <ele>419.2</ele>
        <time>2024-04-14T09:49:03Z</time>
      </trkpt>
      <trkpt lat="46.04394" lon="3.17005">
        <ele>419.4</ele>
        <time>2024-04-14T09:49:04Z</time>
      </trkpt>
      <trkpt lat="46.04392" lon="3.16998">
        <ele>419.6</ele>
        <time>2024-04-14T09:49:05Z</time>
      </trkpt>
      <trkpt lat="46.0439" lon="3.16991">
        <ele>419.6</ele>
        <time>2024-04-14T09:49:06Z</time>
      </trkpt>
      <trkpt lat="46.04388" lon="3.16985">
        <ele>419.8</ele>
        <time>2024-04-14T09:49:07Z</time>
      </trkpt>
      <trkpt lat="46.04386" lon="3.16978">
        <ele>420</ele>
        <time>2024-04-14T09:49:08Z</time>
      </trkpt>
      <trkpt lat="46.04384" lon="3.16971">
        <ele>420.2</ele>
        <time>2024-04-14T09:49:09Z</time>
      </trkpt>
      <trkpt lat="46.04382" lon="3.16964">
        <ele>420.2</ele>
        <time>2024-04-14T09:49:10Z</time>
      </trkpt>
      <trkpt lat="46.0438" lon="3.16957">
        <ele>420.4</ele>
        <time>2024-04-14T09:49:11Z</time>
      </trkpt>
      <trkpt lat="46.04378" lon="3.16951">
        <ele>420.8</ele>
        <time>2024-04-14T09:49:12Z</time>
      </trkpt>
      <trkpt lat="46.04376" lon="3.16945">
        <ele>421</ele>
        <time>2024-04-14T09:49:13Z</time>
      </trkpt>
      <trkpt lat="46.04374" lon="3.16938">
        <ele>421</ele>
        <time>2024-04-14T09:49:14Z</time>
      </trkpt>
      <trkpt lat="46.04371" lon="3.16932">
        <ele>421.2</ele>
        <time>2024-04-14T09:49:15Z</time>
      </trkpt>
      <trkpt lat="46.04369" lon="3.16926">
        <ele>421.6</ele>
        <time>2024-04-14T09:49:16Z</time>
      </trkpt>
      <trkpt lat="46.04367" lon="3.1692">
        <ele>421.8</ele>
        <time>2024-04-14T09:49:17Z</time>
      </trkpt>
      <trkpt lat="46.04364" lon="3.16913">
        <ele>422</ele>
        <time>2024-04-14T09:49:18Z</time>
      </trkpt>
      <trkpt lat="46.04362" lon="3.16907">
        <ele>422.2</ele>
        <time>2024-04-14T09:49:19Z</time>
      </trkpt>
      <trkpt lat="46.0436" lon="3.16901">
        <ele>422.4</ele>
        <time>2024-04-14T09:49:20Z</time>
      </trkpt>
      <trkpt lat="46.04357" lon="3.16894">
        <ele>422.4</ele>
        <time>2024-04-14T09:49:21Z</time>
      </trkpt>
      <trkpt lat="46.04355" lon="3.16888">
        <ele>422.6</ele>
        <time>2024-04-14T09:49:22Z</time>
      </trkpt>
      <trkpt lat="46.04353" lon="3.16882">
        <ele>422.8</ele>
        <time>2024-04-14T09:49:23Z</time>
      </trkpt>
      <trkpt lat="46.0435" lon="3.16876">
        <ele>423</ele>
        <time>2024-04-14T09:49:24Z</time>
      </trkpt>
      <trkpt lat="46.04348" lon="3.1687">
        <ele>423.2</ele>
        <time>2024-04-14T09:49:25Z</time>
      </trkpt>
      <trkpt lat="46.04346" lon="3.16865">
        <ele>423.4</ele>
        <time>2024-04-14T09:49:26Z</time>
      </trkpt>
      <trkpt lat="46.04344" lon="3.16859">
        <ele>423.6</ele>
        <time>2024-04-14T09:49:27Z</time>
      </trkpt>
      <trkpt lat="46.04342" lon="3.16853">
        <ele>423.8</ele>
        <time>2024-04-14T09:49:28Z</time>
      </trkpt>
      <trkpt lat="46.0434" lon="3.16847">
        <ele>424</ele>
        <time>2024-04-14T09:49:29Z</time>
      </trkpt>
      <trkpt lat="46.04337" lon="3.16841">
        <ele>424</ele>
        <time>2024-04-14T09:49:30Z</time>
      </trkpt>
      <trkpt lat="46.04335" lon="3.16834">
        <ele>424.2</ele>
        <time>2024-04-14T09:49:31Z</time>
      </trkpt>
      <trkpt lat="46.04333" lon="3.16828">
        <ele>424.4</ele>
        <time>2024-04-14T09:49:32Z</time>
      </trkpt>
      <trkpt lat="46.04331" lon="3.16823">
        <ele>424.6</ele>
        <time>2024-04-14T09:49:33Z</time>
      </trkpt>
      <trkpt lat="46.04328" lon="3.16817">
        <ele>424.8</ele>
        <time>2024-04-14T09:49:34Z</time>
      </trkpt>
      <trkpt lat="46.04326" lon="3.16811">
        <ele>425</ele>
        <time>2024-04-14T09:49:35Z</time>
      </trkpt>
      <trkpt lat="46.04324" lon="3.16806">
        <ele>425.2</ele>
        <time>2024-04-14T09:49:36Z</time>
      </trkpt>
      <trkpt lat="46.04322" lon="3.16801">
        <ele>425.4</ele>
        <time>2024-04-14T09:49:37Z</time>
      </trkpt>
      <trkpt lat="46.0432" lon="3.16795">
        <ele>425.6</ele>
        <time>2024-04-14T09:49:38Z</time>
      </trkpt>
      <trkpt lat="46.04319" lon="3.1679">
        <ele>425.8</ele>
        <time>2024-04-14T09:49:39Z</time>
      </trkpt>
      <trkpt lat="46.04317" lon="3.16785">
        <ele>426</ele>
        <time>2024-04-14T09:49:40Z</time>
      </trkpt>
      <trkpt lat="46.04315" lon="3.1678">
        <ele>426.2</ele>
        <time>2024-04-14T09:49:41Z</time>
      </trkpt>
      <trkpt lat="46.04313" lon="3.16775">
        <ele>426.2</ele>
        <time>2024-04-14T09:49:42Z</time>
      </trkpt>
      <trkpt lat="46.04312" lon="3.1677">
        <ele>426.4</ele>
        <time>2024-04-14T09:49:43Z</time>
      </trkpt>
      <trkpt lat="46.04311" lon="3.16765">
        <ele>426.6</ele>
        <time>2024-04-14T09:49:44Z</time>
      </trkpt>
      <trkpt lat="46.0431" lon="3.1676">
        <ele>426.8</ele>
        <time>2024-04-14T09:49:45Z</time>
      </trkpt>
      <trkpt lat="46.04309" lon="3.16755">
        <ele>427</ele>
        <time>2024-04-14T09:49:46Z</time>
      </trkpt>
      <trkpt lat="46.04309" lon="3.1675">
        <ele>427.4</ele>
        <time>2024-04-14T09:49:47Z</time>
      </trkpt>
      <trkpt lat="46.04308" lon="3.16745">
        <ele>427.6</ele>
        <time>2024-04-14T09:49:48Z</time>
      </trkpt>
      <trkpt lat="46.04307" lon="3.1674">
        <ele>427.8</ele>
        <time>2024-04-14T09:49:49Z</time>
      </trkpt>
      <trkpt lat="46.04306" lon="3.16735">
        <ele>428</ele>
        <time>2024-04-14T09:49:50Z</time>
      </trkpt>
      <trkpt lat="46.04306" lon="3.1673">
        <ele>428.2</ele>
        <time>2024-04-14T09:49:51Z</time>
      </trkpt>
      <trkpt lat="46.04305" lon="3.16725">
        <ele>428.4</ele>
        <time>2024-04-14T09:49:52Z</time>
      </trkpt>
      <trkpt lat="46.04304" lon="3.1672">
        <ele>428.8</ele>
        <time>2024-04-14T09:49:53Z</time>
      </trkpt>
      <trkpt lat="46.04303" lon="3.16715">
        <ele>429</ele>
        <time>2024-04-14T09:49:54Z</time>
      </trkpt>
      <trkpt lat="46.04303" lon="3.16711">
        <ele>429.2</ele>
        <time>2024-04-14T09:49:55Z</time>
      </trkpt>
      <trkpt lat="46.04302" lon="3.16706">
        <ele>429.2</ele>
        <time>2024-04-14T09:49:56Z</time>
      </trkpt>
      <trkpt lat="46.04301" lon="3.16701">
        <ele>429.4</ele>
        <time>2024-04-14T09:49:57Z</time>
      </trkpt>
      <trkpt lat="46.04301" lon="3.16697">
        <ele>429.8</ele>
        <time>2024-04-14T09:49:58Z</time>
      </trkpt>
      <trkpt lat="46.043" lon="3.16693">
        <ele>430</ele>
        <time>2024-04-14T09:49:59Z</time>
      </trkpt>
      <trkpt lat="46.04299" lon="3.16688">
        <ele>430.2</ele>
        <time>2024-04-14T09:50:00Z</time>
      </trkpt>
      <trkpt lat="46.04299" lon="3.16684">
        <ele>430.4</ele>
        <time>2024-04-14T09:50:01Z</time>
      </trkpt>
      <trkpt lat="46.04298" lon="3.16679">
        <ele>430.6</ele>
        <time>2024-04-14T09:50:02Z</time>
      </trkpt>
      <trkpt lat="46.04297" lon="3.16675">
        <ele>431</ele>
        <time>2024-04-14T09:50:03Z</time>
      </trkpt>
      <trkpt lat="46.04297" lon="3.1667">
        <ele>431.2</ele>
        <time>2024-04-14T09:50:04Z</time>
      </trkpt>
      <trkpt lat="46.04296" lon="3.16666">
        <ele>431.4</ele>
        <time>2024-04-14T09:50:05Z</time>
      </trkpt>
      <trkpt lat="46.04295" lon="3.16661">
        <ele>431.6</ele>
        <time>2024-04-14T09:50:06Z</time>
      </trkpt>
      <trkpt lat="46.04294" lon="3.16657">
        <ele>431.8</ele>
        <time>2024-04-14T09:50:07Z</time>
      </trkpt>
      <trkpt lat="46.04294" lon="3.16652">
        <ele>432</ele>
        <time>2024-04-14T09:50:08Z</time>
      </trkpt>
      <trkpt lat="46.04293" lon="3.16647">
        <ele>432.4</ele>
        <time>2024-04-14T09:50:09Z</time>
      </trkpt>
      <trkpt lat="46.04292" lon="3.16643">
        <ele>432.6</ele>
        <time>2024-04-14T09:50:10Z</time>
      </trkpt>
      <trkpt lat="46.04292" lon="3.16638">
        <ele>432.8</ele>
        <time>2024-04-14T09:50:11Z</time>
      </trkpt>
      <trkpt lat="46.04291" lon="3.16633">
        <ele>433</ele>
        <time>2024-04-14T09:50:12Z</time>
      </trkpt>
      <trkpt lat="46.0429" lon="3.16628">
        <ele>433.4</ele>
        <time>2024-04-14T09:50:13Z</time>
      </trkpt>
      <trkpt lat="46.04289" lon="3.16624">
        <ele>433.6</ele>
        <time>2024-04-14T09:50:14Z</time>
      </trkpt>
      <trkpt lat="46.04289" lon="3.16619">
        <ele>433.8</ele>
        <time>2024-04-14T09:50:15Z</time>
      </trkpt>
      <trkpt lat="46.04288" lon="3.16614">
        <ele>434</ele>
        <time>2024-04-14T09:50:16Z</time>
      </trkpt>
      <trkpt lat="46.04287" lon="3.16609">
        <ele>434.2</ele>
        <time>2024-04-14T09:50:17Z</time>
      </trkpt>
      <trkpt lat="46.04287" lon="3.16605">
        <ele>434.4</ele>
        <time>2024-04-14T09:50:18Z</time>
      </trkpt>
      <trkpt lat="46.04286" lon="3.166">
        <ele>434.8</ele>
        <time>2024-04-14T09:50:19Z</time>
      </trkpt>
      <trkpt lat="46.04285" lon="3.16596">
        <ele>434.8</ele>
        <time>2024-04-14T09:50:20Z</time>
      </trkpt>
      <trkpt lat="46.04284" lon="3.16591">
        <ele>435.2</ele>
        <time>2024-04-14T09:50:21Z</time>
      </trkpt>
      <trkpt lat="46.04284" lon="3.16586">
        <ele>435.4</ele>
        <time>2024-04-14T09:50:22Z</time>
      </trkpt>
      <trkpt lat="46.04283" lon="3.16582">
        <ele>435.6</ele>
        <time>2024-04-14T09:50:23Z</time>
      </trkpt>
      <trkpt lat="46.04282" lon="3.16578">
        <ele>435.8</ele>
        <time>2024-04-14T09:50:24Z</time>
      </trkpt>
      <trkpt lat="46.04282" lon="3.16574">
        <ele>436</ele>
        <time>2024-04-14T09:50:25Z</time>
      </trkpt>
      <trkpt lat="46.04281" lon="3.16569">
        <ele>436.2</ele>
        <time>2024-04-14T09:50:26Z</time>
      </trkpt>
      <trkpt lat="46.0428" lon="3.16566">
        <ele>436.4</ele>
        <time>2024-04-14T09:50:27Z</time>
      </trkpt>
      <trkpt lat="46.04279" lon="3.16562">
        <ele>436.8</ele>
        <time>2024-04-14T09:50:28Z</time>
      </trkpt>
      <trkpt lat="46.04278" lon="3.16558">
        <ele>437</ele>
        <time>2024-04-14T09:50:29Z</time>
      </trkpt>
      <trkpt lat="46.04277" lon="3.16554">
        <ele>437.2</ele>
        <time>2024-04-14T09:50:30Z</time>
      </trkpt>
      <trkpt lat="46.04276" lon="3.1655">
        <ele>437.4</ele>
        <time>2024-04-14T09:50:31Z</time>
      </trkpt>
      <trkpt lat="46.04275" lon="3.16547">
        <ele>437.6</ele>
        <time>2024-04-14T09:50:32Z</time>
      </trkpt>
      <trkpt lat="46.04274" lon="3.16543">
        <ele>437.8</ele>
        <time>2024-04-14T09:50:33Z</time>
      </trkpt>
      <trkpt lat="46.04273" lon="3.16539">
        <ele>438.2</ele>
        <time>2024-04-14T09:50:34Z</time>
      </trkpt>
      <trkpt lat="46.04273" lon="3.16535">
        <ele>438.4</ele>
        <time>2024-04-14T09:50:35Z</time>
      </trkpt>
      <trkpt lat="46.04272" lon="3.16531">
        <ele>438.6</ele>
        <time>2024-04-14T09:50:36Z</time>
      </trkpt>
      <trkpt lat="46.04271" lon="3.16527">
        <ele>438.8</ele>
        <time>2024-04-14T09:50:37Z</time>
      </trkpt>
      <trkpt lat="46.0427" lon="3.16524">
        <ele>439</ele>
        <time>2024-04-14T09:50:38Z</time>
      </trkpt>
      <trkpt lat="46.04269" lon="3.1652">
        <ele>439.2</ele>
        <time>2024-04-14T09:50:39Z</time>
      </trkpt>
      <trkpt lat="46.04268" lon="3.16515">
        <ele>439.4</ele>
        <time>2024-04-14T09:50:40Z</time>
      </trkpt>
      <trkpt lat="46.04267" lon="3.16511">
        <ele>439.6</ele>
        <time>2024-04-14T09:50:41Z</time>
      </trkpt>
      <trkpt lat="46.04266" lon="3.16507">
        <ele>440</ele>
        <time>2024-04-14T09:50:42Z</time>
      </trkpt>
      <trkpt lat="46.04265" lon="3.16502">
        <ele>440.2</ele>
        <time>2024-04-14T09:50:43Z</time>
      </trkpt>
      <trkpt lat="46.04264" lon="3.16498">
        <ele>440.4</ele>
        <time>2024-04-14T09:50:44Z</time>
      </trkpt>
      <trkpt lat="46.04263" lon="3.16494">
        <ele>440.6</ele>
        <time>2024-04-14T09:50:45Z</time>
      </trkpt>
      <trkpt lat="46.04262" lon="3.16489">
        <ele>441</ele>
        <time>2024-04-14T09:50:46Z</time>
      </trkpt>
      <trkpt lat="46.0426" lon="3.16485">
        <ele>441.2</ele>
        <time>2024-04-14T09:50:47Z</time>
      </trkpt>
      <trkpt lat="46.04259" lon="3.16481">
        <ele>441.2</ele>
        <time>2024-04-14T09:50:48Z</time>
      </trkpt>
      <trkpt lat="46.04258" lon="3.16477">
        <ele>441.6</ele>
        <time>2024-04-14T09:50:49Z</time>
      </trkpt>
      <trkpt lat="46.04258" lon="3.16473">
        <ele>441.8</ele>
        <time>2024-04-14T09:50:50Z</time>
      </trkpt>
      <trkpt lat="46.04257" lon="3.16469">
        <ele>442</ele>
        <time>2024-04-14T09:50:51Z</time>
      </trkpt>
      <trkpt lat="46.04256" lon="3.16465">
        <ele>442.2</ele>
        <time>2024-04-14T09:50:52Z</time>
      </trkpt>
      <trkpt lat="46.04255" lon="3.16462">
        <ele>442.4</ele>
        <time>2024-04-14T09:50:53Z</time>
      </trkpt>
      <trkpt lat="46.04254" lon="3.16458">
        <ele>442.6</ele>
        <time>2024-04-14T09:50:54Z</time>
      </trkpt>
      <trkpt lat="46.04253" lon="3.16454">
        <ele>443</ele>
        <time>2024-04-14T09:50:55Z</time>
      </trkpt>
      <trkpt lat="46.04252" lon="3.1645">
        <ele>443.2</ele>
        <time>2024-04-14T09:50:56Z</time>
      </trkpt>
      <trkpt lat="46.04251" lon="3.16446">
        <ele>443.4</ele>
        <time>2024-04-14T09:50:57Z</time>
      </trkpt>
      <trkpt lat="46.0425" lon="3.16442">
        <ele>443.6</ele>
        <time>2024-04-14T09:50:58Z</time>
      </trkpt>
      <trkpt lat="46.04249" lon="3.16438">
        <ele>443.8</ele>
        <time>2024-04-14T09:50:59Z</time>
      </trkpt>
      <trkpt lat="46.04248" lon="3.16434">
        <ele>444.2</ele>
        <time>2024-04-14T09:51:00Z</time>
      </trkpt>
      <trkpt lat="46.04247" lon="3.1643">
        <ele>444.4</ele>
        <time>2024-04-14T09:51:01Z</time>
      </trkpt>
      <trkpt lat="46.04246" lon="3.16426">
        <ele>444.6</ele>
        <time>2024-04-14T09:51:02Z</time>
      </trkpt>
      <trkpt lat="46.04245" lon="3.16422">
        <ele>444.8</ele>
        <time>2024-04-14T09:51:03Z</time>
      </trkpt>
      <trkpt lat="46.04244" lon="3.16418">
        <ele>445</ele>
        <time>2024-04-14T09:51:04Z</time>
      </trkpt>
      <trkpt lat="46.04243" lon="3.16414">
        <ele>445.2</ele>
        <time>2024-04-14T09:51:05Z</time>
      </trkpt>
      <trkpt lat="46.04242" lon="3.1641">
        <ele>445.4</ele>
        <time>2024-04-14T09:51:06Z</time>
      </trkpt>
      <trkpt lat="46.04241" lon="3.16406">
        <ele>445.6</ele>
        <time>2024-04-14T09:51:07Z</time>
      </trkpt>
      <trkpt lat="46.0424" lon="3.16402">
        <ele>445.8</ele>
        <time>2024-04-14T09:51:08Z</time>
      </trkpt>
      <trkpt lat="46.04239" lon="3.16398">
        <ele>446</ele>
        <time>2024-04-14T09:51:09Z</time>
      </trkpt>
      <trkpt lat="46.04238" lon="3.16394">
        <ele>446.4</ele>
        <time>2024-04-14T09:51:10Z</time>
      </trkpt>
      <trkpt lat="46.04237" lon="3.1639">
        <ele>446.6</ele>
        <time>2024-04-14T09:51:11Z</time>
      </trkpt>
      <trkpt lat="46.04237" lon="3.16386">
        <ele>446.8</ele>
        <time>2024-04-14T09:51:12Z</time>
      </trkpt>
      <trkpt lat="46.04236" lon="3.16382">
        <ele>447</ele>
        <time>2024-04-14T09:51:13Z</time>
      </trkpt>
      <trkpt lat="46.04235" lon="3.16378">
        <ele>447.2</ele>
        <time>2024-04-14T09:51:14Z</time>
      </trkpt>
      <trkpt lat="46.04234" lon="3.16375">
        <ele>447.4</ele>
        <time>2024-04-14T09:51:15Z</time>
      </trkpt>
      <trkpt lat="46.04233" lon="3.16371">
        <ele>447.8</ele>
        <time>2024-04-14T09:51:16Z</time>
      </trkpt>
      <trkpt lat="46.04232" lon="3.16367">
        <ele>448</ele>
        <time>2024-04-14T09:51:17Z</time>
      </trkpt>
      <trkpt lat="46.04231" lon="3.16363">
        <ele>448.2</ele>
        <time>2024-04-14T09:51:18Z</time>
      </trkpt>
      <trkpt lat="46.0423" lon="3.16359">
        <ele>448.4</ele>
        <time>2024-04-14T09:51:19Z</time>
      </trkpt>
      <trkpt lat="46.04229" lon="3.16355">
        <ele>448.6</ele>
        <time>2024-04-14T09:51:20Z</time>
      </trkpt>
      <trkpt lat="46.04228" lon="3.16351">
        <ele>448.8</ele>
        <time>2024-04-14T09:51:21Z</time>
      </trkpt>
      <trkpt lat="46.04227" lon="3.16347">
        <ele>449.2</ele>
        <time>2024-04-14T09:51:22Z</time>
      </trkpt>
      <trkpt lat="46.04226" lon="3.16344">
        <ele>449.4</ele>
        <time>2024-04-14T09:51:23Z</time>
      </trkpt>
      <trkpt lat="46.04226" lon="3.1634">
        <ele>449.6</ele>
        <time>2024-04-14T09:51:24Z</time>
      </trkpt>
      <trkpt lat="46.04225" lon="3.16336">
        <ele>449.8</ele>
        <time>2024-04-14T09:51:25Z</time>
      </trkpt>
      <trkpt lat="46.04225" lon="3.16332">
        <ele>450.2</ele>
        <time>2024-04-14T09:51:26Z</time>
      </trkpt>
      <trkpt lat="46.04224" lon="3.16328">
        <ele>450.4</ele>
        <time>2024-04-14T09:51:27Z</time>
      </trkpt>
      <trkpt lat="46.04224" lon="3.16324">
        <ele>450.6</ele>
        <time>2024-04-14T09:51:28Z</time>
      </trkpt>
      <trkpt lat="46.04224" lon="3.16321">
        <ele>451</ele>
        <time>2024-04-14T09:51:29Z</time>
      </trkpt>
      <trkpt lat="46.04223" lon="3.16318">
        <ele>451.2</ele>
        <time>2024-04-14T09:51:30Z</time>
      </trkpt>
      <trkpt lat="46.04223" lon="3.16314">
        <ele>451.6</ele>
        <time>2024-04-14T09:51:31Z</time>
      </trkpt>
      <trkpt lat="46.04222" lon="3.1631">
        <ele>451.8</ele>
        <time>2024-04-14T09:51:32Z</time>
      </trkpt>
      <trkpt lat="46.04222" lon="3.16307">
        <ele>452.2</ele>
        <time>2024-04-14T09:51:33Z</time>
      </trkpt>
      <trkpt lat="46.04222" lon="3.16303">
        <ele>452.4</ele>
        <time>2024-04-14T09:51:34Z</time>
      </trkpt>
      <trkpt lat="46.04221" lon="3.16299">
        <ele>452.8</ele>
        <time>2024-04-14T09:51:35Z</time>
      </trkpt>
      <trkpt lat="46.04221" lon="3.16295">
        <ele>453.2</ele>
        <time>2024-04-14T09:51:36Z</time>
      </trkpt>
      <trkpt lat="46.0422" lon="3.16291">
        <ele>453.4</ele>
        <time>2024-04-14T09:51:37Z</time>
      </trkpt>
      <trkpt lat="46.0422" lon="3.16288">
        <ele>453.8</ele>
        <time>2024-04-14T09:51:38Z</time>
      </trkpt>
      <trkpt lat="46.04219" lon="3.16284">
        <ele>454</ele>
        <time>2024-04-14T09:51:39Z</time>
      </trkpt>
      <trkpt lat="46.04219" lon="3.1628">
        <ele>454.4</ele>
        <time>2024-04-14T09:51:40Z</time>
      </trkpt>
      <trkpt lat="46.04218" lon="3.16276">
        <ele>454.6</ele>
        <time>2024-04-14T09:51:41Z</time>
      </trkpt>
      <trkpt lat="46.04218" lon="3.16272">
        <ele>455</ele>
        <time>2024-04-14T09:51:42Z</time>
      </trkpt>
      <trkpt lat="46.04218" lon="3.16269">
        <ele>455</ele>
        <time>2024-04-14T09:51:43Z</time>
      </trkpt>
      <trkpt lat="46.04217" lon="3.16264">
        <ele>455.2</ele>
        <time>2024-04-14T09:51:44Z</time>
      </trkpt>
      <trkpt lat="46.04217" lon="3.1626">
        <ele>455.4</ele>
        <time>2024-04-14T09:51:45Z</time>
      </trkpt>
      <trkpt lat="46.04216" lon="3.16255">
        <ele>455.8</ele>
        <time>2024-04-14T09:51:46Z</time>
      </trkpt>
      <trkpt lat="46.04216" lon="3.16251">
        <ele>456</ele>
        <time>2024-04-14T09:51:47Z</time>
      </trkpt>
      <trkpt lat="46.04216" lon="3.16246">
        <ele>456.2</ele>
        <time>2024-04-14T09:51:48Z</time>
      </trkpt>
      <trkpt lat="46.04216" lon="3.16242">
        <ele>456.4</ele>
        <time>2024-04-14T09:51:49Z</time>
      </trkpt>
      <trkpt lat="46.04216" lon="3.16238">
        <ele>456.6</ele>
        <time>2024-04-14T09:51:50Z</time>
      </trkpt>
      <trkpt lat="46.04216" lon="3.16233">
        <ele>457</ele>
        <time>2024-04-14T09:51:51Z</time>
      </trkpt>
      <trkpt lat="46.04217" lon="3.1623">
        <ele>457</ele>
        <time>2024-04-14T09:51:52Z</time>
      </trkpt>
      <trkpt lat="46.04217" lon="3.16228">
        <ele>457.4</ele>
        <time>2024-04-14T09:51:53Z</time>
      </trkpt>
      <trkpt lat="46.04217" lon="3.16224">
        <ele>457.6</ele>
        <time>2024-04-14T09:51:54Z</time>
      </trkpt>
      <trkpt lat="46.04217" lon="3.16219">
        <ele>457.8</ele>
        <time>2024-04-14T09:51:55Z</time>
      </trkpt>
      <trkpt lat="46.04217" lon="3.16214">
        <ele>458.2</ele>
        <time>2024-04-14T09:51:56Z</time>
      </trkpt>
      <trkpt lat="46.04217" lon="3.16209">
        <ele>458.4</ele>
        <time>2024-04-14T09:51:57Z</time>
      </trkpt>
      <trkpt lat="46.04218" lon="3.16205">
        <ele>458.6</ele>
        <time>2024-04-14T09:51:58Z</time>
      </trkpt>
      <trkpt lat="46.04218" lon="3.162">
        <ele>458.8</ele>
        <time>2024-04-14T09:51:59Z</time>
      </trkpt>
      <trkpt lat="46.04218" lon="3.16196">
        <ele>459</ele>
        <time>2024-04-14T09:52:00Z</time>
      </trkpt>
      <trkpt lat="46.04218" lon="3.16192">
        <ele>459.2</ele>
        <time>2024-04-14T09:52:01Z</time>
      </trkpt>
      <trkpt lat="46.04218" lon="3.16187">
        <ele>459.4</ele>
        <time>2024-04-14T09:52:02Z</time>
      </trkpt>
      <trkpt lat="46.04218" lon="3.16183">
        <ele>459.6</ele>
        <time>2024-04-14T09:52:03Z</time>
      </trkpt>
      <trkpt lat="46.04219" lon="3.16179">
        <ele>460</ele>
        <time>2024-04-14T09:52:04Z</time>
      </trkpt>
      <trkpt lat="46.04219" lon="3.16174">
        <ele>460.2</ele>
        <time>2024-04-14T09:52:05Z</time>
      </trkpt>
      <trkpt lat="46.04219" lon="3.1617">
        <ele>460.4</ele>
        <time>2024-04-14T09:52:06Z</time>
      </trkpt>
      <trkpt lat="46.04219" lon="3.16165">
        <ele>460.6</ele>
        <time>2024-04-14T09:52:07Z</time>
      </trkpt>
      <trkpt lat="46.04219" lon="3.16161">
        <ele>460.8</ele>
        <time>2024-04-14T09:52:08Z</time>
      </trkpt>
      <trkpt lat="46.0422" lon="3.16157">
        <ele>461</ele>
        <time>2024-04-14T09:52:09Z</time>
      </trkpt>
      <trkpt lat="46.0422" lon="3.16153">
        <ele>461.4</ele>
        <time>2024-04-14T09:52:10Z</time>
      </trkpt>
      <trkpt lat="46.0422" lon="3.16149">
        <ele>461.6</ele>
        <time>2024-04-14T09:52:11Z</time>
      </trkpt>
      <trkpt lat="46.0422" lon="3.16145">
        <ele>461.8</ele>
        <time>2024-04-14T09:52:12Z</time>
      </trkpt>
      <trkpt lat="46.0422" lon="3.16141">
        <ele>462</ele>
        <time>2024-04-14T09:52:13Z</time>
      </trkpt>
      <trkpt lat="46.0422" lon="3.16137">
        <ele>462.2</ele>
        <time>2024-04-14T09:52:14Z</time>
      </trkpt>
      <trkpt lat="46.04221" lon="3.16133">
        <ele>462.4</ele>
        <time>2024-04-14T09:52:15Z</time>
      </trkpt>
      <trkpt lat="46.04221" lon="3.16129">
        <ele>462.6</ele>
        <time>2024-04-14T09:52:16Z</time>
      </trkpt>
      <trkpt lat="46.04221" lon="3.16126">
        <ele>462.8</ele>
        <time>2024-04-14T09:52:17Z</time>
      </trkpt>
      <trkpt lat="46.04221" lon="3.16122">
        <ele>463</ele>
        <time>2024-04-14T09:52:18Z</time>
      </trkpt>
      <trkpt lat="46.04221" lon="3.16118">
        <ele>463.2</ele>
        <time>2024-04-14T09:52:19Z</time>
      </trkpt>
      <trkpt lat="46.04221" lon="3.16114">
        <ele>463.4</ele>
        <time>2024-04-14T09:52:20Z</time>
      </trkpt>
      <trkpt lat="46.04222" lon="3.16109">
        <ele>463.6</ele>
        <time>2024-04-14T09:52:21Z</time>
      </trkpt>
      <trkpt lat="46.04222" lon="3.16105">
        <ele>464</ele>
        <time>2024-04-14T09:52:22Z</time>
      </trkpt>
      <trkpt lat="46.04222" lon="3.16101">
        <ele>464.2</ele>
        <time>2024-04-14T09:52:23Z</time>
      </trkpt>
      <trkpt lat="46.04222" lon="3.16096">
        <ele>464.4</ele>
        <time>2024-04-14T09:52:24Z</time>
      </trkpt>
      <trkpt lat="46.04222" lon="3.16092">
        <ele>464.6</ele>
        <time>2024-04-14T09:52:25Z</time>
      </trkpt>
      <trkpt lat="46.04223" lon="3.16087">
        <ele>464.8</ele>
        <time>2024-04-14T09:52:26Z</time>
      </trkpt>
      <trkpt lat="46.04223" lon="3.16083">
        <ele>465</ele>
        <time>2024-04-14T09:52:27Z</time>
      </trkpt>
      <trkpt lat="46.04223" lon="3.16079">
        <ele>465.2</ele>
        <time>2024-04-14T09:52:28Z</time>
      </trkpt>
      <trkpt lat="46.04223" lon="3.16074">
        <ele>465.4</ele>
        <time>2024-04-14T09:52:29Z</time>
      </trkpt>
      <trkpt lat="46.04223" lon="3.1607">
        <ele>465.6</ele>
        <time>2024-04-14T09:52:30Z</time>
      </trkpt>
      <trkpt lat="46.04223" lon="3.16065">
        <ele>465.8</ele>
        <time>2024-04-14T09:52:31Z</time>
      </trkpt>
      <trkpt lat="46.04224" lon="3.16061">
        <ele>466</ele>
        <time>2024-04-14T09:52:32Z</time>
      </trkpt>
      <trkpt lat="46.04224" lon="3.16056">
        <ele>466.2</ele>
        <time>2024-04-14T09:52:33Z</time>
      </trkpt>
      <trkpt lat="46.04224" lon="3.16052">
        <ele>466.4</ele>
        <time>2024-04-14T09:52:34Z</time>
      </trkpt>
      <trkpt lat="46.04224" lon="3.16047">
        <ele>466.6</ele>
        <time>2024-04-14T09:52:35Z</time>
      </trkpt>
      <trkpt lat="46.04224" lon="3.16043">
        <ele>466.8</ele>
        <time>2024-04-14T09:52:36Z</time>
      </trkpt>
      <trkpt lat="46.04225" lon="3.16039">
        <ele>467</ele>
        <time>2024-04-14T09:52:37Z</time>
      </trkpt>
      <trkpt lat="46.04225" lon="3.16034">
        <ele>467.2</ele>
        <time>2024-04-14T09:52:38Z</time>
      </trkpt>
      <trkpt lat="46.04225" lon="3.1603">
        <ele>467.4</ele>
        <time>2024-04-14T09:52:39Z</time>
      </trkpt>
      <trkpt lat="46.04225" lon="3.16025">
        <ele>467.6</ele>
        <time>2024-04-14T09:52:40Z</time>
      </trkpt>
      <trkpt lat="46.04225" lon="3.16021">
        <ele>467.8</ele>
        <time>2024-04-14T09:52:41Z</time>
      </trkpt>
      <trkpt lat="46.04226" lon="3.16016">
        <ele>468</ele>
        <time>2024-04-14T09:52:42Z</time>
      </trkpt>
      <trkpt lat="46.04226" lon="3.16011">
        <ele>468.2</ele>
        <time>2024-04-14T09:52:43Z</time>
      </trkpt>
      <trkpt lat="46.04226" lon="3.16006">
        <ele>468.4</ele>
        <time>2024-04-14T09:52:44Z</time>
      </trkpt>
      <trkpt lat="46.04226" lon="3.16002">
        <ele>468.6</ele>
        <time>2024-04-14T09:52:45Z</time>
      </trkpt>
      <trkpt lat="46.04226" lon="3.15997">
        <ele>468.6</ele>
        <time>2024-04-14T09:52:46Z</time>
      </trkpt>
      <trkpt lat="46.04227" lon="3.15992">
        <ele>468.8</ele>
        <time>2024-04-14T09:52:47Z</time>
      </trkpt>
      <trkpt lat="46.04227" lon="3.15987">
        <ele>469</ele>
        <time>2024-04-14T09:52:48Z</time>
      </trkpt>
      <trkpt lat="46.04227" lon="3.15982">
        <ele>469.2</ele>
        <time>2024-04-14T09:52:49Z</time>
      </trkpt>
      <trkpt lat="46.04227" lon="3.15978">
        <ele>469.4</ele>
        <time>2024-04-14T09:52:50Z</time>
      </trkpt>
      <trkpt lat="46.04227" lon="3.15973">
        <ele>469.6</ele>
        <time>2024-04-14T09:52:51Z</time>
      </trkpt>
      <trkpt lat="46.04228" lon="3.15968">
        <ele>469.8</ele>
        <time>2024-04-14T09:52:52Z</time>
      </trkpt>
      <trkpt lat="46.04228" lon="3.15963">
        <ele>470</ele>
        <time>2024-04-14T09:52:53Z</time>
      </trkpt>
      <trkpt lat="46.04228" lon="3.15958">
        <ele>470.2</ele>
        <time>2024-04-14T09:52:54Z</time>
      </trkpt>
      <trkpt lat="46.04228" lon="3.15953">
        <ele>470.2</ele>
        <time>2024-04-14T09:52:55Z</time>
      </trkpt>
      <trkpt lat="46.04228" lon="3.15948">
        <ele>470.4</ele>
        <time>2024-04-14T09:52:56Z</time>
      </trkpt>
      <trkpt lat="46.04229" lon="3.15943">
        <ele>470.8</ele>
        <time>2024-04-14T09:52:57Z</time>
      </trkpt>
      <trkpt lat="46.04229" lon="3.15939">
        <ele>470.8</ele>
        <time>2024-04-14T09:52:58Z</time>
      </trkpt>
      <trkpt lat="46.04229" lon="3.15934">
        <ele>471</ele>
        <time>2024-04-14T09:52:59Z</time>
      </trkpt>
      <trkpt lat="46.04229" lon="3.15929">
        <ele>471.2</ele>
        <time>2024-04-14T09:53:00Z</time>
      </trkpt>
      <trkpt lat="46.04229" lon="3.15924">
        <ele>471.4</ele>
        <time>2024-04-14T09:53:01Z</time>
      </trkpt>
      <trkpt lat="46.0423" lon="3.15919">
        <ele>471.6</ele>
        <time>2024-04-14T09:53:02Z</time>
      </trkpt>
      <trkpt lat="46.0423" lon="3.15914">
        <ele>471.8</ele>
        <time>2024-04-14T09:53:03Z</time>
      </trkpt>
      <trkpt lat="46.0423" lon="3.15909">
        <ele>472</ele>
        <time>2024-04-14T09:53:04Z</time>
      </trkpt>
      <trkpt lat="46.0423" lon="3.15904">
        <ele>472.2</ele>
        <time>2024-04-14T09:53:05Z</time>
      </trkpt>
      <trkpt lat="46.0423" lon="3.15899">
        <ele>472.4</ele>
        <time>2024-04-14T09:53:06Z</time>
      </trkpt>
      <trkpt lat="46.04231" lon="3.15894">
        <ele>472.6</ele>
        <time>2024-04-14T09:53:07Z</time>
      </trkpt>
      <trkpt lat="46.04232" lon="3.15889">
        <ele>472.8</ele>
        <time>2024-04-14T09:53:08Z</time>
      </trkpt>
      <trkpt lat="46.04233" lon="3.15884">
        <ele>472.8</ele>
        <time>2024-04-14T09:53:09Z</time>
      </trkpt>
      <trkpt lat="46.04233" lon="3.15879">
        <ele>473</ele>
        <time>2024-04-14T09:53:10Z</time>
      </trkpt>
      <trkpt lat="46.04235" lon="3.15874">
        <ele>473.2</ele>
        <time>2024-04-14T09:53:11Z</time>
      </trkpt>
      <trkpt lat="46.04236" lon="3.15869">
        <ele>473.4</ele>
        <time>2024-04-14T09:53:12Z</time>
      </trkpt>
      <trkpt lat="46.04237" lon="3.15863">
        <ele>473.6</ele>
        <time>2024-04-14T09:53:13Z</time>
      </trkpt>
      <trkpt lat="46.04238" lon="3.15858">
        <ele>473.8</ele>
        <time>2024-04-14T09:53:14Z</time>
      </trkpt>
      <trkpt lat="46.04239" lon="3.15852">
        <ele>474</ele>
        <time>2024-04-14T09:53:15Z</time>
      </trkpt>
      <trkpt lat="46.0424" lon="3.15846">
        <ele>474.2</ele>
        <time>2024-04-14T09:53:16Z</time>
      </trkpt>
      <trkpt lat="46.04241" lon="3.1584">
        <ele>474.4</ele>
        <time>2024-04-14T09:53:17Z</time>
      </trkpt>
      <trkpt lat="46.04243" lon="3.15835">
        <ele>474.4</ele>
        <time>2024-04-14T09:53:18Z</time>
      </trkpt>
      <trkpt lat="46.04244" lon="3.15829">
        <ele>474.6</ele>
        <time>2024-04-14T09:53:19Z</time>
      </trkpt>
      <trkpt lat="46.04245" lon="3.15824">
        <ele>474.8</ele>
        <time>2024-04-14T09:53:20Z</time>
      </trkpt>
      <trkpt lat="46.04246" lon="3.15818">
        <ele>475</ele>
        <time>2024-04-14T09:53:21Z</time>
      </trkpt>
      <trkpt lat="46.04247" lon="3.15812">
        <ele>475.2</ele>
        <time>2024-04-14T09:53:22Z</time>
      </trkpt>
      <trkpt lat="46.04248" lon="3.15807">
        <ele>475.4</ele>
        <time>2024-04-14T09:53:23Z</time>
      </trkpt>
      <trkpt lat="46.0425" lon="3.15801">
        <ele>475.6</ele>
        <time>2024-04-14T09:53:24Z</time>
      </trkpt>
      <trkpt lat="46.04251" lon="3.15795">
        <ele>475.8</ele>
        <time>2024-04-14T09:53:25Z</time>
      </trkpt>
      <trkpt lat="46.04252" lon="3.1579">
        <ele>476</ele>
        <time>2024-04-14T09:53:26Z</time>
      </trkpt>
      <trkpt lat="46.04253" lon="3.15784">
        <ele>476.2</ele>
        <time>2024-04-14T09:53:27Z</time>
      </trkpt>
      <trkpt lat="46.04254" lon="3.15779">
        <ele>476.4</ele>
        <time>2024-04-14T09:53:28Z</time>
      </trkpt>
      <trkpt lat="46.04255" lon="3.15773">
        <ele>476.6</ele>
        <time>2024-04-14T09:53:29Z</time>
      </trkpt>
      <trkpt lat="46.04257" lon="3.15768">
        <ele>476.8</ele>
        <time>2024-04-14T09:53:30Z</time>
      </trkpt>
      <trkpt lat="46.04258" lon="3.15762">
        <ele>477</ele>
        <time>2024-04-14T09:53:31Z</time>
      </trkpt>
      <trkpt lat="46.04259" lon="3.15756">
        <ele>477.2</ele>
        <time>2024-04-14T09:53:32Z</time>
      </trkpt>
      <trkpt lat="46.04261" lon="3.1575">
        <ele>477.4</ele>
        <time>2024-04-14T09:53:33Z</time>
      </trkpt>
      <trkpt lat="46.04262" lon="3.15745">
        <ele>477.6</ele>
        <time>2024-04-14T09:53:34Z</time>
      </trkpt>
      <trkpt lat="46.04263" lon="3.15739">
        <ele>477.8</ele>
        <time>2024-04-14T09:53:35Z</time>
      </trkpt>
      <trkpt lat="46.04265" lon="3.15732">
        <ele>478</ele>
        <time>2024-04-14T09:53:36Z</time>
      </trkpt>
      <trkpt lat="46.04266" lon="3.15726">
        <ele>478.2</ele>
        <time>2024-04-14T09:53:37Z</time>
      </trkpt>
      <trkpt lat="46.04268" lon="3.1572">
        <ele>478.4</ele>
        <time>2024-04-14T09:53:38Z</time>
      </trkpt>
      <trkpt lat="46.04269" lon="3.15715">
        <ele>478.6</ele>
        <time>2024-04-14T09:53:39Z</time>
      </trkpt>
      <trkpt lat="46.0427" lon="3.15709">
        <ele>478.8</ele>
        <time>2024-04-14T09:53:40Z</time>
      </trkpt>
      <trkpt lat="46.04272" lon="3.15704">
        <ele>478.8</ele>
        <time>2024-04-14T09:53:41Z</time>
      </trkpt>
      <trkpt lat="46.04273" lon="3.15698">
        <ele>479</ele>
        <time>2024-04-14T09:53:42Z</time>
      </trkpt>
      <trkpt lat="46.04274" lon="3.15693">
        <ele>479.2</ele>
        <time>2024-04-14T09:53:43Z</time>
      </trkpt>
      <trkpt lat="46.04276" lon="3.15687">
        <ele>479.4</ele>
        <time>2024-04-14T09:53:44Z</time>
      </trkpt>
      <trkpt lat="46.04277" lon="3.15681">
        <ele>479.6</ele>
        <time>2024-04-14T09:53:45Z</time>
      </trkpt>
      <trkpt lat="46.04278" lon="3.15675">
        <ele>479.8</ele>
        <time>2024-04-14T09:53:46Z</time>
      </trkpt>
      <trkpt lat="46.0428" lon="3.15669">
        <ele>480</ele>
        <time>2024-04-14T09:53:47Z</time>
      </trkpt>
      <trkpt lat="46.04281" lon="3.15663">
        <ele>480.2</ele>
        <time>2024-04-14T09:53:48Z</time>
      </trkpt>
      <trkpt lat="46.04283" lon="3.15656">
        <ele>480.4</ele>
        <time>2024-04-14T09:53:49Z</time>
      </trkpt>
      <trkpt lat="46.04284" lon="3.15649">
        <ele>480.4</ele>
        <time>2024-04-14T09:53:50Z</time>
      </trkpt>
      <trkpt lat="46.04286" lon="3.15643">
        <ele>480.6</ele>
        <time>2024-04-14T09:53:51Z</time>
      </trkpt>
      <trkpt lat="46.04288" lon="3.15636">
        <ele>480.8</ele>
        <time>2024-04-14T09:53:52Z</time>
      </trkpt>
      <trkpt lat="46.04289" lon="3.15629">
        <ele>481</ele>
        <time>2024-04-14T09:53:53Z</time>
      </trkpt>
      <trkpt lat="46.04291" lon="3.15622">
        <ele>481.2</ele>
        <time>2024-04-14T09:53:54Z</time>
      </trkpt>
      <trkpt lat="46.04292" lon="3.15616">
        <ele>481.2</ele>
        <time>2024-04-14T09:53:55Z</time>
      </trkpt>
      <trkpt lat="46.04294" lon="3.15609">
        <ele>481.4</ele>
        <time>2024-04-14T09:53:56Z</time>
      </trkpt>
      <trkpt lat="46.04295" lon="3.15602">
        <ele>481.6</ele>
        <time>2024-04-14T09:53:57Z</time>
      </trkpt>
      <trkpt lat="46.04297" lon="3.15595">
        <ele>481.6</ele>
        <time>2024-04-14T09:53:58Z</time>
      </trkpt>
      <trkpt lat="46.04299" lon="3.15588">
        <ele>481.8</ele>
        <time>2024-04-14T09:53:59Z</time>
      </trkpt>
      <trkpt lat="46.043" lon="3.15582">
        <ele>481.8</ele>
        <time>2024-04-14T09:54:00Z</time>
      </trkpt>
      <trkpt lat="46.04302" lon="3.15575">
        <ele>482</ele>
        <time>2024-04-14T09:54:01Z</time>
      </trkpt>
      <trkpt lat="46.04303" lon="3.15569">
        <ele>482</ele>
        <time>2024-04-14T09:54:02Z</time>
      </trkpt>
      <trkpt lat="46.04305" lon="3.15562">
        <ele>482.2</ele>
        <time>2024-04-14T09:54:03Z</time>
      </trkpt>
      <trkpt lat="46.04306" lon="3.15557">
        <ele>482.2</ele>
        <time>2024-04-14T09:54:04Z</time>
      </trkpt>
      <trkpt lat="46.04308" lon="3.15552">
        <ele>482.2</ele>
        <time>2024-04-14T09:54:05Z</time>
      </trkpt>
      <trkpt lat="46.0431" lon="3.15545">
        <ele>482.2</ele>
        <time>2024-04-14T09:54:06Z</time>
      </trkpt>
      <trkpt lat="46.04311" lon="3.15539">
        <ele>482.2</ele>
        <time>2024-04-14T09:54:07Z</time>
      </trkpt>
      <trkpt lat="46.04313" lon="3.15533">
        <ele>482.2</ele>
        <time>2024-04-14T09:54:08Z</time>
      </trkpt>
      <trkpt lat="46.04315" lon="3.15528">
        <ele>482.2</ele>
        <time>2024-04-14T09:54:09Z</time>
      </trkpt>
      <trkpt lat="46.04316" lon="3.15522">
        <ele>482.2</ele>
        <time>2024-04-14T09:54:10Z</time>
      </trkpt>
      <trkpt lat="46.04318" lon="3.15516">
        <ele>482.2</ele>
        <time>2024-04-14T09:54:11Z</time>
      </trkpt>
      <trkpt lat="46.0432" lon="3.15509">
        <ele>482</ele>
        <time>2024-04-14T09:54:12Z</time>
      </trkpt>
      <trkpt lat="46.04322" lon="3.15503">
        <ele>482</ele>
        <time>2024-04-14T09:54:13Z</time>
      </trkpt>
      <trkpt lat="46.04324" lon="3.15496">
        <ele>482</ele>
        <time>2024-04-14T09:54:14Z</time>
      </trkpt>
      <trkpt lat="46.04326" lon="3.15489">
        <ele>481.8</ele>
        <time>2024-04-14T09:54:15Z</time>
      </trkpt>
      <trkpt lat="46.04327" lon="3.15483">
        <ele>481.6</ele>
        <time>2024-04-14T09:54:16Z</time>
      </trkpt>
      <trkpt lat="46.04329" lon="3.15476">
        <ele>482.6</ele>
        <time>2024-04-14T09:54:17Z</time>
      </trkpt>
      <trkpt lat="46.04331" lon="3.1547">
        <ele>481.6</ele>
        <time>2024-04-14T09:54:18Z</time>
      </trkpt>
      <trkpt lat="46.04333" lon="3.15462">
        <ele>480.6</ele>
        <time>2024-04-14T09:54:19Z</time>
      </trkpt>
      <trkpt lat="46.04335" lon="3.15455">
        <ele>481</ele>
        <time>2024-04-14T09:54:20Z</time>
      </trkpt>
      <trkpt lat="46.04337" lon="3.15448">
        <ele>480.8</ele>
        <time>2024-04-14T09:54:21Z</time>
      </trkpt>
      <trkpt lat="46.0434" lon="3.15441">
        <ele>480.6</ele>
        <time>2024-04-14T09:54:22Z</time>
      </trkpt>
      <trkpt lat="46.04342" lon="3.15434">
        <ele>480.6</ele>
        <time>2024-04-14T09:54:23Z</time>
      </trkpt>
      <trkpt lat="46.04346" lon="3.15427">
        <ele>480.6</ele>
        <time>2024-04-14T09:54:24Z</time>
      </trkpt>
      <trkpt lat="46.04349" lon="3.15418">
        <ele>480.6</ele>
        <time>2024-04-14T09:54:25Z</time>
      </trkpt>
      <trkpt lat="46.04353" lon="3.1541">
        <ele>480.6</ele>
        <time>2024-04-14T09:54:26Z</time>
      </trkpt>
      <trkpt lat="46.04356" lon="3.15402">
        <ele>481</ele>
        <time>2024-04-14T09:54:27Z</time>
      </trkpt>
      <trkpt lat="46.0436" lon="3.15394">
        <ele>481</ele>
        <time>2024-04-14T09:54:28Z</time>
      </trkpt>
      <trkpt lat="46.04363" lon="3.15385">
        <ele>481</ele>
        <time>2024-04-14T09:54:29Z</time>
      </trkpt>
      <trkpt lat="46.04367" lon="3.15376">
        <ele>481</ele>
        <time>2024-04-14T09:54:30Z</time>
      </trkpt>
      <trkpt lat="46.04371" lon="3.15367">
        <ele>480.6</ele>
        <time>2024-04-14T09:54:31Z</time>
      </trkpt>
      <trkpt lat="46.04375" lon="3.15358">
        <ele>481.6</ele>
        <time>2024-04-14T09:54:32Z</time>
      </trkpt>
      <trkpt lat="46.04378" lon="3.15349">
        <ele>482.8</ele>
        <time>2024-04-14T09:54:33Z</time>
      </trkpt>
      <trkpt lat="46.04381" lon="3.15339">
        <ele>482</ele>
        <time>2024-04-14T09:54:34Z</time>
      </trkpt>
      <trkpt lat="46.04384" lon="3.15328">
        <ele>482.2</ele>
        <time>2024-04-14T09:54:35Z</time>
      </trkpt>
      <trkpt lat="46.04387" lon="3.15318">
        <ele>482.4</ele>
        <time>2024-04-14T09:54:36Z</time>
      </trkpt>
      <trkpt lat="46.04389" lon="3.15307">
        <ele>482.4</ele>
        <time>2024-04-14T09:54:37Z</time>
      </trkpt>
      <trkpt lat="46.04392" lon="3.15297">
        <ele>482.6</ele>
        <time>2024-04-14T09:54:38Z</time>
      </trkpt>
      <trkpt lat="46.04395" lon="3.15286">
        <ele>482.8</ele>
        <time>2024-04-14T09:54:39Z</time>
      </trkpt>
      <trkpt lat="46.04397" lon="3.15276">
        <ele>483</ele>
        <time>2024-04-14T09:54:40Z</time>
      </trkpt>
      <trkpt lat="46.044" lon="3.15265">
        <ele>483</ele>
        <time>2024-04-14T09:54:41Z</time>
      </trkpt>
      <trkpt lat="46.04403" lon="3.15254">
        <ele>483.2</ele>
        <time>2024-04-14T09:54:42Z</time>
      </trkpt>
      <trkpt lat="46.04406" lon="3.15242">
        <ele>483.2</ele>
        <time>2024-04-14T09:54:43Z</time>
      </trkpt>
      <trkpt lat="46.04409" lon="3.15231">
        <ele>483.2</ele>
        <time>2024-04-14T09:54:44Z</time>
      </trkpt>
      <trkpt lat="46.04412" lon="3.15219">
        <ele>483.2</ele>
        <time>2024-04-14T09:54:45Z</time>
      </trkpt>
      <trkpt lat="46.04416" lon="3.15207">
        <ele>483.2</ele>
        <time>2024-04-14T09:54:46Z</time>
      </trkpt>
      <trkpt lat="46.0442" lon="3.15195">
        <ele>483</ele>
        <time>2024-04-14T09:54:47Z</time>
      </trkpt>
      <trkpt lat="46.04424" lon="3.15183">
        <ele>483.2</ele>
        <time>2024-04-14T09:54:48Z</time>
      </trkpt>
      <trkpt lat="46.04428" lon="3.15171">
        <ele>483.2</ele>
        <time>2024-04-14T09:54:49Z</time>
      </trkpt>
      <trkpt lat="46.04433" lon="3.15159">
        <ele>483</ele>
        <time>2024-04-14T09:54:50Z</time>
      </trkpt>
      <trkpt lat="46.04437" lon="3.15147">
        <ele>483</ele>
        <time>2024-04-14T09:54:51Z</time>
      </trkpt>
      <trkpt lat="46.04441" lon="3.15134">
        <ele>483</ele>
        <time>2024-04-14T09:54:52Z</time>
      </trkpt>
      <trkpt lat="46.04445" lon="3.15122">
        <ele>483</ele>
        <time>2024-04-14T09:54:53Z</time>
      </trkpt>
      <trkpt lat="46.0445" lon="3.15109">
        <ele>483</ele>
        <time>2024-04-14T09:54:54Z</time>
      </trkpt>
      <trkpt lat="46.04453" lon="3.15096">
        <ele>483</ele>
        <time>2024-04-14T09:54:55Z</time>
      </trkpt>
      <trkpt lat="46.04454" lon="3.15082">
        <ele>483</ele>
        <time>2024-04-14T09:54:56Z</time>
      </trkpt>
      <trkpt lat="46.04452" lon="3.15068">
        <ele>483</ele>
        <time>2024-04-14T09:54:57Z</time>
      </trkpt>
      <trkpt lat="46.04451" lon="3.15053">
        <ele>483</ele>
        <time>2024-04-14T09:54:58Z</time>
      </trkpt>
      <trkpt lat="46.0445" lon="3.15039">
        <ele>483</ele>
        <time>2024-04-14T09:54:59Z</time>
      </trkpt>
      <trkpt lat="46.04449" lon="3.15024">
        <ele>482.8</ele>
        <time>2024-04-14T09:55:00Z</time>
      </trkpt>
      <trkpt lat="46.04447" lon="3.1501">
        <ele>482.8</ele>
        <time>2024-04-14T09:55:01Z</time>
      </trkpt>
      <trkpt lat="46.04446" lon="3.14996">
        <ele>483.8</ele>
        <time>2024-04-14T09:55:02Z</time>
      </trkpt>
      <trkpt lat="46.04445" lon="3.14981">
        <ele>483.4</ele>
        <time>2024-04-14T09:55:03Z</time>
      </trkpt>
      <trkpt lat="46.04444" lon="3.14967">
        <ele>483.2</ele>
        <time>2024-04-14T09:55:04Z</time>
      </trkpt>
      <trkpt lat="46.04443" lon="3.14953">
        <ele>483</ele>
        <time>2024-04-14T09:55:05Z</time>
      </trkpt>
      <trkpt lat="46.04441" lon="3.14939">
        <ele>482.6</ele>
        <time>2024-04-14T09:55:06Z</time>
      </trkpt>
      <trkpt lat="46.0444" lon="3.14925">
        <ele>482.2</ele>
        <time>2024-04-14T09:55:07Z</time>
      </trkpt>
      <trkpt lat="46.04439" lon="3.14911">
        <ele>482.6</ele>
        <time>2024-04-14T09:55:08Z</time>
      </trkpt>
      <trkpt lat="46.04438" lon="3.14897">
        <ele>482.6</ele>
        <time>2024-04-14T09:55:09Z</time>
      </trkpt>
      <trkpt lat="46.04436" lon="3.14882">
        <ele>482.6</ele>
        <time>2024-04-14T09:55:10Z</time>
      </trkpt>
      <trkpt lat="46.04435" lon="3.14869">
        <ele>482.6</ele>
        <time>2024-04-14T09:55:11Z</time>
      </trkpt>
      <trkpt lat="46.04433" lon="3.14855">
        <ele>482.6</ele>
        <time>2024-04-14T09:55:12Z</time>
      </trkpt>
      <trkpt lat="46.04432" lon="3.14841">
        <ele>482.6</ele>
        <time>2024-04-14T09:55:13Z</time>
      </trkpt>
      <trkpt lat="46.04431" lon="3.14828">
        <ele>482.4</ele>
        <time>2024-04-14T09:55:14Z</time>
      </trkpt>
      <trkpt lat="46.04429" lon="3.14815">
        <ele>482.4</ele>
        <time>2024-04-14T09:55:15Z</time>
      </trkpt>
      <trkpt lat="46.04428" lon="3.14802">
        <ele>482.4</ele>
        <time>2024-04-14T09:55:16Z</time>
      </trkpt>
      <trkpt lat="46.04427" lon="3.1479">
        <ele>482.4</ele>
        <time>2024-04-14T09:55:17Z</time>
      </trkpt>
      <trkpt lat="46.04426" lon="3.14777">
        <ele>482.4</ele>
        <time>2024-04-14T09:55:18Z</time>
      </trkpt>
      <trkpt lat="46.04424" lon="3.14765">
        <ele>482.4</ele>
        <time>2024-04-14T09:55:19Z</time>
      </trkpt>
      <trkpt lat="46.04423" lon="3.14753">
        <ele>482.4</ele>
        <time>2024-04-14T09:55:20Z</time>
      </trkpt>
      <trkpt lat="46.04422" lon="3.1474">
        <ele>482.2</ele>
        <time>2024-04-14T09:55:21Z</time>
      </trkpt>
      <trkpt lat="46.04421" lon="3.14728">
        <ele>482.2</ele>
        <time>2024-04-14T09:55:22Z</time>
      </trkpt>
      <trkpt lat="46.04419" lon="3.14716">
        <ele>482.2</ele>
        <time>2024-04-14T09:55:23Z</time>
      </trkpt>
      <trkpt lat="46.04418" lon="3.14703">
        <ele>482</ele>
        <time>2024-04-14T09:55:24Z</time>
      </trkpt>
      <trkpt lat="46.04417" lon="3.14691">
        <ele>482</ele>
        <time>2024-04-14T09:55:25Z</time>
      </trkpt>
      <trkpt lat="46.04416" lon="3.14679">
        <ele>482</ele>
        <time>2024-04-14T09:55:26Z</time>
      </trkpt>
      <trkpt lat="46.04414" lon="3.14668">
        <ele>482</ele>
        <time>2024-04-14T09:55:27Z</time>
      </trkpt>
      <trkpt lat="46.04413" lon="3.14656">
        <ele>481.8</ele>
        <time>2024-04-14T09:55:28Z</time>
      </trkpt>
      <trkpt lat="46.04414" lon="3.14644">
        <ele>481.8</ele>
        <time>2024-04-14T09:55:29Z</time>
      </trkpt>
      <trkpt lat="46.04415" lon="3.14632">
        <ele>481.8</ele>
        <time>2024-04-14T09:55:30Z</time>
      </trkpt>
      <trkpt lat="46.04416" lon="3.14619">
        <ele>481.8</ele>
        <time>2024-04-14T09:55:31Z</time>
      </trkpt>
      <trkpt lat="46.04418" lon="3.14607">
        <ele>481.6</ele>
        <time>2024-04-14T09:55:32Z</time>
      </trkpt>
      <trkpt lat="46.0442" lon="3.14595">
        <ele>481.6</ele>
        <time>2024-04-14T09:55:33Z</time>
      </trkpt>
      <trkpt lat="46.04423" lon="3.14583">
        <ele>481.6</ele>
        <time>2024-04-14T09:55:34Z</time>
      </trkpt>
      <trkpt lat="46.04426" lon="3.14572">
        <ele>481.6</ele>
        <time>2024-04-14T09:55:35Z</time>
      </trkpt>
      <trkpt lat="46.04429" lon="3.1456">
        <ele>481.6</ele>
        <time>2024-04-14T09:55:36Z</time>
      </trkpt>
      <trkpt lat="46.04431" lon="3.14549">
        <ele>481.6</ele>
        <time>2024-04-14T09:55:37Z</time>
      </trkpt>
      <trkpt lat="46.04434" lon="3.14538">
        <ele>481.4</ele>
        <time>2024-04-14T09:55:38Z</time>
      </trkpt>
      <trkpt lat="46.04436" lon="3.14528">
        <ele>481.4</ele>
        <time>2024-04-14T09:55:39Z</time>
      </trkpt>
      <trkpt lat="46.04437" lon="3.14518">
        <ele>481.4</ele>
        <time>2024-04-14T09:55:40Z</time>
      </trkpt>
      <trkpt lat="46.04429" lon="3.14505">
        <ele>481.4</ele>
        <time>2024-04-14T09:55:41Z</time>
      </trkpt>
      <trkpt lat="46.04424" lon="3.14505">
        <ele>481.4</ele>
        <time>2024-04-14T09:55:42Z</time>
      </trkpt>
      <trkpt lat="46.04418" lon="3.14504">
        <ele>481.4</ele>
        <time>2024-04-14T09:55:43Z</time>
      </trkpt>
      <trkpt lat="46.04412" lon="3.14501">
        <ele>481.4</ele>
        <time>2024-04-14T09:55:44Z</time>
      </trkpt>
      <trkpt lat="46.04406" lon="3.14498">
        <ele>481.4</ele>
        <time>2024-04-14T09:55:45Z</time>
      </trkpt>
      <trkpt lat="46.044" lon="3.14495">
        <ele>481.4</ele>
        <time>2024-04-14T09:55:46Z</time>
      </trkpt>
      <trkpt lat="46.04394" lon="3.14492">
        <ele>481.4</ele>
        <time>2024-04-14T09:55:47Z</time>
      </trkpt>
      <trkpt lat="46.04389" lon="3.14489">
        <ele>481.4</ele>
        <time>2024-04-14T09:55:48Z</time>
      </trkpt>
      <trkpt lat="46.04384" lon="3.14486">
        <ele>481.4</ele>
        <time>2024-04-14T09:55:49Z</time>
      </trkpt>
      <trkpt lat="46.04378" lon="3.14483">
        <ele>481.6</ele>
        <time>2024-04-14T09:55:50Z</time>
      </trkpt>
      <trkpt lat="46.04373" lon="3.1448">
        <ele>481.2</ele>
        <time>2024-04-14T09:55:51Z</time>
      </trkpt>
      <trkpt lat="46.04368" lon="3.14478">
        <ele>481.4</ele>
        <time>2024-04-14T09:55:52Z</time>
      </trkpt>
      <trkpt lat="46.04363" lon="3.14475">
        <ele>481.8</ele>
        <time>2024-04-14T09:55:53Z</time>
      </trkpt>
      <trkpt lat="46.04357" lon="3.14472">
        <ele>482</ele>
        <time>2024-04-14T09:55:54Z</time>
      </trkpt>
      <trkpt lat="46.04353" lon="3.1447">
        <ele>482.2</ele>
        <time>2024-04-14T09:55:55Z</time>
      </trkpt>
      <trkpt lat="46.04348" lon="3.14467">
        <ele>481.8</ele>
        <time>2024-04-14T09:55:56Z</time>
      </trkpt>
      <trkpt lat="46.04343" lon="3.14461">
        <ele>481.8</ele>
        <time>2024-04-14T09:55:57Z</time>
      </trkpt>
      <trkpt lat="46.0434" lon="3.14455">
        <ele>482</ele>
        <time>2024-04-14T09:55:58Z</time>
      </trkpt>
      <trkpt lat="46.04337" lon="3.14449">
        <ele>482</ele>
        <time>2024-04-14T09:55:59Z</time>
      </trkpt>
      <trkpt lat="46.04333" lon="3.14443">
        <ele>482.2</ele>
        <time>2024-04-14T09:56:00Z</time>
      </trkpt>
      <trkpt lat="46.0433" lon="3.14437">
        <ele>482.2</ele>
        <time>2024-04-14T09:56:01Z</time>
      </trkpt>
      <trkpt lat="46.04327" lon="3.1443">
        <ele>482.2</ele>
        <time>2024-04-14T09:56:02Z</time>
      </trkpt>
      <trkpt lat="46.04326" lon="3.14423">
        <ele>482.4</ele>
        <time>2024-04-14T09:56:03Z</time>
      </trkpt>
      <trkpt lat="46.04325" lon="3.14416">
        <ele>482.4</ele>
        <time>2024-04-14T09:56:04Z</time>
      </trkpt>
      <trkpt lat="46.04325" lon="3.1441">
        <ele>482.4</ele>
        <time>2024-04-14T09:56:05Z</time>
      </trkpt>
      <trkpt lat="46.04324" lon="3.14403">
        <ele>482.6</ele>
        <time>2024-04-14T09:56:06Z</time>
      </trkpt>
      <trkpt lat="46.04323" lon="3.14396">
        <ele>482.6</ele>
        <time>2024-04-14T09:56:07Z</time>
      </trkpt>
      <trkpt lat="46.04322" lon="3.14388">
        <ele>482.8</ele>
        <time>2024-04-14T09:56:08Z</time>
      </trkpt>
      <trkpt lat="46.04321" lon="3.14381">
        <ele>482.8</ele>
        <time>2024-04-14T09:56:09Z</time>
      </trkpt>
      <trkpt lat="46.0432" lon="3.14374">
        <ele>483</ele>
        <time>2024-04-14T09:56:10Z</time>
      </trkpt>
      <trkpt lat="46.04319" lon="3.14367">
        <ele>483</ele>
        <time>2024-04-14T09:56:11Z</time>
      </trkpt>
      <trkpt lat="46.04319" lon="3.14359">
        <ele>483</ele>
        <time>2024-04-14T09:56:12Z</time>
      </trkpt>
      <trkpt lat="46.04318" lon="3.14352">
        <ele>483.2</ele>
        <time>2024-04-14T09:56:13Z</time>
      </trkpt>
      <trkpt lat="46.04317" lon="3.14344">
        <ele>483.2</ele>
        <time>2024-04-14T09:56:14Z</time>
      </trkpt>
      <trkpt lat="46.04316" lon="3.14337">
        <ele>483.2</ele>
        <time>2024-04-14T09:56:15Z</time>
      </trkpt>
      <trkpt lat="46.04315" lon="3.14329">
        <ele>483.4</ele>
        <time>2024-04-14T09:56:16Z</time>
      </trkpt>
      <trkpt lat="46.04314" lon="3.14322">
        <ele>483.4</ele>
        <time>2024-04-14T09:56:17Z</time>
      </trkpt>
      <trkpt lat="46.04313" lon="3.14314">
        <ele>483.4</ele>
        <time>2024-04-14T09:56:18Z</time>
      </trkpt>
      <trkpt lat="46.04312" lon="3.14307">
        <ele>483.6</ele>
        <time>2024-04-14T09:56:19Z</time>
      </trkpt>
      <trkpt lat="46.04311" lon="3.14299">
        <ele>483.6</ele>
        <time>2024-04-14T09:56:20Z</time>
      </trkpt>
      <trkpt lat="46.04311" lon="3.14292">
        <ele>483.6</ele>
        <time>2024-04-14T09:56:21Z</time>
      </trkpt>
      <trkpt lat="46.0431" lon="3.14284">
        <ele>483.6</ele>
        <time>2024-04-14T09:56:22Z</time>
      </trkpt>
      <trkpt lat="46.04309" lon="3.14277">
        <ele>483.8</ele>
        <time>2024-04-14T09:56:23Z</time>
      </trkpt>
      <trkpt lat="46.04308" lon="3.1427">
        <ele>483.8</ele>
        <time>2024-04-14T09:56:24Z</time>
      </trkpt>
      <trkpt lat="46.04307" lon="3.14262">
        <ele>483.8</ele>
        <time>2024-04-14T09:56:25Z</time>
      </trkpt>
      <trkpt lat="46.04306" lon="3.14254">
        <ele>484</ele>
        <time>2024-04-14T09:56:26Z</time>
      </trkpt>
      <trkpt lat="46.04305" lon="3.14247">
        <ele>484</ele>
        <time>2024-04-14T09:56:27Z</time>
      </trkpt>
      <trkpt lat="46.04303" lon="3.1424">
        <ele>484.2</ele>
        <time>2024-04-14T09:56:28Z</time>
      </trkpt>
      <trkpt lat="46.04301" lon="3.14232">
        <ele>484.2</ele>
        <time>2024-04-14T09:56:29Z</time>
      </trkpt>
      <trkpt lat="46.043" lon="3.14226">
        <ele>484.2</ele>
        <time>2024-04-14T09:56:30Z</time>
      </trkpt>
      <trkpt lat="46.04298" lon="3.14219">
        <ele>484.4</ele>
        <time>2024-04-14T09:56:31Z</time>
      </trkpt>
      <trkpt lat="46.04297" lon="3.14212">
        <ele>484.4</ele>
        <time>2024-04-14T09:56:32Z</time>
      </trkpt>
      <trkpt lat="46.04295" lon="3.14205">
        <ele>484.4</ele>
        <time>2024-04-14T09:56:33Z</time>
      </trkpt>
      <trkpt lat="46.04293" lon="3.14198">
        <ele>484.4</ele>
        <time>2024-04-14T09:56:34Z</time>
      </trkpt>
      <trkpt lat="46.0429" lon="3.14191">
        <ele>484.6</ele>
        <time>2024-04-14T09:56:35Z</time>
      </trkpt>
      <trkpt lat="46.04287" lon="3.14185">
        <ele>484.6</ele>
        <time>2024-04-14T09:56:36Z</time>
      </trkpt>
      <trkpt lat="46.04283" lon="3.14178">
        <ele>484.8</ele>
        <time>2024-04-14T09:56:37Z</time>
      </trkpt>
      <trkpt lat="46.04279" lon="3.14172">
        <ele>484.8</ele>
        <time>2024-04-14T09:56:38Z</time>
      </trkpt>
      <trkpt lat="46.04276" lon="3.14167">
        <ele>484.8</ele>
        <time>2024-04-14T09:56:39Z</time>
      </trkpt>
      <trkpt lat="46.04272" lon="3.14161">
        <ele>485</ele>
        <time>2024-04-14T09:56:40Z</time>
      </trkpt>
      <trkpt lat="46.04268" lon="3.14156">
        <ele>485.2</ele>
        <time>2024-04-14T09:56:41Z</time>
      </trkpt>
      <trkpt lat="46.04265" lon="3.1415">
        <ele>485.2</ele>
        <time>2024-04-14T09:56:42Z</time>
      </trkpt>
      <trkpt lat="46.04261" lon="3.14145">
        <ele>485.2</ele>
        <time>2024-04-14T09:56:43Z</time>
      </trkpt>
      <trkpt lat="46.04258" lon="3.14139">
        <ele>485.4</ele>
        <time>2024-04-14T09:56:44Z</time>
      </trkpt>
      <trkpt lat="46.04254" lon="3.14134">
        <ele>485.4</ele>
        <time>2024-04-14T09:56:45Z</time>
      </trkpt>
      <trkpt lat="46.0425" lon="3.14128">
        <ele>485.6</ele>
        <time>2024-04-14T09:56:46Z</time>
      </trkpt>
      <trkpt lat="46.04247" lon="3.14122">
        <ele>485.6</ele>
        <time>2024-04-14T09:56:47Z</time>
      </trkpt>
      <trkpt lat="46.04243" lon="3.14117">
        <ele>485.6</ele>
        <time>2024-04-14T09:56:48Z</time>
      </trkpt>
      <trkpt lat="46.0424" lon="3.14111">
        <ele>485.8</ele>
        <time>2024-04-14T09:56:49Z</time>
      </trkpt>
      <trkpt lat="46.04236" lon="3.14106">
        <ele>485.8</ele>
        <time>2024-04-14T09:56:50Z</time>
      </trkpt>
      <trkpt lat="46.04232" lon="3.141">
        <ele>486</ele>
        <time>2024-04-14T09:56:51Z</time>
      </trkpt>
      <trkpt lat="46.04229" lon="3.14095">
        <ele>486</ele>
        <time>2024-04-14T09:56:52Z</time>
      </trkpt>
      <trkpt lat="46.04225" lon="3.14089">
        <ele>486.2</ele>
        <time>2024-04-14T09:56:53Z</time>
      </trkpt>
      <trkpt lat="46.04222" lon="3.14084">
        <ele>486.2</ele>
        <time>2024-04-14T09:56:54Z</time>
      </trkpt>
      <trkpt lat="46.04218" lon="3.14078">
        <ele>486.2</ele>
        <time>2024-04-14T09:56:55Z</time>
      </trkpt>
      <trkpt lat="46.04214" lon="3.14073">
        <ele>486.4</ele>
        <time>2024-04-14T09:56:56Z</time>
      </trkpt>
      <trkpt lat="46.04211" lon="3.14067">
        <ele>486.4</ele>
        <time>2024-04-14T09:56:57Z</time>
      </trkpt>
      <trkpt lat="46.04207" lon="3.14061">
        <ele>486.6</ele>
        <time>2024-04-14T09:56:58Z</time>
      </trkpt>
      <trkpt lat="46.04203" lon="3.14055">
        <ele>486.6</ele>
        <time>2024-04-14T09:56:59Z</time>
      </trkpt>
      <trkpt lat="46.04199" lon="3.1405">
        <ele>486.8</ele>
        <time>2024-04-14T09:57:00Z</time>
      </trkpt>
      <trkpt lat="46.04196" lon="3.14044">
        <ele>486.8</ele>
        <time>2024-04-14T09:57:01Z</time>
      </trkpt>
      <trkpt lat="46.04192" lon="3.14038">
        <ele>486.8</ele>
        <time>2024-04-14T09:57:02Z</time>
      </trkpt>
      <trkpt lat="46.04187" lon="3.14033">
        <ele>487</ele>
        <time>2024-04-14T09:57:03Z</time>
      </trkpt>
      <trkpt lat="46.04182" lon="3.14029">
        <ele>487</ele>
        <time>2024-04-14T09:57:04Z</time>
      </trkpt>
      <trkpt lat="46.04177" lon="3.14025">
        <ele>487.2</ele>
        <time>2024-04-14T09:57:05Z</time>
      </trkpt>
      <trkpt lat="46.04172" lon="3.14021">
        <ele>487.2</ele>
        <time>2024-04-14T09:57:06Z</time>
      </trkpt>
      <trkpt lat="46.04167" lon="3.14017">
        <ele>487.2</ele>
        <time>2024-04-14T09:57:07Z</time>
      </trkpt>
      <trkpt lat="46.04161" lon="3.14013">
        <ele>487.4</ele>
        <time>2024-04-14T09:57:08Z</time>
      </trkpt>
      <trkpt lat="46.04156" lon="3.14009">
        <ele>487.4</ele>
        <time>2024-04-14T09:57:09Z</time>
      </trkpt>
      <trkpt lat="46.04151" lon="3.14005">
        <ele>487.6</ele>
        <time>2024-04-14T09:57:10Z</time>
      </trkpt>
      <trkpt lat="46.04146" lon="3.14001">
        <ele>487.6</ele>
        <time>2024-04-14T09:57:11Z</time>
      </trkpt>
      <trkpt lat="46.0414" lon="3.13997">
        <ele>487.8</ele>
        <time>2024-04-14T09:57:12Z</time>
      </trkpt>
      <trkpt lat="46.04135" lon="3.13993">
        <ele>487.8</ele>
        <time>2024-04-14T09:57:13Z</time>
      </trkpt>
      <trkpt lat="46.04129" lon="3.13989">
        <ele>487.8</ele>
        <time>2024-04-14T09:57:14Z</time>
      </trkpt>
      <trkpt lat="46.04124" lon="3.13985">
        <ele>488</ele>
        <time>2024-04-14T09:57:15Z</time>
      </trkpt>
      <trkpt lat="46.04119" lon="3.13981">
        <ele>488</ele>
        <time>2024-04-14T09:57:16Z</time>
      </trkpt>
      <trkpt lat="46.04115" lon="3.13976">
        <ele>488</ele>
        <time>2024-04-14T09:57:17Z</time>
      </trkpt>
      <trkpt lat="46.04111" lon="3.1397">
        <ele>488</ele>
        <time>2024-04-14T09:57:18Z</time>
      </trkpt>
      <trkpt lat="46.04107" lon="3.13964">
        <ele>488</ele>
        <time>2024-04-14T09:57:19Z</time>
      </trkpt>
      <trkpt lat="46.04103" lon="3.13958">
        <ele>488.2</ele>
        <time>2024-04-14T09:57:20Z</time>
      </trkpt>
      <trkpt lat="46.04099" lon="3.13953">
        <ele>488.2</ele>
        <time>2024-04-14T09:57:21Z</time>
      </trkpt>
      <trkpt lat="46.04095" lon="3.13947">
        <ele>488.2</ele>
        <time>2024-04-14T09:57:22Z</time>
      </trkpt>
      <trkpt lat="46.04093" lon="3.1394">
        <ele>488.4</ele>
        <time>2024-04-14T09:57:23Z</time>
      </trkpt>
      <trkpt lat="46.0409" lon="3.13933">
        <ele>488.4</ele>
        <time>2024-04-14T09:57:24Z</time>
      </trkpt>
      <trkpt lat="46.04088" lon="3.13925">
        <ele>488.4</ele>
        <time>2024-04-14T09:57:25Z</time>
      </trkpt>
      <trkpt lat="46.04086" lon="3.13917">
        <ele>488.6</ele>
        <time>2024-04-14T09:57:26Z</time>
      </trkpt>
      <trkpt lat="46.04085" lon="3.1391">
        <ele>488.6</ele>
        <time>2024-04-14T09:57:27Z</time>
      </trkpt>
      <trkpt lat="46.04084" lon="3.13902">
        <ele>488.8</ele>
        <time>2024-04-14T09:57:28Z</time>
      </trkpt>
      <trkpt lat="46.04083" lon="3.13894">
        <ele>488.8</ele>
        <time>2024-04-14T09:57:29Z</time>
      </trkpt>
      <trkpt lat="46.04082" lon="3.13886">
        <ele>489</ele>
        <time>2024-04-14T09:57:30Z</time>
      </trkpt>
      <trkpt lat="46.04081" lon="3.13878">
        <ele>489</ele>
        <time>2024-04-14T09:57:31Z</time>
      </trkpt>
      <trkpt lat="46.0408" lon="3.1387">
        <ele>489.2</ele>
        <time>2024-04-14T09:57:32Z</time>
      </trkpt>
      <trkpt lat="46.04079" lon="3.13862">
        <ele>489.2</ele>
        <time>2024-04-14T09:57:33Z</time>
      </trkpt>
      <trkpt lat="46.04078" lon="3.13854">
        <ele>489.4</ele>
        <time>2024-04-14T09:57:34Z</time>
      </trkpt>
      <trkpt lat="46.04077" lon="3.13846">
        <ele>489.4</ele>
        <time>2024-04-14T09:57:35Z</time>
      </trkpt>
      <trkpt lat="46.04076" lon="3.13838">
        <ele>489.6</ele>
        <time>2024-04-14T09:57:36Z</time>
      </trkpt>
      <trkpt lat="46.04073" lon="3.13831">
        <ele>489.6</ele>
        <time>2024-04-14T09:57:37Z</time>
      </trkpt>
      <trkpt lat="46.04071" lon="3.13824">
        <ele>489.8</ele>
        <time>2024-04-14T09:57:38Z</time>
      </trkpt>
      <trkpt lat="46.04069" lon="3.13817">
        <ele>489.8</ele>
        <time>2024-04-14T09:57:39Z</time>
      </trkpt>
      <trkpt lat="46.04067" lon="3.13809">
        <ele>490</ele>
        <time>2024-04-14T09:57:40Z</time>
      </trkpt>
      <trkpt lat="46.04064" lon="3.13802">
        <ele>490</ele>
        <time>2024-04-14T09:57:41Z</time>
      </trkpt>
      <trkpt lat="46.04062" lon="3.13795">
        <ele>490</ele>
        <time>2024-04-14T09:57:42Z</time>
      </trkpt>
      <trkpt lat="46.0406" lon="3.13788">
        <ele>490.2</ele>
        <time>2024-04-14T09:57:43Z</time>
      </trkpt>
      <trkpt lat="46.04058" lon="3.1378">
        <ele>490.2</ele>
        <time>2024-04-14T09:57:44Z</time>
      </trkpt>
      <trkpt lat="46.04056" lon="3.13774">
        <ele>490.4</ele>
        <time>2024-04-14T09:57:45Z</time>
      </trkpt>
      <trkpt lat="46.04054" lon="3.13767">
        <ele>490.4</ele>
        <time>2024-04-14T09:57:46Z</time>
      </trkpt>
      <trkpt lat="46.04052" lon="3.1376">
        <ele>490.4</ele>
        <time>2024-04-14T09:57:47Z</time>
      </trkpt>
      <trkpt lat="46.0405" lon="3.13754">
        <ele>490.6</ele>
        <time>2024-04-14T09:57:48Z</time>
      </trkpt>
      <trkpt lat="46.0405" lon="3.13748">
        <ele>490.6</ele>
        <time>2024-04-14T09:57:49Z</time>
      </trkpt>
      <trkpt lat="46.0405" lon="3.13742">
        <ele>490.8</ele>
        <time>2024-04-14T09:57:50Z</time>
      </trkpt>
      <trkpt lat="46.04049" lon="3.13737">
        <ele>490.8</ele>
        <time>2024-04-14T09:57:51Z</time>
      </trkpt>
      <trkpt lat="46.04049" lon="3.13734">
        <ele>491</ele>
        <time>2024-04-14T09:57:52Z</time>
      </trkpt>
      <trkpt lat="46.0404" lon="3.13736">
        <ele>491</ele>
        <time>2024-04-14T09:57:53Z</time>
      </trkpt>
      <trkpt lat="46.04038" lon="3.13741">
        <ele>491.2</ele>
        <time>2024-04-14T09:57:54Z</time>
      </trkpt>
      <trkpt lat="46.04035" lon="3.13747">
        <ele>491.2</ele>
        <time>2024-04-14T09:57:55Z</time>
      </trkpt>
      <trkpt lat="46.04033" lon="3.13754">
        <ele>491.2</ele>
        <time>2024-04-14T09:57:56Z</time>
      </trkpt>
      <trkpt lat="46.0403" lon="3.13761">
        <ele>491.2</ele>
        <time>2024-04-14T09:57:57Z</time>
      </trkpt>
      <trkpt lat="46.04026" lon="3.13768">
        <ele>491.2</ele>
        <time>2024-04-14T09:57:58Z</time>
      </trkpt>
      <trkpt lat="46.04023" lon="3.13775">
        <ele>491.2</ele>
        <time>2024-04-14T09:57:59Z</time>
      </trkpt>
      <trkpt lat="46.0402" lon="3.13782">
        <ele>491.4</ele>
        <time>2024-04-14T09:58:00Z</time>
      </trkpt>
      <trkpt lat="46.04018" lon="3.1379">
        <ele>491.4</ele>
        <time>2024-04-14T09:58:01Z</time>
      </trkpt>
      <trkpt lat="46.04015" lon="3.13798">
        <ele>491.4</ele>
        <time>2024-04-14T09:58:02Z</time>
      </trkpt>
      <trkpt lat="46.04013" lon="3.13807">
        <ele>491.4</ele>
        <time>2024-04-14T09:58:03Z</time>
      </trkpt>
      <trkpt lat="46.0401" lon="3.13816">
        <ele>491.4</ele>
        <time>2024-04-14T09:58:04Z</time>
      </trkpt>
      <trkpt lat="46.04007" lon="3.13825">
        <ele>491.6</ele>
        <time>2024-04-14T09:58:05Z</time>
      </trkpt>
      <trkpt lat="46.04004" lon="3.13834">
        <ele>491.6</ele>
        <time>2024-04-14T09:58:06Z</time>
      </trkpt>
      <trkpt lat="46.04001" lon="3.13843">
        <ele>491.6</ele>
        <time>2024-04-14T09:58:07Z</time>
      </trkpt>
      <trkpt lat="46.03998" lon="3.13852">
        <ele>491.8</ele>
        <time>2024-04-14T09:58:08Z</time>
      </trkpt>
      <trkpt lat="46.03996" lon="3.13861">
        <ele>491.8</ele>
        <time>2024-04-14T09:58:09Z</time>
      </trkpt>
      <trkpt lat="46.03993" lon="3.13871">
        <ele>491.8</ele>
        <time>2024-04-14T09:58:10Z</time>
      </trkpt>
      <trkpt lat="46.0399" lon="3.1388">
        <ele>491.8</ele>
        <time>2024-04-14T09:58:11Z</time>
      </trkpt>
      <trkpt lat="46.03987" lon="3.1389">
        <ele>491.8</ele>
        <time>2024-04-14T09:58:12Z</time>
      </trkpt>
      <trkpt lat="46.03984" lon="3.139">
        <ele>491.8</ele>
        <time>2024-04-14T09:58:13Z</time>
      </trkpt>
      <trkpt lat="46.03981" lon="3.13909">
        <ele>491.8</ele>
        <time>2024-04-14T09:58:14Z</time>
      </trkpt>
      <trkpt lat="46.03977" lon="3.13918">
        <ele>491.8</ele>
        <time>2024-04-14T09:58:15Z</time>
      </trkpt>
      <trkpt lat="46.03973" lon="3.13928">
        <ele>491.8</ele>
        <time>2024-04-14T09:58:16Z</time>
      </trkpt>
      <trkpt lat="46.03969" lon="3.13937">
        <ele>492</ele>
        <time>2024-04-14T09:58:17Z</time>
      </trkpt>
      <trkpt lat="46.03964" lon="3.13946">
        <ele>491.8</ele>
        <time>2024-04-14T09:58:18Z</time>
      </trkpt>
      <trkpt lat="46.0396" lon="3.13956">
        <ele>492</ele>
        <time>2024-04-14T09:58:19Z</time>
      </trkpt>
      <trkpt lat="46.03956" lon="3.13966">
        <ele>492</ele>
        <time>2024-04-14T09:58:20Z</time>
      </trkpt>
      <trkpt lat="46.03951" lon="3.13975">
        <ele>492</ele>
        <time>2024-04-14T09:58:21Z</time>
      </trkpt>
      <trkpt lat="46.03947" lon="3.13984">
        <ele>491.8</ele>
        <time>2024-04-14T09:58:22Z</time>
      </trkpt>
      <trkpt lat="46.03943" lon="3.13994">
        <ele>492</ele>
        <time>2024-04-14T09:58:23Z</time>
      </trkpt>
      <trkpt lat="46.03938" lon="3.14003">
        <ele>492</ele>
        <time>2024-04-14T09:58:24Z</time>
      </trkpt>
      <trkpt lat="46.03934" lon="3.14013">
        <ele>492</ele>
        <time>2024-04-14T09:58:25Z</time>
      </trkpt>
      <trkpt lat="46.03929" lon="3.14023">
        <ele>492</ele>
        <time>2024-04-14T09:58:26Z</time>
      </trkpt>
      <trkpt lat="46.03925" lon="3.14032">
        <ele>492</ele>
        <time>2024-04-14T09:58:27Z</time>
      </trkpt>
      <trkpt lat="46.03922" lon="3.14043">
        <ele>492</ele>
        <time>2024-04-14T09:58:28Z</time>
      </trkpt>
      <trkpt lat="46.0392" lon="3.14054">
        <ele>492</ele>
        <time>2024-04-14T09:58:29Z</time>
      </trkpt>
      <trkpt lat="46.03917" lon="3.14066">
        <ele>492</ele>
        <time>2024-04-14T09:58:30Z</time>
      </trkpt>
      <trkpt lat="46.03915" lon="3.14077">
        <ele>492</ele>
        <time>2024-04-14T09:58:31Z</time>
      </trkpt>
      <trkpt lat="46.03913" lon="3.14088">
        <ele>492</ele>
        <time>2024-04-14T09:58:32Z</time>
      </trkpt>
      <trkpt lat="46.0391" lon="3.14099">
        <ele>492</ele>
        <time>2024-04-14T09:58:33Z</time>
      </trkpt>
      <trkpt lat="46.03908" lon="3.14111">
        <ele>492</ele>
        <time>2024-04-14T09:58:34Z</time>
      </trkpt>
      <trkpt lat="46.03905" lon="3.14122">
        <ele>492</ele>
        <time>2024-04-14T09:58:35Z</time>
      </trkpt>
      <trkpt lat="46.03902" lon="3.14133">
        <ele>492</ele>
        <time>2024-04-14T09:58:36Z</time>
      </trkpt>
      <trkpt lat="46.03899" lon="3.14144">
        <ele>492</ele>
        <time>2024-04-14T09:58:37Z</time>
      </trkpt>
      <trkpt lat="46.03896" lon="3.14155">
        <ele>492</ele>
        <time>2024-04-14T09:58:38Z</time>
      </trkpt>
      <trkpt lat="46.03892" lon="3.14166">
        <ele>492</ele>
        <time>2024-04-14T09:58:39Z</time>
      </trkpt>
      <trkpt lat="46.03889" lon="3.14177">
        <ele>491.8</ele>
        <time>2024-04-14T09:58:40Z</time>
      </trkpt>
      <trkpt lat="46.03886" lon="3.14188">
        <ele>491.8</ele>
        <time>2024-04-14T09:58:41Z</time>
      </trkpt>
      <trkpt lat="46.03883" lon="3.14199">
        <ele>491.8</ele>
        <time>2024-04-14T09:58:42Z</time>
      </trkpt>
      <trkpt lat="46.0388" lon="3.1421">
        <ele>491.8</ele>
        <time>2024-04-14T09:58:43Z</time>
      </trkpt>
      <trkpt lat="46.03877" lon="3.14221">
        <ele>491.8</ele>
        <time>2024-04-14T09:58:44Z</time>
      </trkpt>
      <trkpt lat="46.03874" lon="3.14232">
        <ele>491.8</ele>
        <time>2024-04-14T09:58:45Z</time>
      </trkpt>
      <trkpt lat="46.03871" lon="3.14243">
        <ele>491.8</ele>
        <time>2024-04-14T09:58:46Z</time>
      </trkpt>
      <trkpt lat="46.03868" lon="3.14254">
        <ele>491.8</ele>
        <time>2024-04-14T09:58:47Z</time>
      </trkpt>
      <trkpt lat="46.03865" lon="3.14264">
        <ele>491.8</ele>
        <time>2024-04-14T09:58:48Z</time>
      </trkpt>
      <trkpt lat="46.0386" lon="3.14274">
        <ele>491.8</ele>
        <time>2024-04-14T09:58:49Z</time>
      </trkpt>
      <trkpt lat="46.03856" lon="3.14284">
        <ele>491.8</ele>
        <time>2024-04-14T09:58:50Z</time>
      </trkpt>
      <trkpt lat="46.03852" lon="3.14294">
        <ele>491.6</ele>
        <time>2024-04-14T09:58:51Z</time>
      </trkpt>
      <trkpt lat="46.03847" lon="3.14304">
        <ele>491.6</ele>
        <time>2024-04-14T09:58:52Z</time>
      </trkpt>
      <trkpt lat="46.03843" lon="3.14314">
        <ele>491.6</ele>
        <time>2024-04-14T09:58:53Z</time>
      </trkpt>
      <trkpt lat="46.03838" lon="3.14324">
        <ele>491.8</ele>
        <time>2024-04-14T09:58:54Z</time>
      </trkpt>
      <trkpt lat="46.03834" lon="3.14333">
        <ele>491.6</ele>
        <time>2024-04-14T09:58:55Z</time>
      </trkpt>
      <trkpt lat="46.03828" lon="3.14343">
        <ele>491.6</ele>
        <time>2024-04-14T09:58:56Z</time>
      </trkpt>
      <trkpt lat="46.03823" lon="3.14352">
        <ele>491.6</ele>
        <time>2024-04-14T09:58:57Z</time>
      </trkpt>
      <trkpt lat="46.03818" lon="3.14361">
        <ele>491.6</ele>
        <time>2024-04-14T09:58:58Z</time>
      </trkpt>
      <trkpt lat="46.03814" lon="3.1437">
        <ele>491.6</ele>
        <time>2024-04-14T09:58:59Z</time>
      </trkpt>
      <trkpt lat="46.03809" lon="3.14378">
        <ele>491.6</ele>
        <time>2024-04-14T09:59:00Z</time>
      </trkpt>
      <trkpt lat="46.03804" lon="3.14387">
        <ele>491.6</ele>
        <time>2024-04-14T09:59:01Z</time>
      </trkpt>
      <trkpt lat="46.038" lon="3.14395">
        <ele>491.6</ele>
        <time>2024-04-14T09:59:02Z</time>
      </trkpt>
      <trkpt lat="46.03797" lon="3.14405">
        <ele>491.6</ele>
        <time>2024-04-14T09:59:03Z</time>
      </trkpt>
      <trkpt lat="46.03794" lon="3.14415">
        <ele>491.6</ele>
        <time>2024-04-14T09:59:04Z</time>
      </trkpt>
      <trkpt lat="46.03791" lon="3.14425">
        <ele>491.6</ele>
        <time>2024-04-14T09:59:05Z</time>
      </trkpt>
      <trkpt lat="46.03788" lon="3.14435">
        <ele>491.6</ele>
        <time>2024-04-14T09:59:06Z</time>
      </trkpt>
      <trkpt lat="46.03785" lon="3.14445">
        <ele>491.6</ele>
        <time>2024-04-14T09:59:07Z</time>
      </trkpt>
      <trkpt lat="46.03782" lon="3.14455">
        <ele>491.6</ele>
        <time>2024-04-14T09:59:08Z</time>
      </trkpt>
      <trkpt lat="46.03779" lon="3.14464">
        <ele>491.4</ele>
        <time>2024-04-14T09:59:09Z</time>
      </trkpt>
      <trkpt lat="46.03776" lon="3.14474">
        <ele>491.4</ele>
        <time>2024-04-14T09:59:10Z</time>
      </trkpt>
      <trkpt lat="46.03773" lon="3.14484">
        <ele>491.4</ele>
        <time>2024-04-14T09:59:11Z</time>
      </trkpt>
      <trkpt lat="46.0377" lon="3.14494">
        <ele>491.4</ele>
        <time>2024-04-14T09:59:12Z</time>
      </trkpt>
      <trkpt lat="46.03767" lon="3.14505">
        <ele>491.4</ele>
        <time>2024-04-14T09:59:13Z</time>
      </trkpt>
      <trkpt lat="46.03764" lon="3.14515">
        <ele>491.4</ele>
        <time>2024-04-14T09:59:14Z</time>
      </trkpt>
      <trkpt lat="46.03761" lon="3.14526">
        <ele>491.4</ele>
        <time>2024-04-14T09:59:15Z</time>
      </trkpt>
      <trkpt lat="46.03758" lon="3.14537">
        <ele>491.4</ele>
        <time>2024-04-14T09:59:16Z</time>
      </trkpt>
      <trkpt lat="46.03755" lon="3.14548">
        <ele>491.4</ele>
        <time>2024-04-14T09:59:17Z</time>
      </trkpt>
      <trkpt lat="46.03751" lon="3.14559">
        <ele>491.2</ele>
        <time>2024-04-14T09:59:18Z</time>
      </trkpt>
      <trkpt lat="46.03748" lon="3.1457">
        <ele>491.2</ele>
        <time>2024-04-14T09:59:19Z</time>
      </trkpt>
      <trkpt lat="46.03745" lon="3.14582">
        <ele>491.2</ele>
        <time>2024-04-14T09:59:20Z</time>
      </trkpt>
      <trkpt lat="46.03741" lon="3.14594">
        <ele>491</ele>
        <time>2024-04-14T09:59:21Z</time>
      </trkpt>
      <trkpt lat="46.03739" lon="3.14606">
        <ele>491</ele>
        <time>2024-04-14T09:59:22Z</time>
      </trkpt>
      <trkpt lat="46.03737" lon="3.14619">
        <ele>490.8</ele>
        <time>2024-04-14T09:59:23Z</time>
      </trkpt>
      <trkpt lat="46.03734" lon="3.14631">
        <ele>490.8</ele>
        <time>2024-04-14T09:59:24Z</time>
      </trkpt>
      <trkpt lat="46.03732" lon="3.14644">
        <ele>490.8</ele>
        <time>2024-04-14T09:59:25Z</time>
      </trkpt>
      <trkpt lat="46.03729" lon="3.14657">
        <ele>490.6</ele>
        <time>2024-04-14T09:59:26Z</time>
      </trkpt>
      <trkpt lat="46.03727" lon="3.14669">
        <ele>490.4</ele>
        <time>2024-04-14T09:59:27Z</time>
      </trkpt>
      <trkpt lat="46.03724" lon="3.14682">
        <ele>490.4</ele>
        <time>2024-04-14T09:59:28Z</time>
      </trkpt>
      <trkpt lat="46.03722" lon="3.14695">
        <ele>490.4</ele>
        <time>2024-04-14T09:59:29Z</time>
      </trkpt>
      <trkpt lat="46.0372" lon="3.14707">
        <ele>490.2</ele>
        <time>2024-04-14T09:59:30Z</time>
      </trkpt>
      <trkpt lat="46.03717" lon="3.1472">
        <ele>490.2</ele>
        <time>2024-04-14T09:59:31Z</time>
      </trkpt>
      <trkpt lat="46.03715" lon="3.14733">
        <ele>490</ele>
        <time>2024-04-14T09:59:32Z</time>
      </trkpt>
      <trkpt lat="46.03712" lon="3.14746">
        <ele>490</ele>
        <time>2024-04-14T09:59:33Z</time>
      </trkpt>
      <trkpt lat="46.0371" lon="3.14758">
        <ele>490</ele>
        <time>2024-04-14T09:59:34Z</time>
      </trkpt>
      <trkpt lat="46.03707" lon="3.14771">
        <ele>489.8</ele>
        <time>2024-04-14T09:59:35Z</time>
      </trkpt>
      <trkpt lat="46.03705" lon="3.14783">
        <ele>489.8</ele>
        <time>2024-04-14T09:59:36Z</time>
      </trkpt>
      <trkpt lat="46.03703" lon="3.14796">
        <ele>489.6</ele>
        <time>2024-04-14T09:59:37Z</time>
      </trkpt>
      <trkpt lat="46.037" lon="3.14809">
        <ele>489.6</ele>
        <time>2024-04-14T09:59:38Z</time>
      </trkpt>
      <trkpt lat="46.03698" lon="3.14822">
        <ele>489.4</ele>
        <time>2024-04-14T09:59:39Z</time>
      </trkpt>
      <trkpt lat="46.03695" lon="3.14834">
        <ele>489.4</ele>
        <time>2024-04-14T09:59:40Z</time>
      </trkpt>
      <trkpt lat="46.03694" lon="3.14847">
        <ele>489.4</ele>
        <time>2024-04-14T09:59:41Z</time>
      </trkpt>
      <trkpt lat="46.03693" lon="3.1486">
        <ele>489.2</ele>
        <time>2024-04-14T09:59:42Z</time>
      </trkpt>
      <trkpt lat="46.03692" lon="3.14873">
        <ele>489.2</ele>
        <time>2024-04-14T09:59:43Z</time>
      </trkpt>
      <trkpt lat="46.03691" lon="3.14886">
        <ele>489</ele>
        <time>2024-04-14T09:59:44Z</time>
      </trkpt>
      <trkpt lat="46.0369" lon="3.14898">
        <ele>489</ele>
        <time>2024-04-14T09:59:45Z</time>
      </trkpt>
      <trkpt lat="46.03689" lon="3.14911">
        <ele>488.8</ele>
        <time>2024-04-14T09:59:46Z</time>
      </trkpt>
      <trkpt lat="46.03689" lon="3.14924">
        <ele>488.8</ele>
        <time>2024-04-14T09:59:47Z</time>
      </trkpt>
      <trkpt lat="46.03688" lon="3.14937">
        <ele>488.6</ele>
        <time>2024-04-14T09:59:48Z</time>
      </trkpt>
      <trkpt lat="46.03687" lon="3.1495">
        <ele>488.6</ele>
        <time>2024-04-14T09:59:49Z</time>
      </trkpt>
      <trkpt lat="46.03686" lon="3.14962">
        <ele>488.6</ele>
        <time>2024-04-14T09:59:50Z</time>
      </trkpt>
      <trkpt lat="46.03685" lon="3.14975">
        <ele>488.4</ele>
        <time>2024-04-14T09:59:51Z</time>
      </trkpt>
      <trkpt lat="46.03685" lon="3.14988">
        <ele>488.4</ele>
        <time>2024-04-14T09:59:52Z</time>
      </trkpt>
      <trkpt lat="46.03685" lon="3.15001">
        <ele>488.2</ele>
        <time>2024-04-14T09:59:53Z</time>
      </trkpt>
      <trkpt lat="46.03685" lon="3.15014">
        <ele>488</ele>
        <time>2024-04-14T09:59:54Z</time>
      </trkpt>
      <trkpt lat="46.03684" lon="3.15027">
        <ele>488</ele>
        <time>2024-04-14T09:59:55Z</time>
      </trkpt>
      <trkpt lat="46.03684" lon="3.1504">
        <ele>487.8</ele>
        <time>2024-04-14T09:59:56Z</time>
      </trkpt>
      <trkpt lat="46.03684" lon="3.15052">
        <ele>487.6</ele>
        <time>2024-04-14T09:59:57Z</time>
      </trkpt>
      <trkpt lat="46.03682" lon="3.15065">
        <ele>487.6</ele>
        <time>2024-04-14T09:59:58Z</time>
      </trkpt>
      <trkpt lat="46.0368" lon="3.15078">
        <ele>487.4</ele>
        <time>2024-04-14T09:59:59Z</time>
      </trkpt>
      <trkpt lat="46.03678" lon="3.1509">
        <ele>487.2</ele>
        <time>2024-04-14T10:00:00Z</time>
      </trkpt>
      <trkpt lat="46.03677" lon="3.15103">
        <ele>487</ele>
        <time>2024-04-14T10:00:01Z</time>
      </trkpt>
      <trkpt lat="46.03675" lon="3.15115">
        <ele>487</ele>
        <time>2024-04-14T10:00:02Z</time>
      </trkpt>
      <trkpt lat="46.03673" lon="3.15128">
        <ele>486.8</ele>
        <time>2024-04-14T10:00:03Z</time>
      </trkpt>
      <trkpt lat="46.03671" lon="3.1514">
        <ele>486.8</ele>
        <time>2024-04-14T10:00:04Z</time>
      </trkpt>
      <trkpt lat="46.03669" lon="3.15152">
        <ele>486.8</ele>
        <time>2024-04-14T10:00:05Z</time>
      </trkpt>
      <trkpt lat="46.03667" lon="3.15164">
        <ele>486.6</ele>
        <time>2024-04-14T10:00:06Z</time>
      </trkpt>
      <trkpt lat="46.03666" lon="3.15177">
        <ele>486.6</ele>
        <time>2024-04-14T10:00:07Z</time>
      </trkpt>
      <trkpt lat="46.03664" lon="3.15189">
        <ele>486.4</ele>
        <time>2024-04-14T10:00:08Z</time>
      </trkpt>
      <trkpt lat="46.03662" lon="3.15201">
        <ele>486.4</ele>
        <time>2024-04-14T10:00:09Z</time>
      </trkpt>
      <trkpt lat="46.0366" lon="3.15212">
        <ele>486.2</ele>
        <time>2024-04-14T10:00:10Z</time>
      </trkpt>
      <trkpt lat="46.03659" lon="3.15224">
        <ele>486.2</ele>
        <time>2024-04-14T10:00:11Z</time>
      </trkpt>
      <trkpt lat="46.03657" lon="3.15235">
        <ele>486.2</ele>
        <time>2024-04-14T10:00:12Z</time>
      </trkpt>
      <trkpt lat="46.03655" lon="3.15247">
        <ele>486</ele>
        <time>2024-04-14T10:00:13Z</time>
      </trkpt>
      <trkpt lat="46.03653" lon="3.15258">
        <ele>486</ele>
        <time>2024-04-14T10:00:14Z</time>
      </trkpt>
      <trkpt lat="46.0365" lon="3.15269">
        <ele>486</ele>
        <time>2024-04-14T10:00:15Z</time>
      </trkpt>
      <trkpt lat="46.03647" lon="3.1528">
        <ele>485.8</ele>
        <time>2024-04-14T10:00:16Z</time>
      </trkpt>
      <trkpt lat="46.03644" lon="3.1529">
        <ele>485.8</ele>
        <time>2024-04-14T10:00:17Z</time>
      </trkpt>
      <trkpt lat="46.03641" lon="3.153">
        <ele>485.8</ele>
        <time>2024-04-14T10:00:18Z</time>
      </trkpt>
      <trkpt lat="46.03638" lon="3.1531">
        <ele>485.8</ele>
        <time>2024-04-14T10:00:19Z</time>
      </trkpt>
      <trkpt lat="46.03635" lon="3.15321">
        <ele>485.6</ele>
        <time>2024-04-14T10:00:20Z</time>
      </trkpt>
      <trkpt lat="46.03632" lon="3.1533">
        <ele>485.6</ele>
        <time>2024-04-14T10:00:21Z</time>
      </trkpt>
      <trkpt lat="46.03629" lon="3.1534">
        <ele>485.6</ele>
        <time>2024-04-14T10:00:22Z</time>
      </trkpt>
      <trkpt lat="46.03626" lon="3.1535">
        <ele>485.4</ele>
        <time>2024-04-14T10:00:23Z</time>
      </trkpt>
      <trkpt lat="46.03623" lon="3.1536">
        <ele>485.4</ele>
        <time>2024-04-14T10:00:24Z</time>
      </trkpt>
      <trkpt lat="46.0362" lon="3.15369">
        <ele>485.2</ele>
        <time>2024-04-14T10:00:25Z</time>
      </trkpt>
      <trkpt lat="46.03617" lon="3.15379">
        <ele>485.2</ele>
        <time>2024-04-14T10:00:26Z</time>
      </trkpt>
      <trkpt lat="46.03614" lon="3.15389">
        <ele>485.2</ele>
        <time>2024-04-14T10:00:27Z</time>
      </trkpt>
      <trkpt lat="46.03611" lon="3.15399">
        <ele>485</ele>
        <time>2024-04-14T10:00:28Z</time>
      </trkpt>
      <trkpt lat="46.03608" lon="3.15409">
        <ele>485</ele>
        <time>2024-04-14T10:00:29Z</time>
      </trkpt>
      <trkpt lat="46.03605" lon="3.15418">
        <ele>485</ele>
        <time>2024-04-14T10:00:30Z</time>
      </trkpt>
      <trkpt lat="46.03602" lon="3.15428">
        <ele>484.8</ele>
        <time>2024-04-14T10:00:31Z</time>
      </trkpt>
      <trkpt lat="46.03599" lon="3.15438">
        <ele>484.8</ele>
        <time>2024-04-14T10:00:32Z</time>
      </trkpt>
      <trkpt lat="46.03596" lon="3.15448">
        <ele>484.8</ele>
        <time>2024-04-14T10:00:33Z</time>
      </trkpt>
      <trkpt lat="46.03593" lon="3.15458">
        <ele>484.6</ele>
        <time>2024-04-14T10:00:34Z</time>
      </trkpt>
      <trkpt lat="46.0359" lon="3.15468">
        <ele>484.6</ele>
        <time>2024-04-14T10:00:35Z</time>
      </trkpt>
      <trkpt lat="46.03587" lon="3.15479">
        <ele>484.6</ele>
        <time>2024-04-14T10:00:36Z</time>
      </trkpt>
      <trkpt lat="46.03584" lon="3.15489">
        <ele>484.4</ele>
        <time>2024-04-14T10:00:37Z</time>
      </trkpt>
      <trkpt lat="46.0358" lon="3.15499">
        <ele>484.4</ele>
        <time>2024-04-14T10:00:38Z</time>
      </trkpt>
      <trkpt lat="46.03577" lon="3.1551">
        <ele>484.4</ele>
        <time>2024-04-14T10:00:39Z</time>
      </trkpt>
      <trkpt lat="46.03575" lon="3.1552">
        <ele>484.2</ele>
        <time>2024-04-14T10:00:40Z</time>
      </trkpt>
      <trkpt lat="46.03573" lon="3.15531">
        <ele>484.2</ele>
        <time>2024-04-14T10:00:41Z</time>
      </trkpt>
      <trkpt lat="46.03571" lon="3.15542">
        <ele>484.2</ele>
        <time>2024-04-14T10:00:42Z</time>
      </trkpt>
      <trkpt lat="46.03569" lon="3.15552">
        <ele>484</ele>
        <time>2024-04-14T10:00:43Z</time>
      </trkpt>
      <trkpt lat="46.03568" lon="3.15563">
        <ele>484</ele>
        <time>2024-04-14T10:00:44Z</time>
      </trkpt>
      <trkpt lat="46.03566" lon="3.15574">
        <ele>484</ele>
        <time>2024-04-14T10:00:45Z</time>
      </trkpt>
      <trkpt lat="46.03564" lon="3.15585">
        <ele>484</ele>
        <time>2024-04-14T10:00:46Z</time>
      </trkpt>
      <trkpt lat="46.03562" lon="3.15595">
        <ele>483.8</ele>
        <time>2024-04-14T10:00:47Z</time>
      </trkpt>
      <trkpt lat="46.0356" lon="3.15606">
        <ele>483.8</ele>
        <time>2024-04-14T10:00:48Z</time>
      </trkpt>
      <trkpt lat="46.03558" lon="3.15617">
        <ele>483.8</ele>
        <time>2024-04-14T10:00:49Z</time>
      </trkpt>
      <trkpt lat="46.03556" lon="3.15628">
        <ele>483.8</ele>
        <time>2024-04-14T10:00:50Z</time>
      </trkpt>
      <trkpt lat="46.03554" lon="3.15639">
        <ele>483.6</ele>
        <time>2024-04-14T10:00:51Z</time>
      </trkpt>
      <trkpt lat="46.03553" lon="3.1565">
        <ele>483.6</ele>
        <time>2024-04-14T10:00:52Z</time>
      </trkpt>
      <trkpt lat="46.03551" lon="3.15661">
        <ele>483.6</ele>
        <time>2024-04-14T10:00:53Z</time>
      </trkpt>
      <trkpt lat="46.03548" lon="3.15672">
        <ele>483.4</ele>
        <time>2024-04-14T10:00:54Z</time>
      </trkpt>
      <trkpt lat="46.03546" lon="3.15682">
        <ele>483.4</ele>
        <time>2024-04-14T10:00:55Z</time>
      </trkpt>
      <trkpt lat="46.03543" lon="3.15693">
        <ele>483.4</ele>
        <time>2024-04-14T10:00:56Z</time>
      </trkpt>
      <trkpt lat="46.03541" lon="3.15703">
        <ele>483.4</ele>
        <time>2024-04-14T10:00:57Z</time>
      </trkpt>
      <trkpt lat="46.03539" lon="3.15713">
        <ele>483.2</ele>
        <time>2024-04-14T10:00:58Z</time>
      </trkpt>
      <trkpt lat="46.03536" lon="3.15724">
        <ele>483.2</ele>
        <time>2024-04-14T10:00:59Z</time>
      </trkpt>
      <trkpt lat="46.03534" lon="3.15734">
        <ele>483.2</ele>
        <time>2024-04-14T10:01:00Z</time>
      </trkpt>
      <trkpt lat="46.03532" lon="3.15744">
        <ele>483</ele>
        <time>2024-04-14T10:01:01Z</time>
      </trkpt>
      <trkpt lat="46.03529" lon="3.15755">
        <ele>483</ele>
        <time>2024-04-14T10:01:02Z</time>
      </trkpt>
      <trkpt lat="46.03527" lon="3.15765">
        <ele>483</ele>
        <time>2024-04-14T10:01:03Z</time>
      </trkpt>
      <trkpt lat="46.03525" lon="3.15775">
        <ele>482.8</ele>
        <time>2024-04-14T10:01:04Z</time>
      </trkpt>
      <trkpt lat="46.03522" lon="3.15786">
        <ele>482.8</ele>
        <time>2024-04-14T10:01:05Z</time>
      </trkpt>
      <trkpt lat="46.0352" lon="3.15796">
        <ele>482.8</ele>
        <time>2024-04-14T10:01:06Z</time>
      </trkpt>
      <trkpt lat="46.03516" lon="3.15805">
        <ele>482.8</ele>
        <time>2024-04-14T10:01:07Z</time>
      </trkpt>
      <trkpt lat="46.03512" lon="3.15815">
        <ele>482.8</ele>
        <time>2024-04-14T10:01:08Z</time>
      </trkpt>
      <trkpt lat="46.03509" lon="3.15824">
        <ele>482.8</ele>
        <time>2024-04-14T10:01:09Z</time>
      </trkpt>
      <trkpt lat="46.03505" lon="3.15833">
        <ele>482.6</ele>
        <time>2024-04-14T10:01:10Z</time>
      </trkpt>
      <trkpt lat="46.03501" lon="3.15843">
        <ele>482.6</ele>
        <time>2024-04-14T10:01:11Z</time>
      </trkpt>
      <trkpt lat="46.03497" lon="3.15852">
        <ele>482.6</ele>
        <time>2024-04-14T10:01:12Z</time>
      </trkpt>
      <trkpt lat="46.03493" lon="3.15861">
        <ele>482.6</ele>
        <time>2024-04-14T10:01:13Z</time>
      </trkpt>
      <trkpt lat="46.03489" lon="3.15871">
        <ele>482.4</ele>
        <time>2024-04-14T10:01:14Z</time>
      </trkpt>
      <trkpt lat="46.03485" lon="3.15881">
        <ele>482.4</ele>
        <time>2024-04-14T10:01:15Z</time>
      </trkpt>
      <trkpt lat="46.03481" lon="3.1589">
        <ele>482.4</ele>
        <time>2024-04-14T10:01:16Z</time>
      </trkpt>
      <trkpt lat="46.03477" lon="3.159">
        <ele>482.4</ele>
        <time>2024-04-14T10:01:17Z</time>
      </trkpt>
      <trkpt lat="46.03474" lon="3.15909">
        <ele>482.4</ele>
        <time>2024-04-14T10:01:18Z</time>
      </trkpt>
      <trkpt lat="46.0347" lon="3.15919">
        <ele>482.2</ele>
        <time>2024-04-14T10:01:19Z</time>
      </trkpt>
      <trkpt lat="46.03466" lon="3.15929">
        <ele>482.2</ele>
        <time>2024-04-14T10:01:20Z</time>
      </trkpt>
      <trkpt lat="46.03462" lon="3.15938">
        <ele>482</ele>
        <time>2024-04-14T10:01:21Z</time>
      </trkpt>
      <trkpt lat="46.03458" lon="3.15948">
        <ele>482</ele>
        <time>2024-04-14T10:01:22Z</time>
      </trkpt>
      <trkpt lat="46.03455" lon="3.15957">
        <ele>482</ele>
        <time>2024-04-14T10:01:23Z</time>
      </trkpt>
      <trkpt lat="46.03453" lon="3.15968">
        <ele>481.8</ele>
        <time>2024-04-14T10:01:24Z</time>
      </trkpt>
      <trkpt lat="46.03452" lon="3.15978">
        <ele>481.8</ele>
        <time>2024-04-14T10:01:25Z</time>
      </trkpt>
      <trkpt lat="46.03453" lon="3.15989">
        <ele>481.8</ele>
        <time>2024-04-14T10:01:26Z</time>
      </trkpt>
      <trkpt lat="46.03453" lon="3.15999">
        <ele>481.8</ele>
        <time>2024-04-14T10:01:27Z</time>
      </trkpt>
      <trkpt lat="46.03454" lon="3.1601">
        <ele>481.8</ele>
        <time>2024-04-14T10:01:28Z</time>
      </trkpt>
      <trkpt lat="46.03455" lon="3.1602">
        <ele>481.8</ele>
        <time>2024-04-14T10:01:29Z</time>
      </trkpt>
      <trkpt lat="46.03456" lon="3.1603">
        <ele>481.8</ele>
        <time>2024-04-14T10:01:30Z</time>
      </trkpt>
      <trkpt lat="46.03456" lon="3.1604">
        <ele>481.8</ele>
        <time>2024-04-14T10:01:31Z</time>
      </trkpt>
      <trkpt lat="46.03457" lon="3.1605">
        <ele>481.8</ele>
        <time>2024-04-14T10:01:32Z</time>
      </trkpt>
      <trkpt lat="46.03458" lon="3.1606">
        <ele>481.8</ele>
        <time>2024-04-14T10:01:33Z</time>
      </trkpt>
      <trkpt lat="46.03458" lon="3.1607">
        <ele>481.8</ele>
        <time>2024-04-14T10:01:34Z</time>
      </trkpt>
      <trkpt lat="46.03459" lon="3.16079">
        <ele>481.8</ele>
        <time>2024-04-14T10:01:35Z</time>
      </trkpt>
      <trkpt lat="46.0346" lon="3.16089">
        <ele>481.8</ele>
        <time>2024-04-14T10:01:36Z</time>
      </trkpt>
      <trkpt lat="46.0346" lon="3.16098">
        <ele>482</ele>
        <time>2024-04-14T10:01:37Z</time>
      </trkpt>
      <trkpt lat="46.03461" lon="3.16107">
        <ele>482</ele>
        <time>2024-04-14T10:01:38Z</time>
      </trkpt>
      <trkpt lat="46.03461" lon="3.16115">
        <ele>482</ele>
        <time>2024-04-14T10:01:39Z</time>
      </trkpt>
      <trkpt lat="46.03461" lon="3.16124">
        <ele>482</ele>
        <time>2024-04-14T10:01:40Z</time>
      </trkpt>
      <trkpt lat="46.03461" lon="3.16132">
        <ele>481.4</ele>
        <time>2024-04-14T10:01:41Z</time>
      </trkpt>
      <trkpt lat="46.03461" lon="3.1614">
        <ele>481.6</ele>
        <time>2024-04-14T10:01:42Z</time>
      </trkpt>
      <trkpt lat="46.03461" lon="3.16148">
        <ele>481.8</ele>
        <time>2024-04-14T10:01:43Z</time>
      </trkpt>
      <trkpt lat="46.03462" lon="3.16156">
        <ele>482.2</ele>
        <time>2024-04-14T10:01:44Z</time>
      </trkpt>
      <trkpt lat="46.03462" lon="3.16164">
        <ele>482.2</ele>
        <time>2024-04-14T10:01:45Z</time>
      </trkpt>
      <trkpt lat="46.03462" lon="3.16171">
        <ele>482.6</ele>
        <time>2024-04-14T10:01:46Z</time>
      </trkpt>
      <trkpt lat="46.03462" lon="3.16179">
        <ele>482.2</ele>
        <time>2024-04-14T10:01:47Z</time>
      </trkpt>
      <trkpt lat="46.03462" lon="3.16186">
        <ele>482.2</ele>
        <time>2024-04-14T10:01:48Z</time>
      </trkpt>
      <trkpt lat="46.03462" lon="3.16194">
        <ele>482.2</ele>
        <time>2024-04-14T10:01:49Z</time>
      </trkpt>
      <trkpt lat="46.03462" lon="3.16201">
        <ele>482.4</ele>
        <time>2024-04-14T10:01:50Z</time>
      </trkpt>
      <trkpt lat="46.03462" lon="3.16209">
        <ele>482.4</ele>
        <time>2024-04-14T10:01:51Z</time>
      </trkpt>
      <trkpt lat="46.03462" lon="3.16216">
        <ele>482.4</ele>
        <time>2024-04-14T10:01:52Z</time>
      </trkpt>
      <trkpt lat="46.03462" lon="3.16223">
        <ele>482.6</ele>
        <time>2024-04-14T10:01:53Z</time>
      </trkpt>
      <trkpt lat="46.03462" lon="3.16231">
        <ele>482.6</ele>
        <time>2024-04-14T10:01:54Z</time>
      </trkpt>
      <trkpt lat="46.03462" lon="3.16238">
        <ele>482.6</ele>
        <time>2024-04-14T10:01:55Z</time>
      </trkpt>
      <trkpt lat="46.03461" lon="3.16245">
        <ele>482.8</ele>
        <time>2024-04-14T10:01:56Z</time>
      </trkpt>
      <trkpt lat="46.03461" lon="3.16252">
        <ele>482.8</ele>
        <time>2024-04-14T10:01:57Z</time>
      </trkpt>
      <trkpt lat="46.03461" lon="3.1626">
        <ele>482.8</ele>
        <time>2024-04-14T10:01:58Z</time>
      </trkpt>
      <trkpt lat="46.03461" lon="3.16268">
        <ele>482.8</ele>
        <time>2024-04-14T10:01:59Z</time>
      </trkpt>
      <trkpt lat="46.03461" lon="3.16275">
        <ele>483</ele>
        <time>2024-04-14T10:02:00Z</time>
      </trkpt>
      <trkpt lat="46.0346" lon="3.16283">
        <ele>483</ele>
        <time>2024-04-14T10:02:01Z</time>
      </trkpt>
      <trkpt lat="46.0346" lon="3.16291">
        <ele>483</ele>
        <time>2024-04-14T10:02:02Z</time>
      </trkpt>
      <trkpt lat="46.0346" lon="3.16299">
        <ele>483</ele>
        <time>2024-04-14T10:02:03Z</time>
      </trkpt>
      <trkpt lat="46.0346" lon="3.16308">
        <ele>483</ele>
        <time>2024-04-14T10:02:04Z</time>
      </trkpt>
      <trkpt lat="46.0346" lon="3.16318">
        <ele>483</ele>
        <time>2024-04-14T10:02:05Z</time>
      </trkpt>
      <trkpt lat="46.03459" lon="3.16328">
        <ele>483</ele>
        <time>2024-04-14T10:02:06Z</time>
      </trkpt>
      <trkpt lat="46.03459" lon="3.16339">
        <ele>483.2</ele>
        <time>2024-04-14T10:02:07Z</time>
      </trkpt>
      <trkpt lat="46.03459" lon="3.1635">
        <ele>483.2</ele>
        <time>2024-04-14T10:02:08Z</time>
      </trkpt>
      <trkpt lat="46.03458" lon="3.16361">
        <ele>483</ele>
        <time>2024-04-14T10:02:09Z</time>
      </trkpt>
      <trkpt lat="46.03458" lon="3.16372">
        <ele>483</ele>
        <time>2024-04-14T10:02:10Z</time>
      </trkpt>
      <trkpt lat="46.03458" lon="3.16384">
        <ele>483</ele>
        <time>2024-04-14T10:02:11Z</time>
      </trkpt>
      <trkpt lat="46.03457" lon="3.16396">
        <ele>483</ele>
        <time>2024-04-14T10:02:12Z</time>
      </trkpt>
      <trkpt lat="46.03457" lon="3.16408">
        <ele>482.8</ele>
        <time>2024-04-14T10:02:13Z</time>
      </trkpt>
      <trkpt lat="46.03456" lon="3.16421">
        <ele>483.4</ele>
        <time>2024-04-14T10:02:14Z</time>
      </trkpt>
      <trkpt lat="46.03456" lon="3.16433">
        <ele>482.4</ele>
        <time>2024-04-14T10:02:15Z</time>
      </trkpt>
      <trkpt lat="46.03455" lon="3.16446">
        <ele>482</ele>
        <time>2024-04-14T10:02:16Z</time>
      </trkpt>
      <trkpt lat="46.03455" lon="3.16458">
        <ele>482.4</ele>
        <time>2024-04-14T10:02:17Z</time>
      </trkpt>
      <trkpt lat="46.03454" lon="3.16469">
        <ele>482.2</ele>
        <time>2024-04-14T10:02:18Z</time>
      </trkpt>
      <trkpt lat="46.03452" lon="3.16481">
        <ele>482</ele>
        <time>2024-04-14T10:02:19Z</time>
      </trkpt>
      <trkpt lat="46.03447" lon="3.1649">
        <ele>481.8</ele>
        <time>2024-04-14T10:02:20Z</time>
      </trkpt>
      <trkpt lat="46.0344" lon="3.16497">
        <ele>481.6</ele>
        <time>2024-04-14T10:02:21Z</time>
      </trkpt>
      <trkpt lat="46.03432" lon="3.16503">
        <ele>481.4</ele>
        <time>2024-04-14T10:02:22Z</time>
      </trkpt>
      <trkpt lat="46.03423" lon="3.16508">
        <ele>481.2</ele>
        <time>2024-04-14T10:02:23Z</time>
      </trkpt>
      <trkpt lat="46.03414" lon="3.16512">
        <ele>481</ele>
        <time>2024-04-14T10:02:24Z</time>
      </trkpt>
      <trkpt lat="46.03405" lon="3.16517">
        <ele>481</ele>
        <time>2024-04-14T10:02:25Z</time>
      </trkpt>
      <trkpt lat="46.03396" lon="3.16522">
        <ele>480.8</ele>
        <time>2024-04-14T10:02:26Z</time>
      </trkpt>
      <trkpt lat="46.03386" lon="3.16527">
        <ele>480.8</ele>
        <time>2024-04-14T10:02:27Z</time>
      </trkpt>
      <trkpt lat="46.03377" lon="3.16532">
        <ele>480.6</ele>
        <time>2024-04-14T10:02:28Z</time>
      </trkpt>
      <trkpt lat="46.03367" lon="3.16536">
        <ele>480.4</ele>
        <time>2024-04-14T10:02:29Z</time>
      </trkpt>
      <trkpt lat="46.03357" lon="3.16539">
        <ele>480.2</ele>
        <time>2024-04-14T10:02:30Z</time>
      </trkpt>
      <trkpt lat="46.03347" lon="3.16539">
        <ele>480.2</ele>
        <time>2024-04-14T10:02:31Z</time>
      </trkpt>
      <trkpt lat="46.03337" lon="3.16538">
        <ele>480</ele>
        <time>2024-04-14T10:02:32Z</time>
      </trkpt>
      <trkpt lat="46.03327" lon="3.16538">
        <ele>479.8</ele>
        <time>2024-04-14T10:02:33Z</time>
      </trkpt>
      <trkpt lat="46.03317" lon="3.16538">
        <ele>479.6</ele>
        <time>2024-04-14T10:02:34Z</time>
      </trkpt>
      <trkpt lat="46.03307" lon="3.16537">
        <ele>479.4</ele>
        <time>2024-04-14T10:02:35Z</time>
      </trkpt>
      <trkpt lat="46.03297" lon="3.16537">
        <ele>479.2</ele>
        <time>2024-04-14T10:02:36Z</time>
      </trkpt>
      <trkpt lat="46.03288" lon="3.16538">
        <ele>479</ele>
        <time>2024-04-14T10:02:37Z</time>
      </trkpt>
      <trkpt lat="46.03278" lon="3.16541">
        <ele>478.8</ele>
        <time>2024-04-14T10:02:38Z</time>
      </trkpt>
      <trkpt lat="46.03268" lon="3.16543">
        <ele>478.6</ele>
        <time>2024-04-14T10:02:39Z</time>
      </trkpt>
      <trkpt lat="46.03257" lon="3.16545">
        <ele>478.4</ele>
        <time>2024-04-14T10:02:40Z</time>
      </trkpt>
      <trkpt lat="46.03247" lon="3.16545">
        <ele>478.2</ele>
        <time>2024-04-14T10:02:41Z</time>
      </trkpt>
      <trkpt lat="46.03236" lon="3.16545">
        <ele>478</ele>
        <time>2024-04-14T10:02:42Z</time>
      </trkpt>
      <trkpt lat="46.03225" lon="3.16545">
        <ele>477.8</ele>
        <time>2024-04-14T10:02:43Z</time>
      </trkpt>
      <trkpt lat="46.03214" lon="3.16545">
        <ele>477.6</ele>
        <time>2024-04-14T10:02:44Z</time>
      </trkpt>
      <trkpt lat="46.03203" lon="3.16544">
        <ele>477.4</ele>
        <time>2024-04-14T10:02:45Z</time>
      </trkpt>
      <trkpt lat="46.03191" lon="3.16544">
        <ele>477.2</ele>
        <time>2024-04-14T10:02:46Z</time>
      </trkpt>
      <trkpt lat="46.0318" lon="3.16544">
        <ele>477</ele>
        <time>2024-04-14T10:02:47Z</time>
      </trkpt>
      <trkpt lat="46.03169" lon="3.16546">
        <ele>476.6</ele>
        <time>2024-04-14T10:02:48Z</time>
      </trkpt>
      <trkpt lat="46.03158" lon="3.16547">
        <ele>476.4</ele>
        <time>2024-04-14T10:02:49Z</time>
      </trkpt>
      <trkpt lat="46.03148" lon="3.16551">
        <ele>476.2</ele>
        <time>2024-04-14T10:02:50Z</time>
      </trkpt>
      <trkpt lat="46.03138" lon="3.16556">
        <ele>476</ele>
        <time>2024-04-14T10:02:51Z</time>
      </trkpt>
      <trkpt lat="46.03128" lon="3.16561">
        <ele>475.8</ele>
        <time>2024-04-14T10:02:52Z</time>
      </trkpt>
      <trkpt lat="46.03118" lon="3.16566">
        <ele>475.8</ele>
        <time>2024-04-14T10:02:53Z</time>
      </trkpt>
      <trkpt lat="46.03109" lon="3.16571">
        <ele>475.6</ele>
        <time>2024-04-14T10:02:54Z</time>
      </trkpt>
      <trkpt lat="46.03102" lon="3.1658">
        <ele>475.6</ele>
        <time>2024-04-14T10:02:55Z</time>
      </trkpt>
      <trkpt lat="46.03094" lon="3.1659">
        <ele>475.4</ele>
        <time>2024-04-14T10:02:56Z</time>
      </trkpt>
      <trkpt lat="46.03087" lon="3.16599">
        <ele>475.4</ele>
        <time>2024-04-14T10:02:57Z</time>
      </trkpt>
      <trkpt lat="46.0308" lon="3.16609">
        <ele>475.4</ele>
        <time>2024-04-14T10:02:58Z</time>
      </trkpt>
      <trkpt lat="46.03073" lon="3.16619">
        <ele>475.2</ele>
        <time>2024-04-14T10:02:59Z</time>
      </trkpt>
      <trkpt lat="46.03066" lon="3.16629">
        <ele>474.8</ele>
        <time>2024-04-14T10:03:00Z</time>
      </trkpt>
      <trkpt lat="46.03058" lon="3.16639">
        <ele>474.8</ele>
        <time>2024-04-14T10:03:01Z</time>
      </trkpt>
      <trkpt lat="46.0305" lon="3.1665">
        <ele>474.4</ele>
        <time>2024-04-14T10:03:02Z</time>
      </trkpt>
      <trkpt lat="46.03042" lon="3.16661">
        <ele>474.2</ele>
        <time>2024-04-14T10:03:03Z</time>
      </trkpt>
      <trkpt lat="46.03034" lon="3.16672">
        <ele>474</ele>
        <time>2024-04-14T10:03:04Z</time>
      </trkpt>
      <trkpt lat="46.03025" lon="3.16684">
        <ele>473.8</ele>
        <time>2024-04-14T10:03:05Z</time>
      </trkpt>
      <trkpt lat="46.03017" lon="3.16695">
        <ele>473.4</ele>
        <time>2024-04-14T10:03:06Z</time>
      </trkpt>
      <trkpt lat="46.03008" lon="3.16707">
        <ele>473</ele>
        <time>2024-04-14T10:03:07Z</time>
      </trkpt>
      <trkpt lat="46.03" lon="3.1672">
        <ele>472.6</ele>
        <time>2024-04-14T10:03:08Z</time>
      </trkpt>
      <trkpt lat="46.02993" lon="3.16734">
        <ele>472.2</ele>
        <time>2024-04-14T10:03:09Z</time>
      </trkpt>
      <trkpt lat="46.02989" lon="3.1675">
        <ele>471.8</ele>
        <time>2024-04-14T10:03:10Z</time>
      </trkpt>
      <trkpt lat="46.02985" lon="3.16767">
        <ele>471.4</ele>
        <time>2024-04-14T10:03:11Z</time>
      </trkpt>
      <trkpt lat="46.02981" lon="3.16783">
        <ele>471.2</ele>
        <time>2024-04-14T10:03:12Z</time>
      </trkpt>
      <trkpt lat="46.02978" lon="3.168">
        <ele>470.8</ele>
        <time>2024-04-14T10:03:13Z</time>
      </trkpt>
      <trkpt lat="46.02975" lon="3.16817">
        <ele>470.4</ele>
        <time>2024-04-14T10:03:14Z</time>
      </trkpt>
      <trkpt lat="46.02972" lon="3.16834">
        <ele>470</ele>
        <time>2024-04-14T10:03:15Z</time>
      </trkpt>
      <trkpt lat="46.02969" lon="3.1685">
        <ele>469.6</ele>
        <time>2024-04-14T10:03:16Z</time>
      </trkpt>
      <trkpt lat="46.02966" lon="3.16868">
        <ele>469.2</ele>
        <time>2024-04-14T10:03:17Z</time>
      </trkpt>
      <trkpt lat="46.02963" lon="3.16885">
        <ele>468.8</ele>
        <time>2024-04-14T10:03:18Z</time>
      </trkpt>
      <trkpt lat="46.02957" lon="3.16901">
        <ele>468.4</ele>
        <time>2024-04-14T10:03:19Z</time>
      </trkpt>
      <trkpt lat="46.02952" lon="3.16917">
        <ele>468</ele>
        <time>2024-04-14T10:03:20Z</time>
      </trkpt>
      <trkpt lat="46.02947" lon="3.16934">
        <ele>467.6</ele>
        <time>2024-04-14T10:03:21Z</time>
      </trkpt>
      <trkpt lat="46.02942" lon="3.1695">
        <ele>467.2</ele>
        <time>2024-04-14T10:03:22Z</time>
      </trkpt>
      <trkpt lat="46.02936" lon="3.16967">
        <ele>466.6</ele>
        <time>2024-04-14T10:03:23Z</time>
      </trkpt>
      <trkpt lat="46.02931" lon="3.16983">
        <ele>466.2</ele>
        <time>2024-04-14T10:03:24Z</time>
      </trkpt>
      <trkpt lat="46.02926" lon="3.16999">
        <ele>465.8</ele>
        <time>2024-04-14T10:03:25Z</time>
      </trkpt>
      <trkpt lat="46.02925" lon="3.17016">
        <ele>465.4</ele>
        <time>2024-04-14T10:03:26Z</time>
      </trkpt>
      <trkpt lat="46.02923" lon="3.17034">
        <ele>465</ele>
        <time>2024-04-14T10:03:27Z</time>
      </trkpt>
      <trkpt lat="46.02922" lon="3.17051">
        <ele>464.6</ele>
        <time>2024-04-14T10:03:28Z</time>
      </trkpt>
      <trkpt lat="46.02921" lon="3.17069">
        <ele>464</ele>
        <time>2024-04-14T10:03:29Z</time>
      </trkpt>
      <trkpt lat="46.02919" lon="3.17086">
        <ele>463.6</ele>
        <time>2024-04-14T10:03:30Z</time>
      </trkpt>
      <trkpt lat="46.02918" lon="3.17104">
        <ele>463.2</ele>
        <time>2024-04-14T10:03:31Z</time>
      </trkpt>
      <trkpt lat="46.02916" lon="3.17121">
        <ele>462.6</ele>
        <time>2024-04-14T10:03:32Z</time>
      </trkpt>
      <trkpt lat="46.02912" lon="3.17139">
        <ele>462.2</ele>
        <time>2024-04-14T10:03:33Z</time>
      </trkpt>
      <trkpt lat="46.02909" lon="3.17156">
        <ele>461.6</ele>
        <time>2024-04-14T10:03:34Z</time>
      </trkpt>
      <trkpt lat="46.02903" lon="3.17172">
        <ele>461</ele>
        <time>2024-04-14T10:03:35Z</time>
      </trkpt>
      <trkpt lat="46.02897" lon="3.17188">
        <ele>460.6</ele>
        <time>2024-04-14T10:03:36Z</time>
      </trkpt>
      <trkpt lat="46.02892" lon="3.17205">
        <ele>460.2</ele>
        <time>2024-04-14T10:03:37Z</time>
      </trkpt>
      <trkpt lat="46.02886" lon="3.17221">
        <ele>459.6</ele>
        <time>2024-04-14T10:03:38Z</time>
      </trkpt>
      <trkpt lat="46.02881" lon="3.17238">
        <ele>459</ele>
        <time>2024-04-14T10:03:39Z</time>
      </trkpt>
      <trkpt lat="46.02875" lon="3.17254">
        <ele>458.6</ele>
        <time>2024-04-14T10:03:40Z</time>
      </trkpt>
      <trkpt lat="46.02869" lon="3.1727">
        <ele>458</ele>
        <time>2024-04-14T10:03:41Z</time>
      </trkpt>
      <trkpt lat="46.02864" lon="3.17286">
        <ele>457.4</ele>
        <time>2024-04-14T10:03:42Z</time>
      </trkpt>
      <trkpt lat="46.02858" lon="3.17302">
        <ele>457</ele>
        <time>2024-04-14T10:03:43Z</time>
      </trkpt>
      <trkpt lat="46.02853" lon="3.17319">
        <ele>456.4</ele>
        <time>2024-04-14T10:03:44Z</time>
      </trkpt>
      <trkpt lat="46.02847" lon="3.17335">
        <ele>455.8</ele>
        <time>2024-04-14T10:03:45Z</time>
      </trkpt>
      <trkpt lat="46.02847" lon="3.17335">
        <ele>455.2</ele>
        <time>2024-04-14T10:03:46Z</time>
      </trkpt>
      <trkpt lat="46.02842" lon="3.17351">
        <ele>454.6</ele>
        <time>2024-04-14T10:03:47Z</time>
      </trkpt>
      <trkpt lat="46.02836" lon="3.17368">
        <ele>454.2</ele>
        <time>2024-04-14T10:03:48Z</time>
      </trkpt>
      <trkpt lat="46.02827" lon="3.17403">
        <ele>453.6</ele>
        <time>2024-04-14T10:03:49Z</time>
      </trkpt>
      <trkpt lat="46.02827" lon="3.17403">
        <ele>453</ele>
        <time>2024-04-14T10:03:50Z</time>
      </trkpt>
      <trkpt lat="46.02821" lon="3.17438">
        <ele>452.4</ele>
        <time>2024-04-14T10:03:51Z</time>
      </trkpt>
      <trkpt lat="46.02818" lon="3.17455">
        <ele>451.8</ele>
        <time>2024-04-14T10:03:52Z</time>
      </trkpt>
      <trkpt lat="46.02818" lon="3.17455">
        <ele>451.2</ele>
        <time>2024-04-14T10:03:53Z</time>
      </trkpt>
      <trkpt lat="46.02812" lon="3.17488">
        <ele>450.8</ele>
        <time>2024-04-14T10:03:54Z</time>
      </trkpt>
      <trkpt lat="46.02812" lon="3.17488">
        <ele>450.2</ele>
        <time>2024-04-14T10:03:55Z</time>
      </trkpt>
      <trkpt lat="46.02811" lon="3.17521">
        <ele>449.6</ele>
        <time>2024-04-14T10:03:56Z</time>
      </trkpt>
      <trkpt lat="46.02811" lon="3.17521">
        <ele>449</ele>
        <time>2024-04-14T10:03:57Z</time>
      </trkpt>
      <trkpt lat="46.02813" lon="3.17551">
        <ele>448.4</ele>
        <time>2024-04-14T10:03:58Z</time>
      </trkpt>
      <trkpt lat="46.02813" lon="3.17551">
        <ele>448</ele>
        <time>2024-04-14T10:03:59Z</time>
      </trkpt>
      <trkpt lat="46.02813" lon="3.17551">
        <ele>447.4</ele>
        <time>2024-04-14T10:04:00Z</time>
      </trkpt>
      <trkpt lat="46.02829" lon="3.17588">
        <ele>446.8</ele>
        <time>2024-04-14T10:04:01Z</time>
      </trkpt>
      <trkpt lat="46.02829" lon="3.17588">
        <ele>446.2</ele>
        <time>2024-04-14T10:04:02Z</time>
      </trkpt>
      <trkpt lat="46.02848" lon="3.17602">
        <ele>445.8</ele>
        <time>2024-04-14T10:04:03Z</time>
      </trkpt>
      <trkpt lat="46.02859" lon="3.17603">
        <ele>445.2</ele>
        <time>2024-04-14T10:04:04Z</time>
      </trkpt>
      <trkpt lat="46.0287" lon="3.17604">
        <ele>444.8</ele>
        <time>2024-04-14T10:04:05Z</time>
      </trkpt>
      <trkpt lat="46.02882" lon="3.17605">
        <ele>444.2</ele>
        <time>2024-04-14T10:04:06Z</time>
      </trkpt>
      <trkpt lat="46.02892" lon="3.17597">
        <ele>443.6</ele>
        <time>2024-04-14T10:04:07Z</time>
      </trkpt>
      <trkpt lat="46.02902" lon="3.17588">
        <ele>443</ele>
        <time>2024-04-14T10:04:08Z</time>
      </trkpt>
      <trkpt lat="46.02913" lon="3.17579">
        <ele>442.4</ele>
        <time>2024-04-14T10:04:09Z</time>
      </trkpt>
      <trkpt lat="46.02923" lon="3.1757">
        <ele>441.6</ele>
        <time>2024-04-14T10:04:10Z</time>
      </trkpt>
      <trkpt lat="46.02933" lon="3.17562">
        <ele>441</ele>
        <time>2024-04-14T10:04:11Z</time>
      </trkpt>
      <trkpt lat="46.02942" lon="3.17549">
        <ele>440.6</ele>
        <time>2024-04-14T10:04:12Z</time>
      </trkpt>
      <trkpt lat="46.0295" lon="3.17537">
        <ele>440</ele>
        <time>2024-04-14T10:04:13Z</time>
      </trkpt>
      <trkpt lat="46.02958" lon="3.17524">
        <ele>439.4</ele>
        <time>2024-04-14T10:04:14Z</time>
      </trkpt>
      <trkpt lat="46.02967" lon="3.17511">
        <ele>439</ele>
        <time>2024-04-14T10:04:15Z</time>
      </trkpt>
      <trkpt lat="46.02975" lon="3.17498">
        <ele>438.4</ele>
        <time>2024-04-14T10:04:16Z</time>
      </trkpt>
      <trkpt lat="46.02983" lon="3.17484">
        <ele>437.8</ele>
        <time>2024-04-14T10:04:17Z</time>
      </trkpt>
      <trkpt lat="46.02993" lon="3.17472">
        <ele>437.4</ele>
        <time>2024-04-14T10:04:18Z</time>
      </trkpt>
      <trkpt lat="46.02993" lon="3.17472">
        <ele>437</ele>
        <time>2024-04-14T10:04:19Z</time>
      </trkpt>
      <trkpt lat="46.03013" lon="3.1745">
        <ele>436.4</ele>
        <time>2024-04-14T10:04:20Z</time>
      </trkpt>
      <trkpt lat="46.03023" lon="3.1744">
        <ele>435.8</ele>
        <time>2024-04-14T10:04:21Z</time>
      </trkpt>
      <trkpt lat="46.03032" lon="3.17429">
        <ele>435.2</ele>
        <time>2024-04-14T10:04:22Z</time>
      </trkpt>
      <trkpt lat="46.03032" lon="3.17429">
        <ele>434.6</ele>
        <time>2024-04-14T10:04:23Z</time>
      </trkpt>
      <trkpt lat="46.0305" lon="3.1741">
        <ele>434</ele>
        <time>2024-04-14T10:04:24Z</time>
      </trkpt>
      <trkpt lat="46.0305" lon="3.1741">
        <ele>433.4</ele>
        <time>2024-04-14T10:04:25Z</time>
      </trkpt>
      <trkpt lat="46.03064" lon="3.17394">
        <ele>432.8</ele>
        <time>2024-04-14T10:04:26Z</time>
      </trkpt>
      <trkpt lat="46.03074" lon="3.17393">
        <ele>432.2</ele>
        <time>2024-04-14T10:04:27Z</time>
      </trkpt>
      <trkpt lat="46.03074" lon="3.17393">
        <ele>432.2</ele>
        <time>2024-04-14T10:04:28Z</time>
      </trkpt>
      <trkpt lat="46.03084" lon="3.17392">
        <ele>431.6</ele>
        <time>2024-04-14T10:04:29Z</time>
      </trkpt>
      <trkpt lat="46.03103" lon="3.17403">
        <ele>430.4</ele>
        <time>2024-04-14T10:04:30Z</time>
      </trkpt>
      <trkpt lat="46.0311" lon="3.17414">
        <ele>429.6</ele>
        <time>2024-04-14T10:04:31Z</time>
      </trkpt>
      <trkpt lat="46.03117" lon="3.17426">
        <ele>428.8</ele>
        <time>2024-04-14T10:04:32Z</time>
      </trkpt>
      <trkpt lat="46.03125" lon="3.17438">
        <ele>428.2</ele>
        <time>2024-04-14T10:04:33Z</time>
      </trkpt>
      <trkpt lat="46.03133" lon="3.1745">
        <ele>427.6</ele>
        <time>2024-04-14T10:04:34Z</time>
      </trkpt>
      <trkpt lat="46.0314" lon="3.17463">
        <ele>426.8</ele>
        <time>2024-04-14T10:04:35Z</time>
      </trkpt>
      <trkpt lat="46.03148" lon="3.17475">
        <ele>426.2</ele>
        <time>2024-04-14T10:04:36Z</time>
      </trkpt>
      <trkpt lat="46.03156" lon="3.17488">
        <ele>425.4</ele>
        <time>2024-04-14T10:04:37Z</time>
      </trkpt>
      <trkpt lat="46.03164" lon="3.175">
        <ele>424.8</ele>
        <time>2024-04-14T10:04:38Z</time>
      </trkpt>
      <trkpt lat="46.03172" lon="3.17513">
        <ele>424</ele>
        <time>2024-04-14T10:04:39Z</time>
      </trkpt>
      <trkpt lat="46.03179" lon="3.17525">
        <ele>423.4</ele>
        <time>2024-04-14T10:04:40Z</time>
      </trkpt>
      <trkpt lat="46.03186" lon="3.17536">
        <ele>422.6</ele>
        <time>2024-04-14T10:04:41Z</time>
      </trkpt>
      <trkpt lat="46.0319" lon="3.17549">
        <ele>422</ele>
        <time>2024-04-14T10:04:42Z</time>
      </trkpt>
      <trkpt lat="46.03192" lon="3.17564">
        <ele>421.2</ele>
        <time>2024-04-14T10:04:43Z</time>
      </trkpt>
      <trkpt lat="46.03195" lon="3.17578">
        <ele>420.6</ele>
        <time>2024-04-14T10:04:44Z</time>
      </trkpt>
      <trkpt lat="46.03197" lon="3.17593">
        <ele>420</ele>
        <time>2024-04-14T10:04:45Z</time>
      </trkpt>
      <trkpt lat="46.032" lon="3.17607">
        <ele>419.4</ele>
        <time>2024-04-14T10:04:46Z</time>
      </trkpt>
      <trkpt lat="46.03202" lon="3.17621">
        <ele>418.8</ele>
        <time>2024-04-14T10:04:47Z</time>
      </trkpt>
      <trkpt lat="46.03205" lon="3.17634">
        <ele>418.2</ele>
        <time>2024-04-14T10:04:48Z</time>
      </trkpt>
      <trkpt lat="46.03207" lon="3.17647">
        <ele>417.6</ele>
        <time>2024-04-14T10:04:49Z</time>
      </trkpt>
      <trkpt lat="46.03208" lon="3.17659">
        <ele>417</ele>
        <time>2024-04-14T10:04:50Z</time>
      </trkpt>
      <trkpt lat="46.03209" lon="3.17673">
        <ele>416.4</ele>
        <time>2024-04-14T10:04:51Z</time>
      </trkpt>
      <trkpt lat="46.03209" lon="3.17686">
        <ele>416</ele>
        <time>2024-04-14T10:04:52Z</time>
      </trkpt>
      <trkpt lat="46.03207" lon="3.17699">
        <ele>415.4</ele>
        <time>2024-04-14T10:04:53Z</time>
      </trkpt>
      <trkpt lat="46.03205" lon="3.17712">
        <ele>415</ele>
        <time>2024-04-14T10:04:54Z</time>
      </trkpt>
      <trkpt lat="46.03202" lon="3.17724">
        <ele>414.4</ele>
        <time>2024-04-14T10:04:55Z</time>
      </trkpt>
      <trkpt lat="46.032" lon="3.17737">
        <ele>414</ele>
        <time>2024-04-14T10:04:56Z</time>
      </trkpt>
      <trkpt lat="46.03197" lon="3.17749">
        <ele>413.6</ele>
        <time>2024-04-14T10:04:57Z</time>
      </trkpt>
      <trkpt lat="46.03193" lon="3.17761">
        <ele>413.2</ele>
        <time>2024-04-14T10:04:58Z</time>
      </trkpt>
      <trkpt lat="46.03189" lon="3.17773">
        <ele>412.8</ele>
        <time>2024-04-14T10:04:59Z</time>
      </trkpt>
      <trkpt lat="46.03185" lon="3.17786">
        <ele>412.2</ele>
        <time>2024-04-14T10:05:00Z</time>
      </trkpt>
      <trkpt lat="46.03182" lon="3.17799">
        <ele>411.8</ele>
        <time>2024-04-14T10:05:01Z</time>
      </trkpt>
      <trkpt lat="46.03178" lon="3.17811">
        <ele>411.4</ele>
        <time>2024-04-14T10:05:02Z</time>
      </trkpt>
      <trkpt lat="46.03174" lon="3.17824">
        <ele>411</ele>
        <time>2024-04-14T10:05:03Z</time>
      </trkpt>
      <trkpt lat="46.0317" lon="3.17836">
        <ele>410.6</ele>
        <time>2024-04-14T10:05:04Z</time>
      </trkpt>
      <trkpt lat="46.03167" lon="3.1785">
        <ele>410</ele>
        <time>2024-04-14T10:05:05Z</time>
      </trkpt>
      <trkpt lat="46.03164" lon="3.17864">
        <ele>409.6</ele>
        <time>2024-04-14T10:05:06Z</time>
      </trkpt>
      <trkpt lat="46.0316" lon="3.17877">
        <ele>409.2</ele>
        <time>2024-04-14T10:05:07Z</time>
      </trkpt>
      <trkpt lat="46.03156" lon="3.1789">
        <ele>408.6</ele>
        <time>2024-04-14T10:05:08Z</time>
      </trkpt>
      <trkpt lat="46.03153" lon="3.17903">
        <ele>408.2</ele>
        <time>2024-04-14T10:05:09Z</time>
      </trkpt>
      <trkpt lat="46.03149" lon="3.17916">
        <ele>407.8</ele>
        <time>2024-04-14T10:05:10Z</time>
      </trkpt>
      <trkpt lat="46.03145" lon="3.1793">
        <ele>407.2</ele>
        <time>2024-04-14T10:05:11Z</time>
      </trkpt>
      <trkpt lat="46.03142" lon="3.17943">
        <ele>406.6</ele>
        <time>2024-04-14T10:05:12Z</time>
      </trkpt>
      <trkpt lat="46.03138" lon="3.17956">
        <ele>406.2</ele>
        <time>2024-04-14T10:05:13Z</time>
      </trkpt>
      <trkpt lat="46.03134" lon="3.1797">
        <ele>405.6</ele>
        <time>2024-04-14T10:05:14Z</time>
      </trkpt>
      <trkpt lat="46.03131" lon="3.17984">
        <ele>405.2</ele>
        <time>2024-04-14T10:05:15Z</time>
      </trkpt>
      <trkpt lat="46.03128" lon="3.17997">
        <ele>404.6</ele>
        <time>2024-04-14T10:05:16Z</time>
      </trkpt>
      <trkpt lat="46.03124" lon="3.18011">
        <ele>404.2</ele>
        <time>2024-04-14T10:05:17Z</time>
      </trkpt>
      <trkpt lat="46.03121" lon="3.18025">
        <ele>403.6</ele>
        <time>2024-04-14T10:05:18Z</time>
      </trkpt>
      <trkpt lat="46.03118" lon="3.18039">
        <ele>403.2</ele>
        <time>2024-04-14T10:05:19Z</time>
      </trkpt>
      <trkpt lat="46.03114" lon="3.18053">
        <ele>402.6</ele>
        <time>2024-04-14T10:05:20Z</time>
      </trkpt>
      <trkpt lat="46.03111" lon="3.18066">
        <ele>402</ele>
        <time>2024-04-14T10:05:21Z</time>
      </trkpt>
      <trkpt lat="46.03107" lon="3.1808">
        <ele>401.6</ele>
        <time>2024-04-14T10:05:22Z</time>
      </trkpt>
      <trkpt lat="46.03104" lon="3.18094">
        <ele>401.2</ele>
        <time>2024-04-14T10:05:23Z</time>
      </trkpt>
      <trkpt lat="46.03101" lon="3.18108">
        <ele>400.6</ele>
        <time>2024-04-14T10:05:24Z</time>
      </trkpt>
      <trkpt lat="46.03097" lon="3.18121">
        <ele>400.2</ele>
        <time>2024-04-14T10:05:25Z</time>
      </trkpt>
      <trkpt lat="46.03094" lon="3.18135">
        <ele>399.8</ele>
        <time>2024-04-14T10:05:26Z</time>
      </trkpt>
      <trkpt lat="46.0309" lon="3.18148">
        <ele>399.2</ele>
        <time>2024-04-14T10:05:27Z</time>
      </trkpt>
      <trkpt lat="46.03085" lon="3.1816">
        <ele>398.8</ele>
        <time>2024-04-14T10:05:28Z</time>
      </trkpt>
      <trkpt lat="46.03081" lon="3.18172">
        <ele>398.4</ele>
        <time>2024-04-14T10:05:29Z</time>
      </trkpt>
      <trkpt lat="46.03076" lon="3.18185">
        <ele>398</ele>
        <time>2024-04-14T10:05:30Z</time>
      </trkpt>
      <trkpt lat="46.03071" lon="3.18197">
        <ele>397.6</ele>
        <time>2024-04-14T10:05:31Z</time>
      </trkpt>
      <trkpt lat="46.03066" lon="3.18209">
        <ele>397.2</ele>
        <time>2024-04-14T10:05:32Z</time>
      </trkpt>
      <trkpt lat="46.03062" lon="3.1822">
        <ele>396.8</ele>
        <time>2024-04-14T10:05:33Z</time>
      </trkpt>
      <trkpt lat="46.03057" lon="3.18232">
        <ele>396.4</ele>
        <time>2024-04-14T10:05:34Z</time>
      </trkpt>
      <trkpt lat="46.03053" lon="3.18244">
        <ele>396</ele>
        <time>2024-04-14T10:05:35Z</time>
      </trkpt>
      <trkpt lat="46.03049" lon="3.18256">
        <ele>395.6</ele>
        <time>2024-04-14T10:05:36Z</time>
      </trkpt>
      <trkpt lat="46.03044" lon="3.18268">
        <ele>395.2</ele>
        <time>2024-04-14T10:05:37Z</time>
      </trkpt>
      <trkpt lat="46.0304" lon="3.18279">
        <ele>394.8</ele>
        <time>2024-04-14T10:05:38Z</time>
      </trkpt>
      <trkpt lat="46.03036" lon="3.18291">
        <ele>394.4</ele>
        <time>2024-04-14T10:05:39Z</time>
      </trkpt>
      <trkpt lat="46.03031" lon="3.18303">
        <ele>394</ele>
        <time>2024-04-14T10:05:40Z</time>
      </trkpt>
      <trkpt lat="46.03027" lon="3.18314">
        <ele>393.8</ele>
        <time>2024-04-14T10:05:41Z</time>
      </trkpt>
      <trkpt lat="46.03023" lon="3.18325">
        <ele>393.4</ele>
        <time>2024-04-14T10:05:42Z</time>
      </trkpt>
      <trkpt lat="46.03019" lon="3.18336">
        <ele>393</ele>
        <time>2024-04-14T10:05:43Z</time>
      </trkpt>
      <trkpt lat="46.03014" lon="3.18347">
        <ele>392.6</ele>
        <time>2024-04-14T10:05:44Z</time>
      </trkpt>
      <trkpt lat="46.03012" lon="3.1836">
        <ele>392.2</ele>
        <time>2024-04-14T10:05:45Z</time>
      </trkpt>
      <trkpt lat="46.0301" lon="3.18372">
        <ele>391.8</ele>
        <time>2024-04-14T10:05:46Z</time>
      </trkpt>
      <trkpt lat="46.03008" lon="3.18384">
        <ele>391.6</ele>
        <time>2024-04-14T10:05:47Z</time>
      </trkpt>
      <trkpt lat="46.03006" lon="3.18396">
        <ele>391.2</ele>
        <time>2024-04-14T10:05:48Z</time>
      </trkpt>
      <trkpt lat="46.03004" lon="3.18408">
        <ele>391</ele>
        <time>2024-04-14T10:05:49Z</time>
      </trkpt>
      <trkpt lat="46.03002" lon="3.18419">
        <ele>390.6</ele>
        <time>2024-04-14T10:05:50Z</time>
      </trkpt>
      <trkpt lat="46.03001" lon="3.1843">
        <ele>390.4</ele>
        <time>2024-04-14T10:05:51Z</time>
      </trkpt>
      <trkpt lat="46.02999" lon="3.18441">
        <ele>390</ele>
        <time>2024-04-14T10:05:52Z</time>
      </trkpt>
      <trkpt lat="46.02998" lon="3.18453">
        <ele>389.8</ele>
        <time>2024-04-14T10:05:53Z</time>
      </trkpt>
      <trkpt lat="46.02998" lon="3.18464">
        <ele>389.6</ele>
        <time>2024-04-14T10:05:54Z</time>
      </trkpt>
      <trkpt lat="46.02997" lon="3.18475">
        <ele>389.4</ele>
        <time>2024-04-14T10:05:55Z</time>
      </trkpt>
      <trkpt lat="46.02997" lon="3.18487">
        <ele>389.2</ele>
        <time>2024-04-14T10:05:56Z</time>
      </trkpt>
      <trkpt lat="46.02998" lon="3.18498">
        <ele>389</ele>
        <time>2024-04-14T10:05:57Z</time>
      </trkpt>
      <trkpt lat="46.02999" lon="3.18509">
        <ele>388.8</ele>
        <time>2024-04-14T10:05:58Z</time>
      </trkpt>
      <trkpt lat="46.02998" lon="3.18521">
        <ele>388.6</ele>
        <time>2024-04-14T10:05:59Z</time>
      </trkpt>
      <trkpt lat="46.02997" lon="3.18532">
        <ele>388.4</ele>
        <time>2024-04-14T10:06:00Z</time>
      </trkpt>
      <trkpt lat="46.02997" lon="3.18544">
        <ele>388.2</ele>
        <time>2024-04-14T10:06:01Z</time>
      </trkpt>
      <trkpt lat="46.02994" lon="3.18555">
        <ele>388</ele>
        <time>2024-04-14T10:06:02Z</time>
      </trkpt>
      <trkpt lat="46.0299" lon="3.18567">
        <ele>387.6</ele>
        <time>2024-04-14T10:06:03Z</time>
      </trkpt>
      <trkpt lat="46.02985" lon="3.18577">
        <ele>387.2</ele>
        <time>2024-04-14T10:06:04Z</time>
      </trkpt>
      <trkpt lat="46.0298" lon="3.18587">
        <ele>387</ele>
        <time>2024-04-14T10:06:05Z</time>
      </trkpt>
      <trkpt lat="46.02974" lon="3.18597">
        <ele>386.8</ele>
        <time>2024-04-14T10:06:06Z</time>
      </trkpt>
      <trkpt lat="46.02969" lon="3.18606">
        <ele>386.4</ele>
        <time>2024-04-14T10:06:07Z</time>
      </trkpt>
      <trkpt lat="46.02963" lon="3.18616">
        <ele>386.2</ele>
        <time>2024-04-14T10:06:08Z</time>
      </trkpt>
      <trkpt lat="46.02958" lon="3.18626">
        <ele>385.8</ele>
        <time>2024-04-14T10:06:09Z</time>
      </trkpt>
      <trkpt lat="46.02951" lon="3.18634">
        <ele>385.6</ele>
        <time>2024-04-14T10:06:10Z</time>
      </trkpt>
      <trkpt lat="46.02944" lon="3.18642">
        <ele>385.2</ele>
        <time>2024-04-14T10:06:11Z</time>
      </trkpt>
      <trkpt lat="46.02937" lon="3.1865">
        <ele>385</ele>
        <time>2024-04-14T10:06:12Z</time>
      </trkpt>
      <trkpt lat="46.0293" lon="3.18657">
        <ele>384.6</ele>
        <time>2024-04-14T10:06:13Z</time>
      </trkpt>
      <trkpt lat="46.02923" lon="3.18665">
        <ele>384.4</ele>
        <time>2024-04-14T10:06:14Z</time>
      </trkpt>
      <trkpt lat="46.02916" lon="3.18673">
        <ele>384</ele>
        <time>2024-04-14T10:06:15Z</time>
      </trkpt>
      <trkpt lat="46.0291" lon="3.18681">
        <ele>383.8</ele>
        <time>2024-04-14T10:06:16Z</time>
      </trkpt>
      <trkpt lat="46.02904" lon="3.1869">
        <ele>383.4</ele>
        <time>2024-04-14T10:06:17Z</time>
      </trkpt>
      <trkpt lat="46.02897" lon="3.18698">
        <ele>383.2</ele>
        <time>2024-04-14T10:06:18Z</time>
      </trkpt>
      <trkpt lat="46.02891" lon="3.18707">
        <ele>383</ele>
        <time>2024-04-14T10:06:19Z</time>
      </trkpt>
      <trkpt lat="46.02885" lon="3.18716">
        <ele>382.6</ele>
        <time>2024-04-14T10:06:20Z</time>
      </trkpt>
      <trkpt lat="46.02881" lon="3.18726">
        <ele>382.2</ele>
        <time>2024-04-14T10:06:21Z</time>
      </trkpt>
      <trkpt lat="46.02877" lon="3.18737">
        <ele>382</ele>
        <time>2024-04-14T10:06:22Z</time>
      </trkpt>
      <trkpt lat="46.02873" lon="3.18749">
        <ele>381.6</ele>
        <time>2024-04-14T10:06:23Z</time>
      </trkpt>
      <trkpt lat="46.02869" lon="3.18761">
        <ele>381.4</ele>
        <time>2024-04-14T10:06:24Z</time>
      </trkpt>
      <trkpt lat="46.02865" lon="3.18772">
        <ele>381</ele>
        <time>2024-04-14T10:06:25Z</time>
      </trkpt>
      <trkpt lat="46.02861" lon="3.18784">
        <ele>380.8</ele>
        <time>2024-04-14T10:06:26Z</time>
      </trkpt>
      <trkpt lat="46.02857" lon="3.18796">
        <ele>380.4</ele>
        <time>2024-04-14T10:06:27Z</time>
      </trkpt>
      <trkpt lat="46.02852" lon="3.18808">
        <ele>380.2</ele>
        <time>2024-04-14T10:06:28Z</time>
      </trkpt>
      <trkpt lat="46.02848" lon="3.18819">
        <ele>380</ele>
        <time>2024-04-14T10:06:29Z</time>
      </trkpt>
      <trkpt lat="46.02844" lon="3.18832">
        <ele>379.6</ele>
        <time>2024-04-14T10:06:30Z</time>
      </trkpt>
      <trkpt lat="46.02839" lon="3.18844">
        <ele>379.6</ele>
        <time>2024-04-14T10:06:31Z</time>
      </trkpt>
      <trkpt lat="46.02834" lon="3.18856">
        <ele>379.2</ele>
        <time>2024-04-14T10:06:32Z</time>
      </trkpt>
      <trkpt lat="46.02829" lon="3.18867">
        <ele>379</ele>
        <time>2024-04-14T10:06:33Z</time>
      </trkpt>
      <trkpt lat="46.02824" lon="3.18879">
        <ele>378.6</ele>
        <time>2024-04-14T10:06:34Z</time>
      </trkpt>
      <trkpt lat="46.02818" lon="3.18891">
        <ele>378.4</ele>
        <time>2024-04-14T10:06:35Z</time>
      </trkpt>
      <trkpt lat="46.02813" lon="3.18902">
        <ele>378.2</ele>
        <time>2024-04-14T10:06:36Z</time>
      </trkpt>
      <trkpt lat="46.02808" lon="3.18914">
        <ele>378</ele>
        <time>2024-04-14T10:06:37Z</time>
      </trkpt>
      <trkpt lat="46.02802" lon="3.18925">
        <ele>377.6</ele>
        <time>2024-04-14T10:06:38Z</time>
      </trkpt>
      <trkpt lat="46.02797" lon="3.18936">
        <ele>377.4</ele>
        <time>2024-04-14T10:06:39Z</time>
      </trkpt>
      <trkpt lat="46.02792" lon="3.18948">
        <ele>377.2</ele>
        <time>2024-04-14T10:06:40Z</time>
      </trkpt>
      <trkpt lat="46.02787" lon="3.18959">
        <ele>376.8</ele>
        <time>2024-04-14T10:06:41Z</time>
      </trkpt>
      <trkpt lat="46.02781" lon="3.1897">
        <ele>376.6</ele>
        <time>2024-04-14T10:06:42Z</time>
      </trkpt>
      <trkpt lat="46.02776" lon="3.18981">
        <ele>376.4</ele>
        <time>2024-04-14T10:06:43Z</time>
      </trkpt>
      <trkpt lat="46.02771" lon="3.18991">
        <ele>376</ele>
        <time>2024-04-14T10:06:44Z</time>
      </trkpt>
      <trkpt lat="46.02767" lon="3.19002">
        <ele>375.8</ele>
        <time>2024-04-14T10:06:45Z</time>
      </trkpt>
      <trkpt lat="46.02762" lon="3.19013">
        <ele>375.6</ele>
        <time>2024-04-14T10:06:46Z</time>
      </trkpt>
      <trkpt lat="46.02757" lon="3.19023">
        <ele>375.4</ele>
        <time>2024-04-14T10:06:47Z</time>
      </trkpt>
      <trkpt lat="46.02752" lon="3.19034">
        <ele>375.2</ele>
        <time>2024-04-14T10:06:48Z</time>
      </trkpt>
      <trkpt lat="46.02747" lon="3.19044">
        <ele>375</ele>
        <time>2024-04-14T10:06:49Z</time>
      </trkpt>
      <trkpt lat="46.02742" lon="3.19055">
        <ele>374.8</ele>
        <time>2024-04-14T10:06:50Z</time>
      </trkpt>
      <trkpt lat="46.02737" lon="3.19065">
        <ele>374.6</ele>
        <time>2024-04-14T10:06:51Z</time>
      </trkpt>
      <trkpt lat="46.02733" lon="3.19076">
        <ele>374.4</ele>
        <time>2024-04-14T10:06:52Z</time>
      </trkpt>
      <trkpt lat="46.02729" lon="3.19087">
        <ele>374.2</ele>
        <time>2024-04-14T10:06:53Z</time>
      </trkpt>
      <trkpt lat="46.02725" lon="3.19097">
        <ele>374</ele>
        <time>2024-04-14T10:06:54Z</time>
      </trkpt>
      <trkpt lat="46.0272" lon="3.19108">
        <ele>373.8</ele>
        <time>2024-04-14T10:06:55Z</time>
      </trkpt>
      <trkpt lat="46.02716" lon="3.19118">
        <ele>373.6</ele>
        <time>2024-04-14T10:06:56Z</time>
      </trkpt>
      <trkpt lat="46.02712" lon="3.19129">
        <ele>373.4</ele>
        <time>2024-04-14T10:06:57Z</time>
      </trkpt>
      <trkpt lat="46.02708" lon="3.19139">
        <ele>373.2</ele>
        <time>2024-04-14T10:06:58Z</time>
      </trkpt>
      <trkpt lat="46.02704" lon="3.19149">
        <ele>373</ele>
        <time>2024-04-14T10:06:59Z</time>
      </trkpt>
      <trkpt lat="46.02699" lon="3.1916">
        <ele>372.8</ele>
        <time>2024-04-14T10:07:00Z</time>
      </trkpt>
      <trkpt lat="46.02695" lon="3.19171">
        <ele>372.6</ele>
        <time>2024-04-14T10:07:01Z</time>
      </trkpt>
      <trkpt lat="46.02691" lon="3.19181">
        <ele>372.4</ele>
        <time>2024-04-14T10:07:02Z</time>
      </trkpt>
      <trkpt lat="46.02686" lon="3.19192">
        <ele>372.2</ele>
        <time>2024-04-14T10:07:03Z</time>
      </trkpt>
      <trkpt lat="46.02681" lon="3.19202">
        <ele>372</ele>
        <time>2024-04-14T10:07:04Z</time>
      </trkpt>
      <trkpt lat="46.02676" lon="3.19213">
        <ele>371.8</ele>
        <time>2024-04-14T10:07:05Z</time>
      </trkpt>
      <trkpt lat="46.02671" lon="3.19223">
        <ele>371.6</ele>
        <time>2024-04-14T10:07:06Z</time>
      </trkpt>
      <trkpt lat="46.02666" lon="3.19233">
        <ele>371.4</ele>
        <time>2024-04-14T10:07:07Z</time>
      </trkpt>
      <trkpt lat="46.0266" lon="3.19244">
        <ele>371.2</ele>
        <time>2024-04-14T10:07:08Z</time>
      </trkpt>
      <trkpt lat="46.02655" lon="3.19255">
        <ele>371</ele>
        <time>2024-04-14T10:07:09Z</time>
      </trkpt>
      <trkpt lat="46.0265" lon="3.19265">
        <ele>370.8</ele>
        <time>2024-04-14T10:07:10Z</time>
      </trkpt>
      <trkpt lat="46.02645" lon="3.19276">
        <ele>370.6</ele>
        <time>2024-04-14T10:07:11Z</time>
      </trkpt>
      <trkpt lat="46.02639" lon="3.19286">
        <ele>370.4</ele>
        <time>2024-04-14T10:07:12Z</time>
      </trkpt>
      <trkpt lat="46.02634" lon="3.19297">
        <ele>370.2</ele>
        <time>2024-04-14T10:07:13Z</time>
      </trkpt>
      <trkpt lat="46.02629" lon="3.19308">
        <ele>370</ele>
        <time>2024-04-14T10:07:14Z</time>
      </trkpt>
      <trkpt lat="46.02623" lon="3.19319">
        <ele>369.6</ele>
        <time>2024-04-14T10:07:15Z</time>
      </trkpt>
      <trkpt lat="46.02618" lon="3.19329">
        <ele>369.4</ele>
        <time>2024-04-14T10:07:16Z</time>
      </trkpt>
      <trkpt lat="46.02613" lon="3.1934">
        <ele>369.2</ele>
        <time>2024-04-14T10:07:17Z</time>
      </trkpt>
      <trkpt lat="46.02607" lon="3.1935">
        <ele>369.2</ele>
        <time>2024-04-14T10:07:18Z</time>
      </trkpt>
      <trkpt lat="46.02602" lon="3.1936">
        <ele>369</ele>
        <time>2024-04-14T10:07:19Z</time>
      </trkpt>
      <trkpt lat="46.02596" lon="3.1937">
        <ele>368.8</ele>
        <time>2024-04-14T10:07:20Z</time>
      </trkpt>
      <trkpt lat="46.0259" lon="3.19379">
        <ele>368.6</ele>
        <time>2024-04-14T10:07:21Z</time>
      </trkpt>
      <trkpt lat="46.02584" lon="3.19388">
        <ele>368.4</ele>
        <time>2024-04-14T10:07:22Z</time>
      </trkpt>
      <trkpt lat="46.02578" lon="3.19397">
        <ele>368.2</ele>
        <time>2024-04-14T10:07:23Z</time>
      </trkpt>
      <trkpt lat="46.02573" lon="3.19406">
        <ele>368</ele>
        <time>2024-04-14T10:07:24Z</time>
      </trkpt>
      <trkpt lat="46.02567" lon="3.19415">
        <ele>367.8</ele>
        <time>2024-04-14T10:07:25Z</time>
      </trkpt>
      <trkpt lat="46.02562" lon="3.19425">
        <ele>367.6</ele>
        <time>2024-04-14T10:07:26Z</time>
      </trkpt>
      <trkpt lat="46.02558" lon="3.19435">
        <ele>367.4</ele>
        <time>2024-04-14T10:07:27Z</time>
      </trkpt>
      <trkpt lat="46.02554" lon="3.19445">
        <ele>367.4</ele>
        <time>2024-04-14T10:07:28Z</time>
      </trkpt>
      <trkpt lat="46.0255" lon="3.19455">
        <ele>367.2</ele>
        <time>2024-04-14T10:07:29Z</time>
      </trkpt>
      <trkpt lat="46.02546" lon="3.19465">
        <ele>367</ele>
        <time>2024-04-14T10:07:30Z</time>
      </trkpt>
      <trkpt lat="46.02542" lon="3.19475">
        <ele>367</ele>
        <time>2024-04-14T10:07:31Z</time>
      </trkpt>
      <trkpt lat="46.02538" lon="3.19485">
        <ele>366.8</ele>
        <time>2024-04-14T10:07:32Z</time>
      </trkpt>
      <trkpt lat="46.02534" lon="3.19495">
        <ele>366.8</ele>
        <time>2024-04-14T10:07:33Z</time>
      </trkpt>
      <trkpt lat="46.0253" lon="3.19505">
        <ele>366.6</ele>
        <time>2024-04-14T10:07:34Z</time>
      </trkpt>
      <trkpt lat="46.02526" lon="3.19514">
        <ele>366.4</ele>
        <time>2024-04-14T10:07:35Z</time>
      </trkpt>
      <trkpt lat="46.02523" lon="3.19523">
        <ele>366.4</ele>
        <time>2024-04-14T10:07:36Z</time>
      </trkpt>
      <trkpt lat="46.02519" lon="3.19532">
        <ele>366.4</ele>
        <time>2024-04-14T10:07:37Z</time>
      </trkpt>
      <trkpt lat="46.02516" lon="3.19541">
        <ele>366.2</ele>
        <time>2024-04-14T10:07:38Z</time>
      </trkpt>
      <trkpt lat="46.02512" lon="3.1955">
        <ele>366.2</ele>
        <time>2024-04-14T10:07:39Z</time>
      </trkpt>
      <trkpt lat="46.02509" lon="3.19559">
        <ele>366</ele>
        <time>2024-04-14T10:07:40Z</time>
      </trkpt>
      <trkpt lat="46.02505" lon="3.19568">
        <ele>366</ele>
        <time>2024-04-14T10:07:41Z</time>
      </trkpt>
      <trkpt lat="46.02502" lon="3.19576">
        <ele>366</ele>
        <time>2024-04-14T10:07:42Z</time>
      </trkpt>
      <trkpt lat="46.02498" lon="3.19584">
        <ele>366</ele>
        <time>2024-04-14T10:07:43Z</time>
      </trkpt>
      <trkpt lat="46.02495" lon="3.19593">
        <ele>365.8</ele>
        <time>2024-04-14T10:07:44Z</time>
      </trkpt>
      <trkpt lat="46.02493" lon="3.19602">
        <ele>365.8</ele>
        <time>2024-04-14T10:07:45Z</time>
      </trkpt>
      <trkpt lat="46.0249" lon="3.19611">
        <ele>365.8</ele>
        <time>2024-04-14T10:07:46Z</time>
      </trkpt>
      <trkpt lat="46.02487" lon="3.1962">
        <ele>365.6</ele>
        <time>2024-04-14T10:07:47Z</time>
      </trkpt>
      <trkpt lat="46.02484" lon="3.19629">
        <ele>365.6</ele>
        <time>2024-04-14T10:07:48Z</time>
      </trkpt>
      <trkpt lat="46.02479" lon="3.19636">
        <ele>365.6</ele>
        <time>2024-04-14T10:07:49Z</time>
      </trkpt>
      <trkpt lat="46.02474" lon="3.19643">
        <ele>365.4</ele>
        <time>2024-04-14T10:07:50Z</time>
      </trkpt>
      <trkpt lat="46.02469" lon="3.1965">
        <ele>365.4</ele>
        <time>2024-04-14T10:07:51Z</time>
      </trkpt>
      <trkpt lat="46.02464" lon="3.19658">
        <ele>365.4</ele>
        <time>2024-04-14T10:07:52Z</time>
      </trkpt>
      <trkpt lat="46.02458" lon="3.19666">
        <ele>365.2</ele>
        <time>2024-04-14T10:07:53Z</time>
      </trkpt>
      <trkpt lat="46.02453" lon="3.19674">
        <ele>365.2</ele>
        <time>2024-04-14T10:07:54Z</time>
      </trkpt>
      <trkpt lat="46.02448" lon="3.19682">
        <ele>365</ele>
        <time>2024-04-14T10:07:55Z</time>
      </trkpt>
      <trkpt lat="46.02442" lon="3.1969">
        <ele>365</ele>
        <time>2024-04-14T10:07:56Z</time>
      </trkpt>
      <trkpt lat="46.02437" lon="3.19698">
        <ele>364.8</ele>
        <time>2024-04-14T10:07:57Z</time>
      </trkpt>
      <trkpt lat="46.02432" lon="3.19706">
        <ele>364.6</ele>
        <time>2024-04-14T10:07:58Z</time>
      </trkpt>
      <trkpt lat="46.02426" lon="3.19714">
        <ele>364.6</ele>
        <time>2024-04-14T10:07:59Z</time>
      </trkpt>
      <trkpt lat="46.02421" lon="3.19722">
        <ele>364.4</ele>
        <time>2024-04-14T10:08:00Z</time>
      </trkpt>
      <trkpt lat="46.02415" lon="3.1973">
        <ele>364.2</ele>
        <time>2024-04-14T10:08:01Z</time>
      </trkpt>
      <trkpt lat="46.0241" lon="3.19738">
        <ele>364.2</ele>
        <time>2024-04-14T10:08:02Z</time>
      </trkpt>
      <trkpt lat="46.02404" lon="3.19746">
        <ele>364</ele>
        <time>2024-04-14T10:08:03Z</time>
      </trkpt>
      <trkpt lat="46.02399" lon="3.19753">
        <ele>364</ele>
        <time>2024-04-14T10:08:04Z</time>
      </trkpt>
      <trkpt lat="46.02394" lon="3.19761">
        <ele>363.8</ele>
        <time>2024-04-14T10:08:05Z</time>
      </trkpt>
      <trkpt lat="46.02389" lon="3.19768">
        <ele>363.8</ele>
        <time>2024-04-14T10:08:06Z</time>
      </trkpt>
      <trkpt lat="46.02384" lon="3.19776">
        <ele>363.6</ele>
        <time>2024-04-14T10:08:07Z</time>
      </trkpt>
      <trkpt lat="46.02379" lon="3.19784">
        <ele>363.6</ele>
        <time>2024-04-14T10:08:08Z</time>
      </trkpt>
      <trkpt lat="46.02373" lon="3.19792">
        <ele>363.4</ele>
        <time>2024-04-14T10:08:09Z</time>
      </trkpt>
      <trkpt lat="46.02369" lon="3.19799">
        <ele>363.4</ele>
        <time>2024-04-14T10:08:10Z</time>
      </trkpt>
      <trkpt lat="46.02364" lon="3.19806">
        <ele>363.2</ele>
        <time>2024-04-14T10:08:11Z</time>
      </trkpt>
      <trkpt lat="46.02359" lon="3.19814">
        <ele>363.2</ele>
        <time>2024-04-14T10:08:12Z</time>
      </trkpt>
      <trkpt lat="46.02353" lon="3.19821">
        <ele>363</ele>
        <time>2024-04-14T10:08:13Z</time>
      </trkpt>
      <trkpt lat="46.02348" lon="3.19829">
        <ele>363</ele>
        <time>2024-04-14T10:08:14Z</time>
      </trkpt>
      <trkpt lat="46.02343" lon="3.19837">
        <ele>362.8</ele>
        <time>2024-04-14T10:08:15Z</time>
      </trkpt>
      <trkpt lat="46.02338" lon="3.19844">
        <ele>362.8</ele>
        <time>2024-04-14T10:08:16Z</time>
      </trkpt>
      <trkpt lat="46.02333" lon="3.19852">
        <ele>362.8</ele>
        <time>2024-04-14T10:08:17Z</time>
      </trkpt>
      <trkpt lat="46.02327" lon="3.1986">
        <ele>362.6</ele>
        <time>2024-04-14T10:08:18Z</time>
      </trkpt>
      <trkpt lat="46.02322" lon="3.19868">
        <ele>362.4</ele>
        <time>2024-04-14T10:08:19Z</time>
      </trkpt>
      <trkpt lat="46.02317" lon="3.19876">
        <ele>362.4</ele>
        <time>2024-04-14T10:08:20Z</time>
      </trkpt>
      <trkpt lat="46.02311" lon="3.19884">
        <ele>362.4</ele>
        <time>2024-04-14T10:08:21Z</time>
      </trkpt>
      <trkpt lat="46.02306" lon="3.19892">
        <ele>362.2</ele>
        <time>2024-04-14T10:08:22Z</time>
      </trkpt>
      <trkpt lat="46.02301" lon="3.199">
        <ele>362.2</ele>
        <time>2024-04-14T10:08:23Z</time>
      </trkpt>
      <trkpt lat="46.02296" lon="3.19908">
        <ele>362</ele>
        <time>2024-04-14T10:08:24Z</time>
      </trkpt>
      <trkpt lat="46.02291" lon="3.19916">
        <ele>361.8</ele>
        <time>2024-04-14T10:08:25Z</time>
      </trkpt>
      <trkpt lat="46.02286" lon="3.19924">
        <ele>361.6</ele>
        <time>2024-04-14T10:08:26Z</time>
      </trkpt>
      <trkpt lat="46.02281" lon="3.19931">
        <ele>361.6</ele>
        <time>2024-04-14T10:08:27Z</time>
      </trkpt>
      <trkpt lat="46.02276" lon="3.19938">
        <ele>361.4</ele>
        <time>2024-04-14T10:08:28Z</time>
      </trkpt>
      <trkpt lat="46.02271" lon="3.19946">
        <ele>361.4</ele>
        <time>2024-04-14T10:08:29Z</time>
      </trkpt>
      <trkpt lat="46.02266" lon="3.19953">
        <ele>361.2</ele>
        <time>2024-04-14T10:08:30Z</time>
      </trkpt>
      <trkpt lat="46.02261" lon="3.19961">
        <ele>361</ele>
        <time>2024-04-14T10:08:31Z</time>
      </trkpt>
      <trkpt lat="46.02256" lon="3.19968">
        <ele>361</ele>
        <time>2024-04-14T10:08:32Z</time>
      </trkpt>
      <trkpt lat="46.02251" lon="3.19976">
        <ele>360.8</ele>
        <time>2024-04-14T10:08:33Z</time>
      </trkpt>
      <trkpt lat="46.02246" lon="3.19983">
        <ele>360.6</ele>
        <time>2024-04-14T10:08:34Z</time>
      </trkpt>
      <trkpt lat="46.0224" lon="3.1999">
        <ele>360.6</ele>
        <time>2024-04-14T10:08:35Z</time>
      </trkpt>
      <trkpt lat="46.02235" lon="3.19996">
        <ele>360.4</ele>
        <time>2024-04-14T10:08:36Z</time>
      </trkpt>
      <trkpt lat="46.0223" lon="3.20003">
        <ele>360.2</ele>
        <time>2024-04-14T10:08:37Z</time>
      </trkpt>
      <trkpt lat="46.02225" lon="3.2001">
        <ele>360.2</ele>
        <time>2024-04-14T10:08:38Z</time>
      </trkpt>
      <trkpt lat="46.02219" lon="3.20016">
        <ele>360</ele>
        <time>2024-04-14T10:08:39Z</time>
      </trkpt>
      <trkpt lat="46.02214" lon="3.20023">
        <ele>360</ele>
        <time>2024-04-14T10:08:40Z</time>
      </trkpt>
      <trkpt lat="46.02209" lon="3.2003">
        <ele>359.8</ele>
        <time>2024-04-14T10:08:41Z</time>
      </trkpt>
      <trkpt lat="46.02199" lon="3.20037">
        <ele>359.8</ele>
        <time>2024-04-14T10:08:42Z</time>
      </trkpt>
      <trkpt lat="46.02193" lon="3.20034">
        <ele>359.6</ele>
        <time>2024-04-14T10:08:43Z</time>
      </trkpt>
      <trkpt lat="46.02187" lon="3.20031">
        <ele>359.4</ele>
        <time>2024-04-14T10:08:44Z</time>
      </trkpt>
      <trkpt lat="46.02179" lon="3.20028">
        <ele>359.4</ele>
        <time>2024-04-14T10:08:45Z</time>
      </trkpt>
      <trkpt lat="46.02172" lon="3.20024">
        <ele>359.4</ele>
        <time>2024-04-14T10:08:46Z</time>
      </trkpt>
      <trkpt lat="46.02166" lon="3.20019">
        <ele>359.2</ele>
        <time>2024-04-14T10:08:47Z</time>
      </trkpt>
      <trkpt lat="46.02159" lon="3.20014">
        <ele>359.2</ele>
        <time>2024-04-14T10:08:48Z</time>
      </trkpt>
      <trkpt lat="46.02152" lon="3.20008">
        <ele>359</ele>
        <time>2024-04-14T10:08:49Z</time>
      </trkpt>
      <trkpt lat="46.02146" lon="3.20003">
        <ele>359</ele>
        <time>2024-04-14T10:08:50Z</time>
      </trkpt>
      <trkpt lat="46.02139" lon="3.19998">
        <ele>358.8</ele>
        <time>2024-04-14T10:08:51Z</time>
      </trkpt>
      <trkpt lat="46.02133" lon="3.19993">
        <ele>358.6</ele>
        <time>2024-04-14T10:08:52Z</time>
      </trkpt>
      <trkpt lat="46.02126" lon="3.19987">
        <ele>358.6</ele>
        <time>2024-04-14T10:08:53Z</time>
      </trkpt>
      <trkpt lat="46.02119" lon="3.19983">
        <ele>358.4</ele>
        <time>2024-04-14T10:08:54Z</time>
      </trkpt>
      <trkpt lat="46.02112" lon="3.19979">
        <ele>358.4</ele>
        <time>2024-04-14T10:08:55Z</time>
      </trkpt>
      <trkpt lat="46.02105" lon="3.19975">
        <ele>358.4</ele>
        <time>2024-04-14T10:08:56Z</time>
      </trkpt>
      <trkpt lat="46.02098" lon="3.19974">
        <ele>358.2</ele>
        <time>2024-04-14T10:08:57Z</time>
      </trkpt>
      <trkpt lat="46.0209" lon="3.19973">
        <ele>358.2</ele>
        <time>2024-04-14T10:08:58Z</time>
      </trkpt>
      <trkpt lat="46.02083" lon="3.19973">
        <ele>358</ele>
        <time>2024-04-14T10:08:59Z</time>
      </trkpt>
      <trkpt lat="46.02075" lon="3.19973">
        <ele>358</ele>
        <time>2024-04-14T10:09:00Z</time>
      </trkpt>
      <trkpt lat="46.02068" lon="3.19974">
        <ele>358</ele>
        <time>2024-04-14T10:09:01Z</time>
      </trkpt>
      <trkpt lat="46.0206" lon="3.19975">
        <ele>357.8</ele>
        <time>2024-04-14T10:09:02Z</time>
      </trkpt>
      <trkpt lat="46.02052" lon="3.19975">
        <ele>357.8</ele>
        <time>2024-04-14T10:09:03Z</time>
      </trkpt>
      <trkpt lat="46.02045" lon="3.19975">
        <ele>357.8</ele>
        <time>2024-04-14T10:09:04Z</time>
      </trkpt>
      <trkpt lat="46.02037" lon="3.19975">
        <ele>357.6</ele>
        <time>2024-04-14T10:09:05Z</time>
      </trkpt>
      <trkpt lat="46.02029" lon="3.19975">
        <ele>357.6</ele>
        <time>2024-04-14T10:09:06Z</time>
      </trkpt>
      <trkpt lat="46.02021" lon="3.19975">
        <ele>357.4</ele>
        <time>2024-04-14T10:09:07Z</time>
      </trkpt>
      <trkpt lat="46.02014" lon="3.19975">
        <ele>357.4</ele>
        <time>2024-04-14T10:09:08Z</time>
      </trkpt>
      <trkpt lat="46.02006" lon="3.19975">
        <ele>357.2</ele>
        <time>2024-04-14T10:09:09Z</time>
      </trkpt>
      <trkpt lat="46.01998" lon="3.19974">
        <ele>357.2</ele>
        <time>2024-04-14T10:09:10Z</time>
      </trkpt>
      <trkpt lat="46.0199" lon="3.19972">
        <ele>357.2</ele>
        <time>2024-04-14T10:09:11Z</time>
      </trkpt>
      <trkpt lat="46.01982" lon="3.19971">
        <ele>357</ele>
        <time>2024-04-14T10:09:12Z</time>
      </trkpt>
      <trkpt lat="46.01975" lon="3.1997">
        <ele>357</ele>
        <time>2024-04-14T10:09:13Z</time>
      </trkpt>
      <trkpt lat="46.01967" lon="3.19968">
        <ele>356.8</ele>
        <time>2024-04-14T10:09:14Z</time>
      </trkpt>
      <trkpt lat="46.01959" lon="3.19967">
        <ele>356.8</ele>
        <time>2024-04-14T10:09:15Z</time>
      </trkpt>
      <trkpt lat="46.01952" lon="3.19966">
        <ele>356.8</ele>
        <time>2024-04-14T10:09:16Z</time>
      </trkpt>
      <trkpt lat="46.01944" lon="3.19964">
        <ele>356.8</ele>
        <time>2024-04-14T10:09:17Z</time>
      </trkpt>
      <trkpt lat="46.01936" lon="3.19962">
        <ele>356.8</ele>
        <time>2024-04-14T10:09:18Z</time>
      </trkpt>
      <trkpt lat="46.01929" lon="3.19961">
        <ele>356.8</ele>
        <time>2024-04-14T10:09:19Z</time>
      </trkpt>
      <trkpt lat="46.01921" lon="3.19959">
        <ele>356.8</ele>
        <time>2024-04-14T10:09:20Z</time>
      </trkpt>
      <trkpt lat="46.01913" lon="3.19958">
        <ele>356.8</ele>
        <time>2024-04-14T10:09:21Z</time>
      </trkpt>
      <trkpt lat="46.01906" lon="3.19956">
        <ele>356.6</ele>
        <time>2024-04-14T10:09:22Z</time>
      </trkpt>
      <trkpt lat="46.01898" lon="3.19955">
        <ele>356.6</ele>
        <time>2024-04-14T10:09:23Z</time>
      </trkpt>
      <trkpt lat="46.01891" lon="3.19953">
        <ele>356.6</ele>
        <time>2024-04-14T10:09:24Z</time>
      </trkpt>
      <trkpt lat="46.01884" lon="3.19952">
        <ele>356.6</ele>
        <time>2024-04-14T10:09:25Z</time>
      </trkpt>
      <trkpt lat="46.01876" lon="3.1995">
        <ele>356.4</ele>
        <time>2024-04-14T10:09:26Z</time>
      </trkpt>
      <trkpt lat="46.01869" lon="3.19949">
        <ele>356.4</ele>
        <time>2024-04-14T10:09:27Z</time>
      </trkpt>
      <trkpt lat="46.01861" lon="3.19947">
        <ele>356.4</ele>
        <time>2024-04-14T10:09:28Z</time>
      </trkpt>
      <trkpt lat="46.01854" lon="3.19946">
        <ele>356.4</ele>
        <time>2024-04-14T10:09:29Z</time>
      </trkpt>
      <trkpt lat="46.01847" lon="3.19945">
        <ele>356.4</ele>
        <time>2024-04-14T10:09:30Z</time>
      </trkpt>
      <trkpt lat="46.0184" lon="3.19943">
        <ele>356.2</ele>
        <time>2024-04-14T10:09:31Z</time>
      </trkpt>
      <trkpt lat="46.01833" lon="3.19942">
        <ele>356.2</ele>
        <time>2024-04-14T10:09:32Z</time>
      </trkpt>
      <trkpt lat="46.01825" lon="3.19941">
        <ele>356.2</ele>
        <time>2024-04-14T10:09:33Z</time>
      </trkpt>
      <trkpt lat="46.01818" lon="3.1994">
        <ele>356.2</ele>
        <time>2024-04-14T10:09:34Z</time>
      </trkpt>
      <trkpt lat="46.01811" lon="3.1994">
        <ele>356.2</ele>
        <time>2024-04-14T10:09:35Z</time>
      </trkpt>
      <trkpt lat="46.01804" lon="3.19939">
        <ele>356</ele>
        <time>2024-04-14T10:09:36Z</time>
      </trkpt>
      <trkpt lat="46.01796" lon="3.19942">
        <ele>356</ele>
        <time>2024-04-14T10:09:37Z</time>
      </trkpt>
      <trkpt lat="46.01792" lon="3.19951">
        <ele>356</ele>
        <time>2024-04-14T10:09:38Z</time>
      </trkpt>
      <trkpt lat="46.0179" lon="3.19961">
        <ele>356</ele>
        <time>2024-04-14T10:09:39Z</time>
      </trkpt>
      <trkpt lat="46.01789" lon="3.1997">
        <ele>355.8</ele>
        <time>2024-04-14T10:09:40Z</time>
      </trkpt>
      <trkpt lat="46.01788" lon="3.1998">
        <ele>355.8</ele>
        <time>2024-04-14T10:09:41Z</time>
      </trkpt>
      <trkpt lat="46.01787" lon="3.1999">
        <ele>355.8</ele>
        <time>2024-04-14T10:09:42Z</time>
      </trkpt>
      <trkpt lat="46.01787" lon="3.19999">
        <ele>355.8</ele>
        <time>2024-04-14T10:09:43Z</time>
      </trkpt>
      <trkpt lat="46.01786" lon="3.20008">
        <ele>355.8</ele>
        <time>2024-04-14T10:09:44Z</time>
      </trkpt>
      <trkpt lat="46.01786" lon="3.20016">
        <ele>355.6</ele>
        <time>2024-04-14T10:09:45Z</time>
      </trkpt>
      <trkpt lat="46.01785" lon="3.20022">
        <ele>355.6</ele>
        <time>2024-04-14T10:09:46Z</time>
      </trkpt>
      <trkpt lat="46.01785" lon="3.20028">
        <ele>355.6</ele>
        <time>2024-04-14T10:09:47Z</time>
      </trkpt>
      <trkpt lat="46.01785" lon="3.20033">
        <ele>355.6</ele>
        <time>2024-04-14T10:09:48Z</time>
      </trkpt>
      <trkpt lat="46.01784" lon="3.20038">
        <ele>355.6</ele>
        <time>2024-04-14T10:09:49Z</time>
      </trkpt>
      <trkpt lat="46.01784" lon="3.20042">
        <ele>355.6</ele>
        <time>2024-04-14T10:09:50Z</time>
      </trkpt>
      <trkpt lat="46.01784" lon="3.20045">
        <ele>355.6</ele>
        <time>2024-04-14T10:09:51Z</time>
      </trkpt>
      <trkpt lat="46.01784" lon="3.20047">
        <ele>355.6</ele>
        <time>2024-04-14T10:09:52Z</time>
      </trkpt>
      <trkpt lat="46.01784" lon="3.20047">
        <ele>355.4</ele>
        <time>2024-04-14T10:09:53Z</time>
      </trkpt>
      <trkpt lat="46.01784" lon="3.20047">
        <ele>355.4</ele>
        <time>2024-04-14T10:09:54Z</time>
      </trkpt>
      <trkpt lat="46.01783" lon="3.20051">
        <ele>355.2</ele>
        <time>2024-04-14T10:10:04Z</time>
      </trkpt>
      <trkpt lat="46.01783" lon="3.20054">
        <ele>355.4</ele>
        <time>2024-04-14T10:10:05Z</time>
      </trkpt>
      <trkpt lat="46.01783" lon="3.20056">
        <ele>355.4</ele>
        <time>2024-04-14T10:10:06Z</time>
      </trkpt>
      <trkpt lat="46.0178" lon="3.20069">
        <ele>355.4</ele>
        <time>2024-04-14T10:10:07Z</time>
      </trkpt>
      <trkpt lat="46.0178" lon="3.20069">
        <ele>355.2</ele>
        <time>2024-04-14T10:10:08Z</time>
      </trkpt>
      <trkpt lat="46.01775" lon="3.20068">
        <ele>355.2</ele>
        <time>2024-04-14T10:10:09Z</time>
      </trkpt>
      <trkpt lat="46.01771" lon="3.20067">
        <ele>355</ele>
        <time>2024-04-14T10:10:10Z</time>
      </trkpt>
      <trkpt lat="46.01767" lon="3.20066">
        <ele>355</ele>
        <time>2024-04-14T10:10:11Z</time>
      </trkpt>
      <trkpt lat="46.01762" lon="3.20065">
        <ele>354.8</ele>
        <time>2024-04-14T10:10:12Z</time>
      </trkpt>
      <trkpt lat="46.01757" lon="3.20064">
        <ele>354.6</ele>
        <time>2024-04-14T10:10:13Z</time>
      </trkpt>
      <trkpt lat="46.01751" lon="3.20063">
        <ele>354.2</ele>
        <time>2024-04-14T10:10:14Z</time>
      </trkpt>
      <trkpt lat="46.01745" lon="3.20062">
        <ele>354</ele>
        <time>2024-04-14T10:10:15Z</time>
      </trkpt>
      <trkpt lat="46.01739" lon="3.2006">
        <ele>353.8</ele>
        <time>2024-04-14T10:10:16Z</time>
      </trkpt>
      <trkpt lat="46.01733" lon="3.20059">
        <ele>353.6</ele>
        <time>2024-04-14T10:10:17Z</time>
      </trkpt>
      <trkpt lat="46.01728" lon="3.20058">
        <ele>353.4</ele>
        <time>2024-04-14T10:10:18Z</time>
      </trkpt>
      <trkpt lat="46.01721" lon="3.20058">
        <ele>353.2</ele>
        <time>2024-04-14T10:10:19Z</time>
      </trkpt>
      <trkpt lat="46.01715" lon="3.20057">
        <ele>353</ele>
        <time>2024-04-14T10:10:20Z</time>
      </trkpt>
      <trkpt lat="46.01709" lon="3.20055">
        <ele>352.8</ele>
        <time>2024-04-14T10:10:21Z</time>
      </trkpt>
      <trkpt lat="46.01702" lon="3.20054">
        <ele>352.6</ele>
        <time>2024-04-14T10:10:22Z</time>
      </trkpt>
      <trkpt lat="46.01696" lon="3.20052">
        <ele>352.4</ele>
        <time>2024-04-14T10:10:23Z</time>
      </trkpt>
      <trkpt lat="46.0169" lon="3.20051">
        <ele>352.2</ele>
        <time>2024-04-14T10:10:24Z</time>
      </trkpt>
      <trkpt lat="46.01684" lon="3.20049">
        <ele>352</ele>
        <time>2024-04-14T10:10:25Z</time>
      </trkpt>
      <trkpt lat="46.01678" lon="3.20047">
        <ele>351.8</ele>
        <time>2024-04-14T10:10:26Z</time>
      </trkpt>
      <trkpt lat="46.01673" lon="3.20046">
        <ele>351.6</ele>
        <time>2024-04-14T10:10:27Z</time>
      </trkpt>
      <trkpt lat="46.01667" lon="3.20044">
        <ele>351.4</ele>
        <time>2024-04-14T10:10:28Z</time>
      </trkpt>
      <trkpt lat="46.0166" lon="3.20042">
        <ele>351</ele>
        <time>2024-04-14T10:10:29Z</time>
      </trkpt>
      <trkpt lat="46.01655" lon="3.20041">
        <ele>350.8</ele>
        <time>2024-04-14T10:10:30Z</time>
      </trkpt>
      <trkpt lat="46.01649" lon="3.2004">
        <ele>350.8</ele>
        <time>2024-04-14T10:10:31Z</time>
      </trkpt>
      <trkpt lat="46.01643" lon="3.20038">
        <ele>350.6</ele>
        <time>2024-04-14T10:10:32Z</time>
      </trkpt>
      <trkpt lat="46.01638" lon="3.20037">
        <ele>350.6</ele>
        <time>2024-04-14T10:10:33Z</time>
      </trkpt>
      <trkpt lat="46.01633" lon="3.20036">
        <ele>350.4</ele>
        <time>2024-04-14T10:10:34Z</time>
      </trkpt>
      <trkpt lat="46.01628" lon="3.20035">
        <ele>350.2</ele>
        <time>2024-04-14T10:10:35Z</time>
      </trkpt>
      <trkpt lat="46.01622" lon="3.20033">
        <ele>350.2</ele>
        <time>2024-04-14T10:10:36Z</time>
      </trkpt>
      <trkpt lat="46.01618" lon="3.20032">
        <ele>350</ele>
        <time>2024-04-14T10:10:37Z</time>
      </trkpt>
      <trkpt lat="46.01613" lon="3.20031">
        <ele>350</ele>
        <time>2024-04-14T10:10:38Z</time>
      </trkpt>
      <trkpt lat="46.0161" lon="3.2003">
        <ele>349.8</ele>
        <time>2024-04-14T10:10:39Z</time>
      </trkpt>
      <trkpt lat="46.01607" lon="3.2003">
        <ele>349.6</ele>
        <time>2024-04-14T10:10:40Z</time>
      </trkpt>
      <trkpt lat="46.01605" lon="3.20029">
        <ele>349.4</ele>
        <time>2024-04-14T10:10:41Z</time>
      </trkpt>
      <trkpt lat="46.01604" lon="3.20029">
        <ele>349.2</ele>
        <time>2024-04-14T10:10:42Z</time>
      </trkpt>
      <trkpt lat="46.01603" lon="3.20029">
        <ele>349</ele>
        <time>2024-04-14T10:10:43Z</time>
      </trkpt>
      <trkpt lat="46.01602" lon="3.20028">
        <ele>349</ele>
        <time>2024-04-14T10:10:44Z</time>
      </trkpt>
      <trkpt lat="46.01602" lon="3.20028">
        <ele>348.8</ele>
        <time>2024-04-14T10:10:45Z</time>
      </trkpt>
      <trkpt lat="46.01602" lon="3.20028">
        <ele>348.8</ele>
        <time>2024-04-14T10:10:46Z</time>
      </trkpt>
      <trkpt lat="46.01596" lon="3.20027">
        <ele>347.6</ele>
        <time>2024-04-14T10:11:01Z</time>
      </trkpt>
      <trkpt lat="46.01593" lon="3.20026">
        <ele>347.8</ele>
        <time>2024-04-14T10:11:02Z</time>
      </trkpt>
      <trkpt lat="46.01591" lon="3.20026">
        <ele>347.8</ele>
        <time>2024-04-14T10:11:03Z</time>
      </trkpt>
      <trkpt lat="46.01587" lon="3.20025">
        <ele>347.8</ele>
        <time>2024-04-14T10:11:04Z</time>
      </trkpt>
      <trkpt lat="46.01583" lon="3.20024">
        <ele>347.8</ele>
        <time>2024-04-14T10:11:05Z</time>
      </trkpt>
      <trkpt lat="46.01578" lon="3.20023">
        <ele>347.8</ele>
        <time>2024-04-14T10:11:06Z</time>
      </trkpt>
      <trkpt lat="46.01573" lon="3.20022">
        <ele>347.8</ele>
        <time>2024-04-14T10:11:07Z</time>
      </trkpt>
      <trkpt lat="46.01568" lon="3.2002">
        <ele>347.8</ele>
        <time>2024-04-14T10:11:08Z</time>
      </trkpt>
      <trkpt lat="46.01563" lon="3.20018">
        <ele>347.8</ele>
        <time>2024-04-14T10:11:09Z</time>
      </trkpt>
      <trkpt lat="46.01558" lon="3.20016">
        <ele>347.6</ele>
        <time>2024-04-14T10:11:10Z</time>
      </trkpt>
      <trkpt lat="46.01552" lon="3.20014">
        <ele>347.4</ele>
        <time>2024-04-14T10:11:11Z</time>
      </trkpt>
      <trkpt lat="46.01546" lon="3.20012">
        <ele>347.2</ele>
        <time>2024-04-14T10:11:12Z</time>
      </trkpt>
      <trkpt lat="46.0154" lon="3.20011">
        <ele>347</ele>
        <time>2024-04-14T10:11:13Z</time>
      </trkpt>
      <trkpt lat="46.01533" lon="3.2001">
        <ele>347</ele>
        <time>2024-04-14T10:11:14Z</time>
      </trkpt>
      <trkpt lat="46.01527" lon="3.20008">
        <ele>346.8</ele>
        <time>2024-04-14T10:11:15Z</time>
      </trkpt>
      <trkpt lat="46.01521" lon="3.20007">
        <ele>346.8</ele>
        <time>2024-04-14T10:11:16Z</time>
      </trkpt>
      <trkpt lat="46.01515" lon="3.20005">
        <ele>347</ele>
        <time>2024-04-14T10:11:17Z</time>
      </trkpt>
      <trkpt lat="46.01509" lon="3.20003">
        <ele>347</ele>
        <time>2024-04-14T10:11:18Z</time>
      </trkpt>
      <trkpt lat="46.01503" lon="3.20002">
        <ele>347</ele>
        <time>2024-04-14T10:11:19Z</time>
      </trkpt>
      <trkpt lat="46.01498" lon="3.2">
        <ele>347</ele>
        <time>2024-04-14T10:11:20Z</time>
      </trkpt>
      <trkpt lat="46.01493" lon="3.19998">
        <ele>347.2</ele>
        <time>2024-04-14T10:11:21Z</time>
      </trkpt>
      <trkpt lat="46.01487" lon="3.19997">
        <ele>347.2</ele>
        <time>2024-04-14T10:11:22Z</time>
      </trkpt>
      <trkpt lat="46.01481" lon="3.19995">
        <ele>347.2</ele>
        <time>2024-04-14T10:11:23Z</time>
      </trkpt>
      <trkpt lat="46.01476" lon="3.19994">
        <ele>347</ele>
        <time>2024-04-14T10:11:24Z</time>
      </trkpt>
      <trkpt lat="46.01471" lon="3.19992">
        <ele>347</ele>
        <time>2024-04-14T10:11:25Z</time>
      </trkpt>
      <trkpt lat="46.01466" lon="3.19991">
        <ele>346.8</ele>
        <time>2024-04-14T10:11:26Z</time>
      </trkpt>
      <trkpt lat="46.0146" lon="3.19989">
        <ele>346.8</ele>
        <time>2024-04-14T10:11:27Z</time>
      </trkpt>
      <trkpt lat="46.01455" lon="3.19987">
        <ele>346.6</ele>
        <time>2024-04-14T10:11:28Z</time>
      </trkpt>
      <trkpt lat="46.0145" lon="3.19986">
        <ele>346.4</ele>
        <time>2024-04-14T10:11:29Z</time>
      </trkpt>
      <trkpt lat="46.01444" lon="3.19984">
        <ele>346.4</ele>
        <time>2024-04-14T10:11:30Z</time>
      </trkpt>
      <trkpt lat="46.01438" lon="3.19983">
        <ele>346.4</ele>
        <time>2024-04-14T10:11:31Z</time>
      </trkpt>
      <trkpt lat="46.01432" lon="3.19981">
        <ele>346.2</ele>
        <time>2024-04-14T10:11:32Z</time>
      </trkpt>
      <trkpt lat="46.01427" lon="3.19979">
        <ele>346.2</ele>
        <time>2024-04-14T10:11:33Z</time>
      </trkpt>
      <trkpt lat="46.0142" lon="3.19977">
        <ele>346.2</ele>
        <time>2024-04-14T10:11:34Z</time>
      </trkpt>
      <trkpt lat="46.01414" lon="3.19976">
        <ele>346.2</ele>
        <time>2024-04-14T10:11:35Z</time>
      </trkpt>
      <trkpt lat="46.01409" lon="3.19974">
        <ele>346.2</ele>
        <time>2024-04-14T10:11:36Z</time>
      </trkpt>
      <trkpt lat="46.01402" lon="3.19972">
        <ele>346.2</ele>
        <time>2024-04-14T10:11:37Z</time>
      </trkpt>
      <trkpt lat="46.01396" lon="3.1997">
        <ele>346.2</ele>
        <time>2024-04-14T10:11:38Z</time>
      </trkpt>
      <trkpt lat="46.01391" lon="3.19969">
        <ele>346.4</ele>
        <time>2024-04-14T10:11:39Z</time>
      </trkpt>
      <trkpt lat="46.01385" lon="3.19966">
        <ele>346.6</ele>
        <time>2024-04-14T10:11:40Z</time>
      </trkpt>
      <trkpt lat="46.0138" lon="3.19964">
        <ele>346.2</ele>
        <time>2024-04-14T10:11:41Z</time>
      </trkpt>
      <trkpt lat="46.01374" lon="3.19961">
        <ele>346.8</ele>
        <time>2024-04-14T10:11:42Z</time>
      </trkpt>
      <trkpt lat="46.01369" lon="3.19959">
        <ele>347.4</ele>
        <time>2024-04-14T10:11:43Z</time>
      </trkpt>
      <trkpt lat="46.01363" lon="3.19956">
        <ele>347</ele>
        <time>2024-04-14T10:11:44Z</time>
      </trkpt>
      <trkpt lat="46.01358" lon="3.19954">
        <ele>347.2</ele>
        <time>2024-04-14T10:11:45Z</time>
      </trkpt>
      <trkpt lat="46.01352" lon="3.19951">
        <ele>347.2</ele>
        <time>2024-04-14T10:11:46Z</time>
      </trkpt>
      <trkpt lat="46.01347" lon="3.19949">
        <ele>347.4</ele>
        <time>2024-04-14T10:11:47Z</time>
      </trkpt>
      <trkpt lat="46.01341" lon="3.19946">
        <ele>347.4</ele>
        <time>2024-04-14T10:11:48Z</time>
      </trkpt>
      <trkpt lat="46.01336" lon="3.19944">
        <ele>347.4</ele>
        <time>2024-04-14T10:11:49Z</time>
      </trkpt>
      <trkpt lat="46.01331" lon="3.19941">
        <ele>347.6</ele>
        <time>2024-04-14T10:11:50Z</time>
      </trkpt>
      <trkpt lat="46.01325" lon="3.19939">
        <ele>347.6</ele>
        <time>2024-04-14T10:11:51Z</time>
      </trkpt>
      <trkpt lat="46.0132" lon="3.19936">
        <ele>347.6</ele>
        <time>2024-04-14T10:11:52Z</time>
      </trkpt>
      <trkpt lat="46.01314" lon="3.19934">
        <ele>347.6</ele>
        <time>2024-04-14T10:11:53Z</time>
      </trkpt>
      <trkpt lat="46.01309" lon="3.19932">
        <ele>347.6</ele>
        <time>2024-04-14T10:11:54Z</time>
      </trkpt>
      <trkpt lat="46.01303" lon="3.19929">
        <ele>347.6</ele>
        <time>2024-04-14T10:11:55Z</time>
      </trkpt>
      <trkpt lat="46.01298" lon="3.19926">
        <ele>347.8</ele>
        <time>2024-04-14T10:11:56Z</time>
      </trkpt>
      <trkpt lat="46.01292" lon="3.19924">
        <ele>347.8</ele>
        <time>2024-04-14T10:11:57Z</time>
      </trkpt>
      <trkpt lat="46.01286" lon="3.19921">
        <ele>348</ele>
        <time>2024-04-14T10:11:58Z</time>
      </trkpt>
      <trkpt lat="46.01281" lon="3.19918">
        <ele>348</ele>
        <time>2024-04-14T10:11:59Z</time>
      </trkpt>
      <trkpt lat="46.01275" lon="3.19915">
        <ele>348.2</ele>
        <time>2024-04-14T10:12:00Z</time>
      </trkpt>
      <trkpt lat="46.0127" lon="3.19912">
        <ele>348.2</ele>
        <time>2024-04-14T10:12:01Z</time>
      </trkpt>
      <trkpt lat="46.01264" lon="3.19909">
        <ele>348.4</ele>
        <time>2024-04-14T10:12:02Z</time>
      </trkpt>
      <trkpt lat="46.01259" lon="3.19906">
        <ele>348.4</ele>
        <time>2024-04-14T10:12:03Z</time>
      </trkpt>
      <trkpt lat="46.01253" lon="3.19903">
        <ele>348.4</ele>
        <time>2024-04-14T10:12:04Z</time>
      </trkpt>
      <trkpt lat="46.01247" lon="3.199">
        <ele>348.6</ele>
        <time>2024-04-14T10:12:05Z</time>
      </trkpt>
      <trkpt lat="46.01241" lon="3.19897">
        <ele>348.6</ele>
        <time>2024-04-14T10:12:06Z</time>
      </trkpt>
      <trkpt lat="46.01235" lon="3.19894">
        <ele>348.6</ele>
        <time>2024-04-14T10:12:07Z</time>
      </trkpt>
      <trkpt lat="46.0123" lon="3.19891">
        <ele>348.8</ele>
        <time>2024-04-14T10:12:08Z</time>
      </trkpt>
      <trkpt lat="46.01224" lon="3.19888">
        <ele>348.8</ele>
        <time>2024-04-14T10:12:09Z</time>
      </trkpt>
      <trkpt lat="46.01218" lon="3.19885">
        <ele>349</ele>
        <time>2024-04-14T10:12:10Z</time>
      </trkpt>
      <trkpt lat="46.01212" lon="3.19882">
        <ele>349</ele>
        <time>2024-04-14T10:12:11Z</time>
      </trkpt>
      <trkpt lat="46.01206" lon="3.19879">
        <ele>349</ele>
        <time>2024-04-14T10:12:12Z</time>
      </trkpt>
      <trkpt lat="46.01201" lon="3.19876">
        <ele>349.2</ele>
        <time>2024-04-14T10:12:13Z</time>
      </trkpt>
      <trkpt lat="46.01194" lon="3.19873">
        <ele>349.2</ele>
        <time>2024-04-14T10:12:14Z</time>
      </trkpt>
      <trkpt lat="46.01188" lon="3.19869">
        <ele>349.4</ele>
        <time>2024-04-14T10:12:15Z</time>
      </trkpt>
      <trkpt lat="46.01182" lon="3.19866">
        <ele>349.6</ele>
        <time>2024-04-14T10:12:16Z</time>
      </trkpt>
      <trkpt lat="46.01176" lon="3.19863">
        <ele>349.6</ele>
        <time>2024-04-14T10:12:17Z</time>
      </trkpt>
      <trkpt lat="46.0117" lon="3.1986">
        <ele>349.8</ele>
        <time>2024-04-14T10:12:18Z</time>
      </trkpt>
      <trkpt lat="46.01164" lon="3.19857">
        <ele>349.8</ele>
        <time>2024-04-14T10:12:19Z</time>
      </trkpt>
      <trkpt lat="46.01158" lon="3.19854">
        <ele>350</ele>
        <time>2024-04-14T10:12:20Z</time>
      </trkpt>
      <trkpt lat="46.01152" lon="3.1985">
        <ele>350.2</ele>
        <time>2024-04-14T10:12:21Z</time>
      </trkpt>
      <trkpt lat="46.01146" lon="3.19847">
        <ele>350.2</ele>
        <time>2024-04-14T10:12:22Z</time>
      </trkpt>
      <trkpt lat="46.0114" lon="3.19844">
        <ele>350.2</ele>
        <time>2024-04-14T10:12:23Z</time>
      </trkpt>
      <trkpt lat="46.01133" lon="3.19841">
        <ele>350.4</ele>
        <time>2024-04-14T10:12:24Z</time>
      </trkpt>
      <trkpt lat="46.01127" lon="3.19837">
        <ele>350.6</ele>
        <time>2024-04-14T10:12:25Z</time>
      </trkpt>
      <trkpt lat="46.0112" lon="3.19834">
        <ele>350.8</ele>
        <time>2024-04-14T10:12:26Z</time>
      </trkpt>
      <trkpt lat="46.01114" lon="3.1983">
        <ele>350.8</ele>
        <time>2024-04-14T10:12:27Z</time>
      </trkpt>
      <trkpt lat="46.01107" lon="3.19827">
        <ele>351</ele>
        <time>2024-04-14T10:12:28Z</time>
      </trkpt>
      <trkpt lat="46.01101" lon="3.19824">
        <ele>351.2</ele>
        <time>2024-04-14T10:12:29Z</time>
      </trkpt>
      <trkpt lat="46.01095" lon="3.1982">
        <ele>351.4</ele>
        <time>2024-04-14T10:12:30Z</time>
      </trkpt>
      <trkpt lat="46.01088" lon="3.19817">
        <ele>351.6</ele>
        <time>2024-04-14T10:12:31Z</time>
      </trkpt>
      <trkpt lat="46.01082" lon="3.19814">
        <ele>351.6</ele>
        <time>2024-04-14T10:12:32Z</time>
      </trkpt>
      <trkpt lat="46.01076" lon="3.1981">
        <ele>351.8</ele>
        <time>2024-04-14T10:12:33Z</time>
      </trkpt>
      <trkpt lat="46.01069" lon="3.19807">
        <ele>352</ele>
        <time>2024-04-14T10:12:34Z</time>
      </trkpt>
      <trkpt lat="46.01063" lon="3.19802">
        <ele>352</ele>
        <time>2024-04-14T10:12:35Z</time>
      </trkpt>
      <trkpt lat="46.01058" lon="3.19797">
        <ele>352.2</ele>
        <time>2024-04-14T10:12:36Z</time>
      </trkpt>
      <trkpt lat="46.01052" lon="3.19792">
        <ele>352.4</ele>
        <time>2024-04-14T10:12:37Z</time>
      </trkpt>
      <trkpt lat="46.01046" lon="3.19787">
        <ele>352.4</ele>
        <time>2024-04-14T10:12:38Z</time>
      </trkpt>
      <trkpt lat="46.0104" lon="3.19783">
        <ele>352.6</ele>
        <time>2024-04-14T10:12:39Z</time>
      </trkpt>
      <trkpt lat="46.01035" lon="3.19778">
        <ele>352.8</ele>
        <time>2024-04-14T10:12:40Z</time>
      </trkpt>
      <trkpt lat="46.01029" lon="3.19773">
        <ele>352.8</ele>
        <time>2024-04-14T10:12:41Z</time>
      </trkpt>
      <trkpt lat="46.01023" lon="3.19769">
        <ele>353</ele>
        <time>2024-04-14T10:12:42Z</time>
      </trkpt>
      <trkpt lat="46.01018" lon="3.19764">
        <ele>353.2</ele>
        <time>2024-04-14T10:12:43Z</time>
      </trkpt>
      <trkpt lat="46.01012" lon="3.1976">
        <ele>353.2</ele>
        <time>2024-04-14T10:12:44Z</time>
      </trkpt>
      <trkpt lat="46.01007" lon="3.19751">
        <ele>353.4</ele>
        <time>2024-04-14T10:12:45Z</time>
      </trkpt>
      <trkpt lat="46.01005" lon="3.19741">
        <ele>353.4</ele>
        <time>2024-04-14T10:12:46Z</time>
      </trkpt>
      <trkpt lat="46.01003" lon="3.19732">
        <ele>353.6</ele>
        <time>2024-04-14T10:12:47Z</time>
      </trkpt>
      <trkpt lat="46.01" lon="3.19725">
        <ele>353.6</ele>
        <time>2024-04-14T10:12:48Z</time>
      </trkpt>
      <trkpt lat="46.00995" lon="3.19718">
        <ele>353.8</ele>
        <time>2024-04-14T10:12:49Z</time>
      </trkpt>
      <trkpt lat="46.00989" lon="3.19712">
        <ele>354</ele>
        <time>2024-04-14T10:12:50Z</time>
      </trkpt>
      <trkpt lat="46.00983" lon="3.19706">
        <ele>354</ele>
        <time>2024-04-14T10:12:51Z</time>
      </trkpt>
      <trkpt lat="46.00976" lon="3.19705">
        <ele>354.2</ele>
        <time>2024-04-14T10:12:52Z</time>
      </trkpt>
      <trkpt lat="46.00971" lon="3.19704">
        <ele>354.2</ele>
        <time>2024-04-14T10:12:53Z</time>
      </trkpt>
      <trkpt lat="46.00963" lon="3.1971">
        <ele>354.4</ele>
        <time>2024-04-14T10:12:54Z</time>
      </trkpt>
      <trkpt lat="46.00957" lon="3.19714">
        <ele>354.4</ele>
        <time>2024-04-14T10:12:55Z</time>
      </trkpt>
      <trkpt lat="46.00951" lon="3.19719">
        <ele>354.6</ele>
        <time>2024-04-14T10:12:56Z</time>
      </trkpt>
      <trkpt lat="46.00948" lon="3.19721">
        <ele>354.6</ele>
        <time>2024-04-14T10:12:57Z</time>
      </trkpt>
      <trkpt lat="46.00938" lon="3.19722">
        <ele>354.6</ele>
        <time>2024-04-14T10:12:58Z</time>
      </trkpt>
      <trkpt lat="46.00931" lon="3.19723">
        <ele>354.8</ele>
        <time>2024-04-14T10:12:59Z</time>
      </trkpt>
      <trkpt lat="46.00925" lon="3.19723">
        <ele>354.8</ele>
        <time>2024-04-14T10:13:00Z</time>
      </trkpt>
      <trkpt lat="46.00918" lon="3.19722">
        <ele>355</ele>
        <time>2024-04-14T10:13:01Z</time>
      </trkpt>
      <trkpt lat="46.00911" lon="3.1972">
        <ele>355</ele>
        <time>2024-04-14T10:13:02Z</time>
      </trkpt>
      <trkpt lat="46.00904" lon="3.19717">
        <ele>355.2</ele>
        <time>2024-04-14T10:13:03Z</time>
      </trkpt>
      <trkpt lat="46.00898" lon="3.19715">
        <ele>355.2</ele>
        <time>2024-04-14T10:13:04Z</time>
      </trkpt>
      <trkpt lat="46.0089" lon="3.19712">
        <ele>355.4</ele>
        <time>2024-04-14T10:13:05Z</time>
      </trkpt>
      <trkpt lat="46.00884" lon="3.1971">
        <ele>355.4</ele>
        <time>2024-04-14T10:13:06Z</time>
      </trkpt>
      <trkpt lat="46.00877" lon="3.19707">
        <ele>355.6</ele>
        <time>2024-04-14T10:13:07Z</time>
      </trkpt>
      <trkpt lat="46.00869" lon="3.19705">
        <ele>355.6</ele>
        <time>2024-04-14T10:13:08Z</time>
      </trkpt>
      <trkpt lat="46.00862" lon="3.19702">
        <ele>355.6</ele>
        <time>2024-04-14T10:13:09Z</time>
      </trkpt>
      <trkpt lat="46.00855" lon="3.19699">
        <ele>355.8</ele>
        <time>2024-04-14T10:13:10Z</time>
      </trkpt>
      <trkpt lat="46.00848" lon="3.19695">
        <ele>356</ele>
        <time>2024-04-14T10:13:11Z</time>
      </trkpt>
      <trkpt lat="46.00842" lon="3.19692">
        <ele>356</ele>
        <time>2024-04-14T10:13:12Z</time>
      </trkpt>
      <trkpt lat="46.00835" lon="3.19688">
        <ele>356</ele>
        <time>2024-04-14T10:13:13Z</time>
      </trkpt>
      <trkpt lat="46.00828" lon="3.19685">
        <ele>356.2</ele>
        <time>2024-04-14T10:13:14Z</time>
      </trkpt>
      <trkpt lat="46.00822" lon="3.19681">
        <ele>356.2</ele>
        <time>2024-04-14T10:13:15Z</time>
      </trkpt>
      <trkpt lat="46.00815" lon="3.19677">
        <ele>356.4</ele>
        <time>2024-04-14T10:13:16Z</time>
      </trkpt>
      <trkpt lat="46.00808" lon="3.19674">
        <ele>356.4</ele>
        <time>2024-04-14T10:13:17Z</time>
      </trkpt>
      <trkpt lat="46.00801" lon="3.1967">
        <ele>356.4</ele>
        <time>2024-04-14T10:13:18Z</time>
      </trkpt>
      <trkpt lat="46.00794" lon="3.19666">
        <ele>356.6</ele>
        <time>2024-04-14T10:13:19Z</time>
      </trkpt>
      <trkpt lat="46.00787" lon="3.19663">
        <ele>356.6</ele>
        <time>2024-04-14T10:13:20Z</time>
      </trkpt>
      <trkpt lat="46.00781" lon="3.19659">
        <ele>356.8</ele>
        <time>2024-04-14T10:13:21Z</time>
      </trkpt>
      <trkpt lat="46.00774" lon="3.19656">
        <ele>356.8</ele>
        <time>2024-04-14T10:13:22Z</time>
      </trkpt>
      <trkpt lat="46.00767" lon="3.19652">
        <ele>356.8</ele>
        <time>2024-04-14T10:13:23Z</time>
      </trkpt>
      <trkpt lat="46.00761" lon="3.19649">
        <ele>356.8</ele>
        <time>2024-04-14T10:13:24Z</time>
      </trkpt>
      <trkpt lat="46.00754" lon="3.19645">
        <ele>357</ele>
        <time>2024-04-14T10:13:25Z</time>
      </trkpt>
      <trkpt lat="46.00747" lon="3.19642">
        <ele>357</ele>
        <time>2024-04-14T10:13:26Z</time>
      </trkpt>
      <trkpt lat="46.0074" lon="3.19638">
        <ele>357</ele>
        <time>2024-04-14T10:13:27Z</time>
      </trkpt>
      <trkpt lat="46.00733" lon="3.19634">
        <ele>357.2</ele>
        <time>2024-04-14T10:13:28Z</time>
      </trkpt>
      <trkpt lat="46.00726" lon="3.1963">
        <ele>357.2</ele>
        <time>2024-04-14T10:13:29Z</time>
      </trkpt>
      <trkpt lat="46.00719" lon="3.19627">
        <ele>357.2</ele>
        <time>2024-04-14T10:13:30Z</time>
      </trkpt>
      <trkpt lat="46.00712" lon="3.19623">
        <ele>357.4</ele>
        <time>2024-04-14T10:13:31Z</time>
      </trkpt>
      <trkpt lat="46.00705" lon="3.19619">
        <ele>357.4</ele>
        <time>2024-04-14T10:13:32Z</time>
      </trkpt>
      <trkpt lat="46.00698" lon="3.19616">
        <ele>357.4</ele>
        <time>2024-04-14T10:13:33Z</time>
      </trkpt>
      <trkpt lat="46.00691" lon="3.19612">
        <ele>357.6</ele>
        <time>2024-04-14T10:13:34Z</time>
      </trkpt>
      <trkpt lat="46.00684" lon="3.19608">
        <ele>357.6</ele>
        <time>2024-04-14T10:13:35Z</time>
      </trkpt>
      <trkpt lat="46.00677" lon="3.19605">
        <ele>357.8</ele>
        <time>2024-04-14T10:13:36Z</time>
      </trkpt>
      <trkpt lat="46.00671" lon="3.19601">
        <ele>357.8</ele>
        <time>2024-04-14T10:13:37Z</time>
      </trkpt>
      <trkpt lat="46.00664" lon="3.19598">
        <ele>357.8</ele>
        <time>2024-04-14T10:13:38Z</time>
      </trkpt>
      <trkpt lat="46.00657" lon="3.19594">
        <ele>358</ele>
        <time>2024-04-14T10:13:39Z</time>
      </trkpt>
      <trkpt lat="46.0065" lon="3.19591">
        <ele>358</ele>
        <time>2024-04-14T10:13:40Z</time>
      </trkpt>
      <trkpt lat="46.00644" lon="3.19587">
        <ele>358.2</ele>
        <time>2024-04-14T10:13:41Z</time>
      </trkpt>
      <trkpt lat="46.00637" lon="3.19583">
        <ele>358.2</ele>
        <time>2024-04-14T10:13:42Z</time>
      </trkpt>
      <trkpt lat="46.0063" lon="3.1958">
        <ele>358.2</ele>
        <time>2024-04-14T10:13:43Z</time>
      </trkpt>
      <trkpt lat="46.00623" lon="3.19576">
        <ele>358.4</ele>
        <time>2024-04-14T10:13:44Z</time>
      </trkpt>
      <trkpt lat="46.00616" lon="3.19572">
        <ele>358.4</ele>
        <time>2024-04-14T10:13:45Z</time>
      </trkpt>
      <trkpt lat="46.00609" lon="3.19569">
        <ele>358.6</ele>
        <time>2024-04-14T10:13:46Z</time>
      </trkpt>
      <trkpt lat="46.00602" lon="3.19565">
        <ele>358.6</ele>
        <time>2024-04-14T10:13:47Z</time>
      </trkpt>
      <trkpt lat="46.00595" lon="3.19562">
        <ele>358.6</ele>
        <time>2024-04-14T10:13:48Z</time>
      </trkpt>
      <trkpt lat="46.00588" lon="3.19558">
        <ele>358.8</ele>
        <time>2024-04-14T10:13:49Z</time>
      </trkpt>
      <trkpt lat="46.00582" lon="3.19554">
        <ele>358.8</ele>
        <time>2024-04-14T10:13:50Z</time>
      </trkpt>
      <trkpt lat="46.00575" lon="3.19551">
        <ele>359</ele>
        <time>2024-04-14T10:13:51Z</time>
      </trkpt>
      <trkpt lat="46.00568" lon="3.19547">
        <ele>359</ele>
        <time>2024-04-14T10:13:52Z</time>
      </trkpt>
      <trkpt lat="46.00561" lon="3.19544">
        <ele>359</ele>
        <time>2024-04-14T10:13:53Z</time>
      </trkpt>
      <trkpt lat="46.00555" lon="3.1954">
        <ele>359.2</ele>
        <time>2024-04-14T10:13:54Z</time>
      </trkpt>
      <trkpt lat="46.00548" lon="3.19536">
        <ele>359.2</ele>
        <time>2024-04-14T10:13:55Z</time>
      </trkpt>
      <trkpt lat="46.00541" lon="3.19533">
        <ele>359.2</ele>
        <time>2024-04-14T10:13:56Z</time>
      </trkpt>
      <trkpt lat="46.00534" lon="3.19529">
        <ele>359.4</ele>
        <time>2024-04-14T10:13:57Z</time>
      </trkpt>
      <trkpt lat="46.00527" lon="3.19526">
        <ele>359.4</ele>
        <time>2024-04-14T10:13:58Z</time>
      </trkpt>
      <trkpt lat="46.0052" lon="3.19522">
        <ele>359.4</ele>
        <time>2024-04-14T10:13:59Z</time>
      </trkpt>
      <trkpt lat="46.00514" lon="3.19518">
        <ele>359.6</ele>
        <time>2024-04-14T10:14:00Z</time>
      </trkpt>
      <trkpt lat="46.00507" lon="3.19515">
        <ele>359.6</ele>
        <time>2024-04-14T10:14:01Z</time>
      </trkpt>
      <trkpt lat="46.005" lon="3.19511">
        <ele>359.6</ele>
        <time>2024-04-14T10:14:02Z</time>
      </trkpt>
      <trkpt lat="46.00493" lon="3.19508">
        <ele>359.8</ele>
        <time>2024-04-14T10:14:03Z</time>
      </trkpt>
      <trkpt lat="46.00486" lon="3.19504">
        <ele>359.8</ele>
        <time>2024-04-14T10:14:04Z</time>
      </trkpt>
      <trkpt lat="46.0048" lon="3.195">
        <ele>359.8</ele>
        <time>2024-04-14T10:14:05Z</time>
      </trkpt>
      <trkpt lat="46.00473" lon="3.19497">
        <ele>359.8</ele>
        <time>2024-04-14T10:14:06Z</time>
      </trkpt>
      <trkpt lat="46.00466" lon="3.19493">
        <ele>360</ele>
        <time>2024-04-14T10:14:07Z</time>
      </trkpt>
      <trkpt lat="46.00459" lon="3.1949">
        <ele>360</ele>
        <time>2024-04-14T10:14:08Z</time>
      </trkpt>
      <trkpt lat="46.00452" lon="3.19486">
        <ele>360</ele>
        <time>2024-04-14T10:14:09Z</time>
      </trkpt>
      <trkpt lat="46.00445" lon="3.19482">
        <ele>360.2</ele>
        <time>2024-04-14T10:14:10Z</time>
      </trkpt>
      <trkpt lat="46.00438" lon="3.19479">
        <ele>360.2</ele>
        <time>2024-04-14T10:14:11Z</time>
      </trkpt>
      <trkpt lat="46.00431" lon="3.19475">
        <ele>360.2</ele>
        <time>2024-04-14T10:14:12Z</time>
      </trkpt>
      <trkpt lat="46.00424" lon="3.19471">
        <ele>360.2</ele>
        <time>2024-04-14T10:14:13Z</time>
      </trkpt>
      <trkpt lat="46.00417" lon="3.19467">
        <ele>360.4</ele>
        <time>2024-04-14T10:14:14Z</time>
      </trkpt>
      <trkpt lat="46.0041" lon="3.19464">
        <ele>360.4</ele>
        <time>2024-04-14T10:14:15Z</time>
      </trkpt>
      <trkpt lat="46.00403" lon="3.1946">
        <ele>360.4</ele>
        <time>2024-04-14T10:14:16Z</time>
      </trkpt>
      <trkpt lat="46.00396" lon="3.19456">
        <ele>360.4</ele>
        <time>2024-04-14T10:14:17Z</time>
      </trkpt>
      <trkpt lat="46.00388" lon="3.19452">
        <ele>360.4</ele>
        <time>2024-04-14T10:14:18Z</time>
      </trkpt>
      <trkpt lat="46.00381" lon="3.19449">
        <ele>360.6</ele>
        <time>2024-04-14T10:14:19Z</time>
      </trkpt>
      <trkpt lat="46.00374" lon="3.19445">
        <ele>360.6</ele>
        <time>2024-04-14T10:14:20Z</time>
      </trkpt>
      <trkpt lat="46.00366" lon="3.19441">
        <ele>360.6</ele>
        <time>2024-04-14T10:14:21Z</time>
      </trkpt>
      <trkpt lat="46.00359" lon="3.19437">
        <ele>360.6</ele>
        <time>2024-04-14T10:14:22Z</time>
      </trkpt>
      <trkpt lat="46.00352" lon="3.19433">
        <ele>360.6</ele>
        <time>2024-04-14T10:14:23Z</time>
      </trkpt>
      <trkpt lat="46.00344" lon="3.19429">
        <ele>360.6</ele>
        <time>2024-04-14T10:14:24Z</time>
      </trkpt>
      <trkpt lat="46.00337" lon="3.19425">
        <ele>360.8</ele>
        <time>2024-04-14T10:14:25Z</time>
      </trkpt>
      <trkpt lat="46.00329" lon="3.19421">
        <ele>360.8</ele>
        <time>2024-04-14T10:14:26Z</time>
      </trkpt>
      <trkpt lat="46.00321" lon="3.19417">
        <ele>360.8</ele>
        <time>2024-04-14T10:14:27Z</time>
      </trkpt>
      <trkpt lat="46.00314" lon="3.19413">
        <ele>360.8</ele>
        <time>2024-04-14T10:14:28Z</time>
      </trkpt>
      <trkpt lat="46.00306" lon="3.19409">
        <ele>360.8</ele>
        <time>2024-04-14T10:14:29Z</time>
      </trkpt>
      <trkpt lat="46.00298" lon="3.19404">
        <ele>360.8</ele>
        <time>2024-04-14T10:14:30Z</time>
      </trkpt>
      <trkpt lat="46.00289" lon="3.194">
        <ele>360.8</ele>
        <time>2024-04-14T10:14:31Z</time>
      </trkpt>
      <trkpt lat="46.00281" lon="3.19396">
        <ele>360.8</ele>
        <time>2024-04-14T10:14:32Z</time>
      </trkpt>
      <trkpt lat="46.00273" lon="3.19391">
        <ele>360.8</ele>
        <time>2024-04-14T10:14:33Z</time>
      </trkpt>
      <trkpt lat="46.00265" lon="3.19387">
        <ele>360.6</ele>
        <time>2024-04-14T10:14:34Z</time>
      </trkpt>
      <trkpt lat="46.00256" lon="3.19383">
        <ele>360.6</ele>
        <time>2024-04-14T10:14:35Z</time>
      </trkpt>
      <trkpt lat="46.00248" lon="3.19378">
        <ele>360.6</ele>
        <time>2024-04-14T10:14:36Z</time>
      </trkpt>
      <trkpt lat="46.00239" lon="3.19374">
        <ele>360.6</ele>
        <time>2024-04-14T10:14:37Z</time>
      </trkpt>
      <trkpt lat="46.00231" lon="3.19369">
        <ele>360.6</ele>
        <time>2024-04-14T10:14:38Z</time>
      </trkpt>
      <trkpt lat="46.00223" lon="3.19365">
        <ele>360.8</ele>
        <time>2024-04-14T10:14:39Z</time>
      </trkpt>
      <trkpt lat="46.00214" lon="3.1936">
        <ele>360.6</ele>
        <time>2024-04-14T10:14:40Z</time>
      </trkpt>
      <trkpt lat="46.00206" lon="3.19356">
        <ele>360.4</ele>
        <time>2024-04-14T10:14:41Z</time>
      </trkpt>
      <trkpt lat="46.00197" lon="3.19352">
        <ele>360.2</ele>
        <time>2024-04-14T10:14:42Z</time>
      </trkpt>
      <trkpt lat="46.00189" lon="3.19347">
        <ele>360.4</ele>
        <time>2024-04-14T10:14:43Z</time>
      </trkpt>
      <trkpt lat="46.00181" lon="3.19343">
        <ele>360.4</ele>
        <time>2024-04-14T10:14:44Z</time>
      </trkpt>
      <trkpt lat="46.00172" lon="3.19338">
        <ele>360.4</ele>
        <time>2024-04-14T10:14:45Z</time>
      </trkpt>
      <trkpt lat="46.00164" lon="3.19334">
        <ele>360.2</ele>
        <time>2024-04-14T10:14:46Z</time>
      </trkpt>
      <trkpt lat="46.00155" lon="3.19329">
        <ele>360.2</ele>
        <time>2024-04-14T10:14:47Z</time>
      </trkpt>
      <trkpt lat="46.00147" lon="3.19325">
        <ele>360.2</ele>
        <time>2024-04-14T10:14:48Z</time>
      </trkpt>
      <trkpt lat="46.00139" lon="3.19321">
        <ele>360.2</ele>
        <time>2024-04-14T10:14:49Z</time>
      </trkpt>
      <trkpt lat="46.0013" lon="3.19316">
        <ele>360</ele>
        <time>2024-04-14T10:14:50Z</time>
      </trkpt>
      <trkpt lat="46.00122" lon="3.19312">
        <ele>360</ele>
        <time>2024-04-14T10:14:51Z</time>
      </trkpt>
      <trkpt lat="46.00114" lon="3.19307">
        <ele>360</ele>
        <time>2024-04-14T10:14:52Z</time>
      </trkpt>
      <trkpt lat="46.00105" lon="3.19303">
        <ele>359.8</ele>
        <time>2024-04-14T10:14:53Z</time>
      </trkpt>
      <trkpt lat="46.00097" lon="3.19298">
        <ele>359.8</ele>
        <time>2024-04-14T10:14:54Z</time>
      </trkpt>
      <trkpt lat="46.00088" lon="3.19294">
        <ele>359.8</ele>
        <time>2024-04-14T10:14:55Z</time>
      </trkpt>
      <trkpt lat="46.0008" lon="3.19289">
        <ele>359.8</ele>
        <time>2024-04-14T10:14:56Z</time>
      </trkpt>
      <trkpt lat="46.00071" lon="3.19285">
        <ele>359.6</ele>
        <time>2024-04-14T10:14:57Z</time>
      </trkpt>
      <trkpt lat="46.00063" lon="3.19281">
        <ele>359.6</ele>
        <time>2024-04-14T10:14:58Z</time>
      </trkpt>
      <trkpt lat="46.00054" lon="3.19276">
        <ele>359.6</ele>
        <time>2024-04-14T10:14:59Z</time>
      </trkpt>
      <trkpt lat="46.00046" lon="3.19272">
        <ele>359.6</ele>
        <time>2024-04-14T10:15:00Z</time>
      </trkpt>
      <trkpt lat="46.00038" lon="3.19267">
        <ele>359.6</ele>
        <time>2024-04-14T10:15:01Z</time>
      </trkpt>
      <trkpt lat="46.00029" lon="3.19263">
        <ele>359.4</ele>
        <time>2024-04-14T10:15:02Z</time>
      </trkpt>
      <trkpt lat="46.00021" lon="3.19259">
        <ele>359.4</ele>
        <time>2024-04-14T10:15:03Z</time>
      </trkpt>
      <trkpt lat="46.00013" lon="3.19255">
        <ele>359.4</ele>
        <time>2024-04-14T10:15:04Z</time>
      </trkpt>
      <trkpt lat="46.00006" lon="3.1925">
        <ele>359.4</ele>
        <time>2024-04-14T10:15:05Z</time>
      </trkpt>
      <trkpt lat="45.99998" lon="3.19246">
        <ele>359.4</ele>
        <time>2024-04-14T10:15:06Z</time>
      </trkpt>
      <trkpt lat="45.9999" lon="3.19242">
        <ele>359.4</ele>
        <time>2024-04-14T10:15:07Z</time>
      </trkpt>
      <trkpt lat="45.99982" lon="3.19238">
        <ele>359.2</ele>
        <time>2024-04-14T10:15:08Z</time>
      </trkpt>
      <trkpt lat="45.99975" lon="3.19234">
        <ele>359.2</ele>
        <time>2024-04-14T10:15:09Z</time>
      </trkpt>
      <trkpt lat="45.99967" lon="3.1923">
        <ele>359.2</ele>
        <time>2024-04-14T10:15:10Z</time>
      </trkpt>
      <trkpt lat="45.9996" lon="3.19226">
        <ele>359.2</ele>
        <time>2024-04-14T10:15:11Z</time>
      </trkpt>
      <trkpt lat="45.99953" lon="3.19222">
        <ele>359.2</ele>
        <time>2024-04-14T10:15:12Z</time>
      </trkpt>
      <trkpt lat="45.99945" lon="3.19219">
        <ele>359.2</ele>
        <time>2024-04-14T10:15:13Z</time>
      </trkpt>
      <trkpt lat="45.99938" lon="3.19215">
        <ele>359.2</ele>
        <time>2024-04-14T10:15:14Z</time>
      </trkpt>
      <trkpt lat="45.99931" lon="3.19211">
        <ele>359</ele>
        <time>2024-04-14T10:15:15Z</time>
      </trkpt>
      <trkpt lat="45.99924" lon="3.19208">
        <ele>359</ele>
        <time>2024-04-14T10:15:16Z</time>
      </trkpt>
      <trkpt lat="45.99917" lon="3.19204">
        <ele>359</ele>
        <time>2024-04-14T10:15:17Z</time>
      </trkpt>
      <trkpt lat="45.9991" lon="3.192">
        <ele>359</ele>
        <time>2024-04-14T10:15:18Z</time>
      </trkpt>
      <trkpt lat="45.99904" lon="3.19197">
        <ele>359</ele>
        <time>2024-04-14T10:15:19Z</time>
      </trkpt>
      <trkpt lat="45.99897" lon="3.19193">
        <ele>359</ele>
        <time>2024-04-14T10:15:20Z</time>
      </trkpt>
      <trkpt lat="45.9989" lon="3.19189">
        <ele>359</ele>
        <time>2024-04-14T10:15:21Z</time>
      </trkpt>
      <trkpt lat="45.99883" lon="3.19186">
        <ele>359</ele>
        <time>2024-04-14T10:15:22Z</time>
      </trkpt>
      <trkpt lat="45.99877" lon="3.19182">
        <ele>359</ele>
        <time>2024-04-14T10:15:23Z</time>
      </trkpt>
      <trkpt lat="45.9987" lon="3.19179">
        <ele>359</ele>
        <time>2024-04-14T10:15:24Z</time>
      </trkpt>
      <trkpt lat="45.99864" lon="3.19176">
        <ele>359</ele>
        <time>2024-04-14T10:15:25Z</time>
      </trkpt>
      <trkpt lat="45.99857" lon="3.19172">
        <ele>359</ele>
        <time>2024-04-14T10:15:26Z</time>
      </trkpt>
      <trkpt lat="45.99851" lon="3.19169">
        <ele>359</ele>
        <time>2024-04-14T10:15:27Z</time>
      </trkpt>
      <trkpt lat="45.99844" lon="3.19165">
        <ele>359</ele>
        <time>2024-04-14T10:15:28Z</time>
      </trkpt>
      <trkpt lat="45.99838" lon="3.19162">
        <ele>359</ele>
        <time>2024-04-14T10:15:29Z</time>
      </trkpt>
      <trkpt lat="45.99831" lon="3.19159">
        <ele>359</ele>
        <time>2024-04-14T10:15:30Z</time>
      </trkpt>
      <trkpt lat="45.99825" lon="3.19155">
        <ele>359</ele>
        <time>2024-04-14T10:15:31Z</time>
      </trkpt>
      <trkpt lat="45.99818" lon="3.19152">
        <ele>359</ele>
        <time>2024-04-14T10:15:32Z</time>
      </trkpt>
      <trkpt lat="45.99812" lon="3.19148">
        <ele>359</ele>
        <time>2024-04-14T10:15:33Z</time>
      </trkpt>
      <trkpt lat="45.99806" lon="3.19145">
        <ele>359</ele>
        <time>2024-04-14T10:15:34Z</time>
      </trkpt>
      <trkpt lat="45.99799" lon="3.19142">
        <ele>359</ele>
        <time>2024-04-14T10:15:35Z</time>
      </trkpt>
      <trkpt lat="45.99793" lon="3.19138">
        <ele>359</ele>
        <time>2024-04-14T10:15:36Z</time>
      </trkpt>
      <trkpt lat="45.99787" lon="3.19135">
        <ele>359.2</ele>
        <time>2024-04-14T10:15:37Z</time>
      </trkpt>
      <trkpt lat="45.9978" lon="3.19132">
        <ele>359.2</ele>
        <time>2024-04-14T10:15:38Z</time>
      </trkpt>
      <trkpt lat="45.99774" lon="3.19128">
        <ele>359.4</ele>
        <time>2024-04-14T10:15:39Z</time>
      </trkpt>
      <trkpt lat="45.99768" lon="3.19125">
        <ele>359.2</ele>
        <time>2024-04-14T10:15:40Z</time>
      </trkpt>
      <trkpt lat="45.99761" lon="3.19121">
        <ele>359.2</ele>
        <time>2024-04-14T10:15:41Z</time>
      </trkpt>
      <trkpt lat="45.99755" lon="3.19118">
        <ele>359.4</ele>
        <time>2024-04-14T10:15:42Z</time>
      </trkpt>
      <trkpt lat="45.99749" lon="3.19115">
        <ele>359.4</ele>
        <time>2024-04-14T10:15:43Z</time>
      </trkpt>
      <trkpt lat="45.99742" lon="3.19112">
        <ele>359.4</ele>
        <time>2024-04-14T10:15:44Z</time>
      </trkpt>
      <trkpt lat="45.99736" lon="3.19108">
        <ele>359.4</ele>
        <time>2024-04-14T10:15:45Z</time>
      </trkpt>
      <trkpt lat="45.9973" lon="3.19105">
        <ele>359.4</ele>
        <time>2024-04-14T10:15:46Z</time>
      </trkpt>
      <trkpt lat="45.99724" lon="3.19102">
        <ele>359.4</ele>
        <time>2024-04-14T10:15:47Z</time>
      </trkpt>
      <trkpt lat="45.99717" lon="3.19098">
        <ele>359.4</ele>
        <time>2024-04-14T10:15:48Z</time>
      </trkpt>
      <trkpt lat="45.99711" lon="3.19095">
        <ele>359.4</ele>
        <time>2024-04-14T10:15:49Z</time>
      </trkpt>
      <trkpt lat="45.99705" lon="3.19092">
        <ele>359.4</ele>
        <time>2024-04-14T10:15:50Z</time>
      </trkpt>
      <trkpt lat="45.99698" lon="3.19088">
        <ele>359.4</ele>
        <time>2024-04-14T10:15:51Z</time>
      </trkpt>
      <trkpt lat="45.99692" lon="3.19085">
        <ele>359.4</ele>
        <time>2024-04-14T10:15:52Z</time>
      </trkpt>
      <trkpt lat="45.99686" lon="3.19082">
        <ele>359.4</ele>
        <time>2024-04-14T10:15:53Z</time>
      </trkpt>
      <trkpt lat="45.99679" lon="3.19078">
        <ele>359.4</ele>
        <time>2024-04-14T10:15:54Z</time>
      </trkpt>
      <trkpt lat="45.99673" lon="3.19075">
        <ele>359.6</ele>
        <time>2024-04-14T10:15:55Z</time>
      </trkpt>
      <trkpt lat="45.99667" lon="3.19072">
        <ele>359.6</ele>
        <time>2024-04-14T10:15:56Z</time>
      </trkpt>
      <trkpt lat="45.9966" lon="3.19068">
        <ele>359.6</ele>
        <time>2024-04-14T10:15:57Z</time>
      </trkpt>
      <trkpt lat="45.99654" lon="3.19065">
        <ele>359.6</ele>
        <time>2024-04-14T10:15:58Z</time>
      </trkpt>
      <trkpt lat="45.99648" lon="3.19062">
        <ele>359.6</ele>
        <time>2024-04-14T10:15:59Z</time>
      </trkpt>
      <trkpt lat="45.99641" lon="3.19058">
        <ele>359.6</ele>
        <time>2024-04-14T10:16:00Z</time>
      </trkpt>
      <trkpt lat="45.99635" lon="3.19055">
        <ele>359.8</ele>
        <time>2024-04-14T10:16:01Z</time>
      </trkpt>
      <trkpt lat="45.99629" lon="3.19052">
        <ele>359.8</ele>
        <time>2024-04-14T10:16:02Z</time>
      </trkpt>
      <trkpt lat="45.99623" lon="3.19048">
        <ele>359.8</ele>
        <time>2024-04-14T10:16:03Z</time>
      </trkpt>
      <trkpt lat="45.99617" lon="3.19045">
        <ele>359.8</ele>
        <time>2024-04-14T10:16:04Z</time>
      </trkpt>
      <trkpt lat="45.9961" lon="3.19042">
        <ele>359.8</ele>
        <time>2024-04-14T10:16:05Z</time>
      </trkpt>
      <trkpt lat="45.99604" lon="3.19039">
        <ele>360</ele>
        <time>2024-04-14T10:16:06Z</time>
      </trkpt>
      <trkpt lat="45.99598" lon="3.19035">
        <ele>360</ele>
        <time>2024-04-14T10:16:07Z</time>
      </trkpt>
      <trkpt lat="45.99592" lon="3.19032">
        <ele>360</ele>
        <time>2024-04-14T10:16:08Z</time>
      </trkpt>
      <trkpt lat="45.99586" lon="3.19029">
        <ele>360</ele>
        <time>2024-04-14T10:16:09Z</time>
      </trkpt>
      <trkpt lat="45.9958" lon="3.19026">
        <ele>360.2</ele>
        <time>2024-04-14T10:16:10Z</time>
      </trkpt>
      <trkpt lat="45.99574" lon="3.19023">
        <ele>360.2</ele>
        <time>2024-04-14T10:16:11Z</time>
      </trkpt>
      <trkpt lat="45.99568" lon="3.19019">
        <ele>360.2</ele>
        <time>2024-04-14T10:16:12Z</time>
      </trkpt>
      <trkpt lat="45.99562" lon="3.19016">
        <ele>360.4</ele>
        <time>2024-04-14T10:16:13Z</time>
      </trkpt>
      <trkpt lat="45.99556" lon="3.19013">
        <ele>360.4</ele>
        <time>2024-04-14T10:16:14Z</time>
      </trkpt>
      <trkpt lat="45.9955" lon="3.1901">
        <ele>360.4</ele>
        <time>2024-04-14T10:16:15Z</time>
      </trkpt>
      <trkpt lat="45.99544" lon="3.19007">
        <ele>360.4</ele>
        <time>2024-04-14T10:16:16Z</time>
      </trkpt>
      <trkpt lat="45.99538" lon="3.19004">
        <ele>360.4</ele>
        <time>2024-04-14T10:16:17Z</time>
      </trkpt>
      <trkpt lat="45.99532" lon="3.19001">
        <ele>360.4</ele>
        <time>2024-04-14T10:16:18Z</time>
      </trkpt>
      <trkpt lat="45.99526" lon="3.18997">
        <ele>360.4</ele>
        <time>2024-04-14T10:16:19Z</time>
      </trkpt>
      <trkpt lat="45.9952" lon="3.18994">
        <ele>360.6</ele>
        <time>2024-04-14T10:16:20Z</time>
      </trkpt>
      <trkpt lat="45.99514" lon="3.18991">
        <ele>360.6</ele>
        <time>2024-04-14T10:16:21Z</time>
      </trkpt>
      <trkpt lat="45.99508" lon="3.18988">
        <ele>360.6</ele>
        <time>2024-04-14T10:16:22Z</time>
      </trkpt>
      <trkpt lat="45.99502" lon="3.18985">
        <ele>360.6</ele>
        <time>2024-04-14T10:16:23Z</time>
      </trkpt>
      <trkpt lat="45.99496" lon="3.18982">
        <ele>360.6</ele>
        <time>2024-04-14T10:16:24Z</time>
      </trkpt>
      <trkpt lat="45.9949" lon="3.18979">
        <ele>360.6</ele>
        <time>2024-04-14T10:16:25Z</time>
      </trkpt>
      <trkpt lat="45.99485" lon="3.18976">
        <ele>360.6</ele>
        <time>2024-04-14T10:16:26Z</time>
      </trkpt>
      <trkpt lat="45.99479" lon="3.18973">
        <ele>360.6</ele>
        <time>2024-04-14T10:16:27Z</time>
      </trkpt>
      <trkpt lat="45.99473" lon="3.1897">
        <ele>360.8</ele>
        <time>2024-04-14T10:16:28Z</time>
      </trkpt>
      <trkpt lat="45.99468" lon="3.18967">
        <ele>360.8</ele>
        <time>2024-04-14T10:16:29Z</time>
      </trkpt>
      <trkpt lat="45.99462" lon="3.18964">
        <ele>360.8</ele>
        <time>2024-04-14T10:16:30Z</time>
      </trkpt>
      <trkpt lat="45.99457" lon="3.18961">
        <ele>360.8</ele>
        <time>2024-04-14T10:16:31Z</time>
      </trkpt>
      <trkpt lat="45.99451" lon="3.18958">
        <ele>360.8</ele>
        <time>2024-04-14T10:16:32Z</time>
      </trkpt>
      <trkpt lat="45.99446" lon="3.18955">
        <ele>361</ele>
        <time>2024-04-14T10:16:33Z</time>
      </trkpt>
      <trkpt lat="45.9944" lon="3.18952">
        <ele>361</ele>
        <time>2024-04-14T10:16:34Z</time>
      </trkpt>
      <trkpt lat="45.99435" lon="3.18949">
        <ele>361</ele>
        <time>2024-04-14T10:16:35Z</time>
      </trkpt>
      <trkpt lat="45.9943" lon="3.18947">
        <ele>361</ele>
        <time>2024-04-14T10:16:36Z</time>
      </trkpt>
      <trkpt lat="45.99424" lon="3.18944">
        <ele>361.2</ele>
        <time>2024-04-14T10:16:37Z</time>
      </trkpt>
      <trkpt lat="45.99419" lon="3.18941">
        <ele>361.2</ele>
        <time>2024-04-14T10:16:38Z</time>
      </trkpt>
      <trkpt lat="45.99414" lon="3.18938">
        <ele>361.2</ele>
        <time>2024-04-14T10:16:39Z</time>
      </trkpt>
      <trkpt lat="45.99409" lon="3.18936">
        <ele>361.2</ele>
        <time>2024-04-14T10:16:40Z</time>
      </trkpt>
      <trkpt lat="45.99404" lon="3.18933">
        <ele>361.4</ele>
        <time>2024-04-14T10:16:41Z</time>
      </trkpt>
      <trkpt lat="45.99399" lon="3.1893">
        <ele>361.4</ele>
        <time>2024-04-14T10:16:42Z</time>
      </trkpt>
      <trkpt lat="45.99394" lon="3.18927">
        <ele>361.4</ele>
        <time>2024-04-14T10:16:43Z</time>
      </trkpt>
      <trkpt lat="45.99389" lon="3.18925">
        <ele>361.4</ele>
        <time>2024-04-14T10:16:44Z</time>
      </trkpt>
      <trkpt lat="45.99384" lon="3.18922">
        <ele>361.4</ele>
        <time>2024-04-14T10:16:45Z</time>
      </trkpt>
      <trkpt lat="45.99379" lon="3.1892">
        <ele>361.4</ele>
        <time>2024-04-14T10:16:46Z</time>
      </trkpt>
      <trkpt lat="45.99374" lon="3.18917">
        <ele>361.6</ele>
        <time>2024-04-14T10:16:47Z</time>
      </trkpt>
      <trkpt lat="45.99369" lon="3.18914">
        <ele>361.6</ele>
        <time>2024-04-14T10:16:48Z</time>
      </trkpt>
      <trkpt lat="45.99364" lon="3.18912">
        <ele>361.6</ele>
        <time>2024-04-14T10:16:49Z</time>
      </trkpt>
      <trkpt lat="45.99359" lon="3.18909">
        <ele>361.8</ele>
        <time>2024-04-14T10:16:50Z</time>
      </trkpt>
      <trkpt lat="45.99354" lon="3.18907">
        <ele>361.8</ele>
        <time>2024-04-14T10:16:51Z</time>
      </trkpt>
      <trkpt lat="45.99349" lon="3.18904">
        <ele>361.8</ele>
        <time>2024-04-14T10:16:52Z</time>
      </trkpt>
      <trkpt lat="45.99344" lon="3.18901">
        <ele>362</ele>
        <time>2024-04-14T10:16:53Z</time>
      </trkpt>
      <trkpt lat="45.99339" lon="3.18899">
        <ele>362</ele>
        <time>2024-04-14T10:16:54Z</time>
      </trkpt>
      <trkpt lat="45.99334" lon="3.18896">
        <ele>362</ele>
        <time>2024-04-14T10:16:55Z</time>
      </trkpt>
      <trkpt lat="45.99329" lon="3.18894">
        <ele>362.2</ele>
        <time>2024-04-14T10:16:56Z</time>
      </trkpt>
      <trkpt lat="45.99324" lon="3.18891">
        <ele>362.2</ele>
        <time>2024-04-14T10:16:57Z</time>
      </trkpt>
      <trkpt lat="45.99319" lon="3.18888">
        <ele>362.4</ele>
        <time>2024-04-14T10:16:58Z</time>
      </trkpt>
      <trkpt lat="45.99314" lon="3.18886">
        <ele>362.4</ele>
        <time>2024-04-14T10:16:59Z</time>
      </trkpt>
      <trkpt lat="45.99309" lon="3.18883">
        <ele>362.4</ele>
        <time>2024-04-14T10:17:00Z</time>
      </trkpt>
      <trkpt lat="45.99305" lon="3.18881">
        <ele>362.4</ele>
        <time>2024-04-14T10:17:01Z</time>
      </trkpt>
      <trkpt lat="45.993" lon="3.18878">
        <ele>362.6</ele>
        <time>2024-04-14T10:17:02Z</time>
      </trkpt>
      <trkpt lat="45.99295" lon="3.18875">
        <ele>362.6</ele>
        <time>2024-04-14T10:17:03Z</time>
      </trkpt>
      <trkpt lat="45.9929" lon="3.18873">
        <ele>362.6</ele>
        <time>2024-04-14T10:17:04Z</time>
      </trkpt>
      <trkpt lat="45.99285" lon="3.1887">
        <ele>362.8</ele>
        <time>2024-04-14T10:17:05Z</time>
      </trkpt>
      <trkpt lat="45.9928" lon="3.18868">
        <ele>362.8</ele>
        <time>2024-04-14T10:17:06Z</time>
      </trkpt>
      <trkpt lat="45.99276" lon="3.18865">
        <ele>362.8</ele>
        <time>2024-04-14T10:17:07Z</time>
      </trkpt>
      <trkpt lat="45.99271" lon="3.18863">
        <ele>363</ele>
        <time>2024-04-14T10:17:08Z</time>
      </trkpt>
      <trkpt lat="45.99266" lon="3.1886">
        <ele>363</ele>
        <time>2024-04-14T10:17:09Z</time>
      </trkpt>
      <trkpt lat="45.99261" lon="3.18857">
        <ele>363</ele>
        <time>2024-04-14T10:17:10Z</time>
      </trkpt>
      <trkpt lat="45.99256" lon="3.18855">
        <ele>363.2</ele>
        <time>2024-04-14T10:17:11Z</time>
      </trkpt>
      <trkpt lat="45.99251" lon="3.18852">
        <ele>363.2</ele>
        <time>2024-04-14T10:17:12Z</time>
      </trkpt>
      <trkpt lat="45.99246" lon="3.18849">
        <ele>363.4</ele>
        <time>2024-04-14T10:17:13Z</time>
      </trkpt>
      <trkpt lat="45.99241" lon="3.18847">
        <ele>363.4</ele>
        <time>2024-04-14T10:17:14Z</time>
      </trkpt>
      <trkpt lat="45.99236" lon="3.18844">
        <ele>363.4</ele>
        <time>2024-04-14T10:17:15Z</time>
      </trkpt>
      <trkpt lat="45.9923" lon="3.18841">
        <ele>363.6</ele>
        <time>2024-04-14T10:17:16Z</time>
      </trkpt>
      <trkpt lat="45.99225" lon="3.18839">
        <ele>363.6</ele>
        <time>2024-04-14T10:17:17Z</time>
      </trkpt>
      <trkpt lat="45.9922" lon="3.18836">
        <ele>363.6</ele>
        <time>2024-04-14T10:17:18Z</time>
      </trkpt>
      <trkpt lat="45.99215" lon="3.18833">
        <ele>363.8</ele>
        <time>2024-04-14T10:17:19Z</time>
      </trkpt>
      <trkpt lat="45.99209" lon="3.1883">
        <ele>363.8</ele>
        <time>2024-04-14T10:17:20Z</time>
      </trkpt>
      <trkpt lat="45.99204" lon="3.18828">
        <ele>363.8</ele>
        <time>2024-04-14T10:17:21Z</time>
      </trkpt>
      <trkpt lat="45.99199" lon="3.18825">
        <ele>364</ele>
        <time>2024-04-14T10:17:22Z</time>
      </trkpt>
      <trkpt lat="45.99193" lon="3.18822">
        <ele>364</ele>
        <time>2024-04-14T10:17:23Z</time>
      </trkpt>
      <trkpt lat="45.99188" lon="3.18819">
        <ele>364</ele>
        <time>2024-04-14T10:17:24Z</time>
      </trkpt>
      <trkpt lat="45.99183" lon="3.18816">
        <ele>364.2</ele>
        <time>2024-04-14T10:17:25Z</time>
      </trkpt>
      <trkpt lat="45.99177" lon="3.18813">
        <ele>364.2</ele>
        <time>2024-04-14T10:17:26Z</time>
      </trkpt>
      <trkpt lat="45.99172" lon="3.18811">
        <ele>364.2</ele>
        <time>2024-04-14T10:17:27Z</time>
      </trkpt>
      <trkpt lat="45.99166" lon="3.18808">
        <ele>364.4</ele>
        <time>2024-04-14T10:17:28Z</time>
      </trkpt>
      <trkpt lat="45.99161" lon="3.18805">
        <ele>364.4</ele>
        <time>2024-04-14T10:17:29Z</time>
      </trkpt>
      <trkpt lat="45.99155" lon="3.18802">
        <ele>364.4</ele>
        <time>2024-04-14T10:17:30Z</time>
      </trkpt>
      <trkpt lat="45.99149" lon="3.18799">
        <ele>364.6</ele>
        <time>2024-04-14T10:17:31Z</time>
      </trkpt>
      <trkpt lat="45.99143" lon="3.18795">
        <ele>364.6</ele>
        <time>2024-04-14T10:17:32Z</time>
      </trkpt>
      <trkpt lat="45.99137" lon="3.18792">
        <ele>364.6</ele>
        <time>2024-04-14T10:17:33Z</time>
      </trkpt>
      <trkpt lat="45.99132" lon="3.18789">
        <ele>364.6</ele>
        <time>2024-04-14T10:17:34Z</time>
      </trkpt>
      <trkpt lat="45.99126" lon="3.18786">
        <ele>364.6</ele>
        <time>2024-04-14T10:17:35Z</time>
      </trkpt>
      <trkpt lat="45.9912" lon="3.18783">
        <ele>364.6</ele>
        <time>2024-04-14T10:17:36Z</time>
      </trkpt>
      <trkpt lat="45.99113" lon="3.1878">
        <ele>364.6</ele>
        <time>2024-04-14T10:17:37Z</time>
      </trkpt>
      <trkpt lat="45.99107" lon="3.18776">
        <ele>364.6</ele>
        <time>2024-04-14T10:17:38Z</time>
      </trkpt>
      <trkpt lat="45.991" lon="3.18773">
        <ele>364.6</ele>
        <time>2024-04-14T10:17:39Z</time>
      </trkpt>
      <trkpt lat="45.99093" lon="3.18769">
        <ele>364.6</ele>
        <time>2024-04-14T10:17:40Z</time>
      </trkpt>
      <trkpt lat="45.99086" lon="3.18765">
        <ele>364.6</ele>
        <time>2024-04-14T10:17:41Z</time>
      </trkpt>
      <trkpt lat="45.99079" lon="3.18762">
        <ele>364.6</ele>
        <time>2024-04-14T10:17:42Z</time>
      </trkpt>
      <trkpt lat="45.99072" lon="3.18758">
        <ele>364.6</ele>
        <time>2024-04-14T10:17:43Z</time>
      </trkpt>
      <trkpt lat="45.99065" lon="3.18754">
        <ele>364.6</ele>
        <time>2024-04-14T10:17:44Z</time>
      </trkpt>
      <trkpt lat="45.99058" lon="3.1875">
        <ele>364.6</ele>
        <time>2024-04-14T10:17:45Z</time>
      </trkpt>
      <trkpt lat="45.99051" lon="3.18746">
        <ele>364.6</ele>
        <time>2024-04-14T10:17:46Z</time>
      </trkpt>
      <trkpt lat="45.99043" lon="3.18742">
        <ele>364.4</ele>
        <time>2024-04-14T10:17:47Z</time>
      </trkpt>
      <trkpt lat="45.99036" lon="3.18738">
        <ele>364.4</ele>
        <time>2024-04-14T10:17:48Z</time>
      </trkpt>
      <trkpt lat="45.99028" lon="3.18735">
        <ele>365</ele>
        <time>2024-04-14T10:17:49Z</time>
      </trkpt>
      <trkpt lat="45.99021" lon="3.18731">
        <ele>364.8</ele>
        <time>2024-04-14T10:17:50Z</time>
      </trkpt>
      <trkpt lat="45.99014" lon="3.18727">
        <ele>364.8</ele>
        <time>2024-04-14T10:17:51Z</time>
      </trkpt>
      <trkpt lat="45.99006" lon="3.18723">
        <ele>364.6</ele>
        <time>2024-04-14T10:17:52Z</time>
      </trkpt>
      <trkpt lat="45.98999" lon="3.18719">
        <ele>364.4</ele>
        <time>2024-04-14T10:17:53Z</time>
      </trkpt>
      <trkpt lat="45.98991" lon="3.18715">
        <ele>364.2</ele>
        <time>2024-04-14T10:17:54Z</time>
      </trkpt>
      <trkpt lat="45.98984" lon="3.18711">
        <ele>364.2</ele>
        <time>2024-04-14T10:17:55Z</time>
      </trkpt>
      <trkpt lat="45.98976" lon="3.18707">
        <ele>364.4</ele>
        <time>2024-04-14T10:17:56Z</time>
      </trkpt>
      <trkpt lat="45.98968" lon="3.18703">
        <ele>364.2</ele>
        <time>2024-04-14T10:17:57Z</time>
      </trkpt>
      <trkpt lat="45.98961" lon="3.18698">
        <ele>364.2</ele>
        <time>2024-04-14T10:17:58Z</time>
      </trkpt>
      <trkpt lat="45.98953" lon="3.18694">
        <ele>364.2</ele>
        <time>2024-04-14T10:17:59Z</time>
      </trkpt>
      <trkpt lat="45.98945" lon="3.1869">
        <ele>364</ele>
        <time>2024-04-14T10:18:00Z</time>
      </trkpt>
      <trkpt lat="45.98937" lon="3.18686">
        <ele>364</ele>
        <time>2024-04-14T10:18:01Z</time>
      </trkpt>
      <trkpt lat="45.98929" lon="3.18682">
        <ele>363.8</ele>
        <time>2024-04-14T10:18:02Z</time>
      </trkpt>
      <trkpt lat="45.98921" lon="3.18677">
        <ele>363.8</ele>
        <time>2024-04-14T10:18:03Z</time>
      </trkpt>
      <trkpt lat="45.98913" lon="3.18673">
        <ele>363.8</ele>
        <time>2024-04-14T10:18:04Z</time>
      </trkpt>
      <trkpt lat="45.98905" lon="3.18669">
        <ele>363.6</ele>
        <time>2024-04-14T10:18:05Z</time>
      </trkpt>
      <trkpt lat="45.98898" lon="3.18665">
        <ele>363.6</ele>
        <time>2024-04-14T10:18:06Z</time>
      </trkpt>
      <trkpt lat="45.9889" lon="3.18661">
        <ele>363.6</ele>
        <time>2024-04-14T10:18:07Z</time>
      </trkpt>
      <trkpt lat="45.98882" lon="3.18657">
        <ele>363.4</ele>
        <time>2024-04-14T10:18:08Z</time>
      </trkpt>
      <trkpt lat="45.98874" lon="3.18652">
        <ele>363.4</ele>
        <time>2024-04-14T10:18:09Z</time>
      </trkpt>
      <trkpt lat="45.98866" lon="3.18648">
        <ele>363.4</ele>
        <time>2024-04-14T10:18:10Z</time>
      </trkpt>
      <trkpt lat="45.98858" lon="3.18644">
        <ele>363.2</ele>
        <time>2024-04-14T10:18:11Z</time>
      </trkpt>
      <trkpt lat="45.98851" lon="3.1864">
        <ele>363.2</ele>
        <time>2024-04-14T10:18:12Z</time>
      </trkpt>
      <trkpt lat="45.98843" lon="3.18636">
        <ele>363</ele>
        <time>2024-04-14T10:18:13Z</time>
      </trkpt>
      <trkpt lat="45.98835" lon="3.18632">
        <ele>363</ele>
        <time>2024-04-14T10:18:14Z</time>
      </trkpt>
      <trkpt lat="45.98828" lon="3.18628">
        <ele>363</ele>
        <time>2024-04-14T10:18:15Z</time>
      </trkpt>
      <trkpt lat="45.9882" lon="3.18624">
        <ele>363</ele>
        <time>2024-04-14T10:18:16Z</time>
      </trkpt>
      <trkpt lat="45.98813" lon="3.1862">
        <ele>362.8</ele>
        <time>2024-04-14T10:18:17Z</time>
      </trkpt>
      <trkpt lat="45.98805" lon="3.18616">
        <ele>362.8</ele>
        <time>2024-04-14T10:18:18Z</time>
      </trkpt>
      <trkpt lat="45.98798" lon="3.18612">
        <ele>362.8</ele>
        <time>2024-04-14T10:18:19Z</time>
      </trkpt>
      <trkpt lat="45.9879" lon="3.18608">
        <ele>362.8</ele>
        <time>2024-04-14T10:18:20Z</time>
      </trkpt>
      <trkpt lat="45.98783" lon="3.18604">
        <ele>362.8</ele>
        <time>2024-04-14T10:18:21Z</time>
      </trkpt>
      <trkpt lat="45.98775" lon="3.186">
        <ele>362.8</ele>
        <time>2024-04-14T10:18:22Z</time>
      </trkpt>
      <trkpt lat="45.98768" lon="3.18596">
        <ele>362.8</ele>
        <time>2024-04-14T10:18:23Z</time>
      </trkpt>
      <trkpt lat="45.98761" lon="3.18593">
        <ele>362.6</ele>
        <time>2024-04-14T10:18:24Z</time>
      </trkpt>
      <trkpt lat="45.98754" lon="3.18589">
        <ele>362.6</ele>
        <time>2024-04-14T10:18:25Z</time>
      </trkpt>
      <trkpt lat="45.98747" lon="3.18586">
        <ele>362.6</ele>
        <time>2024-04-14T10:18:26Z</time>
      </trkpt>
      <trkpt lat="45.98739" lon="3.18582">
        <ele>362.6</ele>
        <time>2024-04-14T10:18:27Z</time>
      </trkpt>
      <trkpt lat="45.98732" lon="3.18578">
        <ele>362.6</ele>
        <time>2024-04-14T10:18:28Z</time>
      </trkpt>
      <trkpt lat="45.98725" lon="3.18575">
        <ele>362.6</ele>
        <time>2024-04-14T10:18:29Z</time>
      </trkpt>
      <trkpt lat="45.98718" lon="3.18571">
        <ele>362.6</ele>
        <time>2024-04-14T10:18:30Z</time>
      </trkpt>
      <trkpt lat="45.98711" lon="3.18568">
        <ele>362.6</ele>
        <time>2024-04-14T10:18:31Z</time>
      </trkpt>
      <trkpt lat="45.98704" lon="3.18564">
        <ele>362.6</ele>
        <time>2024-04-14T10:18:32Z</time>
      </trkpt>
      <trkpt lat="45.98698" lon="3.18561">
        <ele>362.6</ele>
        <time>2024-04-14T10:18:33Z</time>
      </trkpt>
      <trkpt lat="45.98691" lon="3.18558">
        <ele>362.4</ele>
        <time>2024-04-14T10:18:34Z</time>
      </trkpt>
      <trkpt lat="45.98684" lon="3.18554">
        <ele>362.4</ele>
        <time>2024-04-14T10:18:35Z</time>
      </trkpt>
      <trkpt lat="45.98677" lon="3.1855">
        <ele>362.4</ele>
        <time>2024-04-14T10:18:36Z</time>
      </trkpt>
      <trkpt lat="45.98671" lon="3.18547">
        <ele>362.4</ele>
        <time>2024-04-14T10:18:37Z</time>
      </trkpt>
      <trkpt lat="45.98664" lon="3.18543">
        <ele>362.4</ele>
        <time>2024-04-14T10:18:38Z</time>
      </trkpt>
      <trkpt lat="45.98657" lon="3.1854">
        <ele>362.4</ele>
        <time>2024-04-14T10:18:39Z</time>
      </trkpt>
      <trkpt lat="45.9865" lon="3.18536">
        <ele>362.4</ele>
        <time>2024-04-14T10:18:40Z</time>
      </trkpt>
      <trkpt lat="45.98644" lon="3.18533">
        <ele>362.4</ele>
        <time>2024-04-14T10:18:41Z</time>
      </trkpt>
      <trkpt lat="45.98637" lon="3.18529">
        <ele>362.4</ele>
        <time>2024-04-14T10:18:42Z</time>
      </trkpt>
      <trkpt lat="45.9863" lon="3.18526">
        <ele>362.4</ele>
        <time>2024-04-14T10:18:43Z</time>
      </trkpt>
      <trkpt lat="45.98624" lon="3.18522">
        <ele>362.4</ele>
        <time>2024-04-14T10:18:44Z</time>
      </trkpt>
      <trkpt lat="45.98617" lon="3.18519">
        <ele>362.2</ele>
        <time>2024-04-14T10:18:45Z</time>
      </trkpt>
      <trkpt lat="45.9861" lon="3.18515">
        <ele>362.4</ele>
        <time>2024-04-14T10:18:46Z</time>
      </trkpt>
      <trkpt lat="45.98604" lon="3.18512">
        <ele>362.8</ele>
        <time>2024-04-14T10:18:47Z</time>
      </trkpt>
      <trkpt lat="45.98597" lon="3.18508">
        <ele>362.8</ele>
        <time>2024-04-14T10:18:48Z</time>
      </trkpt>
      <trkpt lat="45.98591" lon="3.18505">
        <ele>362.8</ele>
        <time>2024-04-14T10:18:49Z</time>
      </trkpt>
      <trkpt lat="45.98584" lon="3.18501">
        <ele>362.8</ele>
        <time>2024-04-14T10:18:50Z</time>
      </trkpt>
      <trkpt lat="45.98577" lon="3.18498">
        <ele>362.8</ele>
        <time>2024-04-14T10:18:51Z</time>
      </trkpt>
      <trkpt lat="45.9857" lon="3.18494">
        <ele>363</ele>
        <time>2024-04-14T10:18:52Z</time>
      </trkpt>
      <trkpt lat="45.98564" lon="3.18491">
        <ele>363</ele>
        <time>2024-04-14T10:18:53Z</time>
      </trkpt>
      <trkpt lat="45.98557" lon="3.18487">
        <ele>363</ele>
        <time>2024-04-14T10:18:54Z</time>
      </trkpt>
      <trkpt lat="45.98551" lon="3.18484">
        <ele>363</ele>
        <time>2024-04-14T10:18:55Z</time>
      </trkpt>
      <trkpt lat="45.98544" lon="3.1848">
        <ele>363.2</ele>
        <time>2024-04-14T10:18:56Z</time>
      </trkpt>
      <trkpt lat="45.98537" lon="3.18477">
        <ele>363.2</ele>
        <time>2024-04-14T10:18:57Z</time>
      </trkpt>
      <trkpt lat="45.98531" lon="3.18474">
        <ele>363.2</ele>
        <time>2024-04-14T10:18:58Z</time>
      </trkpt>
      <trkpt lat="45.98525" lon="3.1847">
        <ele>363.2</ele>
        <time>2024-04-14T10:18:59Z</time>
      </trkpt>
      <trkpt lat="45.98518" lon="3.18467">
        <ele>363.4</ele>
        <time>2024-04-14T10:19:00Z</time>
      </trkpt>
      <trkpt lat="45.98512" lon="3.18463">
        <ele>363.4</ele>
        <time>2024-04-14T10:19:01Z</time>
      </trkpt>
      <trkpt lat="45.98505" lon="3.1846">
        <ele>363.4</ele>
        <time>2024-04-14T10:19:02Z</time>
      </trkpt>
      <trkpt lat="45.98498" lon="3.18456">
        <ele>363.6</ele>
        <time>2024-04-14T10:19:03Z</time>
      </trkpt>
      <trkpt lat="45.98492" lon="3.18453">
        <ele>363.6</ele>
        <time>2024-04-14T10:19:04Z</time>
      </trkpt>
      <trkpt lat="45.98485" lon="3.18449">
        <ele>363.6</ele>
        <time>2024-04-14T10:19:05Z</time>
      </trkpt>
      <trkpt lat="45.98478" lon="3.18446">
        <ele>363.8</ele>
        <time>2024-04-14T10:19:06Z</time>
      </trkpt>
      <trkpt lat="45.98471" lon="3.18442">
        <ele>363.8</ele>
        <time>2024-04-14T10:19:07Z</time>
      </trkpt>
      <trkpt lat="45.98465" lon="3.18439">
        <ele>364</ele>
        <time>2024-04-14T10:19:08Z</time>
      </trkpt>
      <trkpt lat="45.98458" lon="3.18435">
        <ele>364.2</ele>
        <time>2024-04-14T10:19:09Z</time>
      </trkpt>
      <trkpt lat="45.98452" lon="3.18432">
        <ele>364.2</ele>
        <time>2024-04-14T10:19:10Z</time>
      </trkpt>
      <trkpt lat="45.98446" lon="3.18429">
        <ele>364.4</ele>
        <time>2024-04-14T10:19:11Z</time>
      </trkpt>
      <trkpt lat="45.98439" lon="3.18425">
        <ele>364.4</ele>
        <time>2024-04-14T10:19:12Z</time>
      </trkpt>
      <trkpt lat="45.98433" lon="3.18422">
        <ele>364.4</ele>
        <time>2024-04-14T10:19:13Z</time>
      </trkpt>
      <trkpt lat="45.98427" lon="3.18419">
        <ele>364.6</ele>
        <time>2024-04-14T10:19:14Z</time>
      </trkpt>
      <trkpt lat="45.98422" lon="3.18416">
        <ele>364.6</ele>
        <time>2024-04-14T10:19:15Z</time>
      </trkpt>
      <trkpt lat="45.98416" lon="3.18413">
        <ele>364.8</ele>
        <time>2024-04-14T10:19:16Z</time>
      </trkpt>
      <trkpt lat="45.98411" lon="3.1841">
        <ele>364.8</ele>
        <time>2024-04-14T10:19:17Z</time>
      </trkpt>
      <trkpt lat="45.98405" lon="3.18408">
        <ele>364.8</ele>
        <time>2024-04-14T10:19:18Z</time>
      </trkpt>
      <trkpt lat="45.984" lon="3.18405">
        <ele>365</ele>
        <time>2024-04-14T10:19:19Z</time>
      </trkpt>
      <trkpt lat="45.98395" lon="3.18402">
        <ele>365</ele>
        <time>2024-04-14T10:19:20Z</time>
      </trkpt>
      <trkpt lat="45.98389" lon="3.18399">
        <ele>365</ele>
        <time>2024-04-14T10:19:21Z</time>
      </trkpt>
      <trkpt lat="45.98384" lon="3.18396">
        <ele>365.2</ele>
        <time>2024-04-14T10:19:22Z</time>
      </trkpt>
      <trkpt lat="45.98379" lon="3.18394">
        <ele>365.2</ele>
        <time>2024-04-14T10:19:23Z</time>
      </trkpt>
      <trkpt lat="45.98374" lon="3.18391">
        <ele>365.2</ele>
        <time>2024-04-14T10:19:24Z</time>
      </trkpt>
      <trkpt lat="45.98369" lon="3.18388">
        <ele>365.2</ele>
        <time>2024-04-14T10:19:25Z</time>
      </trkpt>
      <trkpt lat="45.98363" lon="3.18386">
        <ele>365.2</ele>
        <time>2024-04-14T10:19:26Z</time>
      </trkpt>
      <trkpt lat="45.98358" lon="3.18383">
        <ele>365.4</ele>
        <time>2024-04-14T10:19:27Z</time>
      </trkpt>
      <trkpt lat="45.98353" lon="3.1838">
        <ele>365.4</ele>
        <time>2024-04-14T10:19:28Z</time>
      </trkpt>
      <trkpt lat="45.98348" lon="3.18377">
        <ele>365.4</ele>
        <time>2024-04-14T10:19:29Z</time>
      </trkpt>
      <trkpt lat="45.98343" lon="3.18375">
        <ele>365.4</ele>
        <time>2024-04-14T10:19:30Z</time>
      </trkpt>
      <trkpt lat="45.98338" lon="3.18372">
        <ele>365.4</ele>
        <time>2024-04-14T10:19:31Z</time>
      </trkpt>
      <trkpt lat="45.98333" lon="3.18369">
        <ele>365.4</ele>
        <time>2024-04-14T10:19:32Z</time>
      </trkpt>
      <trkpt lat="45.98327" lon="3.18367">
        <ele>365.6</ele>
        <time>2024-04-14T10:19:33Z</time>
      </trkpt>
      <trkpt lat="45.98322" lon="3.18364">
        <ele>365.6</ele>
        <time>2024-04-14T10:19:34Z</time>
      </trkpt>
      <trkpt lat="45.98316" lon="3.18361">
        <ele>365.6</ele>
        <time>2024-04-14T10:19:35Z</time>
      </trkpt>
      <trkpt lat="45.98311" lon="3.18358">
        <ele>365.6</ele>
        <time>2024-04-14T10:19:36Z</time>
      </trkpt>
      <trkpt lat="45.98305" lon="3.18355">
        <ele>365.6</ele>
        <time>2024-04-14T10:19:37Z</time>
      </trkpt>
      <trkpt lat="45.983" lon="3.18352">
        <ele>365.6</ele>
        <time>2024-04-14T10:19:38Z</time>
      </trkpt>
      <trkpt lat="45.98294" lon="3.18349">
        <ele>365.8</ele>
        <time>2024-04-14T10:19:39Z</time>
      </trkpt>
      <trkpt lat="45.98288" lon="3.18346">
        <ele>365.8</ele>
        <time>2024-04-14T10:19:40Z</time>
      </trkpt>
      <trkpt lat="45.98282" lon="3.18343">
        <ele>365.8</ele>
        <time>2024-04-14T10:19:41Z</time>
      </trkpt>
      <trkpt lat="45.98276" lon="3.1834">
        <ele>365.8</ele>
        <time>2024-04-14T10:19:42Z</time>
      </trkpt>
      <trkpt lat="45.9827" lon="3.18337">
        <ele>366</ele>
        <time>2024-04-14T10:19:43Z</time>
      </trkpt>
      <trkpt lat="45.98264" lon="3.18334">
        <ele>366</ele>
        <time>2024-04-14T10:19:44Z</time>
      </trkpt>
      <trkpt lat="45.98259" lon="3.1833">
        <ele>366</ele>
        <time>2024-04-14T10:19:45Z</time>
      </trkpt>
      <trkpt lat="45.98253" lon="3.18327">
        <ele>366</ele>
        <time>2024-04-14T10:19:46Z</time>
      </trkpt>
      <trkpt lat="45.98246" lon="3.18324">
        <ele>366.2</ele>
        <time>2024-04-14T10:19:47Z</time>
      </trkpt>
      <trkpt lat="45.9824" lon="3.18321">
        <ele>366.2</ele>
        <time>2024-04-14T10:19:48Z</time>
      </trkpt>
      <trkpt lat="45.98234" lon="3.18318">
        <ele>366.2</ele>
        <time>2024-04-14T10:19:49Z</time>
      </trkpt>
      <trkpt lat="45.98228" lon="3.18314">
        <ele>366.2</ele>
        <time>2024-04-14T10:19:50Z</time>
      </trkpt>
      <trkpt lat="45.98222" lon="3.18311">
        <ele>366.2</ele>
        <time>2024-04-14T10:19:51Z</time>
      </trkpt>
      <trkpt lat="45.98216" lon="3.18308">
        <ele>366.2</ele>
        <time>2024-04-14T10:19:52Z</time>
      </trkpt>
      <trkpt lat="45.98209" lon="3.18305">
        <ele>366.2</ele>
        <time>2024-04-14T10:19:53Z</time>
      </trkpt>
      <trkpt lat="45.98203" lon="3.18301">
        <ele>366.4</ele>
        <time>2024-04-14T10:19:54Z</time>
      </trkpt>
      <trkpt lat="45.98197" lon="3.18298">
        <ele>366.4</ele>
        <time>2024-04-14T10:19:55Z</time>
      </trkpt>
      <trkpt lat="45.9819" lon="3.18295">
        <ele>366.4</ele>
        <time>2024-04-14T10:19:56Z</time>
      </trkpt>
      <trkpt lat="45.98184" lon="3.18292">
        <ele>366.4</ele>
        <time>2024-04-14T10:19:57Z</time>
      </trkpt>
      <trkpt lat="45.98178" lon="3.18289">
        <ele>366.4</ele>
        <time>2024-04-14T10:19:58Z</time>
      </trkpt>
      <trkpt lat="45.98171" lon="3.18286">
        <ele>366.4</ele>
        <time>2024-04-14T10:19:59Z</time>
      </trkpt>
      <trkpt lat="45.98164" lon="3.18283">
        <ele>366.4</ele>
        <time>2024-04-14T10:20:00Z</time>
      </trkpt>
      <trkpt lat="45.98158" lon="3.1828">
        <ele>366.6</ele>
        <time>2024-04-14T10:20:01Z</time>
      </trkpt>
      <trkpt lat="45.98152" lon="3.18277">
        <ele>366.6</ele>
        <time>2024-04-14T10:20:02Z</time>
      </trkpt>
      <trkpt lat="45.98145" lon="3.18274">
        <ele>366.6</ele>
        <time>2024-04-14T10:20:03Z</time>
      </trkpt>
      <trkpt lat="45.98138" lon="3.18271">
        <ele>366.6</ele>
        <time>2024-04-14T10:20:04Z</time>
      </trkpt>
      <trkpt lat="45.98131" lon="3.18268">
        <ele>366.6</ele>
        <time>2024-04-14T10:20:05Z</time>
      </trkpt>
      <trkpt lat="45.98125" lon="3.18264">
        <ele>366.6</ele>
        <time>2024-04-14T10:20:06Z</time>
      </trkpt>
      <trkpt lat="45.98118" lon="3.18261">
        <ele>366.6</ele>
        <time>2024-04-14T10:20:07Z</time>
      </trkpt>
      <trkpt lat="45.98111" lon="3.18258">
        <ele>366.6</ele>
        <time>2024-04-14T10:20:08Z</time>
      </trkpt>
      <trkpt lat="45.98104" lon="3.18255">
        <ele>366.6</ele>
        <time>2024-04-14T10:20:09Z</time>
      </trkpt>
      <trkpt lat="45.98097" lon="3.18252">
        <ele>366.8</ele>
        <time>2024-04-14T10:20:10Z</time>
      </trkpt>
      <trkpt lat="45.9809" lon="3.18249">
        <ele>366.8</ele>
        <time>2024-04-14T10:20:11Z</time>
      </trkpt>
      <trkpt lat="45.98083" lon="3.18246">
        <ele>366.8</ele>
        <time>2024-04-14T10:20:12Z</time>
      </trkpt>
      <trkpt lat="45.98076" lon="3.18242">
        <ele>366.8</ele>
        <time>2024-04-14T10:20:13Z</time>
      </trkpt>
      <trkpt lat="45.98069" lon="3.18239">
        <ele>366.8</ele>
        <time>2024-04-14T10:20:14Z</time>
      </trkpt>
      <trkpt lat="45.98062" lon="3.18236">
        <ele>366.8</ele>
        <time>2024-04-14T10:20:15Z</time>
      </trkpt>
      <trkpt lat="45.98054" lon="3.18233">
        <ele>366.8</ele>
        <time>2024-04-14T10:20:16Z</time>
      </trkpt>
      <trkpt lat="45.98047" lon="3.18229">
        <ele>366.8</ele>
        <time>2024-04-14T10:20:17Z</time>
      </trkpt>
      <trkpt lat="45.9804" lon="3.18226">
        <ele>366.8</ele>
        <time>2024-04-14T10:20:18Z</time>
      </trkpt>
      <trkpt lat="45.98032" lon="3.18222">
        <ele>366.8</ele>
        <time>2024-04-14T10:20:19Z</time>
      </trkpt>
      <trkpt lat="45.98024" lon="3.18219">
        <ele>366.8</ele>
        <time>2024-04-14T10:20:20Z</time>
      </trkpt>
      <trkpt lat="45.98017" lon="3.18215">
        <ele>366.8</ele>
        <time>2024-04-14T10:20:21Z</time>
      </trkpt>
      <trkpt lat="45.98009" lon="3.18212">
        <ele>366.8</ele>
        <time>2024-04-14T10:20:22Z</time>
      </trkpt>
      <trkpt lat="45.98002" lon="3.18209">
        <ele>366.8</ele>
        <time>2024-04-14T10:20:23Z</time>
      </trkpt>
      <trkpt lat="45.97994" lon="3.18205">
        <ele>366.8</ele>
        <time>2024-04-14T10:20:24Z</time>
      </trkpt>
      <trkpt lat="45.97987" lon="3.18202">
        <ele>366.8</ele>
        <time>2024-04-14T10:20:25Z</time>
      </trkpt>
      <trkpt lat="45.97979" lon="3.18198">
        <ele>366.8</ele>
        <time>2024-04-14T10:20:26Z</time>
      </trkpt>
      <trkpt lat="45.97971" lon="3.18195">
        <ele>366.8</ele>
        <time>2024-04-14T10:20:27Z</time>
      </trkpt>
      <trkpt lat="45.97964" lon="3.18191">
        <ele>366.8</ele>
        <time>2024-04-14T10:20:28Z</time>
      </trkpt>
      <trkpt lat="45.97956" lon="3.18188">
        <ele>366.8</ele>
        <time>2024-04-14T10:20:29Z</time>
      </trkpt>
      <trkpt lat="45.97949" lon="3.18184">
        <ele>366.8</ele>
        <time>2024-04-14T10:20:30Z</time>
      </trkpt>
      <trkpt lat="45.97941" lon="3.18181">
        <ele>366.8</ele>
        <time>2024-04-14T10:20:31Z</time>
      </trkpt>
      <trkpt lat="45.97934" lon="3.18178">
        <ele>366.8</ele>
        <time>2024-04-14T10:20:32Z</time>
      </trkpt>
      <trkpt lat="45.97927" lon="3.18174">
        <ele>366.8</ele>
        <time>2024-04-14T10:20:33Z</time>
      </trkpt>
      <trkpt lat="45.9792" lon="3.18171">
        <ele>366.8</ele>
        <time>2024-04-14T10:20:34Z</time>
      </trkpt>
      <trkpt lat="45.97912" lon="3.18168">
        <ele>366.8</ele>
        <time>2024-04-14T10:20:35Z</time>
      </trkpt>
      <trkpt lat="45.97905" lon="3.18165">
        <ele>366.8</ele>
        <time>2024-04-14T10:20:36Z</time>
      </trkpt>
      <trkpt lat="45.97898" lon="3.18162">
        <ele>366.8</ele>
        <time>2024-04-14T10:20:37Z</time>
      </trkpt>
      <trkpt lat="45.97892" lon="3.18158">
        <ele>367</ele>
        <time>2024-04-14T10:20:38Z</time>
      </trkpt>
      <trkpt lat="45.97885" lon="3.18155">
        <ele>367</ele>
        <time>2024-04-14T10:20:39Z</time>
      </trkpt>
      <trkpt lat="45.97878" lon="3.18152">
        <ele>367</ele>
        <time>2024-04-14T10:20:40Z</time>
      </trkpt>
      <trkpt lat="45.97872" lon="3.1815">
        <ele>367</ele>
        <time>2024-04-14T10:20:41Z</time>
      </trkpt>
      <trkpt lat="45.97866" lon="3.18147">
        <ele>367</ele>
        <time>2024-04-14T10:20:42Z</time>
      </trkpt>
      <trkpt lat="45.97859" lon="3.18144">
        <ele>367</ele>
        <time>2024-04-14T10:20:43Z</time>
      </trkpt>
      <trkpt lat="45.97853" lon="3.18141">
        <ele>367</ele>
        <time>2024-04-14T10:20:44Z</time>
      </trkpt>
      <trkpt lat="45.97847" lon="3.18138">
        <ele>367</ele>
        <time>2024-04-14T10:20:45Z</time>
      </trkpt>
      <trkpt lat="45.97841" lon="3.18135">
        <ele>367.2</ele>
        <time>2024-04-14T10:20:46Z</time>
      </trkpt>
      <trkpt lat="45.97834" lon="3.18132">
        <ele>367.2</ele>
        <time>2024-04-14T10:20:47Z</time>
      </trkpt>
      <trkpt lat="45.97828" lon="3.1813">
        <ele>367.2</ele>
        <time>2024-04-14T10:20:48Z</time>
      </trkpt>
      <trkpt lat="45.97822" lon="3.18127">
        <ele>367.2</ele>
        <time>2024-04-14T10:20:49Z</time>
      </trkpt>
      <trkpt lat="45.97816" lon="3.18124">
        <ele>367.4</ele>
        <time>2024-04-14T10:20:50Z</time>
      </trkpt>
      <trkpt lat="45.9781" lon="3.18121">
        <ele>367.4</ele>
        <time>2024-04-14T10:20:51Z</time>
      </trkpt>
      <trkpt lat="45.97804" lon="3.18118">
        <ele>367.4</ele>
        <time>2024-04-14T10:20:52Z</time>
      </trkpt>
      <trkpt lat="45.97797" lon="3.18116">
        <ele>367.4</ele>
        <time>2024-04-14T10:20:53Z</time>
      </trkpt>
      <trkpt lat="45.97791" lon="3.18113">
        <ele>367.4</ele>
        <time>2024-04-14T10:20:54Z</time>
      </trkpt>
      <trkpt lat="45.97785" lon="3.1811">
        <ele>367.4</ele>
        <time>2024-04-14T10:20:55Z</time>
      </trkpt>
      <trkpt lat="45.97778" lon="3.18107">
        <ele>367.4</ele>
        <time>2024-04-14T10:20:56Z</time>
      </trkpt>
      <trkpt lat="45.97772" lon="3.18104">
        <ele>367.4</ele>
        <time>2024-04-14T10:20:57Z</time>
      </trkpt>
      <trkpt lat="45.97765" lon="3.18101">
        <ele>367.6</ele>
        <time>2024-04-14T10:20:58Z</time>
      </trkpt>
      <trkpt lat="45.97759" lon="3.18098">
        <ele>367.6</ele>
        <time>2024-04-14T10:20:59Z</time>
      </trkpt>
      <trkpt lat="45.97752" lon="3.18095">
        <ele>367.6</ele>
        <time>2024-04-14T10:21:00Z</time>
      </trkpt>
      <trkpt lat="45.97745" lon="3.18092">
        <ele>367.6</ele>
        <time>2024-04-14T10:21:01Z</time>
      </trkpt>
      <trkpt lat="45.97738" lon="3.18089">
        <ele>367.6</ele>
        <time>2024-04-14T10:21:02Z</time>
      </trkpt>
      <trkpt lat="45.97731" lon="3.18086">
        <ele>367.6</ele>
        <time>2024-04-14T10:21:03Z</time>
      </trkpt>
      <trkpt lat="45.97724" lon="3.18082">
        <ele>367.6</ele>
        <time>2024-04-14T10:21:04Z</time>
      </trkpt>
      <trkpt lat="45.97717" lon="3.18079">
        <ele>367.8</ele>
        <time>2024-04-14T10:21:05Z</time>
      </trkpt>
      <trkpt lat="45.9771" lon="3.18076">
        <ele>367.8</ele>
        <time>2024-04-14T10:21:06Z</time>
      </trkpt>
      <trkpt lat="45.97703" lon="3.18073">
        <ele>367.8</ele>
        <time>2024-04-14T10:21:07Z</time>
      </trkpt>
      <trkpt lat="45.97696" lon="3.1807">
        <ele>367.8</ele>
        <time>2024-04-14T10:21:08Z</time>
      </trkpt>
      <trkpt lat="45.97689" lon="3.18066">
        <ele>367.8</ele>
        <time>2024-04-14T10:21:09Z</time>
      </trkpt>
      <trkpt lat="45.97682" lon="3.18063">
        <ele>367.8</ele>
        <time>2024-04-14T10:21:10Z</time>
      </trkpt>
      <trkpt lat="45.97675" lon="3.1806">
        <ele>367.8</ele>
        <time>2024-04-14T10:21:11Z</time>
      </trkpt>
      <trkpt lat="45.97668" lon="3.18057">
        <ele>367.8</ele>
        <time>2024-04-14T10:21:12Z</time>
      </trkpt>
      <trkpt lat="45.9766" lon="3.18053">
        <ele>368</ele>
        <time>2024-04-14T10:21:13Z</time>
      </trkpt>
      <trkpt lat="45.97653" lon="3.1805">
        <ele>368</ele>
        <time>2024-04-14T10:21:14Z</time>
      </trkpt>
      <trkpt lat="45.97646" lon="3.18047">
        <ele>368</ele>
        <time>2024-04-14T10:21:15Z</time>
      </trkpt>
      <trkpt lat="45.97639" lon="3.18044">
        <ele>368</ele>
        <time>2024-04-14T10:21:16Z</time>
      </trkpt>
      <trkpt lat="45.97632" lon="3.18041">
        <ele>368</ele>
        <time>2024-04-14T10:21:17Z</time>
      </trkpt>
      <trkpt lat="45.97626" lon="3.18037">
        <ele>368</ele>
        <time>2024-04-14T10:21:18Z</time>
      </trkpt>
      <trkpt lat="45.97619" lon="3.18034">
        <ele>368</ele>
        <time>2024-04-14T10:21:19Z</time>
      </trkpt>
      <trkpt lat="45.97612" lon="3.18031">
        <ele>368</ele>
        <time>2024-04-14T10:21:20Z</time>
      </trkpt>
      <trkpt lat="45.97605" lon="3.18028">
        <ele>368</ele>
        <time>2024-04-14T10:21:21Z</time>
      </trkpt>
      <trkpt lat="45.97598" lon="3.18025">
        <ele>368.2</ele>
        <time>2024-04-14T10:21:22Z</time>
      </trkpt>
      <trkpt lat="45.97591" lon="3.18022">
        <ele>368.2</ele>
        <time>2024-04-14T10:21:23Z</time>
      </trkpt>
      <trkpt lat="45.97584" lon="3.18019">
        <ele>368.2</ele>
        <time>2024-04-14T10:21:24Z</time>
      </trkpt>
      <trkpt lat="45.97577" lon="3.18015">
        <ele>368.2</ele>
        <time>2024-04-14T10:21:25Z</time>
      </trkpt>
      <trkpt lat="45.9757" lon="3.18012">
        <ele>368.2</ele>
        <time>2024-04-14T10:21:26Z</time>
      </trkpt>
      <trkpt lat="45.97563" lon="3.1801">
        <ele>368.2</ele>
        <time>2024-04-14T10:21:27Z</time>
      </trkpt>
      <trkpt lat="45.97555" lon="3.18008">
        <ele>368.2</ele>
        <time>2024-04-14T10:21:28Z</time>
      </trkpt>
      <trkpt lat="45.97548" lon="3.18005">
        <ele>368.2</ele>
        <time>2024-04-14T10:21:29Z</time>
      </trkpt>
      <trkpt lat="45.9754" lon="3.18003">
        <ele>368.2</ele>
        <time>2024-04-14T10:21:30Z</time>
      </trkpt>
      <trkpt lat="45.97532" lon="3.18001">
        <ele>368.2</ele>
        <time>2024-04-14T10:21:31Z</time>
      </trkpt>
      <trkpt lat="45.97524" lon="3.17999">
        <ele>368.2</ele>
        <time>2024-04-14T10:21:32Z</time>
      </trkpt>
      <trkpt lat="45.97516" lon="3.17996">
        <ele>368.2</ele>
        <time>2024-04-14T10:21:33Z</time>
      </trkpt>
      <trkpt lat="45.97508" lon="3.17994">
        <ele>368.2</ele>
        <time>2024-04-14T10:21:34Z</time>
      </trkpt>
      <trkpt lat="45.97499" lon="3.17991">
        <ele>368.2</ele>
        <time>2024-04-14T10:21:35Z</time>
      </trkpt>
      <trkpt lat="45.97491" lon="3.17989">
        <ele>368</ele>
        <time>2024-04-14T10:21:36Z</time>
      </trkpt>
      <trkpt lat="45.97482" lon="3.17986">
        <ele>368.2</ele>
        <time>2024-04-14T10:21:37Z</time>
      </trkpt>
      <trkpt lat="45.97473" lon="3.17984">
        <ele>368</ele>
        <time>2024-04-14T10:21:38Z</time>
      </trkpt>
      <trkpt lat="45.97464" lon="3.17981">
        <ele>367.8</ele>
        <time>2024-04-14T10:21:39Z</time>
      </trkpt>
      <trkpt lat="45.97455" lon="3.17979">
        <ele>368</ele>
        <time>2024-04-14T10:21:40Z</time>
      </trkpt>
      <trkpt lat="45.97446" lon="3.17976">
        <ele>367.8</ele>
        <time>2024-04-14T10:21:41Z</time>
      </trkpt>
      <trkpt lat="45.97437" lon="3.17973">
        <ele>367.8</ele>
        <time>2024-04-14T10:21:42Z</time>
      </trkpt>
      <trkpt lat="45.97428" lon="3.17971">
        <ele>367.8</ele>
        <time>2024-04-14T10:21:43Z</time>
      </trkpt>
      <trkpt lat="45.97419" lon="3.17968">
        <ele>367.6</ele>
        <time>2024-04-14T10:21:44Z</time>
      </trkpt>
      <trkpt lat="45.9741" lon="3.17965">
        <ele>367.6</ele>
        <time>2024-04-14T10:21:45Z</time>
      </trkpt>
      <trkpt lat="45.974" lon="3.17963">
        <ele>367.4</ele>
        <time>2024-04-14T10:21:46Z</time>
      </trkpt>
      <trkpt lat="45.97391" lon="3.1796">
        <ele>367.4</ele>
        <time>2024-04-14T10:21:47Z</time>
      </trkpt>
      <trkpt lat="45.97383" lon="3.17958">
        <ele>367.2</ele>
        <time>2024-04-14T10:21:48Z</time>
      </trkpt>
      <trkpt lat="45.97374" lon="3.17955">
        <ele>367.2</ele>
        <time>2024-04-14T10:21:49Z</time>
      </trkpt>
      <trkpt lat="45.97365" lon="3.17952">
        <ele>367</ele>
        <time>2024-04-14T10:21:50Z</time>
      </trkpt>
      <trkpt lat="45.97356" lon="3.1795">
        <ele>367</ele>
        <time>2024-04-14T10:21:51Z</time>
      </trkpt>
      <trkpt lat="45.97347" lon="3.17947">
        <ele>366.8</ele>
        <time>2024-04-14T10:21:52Z</time>
      </trkpt>
      <trkpt lat="45.97338" lon="3.17945">
        <ele>366.8</ele>
        <time>2024-04-14T10:21:53Z</time>
      </trkpt>
      <trkpt lat="45.9733" lon="3.17942">
        <ele>366.6</ele>
        <time>2024-04-14T10:21:54Z</time>
      </trkpt>
      <trkpt lat="45.97321" lon="3.1794">
        <ele>366.6</ele>
        <time>2024-04-14T10:21:55Z</time>
      </trkpt>
      <trkpt lat="45.97312" lon="3.17937">
        <ele>366.4</ele>
        <time>2024-04-14T10:21:56Z</time>
      </trkpt>
      <trkpt lat="45.97303" lon="3.17935">
        <ele>366.4</ele>
        <time>2024-04-14T10:21:57Z</time>
      </trkpt>
      <trkpt lat="45.97294" lon="3.17932">
        <ele>366.4</ele>
        <time>2024-04-14T10:21:58Z</time>
      </trkpt>
      <trkpt lat="45.97286" lon="3.1793">
        <ele>366.2</ele>
        <time>2024-04-14T10:21:59Z</time>
      </trkpt>
      <trkpt lat="45.97277" lon="3.17927">
        <ele>366.2</ele>
        <time>2024-04-14T10:22:00Z</time>
      </trkpt>
      <trkpt lat="45.97268" lon="3.17924">
        <ele>366</ele>
        <time>2024-04-14T10:22:01Z</time>
      </trkpt>
      <trkpt lat="45.97259" lon="3.17922">
        <ele>366</ele>
        <time>2024-04-14T10:22:02Z</time>
      </trkpt>
      <trkpt lat="45.9725" lon="3.17919">
        <ele>365.8</ele>
        <time>2024-04-14T10:22:03Z</time>
      </trkpt>
      <trkpt lat="45.97241" lon="3.17917">
        <ele>365.8</ele>
        <time>2024-04-14T10:22:04Z</time>
      </trkpt>
      <trkpt lat="45.97232" lon="3.17914">
        <ele>365.8</ele>
        <time>2024-04-14T10:22:05Z</time>
      </trkpt>
      <trkpt lat="45.97224" lon="3.17912">
        <ele>365.6</ele>
        <time>2024-04-14T10:22:06Z</time>
      </trkpt>
      <trkpt lat="45.97215" lon="3.17909">
        <ele>365.6</ele>
        <time>2024-04-14T10:22:07Z</time>
      </trkpt>
      <trkpt lat="45.97206" lon="3.17907">
        <ele>365.4</ele>
        <time>2024-04-14T10:22:08Z</time>
      </trkpt>
      <trkpt lat="45.97198" lon="3.17904">
        <ele>365.4</ele>
        <time>2024-04-14T10:22:09Z</time>
      </trkpt>
      <trkpt lat="45.97189" lon="3.17902">
        <ele>365.2</ele>
        <time>2024-04-14T10:22:10Z</time>
      </trkpt>
      <trkpt lat="45.97181" lon="3.17899">
        <ele>365.2</ele>
        <time>2024-04-14T10:22:11Z</time>
      </trkpt>
      <trkpt lat="45.97173" lon="3.17897">
        <ele>365</ele>
        <time>2024-04-14T10:22:12Z</time>
      </trkpt>
      <trkpt lat="45.97164" lon="3.17894">
        <ele>365</ele>
        <time>2024-04-14T10:22:13Z</time>
      </trkpt>
      <trkpt lat="45.97156" lon="3.17892">
        <ele>364.8</ele>
        <time>2024-04-14T10:22:14Z</time>
      </trkpt>
      <trkpt lat="45.97148" lon="3.1789">
        <ele>364.8</ele>
        <time>2024-04-14T10:22:15Z</time>
      </trkpt>
      <trkpt lat="45.9714" lon="3.17887">
        <ele>364.6</ele>
        <time>2024-04-14T10:22:16Z</time>
      </trkpt>
      <trkpt lat="45.97132" lon="3.17885">
        <ele>364.6</ele>
        <time>2024-04-14T10:22:17Z</time>
      </trkpt>
      <trkpt lat="45.97124" lon="3.17883">
        <ele>364.4</ele>
        <time>2024-04-14T10:22:18Z</time>
      </trkpt>
      <trkpt lat="45.97116" lon="3.1788">
        <ele>364.4</ele>
        <time>2024-04-14T10:22:19Z</time>
      </trkpt>
      <trkpt lat="45.97108" lon="3.17878">
        <ele>364.2</ele>
        <time>2024-04-14T10:22:20Z</time>
      </trkpt>
      <trkpt lat="45.971" lon="3.17876">
        <ele>364.2</ele>
        <time>2024-04-14T10:22:21Z</time>
      </trkpt>
      <trkpt lat="45.97093" lon="3.17874">
        <ele>364</ele>
        <time>2024-04-14T10:22:22Z</time>
      </trkpt>
      <trkpt lat="45.97085" lon="3.17872">
        <ele>364</ele>
        <time>2024-04-14T10:22:23Z</time>
      </trkpt>
      <trkpt lat="45.97077" lon="3.17869">
        <ele>363.8</ele>
        <time>2024-04-14T10:22:24Z</time>
      </trkpt>
      <trkpt lat="45.97069" lon="3.17867">
        <ele>363.8</ele>
        <time>2024-04-14T10:22:25Z</time>
      </trkpt>
      <trkpt lat="45.97062" lon="3.17865">
        <ele>363.8</ele>
        <time>2024-04-14T10:22:26Z</time>
      </trkpt>
      <trkpt lat="45.97054" lon="3.17863">
        <ele>363.6</ele>
        <time>2024-04-14T10:22:27Z</time>
      </trkpt>
      <trkpt lat="45.97046" lon="3.17861">
        <ele>363.6</ele>
        <time>2024-04-14T10:22:28Z</time>
      </trkpt>
      <trkpt lat="45.97038" lon="3.17859">
        <ele>363.6</ele>
        <time>2024-04-14T10:22:29Z</time>
      </trkpt>
      <trkpt lat="45.97031" lon="3.17857">
        <ele>363.6</ele>
        <time>2024-04-14T10:22:30Z</time>
      </trkpt>
      <trkpt lat="45.97023" lon="3.17855">
        <ele>363.4</ele>
        <time>2024-04-14T10:22:31Z</time>
      </trkpt>
      <trkpt lat="45.97016" lon="3.17853">
        <ele>363.4</ele>
        <time>2024-04-14T10:22:32Z</time>
      </trkpt>
      <trkpt lat="45.97008" lon="3.17851">
        <ele>363.4</ele>
        <time>2024-04-14T10:22:33Z</time>
      </trkpt>
      <trkpt lat="45.97001" lon="3.17849">
        <ele>363.2</ele>
        <time>2024-04-14T10:22:34Z</time>
      </trkpt>
      <trkpt lat="45.96993" lon="3.17847">
        <ele>363.2</ele>
        <time>2024-04-14T10:22:35Z</time>
      </trkpt>
      <trkpt lat="45.96986" lon="3.17845">
        <ele>363.2</ele>
        <time>2024-04-14T10:22:36Z</time>
      </trkpt>
      <trkpt lat="45.96978" lon="3.17843">
        <ele>363</ele>
        <time>2024-04-14T10:22:37Z</time>
      </trkpt>
      <trkpt lat="45.96971" lon="3.17841">
        <ele>363</ele>
        <time>2024-04-14T10:22:38Z</time>
      </trkpt>
      <trkpt lat="45.96963" lon="3.17839">
        <ele>362.8</ele>
        <time>2024-04-14T10:22:39Z</time>
      </trkpt>
      <trkpt lat="45.96955" lon="3.17837">
        <ele>362.8</ele>
        <time>2024-04-14T10:22:40Z</time>
      </trkpt>
      <trkpt lat="45.96947" lon="3.17835">
        <ele>362.8</ele>
        <time>2024-04-14T10:22:41Z</time>
      </trkpt>
      <trkpt lat="45.96939" lon="3.17833">
        <ele>362.6</ele>
        <time>2024-04-14T10:22:42Z</time>
      </trkpt>
      <trkpt lat="45.96932" lon="3.17831">
        <ele>362.6</ele>
        <time>2024-04-14T10:22:43Z</time>
      </trkpt>
      <trkpt lat="45.96924" lon="3.17829">
        <ele>362.4</ele>
        <time>2024-04-14T10:22:44Z</time>
      </trkpt>
      <trkpt lat="45.96916" lon="3.17826">
        <ele>362.4</ele>
        <time>2024-04-14T10:22:45Z</time>
      </trkpt>
      <trkpt lat="45.96908" lon="3.17824">
        <ele>362.4</ele>
        <time>2024-04-14T10:22:46Z</time>
      </trkpt>
      <trkpt lat="45.969" lon="3.17822">
        <ele>362.2</ele>
        <time>2024-04-14T10:22:47Z</time>
      </trkpt>
      <trkpt lat="45.96892" lon="3.1782">
        <ele>362.2</ele>
        <time>2024-04-14T10:22:48Z</time>
      </trkpt>
      <trkpt lat="45.96884" lon="3.17818">
        <ele>362.2</ele>
        <time>2024-04-14T10:22:49Z</time>
      </trkpt>
      <trkpt lat="45.96876" lon="3.17816">
        <ele>362</ele>
        <time>2024-04-14T10:22:50Z</time>
      </trkpt>
      <trkpt lat="45.96868" lon="3.17814">
        <ele>362</ele>
        <time>2024-04-14T10:22:51Z</time>
      </trkpt>
      <trkpt lat="45.9686" lon="3.17811">
        <ele>361.8</ele>
        <time>2024-04-14T10:22:52Z</time>
      </trkpt>
      <trkpt lat="45.96852" lon="3.17809">
        <ele>361.8</ele>
        <time>2024-04-14T10:22:53Z</time>
      </trkpt>
      <trkpt lat="45.96844" lon="3.17807">
        <ele>361.6</ele>
        <time>2024-04-14T10:22:54Z</time>
      </trkpt>
      <trkpt lat="45.96836" lon="3.17805">
        <ele>361.6</ele>
        <time>2024-04-14T10:22:55Z</time>
      </trkpt>
      <trkpt lat="45.96828" lon="3.17803">
        <ele>361.6</ele>
        <time>2024-04-14T10:22:56Z</time>
      </trkpt>
      <trkpt lat="45.9682" lon="3.17801">
        <ele>361.4</ele>
        <time>2024-04-14T10:22:57Z</time>
      </trkpt>
      <trkpt lat="45.96811" lon="3.17798">
        <ele>361.4</ele>
        <time>2024-04-14T10:22:58Z</time>
      </trkpt>
      <trkpt lat="45.96803" lon="3.17796">
        <ele>361.2</ele>
        <time>2024-04-14T10:22:59Z</time>
      </trkpt>
      <trkpt lat="45.96794" lon="3.17794">
        <ele>361.2</ele>
        <time>2024-04-14T10:23:00Z</time>
      </trkpt>
      <trkpt lat="45.96786" lon="3.17792">
        <ele>361</ele>
        <time>2024-04-14T10:23:01Z</time>
      </trkpt>
      <trkpt lat="45.96778" lon="3.17789">
        <ele>361</ele>
        <time>2024-04-14T10:23:02Z</time>
      </trkpt>
      <trkpt lat="45.96769" lon="3.17787">
        <ele>360.8</ele>
        <time>2024-04-14T10:23:03Z</time>
      </trkpt>
      <trkpt lat="45.96761" lon="3.17785">
        <ele>360.8</ele>
        <time>2024-04-14T10:23:04Z</time>
      </trkpt>
      <trkpt lat="45.96753" lon="3.17783">
        <ele>360.6</ele>
        <time>2024-04-14T10:23:05Z</time>
      </trkpt>
      <trkpt lat="45.96745" lon="3.17781">
        <ele>360.4</ele>
        <time>2024-04-14T10:23:06Z</time>
      </trkpt>
      <trkpt lat="45.96737" lon="3.17778">
        <ele>360.4</ele>
        <time>2024-04-14T10:23:07Z</time>
      </trkpt>
      <trkpt lat="45.96729" lon="3.17776">
        <ele>360.2</ele>
        <time>2024-04-14T10:23:08Z</time>
      </trkpt>
      <trkpt lat="45.96721" lon="3.17774">
        <ele>360.2</ele>
        <time>2024-04-14T10:23:09Z</time>
      </trkpt>
      <trkpt lat="45.96713" lon="3.17772">
        <ele>360</ele>
        <time>2024-04-14T10:23:10Z</time>
      </trkpt>
      <trkpt lat="45.96705" lon="3.1777">
        <ele>359.8</ele>
        <time>2024-04-14T10:23:11Z</time>
      </trkpt>
      <trkpt lat="45.96697" lon="3.17768">
        <ele>359.8</ele>
        <time>2024-04-14T10:23:12Z</time>
      </trkpt>
      <trkpt lat="45.96688" lon="3.17765">
        <ele>359.6</ele>
        <time>2024-04-14T10:23:13Z</time>
      </trkpt>
      <trkpt lat="45.9668" lon="3.17763">
        <ele>359.4</ele>
        <time>2024-04-14T10:23:14Z</time>
      </trkpt>
      <trkpt lat="45.96671" lon="3.17761">
        <ele>359.2</ele>
        <time>2024-04-14T10:23:15Z</time>
      </trkpt>
      <trkpt lat="45.96663" lon="3.17759">
        <ele>359.2</ele>
        <time>2024-04-14T10:23:16Z</time>
      </trkpt>
      <trkpt lat="45.96655" lon="3.17756">
        <ele>359</ele>
        <time>2024-04-14T10:23:17Z</time>
      </trkpt>
      <trkpt lat="45.96646" lon="3.17754">
        <ele>358.8</ele>
        <time>2024-04-14T10:23:18Z</time>
      </trkpt>
      <trkpt lat="45.96638" lon="3.17752">
        <ele>358.8</ele>
        <time>2024-04-14T10:23:19Z</time>
      </trkpt>
      <trkpt lat="45.9663" lon="3.1775">
        <ele>358.6</ele>
        <time>2024-04-14T10:23:20Z</time>
      </trkpt>
      <trkpt lat="45.96622" lon="3.17748">
        <ele>358.6</ele>
        <time>2024-04-14T10:23:21Z</time>
      </trkpt>
      <trkpt lat="45.96614" lon="3.17745">
        <ele>358.4</ele>
        <time>2024-04-14T10:23:22Z</time>
      </trkpt>
      <trkpt lat="45.96606" lon="3.17743">
        <ele>358.2</ele>
        <time>2024-04-14T10:23:23Z</time>
      </trkpt>
      <trkpt lat="45.96598" lon="3.17741">
        <ele>358.2</ele>
        <time>2024-04-14T10:23:24Z</time>
      </trkpt>
      <trkpt lat="45.9659" lon="3.17739">
        <ele>358.2</ele>
        <time>2024-04-14T10:23:25Z</time>
      </trkpt>
      <trkpt lat="45.96583" lon="3.17737">
        <ele>358</ele>
        <time>2024-04-14T10:23:26Z</time>
      </trkpt>
      <trkpt lat="45.96576" lon="3.17735">
        <ele>358</ele>
        <time>2024-04-14T10:23:27Z</time>
      </trkpt>
      <trkpt lat="45.96569" lon="3.17734">
        <ele>358</ele>
        <time>2024-04-14T10:23:28Z</time>
      </trkpt>
      <trkpt lat="45.96561" lon="3.17732">
        <ele>358</ele>
        <time>2024-04-14T10:23:29Z</time>
      </trkpt>
      <trkpt lat="45.96555" lon="3.1773">
        <ele>357.8</ele>
        <time>2024-04-14T10:23:30Z</time>
      </trkpt>
      <trkpt lat="45.96548" lon="3.17728">
        <ele>357.8</ele>
        <time>2024-04-14T10:23:31Z</time>
      </trkpt>
      <trkpt lat="45.96541" lon="3.17726">
        <ele>357.8</ele>
        <time>2024-04-14T10:23:32Z</time>
      </trkpt>
      <trkpt lat="45.96534" lon="3.17725">
        <ele>357.8</ele>
        <time>2024-04-14T10:23:33Z</time>
      </trkpt>
      <trkpt lat="45.96528" lon="3.17723">
        <ele>357.8</ele>
        <time>2024-04-14T10:23:34Z</time>
      </trkpt>
      <trkpt lat="45.96521" lon="3.17721">
        <ele>357.6</ele>
        <time>2024-04-14T10:23:35Z</time>
      </trkpt>
      <trkpt lat="45.96515" lon="3.17719">
        <ele>357.6</ele>
        <time>2024-04-14T10:23:36Z</time>
      </trkpt>
      <trkpt lat="45.96508" lon="3.17718">
        <ele>357.6</ele>
        <time>2024-04-14T10:23:37Z</time>
      </trkpt>
      <trkpt lat="45.96502" lon="3.17716">
        <ele>357.6</ele>
        <time>2024-04-14T10:23:38Z</time>
      </trkpt>
      <trkpt lat="45.96496" lon="3.17714">
        <ele>357.4</ele>
        <time>2024-04-14T10:23:39Z</time>
      </trkpt>
      <trkpt lat="45.9649" lon="3.17713">
        <ele>357.4</ele>
        <time>2024-04-14T10:23:40Z</time>
      </trkpt>
      <trkpt lat="45.96483" lon="3.17711">
        <ele>357.4</ele>
        <time>2024-04-14T10:23:41Z</time>
      </trkpt>
      <trkpt lat="45.96477" lon="3.1771">
        <ele>357.2</ele>
        <time>2024-04-14T10:23:42Z</time>
      </trkpt>
      <trkpt lat="45.96471" lon="3.17708">
        <ele>357.2</ele>
        <time>2024-04-14T10:23:43Z</time>
      </trkpt>
      <trkpt lat="45.96464" lon="3.17706">
        <ele>357.2</ele>
        <time>2024-04-14T10:23:44Z</time>
      </trkpt>
      <trkpt lat="45.96458" lon="3.17704">
        <ele>357.2</ele>
        <time>2024-04-14T10:23:45Z</time>
      </trkpt>
      <trkpt lat="45.96451" lon="3.17703">
        <ele>357</ele>
        <time>2024-04-14T10:23:46Z</time>
      </trkpt>
      <trkpt lat="45.96444" lon="3.17701">
        <ele>357</ele>
        <time>2024-04-14T10:23:47Z</time>
      </trkpt>
      <trkpt lat="45.96438" lon="3.17699">
        <ele>357</ele>
        <time>2024-04-14T10:23:48Z</time>
      </trkpt>
      <trkpt lat="45.96431" lon="3.17697">
        <ele>357</ele>
        <time>2024-04-14T10:23:49Z</time>
      </trkpt>
      <trkpt lat="45.96424" lon="3.17696">
        <ele>357</ele>
        <time>2024-04-14T10:23:50Z</time>
      </trkpt>
      <trkpt lat="45.96417" lon="3.17694">
        <ele>356.8</ele>
        <time>2024-04-14T10:23:51Z</time>
      </trkpt>
      <trkpt lat="45.9641" lon="3.17692">
        <ele>356.8</ele>
        <time>2024-04-14T10:23:52Z</time>
      </trkpt>
      <trkpt lat="45.96403" lon="3.1769">
        <ele>356.8</ele>
        <time>2024-04-14T10:23:53Z</time>
      </trkpt>
      <trkpt lat="45.96396" lon="3.17688">
        <ele>356.6</ele>
        <time>2024-04-14T10:23:54Z</time>
      </trkpt>
      <trkpt lat="45.96389" lon="3.17686">
        <ele>356.6</ele>
        <time>2024-04-14T10:23:55Z</time>
      </trkpt>
      <trkpt lat="45.96382" lon="3.17685">
        <ele>356.4</ele>
        <time>2024-04-14T10:23:56Z</time>
      </trkpt>
      <trkpt lat="45.96375" lon="3.17683">
        <ele>356.4</ele>
        <time>2024-04-14T10:23:57Z</time>
      </trkpt>
      <trkpt lat="45.96368" lon="3.17681">
        <ele>356.4</ele>
        <time>2024-04-14T10:23:58Z</time>
      </trkpt>
      <trkpt lat="45.96361" lon="3.17679">
        <ele>356.4</ele>
        <time>2024-04-14T10:23:59Z</time>
      </trkpt>
      <trkpt lat="45.96355" lon="3.17677">
        <ele>356.4</ele>
        <time>2024-04-14T10:24:00Z</time>
      </trkpt>
      <trkpt lat="45.96348" lon="3.17676">
        <ele>356.2</ele>
        <time>2024-04-14T10:24:01Z</time>
      </trkpt>
      <trkpt lat="45.96341" lon="3.17674">
        <ele>356.2</ele>
        <time>2024-04-14T10:24:02Z</time>
      </trkpt>
      <trkpt lat="45.96335" lon="3.17672">
        <ele>356.2</ele>
        <time>2024-04-14T10:24:03Z</time>
      </trkpt>
      <trkpt lat="45.96328" lon="3.1767">
        <ele>356.2</ele>
        <time>2024-04-14T10:24:04Z</time>
      </trkpt>
      <trkpt lat="45.96321" lon="3.17669">
        <ele>356.2</ele>
        <time>2024-04-14T10:24:05Z</time>
      </trkpt>
      <trkpt lat="45.96314" lon="3.17667">
        <ele>356.2</ele>
        <time>2024-04-14T10:24:06Z</time>
      </trkpt>
      <trkpt lat="45.96307" lon="3.17664">
        <ele>356</ele>
        <time>2024-04-14T10:24:07Z</time>
      </trkpt>
      <trkpt lat="45.963" lon="3.17662">
        <ele>356</ele>
        <time>2024-04-14T10:24:08Z</time>
      </trkpt>
      <trkpt lat="45.96293" lon="3.17659">
        <ele>356</ele>
        <time>2024-04-14T10:24:09Z</time>
      </trkpt>
      <trkpt lat="45.96286" lon="3.17657">
        <ele>355.8</ele>
        <time>2024-04-14T10:24:10Z</time>
      </trkpt>
      <trkpt lat="45.96279" lon="3.17654">
        <ele>355.8</ele>
        <time>2024-04-14T10:24:11Z</time>
      </trkpt>
      <trkpt lat="45.96272" lon="3.17651">
        <ele>355.8</ele>
        <time>2024-04-14T10:24:12Z</time>
      </trkpt>
      <trkpt lat="45.96265" lon="3.17649">
        <ele>355.8</ele>
        <time>2024-04-14T10:24:13Z</time>
      </trkpt>
      <trkpt lat="45.96258" lon="3.17646">
        <ele>355.6</ele>
        <time>2024-04-14T10:24:14Z</time>
      </trkpt>
      <trkpt lat="45.96251" lon="3.17643">
        <ele>355.6</ele>
        <time>2024-04-14T10:24:15Z</time>
      </trkpt>
      <trkpt lat="45.96244" lon="3.1764">
        <ele>355.4</ele>
        <time>2024-04-14T10:24:16Z</time>
      </trkpt>
      <trkpt lat="45.96237" lon="3.17638">
        <ele>355.4</ele>
        <time>2024-04-14T10:24:17Z</time>
      </trkpt>
      <trkpt lat="45.96231" lon="3.17633">
        <ele>355.4</ele>
        <time>2024-04-14T10:24:18Z</time>
      </trkpt>
      <trkpt lat="45.96224" lon="3.17629">
        <ele>355.2</ele>
        <time>2024-04-14T10:24:19Z</time>
      </trkpt>
      <trkpt lat="45.96217" lon="3.17624">
        <ele>355.2</ele>
        <time>2024-04-14T10:24:20Z</time>
      </trkpt>
      <trkpt lat="45.9621" lon="3.1762">
        <ele>355</ele>
        <time>2024-04-14T10:24:21Z</time>
      </trkpt>
      <trkpt lat="45.96203" lon="3.17615">
        <ele>354.8</ele>
        <time>2024-04-14T10:24:22Z</time>
      </trkpt>
      <trkpt lat="45.96197" lon="3.17611">
        <ele>354.6</ele>
        <time>2024-04-14T10:24:23Z</time>
      </trkpt>
      <trkpt lat="45.9619" lon="3.17606">
        <ele>354.4</ele>
        <time>2024-04-14T10:24:24Z</time>
      </trkpt>
      <trkpt lat="45.96183" lon="3.17602">
        <ele>354.4</ele>
        <time>2024-04-14T10:24:25Z</time>
      </trkpt>
      <trkpt lat="45.96176" lon="3.17597">
        <ele>354.2</ele>
        <time>2024-04-14T10:24:26Z</time>
      </trkpt>
      <trkpt lat="45.96169" lon="3.17593">
        <ele>354</ele>
        <time>2024-04-14T10:24:27Z</time>
      </trkpt>
      <trkpt lat="45.96163" lon="3.17588">
        <ele>354</ele>
        <time>2024-04-14T10:24:28Z</time>
      </trkpt>
      <trkpt lat="45.96155" lon="3.17583">
        <ele>353.8</ele>
        <time>2024-04-14T10:24:29Z</time>
      </trkpt>
      <trkpt lat="45.96148" lon="3.17579">
        <ele>353.6</ele>
        <time>2024-04-14T10:24:30Z</time>
      </trkpt>
      <trkpt lat="45.96141" lon="3.17574">
        <ele>353.6</ele>
        <time>2024-04-14T10:24:31Z</time>
      </trkpt>
      <trkpt lat="45.96134" lon="3.17569">
        <ele>353.4</ele>
        <time>2024-04-14T10:24:32Z</time>
      </trkpt>
      <trkpt lat="45.96127" lon="3.17564">
        <ele>353.2</ele>
        <time>2024-04-14T10:24:33Z</time>
      </trkpt>
      <trkpt lat="45.9612" lon="3.1756">
        <ele>353.2</ele>
        <time>2024-04-14T10:24:34Z</time>
      </trkpt>
      <trkpt lat="45.96112" lon="3.17555">
        <ele>353</ele>
        <time>2024-04-14T10:24:35Z</time>
      </trkpt>
      <trkpt lat="45.96105" lon="3.1755">
        <ele>352.8</ele>
        <time>2024-04-14T10:24:36Z</time>
      </trkpt>
      <trkpt lat="45.96098" lon="3.17545">
        <ele>352.8</ele>
        <time>2024-04-14T10:24:37Z</time>
      </trkpt>
      <trkpt lat="45.96091" lon="3.17541">
        <ele>352.6</ele>
        <time>2024-04-14T10:24:38Z</time>
      </trkpt>
      <trkpt lat="45.96084" lon="3.17536">
        <ele>352.4</ele>
        <time>2024-04-14T10:24:39Z</time>
      </trkpt>
      <trkpt lat="45.96077" lon="3.17531">
        <ele>352.4</ele>
        <time>2024-04-14T10:24:40Z</time>
      </trkpt>
      <trkpt lat="45.9607" lon="3.17527">
        <ele>352.2</ele>
        <time>2024-04-14T10:24:41Z</time>
      </trkpt>
      <trkpt lat="45.96063" lon="3.17522">
        <ele>352</ele>
        <time>2024-04-14T10:24:42Z</time>
      </trkpt>
      <trkpt lat="45.96056" lon="3.17519">
        <ele>351.8</ele>
        <time>2024-04-14T10:24:43Z</time>
      </trkpt>
      <trkpt lat="45.96049" lon="3.17515">
        <ele>351.8</ele>
        <time>2024-04-14T10:24:44Z</time>
      </trkpt>
      <trkpt lat="45.96042" lon="3.1751">
        <ele>351.6</ele>
        <time>2024-04-14T10:24:45Z</time>
      </trkpt>
      <trkpt lat="45.96035" lon="3.17505">
        <ele>351.4</ele>
        <time>2024-04-14T10:24:46Z</time>
      </trkpt>
      <trkpt lat="45.96028" lon="3.175">
        <ele>351.4</ele>
        <time>2024-04-14T10:24:47Z</time>
      </trkpt>
      <trkpt lat="45.96021" lon="3.17495">
        <ele>351.2</ele>
        <time>2024-04-14T10:24:48Z</time>
      </trkpt>
      <trkpt lat="45.96014" lon="3.17489">
        <ele>351</ele>
        <time>2024-04-14T10:24:49Z</time>
      </trkpt>
      <trkpt lat="45.96007" lon="3.17484">
        <ele>351</ele>
        <time>2024-04-14T10:24:50Z</time>
      </trkpt>
      <trkpt lat="45.95999" lon="3.17479">
        <ele>350.8</ele>
        <time>2024-04-14T10:24:51Z</time>
      </trkpt>
      <trkpt lat="45.95992" lon="3.17474">
        <ele>350.6</ele>
        <time>2024-04-14T10:24:52Z</time>
      </trkpt>
      <trkpt lat="45.95985" lon="3.17468">
        <ele>350.4</ele>
        <time>2024-04-14T10:24:53Z</time>
      </trkpt>
      <trkpt lat="45.95978" lon="3.17463">
        <ele>350.4</ele>
        <time>2024-04-14T10:24:54Z</time>
      </trkpt>
      <trkpt lat="45.95971" lon="3.17458">
        <ele>350.2</ele>
        <time>2024-04-14T10:24:55Z</time>
      </trkpt>
      <trkpt lat="45.95964" lon="3.17453">
        <ele>350.2</ele>
        <time>2024-04-14T10:24:56Z</time>
      </trkpt>
      <trkpt lat="45.95958" lon="3.17448">
        <ele>350</ele>
        <time>2024-04-14T10:24:57Z</time>
      </trkpt>
      <trkpt lat="45.95951" lon="3.17443">
        <ele>349.8</ele>
        <time>2024-04-14T10:24:58Z</time>
      </trkpt>
      <trkpt lat="45.95944" lon="3.17438">
        <ele>349.8</ele>
        <time>2024-04-14T10:24:59Z</time>
      </trkpt>
      <trkpt lat="45.95937" lon="3.17433">
        <ele>349.6</ele>
        <time>2024-04-14T10:25:00Z</time>
      </trkpt>
      <trkpt lat="45.9593" lon="3.17428">
        <ele>349.4</ele>
        <time>2024-04-14T10:25:01Z</time>
      </trkpt>
      <trkpt lat="45.95923" lon="3.17422">
        <ele>349.4</ele>
        <time>2024-04-14T10:25:02Z</time>
      </trkpt>
      <trkpt lat="45.95917" lon="3.17414">
        <ele>349.2</ele>
        <time>2024-04-14T10:25:03Z</time>
      </trkpt>
      <trkpt lat="45.9591" lon="3.17411">
        <ele>349</ele>
        <time>2024-04-14T10:25:04Z</time>
      </trkpt>
      <trkpt lat="45.95902" lon="3.17407">
        <ele>349</ele>
        <time>2024-04-14T10:25:05Z</time>
      </trkpt>
      <trkpt lat="45.95895" lon="3.17403">
        <ele>348.8</ele>
        <time>2024-04-14T10:25:06Z</time>
      </trkpt>
      <trkpt lat="45.95888" lon="3.17399">
        <ele>348.8</ele>
        <time>2024-04-14T10:25:07Z</time>
      </trkpt>
      <trkpt lat="45.9588" lon="3.17394">
        <ele>348.6</ele>
        <time>2024-04-14T10:25:08Z</time>
      </trkpt>
      <trkpt lat="45.95873" lon="3.1739">
        <ele>348.6</ele>
        <time>2024-04-14T10:25:09Z</time>
      </trkpt>
      <trkpt lat="45.95866" lon="3.17385">
        <ele>348.6</ele>
        <time>2024-04-14T10:25:10Z</time>
      </trkpt>
      <trkpt lat="45.95858" lon="3.17381">
        <ele>348.4</ele>
        <time>2024-04-14T10:25:11Z</time>
      </trkpt>
      <trkpt lat="45.95851" lon="3.17376">
        <ele>348.4</ele>
        <time>2024-04-14T10:25:12Z</time>
      </trkpt>
      <trkpt lat="45.95844" lon="3.17372">
        <ele>348.2</ele>
        <time>2024-04-14T10:25:13Z</time>
      </trkpt>
      <trkpt lat="45.95837" lon="3.17367">
        <ele>348.2</ele>
        <time>2024-04-14T10:25:14Z</time>
      </trkpt>
      <trkpt lat="45.9583" lon="3.17362">
        <ele>348</ele>
        <time>2024-04-14T10:25:15Z</time>
      </trkpt>
      <trkpt lat="45.95822" lon="3.17357">
        <ele>347.8</ele>
        <time>2024-04-14T10:25:16Z</time>
      </trkpt>
      <trkpt lat="45.95815" lon="3.17352">
        <ele>347.6</ele>
        <time>2024-04-14T10:25:17Z</time>
      </trkpt>
      <trkpt lat="45.95808" lon="3.17347">
        <ele>347.6</ele>
        <time>2024-04-14T10:25:18Z</time>
      </trkpt>
      <trkpt lat="45.95801" lon="3.17342">
        <ele>347.4</ele>
        <time>2024-04-14T10:25:19Z</time>
      </trkpt>
      <trkpt lat="45.95794" lon="3.17337">
        <ele>347.4</ele>
        <time>2024-04-14T10:25:20Z</time>
      </trkpt>
      <trkpt lat="45.95787" lon="3.17332">
        <ele>347.4</ele>
        <time>2024-04-14T10:25:21Z</time>
      </trkpt>
      <trkpt lat="45.9578" lon="3.17327">
        <ele>347.2</ele>
        <time>2024-04-14T10:25:22Z</time>
      </trkpt>
      <trkpt lat="45.95773" lon="3.17322">
        <ele>347.2</ele>
        <time>2024-04-14T10:25:23Z</time>
      </trkpt>
      <trkpt lat="45.95766" lon="3.17316">
        <ele>347.2</ele>
        <time>2024-04-14T10:25:24Z</time>
      </trkpt>
      <trkpt lat="45.95759" lon="3.17311">
        <ele>347.2</ele>
        <time>2024-04-14T10:25:25Z</time>
      </trkpt>
      <trkpt lat="45.95752" lon="3.17305">
        <ele>347.2</ele>
        <time>2024-04-14T10:25:26Z</time>
      </trkpt>
      <trkpt lat="45.95746" lon="3.173">
        <ele>347.2</ele>
        <time>2024-04-14T10:25:27Z</time>
      </trkpt>
      <trkpt lat="45.95739" lon="3.17294">
        <ele>347.2</ele>
        <time>2024-04-14T10:25:28Z</time>
      </trkpt>
      <trkpt lat="45.95732" lon="3.17288">
        <ele>347.2</ele>
        <time>2024-04-14T10:25:29Z</time>
      </trkpt>
      <trkpt lat="45.95725" lon="3.17282">
        <ele>347.2</ele>
        <time>2024-04-14T10:25:30Z</time>
      </trkpt>
      <trkpt lat="45.95719" lon="3.17276">
        <ele>347.2</ele>
        <time>2024-04-14T10:25:31Z</time>
      </trkpt>
      <trkpt lat="45.95713" lon="3.1727">
        <ele>347.2</ele>
        <time>2024-04-14T10:25:32Z</time>
      </trkpt>
      <trkpt lat="45.95707" lon="3.17263">
        <ele>347.2</ele>
        <time>2024-04-14T10:25:33Z</time>
      </trkpt>
      <trkpt lat="45.957" lon="3.17257">
        <ele>347.2</ele>
        <time>2024-04-14T10:25:34Z</time>
      </trkpt>
      <trkpt lat="45.95694" lon="3.17251">
        <ele>347.2</ele>
        <time>2024-04-14T10:25:35Z</time>
      </trkpt>
      <trkpt lat="45.95688" lon="3.17244">
        <ele>347.2</ele>
        <time>2024-04-14T10:25:36Z</time>
      </trkpt>
      <trkpt lat="45.95681" lon="3.17238">
        <ele>347.2</ele>
        <time>2024-04-14T10:25:37Z</time>
      </trkpt>
      <trkpt lat="45.95675" lon="3.17232">
        <ele>347.2</ele>
        <time>2024-04-14T10:25:38Z</time>
      </trkpt>
      <trkpt lat="45.95668" lon="3.17225">
        <ele>347.2</ele>
        <time>2024-04-14T10:25:39Z</time>
      </trkpt>
      <trkpt lat="45.95662" lon="3.17218">
        <ele>347</ele>
        <time>2024-04-14T10:25:40Z</time>
      </trkpt>
      <trkpt lat="45.95656" lon="3.17211">
        <ele>347</ele>
        <time>2024-04-14T10:25:41Z</time>
      </trkpt>
      <trkpt lat="45.9565" lon="3.17205">
        <ele>347.2</ele>
        <time>2024-04-14T10:25:42Z</time>
      </trkpt>
      <trkpt lat="45.95644" lon="3.17198">
        <ele>347.4</ele>
        <time>2024-04-14T10:25:43Z</time>
      </trkpt>
      <trkpt lat="45.95638" lon="3.17191">
        <ele>347.2</ele>
        <time>2024-04-14T10:25:44Z</time>
      </trkpt>
      <trkpt lat="45.95632" lon="3.17185">
        <ele>347.2</ele>
        <time>2024-04-14T10:25:45Z</time>
      </trkpt>
      <trkpt lat="45.95626" lon="3.17178">
        <ele>347.2</ele>
        <time>2024-04-14T10:25:46Z</time>
      </trkpt>
      <trkpt lat="45.9562" lon="3.17171">
        <ele>347.2</ele>
        <time>2024-04-14T10:25:47Z</time>
      </trkpt>
      <trkpt lat="45.95614" lon="3.17164">
        <ele>347.4</ele>
        <time>2024-04-14T10:25:48Z</time>
      </trkpt>
      <trkpt lat="45.95608" lon="3.17157">
        <ele>347.2</ele>
        <time>2024-04-14T10:25:49Z</time>
      </trkpt>
      <trkpt lat="45.95602" lon="3.1715">
        <ele>347.2</ele>
        <time>2024-04-14T10:25:50Z</time>
      </trkpt>
      <trkpt lat="45.95595" lon="3.17143">
        <ele>347.2</ele>
        <time>2024-04-14T10:25:51Z</time>
      </trkpt>
      <trkpt lat="45.95589" lon="3.17136">
        <ele>347.2</ele>
        <time>2024-04-14T10:25:52Z</time>
      </trkpt>
      <trkpt lat="45.95583" lon="3.17129">
        <ele>347.2</ele>
        <time>2024-04-14T10:25:53Z</time>
      </trkpt>
      <trkpt lat="45.95577" lon="3.1712">
        <ele>347</ele>
        <time>2024-04-14T10:25:54Z</time>
      </trkpt>
      <trkpt lat="45.95571" lon="3.17112">
        <ele>347.2</ele>
        <time>2024-04-14T10:25:55Z</time>
      </trkpt>
      <trkpt lat="45.95566" lon="3.17104">
        <ele>347</ele>
        <time>2024-04-14T10:25:56Z</time>
      </trkpt>
      <trkpt lat="45.9556" lon="3.17095">
        <ele>347</ele>
        <time>2024-04-14T10:25:57Z</time>
      </trkpt>
      <trkpt lat="45.95554" lon="3.17086">
        <ele>347</ele>
        <time>2024-04-14T10:25:58Z</time>
      </trkpt>
      <trkpt lat="45.95547" lon="3.17077">
        <ele>347</ele>
        <time>2024-04-14T10:25:59Z</time>
      </trkpt>
      <trkpt lat="45.95541" lon="3.17068">
        <ele>346.8</ele>
        <time>2024-04-14T10:26:00Z</time>
      </trkpt>
      <trkpt lat="45.95534" lon="3.17058">
        <ele>346.8</ele>
        <time>2024-04-14T10:26:01Z</time>
      </trkpt>
      <trkpt lat="45.95528" lon="3.17048">
        <ele>346.8</ele>
        <time>2024-04-14T10:26:02Z</time>
      </trkpt>
      <trkpt lat="45.95521" lon="3.17038">
        <ele>346.6</ele>
        <time>2024-04-14T10:26:03Z</time>
      </trkpt>
      <trkpt lat="45.95514" lon="3.17028">
        <ele>346.6</ele>
        <time>2024-04-14T10:26:04Z</time>
      </trkpt>
      <trkpt lat="45.95507" lon="3.17018">
        <ele>346.4</ele>
        <time>2024-04-14T10:26:05Z</time>
      </trkpt>
      <trkpt lat="45.955" lon="3.17008">
        <ele>346.4</ele>
        <time>2024-04-14T10:26:06Z</time>
      </trkpt>
      <trkpt lat="45.95493" lon="3.16998">
        <ele>346.2</ele>
        <time>2024-04-14T10:26:07Z</time>
      </trkpt>
      <trkpt lat="45.95486" lon="3.16988">
        <ele>346</ele>
        <time>2024-04-14T10:26:08Z</time>
      </trkpt>
      <trkpt lat="45.95479" lon="3.16978">
        <ele>346</ele>
        <time>2024-04-14T10:26:09Z</time>
      </trkpt>
      <trkpt lat="45.95472" lon="3.16968">
        <ele>345.6</ele>
        <time>2024-04-14T10:26:10Z</time>
      </trkpt>
      <trkpt lat="45.95465" lon="3.16959">
        <ele>345.4</ele>
        <time>2024-04-14T10:26:11Z</time>
      </trkpt>
      <trkpt lat="45.95458" lon="3.16949">
        <ele>345.2</ele>
        <time>2024-04-14T10:26:12Z</time>
      </trkpt>
      <trkpt lat="45.95452" lon="3.16939">
        <ele>345</ele>
        <time>2024-04-14T10:26:13Z</time>
      </trkpt>
      <trkpt lat="45.95445" lon="3.16929">
        <ele>345</ele>
        <time>2024-04-14T10:26:14Z</time>
      </trkpt>
      <trkpt lat="45.95438" lon="3.1692">
        <ele>344.8</ele>
        <time>2024-04-14T10:26:15Z</time>
      </trkpt>
      <trkpt lat="45.95432" lon="3.1691">
        <ele>344.6</ele>
        <time>2024-04-14T10:26:16Z</time>
      </trkpt>
      <trkpt lat="45.95425" lon="3.169">
        <ele>344.4</ele>
        <time>2024-04-14T10:26:17Z</time>
      </trkpt>
      <trkpt lat="45.95419" lon="3.16891">
        <ele>344.4</ele>
        <time>2024-04-14T10:26:18Z</time>
      </trkpt>
      <trkpt lat="45.95412" lon="3.16881">
        <ele>344.2</ele>
        <time>2024-04-14T10:26:19Z</time>
      </trkpt>
      <trkpt lat="45.95406" lon="3.16872">
        <ele>344</ele>
        <time>2024-04-14T10:26:20Z</time>
      </trkpt>
      <trkpt lat="45.95399" lon="3.16862">
        <ele>343.8</ele>
        <time>2024-04-14T10:26:21Z</time>
      </trkpt>
      <trkpt lat="45.95393" lon="3.16853">
        <ele>343.6</ele>
        <time>2024-04-14T10:26:22Z</time>
      </trkpt>
      <trkpt lat="45.95386" lon="3.16843">
        <ele>343.6</ele>
        <time>2024-04-14T10:26:23Z</time>
      </trkpt>
      <trkpt lat="45.9538" lon="3.16834">
        <ele>343.4</ele>
        <time>2024-04-14T10:26:24Z</time>
      </trkpt>
      <trkpt lat="45.95374" lon="3.16824">
        <ele>343.2</ele>
        <time>2024-04-14T10:26:25Z</time>
      </trkpt>
      <trkpt lat="45.95367" lon="3.16815">
        <ele>343</ele>
        <time>2024-04-14T10:26:26Z</time>
      </trkpt>
      <trkpt lat="45.95361" lon="3.16805">
        <ele>342.8</ele>
        <time>2024-04-14T10:26:27Z</time>
      </trkpt>
      <trkpt lat="45.95354" lon="3.16796">
        <ele>342.6</ele>
        <time>2024-04-14T10:26:28Z</time>
      </trkpt>
      <trkpt lat="45.95348" lon="3.16786">
        <ele>342.4</ele>
        <time>2024-04-14T10:26:29Z</time>
      </trkpt>
      <trkpt lat="45.95341" lon="3.16776">
        <ele>342.2</ele>
        <time>2024-04-14T10:26:30Z</time>
      </trkpt>
      <trkpt lat="45.95334" lon="3.16766">
        <ele>341.8</ele>
        <time>2024-04-14T10:26:31Z</time>
      </trkpt>
      <trkpt lat="45.95327" lon="3.16756">
        <ele>341.6</ele>
        <time>2024-04-14T10:26:32Z</time>
      </trkpt>
      <trkpt lat="45.95321" lon="3.16747">
        <ele>341.4</ele>
        <time>2024-04-14T10:26:33Z</time>
      </trkpt>
      <trkpt lat="45.95314" lon="3.16737">
        <ele>341.2</ele>
        <time>2024-04-14T10:26:34Z</time>
      </trkpt>
      <trkpt lat="45.95308" lon="3.16727">
        <ele>341</ele>
        <time>2024-04-14T10:26:35Z</time>
      </trkpt>
      <trkpt lat="45.95301" lon="3.16718">
        <ele>340.8</ele>
        <time>2024-04-14T10:26:36Z</time>
      </trkpt>
      <trkpt lat="45.95295" lon="3.16709">
        <ele>340.6</ele>
        <time>2024-04-14T10:26:37Z</time>
      </trkpt>
      <trkpt lat="45.95289" lon="3.167">
        <ele>340.4</ele>
        <time>2024-04-14T10:26:38Z</time>
      </trkpt>
      <trkpt lat="45.95282" lon="3.16691">
        <ele>340</ele>
        <time>2024-04-14T10:26:39Z</time>
      </trkpt>
      <trkpt lat="45.95276" lon="3.16682">
        <ele>339.8</ele>
        <time>2024-04-14T10:26:40Z</time>
      </trkpt>
      <trkpt lat="45.95271" lon="3.16674">
        <ele>339.6</ele>
        <time>2024-04-14T10:26:41Z</time>
      </trkpt>
      <trkpt lat="45.95265" lon="3.16665">
        <ele>339.4</ele>
        <time>2024-04-14T10:26:42Z</time>
      </trkpt>
      <trkpt lat="45.95259" lon="3.16657">
        <ele>339.4</ele>
        <time>2024-04-14T10:26:43Z</time>
      </trkpt>
      <trkpt lat="45.95253" lon="3.16649">
        <ele>339.2</ele>
        <time>2024-04-14T10:26:44Z</time>
      </trkpt>
      <trkpt lat="45.95248" lon="3.16641">
        <ele>339</ele>
        <time>2024-04-14T10:26:45Z</time>
      </trkpt>
      <trkpt lat="45.95242" lon="3.16633">
        <ele>338.8</ele>
        <time>2024-04-14T10:26:46Z</time>
      </trkpt>
      <trkpt lat="45.95237" lon="3.16625">
        <ele>338.6</ele>
        <time>2024-04-14T10:26:47Z</time>
      </trkpt>
      <trkpt lat="45.95231" lon="3.16617">
        <ele>338.6</ele>
        <time>2024-04-14T10:26:48Z</time>
      </trkpt>
      <trkpt lat="45.95226" lon="3.16609">
        <ele>338.4</ele>
        <time>2024-04-14T10:26:49Z</time>
      </trkpt>
      <trkpt lat="45.9522" lon="3.16601">
        <ele>338.2</ele>
        <time>2024-04-14T10:26:50Z</time>
      </trkpt>
      <trkpt lat="45.95215" lon="3.16593">
        <ele>338</ele>
        <time>2024-04-14T10:26:51Z</time>
      </trkpt>
      <trkpt lat="45.95209" lon="3.16585">
        <ele>338</ele>
        <time>2024-04-14T10:26:52Z</time>
      </trkpt>
      <trkpt lat="45.95204" lon="3.16577">
        <ele>337.8</ele>
        <time>2024-04-14T10:26:53Z</time>
      </trkpt>
      <trkpt lat="45.95199" lon="3.16569">
        <ele>337.6</ele>
        <time>2024-04-14T10:26:54Z</time>
      </trkpt>
      <trkpt lat="45.95193" lon="3.16562">
        <ele>337.6</ele>
        <time>2024-04-14T10:26:55Z</time>
      </trkpt>
      <trkpt lat="45.95188" lon="3.16554">
        <ele>337.4</ele>
        <time>2024-04-14T10:26:56Z</time>
      </trkpt>
      <trkpt lat="45.95183" lon="3.16546">
        <ele>337.2</ele>
        <time>2024-04-14T10:26:57Z</time>
      </trkpt>
      <trkpt lat="45.95177" lon="3.16539">
        <ele>337</ele>
        <time>2024-04-14T10:26:58Z</time>
      </trkpt>
      <trkpt lat="45.95172" lon="3.16531">
        <ele>337</ele>
        <time>2024-04-14T10:26:59Z</time>
      </trkpt>
      <trkpt lat="45.95167" lon="3.16524">
        <ele>336.8</ele>
        <time>2024-04-14T10:27:00Z</time>
      </trkpt>
      <trkpt lat="45.95162" lon="3.16516">
        <ele>336.8</ele>
        <time>2024-04-14T10:27:01Z</time>
      </trkpt>
      <trkpt lat="45.95157" lon="3.16509">
        <ele>336.6</ele>
        <time>2024-04-14T10:27:02Z</time>
      </trkpt>
      <trkpt lat="45.95152" lon="3.16501">
        <ele>336.6</ele>
        <time>2024-04-14T10:27:03Z</time>
      </trkpt>
      <trkpt lat="45.95146" lon="3.16494">
        <ele>336.4</ele>
        <time>2024-04-14T10:27:04Z</time>
      </trkpt>
      <trkpt lat="45.95141" lon="3.16486">
        <ele>336.4</ele>
        <time>2024-04-14T10:27:05Z</time>
      </trkpt>
      <trkpt lat="45.95136" lon="3.16479">
        <ele>336.4</ele>
        <time>2024-04-14T10:27:06Z</time>
      </trkpt>
      <trkpt lat="45.95131" lon="3.16471">
        <ele>336.2</ele>
        <time>2024-04-14T10:27:07Z</time>
      </trkpt>
      <trkpt lat="45.95126" lon="3.16464">
        <ele>336.2</ele>
        <time>2024-04-14T10:27:08Z</time>
      </trkpt>
      <trkpt lat="45.9512" lon="3.16456">
        <ele>336</ele>
        <time>2024-04-14T10:27:09Z</time>
      </trkpt>
      <trkpt lat="45.95115" lon="3.16448">
        <ele>336</ele>
        <time>2024-04-14T10:27:10Z</time>
      </trkpt>
      <trkpt lat="45.9511" lon="3.1644">
        <ele>335.8</ele>
        <time>2024-04-14T10:27:11Z</time>
      </trkpt>
      <trkpt lat="45.95104" lon="3.16433">
        <ele>335.8</ele>
        <time>2024-04-14T10:27:12Z</time>
      </trkpt>
      <trkpt lat="45.95099" lon="3.16425">
        <ele>335.6</ele>
        <time>2024-04-14T10:27:13Z</time>
      </trkpt>
      <trkpt lat="45.95093" lon="3.16417">
        <ele>335.6</ele>
        <time>2024-04-14T10:27:14Z</time>
      </trkpt>
      <trkpt lat="45.95088" lon="3.16409">
        <ele>335.4</ele>
        <time>2024-04-14T10:27:15Z</time>
      </trkpt>
      <trkpt lat="45.95082" lon="3.16401">
        <ele>335.2</ele>
        <time>2024-04-14T10:27:16Z</time>
      </trkpt>
      <trkpt lat="45.95077" lon="3.16393">
        <ele>335.2</ele>
        <time>2024-04-14T10:27:17Z</time>
      </trkpt>
      <trkpt lat="45.95072" lon="3.16385">
        <ele>335</ele>
        <time>2024-04-14T10:27:18Z</time>
      </trkpt>
      <trkpt lat="45.95066" lon="3.16377">
        <ele>335</ele>
        <time>2024-04-14T10:27:19Z</time>
      </trkpt>
      <trkpt lat="45.95061" lon="3.16369">
        <ele>334.8</ele>
        <time>2024-04-14T10:27:20Z</time>
      </trkpt>
      <trkpt lat="45.95055" lon="3.16361">
        <ele>334.6</ele>
        <time>2024-04-14T10:27:21Z</time>
      </trkpt>
      <trkpt lat="45.9505" lon="3.16353">
        <ele>334.6</ele>
        <time>2024-04-14T10:27:22Z</time>
      </trkpt>
      <trkpt lat="45.95044" lon="3.16346">
        <ele>334.4</ele>
        <time>2024-04-14T10:27:23Z</time>
      </trkpt>
      <trkpt lat="45.95039" lon="3.16338">
        <ele>334.4</ele>
        <time>2024-04-14T10:27:24Z</time>
      </trkpt>
      <trkpt lat="45.95033" lon="3.1633">
        <ele>334.2</ele>
        <time>2024-04-14T10:27:25Z</time>
      </trkpt>
      <trkpt lat="45.95028" lon="3.16322">
        <ele>334.2</ele>
        <time>2024-04-14T10:27:26Z</time>
      </trkpt>
      <trkpt lat="45.95023" lon="3.16314">
        <ele>334.2</ele>
        <time>2024-04-14T10:27:27Z</time>
      </trkpt>
      <trkpt lat="45.95017" lon="3.16306">
        <ele>334</ele>
        <time>2024-04-14T10:27:28Z</time>
      </trkpt>
      <trkpt lat="45.95012" lon="3.16298">
        <ele>333.8</ele>
        <time>2024-04-14T10:27:29Z</time>
      </trkpt>
      <trkpt lat="45.95006" lon="3.1629">
        <ele>333.8</ele>
        <time>2024-04-14T10:27:30Z</time>
      </trkpt>
      <trkpt lat="45.95001" lon="3.16283">
        <ele>333.6</ele>
        <time>2024-04-14T10:27:31Z</time>
      </trkpt>
      <trkpt lat="45.94996" lon="3.16275">
        <ele>333.6</ele>
        <time>2024-04-14T10:27:32Z</time>
      </trkpt>
      <trkpt lat="45.9499" lon="3.16267">
        <ele>333.6</ele>
        <time>2024-04-14T10:27:33Z</time>
      </trkpt>
      <trkpt lat="45.94984" lon="3.16259">
        <ele>333.4</ele>
        <time>2024-04-14T10:27:34Z</time>
      </trkpt>
      <trkpt lat="45.94979" lon="3.16251">
        <ele>333.4</ele>
        <time>2024-04-14T10:27:35Z</time>
      </trkpt>
      <trkpt lat="45.94973" lon="3.16242">
        <ele>333.4</ele>
        <time>2024-04-14T10:27:36Z</time>
      </trkpt>
      <trkpt lat="45.94968" lon="3.16234">
        <ele>333.2</ele>
        <time>2024-04-14T10:27:37Z</time>
      </trkpt>
      <trkpt lat="45.94962" lon="3.16226">
        <ele>333.2</ele>
        <time>2024-04-14T10:27:38Z</time>
      </trkpt>
      <trkpt lat="45.94957" lon="3.16218">
        <ele>333.2</ele>
        <time>2024-04-14T10:27:39Z</time>
      </trkpt>
      <trkpt lat="45.94951" lon="3.1621">
        <ele>333</ele>
        <time>2024-04-14T10:27:40Z</time>
      </trkpt>
      <trkpt lat="45.94946" lon="3.16202">
        <ele>333</ele>
        <time>2024-04-14T10:27:41Z</time>
      </trkpt>
      <trkpt lat="45.9494" lon="3.16195">
        <ele>333</ele>
        <time>2024-04-14T10:27:42Z</time>
      </trkpt>
      <trkpt lat="45.94935" lon="3.16187">
        <ele>332.8</ele>
        <time>2024-04-14T10:27:43Z</time>
      </trkpt>
      <trkpt lat="45.9493" lon="3.1618">
        <ele>332.8</ele>
        <time>2024-04-14T10:27:44Z</time>
      </trkpt>
      <trkpt lat="45.94924" lon="3.16172">
        <ele>332.8</ele>
        <time>2024-04-14T10:27:45Z</time>
      </trkpt>
      <trkpt lat="45.94919" lon="3.16165">
        <ele>332.6</ele>
        <time>2024-04-14T10:27:46Z</time>
      </trkpt>
      <trkpt lat="45.94914" lon="3.16157">
        <ele>332.6</ele>
        <time>2024-04-14T10:27:47Z</time>
      </trkpt>
      <trkpt lat="45.94909" lon="3.1615">
        <ele>332.4</ele>
        <time>2024-04-14T10:27:48Z</time>
      </trkpt>
      <trkpt lat="45.94904" lon="3.16142">
        <ele>332.4</ele>
        <time>2024-04-14T10:27:49Z</time>
      </trkpt>
      <trkpt lat="45.94898" lon="3.16135">
        <ele>332.4</ele>
        <time>2024-04-14T10:27:50Z</time>
      </trkpt>
      <trkpt lat="45.94893" lon="3.16127">
        <ele>332.2</ele>
        <time>2024-04-14T10:27:51Z</time>
      </trkpt>
      <trkpt lat="45.94888" lon="3.1612">
        <ele>332.2</ele>
        <time>2024-04-14T10:27:52Z</time>
      </trkpt>
      <trkpt lat="45.94883" lon="3.16112">
        <ele>332</ele>
        <time>2024-04-14T10:27:53Z</time>
      </trkpt>
      <trkpt lat="45.94878" lon="3.16105">
        <ele>332</ele>
        <time>2024-04-14T10:27:54Z</time>
      </trkpt>
      <trkpt lat="45.94873" lon="3.16098">
        <ele>331.8</ele>
        <time>2024-04-14T10:27:55Z</time>
      </trkpt>
      <trkpt lat="45.94867" lon="3.16091">
        <ele>331.8</ele>
        <time>2024-04-14T10:27:56Z</time>
      </trkpt>
      <trkpt lat="45.94862" lon="3.16083">
        <ele>331.8</ele>
        <time>2024-04-14T10:27:57Z</time>
      </trkpt>
      <trkpt lat="45.94857" lon="3.16076">
        <ele>331.6</ele>
        <time>2024-04-14T10:27:58Z</time>
      </trkpt>
      <trkpt lat="45.94852" lon="3.16068">
        <ele>331.6</ele>
        <time>2024-04-14T10:27:59Z</time>
      </trkpt>
      <trkpt lat="45.94847" lon="3.1606">
        <ele>331.6</ele>
        <time>2024-04-14T10:28:00Z</time>
      </trkpt>
      <trkpt lat="45.94842" lon="3.16052">
        <ele>331.6</ele>
        <time>2024-04-14T10:28:01Z</time>
      </trkpt>
      <trkpt lat="45.94837" lon="3.16044">
        <ele>331.4</ele>
        <time>2024-04-14T10:28:02Z</time>
      </trkpt>
      <trkpt lat="45.94832" lon="3.16037">
        <ele>331.4</ele>
        <time>2024-04-14T10:28:03Z</time>
      </trkpt>
      <trkpt lat="45.94826" lon="3.16031">
        <ele>331.4</ele>
        <time>2024-04-14T10:28:04Z</time>
      </trkpt>
      <trkpt lat="45.94821" lon="3.16025">
        <ele>331.2</ele>
        <time>2024-04-14T10:28:05Z</time>
      </trkpt>
      <trkpt lat="45.94815" lon="3.16018">
        <ele>331.2</ele>
        <time>2024-04-14T10:28:06Z</time>
      </trkpt>
      <trkpt lat="45.94809" lon="3.16012">
        <ele>331</ele>
        <time>2024-04-14T10:28:07Z</time>
      </trkpt>
      <trkpt lat="45.94803" lon="3.16006">
        <ele>331</ele>
        <time>2024-04-14T10:28:08Z</time>
      </trkpt>
      <trkpt lat="45.94802" lon="3.15991">
        <ele>331</ele>
        <time>2024-04-14T10:28:09Z</time>
      </trkpt>
      <trkpt lat="45.94797" lon="3.15984">
        <ele>330.8</ele>
        <time>2024-04-14T10:28:10Z</time>
      </trkpt>
      <trkpt lat="45.94791" lon="3.15977">
        <ele>330.6</ele>
        <time>2024-04-14T10:28:11Z</time>
      </trkpt>
      <trkpt lat="45.94786" lon="3.1597">
        <ele>330.6</ele>
        <time>2024-04-14T10:28:12Z</time>
      </trkpt>
      <trkpt lat="45.94774" lon="3.15973">
        <ele>330.6</ele>
        <time>2024-04-14T10:28:13Z</time>
      </trkpt>
      <trkpt lat="45.94768" lon="3.15966">
        <ele>330.4</ele>
        <time>2024-04-14T10:28:14Z</time>
      </trkpt>
      <trkpt lat="45.94762" lon="3.1596">
        <ele>330.4</ele>
        <time>2024-04-14T10:28:15Z</time>
      </trkpt>
      <trkpt lat="45.94756" lon="3.15953">
        <ele>330.2</ele>
        <time>2024-04-14T10:28:16Z</time>
      </trkpt>
      <trkpt lat="45.9475" lon="3.15946">
        <ele>330.2</ele>
        <time>2024-04-14T10:28:17Z</time>
      </trkpt>
      <trkpt lat="45.94743" lon="3.1594">
        <ele>330</ele>
        <time>2024-04-14T10:28:18Z</time>
      </trkpt>
      <trkpt lat="45.94736" lon="3.15934">
        <ele>330</ele>
        <time>2024-04-14T10:28:19Z</time>
      </trkpt>
      <trkpt lat="45.9473" lon="3.15928">
        <ele>329.8</ele>
        <time>2024-04-14T10:28:20Z</time>
      </trkpt>
      <trkpt lat="45.94723" lon="3.15922">
        <ele>329.8</ele>
        <time>2024-04-14T10:28:21Z</time>
      </trkpt>
      <trkpt lat="45.94717" lon="3.15917">
        <ele>329.6</ele>
        <time>2024-04-14T10:28:22Z</time>
      </trkpt>
      <trkpt lat="45.94711" lon="3.15911">
        <ele>329.6</ele>
        <time>2024-04-14T10:28:23Z</time>
      </trkpt>
      <trkpt lat="45.94705" lon="3.15906">
        <ele>329.4</ele>
        <time>2024-04-14T10:28:24Z</time>
      </trkpt>
      <trkpt lat="45.94699" lon="3.159">
        <ele>329.4</ele>
        <time>2024-04-14T10:28:25Z</time>
      </trkpt>
      <trkpt lat="45.94693" lon="3.15895">
        <ele>329.2</ele>
        <time>2024-04-14T10:28:26Z</time>
      </trkpt>
      <trkpt lat="45.94686" lon="3.15889">
        <ele>329.2</ele>
        <time>2024-04-14T10:28:27Z</time>
      </trkpt>
      <trkpt lat="45.9468" lon="3.15884">
        <ele>329.2</ele>
        <time>2024-04-14T10:28:28Z</time>
      </trkpt>
      <trkpt lat="45.94674" lon="3.15878">
        <ele>329.2</ele>
        <time>2024-04-14T10:28:29Z</time>
      </trkpt>
      <trkpt lat="45.94667" lon="3.15873">
        <ele>329.2</ele>
        <time>2024-04-14T10:28:30Z</time>
      </trkpt>
      <trkpt lat="45.94661" lon="3.15867">
        <ele>329</ele>
        <time>2024-04-14T10:28:31Z</time>
      </trkpt>
      <trkpt lat="45.94655" lon="3.15861">
        <ele>329</ele>
        <time>2024-04-14T10:28:32Z</time>
      </trkpt>
      <trkpt lat="45.94649" lon="3.15855">
        <ele>329</ele>
        <time>2024-04-14T10:28:33Z</time>
      </trkpt>
      <trkpt lat="45.94642" lon="3.1585">
        <ele>328.8</ele>
        <time>2024-04-14T10:28:34Z</time>
      </trkpt>
      <trkpt lat="45.94636" lon="3.15844">
        <ele>328.8</ele>
        <time>2024-04-14T10:28:35Z</time>
      </trkpt>
      <trkpt lat="45.9463" lon="3.15839">
        <ele>328.8</ele>
        <time>2024-04-14T10:28:36Z</time>
      </trkpt>
      <trkpt lat="45.94624" lon="3.15833">
        <ele>328.8</ele>
        <time>2024-04-14T10:28:37Z</time>
      </trkpt>
      <trkpt lat="45.94618" lon="3.15828">
        <ele>328.6</ele>
        <time>2024-04-14T10:28:38Z</time>
      </trkpt>
      <trkpt lat="45.94612" lon="3.15822">
        <ele>328.6</ele>
        <time>2024-04-14T10:28:39Z</time>
      </trkpt>
      <trkpt lat="45.94606" lon="3.15817">
        <ele>328.6</ele>
        <time>2024-04-14T10:28:40Z</time>
      </trkpt>
      <trkpt lat="45.946" lon="3.15812">
        <ele>328.6</ele>
        <time>2024-04-14T10:28:41Z</time>
      </trkpt>
      <trkpt lat="45.94595" lon="3.15807">
        <ele>328.6</ele>
        <time>2024-04-14T10:28:42Z</time>
      </trkpt>
      <trkpt lat="45.94589" lon="3.15802">
        <ele>328.6</ele>
        <time>2024-04-14T10:28:43Z</time>
      </trkpt>
      <trkpt lat="45.94584" lon="3.15797">
        <ele>328.6</ele>
        <time>2024-04-14T10:28:44Z</time>
      </trkpt>
      <trkpt lat="45.94578" lon="3.15792">
        <ele>328.6</ele>
        <time>2024-04-14T10:28:45Z</time>
      </trkpt>
      <trkpt lat="45.94573" lon="3.15787">
        <ele>328.6</ele>
        <time>2024-04-14T10:28:46Z</time>
      </trkpt>
      <trkpt lat="45.94568" lon="3.15783">
        <ele>328.6</ele>
        <time>2024-04-14T10:28:47Z</time>
      </trkpt>
      <trkpt lat="45.94563" lon="3.15778">
        <ele>328.6</ele>
        <time>2024-04-14T10:28:48Z</time>
      </trkpt>
      <trkpt lat="45.94557" lon="3.15773">
        <ele>328.6</ele>
        <time>2024-04-14T10:28:49Z</time>
      </trkpt>
      <trkpt lat="45.94553" lon="3.15769">
        <ele>328.6</ele>
        <time>2024-04-14T10:28:50Z</time>
      </trkpt>
      <trkpt lat="45.94548" lon="3.15764">
        <ele>328.6</ele>
        <time>2024-04-14T10:28:51Z</time>
      </trkpt>
      <trkpt lat="45.94542" lon="3.1576">
        <ele>328.6</ele>
        <time>2024-04-14T10:28:52Z</time>
      </trkpt>
      <trkpt lat="45.94538" lon="3.15755">
        <ele>328.6</ele>
        <time>2024-04-14T10:28:53Z</time>
      </trkpt>
      <trkpt lat="45.94533" lon="3.1575">
        <ele>328.6</ele>
        <time>2024-04-14T10:28:54Z</time>
      </trkpt>
      <trkpt lat="45.94528" lon="3.15746">
        <ele>328.6</ele>
        <time>2024-04-14T10:28:55Z</time>
      </trkpt>
      <trkpt lat="45.94523" lon="3.15741">
        <ele>328.6</ele>
        <time>2024-04-14T10:28:56Z</time>
      </trkpt>
      <trkpt lat="45.94518" lon="3.15737">
        <ele>328.6</ele>
        <time>2024-04-14T10:28:57Z</time>
      </trkpt>
      <trkpt lat="45.94513" lon="3.15732">
        <ele>328.6</ele>
        <time>2024-04-14T10:28:58Z</time>
      </trkpt>
      <trkpt lat="45.94508" lon="3.15728">
        <ele>328.6</ele>
        <time>2024-04-14T10:28:59Z</time>
      </trkpt>
      <trkpt lat="45.94503" lon="3.15724">
        <ele>328.8</ele>
        <time>2024-04-14T10:29:00Z</time>
      </trkpt>
      <trkpt lat="45.94498" lon="3.15719">
        <ele>329</ele>
        <time>2024-04-14T10:29:01Z</time>
      </trkpt>
      <trkpt lat="45.94494" lon="3.15715">
        <ele>329</ele>
        <time>2024-04-14T10:29:02Z</time>
      </trkpt>
      <trkpt lat="45.94489" lon="3.15711">
        <ele>328.8</ele>
        <time>2024-04-14T10:29:03Z</time>
      </trkpt>
      <trkpt lat="45.94484" lon="3.15706">
        <ele>328.8</ele>
        <time>2024-04-14T10:29:04Z</time>
      </trkpt>
      <trkpt lat="45.94479" lon="3.15702">
        <ele>328.8</ele>
        <time>2024-04-14T10:29:05Z</time>
      </trkpt>
      <trkpt lat="45.94475" lon="3.15698">
        <ele>329</ele>
        <time>2024-04-14T10:29:06Z</time>
      </trkpt>
      <trkpt lat="45.94471" lon="3.15694">
        <ele>329</ele>
        <time>2024-04-14T10:29:07Z</time>
      </trkpt>
      <trkpt lat="45.94466" lon="3.1569">
        <ele>329</ele>
        <time>2024-04-14T10:29:08Z</time>
      </trkpt>
      <trkpt lat="45.94462" lon="3.15687">
        <ele>329</ele>
        <time>2024-04-14T10:29:09Z</time>
      </trkpt>
      <trkpt lat="45.94458" lon="3.15683">
        <ele>329</ele>
        <time>2024-04-14T10:29:10Z</time>
      </trkpt>
      <trkpt lat="45.94453" lon="3.15679">
        <ele>329</ele>
        <time>2024-04-14T10:29:11Z</time>
      </trkpt>
      <trkpt lat="45.94449" lon="3.15675">
        <ele>329</ele>
        <time>2024-04-14T10:29:12Z</time>
      </trkpt>
      <trkpt lat="45.94445" lon="3.15671">
        <ele>329.2</ele>
        <time>2024-04-14T10:29:13Z</time>
      </trkpt>
      <trkpt lat="45.9444" lon="3.15668">
        <ele>329.2</ele>
        <time>2024-04-14T10:29:14Z</time>
      </trkpt>
      <trkpt lat="45.94436" lon="3.15664">
        <ele>329.2</ele>
        <time>2024-04-14T10:29:15Z</time>
      </trkpt>
      <trkpt lat="45.94432" lon="3.1566">
        <ele>329.2</ele>
        <time>2024-04-14T10:29:16Z</time>
      </trkpt>
      <trkpt lat="45.94428" lon="3.15656">
        <ele>329.2</ele>
        <time>2024-04-14T10:29:17Z</time>
      </trkpt>
      <trkpt lat="45.94423" lon="3.15652">
        <ele>329.4</ele>
        <time>2024-04-14T10:29:18Z</time>
      </trkpt>
      <trkpt lat="45.94419" lon="3.15649">
        <ele>329.4</ele>
        <time>2024-04-14T10:29:19Z</time>
      </trkpt>
      <trkpt lat="45.94415" lon="3.15645">
        <ele>329.4</ele>
        <time>2024-04-14T10:29:20Z</time>
      </trkpt>
      <trkpt lat="45.94411" lon="3.15641">
        <ele>329.4</ele>
        <time>2024-04-14T10:29:21Z</time>
      </trkpt>
      <trkpt lat="45.94407" lon="3.15638">
        <ele>329.6</ele>
        <time>2024-04-14T10:29:22Z</time>
      </trkpt>
      <trkpt lat="45.94403" lon="3.15634">
        <ele>329.6</ele>
        <time>2024-04-14T10:29:23Z</time>
      </trkpt>
      <trkpt lat="45.94399" lon="3.1563">
        <ele>329.6</ele>
        <time>2024-04-14T10:29:24Z</time>
      </trkpt>
      <trkpt lat="45.94395" lon="3.15627">
        <ele>329.8</ele>
        <time>2024-04-14T10:29:25Z</time>
      </trkpt>
      <trkpt lat="45.94391" lon="3.15623">
        <ele>329.8</ele>
        <time>2024-04-14T10:29:26Z</time>
      </trkpt>
      <trkpt lat="45.94387" lon="3.1562">
        <ele>329.8</ele>
        <time>2024-04-14T10:29:27Z</time>
      </trkpt>
      <trkpt lat="45.94383" lon="3.15616">
        <ele>330</ele>
        <time>2024-04-14T10:29:28Z</time>
      </trkpt>
      <trkpt lat="45.94379" lon="3.15613">
        <ele>330</ele>
        <time>2024-04-14T10:29:29Z</time>
      </trkpt>
      <trkpt lat="45.94375" lon="3.15609">
        <ele>330.2</ele>
        <time>2024-04-14T10:29:30Z</time>
      </trkpt>
      <trkpt lat="45.94372" lon="3.15606">
        <ele>330.2</ele>
        <time>2024-04-14T10:29:31Z</time>
      </trkpt>
      <trkpt lat="45.94368" lon="3.15603">
        <ele>330.4</ele>
        <time>2024-04-14T10:29:32Z</time>
      </trkpt>
      <trkpt lat="45.94364" lon="3.156">
        <ele>330.4</ele>
        <time>2024-04-14T10:29:33Z</time>
      </trkpt>
      <trkpt lat="45.94361" lon="3.15596">
        <ele>330.6</ele>
        <time>2024-04-14T10:29:34Z</time>
      </trkpt>
      <trkpt lat="45.94357" lon="3.15593">
        <ele>330.6</ele>
        <time>2024-04-14T10:29:35Z</time>
      </trkpt>
      <trkpt lat="45.94353" lon="3.1559">
        <ele>330.6</ele>
        <time>2024-04-14T10:29:36Z</time>
      </trkpt>
      <trkpt lat="45.9435" lon="3.15587">
        <ele>330.8</ele>
        <time>2024-04-14T10:29:37Z</time>
      </trkpt>
      <trkpt lat="45.94346" lon="3.15584">
        <ele>331</ele>
        <time>2024-04-14T10:29:38Z</time>
      </trkpt>
      <trkpt lat="45.94343" lon="3.1558">
        <ele>331</ele>
        <time>2024-04-14T10:29:39Z</time>
      </trkpt>
      <trkpt lat="45.94339" lon="3.15577">
        <ele>331</ele>
        <time>2024-04-14T10:29:40Z</time>
      </trkpt>
      <trkpt lat="45.94336" lon="3.15574">
        <ele>331.2</ele>
        <time>2024-04-14T10:29:41Z</time>
      </trkpt>
      <trkpt lat="45.94333" lon="3.15572">
        <ele>331.2</ele>
        <time>2024-04-14T10:29:42Z</time>
      </trkpt>
      <trkpt lat="45.9433" lon="3.15569">
        <ele>331.4</ele>
        <time>2024-04-14T10:29:43Z</time>
      </trkpt>
      <trkpt lat="45.94326" lon="3.15566">
        <ele>331.4</ele>
        <time>2024-04-14T10:29:44Z</time>
      </trkpt>
      <trkpt lat="45.94323" lon="3.15563">
        <ele>331.6</ele>
        <time>2024-04-14T10:29:45Z</time>
      </trkpt>
      <trkpt lat="45.9432" lon="3.1556">
        <ele>331.8</ele>
        <time>2024-04-14T10:29:46Z</time>
      </trkpt>
      <trkpt lat="45.94316" lon="3.15557">
        <ele>331.8</ele>
        <time>2024-04-14T10:29:47Z</time>
      </trkpt>
      <trkpt lat="45.94313" lon="3.15554">
        <ele>332</ele>
        <time>2024-04-14T10:29:48Z</time>
      </trkpt>
      <trkpt lat="45.9431" lon="3.15551">
        <ele>332.2</ele>
        <time>2024-04-14T10:29:49Z</time>
      </trkpt>
      <trkpt lat="45.94306" lon="3.15548">
        <ele>332.2</ele>
        <time>2024-04-14T10:29:50Z</time>
      </trkpt>
      <trkpt lat="45.94303" lon="3.15545">
        <ele>332.4</ele>
        <time>2024-04-14T10:29:51Z</time>
      </trkpt>
      <trkpt lat="45.94299" lon="3.15542">
        <ele>332.4</ele>
        <time>2024-04-14T10:29:52Z</time>
      </trkpt>
      <trkpt lat="45.94296" lon="3.15538">
        <ele>332.4</ele>
        <time>2024-04-14T10:29:53Z</time>
      </trkpt>
      <trkpt lat="45.94293" lon="3.15536">
        <ele>332.6</ele>
        <time>2024-04-14T10:29:54Z</time>
      </trkpt>
      <trkpt lat="45.94289" lon="3.15533">
        <ele>332.6</ele>
        <time>2024-04-14T10:29:55Z</time>
      </trkpt>
      <trkpt lat="45.94286" lon="3.1553">
        <ele>332.8</ele>
        <time>2024-04-14T10:29:56Z</time>
      </trkpt>
      <trkpt lat="45.94283" lon="3.15527">
        <ele>333</ele>
        <time>2024-04-14T10:29:57Z</time>
      </trkpt>
      <trkpt lat="45.9428" lon="3.15524">
        <ele>333</ele>
        <time>2024-04-14T10:29:58Z</time>
      </trkpt>
      <trkpt lat="45.94277" lon="3.15521">
        <ele>333.2</ele>
        <time>2024-04-14T10:29:59Z</time>
      </trkpt>
      <trkpt lat="45.94273" lon="3.15518">
        <ele>333.2</ele>
        <time>2024-04-14T10:30:00Z</time>
      </trkpt>
      <trkpt lat="45.9427" lon="3.15515">
        <ele>333.4</ele>
        <time>2024-04-14T10:30:01Z</time>
      </trkpt>
      <trkpt lat="45.94267" lon="3.15512">
        <ele>333.4</ele>
        <time>2024-04-14T10:30:02Z</time>
      </trkpt>
      <trkpt lat="45.94263" lon="3.15509">
        <ele>333.6</ele>
        <time>2024-04-14T10:30:03Z</time>
      </trkpt>
      <trkpt lat="45.9426" lon="3.15507">
        <ele>333.8</ele>
        <time>2024-04-14T10:30:04Z</time>
      </trkpt>
      <trkpt lat="45.94257" lon="3.15504">
        <ele>333.8</ele>
        <time>2024-04-14T10:30:05Z</time>
      </trkpt>
      <trkpt lat="45.94254" lon="3.15501">
        <ele>334</ele>
        <time>2024-04-14T10:30:06Z</time>
      </trkpt>
      <trkpt lat="45.9425" lon="3.15498">
        <ele>334.2</ele>
        <time>2024-04-14T10:30:07Z</time>
      </trkpt>
      <trkpt lat="45.94247" lon="3.15495">
        <ele>334.2</ele>
        <time>2024-04-14T10:30:08Z</time>
      </trkpt>
      <trkpt lat="45.94244" lon="3.15492">
        <ele>334.4</ele>
        <time>2024-04-14T10:30:09Z</time>
      </trkpt>
      <trkpt lat="45.94241" lon="3.1549">
        <ele>334.6</ele>
        <time>2024-04-14T10:30:10Z</time>
      </trkpt>
      <trkpt lat="45.94238" lon="3.15487">
        <ele>334.6</ele>
        <time>2024-04-14T10:30:11Z</time>
      </trkpt>
      <trkpt lat="45.94235" lon="3.15484">
        <ele>334.8</ele>
        <time>2024-04-14T10:30:12Z</time>
      </trkpt>
      <trkpt lat="45.94232" lon="3.15481">
        <ele>335</ele>
        <time>2024-04-14T10:30:13Z</time>
      </trkpt>
      <trkpt lat="45.94229" lon="3.15479">
        <ele>335</ele>
        <time>2024-04-14T10:30:14Z</time>
      </trkpt>
      <trkpt lat="45.94225" lon="3.15476">
        <ele>335.2</ele>
        <time>2024-04-14T10:30:15Z</time>
      </trkpt>
      <trkpt lat="45.94222" lon="3.15473">
        <ele>335.4</ele>
        <time>2024-04-14T10:30:16Z</time>
      </trkpt>
      <trkpt lat="45.94219" lon="3.1547">
        <ele>335.4</ele>
        <time>2024-04-14T10:30:17Z</time>
      </trkpt>
      <trkpt lat="45.94215" lon="3.15467">
        <ele>335.6</ele>
        <time>2024-04-14T10:30:18Z</time>
      </trkpt>
      <trkpt lat="45.94212" lon="3.15464">
        <ele>335.8</ele>
        <time>2024-04-14T10:30:19Z</time>
      </trkpt>
      <trkpt lat="45.94209" lon="3.15461">
        <ele>336</ele>
        <time>2024-04-14T10:30:20Z</time>
      </trkpt>
      <trkpt lat="45.94205" lon="3.15458">
        <ele>336.2</ele>
        <time>2024-04-14T10:30:21Z</time>
      </trkpt>
      <trkpt lat="45.94202" lon="3.15454">
        <ele>336.2</ele>
        <time>2024-04-14T10:30:22Z</time>
      </trkpt>
      <trkpt lat="45.94198" lon="3.15451">
        <ele>336.4</ele>
        <time>2024-04-14T10:30:23Z</time>
      </trkpt>
      <trkpt lat="45.94195" lon="3.15448">
        <ele>336.6</ele>
        <time>2024-04-14T10:30:24Z</time>
      </trkpt>
      <trkpt lat="45.94191" lon="3.15445">
        <ele>336.6</ele>
        <time>2024-04-14T10:30:25Z</time>
      </trkpt>
      <trkpt lat="45.94188" lon="3.15442">
        <ele>336.8</ele>
        <time>2024-04-14T10:30:26Z</time>
      </trkpt>
      <trkpt lat="45.94184" lon="3.15439">
        <ele>336.8</ele>
        <time>2024-04-14T10:30:27Z</time>
      </trkpt>
      <trkpt lat="45.94181" lon="3.15436">
        <ele>337</ele>
        <time>2024-04-14T10:30:28Z</time>
      </trkpt>
      <trkpt lat="45.94177" lon="3.15432">
        <ele>337.2</ele>
        <time>2024-04-14T10:30:29Z</time>
      </trkpt>
      <trkpt lat="45.94173" lon="3.15429">
        <ele>337.2</ele>
        <time>2024-04-14T10:30:30Z</time>
      </trkpt>
      <trkpt lat="45.9417" lon="3.15426">
        <ele>337.4</ele>
        <time>2024-04-14T10:30:31Z</time>
      </trkpt>
      <trkpt lat="45.94166" lon="3.15423">
        <ele>337.4</ele>
        <time>2024-04-14T10:30:32Z</time>
      </trkpt>
      <trkpt lat="45.94163" lon="3.1542">
        <ele>337.6</ele>
        <time>2024-04-14T10:30:33Z</time>
      </trkpt>
      <trkpt lat="45.94159" lon="3.15416">
        <ele>337.8</ele>
        <time>2024-04-14T10:30:34Z</time>
      </trkpt>
      <trkpt lat="45.94155" lon="3.15413">
        <ele>337.8</ele>
        <time>2024-04-14T10:30:35Z</time>
      </trkpt>
      <trkpt lat="45.94151" lon="3.1541">
        <ele>338</ele>
        <time>2024-04-14T10:30:36Z</time>
      </trkpt>
      <trkpt lat="45.94148" lon="3.15407">
        <ele>338.2</ele>
        <time>2024-04-14T10:30:37Z</time>
      </trkpt>
      <trkpt lat="45.94144" lon="3.15403">
        <ele>338.2</ele>
        <time>2024-04-14T10:30:38Z</time>
      </trkpt>
      <trkpt lat="45.9414" lon="3.154">
        <ele>338.4</ele>
        <time>2024-04-14T10:30:39Z</time>
      </trkpt>
      <trkpt lat="45.94136" lon="3.15397">
        <ele>338.4</ele>
        <time>2024-04-14T10:30:40Z</time>
      </trkpt>
      <trkpt lat="45.94132" lon="3.15393">
        <ele>338.6</ele>
        <time>2024-04-14T10:30:41Z</time>
      </trkpt>
      <trkpt lat="45.94128" lon="3.1539">
        <ele>338.8</ele>
        <time>2024-04-14T10:30:42Z</time>
      </trkpt>
      <trkpt lat="45.94124" lon="3.15386">
        <ele>339</ele>
        <time>2024-04-14T10:30:43Z</time>
      </trkpt>
      <trkpt lat="45.9412" lon="3.15383">
        <ele>339</ele>
        <time>2024-04-14T10:30:44Z</time>
      </trkpt>
      <trkpt lat="45.94116" lon="3.15379">
        <ele>339</ele>
        <time>2024-04-14T10:30:45Z</time>
      </trkpt>
      <trkpt lat="45.94112" lon="3.15376">
        <ele>339.2</ele>
        <time>2024-04-14T10:30:46Z</time>
      </trkpt>
      <trkpt lat="45.94107" lon="3.15372">
        <ele>339.4</ele>
        <time>2024-04-14T10:30:47Z</time>
      </trkpt>
      <trkpt lat="45.94103" lon="3.15368">
        <ele>339.4</ele>
        <time>2024-04-14T10:30:48Z</time>
      </trkpt>
      <trkpt lat="45.94098" lon="3.15364">
        <ele>339.6</ele>
        <time>2024-04-14T10:30:49Z</time>
      </trkpt>
      <trkpt lat="45.94093" lon="3.15359">
        <ele>339.8</ele>
        <time>2024-04-14T10:30:50Z</time>
      </trkpt>
      <trkpt lat="45.94088" lon="3.15355">
        <ele>339.8</ele>
        <time>2024-04-14T10:30:51Z</time>
      </trkpt>
      <trkpt lat="45.94083" lon="3.1535">
        <ele>340</ele>
        <time>2024-04-14T10:30:52Z</time>
      </trkpt>
      <trkpt lat="45.94078" lon="3.15346">
        <ele>340</ele>
        <time>2024-04-14T10:30:53Z</time>
      </trkpt>
      <trkpt lat="45.94072" lon="3.15341">
        <ele>340.2</ele>
        <time>2024-04-14T10:30:54Z</time>
      </trkpt>
      <trkpt lat="45.94067" lon="3.15336">
        <ele>340.2</ele>
        <time>2024-04-14T10:30:55Z</time>
      </trkpt>
      <trkpt lat="45.94061" lon="3.15331">
        <ele>340.4</ele>
        <time>2024-04-14T10:30:56Z</time>
      </trkpt>
      <trkpt lat="45.94055" lon="3.15326">
        <ele>340.4</ele>
        <time>2024-04-14T10:30:57Z</time>
      </trkpt>
      <trkpt lat="45.94049" lon="3.15321">
        <ele>340.4</ele>
        <time>2024-04-14T10:30:58Z</time>
      </trkpt>
      <trkpt lat="45.94043" lon="3.15315">
        <ele>340.6</ele>
        <time>2024-04-14T10:30:59Z</time>
      </trkpt>
      <trkpt lat="45.94037" lon="3.1531">
        <ele>340.6</ele>
        <time>2024-04-14T10:31:00Z</time>
      </trkpt>
      <trkpt lat="45.94031" lon="3.15305">
        <ele>340.6</ele>
        <time>2024-04-14T10:31:01Z</time>
      </trkpt>
      <trkpt lat="45.94025" lon="3.153">
        <ele>340.6</ele>
        <time>2024-04-14T10:31:02Z</time>
      </trkpt>
      <trkpt lat="45.94019" lon="3.15294">
        <ele>340.8</ele>
        <time>2024-04-14T10:31:03Z</time>
      </trkpt>
      <trkpt lat="45.94012" lon="3.15289">
        <ele>340.8</ele>
        <time>2024-04-14T10:31:04Z</time>
      </trkpt>
      <trkpt lat="45.94006" lon="3.15284">
        <ele>340.8</ele>
        <time>2024-04-14T10:31:05Z</time>
      </trkpt>
      <trkpt lat="45.94" lon="3.15278">
        <ele>340.8</ele>
        <time>2024-04-14T10:31:06Z</time>
      </trkpt>
      <trkpt lat="45.93994" lon="3.15273">
        <ele>340.8</ele>
        <time>2024-04-14T10:31:07Z</time>
      </trkpt>
      <trkpt lat="45.93988" lon="3.15268">
        <ele>341</ele>
        <time>2024-04-14T10:31:08Z</time>
      </trkpt>
      <trkpt lat="45.93982" lon="3.15263">
        <ele>341</ele>
        <time>2024-04-14T10:31:09Z</time>
      </trkpt>
      <trkpt lat="45.93976" lon="3.15258">
        <ele>341</ele>
        <time>2024-04-14T10:31:10Z</time>
      </trkpt>
      <trkpt lat="45.93971" lon="3.15253">
        <ele>341</ele>
        <time>2024-04-14T10:31:11Z</time>
      </trkpt>
      <trkpt lat="45.93965" lon="3.15247">
        <ele>341.2</ele>
        <time>2024-04-14T10:31:12Z</time>
      </trkpt>
      <trkpt lat="45.93958" lon="3.15242">
        <ele>341.2</ele>
        <time>2024-04-14T10:31:13Z</time>
      </trkpt>
      <trkpt lat="45.93952" lon="3.15237">
        <ele>341.2</ele>
        <time>2024-04-14T10:31:14Z</time>
      </trkpt>
      <trkpt lat="45.93946" lon="3.15231">
        <ele>341.2</ele>
        <time>2024-04-14T10:31:15Z</time>
      </trkpt>
      <trkpt lat="45.9394" lon="3.15226">
        <ele>341.2</ele>
        <time>2024-04-14T10:31:16Z</time>
      </trkpt>
      <trkpt lat="45.93934" lon="3.15221">
        <ele>341.2</ele>
        <time>2024-04-14T10:31:17Z</time>
      </trkpt>
      <trkpt lat="45.93928" lon="3.15215">
        <ele>341.4</ele>
        <time>2024-04-14T10:31:18Z</time>
      </trkpt>
      <trkpt lat="45.93922" lon="3.1521">
        <ele>341.4</ele>
        <time>2024-04-14T10:31:19Z</time>
      </trkpt>
      <trkpt lat="45.93916" lon="3.15205">
        <ele>341.4</ele>
        <time>2024-04-14T10:31:20Z</time>
      </trkpt>
      <trkpt lat="45.9391" lon="3.152">
        <ele>341.4</ele>
        <time>2024-04-14T10:31:21Z</time>
      </trkpt>
      <trkpt lat="45.93904" lon="3.15194">
        <ele>341.6</ele>
        <time>2024-04-14T10:31:22Z</time>
      </trkpt>
      <trkpt lat="45.93898" lon="3.15189">
        <ele>341.6</ele>
        <time>2024-04-14T10:31:23Z</time>
      </trkpt>
      <trkpt lat="45.93891" lon="3.15184">
        <ele>341.6</ele>
        <time>2024-04-14T10:31:24Z</time>
      </trkpt>
      <trkpt lat="45.93885" lon="3.15178">
        <ele>341.6</ele>
        <time>2024-04-14T10:31:25Z</time>
      </trkpt>
      <trkpt lat="45.93879" lon="3.15173">
        <ele>341.6</ele>
        <time>2024-04-14T10:31:26Z</time>
      </trkpt>
      <trkpt lat="45.93872" lon="3.15167">
        <ele>341.8</ele>
        <time>2024-04-14T10:31:27Z</time>
      </trkpt>
      <trkpt lat="45.93866" lon="3.15162">
        <ele>341.8</ele>
        <time>2024-04-14T10:31:28Z</time>
      </trkpt>
      <trkpt lat="45.93859" lon="3.15156">
        <ele>341.8</ele>
        <time>2024-04-14T10:31:29Z</time>
      </trkpt>
      <trkpt lat="45.93853" lon="3.1515">
        <ele>341.8</ele>
        <time>2024-04-14T10:31:30Z</time>
      </trkpt>
      <trkpt lat="45.93846" lon="3.15144">
        <ele>341.8</ele>
        <time>2024-04-14T10:31:31Z</time>
      </trkpt>
      <trkpt lat="45.9384" lon="3.15138">
        <ele>341.8</ele>
        <time>2024-04-14T10:31:32Z</time>
      </trkpt>
      <trkpt lat="45.93833" lon="3.15133">
        <ele>341.8</ele>
        <time>2024-04-14T10:31:33Z</time>
      </trkpt>
      <trkpt lat="45.93827" lon="3.15127">
        <ele>341.8</ele>
        <time>2024-04-14T10:31:34Z</time>
      </trkpt>
      <trkpt lat="45.9382" lon="3.15122">
        <ele>341.8</ele>
        <time>2024-04-14T10:31:35Z</time>
      </trkpt>
      <trkpt lat="45.93813" lon="3.15116">
        <ele>341.8</ele>
        <time>2024-04-14T10:31:36Z</time>
      </trkpt>
      <trkpt lat="45.93807" lon="3.1511">
        <ele>341.8</ele>
        <time>2024-04-14T10:31:37Z</time>
      </trkpt>
      <trkpt lat="45.938" lon="3.15104">
        <ele>341.8</ele>
        <time>2024-04-14T10:31:38Z</time>
      </trkpt>
      <trkpt lat="45.93794" lon="3.15099">
        <ele>341.8</ele>
        <time>2024-04-14T10:31:39Z</time>
      </trkpt>
      <trkpt lat="45.93787" lon="3.15093">
        <ele>341.8</ele>
        <time>2024-04-14T10:31:40Z</time>
      </trkpt>
      <trkpt lat="45.93781" lon="3.15087">
        <ele>341.8</ele>
        <time>2024-04-14T10:31:41Z</time>
      </trkpt>
      <trkpt lat="45.93774" lon="3.15082">
        <ele>341.8</ele>
        <time>2024-04-14T10:31:42Z</time>
      </trkpt>
      <trkpt lat="45.93768" lon="3.15076">
        <ele>341.8</ele>
        <time>2024-04-14T10:31:43Z</time>
      </trkpt>
      <trkpt lat="45.93761" lon="3.1507">
        <ele>341.8</ele>
        <time>2024-04-14T10:31:44Z</time>
      </trkpt>
      <trkpt lat="45.93755" lon="3.15065">
        <ele>341.8</ele>
        <time>2024-04-14T10:31:45Z</time>
      </trkpt>
      <trkpt lat="45.93748" lon="3.15059">
        <ele>341.8</ele>
        <time>2024-04-14T10:31:46Z</time>
      </trkpt>
      <trkpt lat="45.93742" lon="3.15054">
        <ele>341.8</ele>
        <time>2024-04-14T10:31:47Z</time>
      </trkpt>
      <trkpt lat="45.93736" lon="3.15048">
        <ele>341.8</ele>
        <time>2024-04-14T10:31:48Z</time>
      </trkpt>
      <trkpt lat="45.93729" lon="3.15042">
        <ele>341.8</ele>
        <time>2024-04-14T10:31:49Z</time>
      </trkpt>
      <trkpt lat="45.93722" lon="3.15036">
        <ele>341.8</ele>
        <time>2024-04-14T10:31:50Z</time>
      </trkpt>
      <trkpt lat="45.93716" lon="3.15031">
        <ele>341.8</ele>
        <time>2024-04-14T10:31:51Z</time>
      </trkpt>
      <trkpt lat="45.93709" lon="3.15025">
        <ele>341.8</ele>
        <time>2024-04-14T10:31:52Z</time>
      </trkpt>
      <trkpt lat="45.93702" lon="3.15019">
        <ele>341.8</ele>
        <time>2024-04-14T10:31:53Z</time>
      </trkpt>
      <trkpt lat="45.93696" lon="3.15013">
        <ele>341.6</ele>
        <time>2024-04-14T10:31:54Z</time>
      </trkpt>
      <trkpt lat="45.93689" lon="3.15007">
        <ele>341.6</ele>
        <time>2024-04-14T10:31:55Z</time>
      </trkpt>
      <trkpt lat="45.93682" lon="3.15001">
        <ele>341.6</ele>
        <time>2024-04-14T10:31:56Z</time>
      </trkpt>
      <trkpt lat="45.93675" lon="3.14995">
        <ele>341.6</ele>
        <time>2024-04-14T10:31:57Z</time>
      </trkpt>
      <trkpt lat="45.93668" lon="3.14989">
        <ele>341.6</ele>
        <time>2024-04-14T10:31:58Z</time>
      </trkpt>
      <trkpt lat="45.93661" lon="3.14983">
        <ele>341.6</ele>
        <time>2024-04-14T10:31:59Z</time>
      </trkpt>
      <trkpt lat="45.93654" lon="3.14977">
        <ele>341.6</ele>
        <time>2024-04-14T10:32:00Z</time>
      </trkpt>
      <trkpt lat="45.93648" lon="3.14971">
        <ele>341.4</ele>
        <time>2024-04-14T10:32:01Z</time>
      </trkpt>
      <trkpt lat="45.93641" lon="3.14965">
        <ele>341.4</ele>
        <time>2024-04-14T10:32:02Z</time>
      </trkpt>
      <trkpt lat="45.93634" lon="3.14959">
        <ele>341.4</ele>
        <time>2024-04-14T10:32:03Z</time>
      </trkpt>
      <trkpt lat="45.93627" lon="3.14953">
        <ele>341.4</ele>
        <time>2024-04-14T10:32:04Z</time>
      </trkpt>
      <trkpt lat="45.9362" lon="3.14947">
        <ele>341.2</ele>
        <time>2024-04-14T10:32:05Z</time>
      </trkpt>
      <trkpt lat="45.93614" lon="3.14941">
        <ele>341.2</ele>
        <time>2024-04-14T10:32:06Z</time>
      </trkpt>
      <trkpt lat="45.93607" lon="3.14935">
        <ele>341.2</ele>
        <time>2024-04-14T10:32:07Z</time>
      </trkpt>
      <trkpt lat="45.936" lon="3.1493">
        <ele>341.2</ele>
        <time>2024-04-14T10:32:08Z</time>
      </trkpt>
      <trkpt lat="45.93594" lon="3.14924">
        <ele>341.2</ele>
        <time>2024-04-14T10:32:09Z</time>
      </trkpt>
      <trkpt lat="45.93587" lon="3.14918">
        <ele>341.2</ele>
        <time>2024-04-14T10:32:10Z</time>
      </trkpt>
      <trkpt lat="45.93581" lon="3.14913">
        <ele>341.2</ele>
        <time>2024-04-14T10:32:11Z</time>
      </trkpt>
      <trkpt lat="45.93574" lon="3.14907">
        <ele>341.2</ele>
        <time>2024-04-14T10:32:12Z</time>
      </trkpt>
      <trkpt lat="45.93568" lon="3.14901">
        <ele>341.2</ele>
        <time>2024-04-14T10:32:13Z</time>
      </trkpt>
      <trkpt lat="45.93561" lon="3.14896">
        <ele>341</ele>
        <time>2024-04-14T10:32:14Z</time>
      </trkpt>
      <trkpt lat="45.93555" lon="3.1489">
        <ele>341</ele>
        <time>2024-04-14T10:32:15Z</time>
      </trkpt>
      <trkpt lat="45.93549" lon="3.14885">
        <ele>341</ele>
        <time>2024-04-14T10:32:16Z</time>
      </trkpt>
      <trkpt lat="45.93542" lon="3.14879">
        <ele>341</ele>
        <time>2024-04-14T10:32:17Z</time>
      </trkpt>
      <trkpt lat="45.93536" lon="3.14874">
        <ele>341</ele>
        <time>2024-04-14T10:32:18Z</time>
      </trkpt>
      <trkpt lat="45.9353" lon="3.14868">
        <ele>341</ele>
        <time>2024-04-14T10:32:19Z</time>
      </trkpt>
      <trkpt lat="45.93524" lon="3.14863">
        <ele>341</ele>
        <time>2024-04-14T10:32:20Z</time>
      </trkpt>
      <trkpt lat="45.93518" lon="3.14858">
        <ele>341</ele>
        <time>2024-04-14T10:32:21Z</time>
      </trkpt>
      <trkpt lat="45.93512" lon="3.14853">
        <ele>341</ele>
        <time>2024-04-14T10:32:22Z</time>
      </trkpt>
      <trkpt lat="45.93507" lon="3.14848">
        <ele>341.2</ele>
        <time>2024-04-14T10:32:23Z</time>
      </trkpt>
      <trkpt lat="45.93501" lon="3.14843">
        <ele>341.2</ele>
        <time>2024-04-14T10:32:24Z</time>
      </trkpt>
      <trkpt lat="45.93496" lon="3.14838">
        <ele>341.2</ele>
        <time>2024-04-14T10:32:25Z</time>
      </trkpt>
      <trkpt lat="45.93491" lon="3.14834">
        <ele>341.2</ele>
        <time>2024-04-14T10:32:26Z</time>
      </trkpt>
      <trkpt lat="45.93486" lon="3.1483">
        <ele>341</ele>
        <time>2024-04-14T10:32:27Z</time>
      </trkpt>
      <trkpt lat="45.93481" lon="3.14825">
        <ele>341.4</ele>
        <time>2024-04-14T10:32:28Z</time>
      </trkpt>
      <trkpt lat="45.93476" lon="3.14821">
        <ele>341.6</ele>
        <time>2024-04-14T10:32:29Z</time>
      </trkpt>
      <trkpt lat="45.93472" lon="3.14817">
        <ele>341.4</ele>
        <time>2024-04-14T10:32:30Z</time>
      </trkpt>
      <trkpt lat="45.93467" lon="3.14812">
        <ele>341.4</ele>
        <time>2024-04-14T10:32:31Z</time>
      </trkpt>
      <trkpt lat="45.93462" lon="3.14808">
        <ele>341.6</ele>
        <time>2024-04-14T10:32:32Z</time>
      </trkpt>
      <trkpt lat="45.93457" lon="3.14804">
        <ele>341.6</ele>
        <time>2024-04-14T10:32:33Z</time>
      </trkpt>
      <trkpt lat="45.93453" lon="3.148">
        <ele>341.6</ele>
        <time>2024-04-14T10:32:34Z</time>
      </trkpt>
      <trkpt lat="45.93448" lon="3.14796">
        <ele>341.6</ele>
        <time>2024-04-14T10:32:35Z</time>
      </trkpt>
      <trkpt lat="45.93443" lon="3.14792">
        <ele>341.6</ele>
        <time>2024-04-14T10:32:36Z</time>
      </trkpt>
      <trkpt lat="45.93439" lon="3.14788">
        <ele>341.6</ele>
        <time>2024-04-14T10:32:37Z</time>
      </trkpt>
      <trkpt lat="45.93437" lon="3.14777">
        <ele>341.8</ele>
        <time>2024-04-14T10:32:38Z</time>
      </trkpt>
      <trkpt lat="45.93433" lon="3.14773">
        <ele>341.8</ele>
        <time>2024-04-14T10:32:39Z</time>
      </trkpt>
      <trkpt lat="45.93429" lon="3.14769">
        <ele>341.8</ele>
        <time>2024-04-14T10:32:40Z</time>
      </trkpt>
      <trkpt lat="45.93425" lon="3.14765">
        <ele>341.8</ele>
        <time>2024-04-14T10:32:41Z</time>
      </trkpt>
      <trkpt lat="45.93421" lon="3.14761">
        <ele>342</ele>
        <time>2024-04-14T10:32:42Z</time>
      </trkpt>
      <trkpt lat="45.93416" lon="3.14758">
        <ele>342</ele>
        <time>2024-04-14T10:32:43Z</time>
      </trkpt>
      <trkpt lat="45.93412" lon="3.14754">
        <ele>342</ele>
        <time>2024-04-14T10:32:44Z</time>
      </trkpt>
      <trkpt lat="45.93408" lon="3.1475">
        <ele>342</ele>
        <time>2024-04-14T10:32:45Z</time>
      </trkpt>
      <trkpt lat="45.93404" lon="3.14746">
        <ele>342.2</ele>
        <time>2024-04-14T10:32:46Z</time>
      </trkpt>
      <trkpt lat="45.934" lon="3.14743">
        <ele>342.2</ele>
        <time>2024-04-14T10:32:47Z</time>
      </trkpt>
      <trkpt lat="45.93396" lon="3.14739">
        <ele>342.4</ele>
        <time>2024-04-14T10:32:48Z</time>
      </trkpt>
      <trkpt lat="45.93392" lon="3.14735">
        <ele>342.4</ele>
        <time>2024-04-14T10:32:49Z</time>
      </trkpt>
      <trkpt lat="45.93388" lon="3.14732">
        <ele>342.6</ele>
        <time>2024-04-14T10:32:50Z</time>
      </trkpt>
      <trkpt lat="45.93384" lon="3.14728">
        <ele>342.6</ele>
        <time>2024-04-14T10:32:51Z</time>
      </trkpt>
      <trkpt lat="45.9338" lon="3.14725">
        <ele>342.8</ele>
        <time>2024-04-14T10:32:52Z</time>
      </trkpt>
      <trkpt lat="45.93376" lon="3.14721">
        <ele>342.8</ele>
        <time>2024-04-14T10:32:53Z</time>
      </trkpt>
      <trkpt lat="45.93372" lon="3.14718">
        <ele>343</ele>
        <time>2024-04-14T10:32:54Z</time>
      </trkpt>
      <trkpt lat="45.93368" lon="3.14714">
        <ele>343</ele>
        <time>2024-04-14T10:32:55Z</time>
      </trkpt>
      <trkpt lat="45.93364" lon="3.1471">
        <ele>343.2</ele>
        <time>2024-04-14T10:32:56Z</time>
      </trkpt>
      <trkpt lat="45.9336" lon="3.14706">
        <ele>343.2</ele>
        <time>2024-04-14T10:32:57Z</time>
      </trkpt>
      <trkpt lat="45.93356" lon="3.14703">
        <ele>343.4</ele>
        <time>2024-04-14T10:32:58Z</time>
      </trkpt>
      <trkpt lat="45.93352" lon="3.14699">
        <ele>343.4</ele>
        <time>2024-04-14T10:32:59Z</time>
      </trkpt>
      <trkpt lat="45.93348" lon="3.14695">
        <ele>343.4</ele>
        <time>2024-04-14T10:33:00Z</time>
      </trkpt>
      <trkpt lat="45.93344" lon="3.14692">
        <ele>343.6</ele>
        <time>2024-04-14T10:33:01Z</time>
      </trkpt>
      <trkpt lat="45.9334" lon="3.14688">
        <ele>343.6</ele>
        <time>2024-04-14T10:33:02Z</time>
      </trkpt>
      <trkpt lat="45.93336" lon="3.14685">
        <ele>343.8</ele>
        <time>2024-04-14T10:33:03Z</time>
      </trkpt>
      <trkpt lat="45.93332" lon="3.14681">
        <ele>344</ele>
        <time>2024-04-14T10:33:04Z</time>
      </trkpt>
      <trkpt lat="45.93328" lon="3.14678">
        <ele>344</ele>
        <time>2024-04-14T10:33:05Z</time>
      </trkpt>
      <trkpt lat="45.93324" lon="3.14674">
        <ele>344</ele>
        <time>2024-04-14T10:33:06Z</time>
      </trkpt>
      <trkpt lat="45.9332" lon="3.1467">
        <ele>344.2</ele>
        <time>2024-04-14T10:33:07Z</time>
      </trkpt>
      <trkpt lat="45.93316" lon="3.14667">
        <ele>344.2</ele>
        <time>2024-04-14T10:33:08Z</time>
      </trkpt>
      <trkpt lat="45.93312" lon="3.14663">
        <ele>344.4</ele>
        <time>2024-04-14T10:33:09Z</time>
      </trkpt>
      <trkpt lat="45.93308" lon="3.14659">
        <ele>344.4</ele>
        <time>2024-04-14T10:33:10Z</time>
      </trkpt>
      <trkpt lat="45.93304" lon="3.14655">
        <ele>344.6</ele>
        <time>2024-04-14T10:33:11Z</time>
      </trkpt>
      <trkpt lat="45.933" lon="3.14652">
        <ele>344.6</ele>
        <time>2024-04-14T10:33:12Z</time>
      </trkpt>
      <trkpt lat="45.93296" lon="3.14648">
        <ele>344.8</ele>
        <time>2024-04-14T10:33:13Z</time>
      </trkpt>
      <trkpt lat="45.93291" lon="3.14644">
        <ele>344.8</ele>
        <time>2024-04-14T10:33:14Z</time>
      </trkpt>
      <trkpt lat="45.93287" lon="3.1464">
        <ele>345</ele>
        <time>2024-04-14T10:33:15Z</time>
      </trkpt>
      <trkpt lat="45.93283" lon="3.14636">
        <ele>345</ele>
        <time>2024-04-14T10:33:16Z</time>
      </trkpt>
      <trkpt lat="45.93278" lon="3.14632">
        <ele>345.2</ele>
        <time>2024-04-14T10:33:17Z</time>
      </trkpt>
      <trkpt lat="45.93274" lon="3.14628">
        <ele>345.2</ele>
        <time>2024-04-14T10:33:18Z</time>
      </trkpt>
      <trkpt lat="45.93269" lon="3.14624">
        <ele>345.4</ele>
        <time>2024-04-14T10:33:19Z</time>
      </trkpt>
      <trkpt lat="45.93265" lon="3.1462">
        <ele>345.4</ele>
        <time>2024-04-14T10:33:20Z</time>
      </trkpt>
      <trkpt lat="45.9326" lon="3.14616">
        <ele>345.4</ele>
        <time>2024-04-14T10:33:21Z</time>
      </trkpt>
      <trkpt lat="45.93255" lon="3.14611">
        <ele>345.6</ele>
        <time>2024-04-14T10:33:22Z</time>
      </trkpt>
      <trkpt lat="45.93251" lon="3.14607">
        <ele>345.6</ele>
        <time>2024-04-14T10:33:23Z</time>
      </trkpt>
      <trkpt lat="45.93246" lon="3.14602">
        <ele>345.8</ele>
        <time>2024-04-14T10:33:24Z</time>
      </trkpt>
      <trkpt lat="45.93241" lon="3.14598">
        <ele>345.8</ele>
        <time>2024-04-14T10:33:25Z</time>
      </trkpt>
      <trkpt lat="45.93236" lon="3.14593">
        <ele>345.8</ele>
        <time>2024-04-14T10:33:26Z</time>
      </trkpt>
      <trkpt lat="45.93231" lon="3.14589">
        <ele>345.8</ele>
        <time>2024-04-14T10:33:27Z</time>
      </trkpt>
      <trkpt lat="45.93225" lon="3.14584">
        <ele>346</ele>
        <time>2024-04-14T10:33:28Z</time>
      </trkpt>
      <trkpt lat="45.9322" lon="3.14579">
        <ele>346</ele>
        <time>2024-04-14T10:33:29Z</time>
      </trkpt>
      <trkpt lat="45.93214" lon="3.14574">
        <ele>346</ele>
        <time>2024-04-14T10:33:30Z</time>
      </trkpt>
      <trkpt lat="45.93209" lon="3.14569">
        <ele>346</ele>
        <time>2024-04-14T10:33:31Z</time>
      </trkpt>
      <trkpt lat="45.93203" lon="3.14564">
        <ele>346.2</ele>
        <time>2024-04-14T10:33:32Z</time>
      </trkpt>
      <trkpt lat="45.93198" lon="3.14559">
        <ele>346.2</ele>
        <time>2024-04-14T10:33:33Z</time>
      </trkpt>
      <trkpt lat="45.93192" lon="3.14554">
        <ele>346.2</ele>
        <time>2024-04-14T10:33:34Z</time>
      </trkpt>
      <trkpt lat="45.93186" lon="3.14549">
        <ele>346.2</ele>
        <time>2024-04-14T10:33:35Z</time>
      </trkpt>
      <trkpt lat="45.9318" lon="3.14543">
        <ele>346.2</ele>
        <time>2024-04-14T10:33:36Z</time>
      </trkpt>
      <trkpt lat="45.93175" lon="3.14538">
        <ele>346.2</ele>
        <time>2024-04-14T10:33:37Z</time>
      </trkpt>
      <trkpt lat="45.93169" lon="3.14533">
        <ele>346.4</ele>
        <time>2024-04-14T10:33:38Z</time>
      </trkpt>
      <trkpt lat="45.93157" lon="3.14538">
        <ele>346.4</ele>
        <time>2024-04-14T10:33:39Z</time>
      </trkpt>
      <trkpt lat="45.93151" lon="3.14532">
        <ele>346.4</ele>
        <time>2024-04-14T10:33:40Z</time>
      </trkpt>
      <trkpt lat="45.93144" lon="3.14526">
        <ele>346.4</ele>
        <time>2024-04-14T10:33:41Z</time>
      </trkpt>
      <trkpt lat="45.93138" lon="3.1452">
        <ele>346.4</ele>
        <time>2024-04-14T10:33:42Z</time>
      </trkpt>
      <trkpt lat="45.93131" lon="3.14514">
        <ele>346.4</ele>
        <time>2024-04-14T10:33:43Z</time>
      </trkpt>
      <trkpt lat="45.93124" lon="3.14508">
        <ele>346.2</ele>
        <time>2024-04-14T10:33:44Z</time>
      </trkpt>
      <trkpt lat="45.93117" lon="3.14502">
        <ele>346.2</ele>
        <time>2024-04-14T10:33:45Z</time>
      </trkpt>
      <trkpt lat="45.9311" lon="3.14495">
        <ele>346.2</ele>
        <time>2024-04-14T10:33:46Z</time>
      </trkpt>
      <trkpt lat="45.93102" lon="3.14489">
        <ele>346.2</ele>
        <time>2024-04-14T10:33:47Z</time>
      </trkpt>
      <trkpt lat="45.93095" lon="3.14482">
        <ele>346.2</ele>
        <time>2024-04-14T10:33:48Z</time>
      </trkpt>
      <trkpt lat="45.93087" lon="3.14475">
        <ele>346.2</ele>
        <time>2024-04-14T10:33:49Z</time>
      </trkpt>
      <trkpt lat="45.9308" lon="3.14468">
        <ele>346.2</ele>
        <time>2024-04-14T10:33:50Z</time>
      </trkpt>
      <trkpt lat="45.93072" lon="3.14462">
        <ele>346.2</ele>
        <time>2024-04-14T10:33:51Z</time>
      </trkpt>
      <trkpt lat="45.93064" lon="3.14455">
        <ele>346.4</ele>
        <time>2024-04-14T10:33:52Z</time>
      </trkpt>
      <trkpt lat="45.93057" lon="3.14448">
        <ele>346.2</ele>
        <time>2024-04-14T10:33:53Z</time>
      </trkpt>
      <trkpt lat="45.93049" lon="3.14441">
        <ele>345.8</ele>
        <time>2024-04-14T10:33:54Z</time>
      </trkpt>
      <trkpt lat="45.93041" lon="3.14434">
        <ele>345.8</ele>
        <time>2024-04-14T10:33:55Z</time>
      </trkpt>
      <trkpt lat="45.93033" lon="3.14427">
        <ele>345.8</ele>
        <time>2024-04-14T10:33:56Z</time>
      </trkpt>
      <trkpt lat="45.93025" lon="3.1442">
        <ele>345.8</ele>
        <time>2024-04-14T10:33:57Z</time>
      </trkpt>
      <trkpt lat="45.93018" lon="3.14414">
        <ele>345.6</ele>
        <time>2024-04-14T10:33:58Z</time>
      </trkpt>
      <trkpt lat="45.93009" lon="3.14408">
        <ele>345.6</ele>
        <time>2024-04-14T10:33:59Z</time>
      </trkpt>
      <trkpt lat="45.93001" lon="3.14402">
        <ele>345.4</ele>
        <time>2024-04-14T10:34:00Z</time>
      </trkpt>
      <trkpt lat="45.92993" lon="3.14397">
        <ele>345.4</ele>
        <time>2024-04-14T10:34:01Z</time>
      </trkpt>
      <trkpt lat="45.92984" lon="3.14391">
        <ele>345.2</ele>
        <time>2024-04-14T10:34:02Z</time>
      </trkpt>
      <trkpt lat="45.92976" lon="3.14386">
        <ele>345.2</ele>
        <time>2024-04-14T10:34:03Z</time>
      </trkpt>
      <trkpt lat="45.92967" lon="3.1438">
        <ele>345</ele>
        <time>2024-04-14T10:34:04Z</time>
      </trkpt>
      <trkpt lat="45.92959" lon="3.14375">
        <ele>345</ele>
        <time>2024-04-14T10:34:05Z</time>
      </trkpt>
      <trkpt lat="45.9295" lon="3.1437">
        <ele>345</ele>
        <time>2024-04-14T10:34:06Z</time>
      </trkpt>
      <trkpt lat="45.92941" lon="3.14366">
        <ele>344.8</ele>
        <time>2024-04-14T10:34:07Z</time>
      </trkpt>
      <trkpt lat="45.92932" lon="3.14362">
        <ele>344.8</ele>
        <time>2024-04-14T10:34:08Z</time>
      </trkpt>
      <trkpt lat="45.92924" lon="3.14358">
        <ele>344.8</ele>
        <time>2024-04-14T10:34:09Z</time>
      </trkpt>
      <trkpt lat="45.92915" lon="3.14354">
        <ele>344.6</ele>
        <time>2024-04-14T10:34:10Z</time>
      </trkpt>
      <trkpt lat="45.92907" lon="3.1435">
        <ele>344.6</ele>
        <time>2024-04-14T10:34:11Z</time>
      </trkpt>
      <trkpt lat="45.92898" lon="3.14347">
        <ele>344.4</ele>
        <time>2024-04-14T10:34:12Z</time>
      </trkpt>
      <trkpt lat="45.9289" lon="3.14343">
        <ele>344.4</ele>
        <time>2024-04-14T10:34:13Z</time>
      </trkpt>
      <trkpt lat="45.92882" lon="3.14339">
        <ele>344.4</ele>
        <time>2024-04-14T10:34:14Z</time>
      </trkpt>
      <trkpt lat="45.92874" lon="3.14335">
        <ele>344.4</ele>
        <time>2024-04-14T10:34:15Z</time>
      </trkpt>
      <trkpt lat="45.92866" lon="3.14331">
        <ele>344.2</ele>
        <time>2024-04-14T10:34:16Z</time>
      </trkpt>
      <trkpt lat="45.92858" lon="3.14328">
        <ele>344.2</ele>
        <time>2024-04-14T10:34:17Z</time>
      </trkpt>
      <trkpt lat="45.92851" lon="3.14324">
        <ele>344</ele>
        <time>2024-04-14T10:34:18Z</time>
      </trkpt>
      <trkpt lat="45.92843" lon="3.1432">
        <ele>344</ele>
        <time>2024-04-14T10:34:19Z</time>
      </trkpt>
      <trkpt lat="45.92835" lon="3.14316">
        <ele>344</ele>
        <time>2024-04-14T10:34:20Z</time>
      </trkpt>
      <trkpt lat="45.92828" lon="3.14313">
        <ele>343.8</ele>
        <time>2024-04-14T10:34:21Z</time>
      </trkpt>
      <trkpt lat="45.92821" lon="3.14309">
        <ele>343.8</ele>
        <time>2024-04-14T10:34:22Z</time>
      </trkpt>
      <trkpt lat="45.92814" lon="3.14306">
        <ele>343.6</ele>
        <time>2024-04-14T10:34:23Z</time>
      </trkpt>
      <trkpt lat="45.92807" lon="3.14303">
        <ele>343.6</ele>
        <time>2024-04-14T10:34:24Z</time>
      </trkpt>
      <trkpt lat="45.928" lon="3.14299">
        <ele>343.6</ele>
        <time>2024-04-14T10:34:25Z</time>
      </trkpt>
      <trkpt lat="45.92793" lon="3.14296">
        <ele>343.4</ele>
        <time>2024-04-14T10:34:26Z</time>
      </trkpt>
      <trkpt lat="45.92786" lon="3.14293">
        <ele>343.4</ele>
        <time>2024-04-14T10:34:27Z</time>
      </trkpt>
      <trkpt lat="45.9278" lon="3.1429">
        <ele>343.4</ele>
        <time>2024-04-14T10:34:28Z</time>
      </trkpt>
      <trkpt lat="45.92773" lon="3.14286">
        <ele>343.2</ele>
        <time>2024-04-14T10:34:29Z</time>
      </trkpt>
      <trkpt lat="45.92767" lon="3.14283">
        <ele>343.2</ele>
        <time>2024-04-14T10:34:30Z</time>
      </trkpt>
      <trkpt lat="45.9276" lon="3.14281">
        <ele>343</ele>
        <time>2024-04-14T10:34:31Z</time>
      </trkpt>
      <trkpt lat="45.92754" lon="3.1428">
        <ele>343</ele>
        <time>2024-04-14T10:34:32Z</time>
      </trkpt>
      <trkpt lat="45.92747" lon="3.14279">
        <ele>343</ele>
        <time>2024-04-14T10:34:33Z</time>
      </trkpt>
      <trkpt lat="45.92741" lon="3.14276">
        <ele>342.8</ele>
        <time>2024-04-14T10:34:34Z</time>
      </trkpt>
      <trkpt lat="45.92734" lon="3.14273">
        <ele>342.8</ele>
        <time>2024-04-14T10:34:35Z</time>
      </trkpt>
      <trkpt lat="45.92728" lon="3.14271">
        <ele>342.8</ele>
        <time>2024-04-14T10:34:36Z</time>
      </trkpt>
      <trkpt lat="45.92721" lon="3.14268">
        <ele>342.6</ele>
        <time>2024-04-14T10:34:37Z</time>
      </trkpt>
      <trkpt lat="45.92715" lon="3.14266">
        <ele>342.6</ele>
        <time>2024-04-14T10:34:38Z</time>
      </trkpt>
      <trkpt lat="45.92708" lon="3.14264">
        <ele>342.6</ele>
        <time>2024-04-14T10:34:39Z</time>
      </trkpt>
      <trkpt lat="45.92703" lon="3.14261">
        <ele>342.6</ele>
        <time>2024-04-14T10:34:40Z</time>
      </trkpt>
      <trkpt lat="45.92697" lon="3.14259">
        <ele>342.6</ele>
        <time>2024-04-14T10:34:41Z</time>
      </trkpt>
      <trkpt lat="45.92691" lon="3.14257">
        <ele>342.6</ele>
        <time>2024-04-14T10:34:42Z</time>
      </trkpt>
      <trkpt lat="45.92686" lon="3.14255">
        <ele>342.6</ele>
        <time>2024-04-14T10:34:43Z</time>
      </trkpt>
      <trkpt lat="45.9268" lon="3.14253">
        <ele>342.6</ele>
        <time>2024-04-14T10:34:44Z</time>
      </trkpt>
      <trkpt lat="45.92674" lon="3.14253">
        <ele>342.6</ele>
        <time>2024-04-14T10:34:45Z</time>
      </trkpt>
      <trkpt lat="45.92668" lon="3.14257">
        <ele>342.4</ele>
        <time>2024-04-14T10:34:46Z</time>
      </trkpt>
      <trkpt lat="45.92665" lon="3.14263">
        <ele>342.6</ele>
        <time>2024-04-14T10:34:47Z</time>
      </trkpt>
      <trkpt lat="45.92661" lon="3.1427">
        <ele>342.6</ele>
        <time>2024-04-14T10:34:48Z</time>
      </trkpt>
      <trkpt lat="45.92661" lon="3.1427">
        <ele>342.6</ele>
        <time>2024-04-14T10:34:49Z</time>
      </trkpt>
      <trkpt lat="45.92656" lon="3.14288">
        <ele>342.6</ele>
        <time>2024-04-14T10:34:50Z</time>
      </trkpt>
      <trkpt lat="45.92654" lon="3.14297">
        <ele>342.6</ele>
        <time>2024-04-14T10:34:51Z</time>
      </trkpt>
      <trkpt lat="45.92652" lon="3.14307">
        <ele>342.6</ele>
        <time>2024-04-14T10:34:52Z</time>
      </trkpt>
      <trkpt lat="45.9265" lon="3.14316">
        <ele>342.6</ele>
        <time>2024-04-14T10:34:53Z</time>
      </trkpt>
      <trkpt lat="45.92648" lon="3.14326">
        <ele>342.4</ele>
        <time>2024-04-14T10:34:54Z</time>
      </trkpt>
      <trkpt lat="45.92645" lon="3.14335">
        <ele>342.6</ele>
        <time>2024-04-14T10:34:55Z</time>
      </trkpt>
      <trkpt lat="45.92643" lon="3.14346">
        <ele>342.6</ele>
        <time>2024-04-14T10:34:56Z</time>
      </trkpt>
      <trkpt lat="45.92641" lon="3.14356">
        <ele>342.4</ele>
        <time>2024-04-14T10:34:57Z</time>
      </trkpt>
      <trkpt lat="45.92639" lon="3.14366">
        <ele>342.4</ele>
        <time>2024-04-14T10:34:58Z</time>
      </trkpt>
      <trkpt lat="45.92637" lon="3.14375">
        <ele>342.4</ele>
        <time>2024-04-14T10:34:59Z</time>
      </trkpt>
      <trkpt lat="45.92635" lon="3.14385">
        <ele>342.4</ele>
        <time>2024-04-14T10:35:00Z</time>
      </trkpt>
      <trkpt lat="45.92635" lon="3.14394">
        <ele>342.4</ele>
        <time>2024-04-14T10:35:01Z</time>
      </trkpt>
      <trkpt lat="45.92636" lon="3.14404">
        <ele>342.4</ele>
        <time>2024-04-14T10:35:02Z</time>
      </trkpt>
      <trkpt lat="45.92636" lon="3.14414">
        <ele>342.4</ele>
        <time>2024-04-14T10:35:03Z</time>
      </trkpt>
      <trkpt lat="45.92637" lon="3.14424">
        <ele>342.4</ele>
        <time>2024-04-14T10:35:04Z</time>
      </trkpt>
      <trkpt lat="45.92637" lon="3.14434">
        <ele>342.4</ele>
        <time>2024-04-14T10:35:05Z</time>
      </trkpt>
      <trkpt lat="45.92637" lon="3.14444">
        <ele>342.4</ele>
        <time>2024-04-14T10:35:06Z</time>
      </trkpt>
      <trkpt lat="45.92638" lon="3.14454">
        <ele>342.4</ele>
        <time>2024-04-14T10:35:07Z</time>
      </trkpt>
      <trkpt lat="45.92638" lon="3.14464">
        <ele>342.4</ele>
        <time>2024-04-14T10:35:08Z</time>
      </trkpt>
      <trkpt lat="45.92639" lon="3.14474">
        <ele>342.4</ele>
        <time>2024-04-14T10:35:09Z</time>
      </trkpt>
      <trkpt lat="45.92639" lon="3.14484">
        <ele>342.4</ele>
        <time>2024-04-14T10:35:10Z</time>
      </trkpt>
      <trkpt lat="45.92641" lon="3.14494">
        <ele>342.4</ele>
        <time>2024-04-14T10:35:11Z</time>
      </trkpt>
      <trkpt lat="45.92642" lon="3.14504">
        <ele>342.4</ele>
        <time>2024-04-14T10:35:12Z</time>
      </trkpt>
      <trkpt lat="45.92644" lon="3.14514">
        <ele>342.4</ele>
        <time>2024-04-14T10:35:13Z</time>
      </trkpt>
      <trkpt lat="45.92646" lon="3.14524">
        <ele>342.4</ele>
        <time>2024-04-14T10:35:14Z</time>
      </trkpt>
      <trkpt lat="45.92647" lon="3.14534">
        <ele>342.2</ele>
        <time>2024-04-14T10:35:15Z</time>
      </trkpt>
      <trkpt lat="45.92649" lon="3.14544">
        <ele>342.2</ele>
        <time>2024-04-14T10:35:16Z</time>
      </trkpt>
      <trkpt lat="45.92651" lon="3.14554">
        <ele>342.2</ele>
        <time>2024-04-14T10:35:17Z</time>
      </trkpt>
      <trkpt lat="45.92652" lon="3.14565">
        <ele>342.2</ele>
        <time>2024-04-14T10:35:18Z</time>
      </trkpt>
      <trkpt lat="45.92654" lon="3.14575">
        <ele>342.2</ele>
        <time>2024-04-14T10:35:19Z</time>
      </trkpt>
      <trkpt lat="45.92656" lon="3.14585">
        <ele>342.2</ele>
        <time>2024-04-14T10:35:20Z</time>
      </trkpt>
      <trkpt lat="45.92657" lon="3.14595">
        <ele>342.2</ele>
        <time>2024-04-14T10:35:21Z</time>
      </trkpt>
      <trkpt lat="45.92659" lon="3.14605">
        <ele>342.2</ele>
        <time>2024-04-14T10:35:22Z</time>
      </trkpt>
      <trkpt lat="45.9266" lon="3.14614">
        <ele>342.2</ele>
        <time>2024-04-14T10:35:23Z</time>
      </trkpt>
      <trkpt lat="45.92662" lon="3.14624">
        <ele>342.2</ele>
        <time>2024-04-14T10:35:24Z</time>
      </trkpt>
      <trkpt lat="45.92664" lon="3.14634">
        <ele>342.2</ele>
        <time>2024-04-14T10:35:25Z</time>
      </trkpt>
      <trkpt lat="45.92665" lon="3.14643">
        <ele>342.2</ele>
        <time>2024-04-14T10:35:26Z</time>
      </trkpt>
      <trkpt lat="45.92667" lon="3.14652">
        <ele>342.2</ele>
        <time>2024-04-14T10:35:27Z</time>
      </trkpt>
      <trkpt lat="45.92668" lon="3.14661">
        <ele>342.2</ele>
        <time>2024-04-14T10:35:28Z</time>
      </trkpt>
      <trkpt lat="45.9267" lon="3.1467">
        <ele>342.2</ele>
        <time>2024-04-14T10:35:29Z</time>
      </trkpt>
      <trkpt lat="45.92671" lon="3.14678">
        <ele>342.2</ele>
        <time>2024-04-14T10:35:30Z</time>
      </trkpt>
      <trkpt lat="45.92672" lon="3.14687">
        <ele>342.2</ele>
        <time>2024-04-14T10:35:31Z</time>
      </trkpt>
      <trkpt lat="45.92674" lon="3.14695">
        <ele>342.2</ele>
        <time>2024-04-14T10:35:32Z</time>
      </trkpt>
      <trkpt lat="45.92675" lon="3.14703">
        <ele>342.2</ele>
        <time>2024-04-14T10:35:33Z</time>
      </trkpt>
      <trkpt lat="45.92676" lon="3.14711">
        <ele>342.4</ele>
        <time>2024-04-14T10:35:34Z</time>
      </trkpt>
      <trkpt lat="45.92678" lon="3.14719">
        <ele>342.4</ele>
        <time>2024-04-14T10:35:35Z</time>
      </trkpt>
      <trkpt lat="45.92679" lon="3.14726">
        <ele>342.4</ele>
        <time>2024-04-14T10:35:36Z</time>
      </trkpt>
      <trkpt lat="45.9268" lon="3.14734">
        <ele>342.4</ele>
        <time>2024-04-14T10:35:37Z</time>
      </trkpt>
      <trkpt lat="45.92682" lon="3.14742">
        <ele>342.4</ele>
        <time>2024-04-14T10:35:38Z</time>
      </trkpt>
      <trkpt lat="45.92683" lon="3.14749">
        <ele>342.4</ele>
        <time>2024-04-14T10:35:39Z</time>
      </trkpt>
      <trkpt lat="45.92685" lon="3.14756">
        <ele>342.4</ele>
        <time>2024-04-14T10:35:40Z</time>
      </trkpt>
      <trkpt lat="45.92687" lon="3.14763">
        <ele>342.6</ele>
        <time>2024-04-14T10:35:41Z</time>
      </trkpt>
      <trkpt lat="45.92689" lon="3.14771">
        <ele>342.6</ele>
        <time>2024-04-14T10:35:42Z</time>
      </trkpt>
      <trkpt lat="45.92691" lon="3.14778">
        <ele>342.6</ele>
        <time>2024-04-14T10:35:43Z</time>
      </trkpt>
      <trkpt lat="45.92693" lon="3.14785">
        <ele>342.6</ele>
        <time>2024-04-14T10:35:44Z</time>
      </trkpt>
      <trkpt lat="45.92695" lon="3.14792">
        <ele>342.8</ele>
        <time>2024-04-14T10:35:45Z</time>
      </trkpt>
      <trkpt lat="45.92697" lon="3.14799">
        <ele>342.8</ele>
        <time>2024-04-14T10:35:46Z</time>
      </trkpt>
      <trkpt lat="45.92699" lon="3.14806">
        <ele>342.8</ele>
        <time>2024-04-14T10:35:47Z</time>
      </trkpt>
      <trkpt lat="45.92701" lon="3.14813">
        <ele>343</ele>
        <time>2024-04-14T10:35:48Z</time>
      </trkpt>
      <trkpt lat="45.92703" lon="3.14819">
        <ele>343</ele>
        <time>2024-04-14T10:35:49Z</time>
      </trkpt>
      <trkpt lat="45.92705" lon="3.14826">
        <ele>343</ele>
        <time>2024-04-14T10:35:50Z</time>
      </trkpt>
      <trkpt lat="45.92707" lon="3.14833">
        <ele>343</ele>
        <time>2024-04-14T10:35:51Z</time>
      </trkpt>
      <trkpt lat="45.92708" lon="3.1484">
        <ele>343.2</ele>
        <time>2024-04-14T10:35:52Z</time>
      </trkpt>
      <trkpt lat="45.92709" lon="3.14847">
        <ele>343.2</ele>
        <time>2024-04-14T10:35:53Z</time>
      </trkpt>
      <trkpt lat="45.9271" lon="3.14853">
        <ele>343.2</ele>
        <time>2024-04-14T10:35:54Z</time>
      </trkpt>
      <trkpt lat="45.92711" lon="3.1486">
        <ele>343.4</ele>
        <time>2024-04-14T10:35:55Z</time>
      </trkpt>
      <trkpt lat="45.92712" lon="3.14867">
        <ele>343.4</ele>
        <time>2024-04-14T10:35:56Z</time>
      </trkpt>
      <trkpt lat="45.92713" lon="3.14874">
        <ele>343.4</ele>
        <time>2024-04-14T10:35:57Z</time>
      </trkpt>
      <trkpt lat="45.92714" lon="3.14881">
        <ele>343.6</ele>
        <time>2024-04-14T10:35:58Z</time>
      </trkpt>
      <trkpt lat="45.92715" lon="3.14888">
        <ele>343.6</ele>
        <time>2024-04-14T10:35:59Z</time>
      </trkpt>
      <trkpt lat="45.92716" lon="3.14894">
        <ele>343.6</ele>
        <time>2024-04-14T10:36:00Z</time>
      </trkpt>
      <trkpt lat="45.92718" lon="3.14901">
        <ele>343.8</ele>
        <time>2024-04-14T10:36:01Z</time>
      </trkpt>
      <trkpt lat="45.92718" lon="3.14908">
        <ele>343.8</ele>
        <time>2024-04-14T10:36:02Z</time>
      </trkpt>
      <trkpt lat="45.92718" lon="3.14915">
        <ele>343.8</ele>
        <time>2024-04-14T10:36:03Z</time>
      </trkpt>
      <trkpt lat="45.92718" lon="3.14921">
        <ele>344</ele>
        <time>2024-04-14T10:36:04Z</time>
      </trkpt>
      <trkpt lat="45.92718" lon="3.14928">
        <ele>344</ele>
        <time>2024-04-14T10:36:05Z</time>
      </trkpt>
      <trkpt lat="45.92718" lon="3.14935">
        <ele>344.2</ele>
        <time>2024-04-14T10:36:06Z</time>
      </trkpt>
      <trkpt lat="45.92718" lon="3.14943">
        <ele>344.2</ele>
        <time>2024-04-14T10:36:07Z</time>
      </trkpt>
      <trkpt lat="45.92718" lon="3.14951">
        <ele>344.4</ele>
        <time>2024-04-14T10:36:08Z</time>
      </trkpt>
      <trkpt lat="45.92717" lon="3.14958">
        <ele>344.4</ele>
        <time>2024-04-14T10:36:09Z</time>
      </trkpt>
      <trkpt lat="45.92717" lon="3.14966">
        <ele>344.4</ele>
        <time>2024-04-14T10:36:10Z</time>
      </trkpt>
      <trkpt lat="45.92717" lon="3.14975">
        <ele>344.4</ele>
        <time>2024-04-14T10:36:11Z</time>
      </trkpt>
      <trkpt lat="45.92717" lon="3.14983">
        <ele>344.6</ele>
        <time>2024-04-14T10:36:12Z</time>
      </trkpt>
      <trkpt lat="45.92716" lon="3.14991">
        <ele>344.6</ele>
        <time>2024-04-14T10:36:13Z</time>
      </trkpt>
      <trkpt lat="45.92716" lon="3.14999">
        <ele>344.8</ele>
        <time>2024-04-14T10:36:14Z</time>
      </trkpt>
      <trkpt lat="45.92715" lon="3.15008">
        <ele>344.8</ele>
        <time>2024-04-14T10:36:15Z</time>
      </trkpt>
      <trkpt lat="45.92714" lon="3.15016">
        <ele>344.8</ele>
        <time>2024-04-14T10:36:16Z</time>
      </trkpt>
      <trkpt lat="45.92713" lon="3.15025">
        <ele>345</ele>
        <time>2024-04-14T10:36:17Z</time>
      </trkpt>
      <trkpt lat="45.92712" lon="3.15034">
        <ele>345</ele>
        <time>2024-04-14T10:36:18Z</time>
      </trkpt>
      <trkpt lat="45.92711" lon="3.15042">
        <ele>345</ele>
        <time>2024-04-14T10:36:19Z</time>
      </trkpt>
      <trkpt lat="45.9271" lon="3.15051">
        <ele>345.2</ele>
        <time>2024-04-14T10:36:20Z</time>
      </trkpt>
      <trkpt lat="45.92708" lon="3.1506">
        <ele>345.2</ele>
        <time>2024-04-14T10:36:21Z</time>
      </trkpt>
      <trkpt lat="45.92708" lon="3.15069">
        <ele>345.2</ele>
        <time>2024-04-14T10:36:22Z</time>
      </trkpt>
      <trkpt lat="45.92708" lon="3.15078">
        <ele>345.4</ele>
        <time>2024-04-14T10:36:23Z</time>
      </trkpt>
      <trkpt lat="45.92709" lon="3.15087">
        <ele>345.4</ele>
        <time>2024-04-14T10:36:24Z</time>
      </trkpt>
      <trkpt lat="45.92709" lon="3.15096">
        <ele>345.4</ele>
        <time>2024-04-14T10:36:25Z</time>
      </trkpt>
      <trkpt lat="45.9271" lon="3.15105">
        <ele>345.4</ele>
        <time>2024-04-14T10:36:26Z</time>
      </trkpt>
      <trkpt lat="45.9271" lon="3.15114">
        <ele>345.4</ele>
        <time>2024-04-14T10:36:27Z</time>
      </trkpt>
      <trkpt lat="45.92711" lon="3.15124">
        <ele>345.4</ele>
        <time>2024-04-14T10:36:28Z</time>
      </trkpt>
      <trkpt lat="45.92712" lon="3.15133">
        <ele>345.4</ele>
        <time>2024-04-14T10:36:29Z</time>
      </trkpt>
      <trkpt lat="45.92713" lon="3.15141">
        <ele>345.4</ele>
        <time>2024-04-14T10:36:30Z</time>
      </trkpt>
      <trkpt lat="45.92714" lon="3.15149">
        <ele>345.6</ele>
        <time>2024-04-14T10:36:31Z</time>
      </trkpt>
      <trkpt lat="45.92715" lon="3.15157">
        <ele>345.6</ele>
        <time>2024-04-14T10:36:32Z</time>
      </trkpt>
      <trkpt lat="45.92716" lon="3.15165">
        <ele>345.6</ele>
        <time>2024-04-14T10:36:33Z</time>
      </trkpt>
      <trkpt lat="45.92717" lon="3.15174">
        <ele>345.8</ele>
        <time>2024-04-14T10:36:34Z</time>
      </trkpt>
      <trkpt lat="45.92718" lon="3.15182">
        <ele>345.8</ele>
        <time>2024-04-14T10:36:35Z</time>
      </trkpt>
      <trkpt lat="45.92719" lon="3.1519">
        <ele>345.8</ele>
        <time>2024-04-14T10:36:36Z</time>
      </trkpt>
      <trkpt lat="45.9272" lon="3.15198">
        <ele>345.8</ele>
        <time>2024-04-14T10:36:37Z</time>
      </trkpt>
      <trkpt lat="45.92721" lon="3.15206">
        <ele>345.8</ele>
        <time>2024-04-14T10:36:38Z</time>
      </trkpt>
      <trkpt lat="45.92722" lon="3.15214">
        <ele>345.8</ele>
        <time>2024-04-14T10:36:39Z</time>
      </trkpt>
      <trkpt lat="45.92724" lon="3.15222">
        <ele>345.8</ele>
        <time>2024-04-14T10:36:40Z</time>
      </trkpt>
      <trkpt lat="45.92725" lon="3.1523">
        <ele>345.8</ele>
        <time>2024-04-14T10:36:41Z</time>
      </trkpt>
      <trkpt lat="45.92726" lon="3.15239">
        <ele>346</ele>
        <time>2024-04-14T10:36:42Z</time>
      </trkpt>
      <trkpt lat="45.92727" lon="3.15247">
        <ele>346</ele>
        <time>2024-04-14T10:36:43Z</time>
      </trkpt>
      <trkpt lat="45.92728" lon="3.15255">
        <ele>346</ele>
        <time>2024-04-14T10:36:44Z</time>
      </trkpt>
      <trkpt lat="45.92729" lon="3.15264">
        <ele>346.2</ele>
        <time>2024-04-14T10:36:45Z</time>
      </trkpt>
      <trkpt lat="45.9273" lon="3.15272">
        <ele>346.2</ele>
        <time>2024-04-14T10:36:46Z</time>
      </trkpt>
      <trkpt lat="45.92731" lon="3.1528">
        <ele>346.2</ele>
        <time>2024-04-14T10:36:47Z</time>
      </trkpt>
      <trkpt lat="45.92732" lon="3.15288">
        <ele>346.2</ele>
        <time>2024-04-14T10:36:48Z</time>
      </trkpt>
      <trkpt lat="45.92732" lon="3.15296">
        <ele>346.2</ele>
        <time>2024-04-14T10:36:49Z</time>
      </trkpt>
      <trkpt lat="45.92733" lon="3.15304">
        <ele>346.2</ele>
        <time>2024-04-14T10:36:50Z</time>
      </trkpt>
      <trkpt lat="45.92733" lon="3.15312">
        <ele>346.2</ele>
        <time>2024-04-14T10:36:51Z</time>
      </trkpt>
      <trkpt lat="45.92734" lon="3.15319">
        <ele>346.4</ele>
        <time>2024-04-14T10:36:52Z</time>
      </trkpt>
      <trkpt lat="45.92735" lon="3.15326">
        <ele>346.4</ele>
        <time>2024-04-14T10:36:53Z</time>
      </trkpt>
      <trkpt lat="45.92736" lon="3.15334">
        <ele>346.4</ele>
        <time>2024-04-14T10:36:54Z</time>
      </trkpt>
      <trkpt lat="45.92737" lon="3.15341">
        <ele>346.4</ele>
        <time>2024-04-14T10:36:55Z</time>
      </trkpt>
      <trkpt lat="45.92738" lon="3.15348">
        <ele>346.4</ele>
        <time>2024-04-14T10:36:56Z</time>
      </trkpt>
      <trkpt lat="45.92739" lon="3.15355">
        <ele>346.4</ele>
        <time>2024-04-14T10:36:57Z</time>
      </trkpt>
      <trkpt lat="45.9274" lon="3.15361">
        <ele>346.4</ele>
        <time>2024-04-14T10:36:58Z</time>
      </trkpt>
      <trkpt lat="45.9274" lon="3.15366">
        <ele>346.4</ele>
        <time>2024-04-14T10:36:59Z</time>
      </trkpt>
      <trkpt lat="45.92741" lon="3.15371">
        <ele>346.4</ele>
        <time>2024-04-14T10:37:00Z</time>
      </trkpt>
      <trkpt lat="45.92741" lon="3.15374">
        <ele>346.4</ele>
        <time>2024-04-14T10:37:01Z</time>
      </trkpt>
      <trkpt lat="45.92741" lon="3.15374">
        <ele>346.4</ele>
        <time>2024-04-14T10:37:02Z</time>
      </trkpt>
      <trkpt lat="45.92741" lon="3.15374">
        <ele>346.4</ele>
        <time>2024-04-14T10:37:03Z</time>
      </trkpt>
      <trkpt lat="45.92742" lon="3.15379">
        <ele>347</ele>
        <time>2024-04-14T10:37:49Z</time>
      </trkpt>
      <trkpt lat="45.92742" lon="3.15383">
        <ele>346.8</ele>
        <time>2024-04-14T10:37:50Z</time>
      </trkpt>
      <trkpt lat="45.92743" lon="3.15387">
        <ele>347</ele>
        <time>2024-04-14T10:37:51Z</time>
      </trkpt>
      <trkpt lat="45.92744" lon="3.15392">
        <ele>346.8</ele>
        <time>2024-04-14T10:37:52Z</time>
      </trkpt>
      <trkpt lat="45.92744" lon="3.15398">
        <ele>346.8</ele>
        <time>2024-04-14T10:37:53Z</time>
      </trkpt>
      <trkpt lat="45.92745" lon="3.15404">
        <ele>346.8</ele>
        <time>2024-04-14T10:37:54Z</time>
      </trkpt>
      <trkpt lat="45.92746" lon="3.15412">
        <ele>346.8</ele>
        <time>2024-04-14T10:37:55Z</time>
      </trkpt>
      <trkpt lat="45.92747" lon="3.1542">
        <ele>346.6</ele>
        <time>2024-04-14T10:37:56Z</time>
      </trkpt>
      <trkpt lat="45.92748" lon="3.15429">
        <ele>346.6</ele>
        <time>2024-04-14T10:37:57Z</time>
      </trkpt>
      <trkpt lat="45.92749" lon="3.15437">
        <ele>346.4</ele>
        <time>2024-04-14T10:37:58Z</time>
      </trkpt>
      <trkpt lat="45.92751" lon="3.15445">
        <ele>346.4</ele>
        <time>2024-04-14T10:37:59Z</time>
      </trkpt>
      <trkpt lat="45.92752" lon="3.15454">
        <ele>346.4</ele>
        <time>2024-04-14T10:38:00Z</time>
      </trkpt>
      <trkpt lat="45.92753" lon="3.15462">
        <ele>346.2</ele>
        <time>2024-04-14T10:38:01Z</time>
      </trkpt>
      <trkpt lat="45.92754" lon="3.1547">
        <ele>346.2</ele>
        <time>2024-04-14T10:38:02Z</time>
      </trkpt>
      <trkpt lat="45.92756" lon="3.15478">
        <ele>346.2</ele>
        <time>2024-04-14T10:38:03Z</time>
      </trkpt>
      <trkpt lat="45.92757" lon="3.15487">
        <ele>346.2</ele>
        <time>2024-04-14T10:38:04Z</time>
      </trkpt>
      <trkpt lat="45.92758" lon="3.15494">
        <ele>346.2</ele>
        <time>2024-04-14T10:38:05Z</time>
      </trkpt>
      <trkpt lat="45.92759" lon="3.15503">
        <ele>346</ele>
        <time>2024-04-14T10:38:06Z</time>
      </trkpt>
      <trkpt lat="45.9276" lon="3.15511">
        <ele>346</ele>
        <time>2024-04-14T10:38:07Z</time>
      </trkpt>
      <trkpt lat="45.9276" lon="3.1552">
        <ele>346</ele>
        <time>2024-04-14T10:38:08Z</time>
      </trkpt>
      <trkpt lat="45.9276" lon="3.15529">
        <ele>346</ele>
        <time>2024-04-14T10:38:09Z</time>
      </trkpt>
      <trkpt lat="45.92761" lon="3.15538">
        <ele>345.8</ele>
        <time>2024-04-14T10:38:10Z</time>
      </trkpt>
      <trkpt lat="45.92761" lon="3.15547">
        <ele>345.8</ele>
        <time>2024-04-14T10:38:11Z</time>
      </trkpt>
      <trkpt lat="45.92761" lon="3.15557">
        <ele>345.8</ele>
        <time>2024-04-14T10:38:12Z</time>
      </trkpt>
      <trkpt lat="45.92761" lon="3.15566">
        <ele>345.8</ele>
        <time>2024-04-14T10:38:13Z</time>
      </trkpt>
      <trkpt lat="45.9276" lon="3.15575">
        <ele>345.8</ele>
        <time>2024-04-14T10:38:14Z</time>
      </trkpt>
      <trkpt lat="45.92759" lon="3.15583">
        <ele>345.8</ele>
        <time>2024-04-14T10:38:15Z</time>
      </trkpt>
      <trkpt lat="45.92758" lon="3.15592">
        <ele>345.8</ele>
        <time>2024-04-14T10:38:16Z</time>
      </trkpt>
      <trkpt lat="45.92756" lon="3.15601">
        <ele>345.6</ele>
        <time>2024-04-14T10:38:17Z</time>
      </trkpt>
      <trkpt lat="45.92755" lon="3.15609">
        <ele>345.6</ele>
        <time>2024-04-14T10:38:18Z</time>
      </trkpt>
      <trkpt lat="45.92754" lon="3.15618">
        <ele>345.6</ele>
        <time>2024-04-14T10:38:19Z</time>
      </trkpt>
      <trkpt lat="45.92753" lon="3.15628">
        <ele>345.6</ele>
        <time>2024-04-14T10:38:20Z</time>
      </trkpt>
      <trkpt lat="45.92754" lon="3.15637">
        <ele>345.4</ele>
        <time>2024-04-14T10:38:21Z</time>
      </trkpt>
      <trkpt lat="45.92754" lon="3.15647">
        <ele>345.4</ele>
        <time>2024-04-14T10:38:22Z</time>
      </trkpt>
      <trkpt lat="45.92755" lon="3.15657">
        <ele>345.4</ele>
        <time>2024-04-14T10:38:23Z</time>
      </trkpt>
      <trkpt lat="45.92755" lon="3.15667">
        <ele>345.2</ele>
        <time>2024-04-14T10:38:24Z</time>
      </trkpt>
      <trkpt lat="45.92755" lon="3.15677">
        <ele>345.2</ele>
        <time>2024-04-14T10:38:25Z</time>
      </trkpt>
      <trkpt lat="45.92755" lon="3.15686">
        <ele>345</ele>
        <time>2024-04-14T10:38:26Z</time>
      </trkpt>
      <trkpt lat="45.92755" lon="3.15696">
        <ele>345</ele>
        <time>2024-04-14T10:38:27Z</time>
      </trkpt>
      <trkpt lat="45.92753" lon="3.15705">
        <ele>345</ele>
        <time>2024-04-14T10:38:28Z</time>
      </trkpt>
      <trkpt lat="45.92752" lon="3.15714">
        <ele>345</ele>
        <time>2024-04-14T10:38:29Z</time>
      </trkpt>
      <trkpt lat="45.9275" lon="3.15723">
        <ele>344.8</ele>
        <time>2024-04-14T10:38:30Z</time>
      </trkpt>
      <trkpt lat="45.92749" lon="3.15732">
        <ele>344.8</ele>
        <time>2024-04-14T10:38:31Z</time>
      </trkpt>
      <trkpt lat="45.92747" lon="3.15741">
        <ele>344.6</ele>
        <time>2024-04-14T10:38:32Z</time>
      </trkpt>
      <trkpt lat="45.92746" lon="3.1575">
        <ele>344.6</ele>
        <time>2024-04-14T10:38:33Z</time>
      </trkpt>
      <trkpt lat="45.92745" lon="3.15759">
        <ele>344.6</ele>
        <time>2024-04-14T10:38:34Z</time>
      </trkpt>
      <trkpt lat="45.92744" lon="3.15768">
        <ele>344.4</ele>
        <time>2024-04-14T10:38:35Z</time>
      </trkpt>
      <trkpt lat="45.92743" lon="3.15776">
        <ele>344.4</ele>
        <time>2024-04-14T10:38:36Z</time>
      </trkpt>
      <trkpt lat="45.92742" lon="3.15785">
        <ele>344.4</ele>
        <time>2024-04-14T10:38:37Z</time>
      </trkpt>
      <trkpt lat="45.92741" lon="3.15793">
        <ele>344.4</ele>
        <time>2024-04-14T10:38:38Z</time>
      </trkpt>
      <trkpt lat="45.9274" lon="3.158">
        <ele>344.2</ele>
        <time>2024-04-14T10:38:39Z</time>
      </trkpt>
      <trkpt lat="45.92739" lon="3.15807">
        <ele>344.2</ele>
        <time>2024-04-14T10:38:40Z</time>
      </trkpt>
      <trkpt lat="45.92738" lon="3.15813">
        <ele>344</ele>
        <time>2024-04-14T10:38:41Z</time>
      </trkpt>
      <trkpt lat="45.92737" lon="3.15818">
        <ele>344</ele>
        <time>2024-04-14T10:38:42Z</time>
      </trkpt>
      <trkpt lat="45.92743" lon="3.15828">
        <ele>343.8</ele>
        <time>2024-04-14T10:38:43Z</time>
      </trkpt>
      <trkpt lat="45.92748" lon="3.15829">
        <ele>343.8</ele>
        <time>2024-04-14T10:38:44Z</time>
      </trkpt>
      <trkpt lat="45.92754" lon="3.1583">
        <ele>343.6</ele>
        <time>2024-04-14T10:38:45Z</time>
      </trkpt>
      <trkpt lat="45.9276" lon="3.15831">
        <ele>343.6</ele>
        <time>2024-04-14T10:38:46Z</time>
      </trkpt>
      <trkpt lat="45.92766" lon="3.15834">
        <ele>343.6</ele>
        <time>2024-04-14T10:38:47Z</time>
      </trkpt>
      <trkpt lat="45.92772" lon="3.15837">
        <ele>343.4</ele>
        <time>2024-04-14T10:38:48Z</time>
      </trkpt>
      <trkpt lat="45.92777" lon="3.1584">
        <ele>343.4</ele>
        <time>2024-04-14T10:38:49Z</time>
      </trkpt>
      <trkpt lat="45.92784" lon="3.15843">
        <ele>343.2</ele>
        <time>2024-04-14T10:38:50Z</time>
      </trkpt>
      <trkpt lat="45.92786" lon="3.15855">
        <ele>343</ele>
        <time>2024-04-14T10:38:51Z</time>
      </trkpt>
      <trkpt lat="45.92787" lon="3.15864">
        <ele>343</ele>
        <time>2024-04-14T10:38:52Z</time>
      </trkpt>
      <trkpt lat="45.92787" lon="3.15873">
        <ele>342.8</ele>
        <time>2024-04-14T10:38:53Z</time>
      </trkpt>
      <trkpt lat="45.92788" lon="3.15882">
        <ele>342.8</ele>
        <time>2024-04-14T10:38:54Z</time>
      </trkpt>
      <trkpt lat="45.92789" lon="3.15892">
        <ele>342.6</ele>
        <time>2024-04-14T10:38:55Z</time>
      </trkpt>
      <trkpt lat="45.9279" lon="3.15901">
        <ele>342.6</ele>
        <time>2024-04-14T10:38:56Z</time>
      </trkpt>
      <trkpt lat="45.9279" lon="3.15911">
        <ele>342.4</ele>
        <time>2024-04-14T10:38:57Z</time>
      </trkpt>
      <trkpt lat="45.92791" lon="3.15921">
        <ele>342.4</ele>
        <time>2024-04-14T10:38:58Z</time>
      </trkpt>
      <trkpt lat="45.92792" lon="3.15931">
        <ele>342.2</ele>
        <time>2024-04-14T10:38:59Z</time>
      </trkpt>
      <trkpt lat="45.92793" lon="3.15941">
        <ele>342.2</ele>
        <time>2024-04-14T10:39:00Z</time>
      </trkpt>
      <trkpt lat="45.92794" lon="3.1595">
        <ele>342.2</ele>
        <time>2024-04-14T10:39:01Z</time>
      </trkpt>
      <trkpt lat="45.92794" lon="3.1596">
        <ele>342.2</ele>
        <time>2024-04-14T10:39:02Z</time>
      </trkpt>
      <trkpt lat="45.92795" lon="3.1597">
        <ele>342</ele>
        <time>2024-04-14T10:39:03Z</time>
      </trkpt>
      <trkpt lat="45.92796" lon="3.1598">
        <ele>342</ele>
        <time>2024-04-14T10:39:04Z</time>
      </trkpt>
      <trkpt lat="45.92795" lon="3.15991">
        <ele>342</ele>
        <time>2024-04-14T10:39:05Z</time>
      </trkpt>
      <trkpt lat="45.92794" lon="3.16001">
        <ele>342</ele>
        <time>2024-04-14T10:39:06Z</time>
      </trkpt>
      <trkpt lat="45.92793" lon="3.16012">
        <ele>341.8</ele>
        <time>2024-04-14T10:39:07Z</time>
      </trkpt>
      <trkpt lat="45.92792" lon="3.16022">
        <ele>341.8</ele>
        <time>2024-04-14T10:39:08Z</time>
      </trkpt>
      <trkpt lat="45.92791" lon="3.16033">
        <ele>341.6</ele>
        <time>2024-04-14T10:39:09Z</time>
      </trkpt>
      <trkpt lat="45.9279" lon="3.16043">
        <ele>341.4</ele>
        <time>2024-04-14T10:39:10Z</time>
      </trkpt>
      <trkpt lat="45.92788" lon="3.16053">
        <ele>341.2</ele>
        <time>2024-04-14T10:39:11Z</time>
      </trkpt>
      <trkpt lat="45.92787" lon="3.16063">
        <ele>341.2</ele>
        <time>2024-04-14T10:39:12Z</time>
      </trkpt>
      <trkpt lat="45.92785" lon="3.16073">
        <ele>341</ele>
        <time>2024-04-14T10:39:13Z</time>
      </trkpt>
      <trkpt lat="45.92782" lon="3.16082">
        <ele>340.8</ele>
        <time>2024-04-14T10:39:14Z</time>
      </trkpt>
      <trkpt lat="45.92779" lon="3.16092">
        <ele>340.8</ele>
        <time>2024-04-14T10:39:15Z</time>
      </trkpt>
      <trkpt lat="45.92776" lon="3.16101">
        <ele>340.6</ele>
        <time>2024-04-14T10:39:16Z</time>
      </trkpt>
      <trkpt lat="45.92773" lon="3.16111">
        <ele>340.4</ele>
        <time>2024-04-14T10:39:17Z</time>
      </trkpt>
      <trkpt lat="45.9277" lon="3.16121">
        <ele>340.2</ele>
        <time>2024-04-14T10:39:18Z</time>
      </trkpt>
      <trkpt lat="45.92767" lon="3.1613">
        <ele>340</ele>
        <time>2024-04-14T10:39:19Z</time>
      </trkpt>
      <trkpt lat="45.92764" lon="3.1614">
        <ele>340</ele>
        <time>2024-04-14T10:39:20Z</time>
      </trkpt>
      <trkpt lat="45.92761" lon="3.16149">
        <ele>339.8</ele>
        <time>2024-04-14T10:39:21Z</time>
      </trkpt>
      <trkpt lat="45.92758" lon="3.16159">
        <ele>339.6</ele>
        <time>2024-04-14T10:39:22Z</time>
      </trkpt>
      <trkpt lat="45.92755" lon="3.16169">
        <ele>339.6</ele>
        <time>2024-04-14T10:39:23Z</time>
      </trkpt>
      <trkpt lat="45.92752" lon="3.16178">
        <ele>339.4</ele>
        <time>2024-04-14T10:39:24Z</time>
      </trkpt>
      <trkpt lat="45.92749" lon="3.16188">
        <ele>339.4</ele>
        <time>2024-04-14T10:39:25Z</time>
      </trkpt>
      <trkpt lat="45.92746" lon="3.16198">
        <ele>339.2</ele>
        <time>2024-04-14T10:39:26Z</time>
      </trkpt>
      <trkpt lat="45.92743" lon="3.16208">
        <ele>339</ele>
        <time>2024-04-14T10:39:27Z</time>
      </trkpt>
      <trkpt lat="45.9274" lon="3.16218">
        <ele>338.8</ele>
        <time>2024-04-14T10:39:28Z</time>
      </trkpt>
      <trkpt lat="45.92737" lon="3.16228">
        <ele>338.6</ele>
        <time>2024-04-14T10:39:29Z</time>
      </trkpt>
      <trkpt lat="45.92734" lon="3.16238">
        <ele>338.6</ele>
        <time>2024-04-14T10:39:30Z</time>
      </trkpt>
      <trkpt lat="45.92731" lon="3.16247">
        <ele>338.4</ele>
        <time>2024-04-14T10:39:31Z</time>
      </trkpt>
      <trkpt lat="45.92728" lon="3.16257">
        <ele>338.2</ele>
        <time>2024-04-14T10:39:32Z</time>
      </trkpt>
      <trkpt lat="45.92725" lon="3.16267">
        <ele>338</ele>
        <time>2024-04-14T10:39:33Z</time>
      </trkpt>
      <trkpt lat="45.92722" lon="3.16277">
        <ele>338</ele>
        <time>2024-04-14T10:39:34Z</time>
      </trkpt>
      <trkpt lat="45.92719" lon="3.16287">
        <ele>337.8</ele>
        <time>2024-04-14T10:39:35Z</time>
      </trkpt>
      <trkpt lat="45.92716" lon="3.16298">
        <ele>337.6</ele>
        <time>2024-04-14T10:39:36Z</time>
      </trkpt>
      <trkpt lat="45.92712" lon="3.16309">
        <ele>337.4</ele>
        <time>2024-04-14T10:39:37Z</time>
      </trkpt>
      <trkpt lat="45.92709" lon="3.1632">
        <ele>337.2</ele>
        <time>2024-04-14T10:39:38Z</time>
      </trkpt>
      <trkpt lat="45.92706" lon="3.16331">
        <ele>337</ele>
        <time>2024-04-14T10:39:39Z</time>
      </trkpt>
      <trkpt lat="45.92702" lon="3.16341">
        <ele>336.8</ele>
        <time>2024-04-14T10:39:40Z</time>
      </trkpt>
      <trkpt lat="45.92699" lon="3.16352">
        <ele>336.6</ele>
        <time>2024-04-14T10:39:41Z</time>
      </trkpt>
      <trkpt lat="45.92696" lon="3.16363">
        <ele>336.4</ele>
        <time>2024-04-14T10:39:42Z</time>
      </trkpt>
      <trkpt lat="45.92692" lon="3.16374">
        <ele>336.2</ele>
        <time>2024-04-14T10:39:43Z</time>
      </trkpt>
      <trkpt lat="45.92689" lon="3.16385">
        <ele>336</ele>
        <time>2024-04-14T10:39:44Z</time>
      </trkpt>
      <trkpt lat="45.92686" lon="3.16396">
        <ele>335.8</ele>
        <time>2024-04-14T10:39:45Z</time>
      </trkpt>
      <trkpt lat="45.92682" lon="3.16407">
        <ele>335.6</ele>
        <time>2024-04-14T10:39:46Z</time>
      </trkpt>
      <trkpt lat="45.92679" lon="3.16419">
        <ele>335.4</ele>
        <time>2024-04-14T10:39:47Z</time>
      </trkpt>
      <trkpt lat="45.92675" lon="3.16429">
        <ele>335.2</ele>
        <time>2024-04-14T10:39:48Z</time>
      </trkpt>
      <trkpt lat="45.92672" lon="3.1644">
        <ele>335</ele>
        <time>2024-04-14T10:39:49Z</time>
      </trkpt>
      <trkpt lat="45.9267" lon="3.16448">
        <ele>334.8</ele>
        <time>2024-04-14T10:39:50Z</time>
      </trkpt>
      <trkpt lat="45.92667" lon="3.16457">
        <ele>334.6</ele>
        <time>2024-04-14T10:39:51Z</time>
      </trkpt>
      <trkpt lat="45.92665" lon="3.16464">
        <ele>334.4</ele>
        <time>2024-04-14T10:39:52Z</time>
      </trkpt>
      <trkpt lat="45.92663" lon="3.16471">
        <ele>334.2</ele>
        <time>2024-04-14T10:39:53Z</time>
      </trkpt>
      <trkpt lat="45.92663" lon="3.16471">
        <ele>334</ele>
        <time>2024-04-14T10:39:54Z</time>
      </trkpt>
      <trkpt lat="45.92657" lon="3.16487">
        <ele>333.8</ele>
        <time>2024-04-14T10:39:55Z</time>
      </trkpt>
      <trkpt lat="45.9266" lon="3.16492">
        <ele>333.6</ele>
        <time>2024-04-14T10:39:56Z</time>
      </trkpt>
      <trkpt lat="45.92662" lon="3.16499">
        <ele>333.6</ele>
        <time>2024-04-14T10:39:57Z</time>
      </trkpt>
      <trkpt lat="45.92665" lon="3.16506">
        <ele>333.4</ele>
        <time>2024-04-14T10:39:58Z</time>
      </trkpt>
      <trkpt lat="45.92669" lon="3.16514">
        <ele>333.2</ele>
        <time>2024-04-14T10:39:59Z</time>
      </trkpt>
      <trkpt lat="45.92672" lon="3.16522">
        <ele>333</ele>
        <time>2024-04-14T10:40:00Z</time>
      </trkpt>
      <trkpt lat="45.92675" lon="3.1653">
        <ele>332.8</ele>
        <time>2024-04-14T10:40:01Z</time>
      </trkpt>
      <trkpt lat="45.92679" lon="3.16538">
        <ele>332.6</ele>
        <time>2024-04-14T10:40:02Z</time>
      </trkpt>
      <trkpt lat="45.92682" lon="3.16546">
        <ele>332.4</ele>
        <time>2024-04-14T10:40:03Z</time>
      </trkpt>
      <trkpt lat="45.92686" lon="3.16554">
        <ele>332.4</ele>
        <time>2024-04-14T10:40:04Z</time>
      </trkpt>
      <trkpt lat="45.92689" lon="3.16562">
        <ele>332.2</ele>
        <time>2024-04-14T10:40:05Z</time>
      </trkpt>
      <trkpt lat="45.92693" lon="3.1657">
        <ele>332.2</ele>
        <time>2024-04-14T10:40:06Z</time>
      </trkpt>
      <trkpt lat="45.92696" lon="3.16579">
        <ele>332</ele>
        <time>2024-04-14T10:40:07Z</time>
      </trkpt>
      <trkpt lat="45.92699" lon="3.16587">
        <ele>331.8</ele>
        <time>2024-04-14T10:40:08Z</time>
      </trkpt>
      <trkpt lat="45.92703" lon="3.16594">
        <ele>331.8</ele>
        <time>2024-04-14T10:40:09Z</time>
      </trkpt>
      <trkpt lat="45.92706" lon="3.16603">
        <ele>331.6</ele>
        <time>2024-04-14T10:40:10Z</time>
      </trkpt>
      <trkpt lat="45.9271" lon="3.16611">
        <ele>331.6</ele>
        <time>2024-04-14T10:40:11Z</time>
      </trkpt>
      <trkpt lat="45.92713" lon="3.1662">
        <ele>331.4</ele>
        <time>2024-04-14T10:40:12Z</time>
      </trkpt>
      <trkpt lat="45.92717" lon="3.16628">
        <ele>331.4</ele>
        <time>2024-04-14T10:40:13Z</time>
      </trkpt>
      <trkpt lat="45.9272" lon="3.16636">
        <ele>331.2</ele>
        <time>2024-04-14T10:40:14Z</time>
      </trkpt>
      <trkpt lat="45.92724" lon="3.16645">
        <ele>331.2</ele>
        <time>2024-04-14T10:40:15Z</time>
      </trkpt>
      <trkpt lat="45.92728" lon="3.16653">
        <ele>331.2</ele>
        <time>2024-04-14T10:40:16Z</time>
      </trkpt>
      <trkpt lat="45.92731" lon="3.16661">
        <ele>331.2</ele>
        <time>2024-04-14T10:40:17Z</time>
      </trkpt>
      <trkpt lat="45.92734" lon="3.1667">
        <ele>331</ele>
        <time>2024-04-14T10:40:18Z</time>
      </trkpt>
      <trkpt lat="45.92738" lon="3.16678">
        <ele>331</ele>
        <time>2024-04-14T10:40:19Z</time>
      </trkpt>
      <trkpt lat="45.92742" lon="3.16687">
        <ele>330.8</ele>
        <time>2024-04-14T10:40:20Z</time>
      </trkpt>
      <trkpt lat="45.92745" lon="3.16695">
        <ele>330.8</ele>
        <time>2024-04-14T10:40:21Z</time>
      </trkpt>
      <trkpt lat="45.92749" lon="3.16703">
        <ele>330.8</ele>
        <time>2024-04-14T10:40:22Z</time>
      </trkpt>
      <trkpt lat="45.92752" lon="3.16712">
        <ele>330.6</ele>
        <time>2024-04-14T10:40:23Z</time>
      </trkpt>
      <trkpt lat="45.92756" lon="3.1672">
        <ele>330.6</ele>
        <time>2024-04-14T10:40:24Z</time>
      </trkpt>
      <trkpt lat="45.92759" lon="3.16729">
        <ele>330.6</ele>
        <time>2024-04-14T10:40:25Z</time>
      </trkpt>
      <trkpt lat="45.92763" lon="3.16737">
        <ele>330.4</ele>
        <time>2024-04-14T10:40:26Z</time>
      </trkpt>
      <trkpt lat="45.92767" lon="3.16744">
        <ele>330.4</ele>
        <time>2024-04-14T10:40:27Z</time>
      </trkpt>
      <trkpt lat="45.92771" lon="3.16752">
        <ele>330.2</ele>
        <time>2024-04-14T10:40:28Z</time>
      </trkpt>
      <trkpt lat="45.92776" lon="3.16759">
        <ele>330.2</ele>
        <time>2024-04-14T10:40:29Z</time>
      </trkpt>
      <trkpt lat="45.9278" lon="3.16766">
        <ele>330.2</ele>
        <time>2024-04-14T10:40:30Z</time>
      </trkpt>
      <trkpt lat="45.92784" lon="3.16773">
        <ele>330.2</ele>
        <time>2024-04-14T10:40:31Z</time>
      </trkpt>
      <trkpt lat="45.92789" lon="3.1678">
        <ele>330.2</ele>
        <time>2024-04-14T10:40:32Z</time>
      </trkpt>
      <trkpt lat="45.92793" lon="3.16788">
        <ele>330</ele>
        <time>2024-04-14T10:40:33Z</time>
      </trkpt>
      <trkpt lat="45.92797" lon="3.16795">
        <ele>329.8</ele>
        <time>2024-04-14T10:40:34Z</time>
      </trkpt>
      <trkpt lat="45.92802" lon="3.16802">
        <ele>329.8</ele>
        <time>2024-04-14T10:40:35Z</time>
      </trkpt>
      <trkpt lat="45.92806" lon="3.16809">
        <ele>329.8</ele>
        <time>2024-04-14T10:40:36Z</time>
      </trkpt>
      <trkpt lat="45.9281" lon="3.16816">
        <ele>329.8</ele>
        <time>2024-04-14T10:40:37Z</time>
      </trkpt>
      <trkpt lat="45.92815" lon="3.16823">
        <ele>329.8</ele>
        <time>2024-04-14T10:40:38Z</time>
      </trkpt>
      <trkpt lat="45.92819" lon="3.16831">
        <ele>329.6</ele>
        <time>2024-04-14T10:40:39Z</time>
      </trkpt>
      <trkpt lat="45.92823" lon="3.16838">
        <ele>329.6</ele>
        <time>2024-04-14T10:40:40Z</time>
      </trkpt>
      <trkpt lat="45.92828" lon="3.16845">
        <ele>329.6</ele>
        <time>2024-04-14T10:40:41Z</time>
      </trkpt>
      <trkpt lat="45.92832" lon="3.16852">
        <ele>329.6</ele>
        <time>2024-04-14T10:40:42Z</time>
      </trkpt>
      <trkpt lat="45.92837" lon="3.16859">
        <ele>329.6</ele>
        <time>2024-04-14T10:40:43Z</time>
      </trkpt>
      <trkpt lat="45.92842" lon="3.16865">
        <ele>329.4</ele>
        <time>2024-04-14T10:40:44Z</time>
      </trkpt>
      <trkpt lat="45.92847" lon="3.16871">
        <ele>329.4</ele>
        <time>2024-04-14T10:40:45Z</time>
      </trkpt>
      <trkpt lat="45.92852" lon="3.16877">
        <ele>329.4</ele>
        <time>2024-04-14T10:40:46Z</time>
      </trkpt>
      <trkpt lat="45.92857" lon="3.16883">
        <ele>329.4</ele>
        <time>2024-04-14T10:40:47Z</time>
      </trkpt>
      <trkpt lat="45.92863" lon="3.16889">
        <ele>329.4</ele>
        <time>2024-04-14T10:40:48Z</time>
      </trkpt>
      <trkpt lat="45.92868" lon="3.16895">
        <ele>329.2</ele>
        <time>2024-04-14T10:40:49Z</time>
      </trkpt>
      <trkpt lat="45.92874" lon="3.16901">
        <ele>329.2</ele>
        <time>2024-04-14T10:40:50Z</time>
      </trkpt>
      <trkpt lat="45.92879" lon="3.16907">
        <ele>329.2</ele>
        <time>2024-04-14T10:40:51Z</time>
      </trkpt>
      <trkpt lat="45.92885" lon="3.16914">
        <ele>329.2</ele>
        <time>2024-04-14T10:40:52Z</time>
      </trkpt>
      <trkpt lat="45.9289" lon="3.1692">
        <ele>329</ele>
        <time>2024-04-14T10:40:53Z</time>
      </trkpt>
      <trkpt lat="45.92896" lon="3.16926">
        <ele>329</ele>
        <time>2024-04-14T10:40:54Z</time>
      </trkpt>
      <trkpt lat="45.92901" lon="3.16932">
        <ele>329</ele>
        <time>2024-04-14T10:40:55Z</time>
      </trkpt>
      <trkpt lat="45.92907" lon="3.16939">
        <ele>329</ele>
        <time>2024-04-14T10:40:56Z</time>
      </trkpt>
      <trkpt lat="45.92913" lon="3.16945">
        <ele>328.8</ele>
        <time>2024-04-14T10:40:57Z</time>
      </trkpt>
      <trkpt lat="45.92918" lon="3.16951">
        <ele>328.8</ele>
        <time>2024-04-14T10:40:58Z</time>
      </trkpt>
      <trkpt lat="45.92924" lon="3.16958">
        <ele>328.8</ele>
        <time>2024-04-14T10:40:59Z</time>
      </trkpt>
      <trkpt lat="45.92929" lon="3.16964">
        <ele>328.6</ele>
        <time>2024-04-14T10:41:00Z</time>
      </trkpt>
      <trkpt lat="45.92935" lon="3.1697">
        <ele>328.6</ele>
        <time>2024-04-14T10:41:01Z</time>
      </trkpt>
      <trkpt lat="45.92941" lon="3.16977">
        <ele>328.6</ele>
        <time>2024-04-14T10:41:02Z</time>
      </trkpt>
      <trkpt lat="45.92946" lon="3.16983">
        <ele>328.6</ele>
        <time>2024-04-14T10:41:03Z</time>
      </trkpt>
      <trkpt lat="45.92952" lon="3.16989">
        <ele>328.6</ele>
        <time>2024-04-14T10:41:04Z</time>
      </trkpt>
      <trkpt lat="45.92957" lon="3.16996">
        <ele>328.6</ele>
        <time>2024-04-14T10:41:05Z</time>
      </trkpt>
      <trkpt lat="45.92963" lon="3.17002">
        <ele>328.6</ele>
        <time>2024-04-14T10:41:06Z</time>
      </trkpt>
      <trkpt lat="45.92968" lon="3.17008">
        <ele>328.6</ele>
        <time>2024-04-14T10:41:07Z</time>
      </trkpt>
      <trkpt lat="45.92974" lon="3.17014">
        <ele>328.6</ele>
        <time>2024-04-14T10:41:08Z</time>
      </trkpt>
      <trkpt lat="45.92979" lon="3.1702">
        <ele>328.4</ele>
        <time>2024-04-14T10:41:09Z</time>
      </trkpt>
      <trkpt lat="45.92985" lon="3.17027">
        <ele>328.4</ele>
        <time>2024-04-14T10:41:10Z</time>
      </trkpt>
      <trkpt lat="45.9299" lon="3.17033">
        <ele>328.4</ele>
        <time>2024-04-14T10:41:11Z</time>
      </trkpt>
      <trkpt lat="45.92996" lon="3.17039">
        <ele>328.4</ele>
        <time>2024-04-14T10:41:12Z</time>
      </trkpt>
      <trkpt lat="45.93001" lon="3.17045">
        <ele>328.4</ele>
        <time>2024-04-14T10:41:13Z</time>
      </trkpt>
      <trkpt lat="45.93007" lon="3.17051">
        <ele>328.4</ele>
        <time>2024-04-14T10:41:14Z</time>
      </trkpt>
      <trkpt lat="45.93012" lon="3.17057">
        <ele>328.2</ele>
        <time>2024-04-14T10:41:15Z</time>
      </trkpt>
      <trkpt lat="45.93017" lon="3.17063">
        <ele>328.4</ele>
        <time>2024-04-14T10:41:16Z</time>
      </trkpt>
      <trkpt lat="45.93023" lon="3.17069">
        <ele>328.2</ele>
        <time>2024-04-14T10:41:17Z</time>
      </trkpt>
      <trkpt lat="45.93028" lon="3.17076">
        <ele>328.2</ele>
        <time>2024-04-14T10:41:18Z</time>
      </trkpt>
      <trkpt lat="45.93033" lon="3.17082">
        <ele>328.2</ele>
        <time>2024-04-14T10:41:19Z</time>
      </trkpt>
      <trkpt lat="45.93039" lon="3.17088">
        <ele>328.2</ele>
        <time>2024-04-14T10:41:20Z</time>
      </trkpt>
      <trkpt lat="45.93044" lon="3.17094">
        <ele>328.2</ele>
        <time>2024-04-14T10:41:21Z</time>
      </trkpt>
      <trkpt lat="45.9305" lon="3.171">
        <ele>328.2</ele>
        <time>2024-04-14T10:41:22Z</time>
      </trkpt>
      <trkpt lat="45.93055" lon="3.17106">
        <ele>328.2</ele>
        <time>2024-04-14T10:41:23Z</time>
      </trkpt>
      <trkpt lat="45.93061" lon="3.17112">
        <ele>328.2</ele>
        <time>2024-04-14T10:41:24Z</time>
      </trkpt>
      <trkpt lat="45.93066" lon="3.17118">
        <ele>328.2</ele>
        <time>2024-04-14T10:41:25Z</time>
      </trkpt>
      <trkpt lat="45.93071" lon="3.17124">
        <ele>328.2</ele>
        <time>2024-04-14T10:41:26Z</time>
      </trkpt>
      <trkpt lat="45.93077" lon="3.1713">
        <ele>328.2</ele>
        <time>2024-04-14T10:41:27Z</time>
      </trkpt>
      <trkpt lat="45.93082" lon="3.17136">
        <ele>328.2</ele>
        <time>2024-04-14T10:41:28Z</time>
      </trkpt>
      <trkpt lat="45.93087" lon="3.17142">
        <ele>328.2</ele>
        <time>2024-04-14T10:41:29Z</time>
      </trkpt>
      <trkpt lat="45.93092" lon="3.17148">
        <ele>328.2</ele>
        <time>2024-04-14T10:41:30Z</time>
      </trkpt>
      <trkpt lat="45.93098" lon="3.17155">
        <ele>328.2</ele>
        <time>2024-04-14T10:41:31Z</time>
      </trkpt>
      <trkpt lat="45.93104" lon="3.1716">
        <ele>328.2</ele>
        <time>2024-04-14T10:41:32Z</time>
      </trkpt>
      <trkpt lat="45.9311" lon="3.17165">
        <ele>328.2</ele>
        <time>2024-04-14T10:41:33Z</time>
      </trkpt>
      <trkpt lat="45.93116" lon="3.1717">
        <ele>328.2</ele>
        <time>2024-04-14T10:41:34Z</time>
      </trkpt>
      <trkpt lat="45.93122" lon="3.17175">
        <ele>328.2</ele>
        <time>2024-04-14T10:41:35Z</time>
      </trkpt>
      <trkpt lat="45.93129" lon="3.17179">
        <ele>328.2</ele>
        <time>2024-04-14T10:41:36Z</time>
      </trkpt>
      <trkpt lat="45.93135" lon="3.17184">
        <ele>328</ele>
        <time>2024-04-14T10:41:37Z</time>
      </trkpt>
      <trkpt lat="45.93142" lon="3.17189">
        <ele>328</ele>
        <time>2024-04-14T10:41:38Z</time>
      </trkpt>
      <trkpt lat="45.93148" lon="3.17193">
        <ele>328</ele>
        <time>2024-04-14T10:41:39Z</time>
      </trkpt>
      <trkpt lat="45.93154" lon="3.17197">
        <ele>328</ele>
        <time>2024-04-14T10:41:40Z</time>
      </trkpt>
      <trkpt lat="45.93161" lon="3.17202">
        <ele>328</ele>
        <time>2024-04-14T10:41:41Z</time>
      </trkpt>
      <trkpt lat="45.93167" lon="3.17206">
        <ele>328</ele>
        <time>2024-04-14T10:41:42Z</time>
      </trkpt>
      <trkpt lat="45.93173" lon="3.17211">
        <ele>328</ele>
        <time>2024-04-14T10:41:43Z</time>
      </trkpt>
      <trkpt lat="45.93179" lon="3.17215">
        <ele>328</ele>
        <time>2024-04-14T10:41:44Z</time>
      </trkpt>
      <trkpt lat="45.93186" lon="3.17219">
        <ele>328</ele>
        <time>2024-04-14T10:41:45Z</time>
      </trkpt>
      <trkpt lat="45.93192" lon="3.17224">
        <ele>328</ele>
        <time>2024-04-14T10:41:46Z</time>
      </trkpt>
      <trkpt lat="45.93198" lon="3.17228">
        <ele>328</ele>
        <time>2024-04-14T10:41:47Z</time>
      </trkpt>
      <trkpt lat="45.93204" lon="3.17232">
        <ele>328</ele>
        <time>2024-04-14T10:41:48Z</time>
      </trkpt>
      <trkpt lat="45.93211" lon="3.17237">
        <ele>328</ele>
        <time>2024-04-14T10:41:49Z</time>
      </trkpt>
      <trkpt lat="45.93217" lon="3.17241">
        <ele>327.8</ele>
        <time>2024-04-14T10:41:50Z</time>
      </trkpt>
      <trkpt lat="45.93223" lon="3.17246">
        <ele>327.8</ele>
        <time>2024-04-14T10:41:51Z</time>
      </trkpt>
      <trkpt lat="45.93229" lon="3.1725">
        <ele>327.8</ele>
        <time>2024-04-14T10:41:52Z</time>
      </trkpt>
      <trkpt lat="45.93236" lon="3.17254">
        <ele>328</ele>
        <time>2024-04-14T10:41:53Z</time>
      </trkpt>
      <trkpt lat="45.93242" lon="3.17259">
        <ele>327.8</ele>
        <time>2024-04-14T10:41:54Z</time>
      </trkpt>
      <trkpt lat="45.93248" lon="3.17263">
        <ele>327.8</ele>
        <time>2024-04-14T10:41:55Z</time>
      </trkpt>
      <trkpt lat="45.93254" lon="3.17267">
        <ele>327.8</ele>
        <time>2024-04-14T10:41:56Z</time>
      </trkpt>
      <trkpt lat="45.9326" lon="3.17272">
        <ele>327.8</ele>
        <time>2024-04-14T10:41:57Z</time>
      </trkpt>
      <trkpt lat="45.93267" lon="3.17276">
        <ele>327.8</ele>
        <time>2024-04-14T10:41:58Z</time>
      </trkpt>
      <trkpt lat="45.93273" lon="3.17281">
        <ele>327.8</ele>
        <time>2024-04-14T10:41:59Z</time>
      </trkpt>
      <trkpt lat="45.93279" lon="3.17285">
        <ele>327.8</ele>
        <time>2024-04-14T10:42:00Z</time>
      </trkpt>
      <trkpt lat="45.93286" lon="3.17289">
        <ele>327.8</ele>
        <time>2024-04-14T10:42:01Z</time>
      </trkpt>
      <trkpt lat="45.93292" lon="3.17294">
        <ele>327.8</ele>
        <time>2024-04-14T10:42:02Z</time>
      </trkpt>
      <trkpt lat="45.93298" lon="3.17298">
        <ele>327.8</ele>
        <time>2024-04-14T10:42:03Z</time>
      </trkpt>
      <trkpt lat="45.93304" lon="3.17302">
        <ele>327.8</ele>
        <time>2024-04-14T10:42:04Z</time>
      </trkpt>
      <trkpt lat="45.9331" lon="3.17307">
        <ele>327.8</ele>
        <time>2024-04-14T10:42:05Z</time>
      </trkpt>
      <trkpt lat="45.93317" lon="3.17311">
        <ele>327.8</ele>
        <time>2024-04-14T10:42:06Z</time>
      </trkpt>
      <trkpt lat="45.93323" lon="3.17315">
        <ele>327.8</ele>
        <time>2024-04-14T10:42:07Z</time>
      </trkpt>
      <trkpt lat="45.93329" lon="3.1732">
        <ele>327.8</ele>
        <time>2024-04-14T10:42:08Z</time>
      </trkpt>
      <trkpt lat="45.93336" lon="3.17324">
        <ele>327.8</ele>
        <time>2024-04-14T10:42:09Z</time>
      </trkpt>
      <trkpt lat="45.93342" lon="3.17329">
        <ele>327.8</ele>
        <time>2024-04-14T10:42:10Z</time>
      </trkpt>
      <trkpt lat="45.93348" lon="3.17333">
        <ele>327.8</ele>
        <time>2024-04-14T10:42:11Z</time>
      </trkpt>
      <trkpt lat="45.93354" lon="3.17338">
        <ele>327.8</ele>
        <time>2024-04-14T10:42:12Z</time>
      </trkpt>
      <trkpt lat="45.93361" lon="3.17342">
        <ele>327.8</ele>
        <time>2024-04-14T10:42:13Z</time>
      </trkpt>
      <trkpt lat="45.93367" lon="3.17347">
        <ele>327.8</ele>
        <time>2024-04-14T10:42:14Z</time>
      </trkpt>
      <trkpt lat="45.93373" lon="3.17351">
        <ele>327.8</ele>
        <time>2024-04-14T10:42:15Z</time>
      </trkpt>
      <trkpt lat="45.9338" lon="3.17355">
        <ele>327.8</ele>
        <time>2024-04-14T10:42:16Z</time>
      </trkpt>
      <trkpt lat="45.93386" lon="3.1736">
        <ele>327.6</ele>
        <time>2024-04-14T10:42:17Z</time>
      </trkpt>
      <trkpt lat="45.93392" lon="3.17364">
        <ele>327.6</ele>
        <time>2024-04-14T10:42:18Z</time>
      </trkpt>
      <trkpt lat="45.93398" lon="3.17368">
        <ele>327.6</ele>
        <time>2024-04-14T10:42:19Z</time>
      </trkpt>
      <trkpt lat="45.93404" lon="3.17373">
        <ele>327.6</ele>
        <time>2024-04-14T10:42:20Z</time>
      </trkpt>
      <trkpt lat="45.93411" lon="3.17377">
        <ele>327.6</ele>
        <time>2024-04-14T10:42:21Z</time>
      </trkpt>
      <trkpt lat="45.93417" lon="3.17382">
        <ele>327.6</ele>
        <time>2024-04-14T10:42:22Z</time>
      </trkpt>
      <trkpt lat="45.93424" lon="3.17386">
        <ele>327.6</ele>
        <time>2024-04-14T10:42:23Z</time>
      </trkpt>
      <trkpt lat="45.9343" lon="3.17391">
        <ele>327.6</ele>
        <time>2024-04-14T10:42:24Z</time>
      </trkpt>
      <trkpt lat="45.93436" lon="3.17395">
        <ele>327.6</ele>
        <time>2024-04-14T10:42:25Z</time>
      </trkpt>
      <trkpt lat="45.93442" lon="3.17399">
        <ele>327.6</ele>
        <time>2024-04-14T10:42:26Z</time>
      </trkpt>
      <trkpt lat="45.93449" lon="3.17404">
        <ele>327.4</ele>
        <time>2024-04-14T10:42:27Z</time>
      </trkpt>
      <trkpt lat="45.93455" lon="3.17408">
        <ele>327.4</ele>
        <time>2024-04-14T10:42:28Z</time>
      </trkpt>
      <trkpt lat="45.93461" lon="3.17413">
        <ele>327.4</ele>
        <time>2024-04-14T10:42:29Z</time>
      </trkpt>
      <trkpt lat="45.93468" lon="3.17417">
        <ele>327.4</ele>
        <time>2024-04-14T10:42:30Z</time>
      </trkpt>
      <trkpt lat="45.93474" lon="3.17421">
        <ele>327.4</ele>
        <time>2024-04-14T10:42:31Z</time>
      </trkpt>
      <trkpt lat="45.9348" lon="3.17426">
        <ele>327.4</ele>
        <time>2024-04-14T10:42:32Z</time>
      </trkpt>
      <trkpt lat="45.93486" lon="3.1743">
        <ele>327.4</ele>
        <time>2024-04-14T10:42:33Z</time>
      </trkpt>
      <trkpt lat="45.93492" lon="3.17434">
        <ele>327.4</ele>
        <time>2024-04-14T10:42:34Z</time>
      </trkpt>
      <trkpt lat="45.93498" lon="3.17439">
        <ele>327.4</ele>
        <time>2024-04-14T10:42:35Z</time>
      </trkpt>
      <trkpt lat="45.93504" lon="3.17443">
        <ele>327.4</ele>
        <time>2024-04-14T10:42:36Z</time>
      </trkpt>
      <trkpt lat="45.93511" lon="3.17448">
        <ele>327.4</ele>
        <time>2024-04-14T10:42:37Z</time>
      </trkpt>
      <trkpt lat="45.93517" lon="3.17453">
        <ele>327.4</ele>
        <time>2024-04-14T10:42:38Z</time>
      </trkpt>
      <trkpt lat="45.93523" lon="3.17457">
        <ele>327.2</ele>
        <time>2024-04-14T10:42:39Z</time>
      </trkpt>
      <trkpt lat="45.93529" lon="3.17462">
        <ele>327.2</ele>
        <time>2024-04-14T10:42:40Z</time>
      </trkpt>
      <trkpt lat="45.93535" lon="3.17466">
        <ele>327.2</ele>
        <time>2024-04-14T10:42:41Z</time>
      </trkpt>
      <trkpt lat="45.93542" lon="3.17471">
        <ele>327.2</ele>
        <time>2024-04-14T10:42:42Z</time>
      </trkpt>
      <trkpt lat="45.93548" lon="3.17476">
        <ele>327.2</ele>
        <time>2024-04-14T10:42:43Z</time>
      </trkpt>
      <trkpt lat="45.93554" lon="3.1748">
        <ele>327.2</ele>
        <time>2024-04-14T10:42:44Z</time>
      </trkpt>
      <trkpt lat="45.9356" lon="3.17485">
        <ele>327.4</ele>
        <time>2024-04-14T10:42:45Z</time>
      </trkpt>
      <trkpt lat="45.93566" lon="3.1749">
        <ele>327.2</ele>
        <time>2024-04-14T10:42:46Z</time>
      </trkpt>
      <trkpt lat="45.93573" lon="3.17494">
        <ele>327.4</ele>
        <time>2024-04-14T10:42:47Z</time>
      </trkpt>
      <trkpt lat="45.93579" lon="3.17499">
        <ele>327.2</ele>
        <time>2024-04-14T10:42:48Z</time>
      </trkpt>
      <trkpt lat="45.93585" lon="3.17504">
        <ele>327.2</ele>
        <time>2024-04-14T10:42:49Z</time>
      </trkpt>
      <trkpt lat="45.93592" lon="3.17508">
        <ele>327.2</ele>
        <time>2024-04-14T10:42:50Z</time>
      </trkpt>
      <trkpt lat="45.93598" lon="3.17513">
        <ele>327.2</ele>
        <time>2024-04-14T10:42:51Z</time>
      </trkpt>
      <trkpt lat="45.93604" lon="3.17517">
        <ele>327.4</ele>
        <time>2024-04-14T10:42:52Z</time>
      </trkpt>
      <trkpt lat="45.9361" lon="3.17522">
        <ele>327.2</ele>
        <time>2024-04-14T10:42:53Z</time>
      </trkpt>
      <trkpt lat="45.93617" lon="3.17527">
        <ele>327.2</ele>
        <time>2024-04-14T10:42:54Z</time>
      </trkpt>
      <trkpt lat="45.93623" lon="3.17531">
        <ele>327.2</ele>
        <time>2024-04-14T10:42:55Z</time>
      </trkpt>
      <trkpt lat="45.93629" lon="3.17536">
        <ele>327.2</ele>
        <time>2024-04-14T10:42:56Z</time>
      </trkpt>
      <trkpt lat="45.93635" lon="3.17541">
        <ele>327.2</ele>
        <time>2024-04-14T10:42:57Z</time>
      </trkpt>
      <trkpt lat="45.93642" lon="3.17546">
        <ele>327.2</ele>
        <time>2024-04-14T10:42:58Z</time>
      </trkpt>
      <trkpt lat="45.93648" lon="3.17551">
        <ele>327</ele>
        <time>2024-04-14T10:42:59Z</time>
      </trkpt>
      <trkpt lat="45.93654" lon="3.17556">
        <ele>327</ele>
        <time>2024-04-14T10:43:00Z</time>
      </trkpt>
      <trkpt lat="45.9366" lon="3.17561">
        <ele>327</ele>
        <time>2024-04-14T10:43:01Z</time>
      </trkpt>
      <trkpt lat="45.93666" lon="3.17567">
        <ele>327</ele>
        <time>2024-04-14T10:43:02Z</time>
      </trkpt>
      <trkpt lat="45.93672" lon="3.17572">
        <ele>327</ele>
        <time>2024-04-14T10:43:03Z</time>
      </trkpt>
      <trkpt lat="45.93678" lon="3.17577">
        <ele>327</ele>
        <time>2024-04-14T10:43:04Z</time>
      </trkpt>
      <trkpt lat="45.93684" lon="3.17582">
        <ele>327</ele>
        <time>2024-04-14T10:43:05Z</time>
      </trkpt>
      <trkpt lat="45.9369" lon="3.17588">
        <ele>326.8</ele>
        <time>2024-04-14T10:43:06Z</time>
      </trkpt>
      <trkpt lat="45.93696" lon="3.17593">
        <ele>327</ele>
        <time>2024-04-14T10:43:07Z</time>
      </trkpt>
      <trkpt lat="45.93702" lon="3.17598">
        <ele>327</ele>
        <time>2024-04-14T10:43:08Z</time>
      </trkpt>
      <trkpt lat="45.93708" lon="3.17603">
        <ele>327</ele>
        <time>2024-04-14T10:43:09Z</time>
      </trkpt>
      <trkpt lat="45.93714" lon="3.17608">
        <ele>327</ele>
        <time>2024-04-14T10:43:10Z</time>
      </trkpt>
      <trkpt lat="45.9372" lon="3.17614">
        <ele>326.8</ele>
        <time>2024-04-14T10:43:11Z</time>
      </trkpt>
      <trkpt lat="45.93725" lon="3.17621">
        <ele>326.8</ele>
        <time>2024-04-14T10:43:12Z</time>
      </trkpt>
      <trkpt lat="45.93731" lon="3.17628">
        <ele>326.8</ele>
        <time>2024-04-14T10:43:13Z</time>
      </trkpt>
      <trkpt lat="45.93736" lon="3.17635">
        <ele>326.8</ele>
        <time>2024-04-14T10:43:14Z</time>
      </trkpt>
      <trkpt lat="45.93741" lon="3.17642">
        <ele>326.8</ele>
        <time>2024-04-14T10:43:15Z</time>
      </trkpt>
      <trkpt lat="45.93746" lon="3.17649">
        <ele>326.8</ele>
        <time>2024-04-14T10:43:16Z</time>
      </trkpt>
      <trkpt lat="45.93751" lon="3.17656">
        <ele>326.8</ele>
        <time>2024-04-14T10:43:17Z</time>
      </trkpt>
      <trkpt lat="45.93756" lon="3.17663">
        <ele>326.8</ele>
        <time>2024-04-14T10:43:18Z</time>
      </trkpt>
      <trkpt lat="45.93761" lon="3.17671">
        <ele>326.8</ele>
        <time>2024-04-14T10:43:19Z</time>
      </trkpt>
      <trkpt lat="45.93766" lon="3.17678">
        <ele>326.6</ele>
        <time>2024-04-14T10:43:20Z</time>
      </trkpt>
      <trkpt lat="45.93771" lon="3.17686">
        <ele>326.8</ele>
        <time>2024-04-14T10:43:21Z</time>
      </trkpt>
      <trkpt lat="45.93775" lon="3.17693">
        <ele>326.8</ele>
        <time>2024-04-14T10:43:22Z</time>
      </trkpt>
      <trkpt lat="45.9378" lon="3.17701">
        <ele>326.6</ele>
        <time>2024-04-14T10:43:23Z</time>
      </trkpt>
      <trkpt lat="45.93784" lon="3.17708">
        <ele>326.6</ele>
        <time>2024-04-14T10:43:24Z</time>
      </trkpt>
      <trkpt lat="45.93788" lon="3.17716">
        <ele>326.6</ele>
        <time>2024-04-14T10:43:25Z</time>
      </trkpt>
      <trkpt lat="45.93793" lon="3.17724">
        <ele>326.6</ele>
        <time>2024-04-14T10:43:26Z</time>
      </trkpt>
      <trkpt lat="45.93797" lon="3.17731">
        <ele>326.6</ele>
        <time>2024-04-14T10:43:27Z</time>
      </trkpt>
      <trkpt lat="45.93802" lon="3.17739">
        <ele>326.6</ele>
        <time>2024-04-14T10:43:28Z</time>
      </trkpt>
      <trkpt lat="45.93806" lon="3.17746">
        <ele>326.4</ele>
        <time>2024-04-14T10:43:29Z</time>
      </trkpt>
      <trkpt lat="45.9381" lon="3.17754">
        <ele>326.6</ele>
        <time>2024-04-14T10:43:30Z</time>
      </trkpt>
      <trkpt lat="45.93815" lon="3.17761">
        <ele>326.4</ele>
        <time>2024-04-14T10:43:31Z</time>
      </trkpt>
      <trkpt lat="45.93819" lon="3.17769">
        <ele>326.4</ele>
        <time>2024-04-14T10:43:32Z</time>
      </trkpt>
      <trkpt lat="45.93824" lon="3.17777">
        <ele>326.4</ele>
        <time>2024-04-14T10:43:33Z</time>
      </trkpt>
      <trkpt lat="45.93828" lon="3.17785">
        <ele>326.4</ele>
        <time>2024-04-14T10:43:34Z</time>
      </trkpt>
      <trkpt lat="45.93833" lon="3.17793">
        <ele>326.4</ele>
        <time>2024-04-14T10:43:35Z</time>
      </trkpt>
      <trkpt lat="45.93837" lon="3.17801">
        <ele>326.4</ele>
        <time>2024-04-14T10:43:36Z</time>
      </trkpt>
      <trkpt lat="45.93842" lon="3.17808">
        <ele>326.4</ele>
        <time>2024-04-14T10:43:37Z</time>
      </trkpt>
      <trkpt lat="45.93846" lon="3.17816">
        <ele>326.4</ele>
        <time>2024-04-14T10:43:38Z</time>
      </trkpt>
      <trkpt lat="45.9385" lon="3.17824">
        <ele>326.4</ele>
        <time>2024-04-14T10:43:39Z</time>
      </trkpt>
      <trkpt lat="45.93855" lon="3.17832">
        <ele>326.4</ele>
        <time>2024-04-14T10:43:40Z</time>
      </trkpt>
      <trkpt lat="45.93859" lon="3.17839">
        <ele>326.4</ele>
        <time>2024-04-14T10:43:41Z</time>
      </trkpt>
      <trkpt lat="45.93863" lon="3.17847">
        <ele>326.4</ele>
        <time>2024-04-14T10:43:42Z</time>
      </trkpt>
      <trkpt lat="45.93868" lon="3.17854">
        <ele>326.4</ele>
        <time>2024-04-14T10:43:43Z</time>
      </trkpt>
      <trkpt lat="45.93872" lon="3.17862">
        <ele>326.4</ele>
        <time>2024-04-14T10:43:44Z</time>
      </trkpt>
      <trkpt lat="45.93876" lon="3.17869">
        <ele>326.2</ele>
        <time>2024-04-14T10:43:45Z</time>
      </trkpt>
      <trkpt lat="45.93881" lon="3.17877">
        <ele>326.4</ele>
        <time>2024-04-14T10:43:46Z</time>
      </trkpt>
      <trkpt lat="45.93885" lon="3.17885">
        <ele>326.6</ele>
        <time>2024-04-14T10:43:47Z</time>
      </trkpt>
      <trkpt lat="45.93889" lon="3.17893">
        <ele>326.8</ele>
        <time>2024-04-14T10:43:48Z</time>
      </trkpt>
      <trkpt lat="45.93894" lon="3.179">
        <ele>326.8</ele>
        <time>2024-04-14T10:43:49Z</time>
      </trkpt>
      <trkpt lat="45.93898" lon="3.17908">
        <ele>326.8</ele>
        <time>2024-04-14T10:43:50Z</time>
      </trkpt>
      <trkpt lat="45.93903" lon="3.17916">
        <ele>326.8</ele>
        <time>2024-04-14T10:43:51Z</time>
      </trkpt>
      <trkpt lat="45.93907" lon="3.17924">
        <ele>326.4</ele>
        <time>2024-04-14T10:43:52Z</time>
      </trkpt>
      <trkpt lat="45.93911" lon="3.17931">
        <ele>326.4</ele>
        <time>2024-04-14T10:43:53Z</time>
      </trkpt>
      <trkpt lat="45.93916" lon="3.17939">
        <ele>326.4</ele>
        <time>2024-04-14T10:43:54Z</time>
      </trkpt>
      <trkpt lat="45.9392" lon="3.17947">
        <ele>326.4</ele>
        <time>2024-04-14T10:43:55Z</time>
      </trkpt>
      <trkpt lat="45.93925" lon="3.17955">
        <ele>326.2</ele>
        <time>2024-04-14T10:43:56Z</time>
      </trkpt>
      <trkpt lat="45.93929" lon="3.17962">
        <ele>326.2</ele>
        <time>2024-04-14T10:43:57Z</time>
      </trkpt>
      <trkpt lat="45.93934" lon="3.1797">
        <ele>326.2</ele>
        <time>2024-04-14T10:43:58Z</time>
      </trkpt>
      <trkpt lat="45.93938" lon="3.17978">
        <ele>326.4</ele>
        <time>2024-04-14T10:43:59Z</time>
      </trkpt>
      <trkpt lat="45.93943" lon="3.17986">
        <ele>326.4</ele>
        <time>2024-04-14T10:44:00Z</time>
      </trkpt>
      <trkpt lat="45.93947" lon="3.17993">
        <ele>326.6</ele>
        <time>2024-04-14T10:44:01Z</time>
      </trkpt>
      <trkpt lat="45.93951" lon="3.18001">
        <ele>326.6</ele>
        <time>2024-04-14T10:44:02Z</time>
      </trkpt>
      <trkpt lat="45.93956" lon="3.18008">
        <ele>326.6</ele>
        <time>2024-04-14T10:44:03Z</time>
      </trkpt>
      <trkpt lat="45.9396" lon="3.18015">
        <ele>326.6</ele>
        <time>2024-04-14T10:44:04Z</time>
      </trkpt>
      <trkpt lat="45.93964" lon="3.18022">
        <ele>326.6</ele>
        <time>2024-04-14T10:44:05Z</time>
      </trkpt>
      <trkpt lat="45.93968" lon="3.18029">
        <ele>326.6</ele>
        <time>2024-04-14T10:44:06Z</time>
      </trkpt>
      <trkpt lat="45.93972" lon="3.18036">
        <ele>326.6</ele>
        <time>2024-04-14T10:44:07Z</time>
      </trkpt>
      <trkpt lat="45.93976" lon="3.18043">
        <ele>326.6</ele>
        <time>2024-04-14T10:44:08Z</time>
      </trkpt>
      <trkpt lat="45.9398" lon="3.18049">
        <ele>326.6</ele>
        <time>2024-04-14T10:44:09Z</time>
      </trkpt>
      <trkpt lat="45.93983" lon="3.18056">
        <ele>326.6</ele>
        <time>2024-04-14T10:44:10Z</time>
      </trkpt>
      <trkpt lat="45.93987" lon="3.18062">
        <ele>326.6</ele>
        <time>2024-04-14T10:44:11Z</time>
      </trkpt>
      <trkpt lat="45.93991" lon="3.18069">
        <ele>326.6</ele>
        <time>2024-04-14T10:44:12Z</time>
      </trkpt>
      <trkpt lat="45.93995" lon="3.18075">
        <ele>326.6</ele>
        <time>2024-04-14T10:44:13Z</time>
      </trkpt>
      <trkpt lat="45.93998" lon="3.18081">
        <ele>326.6</ele>
        <time>2024-04-14T10:44:14Z</time>
      </trkpt>
      <trkpt lat="45.94002" lon="3.18088">
        <ele>326.8</ele>
        <time>2024-04-14T10:44:15Z</time>
      </trkpt>
      <trkpt lat="45.94006" lon="3.18094">
        <ele>326.8</ele>
        <time>2024-04-14T10:44:16Z</time>
      </trkpt>
      <trkpt lat="45.94009" lon="3.181">
        <ele>326.8</ele>
        <time>2024-04-14T10:44:17Z</time>
      </trkpt>
      <trkpt lat="45.94013" lon="3.18106">
        <ele>326.8</ele>
        <time>2024-04-14T10:44:18Z</time>
      </trkpt>
      <trkpt lat="45.94017" lon="3.18113">
        <ele>326.8</ele>
        <time>2024-04-14T10:44:19Z</time>
      </trkpt>
      <trkpt lat="45.9402" lon="3.18119">
        <ele>326.8</ele>
        <time>2024-04-14T10:44:20Z</time>
      </trkpt>
      <trkpt lat="45.94024" lon="3.18125">
        <ele>326.8</ele>
        <time>2024-04-14T10:44:21Z</time>
      </trkpt>
      <trkpt lat="45.94028" lon="3.18132">
        <ele>326.8</ele>
        <time>2024-04-14T10:44:22Z</time>
      </trkpt>
      <trkpt lat="45.94031" lon="3.18138">
        <ele>326.8</ele>
        <time>2024-04-14T10:44:23Z</time>
      </trkpt>
      <trkpt lat="45.94035" lon="3.18145">
        <ele>326.8</ele>
        <time>2024-04-14T10:44:24Z</time>
      </trkpt>
      <trkpt lat="45.94039" lon="3.18151">
        <ele>326.8</ele>
        <time>2024-04-14T10:44:25Z</time>
      </trkpt>
      <trkpt lat="45.94042" lon="3.18157">
        <ele>327</ele>
        <time>2024-04-14T10:44:26Z</time>
      </trkpt>
      <trkpt lat="45.94046" lon="3.18163">
        <ele>326.8</ele>
        <time>2024-04-14T10:44:27Z</time>
      </trkpt>
      <trkpt lat="45.9405" lon="3.1817">
        <ele>327</ele>
        <time>2024-04-14T10:44:28Z</time>
      </trkpt>
      <trkpt lat="45.94053" lon="3.18176">
        <ele>327</ele>
        <time>2024-04-14T10:44:29Z</time>
      </trkpt>
      <trkpt lat="45.94057" lon="3.18183">
        <ele>327</ele>
        <time>2024-04-14T10:44:30Z</time>
      </trkpt>
      <trkpt lat="45.94061" lon="3.18189">
        <ele>327</ele>
        <time>2024-04-14T10:44:31Z</time>
      </trkpt>
      <trkpt lat="45.94064" lon="3.18196">
        <ele>327</ele>
        <time>2024-04-14T10:44:32Z</time>
      </trkpt>
      <trkpt lat="45.94068" lon="3.18202">
        <ele>327</ele>
        <time>2024-04-14T10:44:33Z</time>
      </trkpt>
      <trkpt lat="45.94071" lon="3.18209">
        <ele>327.2</ele>
        <time>2024-04-14T10:44:34Z</time>
      </trkpt>
      <trkpt lat="45.94075" lon="3.18215">
        <ele>327.2</ele>
        <time>2024-04-14T10:44:35Z</time>
      </trkpt>
      <trkpt lat="45.94078" lon="3.18221">
        <ele>327.2</ele>
        <time>2024-04-14T10:44:36Z</time>
      </trkpt>
      <trkpt lat="45.94082" lon="3.18227">
        <ele>327.2</ele>
        <time>2024-04-14T10:44:37Z</time>
      </trkpt>
      <trkpt lat="45.94085" lon="3.18233">
        <ele>327.4</ele>
        <time>2024-04-14T10:44:38Z</time>
      </trkpt>
      <trkpt lat="45.94088" lon="3.18239">
        <ele>327.4</ele>
        <time>2024-04-14T10:44:39Z</time>
      </trkpt>
      <trkpt lat="45.94092" lon="3.18245">
        <ele>327.4</ele>
        <time>2024-04-14T10:44:40Z</time>
      </trkpt>
      <trkpt lat="45.94095" lon="3.18251">
        <ele>327.4</ele>
        <time>2024-04-14T10:44:41Z</time>
      </trkpt>
      <trkpt lat="45.94099" lon="3.18257">
        <ele>327.4</ele>
        <time>2024-04-14T10:44:42Z</time>
      </trkpt>
      <trkpt lat="45.94102" lon="3.18264">
        <ele>327.6</ele>
        <time>2024-04-14T10:44:43Z</time>
      </trkpt>
      <trkpt lat="45.94106" lon="3.1827">
        <ele>327.6</ele>
        <time>2024-04-14T10:44:44Z</time>
      </trkpt>
      <trkpt lat="45.94109" lon="3.18276">
        <ele>327.6</ele>
        <time>2024-04-14T10:44:45Z</time>
      </trkpt>
      <trkpt lat="45.94113" lon="3.18282">
        <ele>327.6</ele>
        <time>2024-04-14T10:44:46Z</time>
      </trkpt>
      <trkpt lat="45.94117" lon="3.18288">
        <ele>327.6</ele>
        <time>2024-04-14T10:44:47Z</time>
      </trkpt>
      <trkpt lat="45.9412" lon="3.18294">
        <ele>327.8</ele>
        <time>2024-04-14T10:44:48Z</time>
      </trkpt>
      <trkpt lat="45.94123" lon="3.18301">
        <ele>327.8</ele>
        <time>2024-04-14T10:44:49Z</time>
      </trkpt>
      <trkpt lat="45.94127" lon="3.18306">
        <ele>327.8</ele>
        <time>2024-04-14T10:44:50Z</time>
      </trkpt>
      <trkpt lat="45.9413" lon="3.18312">
        <ele>327.8</ele>
        <time>2024-04-14T10:44:51Z</time>
      </trkpt>
      <trkpt lat="45.94133" lon="3.18318">
        <ele>327.8</ele>
        <time>2024-04-14T10:44:52Z</time>
      </trkpt>
      <trkpt lat="45.94137" lon="3.18324">
        <ele>328</ele>
        <time>2024-04-14T10:44:53Z</time>
      </trkpt>
      <trkpt lat="45.9414" lon="3.1833">
        <ele>328</ele>
        <time>2024-04-14T10:44:54Z</time>
      </trkpt>
      <trkpt lat="45.94144" lon="3.18336">
        <ele>328</ele>
        <time>2024-04-14T10:44:55Z</time>
      </trkpt>
      <trkpt lat="45.94147" lon="3.18342">
        <ele>328</ele>
        <time>2024-04-14T10:44:56Z</time>
      </trkpt>
      <trkpt lat="45.9415" lon="3.18348">
        <ele>328</ele>
        <time>2024-04-14T10:44:57Z</time>
      </trkpt>
      <trkpt lat="45.94154" lon="3.18354">
        <ele>328.2</ele>
        <time>2024-04-14T10:44:58Z</time>
      </trkpt>
      <trkpt lat="45.94157" lon="3.1836">
        <ele>328.2</ele>
        <time>2024-04-14T10:44:59Z</time>
      </trkpt>
      <trkpt lat="45.94161" lon="3.18367">
        <ele>328.2</ele>
        <time>2024-04-14T10:45:00Z</time>
      </trkpt>
      <trkpt lat="45.94164" lon="3.18373">
        <ele>328.4</ele>
        <time>2024-04-14T10:45:01Z</time>
      </trkpt>
      <trkpt lat="45.94168" lon="3.18379">
        <ele>328.4</ele>
        <time>2024-04-14T10:45:02Z</time>
      </trkpt>
      <trkpt lat="45.94172" lon="3.18386">
        <ele>328.4</ele>
        <time>2024-04-14T10:45:03Z</time>
      </trkpt>
      <trkpt lat="45.94175" lon="3.18392">
        <ele>328.4</ele>
        <time>2024-04-14T10:45:04Z</time>
      </trkpt>
      <trkpt lat="45.94179" lon="3.18399">
        <ele>328.4</ele>
        <time>2024-04-14T10:45:05Z</time>
      </trkpt>
      <trkpt lat="45.94182" lon="3.18405">
        <ele>328.6</ele>
        <time>2024-04-14T10:45:06Z</time>
      </trkpt>
      <trkpt lat="45.94186" lon="3.18411">
        <ele>328.6</ele>
        <time>2024-04-14T10:45:07Z</time>
      </trkpt>
      <trkpt lat="45.9419" lon="3.18418">
        <ele>328.6</ele>
        <time>2024-04-14T10:45:08Z</time>
      </trkpt>
      <trkpt lat="45.94193" lon="3.18424">
        <ele>328.8</ele>
        <time>2024-04-14T10:45:09Z</time>
      </trkpt>
      <trkpt lat="45.94197" lon="3.18431">
        <ele>328.8</ele>
        <time>2024-04-14T10:45:10Z</time>
      </trkpt>
      <trkpt lat="45.94201" lon="3.18438">
        <ele>328.8</ele>
        <time>2024-04-14T10:45:11Z</time>
      </trkpt>
      <trkpt lat="45.94202" lon="3.18447">
        <ele>328.8</ele>
        <time>2024-04-14T10:45:12Z</time>
      </trkpt>
      <trkpt lat="45.94203" lon="3.18456">
        <ele>329</ele>
        <time>2024-04-14T10:45:13Z</time>
      </trkpt>
      <trkpt lat="45.94202" lon="3.18464">
        <ele>329</ele>
        <time>2024-04-14T10:45:14Z</time>
      </trkpt>
      <trkpt lat="45.94201" lon="3.18472">
        <ele>329</ele>
        <time>2024-04-14T10:45:15Z</time>
      </trkpt>
      <trkpt lat="45.94199" lon="3.1848">
        <ele>329</ele>
        <time>2024-04-14T10:45:16Z</time>
      </trkpt>
      <trkpt lat="45.94198" lon="3.18488">
        <ele>329.2</ele>
        <time>2024-04-14T10:45:17Z</time>
      </trkpt>
      <trkpt lat="45.94197" lon="3.18496">
        <ele>329.2</ele>
        <time>2024-04-14T10:45:18Z</time>
      </trkpt>
      <trkpt lat="45.94195" lon="3.18505">
        <ele>329.2</ele>
        <time>2024-04-14T10:45:19Z</time>
      </trkpt>
      <trkpt lat="45.94194" lon="3.18513">
        <ele>329.2</ele>
        <time>2024-04-14T10:45:20Z</time>
      </trkpt>
      <trkpt lat="45.94193" lon="3.18521">
        <ele>329.2</ele>
        <time>2024-04-14T10:45:21Z</time>
      </trkpt>
      <trkpt lat="45.94191" lon="3.1853">
        <ele>329.4</ele>
        <time>2024-04-14T10:45:22Z</time>
      </trkpt>
      <trkpt lat="45.9419" lon="3.18538">
        <ele>329.4</ele>
        <time>2024-04-14T10:45:23Z</time>
      </trkpt>
      <trkpt lat="45.94188" lon="3.18547">
        <ele>329.4</ele>
        <time>2024-04-14T10:45:24Z</time>
      </trkpt>
      <trkpt lat="45.94187" lon="3.18555">
        <ele>329.4</ele>
        <time>2024-04-14T10:45:25Z</time>
      </trkpt>
      <trkpt lat="45.94186" lon="3.18564">
        <ele>329.6</ele>
        <time>2024-04-14T10:45:26Z</time>
      </trkpt>
      <trkpt lat="45.94184" lon="3.18572">
        <ele>329.4</ele>
        <time>2024-04-14T10:45:27Z</time>
      </trkpt>
      <trkpt lat="45.94183" lon="3.18581">
        <ele>329.6</ele>
        <time>2024-04-14T10:45:28Z</time>
      </trkpt>
      <trkpt lat="45.94181" lon="3.18589">
        <ele>329.6</ele>
        <time>2024-04-14T10:45:29Z</time>
      </trkpt>
      <trkpt lat="45.9418" lon="3.18598">
        <ele>329.6</ele>
        <time>2024-04-14T10:45:30Z</time>
      </trkpt>
      <trkpt lat="45.94179" lon="3.18606">
        <ele>329.6</ele>
        <time>2024-04-14T10:45:31Z</time>
      </trkpt>
      <trkpt lat="45.94178" lon="3.18615">
        <ele>329.6</ele>
        <time>2024-04-14T10:45:32Z</time>
      </trkpt>
      <trkpt lat="45.94179" lon="3.18623">
        <ele>329.6</ele>
        <time>2024-04-14T10:45:33Z</time>
      </trkpt>
      <trkpt lat="45.94176" lon="3.18634">
        <ele>329.6</ele>
        <time>2024-04-14T10:45:34Z</time>
      </trkpt>
      <trkpt lat="45.94171" lon="3.1864">
        <ele>329.6</ele>
        <time>2024-04-14T10:45:35Z</time>
      </trkpt>
      <trkpt lat="45.94168" lon="3.18646">
        <ele>329.6</ele>
        <time>2024-04-14T10:45:36Z</time>
      </trkpt>
      <trkpt lat="45.94166" lon="3.18655">
        <ele>329.6</ele>
        <time>2024-04-14T10:45:37Z</time>
      </trkpt>
      <trkpt lat="45.94165" lon="3.18664">
        <ele>329.6</ele>
        <time>2024-04-14T10:45:38Z</time>
      </trkpt>
      <trkpt lat="45.94163" lon="3.18672">
        <ele>329.6</ele>
        <time>2024-04-14T10:45:39Z</time>
      </trkpt>
      <trkpt lat="45.94161" lon="3.18681">
        <ele>329.6</ele>
        <time>2024-04-14T10:45:40Z</time>
      </trkpt>
      <trkpt lat="45.94159" lon="3.18691">
        <ele>329.6</ele>
        <time>2024-04-14T10:45:41Z</time>
      </trkpt>
      <trkpt lat="45.94157" lon="3.187">
        <ele>329.6</ele>
        <time>2024-04-14T10:45:42Z</time>
      </trkpt>
      <trkpt lat="45.94155" lon="3.1871">
        <ele>329.6</ele>
        <time>2024-04-14T10:45:43Z</time>
      </trkpt>
      <trkpt lat="45.94153" lon="3.1872">
        <ele>329.6</ele>
        <time>2024-04-14T10:45:44Z</time>
      </trkpt>
      <trkpt lat="45.9415" lon="3.1873">
        <ele>329.8</ele>
        <time>2024-04-14T10:45:45Z</time>
      </trkpt>
      <trkpt lat="45.94148" lon="3.1874">
        <ele>329.6</ele>
        <time>2024-04-14T10:45:46Z</time>
      </trkpt>
      <trkpt lat="45.94146" lon="3.1875">
        <ele>329.6</ele>
        <time>2024-04-14T10:45:47Z</time>
      </trkpt>
      <trkpt lat="45.94144" lon="3.18761">
        <ele>329.6</ele>
        <time>2024-04-14T10:45:48Z</time>
      </trkpt>
      <trkpt lat="45.94142" lon="3.18771">
        <ele>329.4</ele>
        <time>2024-04-14T10:45:49Z</time>
      </trkpt>
      <trkpt lat="45.9414" lon="3.18781">
        <ele>329.4</ele>
        <time>2024-04-14T10:45:50Z</time>
      </trkpt>
      <trkpt lat="45.94139" lon="3.18791">
        <ele>329.2</ele>
        <time>2024-04-14T10:45:51Z</time>
      </trkpt>
      <trkpt lat="45.94137" lon="3.18801">
        <ele>329.2</ele>
        <time>2024-04-14T10:45:52Z</time>
      </trkpt>
      <trkpt lat="45.94135" lon="3.18811">
        <ele>329.2</ele>
        <time>2024-04-14T10:45:53Z</time>
      </trkpt>
      <trkpt lat="45.94133" lon="3.18821">
        <ele>329</ele>
        <time>2024-04-14T10:45:54Z</time>
      </trkpt>
      <trkpt lat="45.94132" lon="3.18831">
        <ele>329.2</ele>
        <time>2024-04-14T10:45:55Z</time>
      </trkpt>
      <trkpt lat="45.94131" lon="3.1884">
        <ele>329</ele>
        <time>2024-04-14T10:45:56Z</time>
      </trkpt>
      <trkpt lat="45.94129" lon="3.1885">
        <ele>329.2</ele>
        <time>2024-04-14T10:45:57Z</time>
      </trkpt>
      <trkpt lat="45.94128" lon="3.1886">
        <ele>329</ele>
        <time>2024-04-14T10:45:58Z</time>
      </trkpt>
      <trkpt lat="45.94127" lon="3.18869">
        <ele>329</ele>
        <time>2024-04-14T10:45:59Z</time>
      </trkpt>
      <trkpt lat="45.94126" lon="3.18879">
        <ele>328.8</ele>
        <time>2024-04-14T10:46:00Z</time>
      </trkpt>
      <trkpt lat="45.94125" lon="3.18889">
        <ele>328.8</ele>
        <time>2024-04-14T10:46:01Z</time>
      </trkpt>
      <trkpt lat="45.94123" lon="3.18899">
        <ele>328.8</ele>
        <time>2024-04-14T10:46:02Z</time>
      </trkpt>
      <trkpt lat="45.94122" lon="3.18908">
        <ele>328.6</ele>
        <time>2024-04-14T10:46:03Z</time>
      </trkpt>
      <trkpt lat="45.94112" lon="3.18915">
        <ele>328.6</ele>
        <time>2024-04-14T10:46:04Z</time>
      </trkpt>
      <trkpt lat="45.94106" lon="3.18922">
        <ele>328.6</ele>
        <time>2024-04-14T10:46:05Z</time>
      </trkpt>
      <trkpt lat="45.94101" lon="3.1893">
        <ele>328.4</ele>
        <time>2024-04-14T10:46:06Z</time>
      </trkpt>
      <trkpt lat="45.94095" lon="3.18938">
        <ele>328.4</ele>
        <time>2024-04-14T10:46:07Z</time>
      </trkpt>
      <trkpt lat="45.94089" lon="3.18945">
        <ele>328.2</ele>
        <time>2024-04-14T10:46:08Z</time>
      </trkpt>
      <trkpt lat="45.94084" lon="3.18953">
        <ele>328.2</ele>
        <time>2024-04-14T10:46:09Z</time>
      </trkpt>
      <trkpt lat="45.94078" lon="3.18961">
        <ele>328</ele>
        <time>2024-04-14T10:46:10Z</time>
      </trkpt>
      <trkpt lat="45.9407" lon="3.18966">
        <ele>327.8</ele>
        <time>2024-04-14T10:46:11Z</time>
      </trkpt>
      <trkpt lat="45.94063" lon="3.18971">
        <ele>327.8</ele>
        <time>2024-04-14T10:46:12Z</time>
      </trkpt>
      <trkpt lat="45.94056" lon="3.18976">
        <ele>327.8</ele>
        <time>2024-04-14T10:46:13Z</time>
      </trkpt>
      <trkpt lat="45.94049" lon="3.18981">
        <ele>327.6</ele>
        <time>2024-04-14T10:46:14Z</time>
      </trkpt>
      <trkpt lat="45.94042" lon="3.18986">
        <ele>327.6</ele>
        <time>2024-04-14T10:46:15Z</time>
      </trkpt>
      <trkpt lat="45.94035" lon="3.1899">
        <ele>327.4</ele>
        <time>2024-04-14T10:46:16Z</time>
      </trkpt>
      <trkpt lat="45.94028" lon="3.18995">
        <ele>327.4</ele>
        <time>2024-04-14T10:46:17Z</time>
      </trkpt>
      <trkpt lat="45.94021" lon="3.19">
        <ele>327.2</ele>
        <time>2024-04-14T10:46:18Z</time>
      </trkpt>
      <trkpt lat="45.94014" lon="3.19005">
        <ele>327.2</ele>
        <time>2024-04-14T10:46:19Z</time>
      </trkpt>
      <trkpt lat="45.94007" lon="3.19009">
        <ele>327</ele>
        <time>2024-04-14T10:46:20Z</time>
      </trkpt>
      <trkpt lat="45.94001" lon="3.19014">
        <ele>327</ele>
        <time>2024-04-14T10:46:21Z</time>
      </trkpt>
      <trkpt lat="45.93994" lon="3.19019">
        <ele>327</ele>
        <time>2024-04-14T10:46:22Z</time>
      </trkpt>
      <trkpt lat="45.93987" lon="3.19023">
        <ele>326.8</ele>
        <time>2024-04-14T10:46:23Z</time>
      </trkpt>
      <trkpt lat="45.9398" lon="3.19027">
        <ele>326.8</ele>
        <time>2024-04-14T10:46:24Z</time>
      </trkpt>
      <trkpt lat="45.93973" lon="3.19031">
        <ele>326.8</ele>
        <time>2024-04-14T10:46:25Z</time>
      </trkpt>
      <trkpt lat="45.93966" lon="3.19035">
        <ele>326.6</ele>
        <time>2024-04-14T10:46:26Z</time>
      </trkpt>
      <trkpt lat="45.93959" lon="3.19038">
        <ele>326.6</ele>
        <time>2024-04-14T10:46:27Z</time>
      </trkpt>
      <trkpt lat="45.93952" lon="3.19042">
        <ele>326.6</ele>
        <time>2024-04-14T10:46:28Z</time>
      </trkpt>
      <trkpt lat="45.93946" lon="3.19046">
        <ele>326.6</ele>
        <time>2024-04-14T10:46:29Z</time>
      </trkpt>
      <trkpt lat="45.93939" lon="3.19049">
        <ele>326.4</ele>
        <time>2024-04-14T10:46:30Z</time>
      </trkpt>
      <trkpt lat="45.93933" lon="3.19053">
        <ele>326.4</ele>
        <time>2024-04-14T10:46:31Z</time>
      </trkpt>
      <trkpt lat="45.93926" lon="3.19056">
        <ele>326.4</ele>
        <time>2024-04-14T10:46:32Z</time>
      </trkpt>
      <trkpt lat="45.9392" lon="3.1906">
        <ele>326.4</ele>
        <time>2024-04-14T10:46:33Z</time>
      </trkpt>
      <trkpt lat="45.93914" lon="3.19063">
        <ele>326.4</ele>
        <time>2024-04-14T10:46:34Z</time>
      </trkpt>
      <trkpt lat="45.93907" lon="3.19067">
        <ele>326.4</ele>
        <time>2024-04-14T10:46:35Z</time>
      </trkpt>
      <trkpt lat="45.93901" lon="3.1907">
        <ele>326.4</ele>
        <time>2024-04-14T10:46:36Z</time>
      </trkpt>
      <trkpt lat="45.93895" lon="3.19072">
        <ele>326.4</ele>
        <time>2024-04-14T10:46:37Z</time>
      </trkpt>
      <trkpt lat="45.93889" lon="3.19073">
        <ele>326.4</ele>
        <time>2024-04-14T10:46:38Z</time>
      </trkpt>
      <trkpt lat="45.93883" lon="3.19075">
        <ele>326.4</ele>
        <time>2024-04-14T10:46:39Z</time>
      </trkpt>
      <trkpt lat="45.93876" lon="3.19076">
        <ele>326.4</ele>
        <time>2024-04-14T10:46:40Z</time>
      </trkpt>
      <trkpt lat="45.93871" lon="3.19077">
        <ele>326.4</ele>
        <time>2024-04-14T10:46:41Z</time>
      </trkpt>
      <trkpt lat="45.93865" lon="3.19078">
        <ele>326.4</ele>
        <time>2024-04-14T10:46:42Z</time>
      </trkpt>
      <trkpt lat="45.93859" lon="3.19079">
        <ele>326.4</ele>
        <time>2024-04-14T10:46:43Z</time>
      </trkpt>
      <trkpt lat="45.93854" lon="3.19081">
        <ele>326.4</ele>
        <time>2024-04-14T10:46:44Z</time>
      </trkpt>
      <trkpt lat="45.93848" lon="3.19082">
        <ele>326.6</ele>
        <time>2024-04-14T10:46:45Z</time>
      </trkpt>
      <trkpt lat="45.93843" lon="3.19083">
        <ele>326.6</ele>
        <time>2024-04-14T10:46:46Z</time>
      </trkpt>
      <trkpt lat="45.93838" lon="3.19084">
        <ele>326.2</ele>
        <time>2024-04-14T10:46:47Z</time>
      </trkpt>
      <trkpt lat="45.93832" lon="3.19084">
        <ele>326.4</ele>
        <time>2024-04-14T10:46:48Z</time>
      </trkpt>
      <trkpt lat="45.93827" lon="3.19083">
        <ele>326.6</ele>
        <time>2024-04-14T10:46:49Z</time>
      </trkpt>
      <trkpt lat="45.93821" lon="3.19083">
        <ele>327</ele>
        <time>2024-04-14T10:46:50Z</time>
      </trkpt>
      <trkpt lat="45.93816" lon="3.19083">
        <ele>326.8</ele>
        <time>2024-04-14T10:46:51Z</time>
      </trkpt>
      <trkpt lat="45.9381" lon="3.19082">
        <ele>327</ele>
        <time>2024-04-14T10:46:52Z</time>
      </trkpt>
      <trkpt lat="45.93805" lon="3.19082">
        <ele>327</ele>
        <time>2024-04-14T10:46:53Z</time>
      </trkpt>
      <trkpt lat="45.938" lon="3.19081">
        <ele>327</ele>
        <time>2024-04-14T10:46:54Z</time>
      </trkpt>
      <trkpt lat="45.93794" lon="3.19081">
        <ele>327.2</ele>
        <time>2024-04-14T10:46:55Z</time>
      </trkpt>
      <trkpt lat="45.93789" lon="3.19081">
        <ele>327.2</ele>
        <time>2024-04-14T10:46:56Z</time>
      </trkpt>
      <trkpt lat="45.93784" lon="3.1908">
        <ele>327.2</ele>
        <time>2024-04-14T10:46:57Z</time>
      </trkpt>
      <trkpt lat="45.93779" lon="3.1908">
        <ele>327.4</ele>
        <time>2024-04-14T10:46:58Z</time>
      </trkpt>
      <trkpt lat="45.93774" lon="3.19081">
        <ele>327.4</ele>
        <time>2024-04-14T10:46:59Z</time>
      </trkpt>
      <trkpt lat="45.93768" lon="3.19082">
        <ele>327.4</ele>
        <time>2024-04-14T10:47:00Z</time>
      </trkpt>
      <trkpt lat="45.93763" lon="3.19083">
        <ele>327.4</ele>
        <time>2024-04-14T10:47:01Z</time>
      </trkpt>
      <trkpt lat="45.93758" lon="3.19084">
        <ele>327.6</ele>
        <time>2024-04-14T10:47:02Z</time>
      </trkpt>
      <trkpt lat="45.93753" lon="3.19086">
        <ele>327.6</ele>
        <time>2024-04-14T10:47:03Z</time>
      </trkpt>
      <trkpt lat="45.93747" lon="3.19087">
        <ele>327.6</ele>
        <time>2024-04-14T10:47:04Z</time>
      </trkpt>
      <trkpt lat="45.93742" lon="3.19087">
        <ele>327.6</ele>
        <time>2024-04-14T10:47:05Z</time>
      </trkpt>
      <trkpt lat="45.93737" lon="3.19088">
        <ele>327.6</ele>
        <time>2024-04-14T10:47:06Z</time>
      </trkpt>
      <trkpt lat="45.93732" lon="3.19089">
        <ele>327.6</ele>
        <time>2024-04-14T10:47:07Z</time>
      </trkpt>
      <trkpt lat="45.93726" lon="3.1909">
        <ele>327.8</ele>
        <time>2024-04-14T10:47:08Z</time>
      </trkpt>
      <trkpt lat="45.93721" lon="3.19091">
        <ele>327.8</ele>
        <time>2024-04-14T10:47:09Z</time>
      </trkpt>
      <trkpt lat="45.93716" lon="3.19091">
        <ele>328</ele>
        <time>2024-04-14T10:47:10Z</time>
      </trkpt>
      <trkpt lat="45.93711" lon="3.19092">
        <ele>328</ele>
        <time>2024-04-14T10:47:11Z</time>
      </trkpt>
      <trkpt lat="45.93706" lon="3.19093">
        <ele>328</ele>
        <time>2024-04-14T10:47:12Z</time>
      </trkpt>
      <trkpt lat="45.93701" lon="3.19094">
        <ele>328.2</ele>
        <time>2024-04-14T10:47:13Z</time>
      </trkpt>
      <trkpt lat="45.93696" lon="3.19095">
        <ele>328.2</ele>
        <time>2024-04-14T10:47:14Z</time>
      </trkpt>
      <trkpt lat="45.93691" lon="3.19095">
        <ele>328.2</ele>
        <time>2024-04-14T10:47:15Z</time>
      </trkpt>
      <trkpt lat="45.93686" lon="3.19096">
        <ele>328.2</ele>
        <time>2024-04-14T10:47:16Z</time>
      </trkpt>
      <trkpt lat="45.93681" lon="3.19097">
        <ele>328.4</ele>
        <time>2024-04-14T10:47:17Z</time>
      </trkpt>
      <trkpt lat="45.93676" lon="3.19098">
        <ele>328.4</ele>
        <time>2024-04-14T10:47:18Z</time>
      </trkpt>
      <trkpt lat="45.9367" lon="3.19099">
        <ele>328.4</ele>
        <time>2024-04-14T10:47:19Z</time>
      </trkpt>
      <trkpt lat="45.93665" lon="3.19099">
        <ele>328.6</ele>
        <time>2024-04-14T10:47:20Z</time>
      </trkpt>
      <trkpt lat="45.9366" lon="3.191">
        <ele>328.6</ele>
        <time>2024-04-14T10:47:21Z</time>
      </trkpt>
      <trkpt lat="45.93655" lon="3.19101">
        <ele>328.6</ele>
        <time>2024-04-14T10:47:22Z</time>
      </trkpt>
      <trkpt lat="45.9365" lon="3.19102">
        <ele>328.8</ele>
        <time>2024-04-14T10:47:23Z</time>
      </trkpt>
      <trkpt lat="45.93645" lon="3.19103">
        <ele>328.8</ele>
        <time>2024-04-14T10:47:24Z</time>
      </trkpt>
      <trkpt lat="45.93639" lon="3.19104">
        <ele>328.8</ele>
        <time>2024-04-14T10:47:25Z</time>
      </trkpt>
      <trkpt lat="45.93634" lon="3.19104">
        <ele>329</ele>
        <time>2024-04-14T10:47:26Z</time>
      </trkpt>
      <trkpt lat="45.93629" lon="3.19105">
        <ele>329</ele>
        <time>2024-04-14T10:47:27Z</time>
      </trkpt>
      <trkpt lat="45.93624" lon="3.19106">
        <ele>329.2</ele>
        <time>2024-04-14T10:47:28Z</time>
      </trkpt>
      <trkpt lat="45.93619" lon="3.19107">
        <ele>329.2</ele>
        <time>2024-04-14T10:47:29Z</time>
      </trkpt>
      <trkpt lat="45.93614" lon="3.19108">
        <ele>329.2</ele>
        <time>2024-04-14T10:47:30Z</time>
      </trkpt>
      <trkpt lat="45.93608" lon="3.19108">
        <ele>329.4</ele>
        <time>2024-04-14T10:47:31Z</time>
      </trkpt>
      <trkpt lat="45.93603" lon="3.19109">
        <ele>329.4</ele>
        <time>2024-04-14T10:47:32Z</time>
      </trkpt>
      <trkpt lat="45.93598" lon="3.1911">
        <ele>329.4</ele>
        <time>2024-04-14T10:47:33Z</time>
      </trkpt>
      <trkpt lat="45.93592" lon="3.19111">
        <ele>329.6</ele>
        <time>2024-04-14T10:47:34Z</time>
      </trkpt>
      <trkpt lat="45.93586" lon="3.19112">
        <ele>329.6</ele>
        <time>2024-04-14T10:47:35Z</time>
      </trkpt>
      <trkpt lat="45.93581" lon="3.19113">
        <ele>329.6</ele>
        <time>2024-04-14T10:47:36Z</time>
      </trkpt>
      <trkpt lat="45.93575" lon="3.19114">
        <ele>329.6</ele>
        <time>2024-04-14T10:47:37Z</time>
      </trkpt>
      <trkpt lat="45.9357" lon="3.19115">
        <ele>329.8</ele>
        <time>2024-04-14T10:47:38Z</time>
      </trkpt>
      <trkpt lat="45.93564" lon="3.19116">
        <ele>329.8</ele>
        <time>2024-04-14T10:47:39Z</time>
      </trkpt>
      <trkpt lat="45.93558" lon="3.19117">
        <ele>329.8</ele>
        <time>2024-04-14T10:47:40Z</time>
      </trkpt>
      <trkpt lat="45.93552" lon="3.19118">
        <ele>329.8</ele>
        <time>2024-04-14T10:47:41Z</time>
      </trkpt>
      <trkpt lat="45.93547" lon="3.19119">
        <ele>329.8</ele>
        <time>2024-04-14T10:47:42Z</time>
      </trkpt>
      <trkpt lat="45.93541" lon="3.1912">
        <ele>330</ele>
        <time>2024-04-14T10:47:43Z</time>
      </trkpt>
      <trkpt lat="45.93535" lon="3.19121">
        <ele>330</ele>
        <time>2024-04-14T10:47:44Z</time>
      </trkpt>
      <trkpt lat="45.93529" lon="3.19122">
        <ele>330</ele>
        <time>2024-04-14T10:47:45Z</time>
      </trkpt>
      <trkpt lat="45.93523" lon="3.19123">
        <ele>330</ele>
        <time>2024-04-14T10:47:46Z</time>
      </trkpt>
      <trkpt lat="45.93517" lon="3.19124">
        <ele>330.2</ele>
        <time>2024-04-14T10:47:47Z</time>
      </trkpt>
      <trkpt lat="45.93511" lon="3.19125">
        <ele>330.2</ele>
        <time>2024-04-14T10:47:48Z</time>
      </trkpt>
      <trkpt lat="45.93505" lon="3.19127">
        <ele>330.2</ele>
        <time>2024-04-14T10:47:49Z</time>
      </trkpt>
      <trkpt lat="45.93499" lon="3.19128">
        <ele>330.2</ele>
        <time>2024-04-14T10:47:50Z</time>
      </trkpt>
      <trkpt lat="45.93493" lon="3.19129">
        <ele>330.2</ele>
        <time>2024-04-14T10:47:51Z</time>
      </trkpt>
      <trkpt lat="45.93486" lon="3.1913">
        <ele>330.2</ele>
        <time>2024-04-14T10:47:52Z</time>
      </trkpt>
      <trkpt lat="45.9348" lon="3.19131">
        <ele>330.4</ele>
        <time>2024-04-14T10:47:53Z</time>
      </trkpt>
      <trkpt lat="45.93474" lon="3.19132">
        <ele>330.4</ele>
        <time>2024-04-14T10:47:54Z</time>
      </trkpt>
      <trkpt lat="45.93468" lon="3.19133">
        <ele>330.4</ele>
        <time>2024-04-14T10:47:55Z</time>
      </trkpt>
      <trkpt lat="45.93462" lon="3.19134">
        <ele>330.4</ele>
        <time>2024-04-14T10:47:56Z</time>
      </trkpt>
      <trkpt lat="45.93455" lon="3.19135">
        <ele>330.6</ele>
        <time>2024-04-14T10:47:57Z</time>
      </trkpt>
      <trkpt lat="45.93449" lon="3.19137">
        <ele>330.6</ele>
        <time>2024-04-14T10:47:58Z</time>
      </trkpt>
      <trkpt lat="45.93443" lon="3.19138">
        <ele>330.6</ele>
        <time>2024-04-14T10:47:59Z</time>
      </trkpt>
      <trkpt lat="45.93436" lon="3.19139">
        <ele>330.6</ele>
        <time>2024-04-14T10:48:00Z</time>
      </trkpt>
      <trkpt lat="45.9343" lon="3.1914">
        <ele>330.6</ele>
        <time>2024-04-14T10:48:01Z</time>
      </trkpt>
      <trkpt lat="45.93423" lon="3.19141">
        <ele>330.6</ele>
        <time>2024-04-14T10:48:02Z</time>
      </trkpt>
      <trkpt lat="45.93417" lon="3.19142">
        <ele>330.8</ele>
        <time>2024-04-14T10:48:03Z</time>
      </trkpt>
      <trkpt lat="45.93411" lon="3.19143">
        <ele>330.8</ele>
        <time>2024-04-14T10:48:04Z</time>
      </trkpt>
      <trkpt lat="45.93404" lon="3.19145">
        <ele>330.8</ele>
        <time>2024-04-14T10:48:05Z</time>
      </trkpt>
      <trkpt lat="45.93398" lon="3.19146">
        <ele>330.8</ele>
        <time>2024-04-14T10:48:06Z</time>
      </trkpt>
      <trkpt lat="45.93392" lon="3.19146">
        <ele>330.8</ele>
        <time>2024-04-14T10:48:07Z</time>
      </trkpt>
      <trkpt lat="45.93385" lon="3.19147">
        <ele>331</ele>
        <time>2024-04-14T10:48:08Z</time>
      </trkpt>
      <trkpt lat="45.93379" lon="3.19147">
        <ele>331</ele>
        <time>2024-04-14T10:48:09Z</time>
      </trkpt>
      <trkpt lat="45.93372" lon="3.19147">
        <ele>331</ele>
        <time>2024-04-14T10:48:10Z</time>
      </trkpt>
      <trkpt lat="45.93366" lon="3.19147">
        <ele>331</ele>
        <time>2024-04-14T10:48:11Z</time>
      </trkpt>
      <trkpt lat="45.9336" lon="3.19147">
        <ele>331</ele>
        <time>2024-04-14T10:48:12Z</time>
      </trkpt>
      <trkpt lat="45.93353" lon="3.19147">
        <ele>331.2</ele>
        <time>2024-04-14T10:48:13Z</time>
      </trkpt>
      <trkpt lat="45.93347" lon="3.19148">
        <ele>331.2</ele>
        <time>2024-04-14T10:48:14Z</time>
      </trkpt>
      <trkpt lat="45.93341" lon="3.19148">
        <ele>331.2</ele>
        <time>2024-04-14T10:48:15Z</time>
      </trkpt>
      <trkpt lat="45.93335" lon="3.19148">
        <ele>331.2</ele>
        <time>2024-04-14T10:48:16Z</time>
      </trkpt>
      <trkpt lat="45.93329" lon="3.19148">
        <ele>331.2</ele>
        <time>2024-04-14T10:48:17Z</time>
      </trkpt>
      <trkpt lat="45.93323" lon="3.19148">
        <ele>331.2</ele>
        <time>2024-04-14T10:48:18Z</time>
      </trkpt>
      <trkpt lat="45.93316" lon="3.19148">
        <ele>331.2</ele>
        <time>2024-04-14T10:48:19Z</time>
      </trkpt>
      <trkpt lat="45.9331" lon="3.1915">
        <ele>331.2</ele>
        <time>2024-04-14T10:48:20Z</time>
      </trkpt>
      <trkpt lat="45.93304" lon="3.19152">
        <ele>331.2</ele>
        <time>2024-04-14T10:48:21Z</time>
      </trkpt>
      <trkpt lat="45.93298" lon="3.19154">
        <ele>331.4</ele>
        <time>2024-04-14T10:48:22Z</time>
      </trkpt>
      <trkpt lat="45.93292" lon="3.19156">
        <ele>331.4</ele>
        <time>2024-04-14T10:48:23Z</time>
      </trkpt>
      <trkpt lat="45.93285" lon="3.19158">
        <ele>331.4</ele>
        <time>2024-04-14T10:48:24Z</time>
      </trkpt>
      <trkpt lat="45.93279" lon="3.1916">
        <ele>331.4</ele>
        <time>2024-04-14T10:48:25Z</time>
      </trkpt>
      <trkpt lat="45.93273" lon="3.19163">
        <ele>331.4</ele>
        <time>2024-04-14T10:48:26Z</time>
      </trkpt>
      <trkpt lat="45.93266" lon="3.19165">
        <ele>331.4</ele>
        <time>2024-04-14T10:48:27Z</time>
      </trkpt>
      <trkpt lat="45.9326" lon="3.19167">
        <ele>331.4</ele>
        <time>2024-04-14T10:48:28Z</time>
      </trkpt>
      <trkpt lat="45.93254" lon="3.19169">
        <ele>331.4</ele>
        <time>2024-04-14T10:48:29Z</time>
      </trkpt>
      <trkpt lat="45.93248" lon="3.19171">
        <ele>331.4</ele>
        <time>2024-04-14T10:48:30Z</time>
      </trkpt>
      <trkpt lat="45.93241" lon="3.19174">
        <ele>331.4</ele>
        <time>2024-04-14T10:48:31Z</time>
      </trkpt>
      <trkpt lat="45.93235" lon="3.19176">
        <ele>331.6</ele>
        <time>2024-04-14T10:48:32Z</time>
      </trkpt>
      <trkpt lat="45.93229" lon="3.19178">
        <ele>331.6</ele>
        <time>2024-04-14T10:48:33Z</time>
      </trkpt>
      <trkpt lat="45.93222" lon="3.1918">
        <ele>331.6</ele>
        <time>2024-04-14T10:48:34Z</time>
      </trkpt>
      <trkpt lat="45.93216" lon="3.19185">
        <ele>331.6</ele>
        <time>2024-04-14T10:48:35Z</time>
      </trkpt>
      <trkpt lat="45.93211" lon="3.19189">
        <ele>331.6</ele>
        <time>2024-04-14T10:48:36Z</time>
      </trkpt>
      <trkpt lat="45.93205" lon="3.19194">
        <ele>331.6</ele>
        <time>2024-04-14T10:48:37Z</time>
      </trkpt>
      <trkpt lat="45.93199" lon="3.19199">
        <ele>331.6</ele>
        <time>2024-04-14T10:48:38Z</time>
      </trkpt>
      <trkpt lat="45.93193" lon="3.19203">
        <ele>331.6</ele>
        <time>2024-04-14T10:48:39Z</time>
      </trkpt>
      <trkpt lat="45.93188" lon="3.19208">
        <ele>331.8</ele>
        <time>2024-04-14T10:48:40Z</time>
      </trkpt>
      <trkpt lat="45.93182" lon="3.19213">
        <ele>331.8</ele>
        <time>2024-04-14T10:48:41Z</time>
      </trkpt>
      <trkpt lat="45.93176" lon="3.19217">
        <ele>331.8</ele>
        <time>2024-04-14T10:48:42Z</time>
      </trkpt>
      <trkpt lat="45.9317" lon="3.19221">
        <ele>331.8</ele>
        <time>2024-04-14T10:48:43Z</time>
      </trkpt>
      <trkpt lat="45.93164" lon="3.19225">
        <ele>331.8</ele>
        <time>2024-04-14T10:48:44Z</time>
      </trkpt>
      <trkpt lat="45.93157" lon="3.19229">
        <ele>331.8</ele>
        <time>2024-04-14T10:48:45Z</time>
      </trkpt>
      <trkpt lat="45.93151" lon="3.19233">
        <ele>331.8</ele>
        <time>2024-04-14T10:48:46Z</time>
      </trkpt>
      <trkpt lat="45.93145" lon="3.19237">
        <ele>331.8</ele>
        <time>2024-04-14T10:48:47Z</time>
      </trkpt>
      <trkpt lat="45.93139" lon="3.19242">
        <ele>331.8</ele>
        <time>2024-04-14T10:48:48Z</time>
      </trkpt>
      <trkpt lat="45.93133" lon="3.19245">
        <ele>331.8</ele>
        <time>2024-04-14T10:48:49Z</time>
      </trkpt>
      <trkpt lat="45.93127" lon="3.19248">
        <ele>331.8</ele>
        <time>2024-04-14T10:48:50Z</time>
      </trkpt>
      <trkpt lat="45.93121" lon="3.1925">
        <ele>331.8</ele>
        <time>2024-04-14T10:48:51Z</time>
      </trkpt>
      <trkpt lat="45.93115" lon="3.19253">
        <ele>331.8</ele>
        <time>2024-04-14T10:48:52Z</time>
      </trkpt>
      <trkpt lat="45.93109" lon="3.19256">
        <ele>331.8</ele>
        <time>2024-04-14T10:48:53Z</time>
      </trkpt>
      <trkpt lat="45.93103" lon="3.19259">
        <ele>332</ele>
        <time>2024-04-14T10:48:54Z</time>
      </trkpt>
      <trkpt lat="45.93097" lon="3.19262">
        <ele>332</ele>
        <time>2024-04-14T10:48:55Z</time>
      </trkpt>
      <trkpt lat="45.93091" lon="3.19264">
        <ele>332</ele>
        <time>2024-04-14T10:48:56Z</time>
      </trkpt>
      <trkpt lat="45.93085" lon="3.19267">
        <ele>332</ele>
        <time>2024-04-14T10:48:57Z</time>
      </trkpt>
      <trkpt lat="45.9308" lon="3.1927">
        <ele>332</ele>
        <time>2024-04-14T10:48:58Z</time>
      </trkpt>
      <trkpt lat="45.93074" lon="3.19272">
        <ele>332</ele>
        <time>2024-04-14T10:48:59Z</time>
      </trkpt>
      <trkpt lat="45.93069" lon="3.19275">
        <ele>332.2</ele>
        <time>2024-04-14T10:49:00Z</time>
      </trkpt>
      <trkpt lat="45.93063" lon="3.19278">
        <ele>332.2</ele>
        <time>2024-04-14T10:49:01Z</time>
      </trkpt>
      <trkpt lat="45.93058" lon="3.1928">
        <ele>332.2</ele>
        <time>2024-04-14T10:49:02Z</time>
      </trkpt>
      <trkpt lat="45.93052" lon="3.19283">
        <ele>332.2</ele>
        <time>2024-04-14T10:49:03Z</time>
      </trkpt>
      <trkpt lat="45.93047" lon="3.19285">
        <ele>332.2</ele>
        <time>2024-04-14T10:49:04Z</time>
      </trkpt>
      <trkpt lat="45.93041" lon="3.19288">
        <ele>332.2</ele>
        <time>2024-04-14T10:49:05Z</time>
      </trkpt>
      <trkpt lat="45.93036" lon="3.19291">
        <ele>332.4</ele>
        <time>2024-04-14T10:49:06Z</time>
      </trkpt>
      <trkpt lat="45.9303" lon="3.19293">
        <ele>332.4</ele>
        <time>2024-04-14T10:49:07Z</time>
      </trkpt>
      <trkpt lat="45.93024" lon="3.19296">
        <ele>332.4</ele>
        <time>2024-04-14T10:49:08Z</time>
      </trkpt>
      <trkpt lat="45.93019" lon="3.19298">
        <ele>332.4</ele>
        <time>2024-04-14T10:49:09Z</time>
      </trkpt>
      <trkpt lat="45.93013" lon="3.19301">
        <ele>332.4</ele>
        <time>2024-04-14T10:49:10Z</time>
      </trkpt>
      <trkpt lat="45.93008" lon="3.19304">
        <ele>332.6</ele>
        <time>2024-04-14T10:49:11Z</time>
      </trkpt>
      <trkpt lat="45.93002" lon="3.19306">
        <ele>332.6</ele>
        <time>2024-04-14T10:49:12Z</time>
      </trkpt>
      <trkpt lat="45.92996" lon="3.19309">
        <ele>332.6</ele>
        <time>2024-04-14T10:49:13Z</time>
      </trkpt>
      <trkpt lat="45.9299" lon="3.19312">
        <ele>332.6</ele>
        <time>2024-04-14T10:49:14Z</time>
      </trkpt>
      <trkpt lat="45.92985" lon="3.19314">
        <ele>332.6</ele>
        <time>2024-04-14T10:49:15Z</time>
      </trkpt>
      <trkpt lat="45.92979" lon="3.19317">
        <ele>332.8</ele>
        <time>2024-04-14T10:49:16Z</time>
      </trkpt>
      <trkpt lat="45.92973" lon="3.1932">
        <ele>332.8</ele>
        <time>2024-04-14T10:49:17Z</time>
      </trkpt>
      <trkpt lat="45.92968" lon="3.19322">
        <ele>332.8</ele>
        <time>2024-04-14T10:49:18Z</time>
      </trkpt>
      <trkpt lat="45.92962" lon="3.19325">
        <ele>332.8</ele>
        <time>2024-04-14T10:49:19Z</time>
      </trkpt>
      <trkpt lat="45.92957" lon="3.19327">
        <ele>332.8</ele>
        <time>2024-04-14T10:49:20Z</time>
      </trkpt>
      <trkpt lat="45.92951" lon="3.1933">
        <ele>332.8</ele>
        <time>2024-04-14T10:49:21Z</time>
      </trkpt>
      <trkpt lat="45.92946" lon="3.19333">
        <ele>332.8</ele>
        <time>2024-04-14T10:49:22Z</time>
      </trkpt>
      <trkpt lat="45.9294" lon="3.19335">
        <ele>333</ele>
        <time>2024-04-14T10:49:23Z</time>
      </trkpt>
      <trkpt lat="45.92934" lon="3.19338">
        <ele>333</ele>
        <time>2024-04-14T10:49:24Z</time>
      </trkpt>
      <trkpt lat="45.92929" lon="3.19341">
        <ele>333</ele>
        <time>2024-04-14T10:49:25Z</time>
      </trkpt>
      <trkpt lat="45.92923" lon="3.19343">
        <ele>333</ele>
        <time>2024-04-14T10:49:26Z</time>
      </trkpt>
      <trkpt lat="45.92917" lon="3.19346">
        <ele>333</ele>
        <time>2024-04-14T10:49:27Z</time>
      </trkpt>
      <trkpt lat="45.92912" lon="3.19349">
        <ele>333.2</ele>
        <time>2024-04-14T10:49:28Z</time>
      </trkpt>
      <trkpt lat="45.92906" lon="3.19351">
        <ele>333.2</ele>
        <time>2024-04-14T10:49:29Z</time>
      </trkpt>
      <trkpt lat="45.929" lon="3.19354">
        <ele>333.2</ele>
        <time>2024-04-14T10:49:30Z</time>
      </trkpt>
      <trkpt lat="45.92894" lon="3.19357">
        <ele>333.2</ele>
        <time>2024-04-14T10:49:31Z</time>
      </trkpt>
      <trkpt lat="45.92888" lon="3.1936">
        <ele>333.2</ele>
        <time>2024-04-14T10:49:32Z</time>
      </trkpt>
      <trkpt lat="45.92882" lon="3.19362">
        <ele>333.2</ele>
        <time>2024-04-14T10:49:33Z</time>
      </trkpt>
      <trkpt lat="45.92877" lon="3.19365">
        <ele>333.2</ele>
        <time>2024-04-14T10:49:34Z</time>
      </trkpt>
      <trkpt lat="45.92871" lon="3.19368">
        <ele>333.2</ele>
        <time>2024-04-14T10:49:35Z</time>
      </trkpt>
      <trkpt lat="45.92865" lon="3.1937">
        <ele>333.2</ele>
        <time>2024-04-14T10:49:36Z</time>
      </trkpt>
      <trkpt lat="45.92859" lon="3.19373">
        <ele>333.4</ele>
        <time>2024-04-14T10:49:37Z</time>
      </trkpt>
      <trkpt lat="45.92854" lon="3.19376">
        <ele>333.4</ele>
        <time>2024-04-14T10:49:38Z</time>
      </trkpt>
      <trkpt lat="45.92848" lon="3.19379">
        <ele>333.4</ele>
        <time>2024-04-14T10:49:39Z</time>
      </trkpt>
      <trkpt lat="45.92842" lon="3.19381">
        <ele>333.4</ele>
        <time>2024-04-14T10:49:40Z</time>
      </trkpt>
      <trkpt lat="45.92836" lon="3.19384">
        <ele>333.4</ele>
        <time>2024-04-14T10:49:41Z</time>
      </trkpt>
      <trkpt lat="45.9283" lon="3.19387">
        <ele>333.4</ele>
        <time>2024-04-14T10:49:42Z</time>
      </trkpt>
      <trkpt lat="45.92824" lon="3.1939">
        <ele>333.4</ele>
        <time>2024-04-14T10:49:43Z</time>
      </trkpt>
      <trkpt lat="45.92818" lon="3.19392">
        <ele>333.4</ele>
        <time>2024-04-14T10:49:44Z</time>
      </trkpt>
      <trkpt lat="45.92812" lon="3.19395">
        <ele>333.4</ele>
        <time>2024-04-14T10:49:45Z</time>
      </trkpt>
      <trkpt lat="45.92807" lon="3.19398">
        <ele>333.4</ele>
        <time>2024-04-14T10:49:46Z</time>
      </trkpt>
      <trkpt lat="45.92801" lon="3.19401">
        <ele>333.4</ele>
        <time>2024-04-14T10:49:47Z</time>
      </trkpt>
      <trkpt lat="45.92795" lon="3.19404">
        <ele>333.4</ele>
        <time>2024-04-14T10:49:48Z</time>
      </trkpt>
      <trkpt lat="45.92789" lon="3.19406">
        <ele>333.4</ele>
        <time>2024-04-14T10:49:49Z</time>
      </trkpt>
      <trkpt lat="45.92783" lon="3.19409">
        <ele>333.6</ele>
        <time>2024-04-14T10:49:50Z</time>
      </trkpt>
      <trkpt lat="45.92777" lon="3.19412">
        <ele>333.6</ele>
        <time>2024-04-14T10:49:51Z</time>
      </trkpt>
      <trkpt lat="45.92772" lon="3.19414">
        <ele>333.6</ele>
        <time>2024-04-14T10:49:52Z</time>
      </trkpt>
      <trkpt lat="45.92766" lon="3.19417">
        <ele>333.6</ele>
        <time>2024-04-14T10:49:53Z</time>
      </trkpt>
      <trkpt lat="45.9276" lon="3.1942">
        <ele>333.8</ele>
        <time>2024-04-14T10:49:54Z</time>
      </trkpt>
      <trkpt lat="45.92754" lon="3.19422">
        <ele>333.8</ele>
        <time>2024-04-14T10:49:55Z</time>
      </trkpt>
      <trkpt lat="45.92747" lon="3.19423">
        <ele>333.8</ele>
        <time>2024-04-14T10:49:56Z</time>
      </trkpt>
      <trkpt lat="45.92741" lon="3.19425">
        <ele>333.8</ele>
        <time>2024-04-14T10:49:57Z</time>
      </trkpt>
      <trkpt lat="45.92735" lon="3.19426">
        <ele>333.8</ele>
        <time>2024-04-14T10:49:58Z</time>
      </trkpt>
      <trkpt lat="45.92729" lon="3.19427">
        <ele>334</ele>
        <time>2024-04-14T10:49:59Z</time>
      </trkpt>
      <trkpt lat="45.92723" lon="3.19429">
        <ele>334</ele>
        <time>2024-04-14T10:50:00Z</time>
      </trkpt>
      <trkpt lat="45.92716" lon="3.1943">
        <ele>334</ele>
        <time>2024-04-14T10:50:01Z</time>
      </trkpt>
      <trkpt lat="45.9271" lon="3.19432">
        <ele>334.2</ele>
        <time>2024-04-14T10:50:02Z</time>
      </trkpt>
      <trkpt lat="45.92704" lon="3.19433">
        <ele>334.2</ele>
        <time>2024-04-14T10:50:03Z</time>
      </trkpt>
      <trkpt lat="45.92698" lon="3.19434">
        <ele>334.2</ele>
        <time>2024-04-14T10:50:04Z</time>
      </trkpt>
      <trkpt lat="45.92691" lon="3.19433">
        <ele>334.2</ele>
        <time>2024-04-14T10:50:05Z</time>
      </trkpt>
      <trkpt lat="45.92685" lon="3.19432">
        <ele>334.2</ele>
        <time>2024-04-14T10:50:06Z</time>
      </trkpt>
      <trkpt lat="45.92679" lon="3.19431">
        <ele>334.4</ele>
        <time>2024-04-14T10:50:07Z</time>
      </trkpt>
      <trkpt lat="45.92672" lon="3.1943">
        <ele>334.4</ele>
        <time>2024-04-14T10:50:08Z</time>
      </trkpt>
      <trkpt lat="45.92666" lon="3.19429">
        <ele>334.4</ele>
        <time>2024-04-14T10:50:09Z</time>
      </trkpt>
      <trkpt lat="45.92659" lon="3.19428">
        <ele>334.4</ele>
        <time>2024-04-14T10:50:10Z</time>
      </trkpt>
      <trkpt lat="45.92653" lon="3.19426">
        <ele>334.6</ele>
        <time>2024-04-14T10:50:11Z</time>
      </trkpt>
      <trkpt lat="45.92647" lon="3.19423">
        <ele>334.6</ele>
        <time>2024-04-14T10:50:12Z</time>
      </trkpt>
      <trkpt lat="45.9264" lon="3.1942">
        <ele>334.6</ele>
        <time>2024-04-14T10:50:13Z</time>
      </trkpt>
      <trkpt lat="45.92634" lon="3.19417">
        <ele>334.8</ele>
        <time>2024-04-14T10:50:14Z</time>
      </trkpt>
      <trkpt lat="45.92628" lon="3.19414">
        <ele>334.8</ele>
        <time>2024-04-14T10:50:15Z</time>
      </trkpt>
      <trkpt lat="45.92622" lon="3.19411">
        <ele>334.8</ele>
        <time>2024-04-14T10:50:16Z</time>
      </trkpt>
      <trkpt lat="45.92615" lon="3.19408">
        <ele>334.8</ele>
        <time>2024-04-14T10:50:17Z</time>
      </trkpt>
      <trkpt lat="45.92609" lon="3.19405">
        <ele>335</ele>
        <time>2024-04-14T10:50:18Z</time>
      </trkpt>
      <trkpt lat="45.92603" lon="3.19401">
        <ele>335</ele>
        <time>2024-04-14T10:50:19Z</time>
      </trkpt>
      <trkpt lat="45.92597" lon="3.19399">
        <ele>335</ele>
        <time>2024-04-14T10:50:20Z</time>
      </trkpt>
      <trkpt lat="45.92591" lon="3.19395">
        <ele>335</ele>
        <time>2024-04-14T10:50:21Z</time>
      </trkpt>
      <trkpt lat="45.92584" lon="3.19392">
        <ele>335</ele>
        <time>2024-04-14T10:50:22Z</time>
      </trkpt>
      <trkpt lat="45.92578" lon="3.19389">
        <ele>335</ele>
        <time>2024-04-14T10:50:23Z</time>
      </trkpt>
      <trkpt lat="45.92572" lon="3.19386">
        <ele>335</ele>
        <time>2024-04-14T10:50:24Z</time>
      </trkpt>
      <trkpt lat="45.92566" lon="3.19383">
        <ele>335.2</ele>
        <time>2024-04-14T10:50:25Z</time>
      </trkpt>
      <trkpt lat="45.92559" lon="3.1938">
        <ele>335.2</ele>
        <time>2024-04-14T10:50:26Z</time>
      </trkpt>
      <trkpt lat="45.92553" lon="3.19377">
        <ele>335.2</ele>
        <time>2024-04-14T10:50:27Z</time>
      </trkpt>
      <trkpt lat="45.92547" lon="3.19374">
        <ele>335.2</ele>
        <time>2024-04-14T10:50:28Z</time>
      </trkpt>
      <trkpt lat="45.92541" lon="3.19371">
        <ele>335.4</ele>
        <time>2024-04-14T10:50:29Z</time>
      </trkpt>
      <trkpt lat="45.92534" lon="3.19368">
        <ele>335.4</ele>
        <time>2024-04-14T10:50:30Z</time>
      </trkpt>
      <trkpt lat="45.92528" lon="3.19365">
        <ele>335.4</ele>
        <time>2024-04-14T10:50:31Z</time>
      </trkpt>
      <trkpt lat="45.92522" lon="3.19362">
        <ele>335.4</ele>
        <time>2024-04-14T10:50:32Z</time>
      </trkpt>
      <trkpt lat="45.92515" lon="3.19359">
        <ele>335.4</ele>
        <time>2024-04-14T10:50:33Z</time>
      </trkpt>
      <trkpt lat="45.92509" lon="3.19356">
        <ele>335.6</ele>
        <time>2024-04-14T10:50:34Z</time>
      </trkpt>
      <trkpt lat="45.92503" lon="3.19353">
        <ele>335.6</ele>
        <time>2024-04-14T10:50:35Z</time>
      </trkpt>
      <trkpt lat="45.92496" lon="3.19351">
        <ele>335.6</ele>
        <time>2024-04-14T10:50:36Z</time>
      </trkpt>
      <trkpt lat="45.92489" lon="3.1935">
        <ele>335.6</ele>
        <time>2024-04-14T10:50:37Z</time>
      </trkpt>
      <trkpt lat="45.92482" lon="3.19348">
        <ele>335.6</ele>
        <time>2024-04-14T10:50:38Z</time>
      </trkpt>
      <trkpt lat="45.92475" lon="3.19347">
        <ele>335.6</ele>
        <time>2024-04-14T10:50:39Z</time>
      </trkpt>
      <trkpt lat="45.92468" lon="3.19346">
        <ele>335.6</ele>
        <time>2024-04-14T10:50:40Z</time>
      </trkpt>
      <trkpt lat="45.92462" lon="3.19344">
        <ele>335.8</ele>
        <time>2024-04-14T10:50:41Z</time>
      </trkpt>
      <trkpt lat="45.92455" lon="3.19344">
        <ele>335.8</ele>
        <time>2024-04-14T10:50:42Z</time>
      </trkpt>
      <trkpt lat="45.92448" lon="3.19344">
        <ele>335.8</ele>
        <time>2024-04-14T10:50:43Z</time>
      </trkpt>
      <trkpt lat="45.92442" lon="3.19345">
        <ele>335.8</ele>
        <time>2024-04-14T10:50:44Z</time>
      </trkpt>
      <trkpt lat="45.92435" lon="3.19345">
        <ele>335.8</ele>
        <time>2024-04-14T10:50:45Z</time>
      </trkpt>
      <trkpt lat="45.92428" lon="3.19345">
        <ele>335.8</ele>
        <time>2024-04-14T10:50:46Z</time>
      </trkpt>
      <trkpt lat="45.92421" lon="3.19346">
        <ele>336</ele>
        <time>2024-04-14T10:50:47Z</time>
      </trkpt>
      <trkpt lat="45.92415" lon="3.19346">
        <ele>336</ele>
        <time>2024-04-14T10:50:48Z</time>
      </trkpt>
      <trkpt lat="45.92407" lon="3.19348">
        <ele>336</ele>
        <time>2024-04-14T10:50:49Z</time>
      </trkpt>
      <trkpt lat="45.92401" lon="3.1935">
        <ele>336</ele>
        <time>2024-04-14T10:50:50Z</time>
      </trkpt>
      <trkpt lat="45.92394" lon="3.19352">
        <ele>336</ele>
        <time>2024-04-14T10:50:51Z</time>
      </trkpt>
      <trkpt lat="45.92388" lon="3.19354">
        <ele>336</ele>
        <time>2024-04-14T10:50:52Z</time>
      </trkpt>
      <trkpt lat="45.92381" lon="3.19355">
        <ele>336</ele>
        <time>2024-04-14T10:50:53Z</time>
      </trkpt>
      <trkpt lat="45.92375" lon="3.19357">
        <ele>336</ele>
        <time>2024-04-14T10:50:54Z</time>
      </trkpt>
      <trkpt lat="45.92368" lon="3.19359">
        <ele>336</ele>
        <time>2024-04-14T10:50:55Z</time>
      </trkpt>
      <trkpt lat="45.92361" lon="3.19361">
        <ele>336.2</ele>
        <time>2024-04-14T10:50:56Z</time>
      </trkpt>
      <trkpt lat="45.92355" lon="3.19363">
        <ele>336.2</ele>
        <time>2024-04-14T10:50:57Z</time>
      </trkpt>
      <trkpt lat="45.92348" lon="3.19365">
        <ele>336.2</ele>
        <time>2024-04-14T10:50:58Z</time>
      </trkpt>
      <trkpt lat="45.92342" lon="3.19367">
        <ele>336.2</ele>
        <time>2024-04-14T10:50:59Z</time>
      </trkpt>
      <trkpt lat="45.92335" lon="3.19369">
        <ele>336.2</ele>
        <time>2024-04-14T10:51:00Z</time>
      </trkpt>
      <trkpt lat="45.92329" lon="3.1937">
        <ele>336.2</ele>
        <time>2024-04-14T10:51:01Z</time>
      </trkpt>
      <trkpt lat="45.92322" lon="3.1937">
        <ele>336.2</ele>
        <time>2024-04-14T10:51:02Z</time>
      </trkpt>
      <trkpt lat="45.92316" lon="3.1937">
        <ele>336.2</ele>
        <time>2024-04-14T10:51:03Z</time>
      </trkpt>
      <trkpt lat="45.92309" lon="3.1937">
        <ele>336.4</ele>
        <time>2024-04-14T10:51:04Z</time>
      </trkpt>
      <trkpt lat="45.92302" lon="3.1937">
        <ele>336.4</ele>
        <time>2024-04-14T10:51:05Z</time>
      </trkpt>
      <trkpt lat="45.92295" lon="3.1937">
        <ele>336.4</ele>
        <time>2024-04-14T10:51:06Z</time>
      </trkpt>
      <trkpt lat="45.92288" lon="3.19367">
        <ele>336.4</ele>
        <time>2024-04-14T10:51:07Z</time>
      </trkpt>
      <trkpt lat="45.92282" lon="3.19365">
        <ele>336.4</ele>
        <time>2024-04-14T10:51:08Z</time>
      </trkpt>
      <trkpt lat="45.92276" lon="3.19362">
        <ele>336.4</ele>
        <time>2024-04-14T10:51:09Z</time>
      </trkpt>
      <trkpt lat="45.92269" lon="3.19359">
        <ele>336.4</ele>
        <time>2024-04-14T10:51:10Z</time>
      </trkpt>
      <trkpt lat="45.92263" lon="3.19357">
        <ele>336.4</ele>
        <time>2024-04-14T10:51:11Z</time>
      </trkpt>
      <trkpt lat="45.92257" lon="3.19354">
        <ele>336.4</ele>
        <time>2024-04-14T10:51:12Z</time>
      </trkpt>
      <trkpt lat="45.9225" lon="3.19351">
        <ele>336.4</ele>
        <time>2024-04-14T10:51:13Z</time>
      </trkpt>
      <trkpt lat="45.92244" lon="3.19349">
        <ele>336.4</ele>
        <time>2024-04-14T10:51:14Z</time>
      </trkpt>
      <trkpt lat="45.92238" lon="3.19346">
        <ele>336.4</ele>
        <time>2024-04-14T10:51:15Z</time>
      </trkpt>
      <trkpt lat="45.92232" lon="3.19344">
        <ele>336.4</ele>
        <time>2024-04-14T10:51:16Z</time>
      </trkpt>
      <trkpt lat="45.92226" lon="3.19341">
        <ele>336.6</ele>
        <time>2024-04-14T10:51:17Z</time>
      </trkpt>
      <trkpt lat="45.92219" lon="3.19337">
        <ele>336.6</ele>
        <time>2024-04-14T10:51:18Z</time>
      </trkpt>
      <trkpt lat="45.92214" lon="3.19334">
        <ele>336.6</ele>
        <time>2024-04-14T10:51:19Z</time>
      </trkpt>
      <trkpt lat="45.92208" lon="3.1933">
        <ele>336.6</ele>
        <time>2024-04-14T10:51:20Z</time>
      </trkpt>
      <trkpt lat="45.92202" lon="3.19326">
        <ele>336.6</ele>
        <time>2024-04-14T10:51:21Z</time>
      </trkpt>
      <trkpt lat="45.92196" lon="3.19323">
        <ele>336.6</ele>
        <time>2024-04-14T10:51:22Z</time>
      </trkpt>
      <trkpt lat="45.9219" lon="3.19319">
        <ele>336.6</ele>
        <time>2024-04-14T10:51:23Z</time>
      </trkpt>
      <trkpt lat="45.92184" lon="3.19316">
        <ele>336.6</ele>
        <time>2024-04-14T10:51:24Z</time>
      </trkpt>
      <trkpt lat="45.92178" lon="3.19312">
        <ele>336.6</ele>
        <time>2024-04-14T10:51:25Z</time>
      </trkpt>
      <trkpt lat="45.92172" lon="3.19309">
        <ele>336.6</ele>
        <time>2024-04-14T10:51:26Z</time>
      </trkpt>
      <trkpt lat="45.92166" lon="3.19305">
        <ele>336.6</ele>
        <time>2024-04-14T10:51:27Z</time>
      </trkpt>
      <trkpt lat="45.9216" lon="3.19301">
        <ele>336.6</ele>
        <time>2024-04-14T10:51:28Z</time>
      </trkpt>
      <trkpt lat="45.92154" lon="3.19298">
        <ele>336.6</ele>
        <time>2024-04-14T10:51:29Z</time>
      </trkpt>
      <trkpt lat="45.92148" lon="3.19294">
        <ele>336.6</ele>
        <time>2024-04-14T10:51:30Z</time>
      </trkpt>
      <trkpt lat="45.92142" lon="3.19291">
        <ele>336.8</ele>
        <time>2024-04-14T10:51:31Z</time>
      </trkpt>
      <trkpt lat="45.92136" lon="3.19288">
        <ele>336.8</ele>
        <time>2024-04-14T10:51:32Z</time>
      </trkpt>
      <trkpt lat="45.92131" lon="3.19284">
        <ele>336.8</ele>
        <time>2024-04-14T10:51:33Z</time>
      </trkpt>
      <trkpt lat="45.92125" lon="3.19281">
        <ele>336.8</ele>
        <time>2024-04-14T10:51:34Z</time>
      </trkpt>
      <trkpt lat="45.9212" lon="3.19277">
        <ele>337</ele>
        <time>2024-04-14T10:51:35Z</time>
      </trkpt>
      <trkpt lat="45.92114" lon="3.19274">
        <ele>337</ele>
        <time>2024-04-14T10:51:36Z</time>
      </trkpt>
      <trkpt lat="45.92108" lon="3.19271">
        <ele>337</ele>
        <time>2024-04-14T10:51:37Z</time>
      </trkpt>
      <trkpt lat="45.92103" lon="3.19267">
        <ele>337</ele>
        <time>2024-04-14T10:51:38Z</time>
      </trkpt>
      <trkpt lat="45.92097" lon="3.19264">
        <ele>337</ele>
        <time>2024-04-14T10:51:39Z</time>
      </trkpt>
      <trkpt lat="45.92092" lon="3.19261">
        <ele>337</ele>
        <time>2024-04-14T10:51:40Z</time>
      </trkpt>
      <trkpt lat="45.92086" lon="3.19258">
        <ele>337.2</ele>
        <time>2024-04-14T10:51:41Z</time>
      </trkpt>
      <trkpt lat="45.9208" lon="3.19254">
        <ele>337.2</ele>
        <time>2024-04-14T10:51:42Z</time>
      </trkpt>
      <trkpt lat="45.92075" lon="3.19251">
        <ele>337.2</ele>
        <time>2024-04-14T10:51:43Z</time>
      </trkpt>
      <trkpt lat="45.92069" lon="3.19247">
        <ele>337.2</ele>
        <time>2024-04-14T10:51:44Z</time>
      </trkpt>
      <trkpt lat="45.92063" lon="3.19244">
        <ele>337.2</ele>
        <time>2024-04-14T10:51:45Z</time>
      </trkpt>
      <trkpt lat="45.92057" lon="3.19241">
        <ele>337.2</ele>
        <time>2024-04-14T10:51:46Z</time>
      </trkpt>
      <trkpt lat="45.92052" lon="3.19237">
        <ele>337.4</ele>
        <time>2024-04-14T10:51:47Z</time>
      </trkpt>
      <trkpt lat="45.92045" lon="3.19233">
        <ele>337.4</ele>
        <time>2024-04-14T10:51:48Z</time>
      </trkpt>
      <trkpt lat="45.92039" lon="3.19229">
        <ele>337.4</ele>
        <time>2024-04-14T10:51:49Z</time>
      </trkpt>
      <trkpt lat="45.92032" lon="3.19225">
        <ele>337.4</ele>
        <time>2024-04-14T10:51:50Z</time>
      </trkpt>
      <trkpt lat="45.92025" lon="3.19221">
        <ele>337.2</ele>
        <time>2024-04-14T10:51:51Z</time>
      </trkpt>
      <trkpt lat="45.92018" lon="3.19217">
        <ele>337.2</ele>
        <time>2024-04-14T10:51:52Z</time>
      </trkpt>
      <trkpt lat="45.92011" lon="3.19213">
        <ele>337.2</ele>
        <time>2024-04-14T10:51:53Z</time>
      </trkpt>
      <trkpt lat="45.92003" lon="3.19208">
        <ele>337.2</ele>
        <time>2024-04-14T10:51:54Z</time>
      </trkpt>
      <trkpt lat="45.91996" lon="3.19204">
        <ele>337.4</ele>
        <time>2024-04-14T10:51:55Z</time>
      </trkpt>
      <trkpt lat="45.91988" lon="3.192">
        <ele>336.8</ele>
        <time>2024-04-14T10:51:56Z</time>
      </trkpt>
      <trkpt lat="45.9198" lon="3.19195">
        <ele>336.4</ele>
        <time>2024-04-14T10:51:57Z</time>
      </trkpt>
      <trkpt lat="45.91973" lon="3.19191">
        <ele>336.8</ele>
        <time>2024-04-14T10:51:58Z</time>
      </trkpt>
      <trkpt lat="45.91965" lon="3.19187">
        <ele>336.6</ele>
        <time>2024-04-14T10:51:59Z</time>
      </trkpt>
      <trkpt lat="45.91956" lon="3.19184">
        <ele>336.6</ele>
        <time>2024-04-14T10:52:00Z</time>
      </trkpt>
      <trkpt lat="45.91948" lon="3.19181">
        <ele>336.4</ele>
        <time>2024-04-14T10:52:01Z</time>
      </trkpt>
      <trkpt lat="45.9194" lon="3.19178">
        <ele>336.2</ele>
        <time>2024-04-14T10:52:02Z</time>
      </trkpt>
      <trkpt lat="45.91932" lon="3.19175">
        <ele>336.2</ele>
        <time>2024-04-14T10:52:03Z</time>
      </trkpt>
      <trkpt lat="45.91924" lon="3.19175">
        <ele>336</ele>
        <time>2024-04-14T10:52:04Z</time>
      </trkpt>
      <trkpt lat="45.91917" lon="3.19175">
        <ele>335.8</ele>
        <time>2024-04-14T10:52:05Z</time>
      </trkpt>
      <trkpt lat="45.9191" lon="3.19176">
        <ele>335.6</ele>
        <time>2024-04-14T10:52:06Z</time>
      </trkpt>
      <trkpt lat="45.91904" lon="3.19176">
        <ele>335.6</ele>
        <time>2024-04-14T10:52:07Z</time>
      </trkpt>
      <trkpt lat="45.91898" lon="3.19177">
        <ele>335.4</ele>
        <time>2024-04-14T10:52:08Z</time>
      </trkpt>
      <trkpt lat="45.91892" lon="3.19177">
        <ele>335.2</ele>
        <time>2024-04-14T10:52:09Z</time>
      </trkpt>
      <trkpt lat="45.91888" lon="3.19177">
        <ele>335.2</ele>
        <time>2024-04-14T10:52:10Z</time>
      </trkpt>
      <trkpt lat="45.91884" lon="3.19178">
        <ele>335</ele>
        <time>2024-04-14T10:52:11Z</time>
      </trkpt>
      <trkpt lat="45.91881" lon="3.19178">
        <ele>334.8</ele>
        <time>2024-04-14T10:52:12Z</time>
      </trkpt>
      <trkpt lat="45.91878" lon="3.19178">
        <ele>334.6</ele>
        <time>2024-04-14T10:52:13Z</time>
      </trkpt>
      <trkpt lat="45.91875" lon="3.19178">
        <ele>334.6</ele>
        <time>2024-04-14T10:52:14Z</time>
      </trkpt>
      <trkpt lat="45.91871" lon="3.19179">
        <ele>334.4</ele>
        <time>2024-04-14T10:52:15Z</time>
      </trkpt>
      <trkpt lat="45.91868" lon="3.1918">
        <ele>334.2</ele>
        <time>2024-04-14T10:52:16Z</time>
      </trkpt>
      <trkpt lat="45.91862" lon="3.1918">
        <ele>334</ele>
        <time>2024-04-14T10:52:17Z</time>
      </trkpt>
      <trkpt lat="45.91859" lon="3.19176">
        <ele>334</ele>
        <time>2024-04-14T10:52:18Z</time>
      </trkpt>
      <trkpt lat="45.91855" lon="3.19171">
        <ele>333.8</ele>
        <time>2024-04-14T10:52:19Z</time>
      </trkpt>
      <trkpt lat="45.91851" lon="3.19165">
        <ele>333.8</ele>
        <time>2024-04-14T10:52:20Z</time>
      </trkpt>
      <trkpt lat="45.91847" lon="3.1916">
        <ele>333.8</ele>
        <time>2024-04-14T10:52:21Z</time>
      </trkpt>
      <trkpt lat="45.91842" lon="3.19154">
        <ele>333.6</ele>
        <time>2024-04-14T10:52:22Z</time>
      </trkpt>
      <trkpt lat="45.91838" lon="3.19149">
        <ele>333.6</ele>
        <time>2024-04-14T10:52:23Z</time>
      </trkpt>
      <trkpt lat="45.91833" lon="3.19143">
        <ele>333.4</ele>
        <time>2024-04-14T10:52:24Z</time>
      </trkpt>
      <trkpt lat="45.91829" lon="3.19136">
        <ele>333.4</ele>
        <time>2024-04-14T10:52:25Z</time>
      </trkpt>
      <trkpt lat="45.91824" lon="3.1913">
        <ele>333.2</ele>
        <time>2024-04-14T10:52:26Z</time>
      </trkpt>
      <trkpt lat="45.91819" lon="3.19124">
        <ele>333</ele>
        <time>2024-04-14T10:52:27Z</time>
      </trkpt>
      <trkpt lat="45.91815" lon="3.19118">
        <ele>333</ele>
        <time>2024-04-14T10:52:28Z</time>
      </trkpt>
      <trkpt lat="45.9181" lon="3.19112">
        <ele>333</ele>
        <time>2024-04-14T10:52:29Z</time>
      </trkpt>
      <trkpt lat="45.91806" lon="3.19106">
        <ele>333</ele>
        <time>2024-04-14T10:52:30Z</time>
      </trkpt>
      <trkpt lat="45.91802" lon="3.191">
        <ele>332.8</ele>
        <time>2024-04-14T10:52:31Z</time>
      </trkpt>
      <trkpt lat="45.91798" lon="3.19094">
        <ele>332.6</ele>
        <time>2024-04-14T10:52:32Z</time>
      </trkpt>
      <trkpt lat="45.91793" lon="3.19088">
        <ele>332.4</ele>
        <time>2024-04-14T10:52:33Z</time>
      </trkpt>
      <trkpt lat="45.91789" lon="3.19082">
        <ele>332.4</ele>
        <time>2024-04-14T10:52:34Z</time>
      </trkpt>
      <trkpt lat="45.91785" lon="3.19076">
        <ele>332.2</ele>
        <time>2024-04-14T10:52:35Z</time>
      </trkpt>
      <trkpt lat="45.9178" lon="3.1907">
        <ele>332</ele>
        <time>2024-04-14T10:52:36Z</time>
      </trkpt>
      <trkpt lat="45.91774" lon="3.19064">
        <ele>331.8</ele>
        <time>2024-04-14T10:52:37Z</time>
      </trkpt>
      <trkpt lat="45.91768" lon="3.19059">
        <ele>331.6</ele>
        <time>2024-04-14T10:52:38Z</time>
      </trkpt>
      <trkpt lat="45.91762" lon="3.19051">
        <ele>331.4</ele>
        <time>2024-04-14T10:52:39Z</time>
      </trkpt>
      <trkpt lat="45.91756" lon="3.19044">
        <ele>331.4</ele>
        <time>2024-04-14T10:52:40Z</time>
      </trkpt>
      <trkpt lat="45.9175" lon="3.19037">
        <ele>331.2</ele>
        <time>2024-04-14T10:52:41Z</time>
      </trkpt>
      <trkpt lat="45.91744" lon="3.19029">
        <ele>331</ele>
        <time>2024-04-14T10:52:42Z</time>
      </trkpt>
      <trkpt lat="45.91737" lon="3.19021">
        <ele>330.8</ele>
        <time>2024-04-14T10:52:43Z</time>
      </trkpt>
      <trkpt lat="45.91732" lon="3.19012">
        <ele>330.6</ele>
        <time>2024-04-14T10:52:44Z</time>
      </trkpt>
      <trkpt lat="45.91727" lon="3.19003">
        <ele>330.6</ele>
        <time>2024-04-14T10:52:45Z</time>
      </trkpt>
      <trkpt lat="45.91721" lon="3.18994">
        <ele>330.4</ele>
        <time>2024-04-14T10:52:46Z</time>
      </trkpt>
      <trkpt lat="45.91716" lon="3.18985">
        <ele>330.2</ele>
        <time>2024-04-14T10:52:47Z</time>
      </trkpt>
      <trkpt lat="45.91712" lon="3.18974">
        <ele>330.2</ele>
        <time>2024-04-14T10:52:48Z</time>
      </trkpt>
      <trkpt lat="45.9171" lon="3.18962">
        <ele>330.2</ele>
        <time>2024-04-14T10:52:49Z</time>
      </trkpt>
      <trkpt lat="45.91709" lon="3.1895">
        <ele>330.2</ele>
        <time>2024-04-14T10:52:50Z</time>
      </trkpt>
      <trkpt lat="45.91707" lon="3.18938">
        <ele>330</ele>
        <time>2024-04-14T10:52:51Z</time>
      </trkpt>
      <trkpt lat="45.91706" lon="3.18926">
        <ele>330</ele>
        <time>2024-04-14T10:52:52Z</time>
      </trkpt>
      <trkpt lat="45.91703" lon="3.18914">
        <ele>330</ele>
        <time>2024-04-14T10:52:53Z</time>
      </trkpt>
      <trkpt lat="45.91699" lon="3.18903">
        <ele>329.8</ele>
        <time>2024-04-14T10:52:54Z</time>
      </trkpt>
      <trkpt lat="45.91696" lon="3.18891">
        <ele>329.6</ele>
        <time>2024-04-14T10:52:55Z</time>
      </trkpt>
      <trkpt lat="45.91692" lon="3.1888">
        <ele>329.6</ele>
        <time>2024-04-14T10:52:56Z</time>
      </trkpt>
      <trkpt lat="45.91688" lon="3.18869">
        <ele>329.4</ele>
        <time>2024-04-14T10:52:57Z</time>
      </trkpt>
      <trkpt lat="45.91684" lon="3.18859">
        <ele>329.4</ele>
        <time>2024-04-14T10:52:58Z</time>
      </trkpt>
      <trkpt lat="45.91679" lon="3.18848">
        <ele>329.2</ele>
        <time>2024-04-14T10:52:59Z</time>
      </trkpt>
      <trkpt lat="45.91674" lon="3.18837">
        <ele>329.2</ele>
        <time>2024-04-14T10:53:00Z</time>
      </trkpt>
      <trkpt lat="45.9167" lon="3.18827">
        <ele>329</ele>
        <time>2024-04-14T10:53:01Z</time>
      </trkpt>
      <trkpt lat="45.91665" lon="3.18817">
        <ele>328.8</ele>
        <time>2024-04-14T10:53:02Z</time>
      </trkpt>
      <trkpt lat="45.91661" lon="3.18807">
        <ele>328.6</ele>
        <time>2024-04-14T10:53:03Z</time>
      </trkpt>
      <trkpt lat="45.91656" lon="3.18797">
        <ele>328.6</ele>
        <time>2024-04-14T10:53:04Z</time>
      </trkpt>
      <trkpt lat="45.91651" lon="3.18787">
        <ele>328.4</ele>
        <time>2024-04-14T10:53:05Z</time>
      </trkpt>
      <trkpt lat="45.91647" lon="3.18777">
        <ele>328.2</ele>
        <time>2024-04-14T10:53:06Z</time>
      </trkpt>
      <trkpt lat="45.91642" lon="3.18767">
        <ele>328</ele>
        <time>2024-04-14T10:53:07Z</time>
      </trkpt>
      <trkpt lat="45.91638" lon="3.18757">
        <ele>327.8</ele>
        <time>2024-04-14T10:53:08Z</time>
      </trkpt>
      <trkpt lat="45.91633" lon="3.18747">
        <ele>327.8</ele>
        <time>2024-04-14T10:53:09Z</time>
      </trkpt>
      <trkpt lat="45.91628" lon="3.18737">
        <ele>327.6</ele>
        <time>2024-04-14T10:53:10Z</time>
      </trkpt>
      <trkpt lat="45.91623" lon="3.18728">
        <ele>327.4</ele>
        <time>2024-04-14T10:53:11Z</time>
      </trkpt>
      <trkpt lat="45.91618" lon="3.18718">
        <ele>327.4</ele>
        <time>2024-04-14T10:53:12Z</time>
      </trkpt>
      <trkpt lat="45.91613" lon="3.1871">
        <ele>327.2</ele>
        <time>2024-04-14T10:53:13Z</time>
      </trkpt>
      <trkpt lat="45.91607" lon="3.18702">
        <ele>327.2</ele>
        <time>2024-04-14T10:53:14Z</time>
      </trkpt>
      <trkpt lat="45.91601" lon="3.18694">
        <ele>327</ele>
        <time>2024-04-14T10:53:15Z</time>
      </trkpt>
      <trkpt lat="45.91595" lon="3.18685">
        <ele>326.8</ele>
        <time>2024-04-14T10:53:16Z</time>
      </trkpt>
      <trkpt lat="45.9159" lon="3.18678">
        <ele>326.8</ele>
        <time>2024-04-14T10:53:17Z</time>
      </trkpt>
      <trkpt lat="45.91584" lon="3.1867">
        <ele>326.6</ele>
        <time>2024-04-14T10:53:18Z</time>
      </trkpt>
      <trkpt lat="45.91578" lon="3.18662">
        <ele>326.6</ele>
        <time>2024-04-14T10:53:19Z</time>
      </trkpt>
      <trkpt lat="45.91573" lon="3.18654">
        <ele>326.4</ele>
        <time>2024-04-14T10:53:20Z</time>
      </trkpt>
      <trkpt lat="45.91567" lon="3.18646">
        <ele>326.4</ele>
        <time>2024-04-14T10:53:21Z</time>
      </trkpt>
      <trkpt lat="45.91562" lon="3.18638">
        <ele>326.2</ele>
        <time>2024-04-14T10:53:22Z</time>
      </trkpt>
      <trkpt lat="45.91556" lon="3.18631">
        <ele>326.2</ele>
        <time>2024-04-14T10:53:23Z</time>
      </trkpt>
      <trkpt lat="45.91551" lon="3.18623">
        <ele>326</ele>
        <time>2024-04-14T10:53:24Z</time>
      </trkpt>
      <trkpt lat="45.91545" lon="3.18615">
        <ele>326</ele>
        <time>2024-04-14T10:53:25Z</time>
      </trkpt>
      <trkpt lat="45.9154" lon="3.18608">
        <ele>326</ele>
        <time>2024-04-14T10:53:26Z</time>
      </trkpt>
      <trkpt lat="45.91534" lon="3.186">
        <ele>325.8</ele>
        <time>2024-04-14T10:53:27Z</time>
      </trkpt>
      <trkpt lat="45.91529" lon="3.18592">
        <ele>325.8</ele>
        <time>2024-04-14T10:53:28Z</time>
      </trkpt>
      <trkpt lat="45.91524" lon="3.18585">
        <ele>325.8</ele>
        <time>2024-04-14T10:53:29Z</time>
      </trkpt>
      <trkpt lat="45.91518" lon="3.18577">
        <ele>325.6</ele>
        <time>2024-04-14T10:53:30Z</time>
      </trkpt>
      <trkpt lat="45.91513" lon="3.18569">
        <ele>325.6</ele>
        <time>2024-04-14T10:53:31Z</time>
      </trkpt>
      <trkpt lat="45.91508" lon="3.18561">
        <ele>325.4</ele>
        <time>2024-04-14T10:53:32Z</time>
      </trkpt>
      <trkpt lat="45.91502" lon="3.18553">
        <ele>325.4</ele>
        <time>2024-04-14T10:53:33Z</time>
      </trkpt>
      <trkpt lat="45.91497" lon="3.18545">
        <ele>325.2</ele>
        <time>2024-04-14T10:53:34Z</time>
      </trkpt>
      <trkpt lat="45.91492" lon="3.18538">
        <ele>325.2</ele>
        <time>2024-04-14T10:53:35Z</time>
      </trkpt>
      <trkpt lat="45.91486" lon="3.1853">
        <ele>325.2</ele>
        <time>2024-04-14T10:53:36Z</time>
      </trkpt>
      <trkpt lat="45.91481" lon="3.18522">
        <ele>325</ele>
        <time>2024-04-14T10:53:37Z</time>
      </trkpt>
      <trkpt lat="45.91476" lon="3.18514">
        <ele>325</ele>
        <time>2024-04-14T10:53:38Z</time>
      </trkpt>
      <trkpt lat="45.9147" lon="3.18507">
        <ele>324.8</ele>
        <time>2024-04-14T10:53:39Z</time>
      </trkpt>
      <trkpt lat="45.91465" lon="3.18499">
        <ele>324.8</ele>
        <time>2024-04-14T10:53:40Z</time>
      </trkpt>
      <trkpt lat="45.9146" lon="3.18491">
        <ele>324.8</ele>
        <time>2024-04-14T10:53:41Z</time>
      </trkpt>
      <trkpt lat="45.91455" lon="3.18483">
        <ele>324.6</ele>
        <time>2024-04-14T10:53:42Z</time>
      </trkpt>
      <trkpt lat="45.91449" lon="3.18476">
        <ele>324.6</ele>
        <time>2024-04-14T10:53:43Z</time>
      </trkpt>
      <trkpt lat="45.91444" lon="3.18468">
        <ele>324.6</ele>
        <time>2024-04-14T10:53:44Z</time>
      </trkpt>
      <trkpt lat="45.91439" lon="3.1846">
        <ele>324.4</ele>
        <time>2024-04-14T10:53:45Z</time>
      </trkpt>
      <trkpt lat="45.91433" lon="3.18452">
        <ele>324.4</ele>
        <time>2024-04-14T10:53:46Z</time>
      </trkpt>
      <trkpt lat="45.91428" lon="3.18444">
        <ele>324.2</ele>
        <time>2024-04-14T10:53:47Z</time>
      </trkpt>
      <trkpt lat="45.91423" lon="3.18436">
        <ele>324.2</ele>
        <time>2024-04-14T10:53:48Z</time>
      </trkpt>
      <trkpt lat="45.91417" lon="3.18429">
        <ele>324.2</ele>
        <time>2024-04-14T10:53:49Z</time>
      </trkpt>
      <trkpt lat="45.91412" lon="3.18421">
        <ele>324</ele>
        <time>2024-04-14T10:53:50Z</time>
      </trkpt>
      <trkpt lat="45.91407" lon="3.18413">
        <ele>324</ele>
        <time>2024-04-14T10:53:51Z</time>
      </trkpt>
      <trkpt lat="45.91401" lon="3.18405">
        <ele>324</ele>
        <time>2024-04-14T10:53:52Z</time>
      </trkpt>
      <trkpt lat="45.91396" lon="3.18398">
        <ele>323.8</ele>
        <time>2024-04-14T10:53:53Z</time>
      </trkpt>
      <trkpt lat="45.91391" lon="3.1839">
        <ele>323.8</ele>
        <time>2024-04-14T10:53:54Z</time>
      </trkpt>
      <trkpt lat="45.91386" lon="3.18382">
        <ele>323.8</ele>
        <time>2024-04-14T10:53:55Z</time>
      </trkpt>
      <trkpt lat="45.91381" lon="3.18375">
        <ele>323.8</ele>
        <time>2024-04-14T10:53:56Z</time>
      </trkpt>
      <trkpt lat="45.91376" lon="3.18367">
        <ele>323.6</ele>
        <time>2024-04-14T10:53:57Z</time>
      </trkpt>
      <trkpt lat="45.9137" lon="3.1836">
        <ele>323.6</ele>
        <time>2024-04-14T10:53:58Z</time>
      </trkpt>
      <trkpt lat="45.91365" lon="3.18353">
        <ele>323.6</ele>
        <time>2024-04-14T10:53:59Z</time>
      </trkpt>
      <trkpt lat="45.9136" lon="3.18345">
        <ele>323.4</ele>
        <time>2024-04-14T10:54:00Z</time>
      </trkpt>
      <trkpt lat="45.91355" lon="3.18338">
        <ele>323.4</ele>
        <time>2024-04-14T10:54:01Z</time>
      </trkpt>
      <trkpt lat="45.9135" lon="3.1833">
        <ele>323.4</ele>
        <time>2024-04-14T10:54:02Z</time>
      </trkpt>
      <trkpt lat="45.91345" lon="3.18323">
        <ele>323.4</ele>
        <time>2024-04-14T10:54:03Z</time>
      </trkpt>
      <trkpt lat="45.9134" lon="3.18315">
        <ele>323.2</ele>
        <time>2024-04-14T10:54:04Z</time>
      </trkpt>
      <trkpt lat="45.91335" lon="3.18308">
        <ele>323.2</ele>
        <time>2024-04-14T10:54:05Z</time>
      </trkpt>
      <trkpt lat="45.9133" lon="3.18301">
        <ele>323.2</ele>
        <time>2024-04-14T10:54:06Z</time>
      </trkpt>
      <trkpt lat="45.91325" lon="3.18293">
        <ele>323</ele>
        <time>2024-04-14T10:54:07Z</time>
      </trkpt>
      <trkpt lat="45.9132" lon="3.18285">
        <ele>323</ele>
        <time>2024-04-14T10:54:08Z</time>
      </trkpt>
      <trkpt lat="45.91315" lon="3.18278">
        <ele>323</ele>
        <time>2024-04-14T10:54:09Z</time>
      </trkpt>
      <trkpt lat="45.9131" lon="3.18271">
        <ele>323</ele>
        <time>2024-04-14T10:54:10Z</time>
      </trkpt>
      <trkpt lat="45.91305" lon="3.18264">
        <ele>322.8</ele>
        <time>2024-04-14T10:54:11Z</time>
      </trkpt>
      <trkpt lat="45.913" lon="3.18255">
        <ele>322.8</ele>
        <time>2024-04-14T10:54:12Z</time>
      </trkpt>
      <trkpt lat="45.91296" lon="3.18246">
        <ele>322.8</ele>
        <time>2024-04-14T10:54:13Z</time>
      </trkpt>
      <trkpt lat="45.91293" lon="3.18237">
        <ele>322.6</ele>
        <time>2024-04-14T10:54:14Z</time>
      </trkpt>
      <trkpt lat="45.91289" lon="3.18229">
        <ele>322.6</ele>
        <time>2024-04-14T10:54:15Z</time>
      </trkpt>
      <trkpt lat="45.91285" lon="3.1822">
        <ele>322.4</ele>
        <time>2024-04-14T10:54:16Z</time>
      </trkpt>
      <trkpt lat="45.91281" lon="3.18212">
        <ele>322.4</ele>
        <time>2024-04-14T10:54:17Z</time>
      </trkpt>
      <trkpt lat="45.91279" lon="3.18202">
        <ele>322.4</ele>
        <time>2024-04-14T10:54:18Z</time>
      </trkpt>
      <trkpt lat="45.91276" lon="3.18193">
        <ele>322.4</ele>
        <time>2024-04-14T10:54:19Z</time>
      </trkpt>
      <trkpt lat="45.91274" lon="3.18183">
        <ele>322.4</ele>
        <time>2024-04-14T10:54:20Z</time>
      </trkpt>
      <trkpt lat="45.91271" lon="3.18174">
        <ele>322.2</ele>
        <time>2024-04-14T10:54:21Z</time>
      </trkpt>
      <trkpt lat="45.91269" lon="3.18164">
        <ele>322.2</ele>
        <time>2024-04-14T10:54:22Z</time>
      </trkpt>
      <trkpt lat="45.91268" lon="3.18154">
        <ele>322.2</ele>
        <time>2024-04-14T10:54:23Z</time>
      </trkpt>
      <trkpt lat="45.91266" lon="3.18144">
        <ele>322.2</ele>
        <time>2024-04-14T10:54:24Z</time>
      </trkpt>
      <trkpt lat="45.91265" lon="3.18134">
        <ele>322.2</ele>
        <time>2024-04-14T10:54:25Z</time>
      </trkpt>
      <trkpt lat="45.91263" lon="3.18125">
        <ele>322.2</ele>
        <time>2024-04-14T10:54:26Z</time>
      </trkpt>
      <trkpt lat="45.91261" lon="3.18115">
        <ele>322.2</ele>
        <time>2024-04-14T10:54:27Z</time>
      </trkpt>
      <trkpt lat="45.9126" lon="3.18105">
        <ele>322.2</ele>
        <time>2024-04-14T10:54:28Z</time>
      </trkpt>
      <trkpt lat="45.91258" lon="3.18095">
        <ele>322.2</ele>
        <time>2024-04-14T10:54:29Z</time>
      </trkpt>
      <trkpt lat="45.91257" lon="3.18086">
        <ele>322.2</ele>
        <time>2024-04-14T10:54:30Z</time>
      </trkpt>
      <trkpt lat="45.91255" lon="3.18076">
        <ele>322.2</ele>
        <time>2024-04-14T10:54:31Z</time>
      </trkpt>
      <trkpt lat="45.91254" lon="3.18067">
        <ele>322</ele>
        <time>2024-04-14T10:54:32Z</time>
      </trkpt>
      <trkpt lat="45.91252" lon="3.18057">
        <ele>322</ele>
        <time>2024-04-14T10:54:33Z</time>
      </trkpt>
      <trkpt lat="45.91251" lon="3.18048">
        <ele>322</ele>
        <time>2024-04-14T10:54:34Z</time>
      </trkpt>
      <trkpt lat="45.91249" lon="3.18038">
        <ele>322</ele>
        <time>2024-04-14T10:54:35Z</time>
      </trkpt>
      <trkpt lat="45.91248" lon="3.18028">
        <ele>322</ele>
        <time>2024-04-14T10:54:36Z</time>
      </trkpt>
      <trkpt lat="45.91246" lon="3.18019">
        <ele>321.8</ele>
        <time>2024-04-14T10:54:37Z</time>
      </trkpt>
      <trkpt lat="45.91245" lon="3.18009">
        <ele>321.8</ele>
        <time>2024-04-14T10:54:38Z</time>
      </trkpt>
      <trkpt lat="45.91243" lon="3.18">
        <ele>322</ele>
        <time>2024-04-14T10:54:39Z</time>
      </trkpt>
      <trkpt lat="45.91242" lon="3.1799">
        <ele>321.8</ele>
        <time>2024-04-14T10:54:40Z</time>
      </trkpt>
      <trkpt lat="45.9124" lon="3.1798">
        <ele>321.8</ele>
        <time>2024-04-14T10:54:41Z</time>
      </trkpt>
      <trkpt lat="45.91238" lon="3.17971">
        <ele>321.8</ele>
        <time>2024-04-14T10:54:42Z</time>
      </trkpt>
      <trkpt lat="45.91236" lon="3.17962">
        <ele>321.8</ele>
        <time>2024-04-14T10:54:43Z</time>
      </trkpt>
      <trkpt lat="45.91233" lon="3.17952">
        <ele>321.8</ele>
        <time>2024-04-14T10:54:44Z</time>
      </trkpt>
      <trkpt lat="45.91231" lon="3.17943">
        <ele>321.6</ele>
        <time>2024-04-14T10:54:45Z</time>
      </trkpt>
      <trkpt lat="45.91227" lon="3.17935">
        <ele>321.6</ele>
        <time>2024-04-14T10:54:46Z</time>
      </trkpt>
      <trkpt lat="45.91223" lon="3.17927">
        <ele>321.4</ele>
        <time>2024-04-14T10:54:47Z</time>
      </trkpt>
      <trkpt lat="45.91219" lon="3.17919">
        <ele>321.4</ele>
        <time>2024-04-14T10:54:48Z</time>
      </trkpt>
      <trkpt lat="45.91213" lon="3.17913">
        <ele>321.4</ele>
        <time>2024-04-14T10:54:49Z</time>
      </trkpt>
      <trkpt lat="45.91208" lon="3.17907">
        <ele>321.4</ele>
        <time>2024-04-14T10:54:50Z</time>
      </trkpt>
      <trkpt lat="45.91202" lon="3.17901">
        <ele>321.4</ele>
        <time>2024-04-14T10:54:51Z</time>
      </trkpt>
      <trkpt lat="45.91197" lon="3.17895">
        <ele>321.4</ele>
        <time>2024-04-14T10:54:52Z</time>
      </trkpt>
      <trkpt lat="45.91191" lon="3.17889">
        <ele>321.4</ele>
        <time>2024-04-14T10:54:53Z</time>
      </trkpt>
      <trkpt lat="45.91185" lon="3.17883">
        <ele>321.4</ele>
        <time>2024-04-14T10:54:54Z</time>
      </trkpt>
      <trkpt lat="45.9118" lon="3.17877">
        <ele>321.4</ele>
        <time>2024-04-14T10:54:55Z</time>
      </trkpt>
      <trkpt lat="45.91174" lon="3.17871">
        <ele>321.2</ele>
        <time>2024-04-14T10:54:56Z</time>
      </trkpt>
      <trkpt lat="45.91169" lon="3.17865">
        <ele>321.2</ele>
        <time>2024-04-14T10:54:57Z</time>
      </trkpt>
      <trkpt lat="45.91163" lon="3.17859">
        <ele>321.2</ele>
        <time>2024-04-14T10:54:58Z</time>
      </trkpt>
      <trkpt lat="45.91158" lon="3.17854">
        <ele>321.2</ele>
        <time>2024-04-14T10:54:59Z</time>
      </trkpt>
      <trkpt lat="45.91152" lon="3.17848">
        <ele>321.2</ele>
        <time>2024-04-14T10:55:00Z</time>
      </trkpt>
      <trkpt lat="45.91147" lon="3.17842">
        <ele>321.2</ele>
        <time>2024-04-14T10:55:01Z</time>
      </trkpt>
      <trkpt lat="45.91142" lon="3.17837">
        <ele>321</ele>
        <time>2024-04-14T10:55:02Z</time>
      </trkpt>
      <trkpt lat="45.91136" lon="3.17831">
        <ele>321</ele>
        <time>2024-04-14T10:55:03Z</time>
      </trkpt>
      <trkpt lat="45.91131" lon="3.17825">
        <ele>321.2</ele>
        <time>2024-04-14T10:55:04Z</time>
      </trkpt>
      <trkpt lat="45.91126" lon="3.1782">
        <ele>321</ele>
        <time>2024-04-14T10:55:05Z</time>
      </trkpt>
      <trkpt lat="45.9112" lon="3.17815">
        <ele>321</ele>
        <time>2024-04-14T10:55:06Z</time>
      </trkpt>
      <trkpt lat="45.91114" lon="3.17811">
        <ele>321</ele>
        <time>2024-04-14T10:55:07Z</time>
      </trkpt>
      <trkpt lat="45.91108" lon="3.17806">
        <ele>321</ele>
        <time>2024-04-14T10:55:08Z</time>
      </trkpt>
      <trkpt lat="45.91102" lon="3.17801">
        <ele>321</ele>
        <time>2024-04-14T10:55:09Z</time>
      </trkpt>
      <trkpt lat="45.91096" lon="3.17796">
        <ele>321</ele>
        <time>2024-04-14T10:55:10Z</time>
      </trkpt>
      <trkpt lat="45.9109" lon="3.17791">
        <ele>321</ele>
        <time>2024-04-14T10:55:11Z</time>
      </trkpt>
      <trkpt lat="45.91084" lon="3.17786">
        <ele>321</ele>
        <time>2024-04-14T10:55:12Z</time>
      </trkpt>
      <trkpt lat="45.91077" lon="3.17783">
        <ele>321</ele>
        <time>2024-04-14T10:55:13Z</time>
      </trkpt>
      <trkpt lat="45.91071" lon="3.1778">
        <ele>321</ele>
        <time>2024-04-14T10:55:14Z</time>
      </trkpt>
      <trkpt lat="45.91065" lon="3.17778">
        <ele>321</ele>
        <time>2024-04-14T10:55:15Z</time>
      </trkpt>
      <trkpt lat="45.91058" lon="3.17775">
        <ele>321</ele>
        <time>2024-04-14T10:55:16Z</time>
      </trkpt>
      <trkpt lat="45.91052" lon="3.17772">
        <ele>320.8</ele>
        <time>2024-04-14T10:55:17Z</time>
      </trkpt>
      <trkpt lat="45.91045" lon="3.17769">
        <ele>320.8</ele>
        <time>2024-04-14T10:55:18Z</time>
      </trkpt>
      <trkpt lat="45.91039" lon="3.17766">
        <ele>320.8</ele>
        <time>2024-04-14T10:55:19Z</time>
      </trkpt>
      <trkpt lat="45.91032" lon="3.17763">
        <ele>320.8</ele>
        <time>2024-04-14T10:55:20Z</time>
      </trkpt>
      <trkpt lat="45.91026" lon="3.1776">
        <ele>320.6</ele>
        <time>2024-04-14T10:55:21Z</time>
      </trkpt>
      <trkpt lat="45.91019" lon="3.17757">
        <ele>320.6</ele>
        <time>2024-04-14T10:55:22Z</time>
      </trkpt>
      <trkpt lat="45.91012" lon="3.17754">
        <ele>320.6</ele>
        <time>2024-04-14T10:55:23Z</time>
      </trkpt>
      <trkpt lat="45.91006" lon="3.17751">
        <ele>320.6</ele>
        <time>2024-04-14T10:55:24Z</time>
      </trkpt>
      <trkpt lat="45.90999" lon="3.17749">
        <ele>320.4</ele>
        <time>2024-04-14T10:55:25Z</time>
      </trkpt>
      <trkpt lat="45.90993" lon="3.17746">
        <ele>320.4</ele>
        <time>2024-04-14T10:55:26Z</time>
      </trkpt>
      <trkpt lat="45.90986" lon="3.17743">
        <ele>320.4</ele>
        <time>2024-04-14T10:55:27Z</time>
      </trkpt>
      <trkpt lat="45.9098" lon="3.1774">
        <ele>320.4</ele>
        <time>2024-04-14T10:55:28Z</time>
      </trkpt>
      <trkpt lat="45.90973" lon="3.17737">
        <ele>320.4</ele>
        <time>2024-04-14T10:55:29Z</time>
      </trkpt>
      <trkpt lat="45.90967" lon="3.17734">
        <ele>320.4</ele>
        <time>2024-04-14T10:55:30Z</time>
      </trkpt>
      <trkpt lat="45.9096" lon="3.17731">
        <ele>320.2</ele>
        <time>2024-04-14T10:55:31Z</time>
      </trkpt>
      <trkpt lat="45.90954" lon="3.17728">
        <ele>320.2</ele>
        <time>2024-04-14T10:55:32Z</time>
      </trkpt>
      <trkpt lat="45.90947" lon="3.17725">
        <ele>320.2</ele>
        <time>2024-04-14T10:55:33Z</time>
      </trkpt>
      <trkpt lat="45.90941" lon="3.17722">
        <ele>320.2</ele>
        <time>2024-04-14T10:55:34Z</time>
      </trkpt>
      <trkpt lat="45.90934" lon="3.17719">
        <ele>320.2</ele>
        <time>2024-04-14T10:55:35Z</time>
      </trkpt>
      <trkpt lat="45.90928" lon="3.17716">
        <ele>320.2</ele>
        <time>2024-04-14T10:55:36Z</time>
      </trkpt>
      <trkpt lat="45.90921" lon="3.17714">
        <ele>320.2</ele>
        <time>2024-04-14T10:55:37Z</time>
      </trkpt>
      <trkpt lat="45.90915" lon="3.17711">
        <ele>320.2</ele>
        <time>2024-04-14T10:55:38Z</time>
      </trkpt>
      <trkpt lat="45.90908" lon="3.17708">
        <ele>320.2</ele>
        <time>2024-04-14T10:55:39Z</time>
      </trkpt>
      <trkpt lat="45.90901" lon="3.17705">
        <ele>320.2</ele>
        <time>2024-04-14T10:55:40Z</time>
      </trkpt>
      <trkpt lat="45.90894" lon="3.17702">
        <ele>320.2</ele>
        <time>2024-04-14T10:55:41Z</time>
      </trkpt>
      <trkpt lat="45.90887" lon="3.17699">
        <ele>320.2</ele>
        <time>2024-04-14T10:55:42Z</time>
      </trkpt>
      <trkpt lat="45.9088" lon="3.17696">
        <ele>320</ele>
        <time>2024-04-14T10:55:43Z</time>
      </trkpt>
      <trkpt lat="45.90873" lon="3.17694">
        <ele>320</ele>
        <time>2024-04-14T10:55:44Z</time>
      </trkpt>
      <trkpt lat="45.90867" lon="3.17691">
        <ele>320</ele>
        <time>2024-04-14T10:55:45Z</time>
      </trkpt>
      <trkpt lat="45.9086" lon="3.17688">
        <ele>320</ele>
        <time>2024-04-14T10:55:46Z</time>
      </trkpt>
      <trkpt lat="45.90853" lon="3.17685">
        <ele>320</ele>
        <time>2024-04-14T10:55:47Z</time>
      </trkpt>
      <trkpt lat="45.90846" lon="3.17682">
        <ele>319.8</ele>
        <time>2024-04-14T10:55:48Z</time>
      </trkpt>
      <trkpt lat="45.90839" lon="3.17679">
        <ele>319.8</ele>
        <time>2024-04-14T10:55:49Z</time>
      </trkpt>
      <trkpt lat="45.90833" lon="3.17676">
        <ele>319.8</ele>
        <time>2024-04-14T10:55:50Z</time>
      </trkpt>
      <trkpt lat="45.90826" lon="3.17673">
        <ele>319.8</ele>
        <time>2024-04-14T10:55:51Z</time>
      </trkpt>
      <trkpt lat="45.90819" lon="3.17671">
        <ele>319.6</ele>
        <time>2024-04-14T10:55:52Z</time>
      </trkpt>
      <trkpt lat="45.90812" lon="3.17668">
        <ele>319.6</ele>
        <time>2024-04-14T10:55:53Z</time>
      </trkpt>
      <trkpt lat="45.90805" lon="3.17666">
        <ele>319.6</ele>
        <time>2024-04-14T10:55:54Z</time>
      </trkpt>
      <trkpt lat="45.90798" lon="3.17663">
        <ele>319.6</ele>
        <time>2024-04-14T10:55:55Z</time>
      </trkpt>
      <trkpt lat="45.90791" lon="3.17661">
        <ele>319.8</ele>
        <time>2024-04-14T10:55:56Z</time>
      </trkpt>
      <trkpt lat="45.90784" lon="3.17659">
        <ele>319.8</ele>
        <time>2024-04-14T10:55:57Z</time>
      </trkpt>
      <trkpt lat="45.90777" lon="3.17656">
        <ele>319.8</ele>
        <time>2024-04-14T10:55:58Z</time>
      </trkpt>
      <trkpt lat="45.9077" lon="3.17654">
        <ele>319.8</ele>
        <time>2024-04-14T10:55:59Z</time>
      </trkpt>
      <trkpt lat="45.90763" lon="3.17651">
        <ele>319.8</ele>
        <time>2024-04-14T10:56:00Z</time>
      </trkpt>
      <trkpt lat="45.90756" lon="3.17649">
        <ele>319.8</ele>
        <time>2024-04-14T10:56:01Z</time>
      </trkpt>
      <trkpt lat="45.90749" lon="3.17646">
        <ele>319.8</ele>
        <time>2024-04-14T10:56:02Z</time>
      </trkpt>
      <trkpt lat="45.90742" lon="3.17644">
        <ele>319.8</ele>
        <time>2024-04-14T10:56:03Z</time>
      </trkpt>
      <trkpt lat="45.90736" lon="3.17642">
        <ele>319.8</ele>
        <time>2024-04-14T10:56:04Z</time>
      </trkpt>
      <trkpt lat="45.90729" lon="3.17639">
        <ele>319.6</ele>
        <time>2024-04-14T10:56:05Z</time>
      </trkpt>
      <trkpt lat="45.90722" lon="3.17637">
        <ele>319.6</ele>
        <time>2024-04-14T10:56:06Z</time>
      </trkpt>
      <trkpt lat="45.90715" lon="3.17636">
        <ele>319.6</ele>
        <time>2024-04-14T10:56:07Z</time>
      </trkpt>
      <trkpt lat="45.90708" lon="3.17635">
        <ele>319.6</ele>
        <time>2024-04-14T10:56:08Z</time>
      </trkpt>
      <trkpt lat="45.90701" lon="3.17634">
        <ele>319.6</ele>
        <time>2024-04-14T10:56:09Z</time>
      </trkpt>
      <trkpt lat="45.90694" lon="3.17633">
        <ele>319.4</ele>
        <time>2024-04-14T10:56:10Z</time>
      </trkpt>
      <trkpt lat="45.90687" lon="3.17632">
        <ele>319.4</ele>
        <time>2024-04-14T10:56:11Z</time>
      </trkpt>
      <trkpt lat="45.9068" lon="3.17631">
        <ele>319.6</ele>
        <time>2024-04-14T10:56:12Z</time>
      </trkpt>
      <trkpt lat="45.90673" lon="3.1763">
        <ele>319.6</ele>
        <time>2024-04-14T10:56:13Z</time>
      </trkpt>
      <trkpt lat="45.90666" lon="3.17628">
        <ele>319.6</ele>
        <time>2024-04-14T10:56:14Z</time>
      </trkpt>
      <trkpt lat="45.90659" lon="3.17627">
        <ele>319.6</ele>
        <time>2024-04-14T10:56:15Z</time>
      </trkpt>
      <trkpt lat="45.90652" lon="3.17626">
        <ele>319.6</ele>
        <time>2024-04-14T10:56:16Z</time>
      </trkpt>
      <trkpt lat="45.90645" lon="3.17625">
        <ele>319.6</ele>
        <time>2024-04-14T10:56:17Z</time>
      </trkpt>
      <trkpt lat="45.90639" lon="3.17624">
        <ele>319.4</ele>
        <time>2024-04-14T10:56:18Z</time>
      </trkpt>
      <trkpt lat="45.90632" lon="3.17623">
        <ele>319.6</ele>
        <time>2024-04-14T10:56:19Z</time>
      </trkpt>
      <trkpt lat="45.90626" lon="3.17622">
        <ele>319.8</ele>
        <time>2024-04-14T10:56:20Z</time>
      </trkpt>
      <trkpt lat="45.90619" lon="3.17621">
        <ele>319.8</ele>
        <time>2024-04-14T10:56:21Z</time>
      </trkpt>
      <trkpt lat="45.90613" lon="3.1762">
        <ele>319.8</ele>
        <time>2024-04-14T10:56:22Z</time>
      </trkpt>
      <trkpt lat="45.90607" lon="3.17619">
        <ele>319.8</ele>
        <time>2024-04-14T10:56:23Z</time>
      </trkpt>
      <trkpt lat="45.906" lon="3.17618">
        <ele>319.8</ele>
        <time>2024-04-14T10:56:24Z</time>
      </trkpt>
      <trkpt lat="45.90594" lon="3.17617">
        <ele>320</ele>
        <time>2024-04-14T10:56:25Z</time>
      </trkpt>
      <trkpt lat="45.90588" lon="3.17616">
        <ele>320</ele>
        <time>2024-04-14T10:56:26Z</time>
      </trkpt>
      <trkpt lat="45.90581" lon="3.17615">
        <ele>320</ele>
        <time>2024-04-14T10:56:27Z</time>
      </trkpt>
      <trkpt lat="45.90574" lon="3.17613">
        <ele>320</ele>
        <time>2024-04-14T10:56:28Z</time>
      </trkpt>
      <trkpt lat="45.90568" lon="3.17611">
        <ele>320</ele>
        <time>2024-04-14T10:56:29Z</time>
      </trkpt>
      <trkpt lat="45.90562" lon="3.17609">
        <ele>320</ele>
        <time>2024-04-14T10:56:30Z</time>
      </trkpt>
      <trkpt lat="45.90555" lon="3.17607">
        <ele>320.2</ele>
        <time>2024-04-14T10:56:31Z</time>
      </trkpt>
      <trkpt lat="45.90549" lon="3.17606">
        <ele>320.2</ele>
        <time>2024-04-14T10:56:32Z</time>
      </trkpt>
      <trkpt lat="45.90543" lon="3.17604">
        <ele>320.2</ele>
        <time>2024-04-14T10:56:33Z</time>
      </trkpt>
      <trkpt lat="45.90537" lon="3.17602">
        <ele>320.2</ele>
        <time>2024-04-14T10:56:34Z</time>
      </trkpt>
      <trkpt lat="45.90531" lon="3.176">
        <ele>320.2</ele>
        <time>2024-04-14T10:56:35Z</time>
      </trkpt>
      <trkpt lat="45.90524" lon="3.17598">
        <ele>320.2</ele>
        <time>2024-04-14T10:56:36Z</time>
      </trkpt>
      <trkpt lat="45.90517" lon="3.17597">
        <ele>320.2</ele>
        <time>2024-04-14T10:56:37Z</time>
      </trkpt>
      <trkpt lat="45.90511" lon="3.17595">
        <ele>320.2</ele>
        <time>2024-04-14T10:56:38Z</time>
      </trkpt>
      <trkpt lat="45.90504" lon="3.17593">
        <ele>320.2</ele>
        <time>2024-04-14T10:56:39Z</time>
      </trkpt>
      <trkpt lat="45.90497" lon="3.17591">
        <ele>320.2</ele>
        <time>2024-04-14T10:56:40Z</time>
      </trkpt>
      <trkpt lat="45.9049" lon="3.17589">
        <ele>320.2</ele>
        <time>2024-04-14T10:56:41Z</time>
      </trkpt>
      <trkpt lat="45.90483" lon="3.17587">
        <ele>320.2</ele>
        <time>2024-04-14T10:56:42Z</time>
      </trkpt>
      <trkpt lat="45.90476" lon="3.17585">
        <ele>320</ele>
        <time>2024-04-14T10:56:43Z</time>
      </trkpt>
      <trkpt lat="45.90469" lon="3.17583">
        <ele>320.4</ele>
        <time>2024-04-14T10:56:44Z</time>
      </trkpt>
      <trkpt lat="45.90461" lon="3.1758">
        <ele>320</ele>
        <time>2024-04-14T10:56:45Z</time>
      </trkpt>
      <trkpt lat="45.90454" lon="3.17578">
        <ele>319.6</ele>
        <time>2024-04-14T10:56:46Z</time>
      </trkpt>
      <trkpt lat="45.90447" lon="3.17576">
        <ele>319.8</ele>
        <time>2024-04-14T10:56:47Z</time>
      </trkpt>
      <trkpt lat="45.9044" lon="3.17574">
        <ele>319.8</ele>
        <time>2024-04-14T10:56:48Z</time>
      </trkpt>
      <trkpt lat="45.90433" lon="3.17572">
        <ele>319.6</ele>
        <time>2024-04-14T10:56:49Z</time>
      </trkpt>
      <trkpt lat="45.90426" lon="3.1757">
        <ele>319.6</ele>
        <time>2024-04-14T10:56:50Z</time>
      </trkpt>
      <trkpt lat="45.90418" lon="3.17568">
        <ele>319.6</ele>
        <time>2024-04-14T10:56:51Z</time>
      </trkpt>
      <trkpt lat="45.90412" lon="3.17566">
        <ele>319.4</ele>
        <time>2024-04-14T10:56:52Z</time>
      </trkpt>
      <trkpt lat="45.90405" lon="3.17564">
        <ele>319.4</ele>
        <time>2024-04-14T10:56:53Z</time>
      </trkpt>
      <trkpt lat="45.90398" lon="3.17562">
        <ele>319.4</ele>
        <time>2024-04-14T10:56:54Z</time>
      </trkpt>
      <trkpt lat="45.90391" lon="3.1756">
        <ele>319.4</ele>
        <time>2024-04-14T10:56:55Z</time>
      </trkpt>
      <trkpt lat="45.90385" lon="3.17558">
        <ele>319.4</ele>
        <time>2024-04-14T10:56:56Z</time>
      </trkpt>
      <trkpt lat="45.90378" lon="3.17556">
        <ele>319.4</ele>
        <time>2024-04-14T10:56:57Z</time>
      </trkpt>
      <trkpt lat="45.90371" lon="3.17555">
        <ele>319.4</ele>
        <time>2024-04-14T10:56:58Z</time>
      </trkpt>
      <trkpt lat="45.90365" lon="3.17553">
        <ele>319.4</ele>
        <time>2024-04-14T10:56:59Z</time>
      </trkpt>
      <trkpt lat="45.90359" lon="3.1755">
        <ele>319.4</ele>
        <time>2024-04-14T10:57:00Z</time>
      </trkpt>
      <trkpt lat="45.90352" lon="3.17547">
        <ele>319.4</ele>
        <time>2024-04-14T10:57:01Z</time>
      </trkpt>
      <trkpt lat="45.90345" lon="3.17546">
        <ele>319.4</ele>
        <time>2024-04-14T10:57:02Z</time>
      </trkpt>
      <trkpt lat="45.90339" lon="3.17544">
        <ele>319.4</ele>
        <time>2024-04-14T10:57:03Z</time>
      </trkpt>
      <trkpt lat="45.90332" lon="3.17542">
        <ele>319.4</ele>
        <time>2024-04-14T10:57:04Z</time>
      </trkpt>
      <trkpt lat="45.90325" lon="3.1754">
        <ele>319.4</ele>
        <time>2024-04-14T10:57:05Z</time>
      </trkpt>
      <trkpt lat="45.90325" lon="3.1754">
        <ele>319.4</ele>
        <time>2024-04-14T10:57:06Z</time>
      </trkpt>
      <trkpt lat="45.90311" lon="3.17537">
        <ele>319.4</ele>
        <time>2024-04-14T10:57:07Z</time>
      </trkpt>
      <trkpt lat="45.90304" lon="3.17535">
        <ele>319.2</ele>
        <time>2024-04-14T10:57:08Z</time>
      </trkpt>
      <trkpt lat="45.90298" lon="3.17533">
        <ele>319.2</ele>
        <time>2024-04-14T10:57:09Z</time>
      </trkpt>
      <trkpt lat="45.9029" lon="3.17531">
        <ele>319.2</ele>
        <time>2024-04-14T10:57:10Z</time>
      </trkpt>
      <trkpt lat="45.90284" lon="3.17529">
        <ele>319.2</ele>
        <time>2024-04-14T10:57:11Z</time>
      </trkpt>
      <trkpt lat="45.90277" lon="3.17528">
        <ele>319.2</ele>
        <time>2024-04-14T10:57:12Z</time>
      </trkpt>
      <trkpt lat="45.9027" lon="3.17526">
        <ele>319.2</ele>
        <time>2024-04-14T10:57:13Z</time>
      </trkpt>
      <trkpt lat="45.90263" lon="3.17524">
        <ele>319.2</ele>
        <time>2024-04-14T10:57:14Z</time>
      </trkpt>
      <trkpt lat="45.90256" lon="3.17522">
        <ele>319</ele>
        <time>2024-04-14T10:57:15Z</time>
      </trkpt>
      <trkpt lat="45.90249" lon="3.1752">
        <ele>319</ele>
        <time>2024-04-14T10:57:16Z</time>
      </trkpt>
      <trkpt lat="45.90242" lon="3.17519">
        <ele>319</ele>
        <time>2024-04-14T10:57:17Z</time>
      </trkpt>
      <trkpt lat="45.90235" lon="3.17517">
        <ele>319</ele>
        <time>2024-04-14T10:57:18Z</time>
      </trkpt>
      <trkpt lat="45.90228" lon="3.17515">
        <ele>319</ele>
        <time>2024-04-14T10:57:19Z</time>
      </trkpt>
      <trkpt lat="45.90221" lon="3.17513">
        <ele>319</ele>
        <time>2024-04-14T10:57:20Z</time>
      </trkpt>
      <trkpt lat="45.90214" lon="3.17511">
        <ele>319</ele>
        <time>2024-04-14T10:57:21Z</time>
      </trkpt>
      <trkpt lat="45.90207" lon="3.1751">
        <ele>319</ele>
        <time>2024-04-14T10:57:22Z</time>
      </trkpt>
      <trkpt lat="45.90201" lon="3.17508">
        <ele>319</ele>
        <time>2024-04-14T10:57:23Z</time>
      </trkpt>
      <trkpt lat="45.90194" lon="3.17506">
        <ele>318.8</ele>
        <time>2024-04-14T10:57:24Z</time>
      </trkpt>
      <trkpt lat="45.90187" lon="3.17504">
        <ele>319</ele>
        <time>2024-04-14T10:57:25Z</time>
      </trkpt>
      <trkpt lat="45.9018" lon="3.17503">
        <ele>319</ele>
        <time>2024-04-14T10:57:26Z</time>
      </trkpt>
      <trkpt lat="45.90173" lon="3.17501">
        <ele>319</ele>
        <time>2024-04-14T10:57:27Z</time>
      </trkpt>
      <trkpt lat="45.90167" lon="3.17499">
        <ele>319</ele>
        <time>2024-04-14T10:57:28Z</time>
      </trkpt>
      <trkpt lat="45.9016" lon="3.17497">
        <ele>319</ele>
        <time>2024-04-14T10:57:29Z</time>
      </trkpt>
      <trkpt lat="45.90153" lon="3.17496">
        <ele>319</ele>
        <time>2024-04-14T10:57:30Z</time>
      </trkpt>
      <trkpt lat="45.90146" lon="3.17494">
        <ele>319</ele>
        <time>2024-04-14T10:57:31Z</time>
      </trkpt>
      <trkpt lat="45.9014" lon="3.17492">
        <ele>319</ele>
        <time>2024-04-14T10:57:32Z</time>
      </trkpt>
      <trkpt lat="45.90133" lon="3.1749">
        <ele>319</ele>
        <time>2024-04-14T10:57:33Z</time>
      </trkpt>
      <trkpt lat="45.90126" lon="3.17489">
        <ele>318.8</ele>
        <time>2024-04-14T10:57:34Z</time>
      </trkpt>
      <trkpt lat="45.9012" lon="3.17487">
        <ele>318.8</ele>
        <time>2024-04-14T10:57:35Z</time>
      </trkpt>
      <trkpt lat="45.90113" lon="3.17485">
        <ele>318.8</ele>
        <time>2024-04-14T10:57:36Z</time>
      </trkpt>
      <trkpt lat="45.90106" lon="3.17483">
        <ele>318.8</ele>
        <time>2024-04-14T10:57:37Z</time>
      </trkpt>
      <trkpt lat="45.90099" lon="3.17482">
        <ele>318.8</ele>
        <time>2024-04-14T10:57:38Z</time>
      </trkpt>
      <trkpt lat="45.90093" lon="3.1748">
        <ele>318.8</ele>
        <time>2024-04-14T10:57:39Z</time>
      </trkpt>
      <trkpt lat="45.90086" lon="3.17478">
        <ele>318.8</ele>
        <time>2024-04-14T10:57:40Z</time>
      </trkpt>
      <trkpt lat="45.90079" lon="3.17476">
        <ele>318.8</ele>
        <time>2024-04-14T10:57:41Z</time>
      </trkpt>
      <trkpt lat="45.90072" lon="3.17475">
        <ele>318.8</ele>
        <time>2024-04-14T10:57:42Z</time>
      </trkpt>
      <trkpt lat="45.90065" lon="3.17473">
        <ele>318.8</ele>
        <time>2024-04-14T10:57:43Z</time>
      </trkpt>
      <trkpt lat="45.90059" lon="3.17471">
        <ele>318.8</ele>
        <time>2024-04-14T10:57:44Z</time>
      </trkpt>
      <trkpt lat="45.90052" lon="3.17469">
        <ele>318.8</ele>
        <time>2024-04-14T10:57:45Z</time>
      </trkpt>
      <trkpt lat="45.90045" lon="3.17467">
        <ele>318.8</ele>
        <time>2024-04-14T10:57:46Z</time>
      </trkpt>
      <trkpt lat="45.90038" lon="3.17466">
        <ele>318.8</ele>
        <time>2024-04-14T10:57:47Z</time>
      </trkpt>
      <trkpt lat="45.90031" lon="3.17464">
        <ele>318.8</ele>
        <time>2024-04-14T10:57:48Z</time>
      </trkpt>
      <trkpt lat="45.90024" lon="3.17462">
        <ele>318.8</ele>
        <time>2024-04-14T10:57:49Z</time>
      </trkpt>
      <trkpt lat="45.90017" lon="3.1746">
        <ele>318.8</ele>
        <time>2024-04-14T10:57:50Z</time>
      </trkpt>
      <trkpt lat="45.9001" lon="3.17458">
        <ele>318.8</ele>
        <time>2024-04-14T10:57:51Z</time>
      </trkpt>
      <trkpt lat="45.90003" lon="3.17457">
        <ele>318.8</ele>
        <time>2024-04-14T10:57:52Z</time>
      </trkpt>
      <trkpt lat="45.89996" lon="3.17455">
        <ele>318.6</ele>
        <time>2024-04-14T10:57:53Z</time>
      </trkpt>
      <trkpt lat="45.89989" lon="3.17453">
        <ele>318.6</ele>
        <time>2024-04-14T10:57:54Z</time>
      </trkpt>
      <trkpt lat="45.89982" lon="3.17451">
        <ele>318.6</ele>
        <time>2024-04-14T10:57:55Z</time>
      </trkpt>
      <trkpt lat="45.89976" lon="3.17449">
        <ele>318.6</ele>
        <time>2024-04-14T10:57:56Z</time>
      </trkpt>
      <trkpt lat="45.89969" lon="3.17449">
        <ele>318.6</ele>
        <time>2024-04-14T10:57:57Z</time>
      </trkpt>
      <trkpt lat="45.89962" lon="3.17449">
        <ele>318.6</ele>
        <time>2024-04-14T10:57:58Z</time>
      </trkpt>
      <trkpt lat="45.89955" lon="3.17449">
        <ele>318.6</ele>
        <time>2024-04-14T10:57:59Z</time>
      </trkpt>
      <trkpt lat="45.89948" lon="3.17449">
        <ele>318.6</ele>
        <time>2024-04-14T10:58:00Z</time>
      </trkpt>
      <trkpt lat="45.89942" lon="3.17449">
        <ele>318.6</ele>
        <time>2024-04-14T10:58:01Z</time>
      </trkpt>
      <trkpt lat="45.89935" lon="3.17449">
        <ele>318.6</ele>
        <time>2024-04-14T10:58:02Z</time>
      </trkpt>
      <trkpt lat="45.89928" lon="3.17449">
        <ele>318.6</ele>
        <time>2024-04-14T10:58:03Z</time>
      </trkpt>
      <trkpt lat="45.89921" lon="3.17449">
        <ele>318.6</ele>
        <time>2024-04-14T10:58:04Z</time>
      </trkpt>
      <trkpt lat="45.89914" lon="3.17449">
        <ele>318.6</ele>
        <time>2024-04-14T10:58:05Z</time>
      </trkpt>
      <trkpt lat="45.89907" lon="3.17449">
        <ele>318.6</ele>
        <time>2024-04-14T10:58:06Z</time>
      </trkpt>
      <trkpt lat="45.899" lon="3.17449">
        <ele>318.6</ele>
        <time>2024-04-14T10:58:07Z</time>
      </trkpt>
      <trkpt lat="45.89893" lon="3.17449">
        <ele>318.6</ele>
        <time>2024-04-14T10:58:08Z</time>
      </trkpt>
      <trkpt lat="45.89886" lon="3.17449">
        <ele>318.6</ele>
        <time>2024-04-14T10:58:09Z</time>
      </trkpt>
      <trkpt lat="45.89879" lon="3.17449">
        <ele>318.8</ele>
        <time>2024-04-14T10:58:10Z</time>
      </trkpt>
      <trkpt lat="45.89872" lon="3.17449">
        <ele>318.8</ele>
        <time>2024-04-14T10:58:11Z</time>
      </trkpt>
      <trkpt lat="45.89865" lon="3.17449">
        <ele>318.8</ele>
        <time>2024-04-14T10:58:12Z</time>
      </trkpt>
      <trkpt lat="45.89858" lon="3.17449">
        <ele>318.8</ele>
        <time>2024-04-14T10:58:13Z</time>
      </trkpt>
      <trkpt lat="45.89851" lon="3.17449">
        <ele>318.8</ele>
        <time>2024-04-14T10:58:14Z</time>
      </trkpt>
      <trkpt lat="45.89843" lon="3.17449">
        <ele>318.8</ele>
        <time>2024-04-14T10:58:15Z</time>
      </trkpt>
      <trkpt lat="45.89836" lon="3.17449">
        <ele>318.6</ele>
        <time>2024-04-14T10:58:16Z</time>
      </trkpt>
      <trkpt lat="45.89829" lon="3.17449">
        <ele>318.6</ele>
        <time>2024-04-14T10:58:17Z</time>
      </trkpt>
      <trkpt lat="45.89822" lon="3.1745">
        <ele>318.6</ele>
        <time>2024-04-14T10:58:18Z</time>
      </trkpt>
      <trkpt lat="45.89815" lon="3.17451">
        <ele>318.6</ele>
        <time>2024-04-14T10:58:19Z</time>
      </trkpt>
      <trkpt lat="45.89809" lon="3.17453">
        <ele>318.6</ele>
        <time>2024-04-14T10:58:20Z</time>
      </trkpt>
      <trkpt lat="45.89802" lon="3.17455">
        <ele>318.6</ele>
        <time>2024-04-14T10:58:21Z</time>
      </trkpt>
      <trkpt lat="45.89797" lon="3.17457">
        <ele>318.6</ele>
        <time>2024-04-14T10:58:22Z</time>
      </trkpt>
      <trkpt lat="45.89791" lon="3.17458">
        <ele>318.6</ele>
        <time>2024-04-14T10:58:23Z</time>
      </trkpt>
      <trkpt lat="45.89785" lon="3.17475">
        <ele>318.6</ele>
        <time>2024-04-14T10:58:24Z</time>
      </trkpt>
      <trkpt lat="45.89784" lon="3.17483">
        <ele>318.6</ele>
        <time>2024-04-14T10:58:25Z</time>
      </trkpt>
      <trkpt lat="45.89784" lon="3.17492">
        <ele>318.6</ele>
        <time>2024-04-14T10:58:26Z</time>
      </trkpt>
      <trkpt lat="45.89784" lon="3.17502">
        <ele>318.6</ele>
        <time>2024-04-14T10:58:27Z</time>
      </trkpt>
      <trkpt lat="45.89783" lon="3.17512">
        <ele>318.4</ele>
        <time>2024-04-14T10:58:28Z</time>
      </trkpt>
      <trkpt lat="45.89783" lon="3.17522">
        <ele>318.4</ele>
        <time>2024-04-14T10:58:29Z</time>
      </trkpt>
      <trkpt lat="45.89782" lon="3.17532">
        <ele>318.4</ele>
        <time>2024-04-14T10:58:30Z</time>
      </trkpt>
      <trkpt lat="45.89782" lon="3.17542">
        <ele>318.4</ele>
        <time>2024-04-14T10:58:31Z</time>
      </trkpt>
      <trkpt lat="45.89782" lon="3.17552">
        <ele>318.4</ele>
        <time>2024-04-14T10:58:32Z</time>
      </trkpt>
      <trkpt lat="45.89781" lon="3.17562">
        <ele>318.4</ele>
        <time>2024-04-14T10:58:33Z</time>
      </trkpt>
      <trkpt lat="45.89781" lon="3.17572">
        <ele>318.4</ele>
        <time>2024-04-14T10:58:34Z</time>
      </trkpt>
      <trkpt lat="45.8978" lon="3.17582">
        <ele>318.4</ele>
        <time>2024-04-14T10:58:35Z</time>
      </trkpt>
      <trkpt lat="45.8978" lon="3.17592">
        <ele>318.4</ele>
        <time>2024-04-14T10:58:36Z</time>
      </trkpt>
      <trkpt lat="45.8978" lon="3.17602">
        <ele>318.4</ele>
        <time>2024-04-14T10:58:37Z</time>
      </trkpt>
      <trkpt lat="45.89779" lon="3.17612">
        <ele>318.4</ele>
        <time>2024-04-14T10:58:38Z</time>
      </trkpt>
      <trkpt lat="45.89779" lon="3.17622">
        <ele>318.4</ele>
        <time>2024-04-14T10:58:39Z</time>
      </trkpt>
      <trkpt lat="45.89778" lon="3.17632">
        <ele>318.4</ele>
        <time>2024-04-14T10:58:40Z</time>
      </trkpt>
      <trkpt lat="45.89778" lon="3.17642">
        <ele>318.4</ele>
        <time>2024-04-14T10:58:41Z</time>
      </trkpt>
      <trkpt lat="45.89778" lon="3.17653">
        <ele>318.2</ele>
        <time>2024-04-14T10:58:42Z</time>
      </trkpt>
      <trkpt lat="45.89777" lon="3.17663">
        <ele>318.2</ele>
        <time>2024-04-14T10:58:43Z</time>
      </trkpt>
      <trkpt lat="45.89777" lon="3.17673">
        <ele>318.2</ele>
        <time>2024-04-14T10:58:44Z</time>
      </trkpt>
      <trkpt lat="45.89777" lon="3.17683">
        <ele>318.2</ele>
        <time>2024-04-14T10:58:45Z</time>
      </trkpt>
      <trkpt lat="45.89777" lon="3.17694">
        <ele>318.2</ele>
        <time>2024-04-14T10:58:46Z</time>
      </trkpt>
      <trkpt lat="45.89777" lon="3.17704">
        <ele>318.2</ele>
        <time>2024-04-14T10:58:47Z</time>
      </trkpt>
      <trkpt lat="45.89777" lon="3.17714">
        <ele>318.2</ele>
        <time>2024-04-14T10:58:48Z</time>
      </trkpt>
      <trkpt lat="45.89777" lon="3.17725">
        <ele>318.2</ele>
        <time>2024-04-14T10:58:49Z</time>
      </trkpt>
      <trkpt lat="45.89778" lon="3.17735">
        <ele>318.2</ele>
        <time>2024-04-14T10:58:50Z</time>
      </trkpt>
      <trkpt lat="45.89778" lon="3.17745">
        <ele>318.2</ele>
        <time>2024-04-14T10:58:51Z</time>
      </trkpt>
      <trkpt lat="45.89778" lon="3.17756">
        <ele>318.2</ele>
        <time>2024-04-14T10:58:52Z</time>
      </trkpt>
      <trkpt lat="45.89778" lon="3.17766">
        <ele>318.2</ele>
        <time>2024-04-14T10:58:53Z</time>
      </trkpt>
      <trkpt lat="45.89778" lon="3.17776">
        <ele>318.2</ele>
        <time>2024-04-14T10:58:54Z</time>
      </trkpt>
      <trkpt lat="45.89778" lon="3.17786">
        <ele>318.2</ele>
        <time>2024-04-14T10:58:55Z</time>
      </trkpt>
      <trkpt lat="45.89778" lon="3.17797">
        <ele>318.2</ele>
        <time>2024-04-14T10:58:56Z</time>
      </trkpt>
      <trkpt lat="45.89779" lon="3.17807">
        <ele>318.2</ele>
        <time>2024-04-14T10:58:57Z</time>
      </trkpt>
      <trkpt lat="45.89779" lon="3.17817">
        <ele>318.2</ele>
        <time>2024-04-14T10:58:58Z</time>
      </trkpt>
      <trkpt lat="45.89779" lon="3.17828">
        <ele>318.2</ele>
        <time>2024-04-14T10:58:59Z</time>
      </trkpt>
      <trkpt lat="45.89778" lon="3.17838">
        <ele>318.2</ele>
        <time>2024-04-14T10:59:00Z</time>
      </trkpt>
      <trkpt lat="45.89777" lon="3.17848">
        <ele>318.2</ele>
        <time>2024-04-14T10:59:01Z</time>
      </trkpt>
      <trkpt lat="45.89776" lon="3.17858">
        <ele>318.4</ele>
        <time>2024-04-14T10:59:02Z</time>
      </trkpt>
      <trkpt lat="45.89773" lon="3.17867">
        <ele>318.2</ele>
        <time>2024-04-14T10:59:03Z</time>
      </trkpt>
      <trkpt lat="45.89768" lon="3.17873">
        <ele>318.4</ele>
        <time>2024-04-14T10:59:04Z</time>
      </trkpt>
      <trkpt lat="45.89763" lon="3.1788">
        <ele>318.4</ele>
        <time>2024-04-14T10:59:05Z</time>
      </trkpt>
      <trkpt lat="45.89757" lon="3.17886">
        <ele>318.4</ele>
        <time>2024-04-14T10:59:06Z</time>
      </trkpt>
      <trkpt lat="45.89752" lon="3.17891">
        <ele>318.4</ele>
        <time>2024-04-14T10:59:07Z</time>
      </trkpt>
      <trkpt lat="45.89745" lon="3.17895">
        <ele>318.4</ele>
        <time>2024-04-14T10:59:08Z</time>
      </trkpt>
      <trkpt lat="45.89738" lon="3.17898">
        <ele>318.4</ele>
        <time>2024-04-14T10:59:09Z</time>
      </trkpt>
      <trkpt lat="45.89731" lon="3.17902">
        <ele>318.4</ele>
        <time>2024-04-14T10:59:10Z</time>
      </trkpt>
      <trkpt lat="45.89724" lon="3.17906">
        <ele>318.4</ele>
        <time>2024-04-14T10:59:11Z</time>
      </trkpt>
      <trkpt lat="45.89717" lon="3.17909">
        <ele>318.4</ele>
        <time>2024-04-14T10:59:12Z</time>
      </trkpt>
      <trkpt lat="45.8971" lon="3.17913">
        <ele>318.4</ele>
        <time>2024-04-14T10:59:13Z</time>
      </trkpt>
      <trkpt lat="45.89703" lon="3.17916">
        <ele>318.4</ele>
        <time>2024-04-14T10:59:14Z</time>
      </trkpt>
      <trkpt lat="45.89696" lon="3.1792">
        <ele>318.4</ele>
        <time>2024-04-14T10:59:15Z</time>
      </trkpt>
      <trkpt lat="45.8969" lon="3.17923">
        <ele>318.4</ele>
        <time>2024-04-14T10:59:16Z</time>
      </trkpt>
      <trkpt lat="45.89683" lon="3.17927">
        <ele>318.4</ele>
        <time>2024-04-14T10:59:17Z</time>
      </trkpt>
      <trkpt lat="45.89676" lon="3.1793">
        <ele>318.4</ele>
        <time>2024-04-14T10:59:18Z</time>
      </trkpt>
      <trkpt lat="45.8967" lon="3.17934">
        <ele>318.4</ele>
        <time>2024-04-14T10:59:19Z</time>
      </trkpt>
      <trkpt lat="45.89663" lon="3.17937">
        <ele>318.4</ele>
        <time>2024-04-14T10:59:20Z</time>
      </trkpt>
      <trkpt lat="45.89657" lon="3.1794">
        <ele>318.4</ele>
        <time>2024-04-14T10:59:21Z</time>
      </trkpt>
      <trkpt lat="45.8965" lon="3.17944">
        <ele>318.4</ele>
        <time>2024-04-14T10:59:22Z</time>
      </trkpt>
      <trkpt lat="45.89644" lon="3.17947">
        <ele>318.4</ele>
        <time>2024-04-14T10:59:23Z</time>
      </trkpt>
      <trkpt lat="45.89637" lon="3.17951">
        <ele>318.4</ele>
        <time>2024-04-14T10:59:24Z</time>
      </trkpt>
      <trkpt lat="45.89631" lon="3.17954">
        <ele>318.4</ele>
        <time>2024-04-14T10:59:25Z</time>
      </trkpt>
      <trkpt lat="45.89624" lon="3.17957">
        <ele>318.4</ele>
        <time>2024-04-14T10:59:26Z</time>
      </trkpt>
      <trkpt lat="45.89617" lon="3.17961">
        <ele>318.4</ele>
        <time>2024-04-14T10:59:27Z</time>
      </trkpt>
      <trkpt lat="45.89611" lon="3.17964">
        <ele>318.4</ele>
        <time>2024-04-14T10:59:28Z</time>
      </trkpt>
      <trkpt lat="45.89603" lon="3.17966">
        <ele>318.4</ele>
        <time>2024-04-14T10:59:29Z</time>
      </trkpt>
      <trkpt lat="45.89596" lon="3.17965">
        <ele>318.4</ele>
        <time>2024-04-14T10:59:30Z</time>
      </trkpt>
      <trkpt lat="45.89589" lon="3.17964">
        <ele>318.4</ele>
        <time>2024-04-14T10:59:31Z</time>
      </trkpt>
      <trkpt lat="45.89582" lon="3.17963">
        <ele>318.4</ele>
        <time>2024-04-14T10:59:32Z</time>
      </trkpt>
      <trkpt lat="45.89575" lon="3.17962">
        <ele>318.4</ele>
        <time>2024-04-14T10:59:33Z</time>
      </trkpt>
      <trkpt lat="45.89568" lon="3.17961">
        <ele>318.6</ele>
        <time>2024-04-14T10:59:34Z</time>
      </trkpt>
      <trkpt lat="45.89561" lon="3.1796">
        <ele>318.6</ele>
        <time>2024-04-14T10:59:35Z</time>
      </trkpt>
      <trkpt lat="45.89555" lon="3.1796">
        <ele>318.6</ele>
        <time>2024-04-14T10:59:36Z</time>
      </trkpt>
      <trkpt lat="45.89548" lon="3.17959">
        <ele>318.6</ele>
        <time>2024-04-14T10:59:37Z</time>
      </trkpt>
      <trkpt lat="45.89541" lon="3.17958">
        <ele>318.6</ele>
        <time>2024-04-14T10:59:38Z</time>
      </trkpt>
      <trkpt lat="45.89534" lon="3.17957">
        <ele>318.4</ele>
        <time>2024-04-14T10:59:39Z</time>
      </trkpt>
      <trkpt lat="45.89527" lon="3.17956">
        <ele>318.4</ele>
        <time>2024-04-14T10:59:40Z</time>
      </trkpt>
      <trkpt lat="45.8952" lon="3.17955">
        <ele>318.4</ele>
        <time>2024-04-14T10:59:41Z</time>
      </trkpt>
      <trkpt lat="45.89513" lon="3.17954">
        <ele>318.6</ele>
        <time>2024-04-14T10:59:42Z</time>
      </trkpt>
      <trkpt lat="45.89506" lon="3.17954">
        <ele>318.6</ele>
        <time>2024-04-14T10:59:43Z</time>
      </trkpt>
      <trkpt lat="45.89499" lon="3.17952">
        <ele>318.4</ele>
        <time>2024-04-14T10:59:44Z</time>
      </trkpt>
      <trkpt lat="45.89492" lon="3.17951">
        <ele>318.4</ele>
        <time>2024-04-14T10:59:45Z</time>
      </trkpt>
      <trkpt lat="45.89485" lon="3.1795">
        <ele>318.4</ele>
        <time>2024-04-14T10:59:46Z</time>
      </trkpt>
      <trkpt lat="45.89478" lon="3.17949">
        <ele>318.4</ele>
        <time>2024-04-14T10:59:47Z</time>
      </trkpt>
      <trkpt lat="45.89471" lon="3.17947">
        <ele>318.4</ele>
        <time>2024-04-14T10:59:48Z</time>
      </trkpt>
      <trkpt lat="45.89464" lon="3.17946">
        <ele>318.4</ele>
        <time>2024-04-14T10:59:49Z</time>
      </trkpt>
      <trkpt lat="45.89457" lon="3.17945">
        <ele>318.4</ele>
        <time>2024-04-14T10:59:50Z</time>
      </trkpt>
      <trkpt lat="45.8945" lon="3.17944">
        <ele>318.4</ele>
        <time>2024-04-14T10:59:51Z</time>
      </trkpt>
      <trkpt lat="45.89443" lon="3.17942">
        <ele>318.4</ele>
        <time>2024-04-14T10:59:52Z</time>
      </trkpt>
      <trkpt lat="45.89436" lon="3.17941">
        <ele>318.2</ele>
        <time>2024-04-14T10:59:53Z</time>
      </trkpt>
      <trkpt lat="45.89429" lon="3.1794">
        <ele>318.2</ele>
        <time>2024-04-14T10:59:54Z</time>
      </trkpt>
      <trkpt lat="45.89422" lon="3.17939">
        <ele>318.2</ele>
        <time>2024-04-14T10:59:55Z</time>
      </trkpt>
      <trkpt lat="45.89415" lon="3.17937">
        <ele>318.2</ele>
        <time>2024-04-14T10:59:56Z</time>
      </trkpt>
      <trkpt lat="45.89408" lon="3.17936">
        <ele>318.2</ele>
        <time>2024-04-14T10:59:57Z</time>
      </trkpt>
      <trkpt lat="45.89401" lon="3.17935">
        <ele>318.2</ele>
        <time>2024-04-14T10:59:58Z</time>
      </trkpt>
      <trkpt lat="45.89394" lon="3.17934">
        <ele>318.2</ele>
        <time>2024-04-14T10:59:59Z</time>
      </trkpt>
      <trkpt lat="45.89387" lon="3.17933">
        <ele>318.2</ele>
        <time>2024-04-14T11:00:00Z</time>
      </trkpt>
      <trkpt lat="45.8938" lon="3.17932">
        <ele>318.2</ele>
        <time>2024-04-14T11:00:01Z</time>
      </trkpt>
      <trkpt lat="45.89373" lon="3.17931">
        <ele>318.2</ele>
        <time>2024-04-14T11:00:02Z</time>
      </trkpt>
      <trkpt lat="45.89366" lon="3.1793">
        <ele>318.2</ele>
        <time>2024-04-14T11:00:03Z</time>
      </trkpt>
      <trkpt lat="45.89359" lon="3.17929">
        <ele>318</ele>
        <time>2024-04-14T11:00:04Z</time>
      </trkpt>
      <trkpt lat="45.89352" lon="3.17928">
        <ele>318</ele>
        <time>2024-04-14T11:00:05Z</time>
      </trkpt>
      <trkpt lat="45.89345" lon="3.17927">
        <ele>318</ele>
        <time>2024-04-14T11:00:06Z</time>
      </trkpt>
      <trkpt lat="45.89338" lon="3.17926">
        <ele>318</ele>
        <time>2024-04-14T11:00:07Z</time>
      </trkpt>
      <trkpt lat="45.89331" lon="3.17925">
        <ele>318</ele>
        <time>2024-04-14T11:00:08Z</time>
      </trkpt>
      <trkpt lat="45.89324" lon="3.17924">
        <ele>318</ele>
        <time>2024-04-14T11:00:09Z</time>
      </trkpt>
      <trkpt lat="45.89317" lon="3.17923">
        <ele>318</ele>
        <time>2024-04-14T11:00:10Z</time>
      </trkpt>
      <trkpt lat="45.89311" lon="3.17922">
        <ele>318</ele>
        <time>2024-04-14T11:00:11Z</time>
      </trkpt>
      <trkpt lat="45.89304" lon="3.17921">
        <ele>318</ele>
        <time>2024-04-14T11:00:12Z</time>
      </trkpt>
      <trkpt lat="45.89297" lon="3.1792">
        <ele>317.8</ele>
        <time>2024-04-14T11:00:13Z</time>
      </trkpt>
      <trkpt lat="45.89291" lon="3.17919">
        <ele>317.8</ele>
        <time>2024-04-14T11:00:14Z</time>
      </trkpt>
      <trkpt lat="45.89284" lon="3.17919">
        <ele>317.8</ele>
        <time>2024-04-14T11:00:15Z</time>
      </trkpt>
      <trkpt lat="45.89278" lon="3.17918">
        <ele>317.8</ele>
        <time>2024-04-14T11:00:16Z</time>
      </trkpt>
      <trkpt lat="45.89271" lon="3.17917">
        <ele>317.8</ele>
        <time>2024-04-14T11:00:17Z</time>
      </trkpt>
      <trkpt lat="45.89264" lon="3.17916">
        <ele>317.8</ele>
        <time>2024-04-14T11:00:18Z</time>
      </trkpt>
      <trkpt lat="45.89257" lon="3.17915">
        <ele>317.8</ele>
        <time>2024-04-14T11:00:19Z</time>
      </trkpt>
      <trkpt lat="45.89251" lon="3.17913">
        <ele>317.8</ele>
        <time>2024-04-14T11:00:20Z</time>
      </trkpt>
      <trkpt lat="45.89244" lon="3.17912">
        <ele>317.8</ele>
        <time>2024-04-14T11:00:21Z</time>
      </trkpt>
      <trkpt lat="45.89237" lon="3.17911">
        <ele>317.6</ele>
        <time>2024-04-14T11:00:22Z</time>
      </trkpt>
      <trkpt lat="45.8923" lon="3.1791">
        <ele>317.8</ele>
        <time>2024-04-14T11:00:23Z</time>
      </trkpt>
      <trkpt lat="45.89223" lon="3.17908">
        <ele>317.6</ele>
        <time>2024-04-14T11:00:24Z</time>
      </trkpt>
      <trkpt lat="45.89216" lon="3.17907">
        <ele>317.6</ele>
        <time>2024-04-14T11:00:25Z</time>
      </trkpt>
      <trkpt lat="45.8921" lon="3.17905">
        <ele>317.8</ele>
        <time>2024-04-14T11:00:26Z</time>
      </trkpt>
      <trkpt lat="45.89203" lon="3.17904">
        <ele>317.8</ele>
        <time>2024-04-14T11:00:27Z</time>
      </trkpt>
      <trkpt lat="45.89196" lon="3.17903">
        <ele>317.8</ele>
        <time>2024-04-14T11:00:28Z</time>
      </trkpt>
      <trkpt lat="45.89189" lon="3.17902">
        <ele>317.8</ele>
        <time>2024-04-14T11:00:29Z</time>
      </trkpt>
      <trkpt lat="45.89182" lon="3.17901">
        <ele>317.8</ele>
        <time>2024-04-14T11:00:30Z</time>
      </trkpt>
      <trkpt lat="45.89175" lon="3.179">
        <ele>317.8</ele>
        <time>2024-04-14T11:00:31Z</time>
      </trkpt>
      <trkpt lat="45.89168" lon="3.17899">
        <ele>317.6</ele>
        <time>2024-04-14T11:00:32Z</time>
      </trkpt>
      <trkpt lat="45.89162" lon="3.17898">
        <ele>317.8</ele>
        <time>2024-04-14T11:00:33Z</time>
      </trkpt>
      <trkpt lat="45.89155" lon="3.17897">
        <ele>317.8</ele>
        <time>2024-04-14T11:00:34Z</time>
      </trkpt>
      <trkpt lat="45.89148" lon="3.17896">
        <ele>317.8</ele>
        <time>2024-04-14T11:00:35Z</time>
      </trkpt>
      <trkpt lat="45.89141" lon="3.17895">
        <ele>317.8</ele>
        <time>2024-04-14T11:00:36Z</time>
      </trkpt>
      <trkpt lat="45.89135" lon="3.17893">
        <ele>317.8</ele>
        <time>2024-04-14T11:00:37Z</time>
      </trkpt>
      <trkpt lat="45.89128" lon="3.17892">
        <ele>317.8</ele>
        <time>2024-04-14T11:00:38Z</time>
      </trkpt>
      <trkpt lat="45.89121" lon="3.17891">
        <ele>317.6</ele>
        <time>2024-04-14T11:00:39Z</time>
      </trkpt>
      <trkpt lat="45.89115" lon="3.1789">
        <ele>317.8</ele>
        <time>2024-04-14T11:00:40Z</time>
      </trkpt>
      <trkpt lat="45.89108" lon="3.17889">
        <ele>317.8</ele>
        <time>2024-04-14T11:00:41Z</time>
      </trkpt>
      <trkpt lat="45.89102" lon="3.17888">
        <ele>317.8</ele>
        <time>2024-04-14T11:00:42Z</time>
      </trkpt>
      <trkpt lat="45.89095" lon="3.17887">
        <ele>317.6</ele>
        <time>2024-04-14T11:00:43Z</time>
      </trkpt>
      <trkpt lat="45.89089" lon="3.17886">
        <ele>317.8</ele>
        <time>2024-04-14T11:00:44Z</time>
      </trkpt>
      <trkpt lat="45.89082" lon="3.17885">
        <ele>317.8</ele>
        <time>2024-04-14T11:00:45Z</time>
      </trkpt>
      <trkpt lat="45.89076" lon="3.17884">
        <ele>317.8</ele>
        <time>2024-04-14T11:00:46Z</time>
      </trkpt>
      <trkpt lat="45.89069" lon="3.17883">
        <ele>317.8</ele>
        <time>2024-04-14T11:00:47Z</time>
      </trkpt>
      <trkpt lat="45.89063" lon="3.17882">
        <ele>317.6</ele>
        <time>2024-04-14T11:00:48Z</time>
      </trkpt>
      <trkpt lat="45.89056" lon="3.17881">
        <ele>317.6</ele>
        <time>2024-04-14T11:00:49Z</time>
      </trkpt>
      <trkpt lat="45.8905" lon="3.1788">
        <ele>317.6</ele>
        <time>2024-04-14T11:00:50Z</time>
      </trkpt>
      <trkpt lat="45.89043" lon="3.17879">
        <ele>317.6</ele>
        <time>2024-04-14T11:00:51Z</time>
      </trkpt>
      <trkpt lat="45.89036" lon="3.17878">
        <ele>317.6</ele>
        <time>2024-04-14T11:00:52Z</time>
      </trkpt>
      <trkpt lat="45.89029" lon="3.17877">
        <ele>317.6</ele>
        <time>2024-04-14T11:00:53Z</time>
      </trkpt>
      <trkpt lat="45.89022" lon="3.17876">
        <ele>317.6</ele>
        <time>2024-04-14T11:00:54Z</time>
      </trkpt>
      <trkpt lat="45.89016" lon="3.17875">
        <ele>317.6</ele>
        <time>2024-04-14T11:00:55Z</time>
      </trkpt>
      <trkpt lat="45.89009" lon="3.17874">
        <ele>317.6</ele>
        <time>2024-04-14T11:00:56Z</time>
      </trkpt>
      <trkpt lat="45.89002" lon="3.17873">
        <ele>317.6</ele>
        <time>2024-04-14T11:00:57Z</time>
      </trkpt>
      <trkpt lat="45.88995" lon="3.17871">
        <ele>317.6</ele>
        <time>2024-04-14T11:00:58Z</time>
      </trkpt>
      <trkpt lat="45.88989" lon="3.1787">
        <ele>317.6</ele>
        <time>2024-04-14T11:00:59Z</time>
      </trkpt>
      <trkpt lat="45.88982" lon="3.17869">
        <ele>317.6</ele>
        <time>2024-04-14T11:01:00Z</time>
      </trkpt>
      <trkpt lat="45.88975" lon="3.17868">
        <ele>317.6</ele>
        <time>2024-04-14T11:01:01Z</time>
      </trkpt>
      <trkpt lat="45.88968" lon="3.17867">
        <ele>317.6</ele>
        <time>2024-04-14T11:01:02Z</time>
      </trkpt>
      <trkpt lat="45.88962" lon="3.17866">
        <ele>317.6</ele>
        <time>2024-04-14T11:01:03Z</time>
      </trkpt>
      <trkpt lat="45.88955" lon="3.17865">
        <ele>317.6</ele>
        <time>2024-04-14T11:01:04Z</time>
      </trkpt>
      <trkpt lat="45.88948" lon="3.17864">
        <ele>317.6</ele>
        <time>2024-04-14T11:01:05Z</time>
      </trkpt>
      <trkpt lat="45.88942" lon="3.17863">
        <ele>317.6</ele>
        <time>2024-04-14T11:01:06Z</time>
      </trkpt>
      <trkpt lat="45.88935" lon="3.17862">
        <ele>317.6</ele>
        <time>2024-04-14T11:01:07Z</time>
      </trkpt>
      <trkpt lat="45.88929" lon="3.17861">
        <ele>317.6</ele>
        <time>2024-04-14T11:01:08Z</time>
      </trkpt>
      <trkpt lat="45.88923" lon="3.1786">
        <ele>317.6</ele>
        <time>2024-04-14T11:01:09Z</time>
      </trkpt>
      <trkpt lat="45.88917" lon="3.17859">
        <ele>317.6</ele>
        <time>2024-04-14T11:01:10Z</time>
      </trkpt>
      <trkpt lat="45.88911" lon="3.17857">
        <ele>317.6</ele>
        <time>2024-04-14T11:01:11Z</time>
      </trkpt>
      <trkpt lat="45.88905" lon="3.17854">
        <ele>317.6</ele>
        <time>2024-04-14T11:01:12Z</time>
      </trkpt>
      <trkpt lat="45.88901" lon="3.17852">
        <ele>317.6</ele>
        <time>2024-04-14T11:01:13Z</time>
      </trkpt>
      <trkpt lat="45.88897" lon="3.1785">
        <ele>317.6</ele>
        <time>2024-04-14T11:01:14Z</time>
      </trkpt>
      <trkpt lat="45.88893" lon="3.17849">
        <ele>317.6</ele>
        <time>2024-04-14T11:01:15Z</time>
      </trkpt>
      <trkpt lat="45.88891" lon="3.17848">
        <ele>317.6</ele>
        <time>2024-04-14T11:01:16Z</time>
      </trkpt>
      <trkpt lat="45.88889" lon="3.17847">
        <ele>317.6</ele>
        <time>2024-04-14T11:01:17Z</time>
      </trkpt>
      <trkpt lat="45.88887" lon="3.17846">
        <ele>317.4</ele>
        <time>2024-04-14T11:01:18Z</time>
      </trkpt>
      <trkpt lat="45.88885" lon="3.17845">
        <ele>317.6</ele>
        <time>2024-04-14T11:01:19Z</time>
      </trkpt>
      <trkpt lat="45.88882" lon="3.17844">
        <ele>317.6</ele>
        <time>2024-04-14T11:01:20Z</time>
      </trkpt>
      <trkpt lat="45.88878" lon="3.17845">
        <ele>317.6</ele>
        <time>2024-04-14T11:01:21Z</time>
      </trkpt>
      <trkpt lat="45.88874" lon="3.17846">
        <ele>317.6</ele>
        <time>2024-04-14T11:01:22Z</time>
      </trkpt>
      <trkpt lat="45.88869" lon="3.17848">
        <ele>317.6</ele>
        <time>2024-04-14T11:01:23Z</time>
      </trkpt>
      <trkpt lat="45.88864" lon="3.17849">
        <ele>317.6</ele>
        <time>2024-04-14T11:01:24Z</time>
      </trkpt>
      <trkpt lat="45.88858" lon="3.17851">
        <ele>317.6</ele>
        <time>2024-04-14T11:01:25Z</time>
      </trkpt>
      <trkpt lat="45.88852" lon="3.17853">
        <ele>317.6</ele>
        <time>2024-04-14T11:01:26Z</time>
      </trkpt>
      <trkpt lat="45.88846" lon="3.17854">
        <ele>317.6</ele>
        <time>2024-04-14T11:01:27Z</time>
      </trkpt>
      <trkpt lat="45.88839" lon="3.17854">
        <ele>317.6</ele>
        <time>2024-04-14T11:01:28Z</time>
      </trkpt>
      <trkpt lat="45.88832" lon="3.17854">
        <ele>317.4</ele>
        <time>2024-04-14T11:01:29Z</time>
      </trkpt>
      <trkpt lat="45.88826" lon="3.17854">
        <ele>317.4</ele>
        <time>2024-04-14T11:01:30Z</time>
      </trkpt>
      <trkpt lat="45.88819" lon="3.17853">
        <ele>317.4</ele>
        <time>2024-04-14T11:01:31Z</time>
      </trkpt>
      <trkpt lat="45.88812" lon="3.17853">
        <ele>317.4</ele>
        <time>2024-04-14T11:01:32Z</time>
      </trkpt>
      <trkpt lat="45.88806" lon="3.17852">
        <ele>317.4</ele>
        <time>2024-04-14T11:01:33Z</time>
      </trkpt>
      <trkpt lat="45.88799" lon="3.17852">
        <ele>317.4</ele>
        <time>2024-04-14T11:01:34Z</time>
      </trkpt>
      <trkpt lat="45.88792" lon="3.17852">
        <ele>317.4</ele>
        <time>2024-04-14T11:01:35Z</time>
      </trkpt>
      <trkpt lat="45.88785" lon="3.17851">
        <ele>317.4</ele>
        <time>2024-04-14T11:01:36Z</time>
      </trkpt>
      <trkpt lat="45.88778" lon="3.17851">
        <ele>317.4</ele>
        <time>2024-04-14T11:01:37Z</time>
      </trkpt>
      <trkpt lat="45.88772" lon="3.1785">
        <ele>317.4</ele>
        <time>2024-04-14T11:01:38Z</time>
      </trkpt>
      <trkpt lat="45.88765" lon="3.1785">
        <ele>317.4</ele>
        <time>2024-04-14T11:01:39Z</time>
      </trkpt>
      <trkpt lat="45.88758" lon="3.1785">
        <ele>317.4</ele>
        <time>2024-04-14T11:01:40Z</time>
      </trkpt>
      <trkpt lat="45.88751" lon="3.17849">
        <ele>317.4</ele>
        <time>2024-04-14T11:01:41Z</time>
      </trkpt>
      <trkpt lat="45.88745" lon="3.17849">
        <ele>317.4</ele>
        <time>2024-04-14T11:01:42Z</time>
      </trkpt>
      <trkpt lat="45.88738" lon="3.17848">
        <ele>317.4</ele>
        <time>2024-04-14T11:01:43Z</time>
      </trkpt>
      <trkpt lat="45.88731" lon="3.17848">
        <ele>317.4</ele>
        <time>2024-04-14T11:01:44Z</time>
      </trkpt>
      <trkpt lat="45.88724" lon="3.17848">
        <ele>317.4</ele>
        <time>2024-04-14T11:01:45Z</time>
      </trkpt>
      <trkpt lat="45.88718" lon="3.17847">
        <ele>317.4</ele>
        <time>2024-04-14T11:01:46Z</time>
      </trkpt>
      <trkpt lat="45.88711" lon="3.17847">
        <ele>317.2</ele>
        <time>2024-04-14T11:01:47Z</time>
      </trkpt>
      <trkpt lat="45.88704" lon="3.17847">
        <ele>317.4</ele>
        <time>2024-04-14T11:01:48Z</time>
      </trkpt>
      <trkpt lat="45.88697" lon="3.17846">
        <ele>317.4</ele>
        <time>2024-04-14T11:01:49Z</time>
      </trkpt>
      <trkpt lat="45.88691" lon="3.17846">
        <ele>317.4</ele>
        <time>2024-04-14T11:01:50Z</time>
      </trkpt>
      <trkpt lat="45.88684" lon="3.17845">
        <ele>317.4</ele>
        <time>2024-04-14T11:01:51Z</time>
      </trkpt>
      <trkpt lat="45.88677" lon="3.17845">
        <ele>317.4</ele>
        <time>2024-04-14T11:01:52Z</time>
      </trkpt>
      <trkpt lat="45.88677" lon="3.17845">
        <ele>317.4</ele>
        <time>2024-04-14T11:01:53Z</time>
      </trkpt>
      <trkpt lat="45.88663" lon="3.17844">
        <ele>317.4</ele>
        <time>2024-04-14T11:01:54Z</time>
      </trkpt>
      <trkpt lat="45.88657" lon="3.17844">
        <ele>317.4</ele>
        <time>2024-04-14T11:01:55Z</time>
      </trkpt>
      <trkpt lat="45.8865" lon="3.17843">
        <ele>317.4</ele>
        <time>2024-04-14T11:01:56Z</time>
      </trkpt>
      <trkpt lat="45.88643" lon="3.17843">
        <ele>317.4</ele>
        <time>2024-04-14T11:01:57Z</time>
      </trkpt>
      <trkpt lat="45.88636" lon="3.17843">
        <ele>317.4</ele>
        <time>2024-04-14T11:01:58Z</time>
      </trkpt>
      <trkpt lat="45.88629" lon="3.17842">
        <ele>317.4</ele>
        <time>2024-04-14T11:01:59Z</time>
      </trkpt>
      <trkpt lat="45.88622" lon="3.17842">
        <ele>317.4</ele>
        <time>2024-04-14T11:02:00Z</time>
      </trkpt>
      <trkpt lat="45.88615" lon="3.17843">
        <ele>317.4</ele>
        <time>2024-04-14T11:02:01Z</time>
      </trkpt>
      <trkpt lat="45.88609" lon="3.17845">
        <ele>317.4</ele>
        <time>2024-04-14T11:02:02Z</time>
      </trkpt>
      <trkpt lat="45.88602" lon="3.17847">
        <ele>317.4</ele>
        <time>2024-04-14T11:02:03Z</time>
      </trkpt>
      <trkpt lat="45.88596" lon="3.17852">
        <ele>317.4</ele>
        <time>2024-04-14T11:02:04Z</time>
      </trkpt>
      <trkpt lat="45.88591" lon="3.17858">
        <ele>317.4</ele>
        <time>2024-04-14T11:02:05Z</time>
      </trkpt>
      <trkpt lat="45.88591" lon="3.17858">
        <ele>317.4</ele>
        <time>2024-04-14T11:02:06Z</time>
      </trkpt>
      <trkpt lat="45.88583" lon="3.17873">
        <ele>317.4</ele>
        <time>2024-04-14T11:02:07Z</time>
      </trkpt>
      <trkpt lat="45.88581" lon="3.17882">
        <ele>317.2</ele>
        <time>2024-04-14T11:02:08Z</time>
      </trkpt>
      <trkpt lat="45.88578" lon="3.17892">
        <ele>317.2</ele>
        <time>2024-04-14T11:02:09Z</time>
      </trkpt>
      <trkpt lat="45.88577" lon="3.17902">
        <ele>317.2</ele>
        <time>2024-04-14T11:02:10Z</time>
      </trkpt>
      <trkpt lat="45.88578" lon="3.17912">
        <ele>317.2</ele>
        <time>2024-04-14T11:02:11Z</time>
      </trkpt>
      <trkpt lat="45.88578" lon="3.17922">
        <ele>317.2</ele>
        <time>2024-04-14T11:02:12Z</time>
      </trkpt>
      <trkpt lat="45.88578" lon="3.17932">
        <ele>317.2</ele>
        <time>2024-04-14T11:02:13Z</time>
      </trkpt>
      <trkpt lat="45.88579" lon="3.17942">
        <ele>317.2</ele>
        <time>2024-04-14T11:02:14Z</time>
      </trkpt>
      <trkpt lat="45.88579" lon="3.17952">
        <ele>317</ele>
        <time>2024-04-14T11:02:15Z</time>
      </trkpt>
      <trkpt lat="45.88579" lon="3.17962">
        <ele>317</ele>
        <time>2024-04-14T11:02:16Z</time>
      </trkpt>
      <trkpt lat="45.88582" lon="3.17971">
        <ele>317</ele>
        <time>2024-04-14T11:02:17Z</time>
      </trkpt>
      <trkpt lat="45.88584" lon="3.17981">
        <ele>317</ele>
        <time>2024-04-14T11:02:18Z</time>
      </trkpt>
      <trkpt lat="45.88587" lon="3.1799">
        <ele>317</ele>
        <time>2024-04-14T11:02:19Z</time>
      </trkpt>
      <trkpt lat="45.8859" lon="3.17999">
        <ele>317</ele>
        <time>2024-04-14T11:02:20Z</time>
      </trkpt>
      <trkpt lat="45.88592" lon="3.18008">
        <ele>317</ele>
        <time>2024-04-14T11:02:21Z</time>
      </trkpt>
      <trkpt lat="45.88595" lon="3.18017">
        <ele>317</ele>
        <time>2024-04-14T11:02:22Z</time>
      </trkpt>
      <trkpt lat="45.88597" lon="3.18026">
        <ele>317</ele>
        <time>2024-04-14T11:02:23Z</time>
      </trkpt>
      <trkpt lat="45.886" lon="3.18035">
        <ele>317</ele>
        <time>2024-04-14T11:02:24Z</time>
      </trkpt>
      <trkpt lat="45.88603" lon="3.18044">
        <ele>317</ele>
        <time>2024-04-14T11:02:25Z</time>
      </trkpt>
      <trkpt lat="45.88605" lon="3.18053">
        <ele>317</ele>
        <time>2024-04-14T11:02:26Z</time>
      </trkpt>
      <trkpt lat="45.88608" lon="3.18062">
        <ele>317</ele>
        <time>2024-04-14T11:02:27Z</time>
      </trkpt>
      <trkpt lat="45.88611" lon="3.18071">
        <ele>317</ele>
        <time>2024-04-14T11:02:28Z</time>
      </trkpt>
      <trkpt lat="45.88613" lon="3.1808">
        <ele>317</ele>
        <time>2024-04-14T11:02:29Z</time>
      </trkpt>
      <trkpt lat="45.88616" lon="3.18089">
        <ele>317</ele>
        <time>2024-04-14T11:02:30Z</time>
      </trkpt>
      <trkpt lat="45.88618" lon="3.18098">
        <ele>317</ele>
        <time>2024-04-14T11:02:31Z</time>
      </trkpt>
      <trkpt lat="45.88621" lon="3.18108">
        <ele>317</ele>
        <time>2024-04-14T11:02:32Z</time>
      </trkpt>
      <trkpt lat="45.88624" lon="3.18117">
        <ele>317</ele>
        <time>2024-04-14T11:02:33Z</time>
      </trkpt>
      <trkpt lat="45.88626" lon="3.18126">
        <ele>317</ele>
        <time>2024-04-14T11:02:34Z</time>
      </trkpt>
      <trkpt lat="45.88629" lon="3.18135">
        <ele>317</ele>
        <time>2024-04-14T11:02:35Z</time>
      </trkpt>
      <trkpt lat="45.88632" lon="3.18144">
        <ele>317</ele>
        <time>2024-04-14T11:02:36Z</time>
      </trkpt>
      <trkpt lat="45.88634" lon="3.18153">
        <ele>317</ele>
        <time>2024-04-14T11:02:37Z</time>
      </trkpt>
      <trkpt lat="45.88637" lon="3.18163">
        <ele>317</ele>
        <time>2024-04-14T11:02:38Z</time>
      </trkpt>
      <trkpt lat="45.8864" lon="3.18172">
        <ele>317</ele>
        <time>2024-04-14T11:02:39Z</time>
      </trkpt>
      <trkpt lat="45.88643" lon="3.18181">
        <ele>316.8</ele>
        <time>2024-04-14T11:02:40Z</time>
      </trkpt>
      <trkpt lat="45.88646" lon="3.18189">
        <ele>316.8</ele>
        <time>2024-04-14T11:02:41Z</time>
      </trkpt>
      <trkpt lat="45.88649" lon="3.18198">
        <ele>316.8</ele>
        <time>2024-04-14T11:02:42Z</time>
      </trkpt>
      <trkpt lat="45.88649" lon="3.18198">
        <ele>316.8</ele>
        <time>2024-04-14T11:02:43Z</time>
      </trkpt>
      <trkpt lat="45.88655" lon="3.18216">
        <ele>316.8</ele>
        <time>2024-04-14T11:02:44Z</time>
      </trkpt>
      <trkpt lat="45.88658" lon="3.18225">
        <ele>316.8</ele>
        <time>2024-04-14T11:02:45Z</time>
      </trkpt>
      <trkpt lat="45.88661" lon="3.18233">
        <ele>316.6</ele>
        <time>2024-04-14T11:02:46Z</time>
      </trkpt>
      <trkpt lat="45.88664" lon="3.18242">
        <ele>316.6</ele>
        <time>2024-04-14T11:02:47Z</time>
      </trkpt>
      <trkpt lat="45.88667" lon="3.18251">
        <ele>316.6</ele>
        <time>2024-04-14T11:02:48Z</time>
      </trkpt>
      <trkpt lat="45.8867" lon="3.1826">
        <ele>316.6</ele>
        <time>2024-04-14T11:02:49Z</time>
      </trkpt>
      <trkpt lat="45.88673" lon="3.18269">
        <ele>316.6</ele>
        <time>2024-04-14T11:02:50Z</time>
      </trkpt>
      <trkpt lat="45.88676" lon="3.18278">
        <ele>316.6</ele>
        <time>2024-04-14T11:02:51Z</time>
      </trkpt>
      <trkpt lat="45.88679" lon="3.18287">
        <ele>316.6</ele>
        <time>2024-04-14T11:02:52Z</time>
      </trkpt>
      <trkpt lat="45.88682" lon="3.18295">
        <ele>316.6</ele>
        <time>2024-04-14T11:02:53Z</time>
      </trkpt>
      <trkpt lat="45.88685" lon="3.18305">
        <ele>316.4</ele>
        <time>2024-04-14T11:02:54Z</time>
      </trkpt>
      <trkpt lat="45.88688" lon="3.18314">
        <ele>316.4</ele>
        <time>2024-04-14T11:02:55Z</time>
      </trkpt>
      <trkpt lat="45.88688" lon="3.18314">
        <ele>316.4</ele>
        <time>2024-04-14T11:02:56Z</time>
      </trkpt>
      <trkpt lat="45.88692" lon="3.18332">
        <ele>316.4</ele>
        <time>2024-04-14T11:02:57Z</time>
      </trkpt>
      <trkpt lat="45.88692" lon="3.18342">
        <ele>316.4</ele>
        <time>2024-04-14T11:02:58Z</time>
      </trkpt>
      <trkpt lat="45.88693" lon="3.18352">
        <ele>316.4</ele>
        <time>2024-04-14T11:02:59Z</time>
      </trkpt>
      <trkpt lat="45.88691" lon="3.1836">
        <ele>316.4</ele>
        <time>2024-04-14T11:03:00Z</time>
      </trkpt>
      <trkpt lat="45.88688" lon="3.18369">
        <ele>316.2</ele>
        <time>2024-04-14T11:03:01Z</time>
      </trkpt>
      <trkpt lat="45.88685" lon="3.18378">
        <ele>316.2</ele>
        <time>2024-04-14T11:03:02Z</time>
      </trkpt>
      <trkpt lat="45.88682" lon="3.18386">
        <ele>316.2</ele>
        <time>2024-04-14T11:03:03Z</time>
      </trkpt>
      <trkpt lat="45.88677" lon="3.18393">
        <ele>316.2</ele>
        <time>2024-04-14T11:03:04Z</time>
      </trkpt>
      <trkpt lat="45.88672" lon="3.184">
        <ele>316.2</ele>
        <time>2024-04-14T11:03:05Z</time>
      </trkpt>
      <trkpt lat="45.88665" lon="3.18403">
        <ele>316.2</ele>
        <time>2024-04-14T11:03:06Z</time>
      </trkpt>
      <trkpt lat="45.88658" lon="3.18406">
        <ele>316</ele>
        <time>2024-04-14T11:03:07Z</time>
      </trkpt>
      <trkpt lat="45.88651" lon="3.1841">
        <ele>316</ele>
        <time>2024-04-14T11:03:08Z</time>
      </trkpt>
      <trkpt lat="45.88644" lon="3.18413">
        <ele>316</ele>
        <time>2024-04-14T11:03:09Z</time>
      </trkpt>
      <trkpt lat="45.88637" lon="3.18413">
        <ele>316</ele>
        <time>2024-04-14T11:03:10Z</time>
      </trkpt>
      <trkpt lat="45.8863" lon="3.18413">
        <ele>316</ele>
        <time>2024-04-14T11:03:11Z</time>
      </trkpt>
      <trkpt lat="45.88624" lon="3.18413">
        <ele>316.2</ele>
        <time>2024-04-14T11:03:12Z</time>
      </trkpt>
      <trkpt lat="45.88617" lon="3.18413">
        <ele>316.2</ele>
        <time>2024-04-14T11:03:13Z</time>
      </trkpt>
      <trkpt lat="45.8861" lon="3.18413">
        <ele>316.2</ele>
        <time>2024-04-14T11:03:14Z</time>
      </trkpt>
      <trkpt lat="45.88602" lon="3.18413">
        <ele>316.2</ele>
        <time>2024-04-14T11:03:15Z</time>
      </trkpt>
      <trkpt lat="45.88595" lon="3.18413">
        <ele>316.2</ele>
        <time>2024-04-14T11:03:16Z</time>
      </trkpt>
      <trkpt lat="45.88588" lon="3.18413">
        <ele>316.2</ele>
        <time>2024-04-14T11:03:17Z</time>
      </trkpt>
      <trkpt lat="45.88581" lon="3.18413">
        <ele>316.2</ele>
        <time>2024-04-14T11:03:18Z</time>
      </trkpt>
      <trkpt lat="45.88574" lon="3.18413">
        <ele>316.2</ele>
        <time>2024-04-14T11:03:19Z</time>
      </trkpt>
      <trkpt lat="45.88567" lon="3.18412">
        <ele>316.2</ele>
        <time>2024-04-14T11:03:20Z</time>
      </trkpt>
      <trkpt lat="45.8856" lon="3.18412">
        <ele>316</ele>
        <time>2024-04-14T11:03:21Z</time>
      </trkpt>
      <trkpt lat="45.88553" lon="3.18412">
        <ele>316</ele>
        <time>2024-04-14T11:03:22Z</time>
      </trkpt>
      <trkpt lat="45.88546" lon="3.18412">
        <ele>316.2</ele>
        <time>2024-04-14T11:03:23Z</time>
      </trkpt>
      <trkpt lat="45.88539" lon="3.18412">
        <ele>316.2</ele>
        <time>2024-04-14T11:03:24Z</time>
      </trkpt>
      <trkpt lat="45.88532" lon="3.18412">
        <ele>316.2</ele>
        <time>2024-04-14T11:03:25Z</time>
      </trkpt>
      <trkpt lat="45.88526" lon="3.18411">
        <ele>316.2</ele>
        <time>2024-04-14T11:03:26Z</time>
      </trkpt>
      <trkpt lat="45.88519" lon="3.18411">
        <ele>316.2</ele>
        <time>2024-04-14T11:03:27Z</time>
      </trkpt>
      <trkpt lat="45.88512" lon="3.18411">
        <ele>316.4</ele>
        <time>2024-04-14T11:03:28Z</time>
      </trkpt>
      <trkpt lat="45.88505" lon="3.18411">
        <ele>316.4</ele>
        <time>2024-04-14T11:03:29Z</time>
      </trkpt>
      <trkpt lat="45.88498" lon="3.18411">
        <ele>316.4</ele>
        <time>2024-04-14T11:03:30Z</time>
      </trkpt>
      <trkpt lat="45.88491" lon="3.18411">
        <ele>316.4</ele>
        <time>2024-04-14T11:03:31Z</time>
      </trkpt>
      <trkpt lat="45.88484" lon="3.1841">
        <ele>316.4</ele>
        <time>2024-04-14T11:03:32Z</time>
      </trkpt>
      <trkpt lat="45.88478" lon="3.1841">
        <ele>316.2</ele>
        <time>2024-04-14T11:03:33Z</time>
      </trkpt>
      <trkpt lat="45.88471" lon="3.1841">
        <ele>316.2</ele>
        <time>2024-04-14T11:03:34Z</time>
      </trkpt>
      <trkpt lat="45.88464" lon="3.1841">
        <ele>316.2</ele>
        <time>2024-04-14T11:03:35Z</time>
      </trkpt>
      <trkpt lat="45.88457" lon="3.1841">
        <ele>316.4</ele>
        <time>2024-04-14T11:03:36Z</time>
      </trkpt>
      <trkpt lat="45.8845" lon="3.1841">
        <ele>316.4</ele>
        <time>2024-04-14T11:03:37Z</time>
      </trkpt>
      <trkpt lat="45.88443" lon="3.18409">
        <ele>316.4</ele>
        <time>2024-04-14T11:03:38Z</time>
      </trkpt>
      <trkpt lat="45.88436" lon="3.18409">
        <ele>316.4</ele>
        <time>2024-04-14T11:03:39Z</time>
      </trkpt>
      <trkpt lat="45.8843" lon="3.18409">
        <ele>316.4</ele>
        <time>2024-04-14T11:03:40Z</time>
      </trkpt>
      <trkpt lat="45.88423" lon="3.18409">
        <ele>316.4</ele>
        <time>2024-04-14T11:03:41Z</time>
      </trkpt>
      <trkpt lat="45.88416" lon="3.18409">
        <ele>316.4</ele>
        <time>2024-04-14T11:03:42Z</time>
      </trkpt>
      <trkpt lat="45.88409" lon="3.18409">
        <ele>316.4</ele>
        <time>2024-04-14T11:03:43Z</time>
      </trkpt>
      <trkpt lat="45.88402" lon="3.18408">
        <ele>316.4</ele>
        <time>2024-04-14T11:03:44Z</time>
      </trkpt>
      <trkpt lat="45.88395" lon="3.18408">
        <ele>316.4</ele>
        <time>2024-04-14T11:03:45Z</time>
      </trkpt>
      <trkpt lat="45.88388" lon="3.18407">
        <ele>316.4</ele>
        <time>2024-04-14T11:03:46Z</time>
      </trkpt>
      <trkpt lat="45.88381" lon="3.18406">
        <ele>316.4</ele>
        <time>2024-04-14T11:03:47Z</time>
      </trkpt>
      <trkpt lat="45.88374" lon="3.18405">
        <ele>316.4</ele>
        <time>2024-04-14T11:03:48Z</time>
      </trkpt>
      <trkpt lat="45.88367" lon="3.18404">
        <ele>316.4</ele>
        <time>2024-04-14T11:03:49Z</time>
      </trkpt>
      <trkpt lat="45.8836" lon="3.18402">
        <ele>316.6</ele>
        <time>2024-04-14T11:03:50Z</time>
      </trkpt>
      <trkpt lat="45.88353" lon="3.18401">
        <ele>316.6</ele>
        <time>2024-04-14T11:03:51Z</time>
      </trkpt>
      <trkpt lat="45.88346" lon="3.184">
        <ele>316.6</ele>
        <time>2024-04-14T11:03:52Z</time>
      </trkpt>
      <trkpt lat="45.88339" lon="3.18399">
        <ele>316.6</ele>
        <time>2024-04-14T11:03:53Z</time>
      </trkpt>
      <trkpt lat="45.88332" lon="3.18398">
        <ele>316.6</ele>
        <time>2024-04-14T11:03:54Z</time>
      </trkpt>
      <trkpt lat="45.88325" lon="3.18397">
        <ele>316.6</ele>
        <time>2024-04-14T11:03:55Z</time>
      </trkpt>
      <trkpt lat="45.88318" lon="3.18395">
        <ele>316.6</ele>
        <time>2024-04-14T11:03:56Z</time>
      </trkpt>
      <trkpt lat="45.88311" lon="3.18394">
        <ele>316.6</ele>
        <time>2024-04-14T11:03:57Z</time>
      </trkpt>
      <trkpt lat="45.88304" lon="3.18393">
        <ele>316.6</ele>
        <time>2024-04-14T11:03:58Z</time>
      </trkpt>
      <trkpt lat="45.88297" lon="3.18392">
        <ele>316.6</ele>
        <time>2024-04-14T11:03:59Z</time>
      </trkpt>
      <trkpt lat="45.88291" lon="3.18391">
        <ele>316.6</ele>
        <time>2024-04-14T11:04:00Z</time>
      </trkpt>
      <trkpt lat="45.88284" lon="3.1839">
        <ele>316.6</ele>
        <time>2024-04-14T11:04:01Z</time>
      </trkpt>
      <trkpt lat="45.88277" lon="3.1839">
        <ele>316.6</ele>
        <time>2024-04-14T11:04:02Z</time>
      </trkpt>
      <trkpt lat="45.88271" lon="3.18389">
        <ele>316.6</ele>
        <time>2024-04-14T11:04:03Z</time>
      </trkpt>
      <trkpt lat="45.88264" lon="3.18389">
        <ele>316.8</ele>
        <time>2024-04-14T11:04:04Z</time>
      </trkpt>
      <trkpt lat="45.88257" lon="3.18388">
        <ele>316.6</ele>
        <time>2024-04-14T11:04:05Z</time>
      </trkpt>
      <trkpt lat="45.8825" lon="3.18388">
        <ele>316.8</ele>
        <time>2024-04-14T11:04:06Z</time>
      </trkpt>
      <trkpt lat="45.88243" lon="3.18387">
        <ele>316.8</ele>
        <time>2024-04-14T11:04:07Z</time>
      </trkpt>
      <trkpt lat="45.88236" lon="3.18387">
        <ele>316.8</ele>
        <time>2024-04-14T11:04:08Z</time>
      </trkpt>
      <trkpt lat="45.8823" lon="3.18387">
        <ele>316.8</ele>
        <time>2024-04-14T11:04:09Z</time>
      </trkpt>
      <trkpt lat="45.88223" lon="3.18388">
        <ele>316.8</ele>
        <time>2024-04-14T11:04:10Z</time>
      </trkpt>
      <trkpt lat="45.88216" lon="3.18388">
        <ele>316.8</ele>
        <time>2024-04-14T11:04:11Z</time>
      </trkpt>
      <trkpt lat="45.88209" lon="3.18389">
        <ele>316.8</ele>
        <time>2024-04-14T11:04:12Z</time>
      </trkpt>
      <trkpt lat="45.88202" lon="3.18389">
        <ele>316.8</ele>
        <time>2024-04-14T11:04:13Z</time>
      </trkpt>
      <trkpt lat="45.88195" lon="3.1839">
        <ele>317</ele>
        <time>2024-04-14T11:04:14Z</time>
      </trkpt>
      <trkpt lat="45.88188" lon="3.1839">
        <ele>317</ele>
        <time>2024-04-14T11:04:15Z</time>
      </trkpt>
      <trkpt lat="45.88181" lon="3.1839">
        <ele>317</ele>
        <time>2024-04-14T11:04:16Z</time>
      </trkpt>
      <trkpt lat="45.88175" lon="3.18391">
        <ele>317</ele>
        <time>2024-04-14T11:04:17Z</time>
      </trkpt>
      <trkpt lat="45.88168" lon="3.18391">
        <ele>317</ele>
        <time>2024-04-14T11:04:18Z</time>
      </trkpt>
      <trkpt lat="45.88161" lon="3.18392">
        <ele>317</ele>
        <time>2024-04-14T11:04:19Z</time>
      </trkpt>
      <trkpt lat="45.88154" lon="3.18392">
        <ele>317</ele>
        <time>2024-04-14T11:04:20Z</time>
      </trkpt>
      <trkpt lat="45.88147" lon="3.18393">
        <ele>317</ele>
        <time>2024-04-14T11:04:21Z</time>
      </trkpt>
      <trkpt lat="45.8814" lon="3.18393">
        <ele>317</ele>
        <time>2024-04-14T11:04:22Z</time>
      </trkpt>
      <trkpt lat="45.88133" lon="3.18394">
        <ele>317</ele>
        <time>2024-04-14T11:04:23Z</time>
      </trkpt>
      <trkpt lat="45.88126" lon="3.18394">
        <ele>317</ele>
        <time>2024-04-14T11:04:24Z</time>
      </trkpt>
      <trkpt lat="45.8812" lon="3.18395">
        <ele>317.2</ele>
        <time>2024-04-14T11:04:25Z</time>
      </trkpt>
      <trkpt lat="45.88113" lon="3.18395">
        <ele>317.2</ele>
        <time>2024-04-14T11:04:26Z</time>
      </trkpt>
      <trkpt lat="45.88106" lon="3.18395">
        <ele>317.2</ele>
        <time>2024-04-14T11:04:27Z</time>
      </trkpt>
      <trkpt lat="45.88099" lon="3.18396">
        <ele>317.2</ele>
        <time>2024-04-14T11:04:28Z</time>
      </trkpt>
      <trkpt lat="45.88092" lon="3.18396">
        <ele>317.2</ele>
        <time>2024-04-14T11:04:29Z</time>
      </trkpt>
      <trkpt lat="45.88086" lon="3.18397">
        <ele>317.2</ele>
        <time>2024-04-14T11:04:30Z</time>
      </trkpt>
      <trkpt lat="45.88079" lon="3.18397">
        <ele>317.2</ele>
        <time>2024-04-14T11:04:31Z</time>
      </trkpt>
      <trkpt lat="45.88072" lon="3.18398">
        <ele>317.2</ele>
        <time>2024-04-14T11:04:32Z</time>
      </trkpt>
      <trkpt lat="45.88065" lon="3.18398">
        <ele>317.2</ele>
        <time>2024-04-14T11:04:33Z</time>
      </trkpt>
      <trkpt lat="45.88058" lon="3.18399">
        <ele>317.2</ele>
        <time>2024-04-14T11:04:34Z</time>
      </trkpt>
      <trkpt lat="45.88051" lon="3.18399">
        <ele>317.2</ele>
        <time>2024-04-14T11:04:35Z</time>
      </trkpt>
      <trkpt lat="45.88045" lon="3.18399">
        <ele>317.4</ele>
        <time>2024-04-14T11:04:36Z</time>
      </trkpt>
      <trkpt lat="45.88038" lon="3.184">
        <ele>317.4</ele>
        <time>2024-04-14T11:04:37Z</time>
      </trkpt>
      <trkpt lat="45.88031" lon="3.184">
        <ele>317.4</ele>
        <time>2024-04-14T11:04:38Z</time>
      </trkpt>
      <trkpt lat="45.88024" lon="3.18401">
        <ele>317.4</ele>
        <time>2024-04-14T11:04:39Z</time>
      </trkpt>
      <trkpt lat="45.88018" lon="3.18401">
        <ele>317.4</ele>
        <time>2024-04-14T11:04:40Z</time>
      </trkpt>
      <trkpt lat="45.88011" lon="3.18402">
        <ele>317.4</ele>
        <time>2024-04-14T11:04:41Z</time>
      </trkpt>
      <trkpt lat="45.88004" lon="3.18402">
        <ele>317.4</ele>
        <time>2024-04-14T11:04:42Z</time>
      </trkpt>
      <trkpt lat="45.87997" lon="3.18403">
        <ele>317.4</ele>
        <time>2024-04-14T11:04:43Z</time>
      </trkpt>
      <trkpt lat="45.8799" lon="3.18403">
        <ele>317.4</ele>
        <time>2024-04-14T11:04:44Z</time>
      </trkpt>
      <trkpt lat="45.87984" lon="3.18404">
        <ele>317.6</ele>
        <time>2024-04-14T11:04:45Z</time>
      </trkpt>
      <trkpt lat="45.87977" lon="3.18404">
        <ele>317.6</ele>
        <time>2024-04-14T11:04:46Z</time>
      </trkpt>
      <trkpt lat="45.8797" lon="3.18404">
        <ele>317.6</ele>
        <time>2024-04-14T11:04:47Z</time>
      </trkpt>
      <trkpt lat="45.87963" lon="3.18405">
        <ele>317.6</ele>
        <time>2024-04-14T11:04:48Z</time>
      </trkpt>
      <trkpt lat="45.87956" lon="3.18405">
        <ele>317.6</ele>
        <time>2024-04-14T11:04:49Z</time>
      </trkpt>
      <trkpt lat="45.87949" lon="3.18406">
        <ele>317.6</ele>
        <time>2024-04-14T11:04:50Z</time>
      </trkpt>
      <trkpt lat="45.87942" lon="3.18406">
        <ele>317.6</ele>
        <time>2024-04-14T11:04:51Z</time>
      </trkpt>
      <trkpt lat="45.87936" lon="3.18407">
        <ele>317.6</ele>
        <time>2024-04-14T11:04:52Z</time>
      </trkpt>
      <trkpt lat="45.87929" lon="3.18407">
        <ele>317.6</ele>
        <time>2024-04-14T11:04:53Z</time>
      </trkpt>
      <trkpt lat="45.87922" lon="3.18408">
        <ele>317.6</ele>
        <time>2024-04-14T11:04:54Z</time>
      </trkpt>
      <trkpt lat="45.87915" lon="3.18408">
        <ele>317.6</ele>
        <time>2024-04-14T11:04:55Z</time>
      </trkpt>
      <trkpt lat="45.87908" lon="3.18409">
        <ele>317.6</ele>
        <time>2024-04-14T11:04:56Z</time>
      </trkpt>
      <trkpt lat="45.87901" lon="3.18409">
        <ele>317.6</ele>
        <time>2024-04-14T11:04:57Z</time>
      </trkpt>
      <trkpt lat="45.87894" lon="3.18409">
        <ele>317.6</ele>
        <time>2024-04-14T11:04:58Z</time>
      </trkpt>
      <trkpt lat="45.87887" lon="3.1841">
        <ele>317.6</ele>
        <time>2024-04-14T11:04:59Z</time>
      </trkpt>
      <trkpt lat="45.87881" lon="3.1841">
        <ele>317.8</ele>
        <time>2024-04-14T11:05:00Z</time>
      </trkpt>
      <trkpt lat="45.87874" lon="3.18411">
        <ele>317.8</ele>
        <time>2024-04-14T11:05:01Z</time>
      </trkpt>
      <trkpt lat="45.87867" lon="3.18411">
        <ele>317.8</ele>
        <time>2024-04-14T11:05:02Z</time>
      </trkpt>
      <trkpt lat="45.8786" lon="3.18412">
        <ele>317.8</ele>
        <time>2024-04-14T11:05:03Z</time>
      </trkpt>
      <trkpt lat="45.87853" lon="3.18412">
        <ele>317.8</ele>
        <time>2024-04-14T11:05:04Z</time>
      </trkpt>
      <trkpt lat="45.87846" lon="3.18413">
        <ele>317.8</ele>
        <time>2024-04-14T11:05:05Z</time>
      </trkpt>
      <trkpt lat="45.87839" lon="3.18413">
        <ele>317.8</ele>
        <time>2024-04-14T11:05:06Z</time>
      </trkpt>
      <trkpt lat="45.87832" lon="3.18414">
        <ele>317.8</ele>
        <time>2024-04-14T11:05:07Z</time>
      </trkpt>
      <trkpt lat="45.87825" lon="3.18414">
        <ele>317.8</ele>
        <time>2024-04-14T11:05:08Z</time>
      </trkpt>
      <trkpt lat="45.87818" lon="3.18415">
        <ele>317.8</ele>
        <time>2024-04-14T11:05:09Z</time>
      </trkpt>
      <trkpt lat="45.87811" lon="3.18415">
        <ele>317.8</ele>
        <time>2024-04-14T11:05:10Z</time>
      </trkpt>
      <trkpt lat="45.87804" lon="3.18416">
        <ele>317.8</ele>
        <time>2024-04-14T11:05:11Z</time>
      </trkpt>
      <trkpt lat="45.87797" lon="3.18416">
        <ele>317.8</ele>
        <time>2024-04-14T11:05:12Z</time>
      </trkpt>
      <trkpt lat="45.8779" lon="3.18417">
        <ele>317.8</ele>
        <time>2024-04-14T11:05:13Z</time>
      </trkpt>
      <trkpt lat="45.87783" lon="3.18417">
        <ele>317.8</ele>
        <time>2024-04-14T11:05:14Z</time>
      </trkpt>
      <trkpt lat="45.87776" lon="3.18418">
        <ele>317.8</ele>
        <time>2024-04-14T11:05:15Z</time>
      </trkpt>
      <trkpt lat="45.87769" lon="3.18418">
        <ele>317.8</ele>
        <time>2024-04-14T11:05:16Z</time>
      </trkpt>
      <trkpt lat="45.87762" lon="3.18419">
        <ele>317.8</ele>
        <time>2024-04-14T11:05:17Z</time>
      </trkpt>
      <trkpt lat="45.87755" lon="3.18419">
        <ele>317.8</ele>
        <time>2024-04-14T11:05:18Z</time>
      </trkpt>
      <trkpt lat="45.87748" lon="3.1842">
        <ele>317.8</ele>
        <time>2024-04-14T11:05:19Z</time>
      </trkpt>
      <trkpt lat="45.87741" lon="3.1842">
        <ele>317.8</ele>
        <time>2024-04-14T11:05:20Z</time>
      </trkpt>
      <trkpt lat="45.87734" lon="3.18421">
        <ele>317.8</ele>
        <time>2024-04-14T11:05:21Z</time>
      </trkpt>
      <trkpt lat="45.87727" lon="3.18421">
        <ele>317.8</ele>
        <time>2024-04-14T11:05:22Z</time>
      </trkpt>
      <trkpt lat="45.8772" lon="3.18422">
        <ele>317.8</ele>
        <time>2024-04-14T11:05:23Z</time>
      </trkpt>
      <trkpt lat="45.87714" lon="3.18422">
        <ele>317.8</ele>
        <time>2024-04-14T11:05:24Z</time>
      </trkpt>
      <trkpt lat="45.87707" lon="3.18423">
        <ele>317.8</ele>
        <time>2024-04-14T11:05:25Z</time>
      </trkpt>
      <trkpt lat="45.877" lon="3.18423">
        <ele>317.8</ele>
        <time>2024-04-14T11:05:26Z</time>
      </trkpt>
      <trkpt lat="45.87693" lon="3.18424">
        <ele>317.8</ele>
        <time>2024-04-14T11:05:27Z</time>
      </trkpt>
      <trkpt lat="45.87686" lon="3.18425">
        <ele>317.8</ele>
        <time>2024-04-14T11:05:28Z</time>
      </trkpt>
      <trkpt lat="45.8768" lon="3.18426">
        <ele>317.8</ele>
        <time>2024-04-14T11:05:29Z</time>
      </trkpt>
      <trkpt lat="45.87673" lon="3.18426">
        <ele>317.8</ele>
        <time>2024-04-14T11:05:30Z</time>
      </trkpt>
      <trkpt lat="45.87666" lon="3.18427">
        <ele>317.8</ele>
        <time>2024-04-14T11:05:31Z</time>
      </trkpt>
      <trkpt lat="45.87659" lon="3.18428">
        <ele>317.8</ele>
        <time>2024-04-14T11:05:32Z</time>
      </trkpt>
      <trkpt lat="45.87653" lon="3.18432">
        <ele>317.8</ele>
        <time>2024-04-14T11:05:33Z</time>
      </trkpt>
      <trkpt lat="45.87647" lon="3.18435">
        <ele>317.8</ele>
        <time>2024-04-14T11:05:34Z</time>
      </trkpt>
      <trkpt lat="45.87641" lon="3.18439">
        <ele>317.8</ele>
        <time>2024-04-14T11:05:35Z</time>
      </trkpt>
      <trkpt lat="45.87635" lon="3.18445">
        <ele>317.8</ele>
        <time>2024-04-14T11:05:36Z</time>
      </trkpt>
      <trkpt lat="45.87631" lon="3.18452">
        <ele>317.8</ele>
        <time>2024-04-14T11:05:37Z</time>
      </trkpt>
      <trkpt lat="45.87627" lon="3.1846">
        <ele>317.8</ele>
        <time>2024-04-14T11:05:38Z</time>
      </trkpt>
      <trkpt lat="45.87622" lon="3.18468">
        <ele>317.8</ele>
        <time>2024-04-14T11:05:39Z</time>
      </trkpt>
      <trkpt lat="45.87618" lon="3.18476">
        <ele>317.8</ele>
        <time>2024-04-14T11:05:40Z</time>
      </trkpt>
      <trkpt lat="45.87613" lon="3.18483">
        <ele>317.8</ele>
        <time>2024-04-14T11:05:41Z</time>
      </trkpt>
      <trkpt lat="45.87609" lon="3.18491">
        <ele>317.8</ele>
        <time>2024-04-14T11:05:42Z</time>
      </trkpt>
      <trkpt lat="45.87605" lon="3.18499">
        <ele>317.8</ele>
        <time>2024-04-14T11:05:43Z</time>
      </trkpt>
      <trkpt lat="45.876" lon="3.18507">
        <ele>317.8</ele>
        <time>2024-04-14T11:05:44Z</time>
      </trkpt>
      <trkpt lat="45.87596" lon="3.18515">
        <ele>317.8</ele>
        <time>2024-04-14T11:05:45Z</time>
      </trkpt>
      <trkpt lat="45.87592" lon="3.18522">
        <ele>317.8</ele>
        <time>2024-04-14T11:05:46Z</time>
      </trkpt>
      <trkpt lat="45.87587" lon="3.1853">
        <ele>317.8</ele>
        <time>2024-04-14T11:05:47Z</time>
      </trkpt>
      <trkpt lat="45.87583" lon="3.18538">
        <ele>317.8</ele>
        <time>2024-04-14T11:05:48Z</time>
      </trkpt>
      <trkpt lat="45.87579" lon="3.18546">
        <ele>317.8</ele>
        <time>2024-04-14T11:05:49Z</time>
      </trkpt>
      <trkpt lat="45.87575" lon="3.18553">
        <ele>317.8</ele>
        <time>2024-04-14T11:05:50Z</time>
      </trkpt>
      <trkpt lat="45.8757" lon="3.18561">
        <ele>317.8</ele>
        <time>2024-04-14T11:05:51Z</time>
      </trkpt>
      <trkpt lat="45.87566" lon="3.18569">
        <ele>317.8</ele>
        <time>2024-04-14T11:05:52Z</time>
      </trkpt>
      <trkpt lat="45.87561" lon="3.18577">
        <ele>317.8</ele>
        <time>2024-04-14T11:05:53Z</time>
      </trkpt>
      <trkpt lat="45.87557" lon="3.18584">
        <ele>317.8</ele>
        <time>2024-04-14T11:05:54Z</time>
      </trkpt>
      <trkpt lat="45.87553" lon="3.18592">
        <ele>317.8</ele>
        <time>2024-04-14T11:05:55Z</time>
      </trkpt>
      <trkpt lat="45.87548" lon="3.186">
        <ele>317.8</ele>
        <time>2024-04-14T11:05:56Z</time>
      </trkpt>
      <trkpt lat="45.87544" lon="3.18608">
        <ele>317.8</ele>
        <time>2024-04-14T11:05:57Z</time>
      </trkpt>
      <trkpt lat="45.87539" lon="3.18616">
        <ele>317.8</ele>
        <time>2024-04-14T11:05:58Z</time>
      </trkpt>
      <trkpt lat="45.87535" lon="3.18624">
        <ele>317.8</ele>
        <time>2024-04-14T11:05:59Z</time>
      </trkpt>
      <trkpt lat="45.87531" lon="3.18632">
        <ele>317.8</ele>
        <time>2024-04-14T11:06:00Z</time>
      </trkpt>
      <trkpt lat="45.87526" lon="3.1864">
        <ele>317.8</ele>
        <time>2024-04-14T11:06:01Z</time>
      </trkpt>
      <trkpt lat="45.87522" lon="3.18647">
        <ele>317.8</ele>
        <time>2024-04-14T11:06:02Z</time>
      </trkpt>
      <trkpt lat="45.87518" lon="3.18655">
        <ele>317.8</ele>
        <time>2024-04-14T11:06:03Z</time>
      </trkpt>
      <trkpt lat="45.87514" lon="3.18662">
        <ele>317.8</ele>
        <time>2024-04-14T11:06:04Z</time>
      </trkpt>
      <trkpt lat="45.87509" lon="3.1867">
        <ele>317.8</ele>
        <time>2024-04-14T11:06:05Z</time>
      </trkpt>
      <trkpt lat="45.87505" lon="3.18677">
        <ele>317.8</ele>
        <time>2024-04-14T11:06:06Z</time>
      </trkpt>
      <trkpt lat="45.87501" lon="3.18685">
        <ele>317.8</ele>
        <time>2024-04-14T11:06:07Z</time>
      </trkpt>
      <trkpt lat="45.87497" lon="3.18692">
        <ele>317.6</ele>
        <time>2024-04-14T11:06:08Z</time>
      </trkpt>
      <trkpt lat="45.87493" lon="3.187">
        <ele>317.6</ele>
        <time>2024-04-14T11:06:09Z</time>
      </trkpt>
      <trkpt lat="45.87489" lon="3.18707">
        <ele>317.6</ele>
        <time>2024-04-14T11:06:10Z</time>
      </trkpt>
      <trkpt lat="45.87485" lon="3.18714">
        <ele>317.6</ele>
        <time>2024-04-14T11:06:11Z</time>
      </trkpt>
      <trkpt lat="45.8748" lon="3.18722">
        <ele>317.6</ele>
        <time>2024-04-14T11:06:12Z</time>
      </trkpt>
      <trkpt lat="45.87476" lon="3.1873">
        <ele>317.6</ele>
        <time>2024-04-14T11:06:13Z</time>
      </trkpt>
      <trkpt lat="45.87472" lon="3.18737">
        <ele>317.6</ele>
        <time>2024-04-14T11:06:14Z</time>
      </trkpt>
      <trkpt lat="45.87468" lon="3.18745">
        <ele>317.6</ele>
        <time>2024-04-14T11:06:15Z</time>
      </trkpt>
      <trkpt lat="45.87463" lon="3.18753">
        <ele>317.6</ele>
        <time>2024-04-14T11:06:16Z</time>
      </trkpt>
      <trkpt lat="45.87459" lon="3.1876">
        <ele>317.6</ele>
        <time>2024-04-14T11:06:17Z</time>
      </trkpt>
      <trkpt lat="45.87455" lon="3.18768">
        <ele>317.6</ele>
        <time>2024-04-14T11:06:18Z</time>
      </trkpt>
      <trkpt lat="45.8745" lon="3.18776">
        <ele>317.6</ele>
        <time>2024-04-14T11:06:19Z</time>
      </trkpt>
      <trkpt lat="45.87445" lon="3.18782">
        <ele>317.6</ele>
        <time>2024-04-14T11:06:20Z</time>
      </trkpt>
      <trkpt lat="45.8744" lon="3.18788">
        <ele>317.6</ele>
        <time>2024-04-14T11:06:21Z</time>
      </trkpt>
      <trkpt lat="45.87434" lon="3.18794">
        <ele>317.6</ele>
        <time>2024-04-14T11:06:22Z</time>
      </trkpt>
      <trkpt lat="45.87429" lon="3.188">
        <ele>317.6</ele>
        <time>2024-04-14T11:06:23Z</time>
      </trkpt>
      <trkpt lat="45.87424" lon="3.18806">
        <ele>317.6</ele>
        <time>2024-04-14T11:06:24Z</time>
      </trkpt>
      <trkpt lat="45.87418" lon="3.18812">
        <ele>317.6</ele>
        <time>2024-04-14T11:06:25Z</time>
      </trkpt>
      <trkpt lat="45.87413" lon="3.18818">
        <ele>317.6</ele>
        <time>2024-04-14T11:06:26Z</time>
      </trkpt>
      <trkpt lat="45.87408" lon="3.18824">
        <ele>317.6</ele>
        <time>2024-04-14T11:06:27Z</time>
      </trkpt>
      <trkpt lat="45.87402" lon="3.18829">
        <ele>317.4</ele>
        <time>2024-04-14T11:06:28Z</time>
      </trkpt>
      <trkpt lat="45.87396" lon="3.18833">
        <ele>317.4</ele>
        <time>2024-04-14T11:06:29Z</time>
      </trkpt>
      <trkpt lat="45.8739" lon="3.18836">
        <ele>317.4</ele>
        <time>2024-04-14T11:06:30Z</time>
      </trkpt>
      <trkpt lat="45.87384" lon="3.1884">
        <ele>317.2</ele>
        <time>2024-04-14T11:06:31Z</time>
      </trkpt>
      <trkpt lat="45.87378" lon="3.18844">
        <ele>317.2</ele>
        <time>2024-04-14T11:06:32Z</time>
      </trkpt>
      <trkpt lat="45.87373" lon="3.18848">
        <ele>317.2</ele>
        <time>2024-04-14T11:06:33Z</time>
      </trkpt>
      <trkpt lat="45.87367" lon="3.18851">
        <ele>317.2</ele>
        <time>2024-04-14T11:06:34Z</time>
      </trkpt>
      <trkpt lat="45.87361" lon="3.18855">
        <ele>317.2</ele>
        <time>2024-04-14T11:06:35Z</time>
      </trkpt>
      <trkpt lat="45.87356" lon="3.18859">
        <ele>317</ele>
        <time>2024-04-14T11:06:36Z</time>
      </trkpt>
      <trkpt lat="45.8735" lon="3.18862">
        <ele>317</ele>
        <time>2024-04-14T11:06:37Z</time>
      </trkpt>
      <trkpt lat="45.87344" lon="3.18866">
        <ele>317</ele>
        <time>2024-04-14T11:06:38Z</time>
      </trkpt>
      <trkpt lat="45.87338" lon="3.1887">
        <ele>316.8</ele>
        <time>2024-04-14T11:06:39Z</time>
      </trkpt>
      <trkpt lat="45.87333" lon="3.18873">
        <ele>316.8</ele>
        <time>2024-04-14T11:06:40Z</time>
      </trkpt>
      <trkpt lat="45.87327" lon="3.18877">
        <ele>316.8</ele>
        <time>2024-04-14T11:06:41Z</time>
      </trkpt>
      <trkpt lat="45.87321" lon="3.1888">
        <ele>316.8</ele>
        <time>2024-04-14T11:06:42Z</time>
      </trkpt>
      <trkpt lat="45.87316" lon="3.18882">
        <ele>316.6</ele>
        <time>2024-04-14T11:06:43Z</time>
      </trkpt>
      <trkpt lat="45.8731" lon="3.18884">
        <ele>316.6</ele>
        <time>2024-04-14T11:06:44Z</time>
      </trkpt>
      <trkpt lat="45.87303" lon="3.18886">
        <ele>316.6</ele>
        <time>2024-04-14T11:06:45Z</time>
      </trkpt>
      <trkpt lat="45.87297" lon="3.18888">
        <ele>316.6</ele>
        <time>2024-04-14T11:06:46Z</time>
      </trkpt>
      <trkpt lat="45.87291" lon="3.1889">
        <ele>316.6</ele>
        <time>2024-04-14T11:06:47Z</time>
      </trkpt>
      <trkpt lat="45.87284" lon="3.18892">
        <ele>316.6</ele>
        <time>2024-04-14T11:06:48Z</time>
      </trkpt>
      <trkpt lat="45.87278" lon="3.18894">
        <ele>316.6</ele>
        <time>2024-04-14T11:06:49Z</time>
      </trkpt>
      <trkpt lat="45.87271" lon="3.18896">
        <ele>316.6</ele>
        <time>2024-04-14T11:06:50Z</time>
      </trkpt>
      <trkpt lat="45.87265" lon="3.18898">
        <ele>316.6</ele>
        <time>2024-04-14T11:06:51Z</time>
      </trkpt>
      <trkpt lat="45.87259" lon="3.189">
        <ele>316.6</ele>
        <time>2024-04-14T11:06:52Z</time>
      </trkpt>
      <trkpt lat="45.87253" lon="3.18902">
        <ele>316.6</ele>
        <time>2024-04-14T11:06:53Z</time>
      </trkpt>
      <trkpt lat="45.87246" lon="3.18903">
        <ele>316.4</ele>
        <time>2024-04-14T11:06:54Z</time>
      </trkpt>
      <trkpt lat="45.8724" lon="3.18904">
        <ele>316.4</ele>
        <time>2024-04-14T11:06:55Z</time>
      </trkpt>
      <trkpt lat="45.87233" lon="3.18904">
        <ele>316.4</ele>
        <time>2024-04-14T11:06:56Z</time>
      </trkpt>
      <trkpt lat="45.87226" lon="3.18904">
        <ele>316.4</ele>
        <time>2024-04-14T11:06:57Z</time>
      </trkpt>
      <trkpt lat="45.8722" lon="3.18905">
        <ele>316.4</ele>
        <time>2024-04-14T11:06:58Z</time>
      </trkpt>
      <trkpt lat="45.87213" lon="3.18905">
        <ele>316.4</ele>
        <time>2024-04-14T11:06:59Z</time>
      </trkpt>
      <trkpt lat="45.87207" lon="3.18905">
        <ele>316.4</ele>
        <time>2024-04-14T11:07:00Z</time>
      </trkpt>
      <trkpt lat="45.872" lon="3.18905">
        <ele>316.4</ele>
        <time>2024-04-14T11:07:01Z</time>
      </trkpt>
      <trkpt lat="45.87193" lon="3.18905">
        <ele>316.4</ele>
        <time>2024-04-14T11:07:02Z</time>
      </trkpt>
      <trkpt lat="45.87187" lon="3.18905">
        <ele>316.4</ele>
        <time>2024-04-14T11:07:03Z</time>
      </trkpt>
      <trkpt lat="45.8718" lon="3.18906">
        <ele>316.4</ele>
        <time>2024-04-14T11:07:04Z</time>
      </trkpt>
      <trkpt lat="45.87174" lon="3.18906">
        <ele>316.4</ele>
        <time>2024-04-14T11:07:05Z</time>
      </trkpt>
      <trkpt lat="45.87167" lon="3.18906">
        <ele>316.6</ele>
        <time>2024-04-14T11:07:06Z</time>
      </trkpt>
      <trkpt lat="45.8716" lon="3.18906">
        <ele>316.4</ele>
        <time>2024-04-14T11:07:07Z</time>
      </trkpt>
      <trkpt lat="45.87153" lon="3.18906">
        <ele>316.8</ele>
        <time>2024-04-14T11:07:08Z</time>
      </trkpt>
      <trkpt lat="45.87146" lon="3.18907">
        <ele>316.8</ele>
        <time>2024-04-14T11:07:09Z</time>
      </trkpt>
      <trkpt lat="45.87139" lon="3.18908">
        <ele>316.8</ele>
        <time>2024-04-14T11:07:10Z</time>
      </trkpt>
      <trkpt lat="45.87132" lon="3.18909">
        <ele>316.8</ele>
        <time>2024-04-14T11:07:11Z</time>
      </trkpt>
      <trkpt lat="45.87126" lon="3.1891">
        <ele>316.8</ele>
        <time>2024-04-14T11:07:12Z</time>
      </trkpt>
      <trkpt lat="45.87119" lon="3.18911">
        <ele>316.8</ele>
        <time>2024-04-14T11:07:13Z</time>
      </trkpt>
      <trkpt lat="45.87112" lon="3.18912">
        <ele>316.8</ele>
        <time>2024-04-14T11:07:14Z</time>
      </trkpt>
      <trkpt lat="45.87106" lon="3.18913">
        <ele>316.8</ele>
        <time>2024-04-14T11:07:15Z</time>
      </trkpt>
      <trkpt lat="45.87099" lon="3.18914">
        <ele>316.8</ele>
        <time>2024-04-14T11:07:16Z</time>
      </trkpt>
      <trkpt lat="45.87092" lon="3.18915">
        <ele>316.8</ele>
        <time>2024-04-14T11:07:17Z</time>
      </trkpt>
      <trkpt lat="45.87086" lon="3.18915">
        <ele>317</ele>
        <time>2024-04-14T11:07:18Z</time>
      </trkpt>
      <trkpt lat="45.8708" lon="3.18916">
        <ele>317</ele>
        <time>2024-04-14T11:07:19Z</time>
      </trkpt>
      <trkpt lat="45.87073" lon="3.18917">
        <ele>317</ele>
        <time>2024-04-14T11:07:20Z</time>
      </trkpt>
      <trkpt lat="45.87066" lon="3.18918">
        <ele>317</ele>
        <time>2024-04-14T11:07:21Z</time>
      </trkpt>
      <trkpt lat="45.8706" lon="3.18919">
        <ele>317</ele>
        <time>2024-04-14T11:07:22Z</time>
      </trkpt>
      <trkpt lat="45.87053" lon="3.1892">
        <ele>317</ele>
        <time>2024-04-14T11:07:23Z</time>
      </trkpt>
      <trkpt lat="45.87046" lon="3.18921">
        <ele>317</ele>
        <time>2024-04-14T11:07:24Z</time>
      </trkpt>
      <trkpt lat="45.87039" lon="3.18922">
        <ele>317</ele>
        <time>2024-04-14T11:07:25Z</time>
      </trkpt>
      <trkpt lat="45.87033" lon="3.18923">
        <ele>317</ele>
        <time>2024-04-14T11:07:26Z</time>
      </trkpt>
      <trkpt lat="45.87026" lon="3.18924">
        <ele>317</ele>
        <time>2024-04-14T11:07:27Z</time>
      </trkpt>
      <trkpt lat="45.87019" lon="3.18925">
        <ele>317</ele>
        <time>2024-04-14T11:07:28Z</time>
      </trkpt>
      <trkpt lat="45.87012" lon="3.18926">
        <ele>317</ele>
        <time>2024-04-14T11:07:29Z</time>
      </trkpt>
      <trkpt lat="45.87005" lon="3.18927">
        <ele>317</ele>
        <time>2024-04-14T11:07:30Z</time>
      </trkpt>
      <trkpt lat="45.86998" lon="3.18928">
        <ele>317</ele>
        <time>2024-04-14T11:07:31Z</time>
      </trkpt>
      <trkpt lat="45.8699" lon="3.18929">
        <ele>317.2</ele>
        <time>2024-04-14T11:07:32Z</time>
      </trkpt>
      <trkpt lat="45.86983" lon="3.1893">
        <ele>317.2</ele>
        <time>2024-04-14T11:07:33Z</time>
      </trkpt>
      <trkpt lat="45.86976" lon="3.18932">
        <ele>317.2</ele>
        <time>2024-04-14T11:07:34Z</time>
      </trkpt>
      <trkpt lat="45.8697" lon="3.18934">
        <ele>317.2</ele>
        <time>2024-04-14T11:07:35Z</time>
      </trkpt>
      <trkpt lat="45.86963" lon="3.18936">
        <ele>317.2</ele>
        <time>2024-04-14T11:07:36Z</time>
      </trkpt>
      <trkpt lat="45.86956" lon="3.18939">
        <ele>317.2</ele>
        <time>2024-04-14T11:07:37Z</time>
      </trkpt>
      <trkpt lat="45.86949" lon="3.18942">
        <ele>317.4</ele>
        <time>2024-04-14T11:07:38Z</time>
      </trkpt>
      <trkpt lat="45.86943" lon="3.18945">
        <ele>317.4</ele>
        <time>2024-04-14T11:07:39Z</time>
      </trkpt>
      <trkpt lat="45.86936" lon="3.18947">
        <ele>317.4</ele>
        <time>2024-04-14T11:07:40Z</time>
      </trkpt>
      <trkpt lat="45.8693" lon="3.1895">
        <ele>317.2</ele>
        <time>2024-04-14T11:07:41Z</time>
      </trkpt>
      <trkpt lat="45.86924" lon="3.18952">
        <ele>317.4</ele>
        <time>2024-04-14T11:07:42Z</time>
      </trkpt>
      <trkpt lat="45.86917" lon="3.18955">
        <ele>317.4</ele>
        <time>2024-04-14T11:07:43Z</time>
      </trkpt>
      <trkpt lat="45.86911" lon="3.18957">
        <ele>317.4</ele>
        <time>2024-04-14T11:07:44Z</time>
      </trkpt>
      <trkpt lat="45.86905" lon="3.1896">
        <ele>317.4</ele>
        <time>2024-04-14T11:07:45Z</time>
      </trkpt>
      <trkpt lat="45.86899" lon="3.18962">
        <ele>317.4</ele>
        <time>2024-04-14T11:07:46Z</time>
      </trkpt>
      <trkpt lat="45.86893" lon="3.18965">
        <ele>317.4</ele>
        <time>2024-04-14T11:07:47Z</time>
      </trkpt>
      <trkpt lat="45.86887" lon="3.18967">
        <ele>317.4</ele>
        <time>2024-04-14T11:07:48Z</time>
      </trkpt>
      <trkpt lat="45.86881" lon="3.1897">
        <ele>317.2</ele>
        <time>2024-04-14T11:07:49Z</time>
      </trkpt>
      <trkpt lat="45.86875" lon="3.18972">
        <ele>317.4</ele>
        <time>2024-04-14T11:07:50Z</time>
      </trkpt>
      <trkpt lat="45.86869" lon="3.18974">
        <ele>317.2</ele>
        <time>2024-04-14T11:07:51Z</time>
      </trkpt>
      <trkpt lat="45.86864" lon="3.18977">
        <ele>317.2</ele>
        <time>2024-04-14T11:07:52Z</time>
      </trkpt>
      <trkpt lat="45.86858" lon="3.18976">
        <ele>317.2</ele>
        <time>2024-04-14T11:07:53Z</time>
      </trkpt>
      <trkpt lat="45.86853" lon="3.18976">
        <ele>317.2</ele>
        <time>2024-04-14T11:07:54Z</time>
      </trkpt>
      <trkpt lat="45.86847" lon="3.18975">
        <ele>317</ele>
        <time>2024-04-14T11:07:55Z</time>
      </trkpt>
      <trkpt lat="45.86842" lon="3.18972">
        <ele>316.8</ele>
        <time>2024-04-14T11:07:56Z</time>
      </trkpt>
      <trkpt lat="45.86838" lon="3.18969">
        <ele>317</ele>
        <time>2024-04-14T11:07:57Z</time>
      </trkpt>
      <trkpt lat="45.8683" lon="3.18975">
        <ele>317</ele>
        <time>2024-04-14T11:07:58Z</time>
      </trkpt>
      <trkpt lat="45.86827" lon="3.18982">
        <ele>317</ele>
        <time>2024-04-14T11:07:59Z</time>
      </trkpt>
      <trkpt lat="45.86824" lon="3.1899">
        <ele>317</ele>
        <time>2024-04-14T11:08:00Z</time>
      </trkpt>
      <trkpt lat="45.86821" lon="3.18998">
        <ele>317</ele>
        <time>2024-04-14T11:08:01Z</time>
      </trkpt>
      <trkpt lat="45.86818" lon="3.19007">
        <ele>317</ele>
        <time>2024-04-14T11:08:02Z</time>
      </trkpt>
      <trkpt lat="45.86814" lon="3.19015">
        <ele>317</ele>
        <time>2024-04-14T11:08:03Z</time>
      </trkpt>
      <trkpt lat="45.8681" lon="3.19023">
        <ele>317</ele>
        <time>2024-04-14T11:08:04Z</time>
      </trkpt>
      <trkpt lat="45.86806" lon="3.19031">
        <ele>317</ele>
        <time>2024-04-14T11:08:05Z</time>
      </trkpt>
      <trkpt lat="45.86802" lon="3.19039">
        <ele>317</ele>
        <time>2024-04-14T11:08:06Z</time>
      </trkpt>
      <trkpt lat="45.86798" lon="3.19048">
        <ele>317</ele>
        <time>2024-04-14T11:08:07Z</time>
      </trkpt>
      <trkpt lat="45.86794" lon="3.19056">
        <ele>317</ele>
        <time>2024-04-14T11:08:08Z</time>
      </trkpt>
      <trkpt lat="45.86791" lon="3.19064">
        <ele>317</ele>
        <time>2024-04-14T11:08:09Z</time>
      </trkpt>
      <trkpt lat="45.86787" lon="3.19073">
        <ele>317</ele>
        <time>2024-04-14T11:08:10Z</time>
      </trkpt>
      <trkpt lat="45.86783" lon="3.19081">
        <ele>317</ele>
        <time>2024-04-14T11:08:11Z</time>
      </trkpt>
      <trkpt lat="45.86779" lon="3.19089">
        <ele>317</ele>
        <time>2024-04-14T11:08:12Z</time>
      </trkpt>
      <trkpt lat="45.86774" lon="3.19097">
        <ele>317</ele>
        <time>2024-04-14T11:08:13Z</time>
      </trkpt>
      <trkpt lat="45.8677" lon="3.19105">
        <ele>317</ele>
        <time>2024-04-14T11:08:14Z</time>
      </trkpt>
      <trkpt lat="45.86765" lon="3.19112">
        <ele>316.8</ele>
        <time>2024-04-14T11:08:15Z</time>
      </trkpt>
      <trkpt lat="45.86761" lon="3.1912">
        <ele>317</ele>
        <time>2024-04-14T11:08:16Z</time>
      </trkpt>
      <trkpt lat="45.86756" lon="3.19128">
        <ele>317</ele>
        <time>2024-04-14T11:08:17Z</time>
      </trkpt>
      <trkpt lat="45.86752" lon="3.19135">
        <ele>317</ele>
        <time>2024-04-14T11:08:18Z</time>
      </trkpt>
      <trkpt lat="45.86748" lon="3.19143">
        <ele>317</ele>
        <time>2024-04-14T11:08:19Z</time>
      </trkpt>
      <trkpt lat="45.86743" lon="3.1915">
        <ele>317.2</ele>
        <time>2024-04-14T11:08:20Z</time>
      </trkpt>
      <trkpt lat="45.86739" lon="3.19157">
        <ele>317</ele>
        <time>2024-04-14T11:08:21Z</time>
      </trkpt>
      <trkpt lat="45.86735" lon="3.19165">
        <ele>317</ele>
        <time>2024-04-14T11:08:22Z</time>
      </trkpt>
      <trkpt lat="45.86731" lon="3.19172">
        <ele>317.2</ele>
        <time>2024-04-14T11:08:23Z</time>
      </trkpt>
      <trkpt lat="45.86726" lon="3.19179">
        <ele>317.2</ele>
        <time>2024-04-14T11:08:24Z</time>
      </trkpt>
      <trkpt lat="45.86722" lon="3.19186">
        <ele>317.2</ele>
        <time>2024-04-14T11:08:25Z</time>
      </trkpt>
      <trkpt lat="45.86717" lon="3.19193">
        <ele>317.2</ele>
        <time>2024-04-14T11:08:26Z</time>
      </trkpt>
      <trkpt lat="45.86713" lon="3.192">
        <ele>317.2</ele>
        <time>2024-04-14T11:08:27Z</time>
      </trkpt>
      <trkpt lat="45.86708" lon="3.19206">
        <ele>317.2</ele>
        <time>2024-04-14T11:08:28Z</time>
      </trkpt>
      <trkpt lat="45.86703" lon="3.19213">
        <ele>317.2</ele>
        <time>2024-04-14T11:08:29Z</time>
      </trkpt>
      <trkpt lat="45.86698" lon="3.1922">
        <ele>317</ele>
        <time>2024-04-14T11:08:30Z</time>
      </trkpt>
      <trkpt lat="45.86693" lon="3.19227">
        <ele>317</ele>
        <time>2024-04-14T11:08:31Z</time>
      </trkpt>
      <trkpt lat="45.86689" lon="3.19234">
        <ele>317</ele>
        <time>2024-04-14T11:08:32Z</time>
      </trkpt>
      <trkpt lat="45.86684" lon="3.19241">
        <ele>317.2</ele>
        <time>2024-04-14T11:08:33Z</time>
      </trkpt>
      <trkpt lat="45.86679" lon="3.19248">
        <ele>317</ele>
        <time>2024-04-14T11:08:34Z</time>
      </trkpt>
      <trkpt lat="45.86674" lon="3.19255">
        <ele>317</ele>
        <time>2024-04-14T11:08:35Z</time>
      </trkpt>
      <trkpt lat="45.8667" lon="3.19262">
        <ele>317</ele>
        <time>2024-04-14T11:08:36Z</time>
      </trkpt>
      <trkpt lat="45.86665" lon="3.19269">
        <ele>317</ele>
        <time>2024-04-14T11:08:37Z</time>
      </trkpt>
      <trkpt lat="45.8666" lon="3.19276">
        <ele>317</ele>
        <time>2024-04-14T11:08:38Z</time>
      </trkpt>
      <trkpt lat="45.86655" lon="3.19284">
        <ele>317</ele>
        <time>2024-04-14T11:08:39Z</time>
      </trkpt>
      <trkpt lat="45.8665" lon="3.19291">
        <ele>317.2</ele>
        <time>2024-04-14T11:08:40Z</time>
      </trkpt>
      <trkpt lat="45.86645" lon="3.19298">
        <ele>317</ele>
        <time>2024-04-14T11:08:41Z</time>
      </trkpt>
      <trkpt lat="45.8664" lon="3.19305">
        <ele>317.2</ele>
        <time>2024-04-14T11:08:42Z</time>
      </trkpt>
      <trkpt lat="45.86635" lon="3.19312">
        <ele>317</ele>
        <time>2024-04-14T11:08:43Z</time>
      </trkpt>
      <trkpt lat="45.8663" lon="3.19319">
        <ele>317</ele>
        <time>2024-04-14T11:08:44Z</time>
      </trkpt>
      <trkpt lat="45.86625" lon="3.19326">
        <ele>317.2</ele>
        <time>2024-04-14T11:08:45Z</time>
      </trkpt>
      <trkpt lat="45.86619" lon="3.19332">
        <ele>317.2</ele>
        <time>2024-04-14T11:08:46Z</time>
      </trkpt>
      <trkpt lat="45.86614" lon="3.19338">
        <ele>317.2</ele>
        <time>2024-04-14T11:08:47Z</time>
      </trkpt>
      <trkpt lat="45.86608" lon="3.19344">
        <ele>317.2</ele>
        <time>2024-04-14T11:08:48Z</time>
      </trkpt>
      <trkpt lat="45.86602" lon="3.1935">
        <ele>317.2</ele>
        <time>2024-04-14T11:08:49Z</time>
      </trkpt>
      <trkpt lat="45.86596" lon="3.19356">
        <ele>317.2</ele>
        <time>2024-04-14T11:08:50Z</time>
      </trkpt>
      <trkpt lat="45.86591" lon="3.19363">
        <ele>317.2</ele>
        <time>2024-04-14T11:08:51Z</time>
      </trkpt>
      <trkpt lat="45.86585" lon="3.19369">
        <ele>317.2</ele>
        <time>2024-04-14T11:08:52Z</time>
      </trkpt>
      <trkpt lat="45.86579" lon="3.19375">
        <ele>317.2</ele>
        <time>2024-04-14T11:08:53Z</time>
      </trkpt>
      <trkpt lat="45.86573" lon="3.19381">
        <ele>317.2</ele>
        <time>2024-04-14T11:08:54Z</time>
      </trkpt>
      <trkpt lat="45.86567" lon="3.19387">
        <ele>317.2</ele>
        <time>2024-04-14T11:08:55Z</time>
      </trkpt>
      <trkpt lat="45.86562" lon="3.19393">
        <ele>317.2</ele>
        <time>2024-04-14T11:08:56Z</time>
      </trkpt>
      <trkpt lat="45.86556" lon="3.19399">
        <ele>317.2</ele>
        <time>2024-04-14T11:08:57Z</time>
      </trkpt>
      <trkpt lat="45.8655" lon="3.19406">
        <ele>317.2</ele>
        <time>2024-04-14T11:08:58Z</time>
      </trkpt>
      <trkpt lat="45.86544" lon="3.19412">
        <ele>317.2</ele>
        <time>2024-04-14T11:08:59Z</time>
      </trkpt>
      <trkpt lat="45.86538" lon="3.19417">
        <ele>317.2</ele>
        <time>2024-04-14T11:09:00Z</time>
      </trkpt>
      <trkpt lat="45.86532" lon="3.19422">
        <ele>317.2</ele>
        <time>2024-04-14T11:09:01Z</time>
      </trkpt>
      <trkpt lat="45.86526" lon="3.19427">
        <ele>317.2</ele>
        <time>2024-04-14T11:09:02Z</time>
      </trkpt>
      <trkpt lat="45.8652" lon="3.19432">
        <ele>317.2</ele>
        <time>2024-04-14T11:09:03Z</time>
      </trkpt>
      <trkpt lat="45.86514" lon="3.19437">
        <ele>317.2</ele>
        <time>2024-04-14T11:09:04Z</time>
      </trkpt>
      <trkpt lat="45.86508" lon="3.19443">
        <ele>317.2</ele>
        <time>2024-04-14T11:09:05Z</time>
      </trkpt>
      <trkpt lat="45.86502" lon="3.19448">
        <ele>317.2</ele>
        <time>2024-04-14T11:09:06Z</time>
      </trkpt>
      <trkpt lat="45.86496" lon="3.19453">
        <ele>317.2</ele>
        <time>2024-04-14T11:09:07Z</time>
      </trkpt>
      <trkpt lat="45.86491" lon="3.19458">
        <ele>317.2</ele>
        <time>2024-04-14T11:09:08Z</time>
      </trkpt>
      <trkpt lat="45.86485" lon="3.19463">
        <ele>317.2</ele>
        <time>2024-04-14T11:09:09Z</time>
      </trkpt>
      <trkpt lat="45.86479" lon="3.19468">
        <ele>317.2</ele>
        <time>2024-04-14T11:09:10Z</time>
      </trkpt>
      <trkpt lat="45.86474" lon="3.19472">
        <ele>317.2</ele>
        <time>2024-04-14T11:09:11Z</time>
      </trkpt>
      <trkpt lat="45.86468" lon="3.19477">
        <ele>317.2</ele>
        <time>2024-04-14T11:09:12Z</time>
      </trkpt>
      <trkpt lat="45.86462" lon="3.19482">
        <ele>317.2</ele>
        <time>2024-04-14T11:09:13Z</time>
      </trkpt>
      <trkpt lat="45.86456" lon="3.19487">
        <ele>317.2</ele>
        <time>2024-04-14T11:09:14Z</time>
      </trkpt>
      <trkpt lat="45.86451" lon="3.19492">
        <ele>317.2</ele>
        <time>2024-04-14T11:09:15Z</time>
      </trkpt>
      <trkpt lat="45.86445" lon="3.19497">
        <ele>317.2</ele>
        <time>2024-04-14T11:09:16Z</time>
      </trkpt>
      <trkpt lat="45.86439" lon="3.19502">
        <ele>317.2</ele>
        <time>2024-04-14T11:09:17Z</time>
      </trkpt>
      <trkpt lat="45.86433" lon="3.19506">
        <ele>317.2</ele>
        <time>2024-04-14T11:09:18Z</time>
      </trkpt>
      <trkpt lat="45.86427" lon="3.1951">
        <ele>317.2</ele>
        <time>2024-04-14T11:09:19Z</time>
      </trkpt>
      <trkpt lat="45.86421" lon="3.19515">
        <ele>317.2</ele>
        <time>2024-04-14T11:09:20Z</time>
      </trkpt>
      <trkpt lat="45.86415" lon="3.19519">
        <ele>317.2</ele>
        <time>2024-04-14T11:09:21Z</time>
      </trkpt>
      <trkpt lat="45.8641" lon="3.19524">
        <ele>317.2</ele>
        <time>2024-04-14T11:09:22Z</time>
      </trkpt>
      <trkpt lat="45.86404" lon="3.19528">
        <ele>317.2</ele>
        <time>2024-04-14T11:09:23Z</time>
      </trkpt>
      <trkpt lat="45.86398" lon="3.19533">
        <ele>317.2</ele>
        <time>2024-04-14T11:09:24Z</time>
      </trkpt>
      <trkpt lat="45.86392" lon="3.19537">
        <ele>317.2</ele>
        <time>2024-04-14T11:09:25Z</time>
      </trkpt>
      <trkpt lat="45.86386" lon="3.19542">
        <ele>317.2</ele>
        <time>2024-04-14T11:09:26Z</time>
      </trkpt>
      <trkpt lat="45.86379" lon="3.19541">
        <ele>317.2</ele>
        <time>2024-04-14T11:09:27Z</time>
      </trkpt>
      <trkpt lat="45.86373" lon="3.19538">
        <ele>317.2</ele>
        <time>2024-04-14T11:09:28Z</time>
      </trkpt>
      <trkpt lat="45.86366" lon="3.19533">
        <ele>317.2</ele>
        <time>2024-04-14T11:09:29Z</time>
      </trkpt>
      <trkpt lat="45.86362" lon="3.19526">
        <ele>317.2</ele>
        <time>2024-04-14T11:09:30Z</time>
      </trkpt>
      <trkpt lat="45.86358" lon="3.19518">
        <ele>317.2</ele>
        <time>2024-04-14T11:09:31Z</time>
      </trkpt>
      <trkpt lat="45.86354" lon="3.1951">
        <ele>317.4</ele>
        <time>2024-04-14T11:09:32Z</time>
      </trkpt>
      <trkpt lat="45.8635" lon="3.19502">
        <ele>317.4</ele>
        <time>2024-04-14T11:09:33Z</time>
      </trkpt>
      <trkpt lat="45.86346" lon="3.19495">
        <ele>317.4</ele>
        <time>2024-04-14T11:09:34Z</time>
      </trkpt>
      <trkpt lat="45.86342" lon="3.19487">
        <ele>317.4</ele>
        <time>2024-04-14T11:09:35Z</time>
      </trkpt>
      <trkpt lat="45.86338" lon="3.19479">
        <ele>317.4</ele>
        <time>2024-04-14T11:09:36Z</time>
      </trkpt>
      <trkpt lat="45.86334" lon="3.19471">
        <ele>317.4</ele>
        <time>2024-04-14T11:09:37Z</time>
      </trkpt>
      <trkpt lat="45.8633" lon="3.19464">
        <ele>317.4</ele>
        <time>2024-04-14T11:09:38Z</time>
      </trkpt>
      <trkpt lat="45.86326" lon="3.19456">
        <ele>317.4</ele>
        <time>2024-04-14T11:09:39Z</time>
      </trkpt>
      <trkpt lat="45.86323" lon="3.19448">
        <ele>317.4</ele>
        <time>2024-04-14T11:09:40Z</time>
      </trkpt>
      <trkpt lat="45.86318" lon="3.19441">
        <ele>317.4</ele>
        <time>2024-04-14T11:09:41Z</time>
      </trkpt>
      <trkpt lat="45.86313" lon="3.19433">
        <ele>317.6</ele>
        <time>2024-04-14T11:09:42Z</time>
      </trkpt>
      <trkpt lat="45.86308" lon="3.19426">
        <ele>317.6</ele>
        <time>2024-04-14T11:09:43Z</time>
      </trkpt>
      <trkpt lat="45.86304" lon="3.19419">
        <ele>317.6</ele>
        <time>2024-04-14T11:09:44Z</time>
      </trkpt>
      <trkpt lat="45.86299" lon="3.19412">
        <ele>317.6</ele>
        <time>2024-04-14T11:09:45Z</time>
      </trkpt>
      <trkpt lat="45.86294" lon="3.19405">
        <ele>317.6</ele>
        <time>2024-04-14T11:09:46Z</time>
      </trkpt>
      <trkpt lat="45.86289" lon="3.19398">
        <ele>317.6</ele>
        <time>2024-04-14T11:09:47Z</time>
      </trkpt>
      <trkpt lat="45.86285" lon="3.19391">
        <ele>317.6</ele>
        <time>2024-04-14T11:09:48Z</time>
      </trkpt>
      <trkpt lat="45.8628" lon="3.19385">
        <ele>317.6</ele>
        <time>2024-04-14T11:09:49Z</time>
      </trkpt>
      <trkpt lat="45.86276" lon="3.19378">
        <ele>317.6</ele>
        <time>2024-04-14T11:09:50Z</time>
      </trkpt>
      <trkpt lat="45.86271" lon="3.19371">
        <ele>317.6</ele>
        <time>2024-04-14T11:09:51Z</time>
      </trkpt>
      <trkpt lat="45.86266" lon="3.19364">
        <ele>317.6</ele>
        <time>2024-04-14T11:09:52Z</time>
      </trkpt>
      <trkpt lat="45.86262" lon="3.19357">
        <ele>317.6</ele>
        <time>2024-04-14T11:09:53Z</time>
      </trkpt>
      <trkpt lat="45.86257" lon="3.19351">
        <ele>317.6</ele>
        <time>2024-04-14T11:09:54Z</time>
      </trkpt>
      <trkpt lat="45.86253" lon="3.19344">
        <ele>317.8</ele>
        <time>2024-04-14T11:09:55Z</time>
      </trkpt>
      <trkpt lat="45.86248" lon="3.19337">
        <ele>317.8</ele>
        <time>2024-04-14T11:09:56Z</time>
      </trkpt>
      <trkpt lat="45.86244" lon="3.1933">
        <ele>317.8</ele>
        <time>2024-04-14T11:09:57Z</time>
      </trkpt>
      <trkpt lat="45.8624" lon="3.19323">
        <ele>317.8</ele>
        <time>2024-04-14T11:09:58Z</time>
      </trkpt>
      <trkpt lat="45.86235" lon="3.19316">
        <ele>317.8</ele>
        <time>2024-04-14T11:09:59Z</time>
      </trkpt>
      <trkpt lat="45.86231" lon="3.1931">
        <ele>317.8</ele>
        <time>2024-04-14T11:10:00Z</time>
      </trkpt>
      <trkpt lat="45.86226" lon="3.19303">
        <ele>317.8</ele>
        <time>2024-04-14T11:10:01Z</time>
      </trkpt>
      <trkpt lat="45.86222" lon="3.19296">
        <ele>317.8</ele>
        <time>2024-04-14T11:10:02Z</time>
      </trkpt>
      <trkpt lat="45.86218" lon="3.1929">
        <ele>317.8</ele>
        <time>2024-04-14T11:10:03Z</time>
      </trkpt>
      <trkpt lat="45.86213" lon="3.19283">
        <ele>318</ele>
        <time>2024-04-14T11:10:04Z</time>
      </trkpt>
      <trkpt lat="45.86209" lon="3.19276">
        <ele>318</ele>
        <time>2024-04-14T11:10:05Z</time>
      </trkpt>
      <trkpt lat="45.86205" lon="3.19269">
        <ele>318</ele>
        <time>2024-04-14T11:10:06Z</time>
      </trkpt>
      <trkpt lat="45.862" lon="3.19263">
        <ele>318</ele>
        <time>2024-04-14T11:10:07Z</time>
      </trkpt>
      <trkpt lat="45.86196" lon="3.19256">
        <ele>318</ele>
        <time>2024-04-14T11:10:08Z</time>
      </trkpt>
      <trkpt lat="45.86191" lon="3.19249">
        <ele>318</ele>
        <time>2024-04-14T11:10:09Z</time>
      </trkpt>
      <trkpt lat="45.86187" lon="3.19243">
        <ele>318</ele>
        <time>2024-04-14T11:10:10Z</time>
      </trkpt>
      <trkpt lat="45.86183" lon="3.19236">
        <ele>318</ele>
        <time>2024-04-14T11:10:11Z</time>
      </trkpt>
      <trkpt lat="45.86178" lon="3.19229">
        <ele>318</ele>
        <time>2024-04-14T11:10:12Z</time>
      </trkpt>
      <trkpt lat="45.86174" lon="3.19223">
        <ele>318</ele>
        <time>2024-04-14T11:10:13Z</time>
      </trkpt>
      <trkpt lat="45.8617" lon="3.19216">
        <ele>318</ele>
        <time>2024-04-14T11:10:14Z</time>
      </trkpt>
      <trkpt lat="45.86166" lon="3.19209">
        <ele>318</ele>
        <time>2024-04-14T11:10:15Z</time>
      </trkpt>
      <trkpt lat="45.86161" lon="3.19203">
        <ele>318.2</ele>
        <time>2024-04-14T11:10:16Z</time>
      </trkpt>
      <trkpt lat="45.86157" lon="3.19196">
        <ele>318.2</ele>
        <time>2024-04-14T11:10:17Z</time>
      </trkpt>
      <trkpt lat="45.86152" lon="3.19189">
        <ele>318.2</ele>
        <time>2024-04-14T11:10:18Z</time>
      </trkpt>
      <trkpt lat="45.86148" lon="3.19182">
        <ele>318.2</ele>
        <time>2024-04-14T11:10:19Z</time>
      </trkpt>
      <trkpt lat="45.86144" lon="3.19175">
        <ele>318.2</ele>
        <time>2024-04-14T11:10:20Z</time>
      </trkpt>
      <trkpt lat="45.86139" lon="3.19169">
        <ele>318.2</ele>
        <time>2024-04-14T11:10:21Z</time>
      </trkpt>
      <trkpt lat="45.86135" lon="3.19162">
        <ele>318.2</ele>
        <time>2024-04-14T11:10:22Z</time>
      </trkpt>
      <trkpt lat="45.86131" lon="3.19155">
        <ele>318.2</ele>
        <time>2024-04-14T11:10:23Z</time>
      </trkpt>
      <trkpt lat="45.86126" lon="3.19149">
        <ele>318.2</ele>
        <time>2024-04-14T11:10:24Z</time>
      </trkpt>
      <trkpt lat="45.86122" lon="3.19142">
        <ele>318.2</ele>
        <time>2024-04-14T11:10:25Z</time>
      </trkpt>
      <trkpt lat="45.86118" lon="3.19136">
        <ele>318.2</ele>
        <time>2024-04-14T11:10:26Z</time>
      </trkpt>
      <trkpt lat="45.86113" lon="3.19129">
        <ele>318.2</ele>
        <time>2024-04-14T11:10:27Z</time>
      </trkpt>
      <trkpt lat="45.86109" lon="3.19123">
        <ele>318.2</ele>
        <time>2024-04-14T11:10:28Z</time>
      </trkpt>
      <trkpt lat="45.86105" lon="3.19116">
        <ele>318.2</ele>
        <time>2024-04-14T11:10:29Z</time>
      </trkpt>
      <trkpt lat="45.86101" lon="3.1911">
        <ele>318.2</ele>
        <time>2024-04-14T11:10:30Z</time>
      </trkpt>
      <trkpt lat="45.86095" lon="3.19107">
        <ele>318.2</ele>
        <time>2024-04-14T11:10:31Z</time>
      </trkpt>
      <trkpt lat="45.8609" lon="3.19103">
        <ele>318.2</ele>
        <time>2024-04-14T11:10:32Z</time>
      </trkpt>
      <trkpt lat="45.86084" lon="3.19101">
        <ele>318.2</ele>
        <time>2024-04-14T11:10:33Z</time>
      </trkpt>
      <trkpt lat="45.86079" lon="3.19098">
        <ele>318.2</ele>
        <time>2024-04-14T11:10:34Z</time>
      </trkpt>
      <trkpt lat="45.86073" lon="3.19096">
        <ele>318.2</ele>
        <time>2024-04-14T11:10:35Z</time>
      </trkpt>
      <trkpt lat="45.86068" lon="3.19094">
        <ele>318.2</ele>
        <time>2024-04-14T11:10:36Z</time>
      </trkpt>
      <trkpt lat="45.86062" lon="3.19091">
        <ele>318.2</ele>
        <time>2024-04-14T11:10:37Z</time>
      </trkpt>
      <trkpt lat="45.86057" lon="3.1909">
        <ele>318.2</ele>
        <time>2024-04-14T11:10:38Z</time>
      </trkpt>
      <trkpt lat="45.8605" lon="3.19088">
        <ele>318.2</ele>
        <time>2024-04-14T11:10:39Z</time>
      </trkpt>
      <trkpt lat="45.86046" lon="3.19085">
        <ele>318.4</ele>
        <time>2024-04-14T11:10:40Z</time>
      </trkpt>
      <trkpt lat="45.86042" lon="3.19076">
        <ele>318.4</ele>
        <time>2024-04-14T11:10:41Z</time>
      </trkpt>
      <trkpt lat="45.8604" lon="3.19068">
        <ele>318.4</ele>
        <time>2024-04-14T11:10:42Z</time>
      </trkpt>
      <trkpt lat="45.86037" lon="3.19059">
        <ele>318.4</ele>
        <time>2024-04-14T11:10:43Z</time>
      </trkpt>
      <trkpt lat="45.86035" lon="3.19049">
        <ele>318.4</ele>
        <time>2024-04-14T11:10:44Z</time>
      </trkpt>
      <trkpt lat="45.86033" lon="3.1904">
        <ele>318.4</ele>
        <time>2024-04-14T11:10:45Z</time>
      </trkpt>
      <trkpt lat="45.86031" lon="3.19031">
        <ele>318.4</ele>
        <time>2024-04-14T11:10:46Z</time>
      </trkpt>
      <trkpt lat="45.86028" lon="3.19021">
        <ele>318.4</ele>
        <time>2024-04-14T11:10:47Z</time>
      </trkpt>
      <trkpt lat="45.86026" lon="3.19012">
        <ele>318.4</ele>
        <time>2024-04-14T11:10:48Z</time>
      </trkpt>
      <trkpt lat="45.86024" lon="3.19002">
        <ele>318.4</ele>
        <time>2024-04-14T11:10:49Z</time>
      </trkpt>
      <trkpt lat="45.86022" lon="3.18993">
        <ele>318.4</ele>
        <time>2024-04-14T11:10:50Z</time>
      </trkpt>
      <trkpt lat="45.8602" lon="3.18983">
        <ele>318.4</ele>
        <time>2024-04-14T11:10:51Z</time>
      </trkpt>
      <trkpt lat="45.86018" lon="3.18974">
        <ele>318.4</ele>
        <time>2024-04-14T11:10:52Z</time>
      </trkpt>
      <trkpt lat="45.86016" lon="3.18965">
        <ele>318.4</ele>
        <time>2024-04-14T11:10:53Z</time>
      </trkpt>
      <trkpt lat="45.86015" lon="3.18955">
        <ele>318.6</ele>
        <time>2024-04-14T11:10:54Z</time>
      </trkpt>
      <trkpt lat="45.86013" lon="3.18946">
        <ele>318.6</ele>
        <time>2024-04-14T11:10:55Z</time>
      </trkpt>
      <trkpt lat="45.86011" lon="3.18937">
        <ele>318.6</ele>
        <time>2024-04-14T11:10:56Z</time>
      </trkpt>
      <trkpt lat="45.86009" lon="3.18928">
        <ele>318.6</ele>
        <time>2024-04-14T11:10:57Z</time>
      </trkpt>
      <trkpt lat="45.86007" lon="3.18918">
        <ele>318.6</ele>
        <time>2024-04-14T11:10:58Z</time>
      </trkpt>
      <trkpt lat="45.86005" lon="3.18909">
        <ele>318.6</ele>
        <time>2024-04-14T11:10:59Z</time>
      </trkpt>
      <trkpt lat="45.86002" lon="3.189">
        <ele>318.6</ele>
        <time>2024-04-14T11:11:00Z</time>
      </trkpt>
      <trkpt lat="45.85999" lon="3.18891">
        <ele>318.8</ele>
        <time>2024-04-14T11:11:01Z</time>
      </trkpt>
      <trkpt lat="45.85996" lon="3.18882">
        <ele>318.8</ele>
        <time>2024-04-14T11:11:02Z</time>
      </trkpt>
      <trkpt lat="45.85993" lon="3.18872">
        <ele>318.8</ele>
        <time>2024-04-14T11:11:03Z</time>
      </trkpt>
      <trkpt lat="45.8599" lon="3.18864">
        <ele>318.8</ele>
        <time>2024-04-14T11:11:04Z</time>
      </trkpt>
      <trkpt lat="45.85987" lon="3.18854">
        <ele>318.8</ele>
        <time>2024-04-14T11:11:05Z</time>
      </trkpt>
      <trkpt lat="45.85984" lon="3.18845">
        <ele>318.8</ele>
        <time>2024-04-14T11:11:06Z</time>
      </trkpt>
      <trkpt lat="45.85981" lon="3.18836">
        <ele>318.8</ele>
        <time>2024-04-14T11:11:07Z</time>
      </trkpt>
      <trkpt lat="45.85977" lon="3.18826">
        <ele>318.8</ele>
        <time>2024-04-14T11:11:08Z</time>
      </trkpt>
      <trkpt lat="45.85974" lon="3.18817">
        <ele>318.8</ele>
        <time>2024-04-14T11:11:09Z</time>
      </trkpt>
      <trkpt lat="45.85971" lon="3.18808">
        <ele>318.8</ele>
        <time>2024-04-14T11:11:10Z</time>
      </trkpt>
      <trkpt lat="45.85968" lon="3.18799">
        <ele>318.8</ele>
        <time>2024-04-14T11:11:11Z</time>
      </trkpt>
      <trkpt lat="45.85965" lon="3.1879">
        <ele>318.8</ele>
        <time>2024-04-14T11:11:12Z</time>
      </trkpt>
      <trkpt lat="45.85962" lon="3.18781">
        <ele>318.8</ele>
        <time>2024-04-14T11:11:13Z</time>
      </trkpt>
      <trkpt lat="45.85959" lon="3.18772">
        <ele>319</ele>
        <time>2024-04-14T11:11:14Z</time>
      </trkpt>
      <trkpt lat="45.85956" lon="3.18763">
        <ele>319</ele>
        <time>2024-04-14T11:11:15Z</time>
      </trkpt>
      <trkpt lat="45.85953" lon="3.18754">
        <ele>319</ele>
        <time>2024-04-14T11:11:16Z</time>
      </trkpt>
      <trkpt lat="45.8595" lon="3.18745">
        <ele>319</ele>
        <time>2024-04-14T11:11:17Z</time>
      </trkpt>
      <trkpt lat="45.85947" lon="3.18736">
        <ele>319</ele>
        <time>2024-04-14T11:11:18Z</time>
      </trkpt>
      <trkpt lat="45.85944" lon="3.18727">
        <ele>319</ele>
        <time>2024-04-14T11:11:19Z</time>
      </trkpt>
      <trkpt lat="45.8594" lon="3.18718">
        <ele>319</ele>
        <time>2024-04-14T11:11:20Z</time>
      </trkpt>
      <trkpt lat="45.85937" lon="3.18709">
        <ele>319</ele>
        <time>2024-04-14T11:11:21Z</time>
      </trkpt>
      <trkpt lat="45.85934" lon="3.187">
        <ele>319</ele>
        <time>2024-04-14T11:11:22Z</time>
      </trkpt>
      <trkpt lat="45.85932" lon="3.18691">
        <ele>319.2</ele>
        <time>2024-04-14T11:11:23Z</time>
      </trkpt>
      <trkpt lat="45.85929" lon="3.18682">
        <ele>319.2</ele>
        <time>2024-04-14T11:11:24Z</time>
      </trkpt>
      <trkpt lat="45.85927" lon="3.18673">
        <ele>319.2</ele>
        <time>2024-04-14T11:11:25Z</time>
      </trkpt>
      <trkpt lat="45.85924" lon="3.18664">
        <ele>319.2</ele>
        <time>2024-04-14T11:11:26Z</time>
      </trkpt>
      <trkpt lat="45.85922" lon="3.18655">
        <ele>319.2</ele>
        <time>2024-04-14T11:11:27Z</time>
      </trkpt>
      <trkpt lat="45.85918" lon="3.18647">
        <ele>319.2</ele>
        <time>2024-04-14T11:11:28Z</time>
      </trkpt>
      <trkpt lat="45.85915" lon="3.18638">
        <ele>319.2</ele>
        <time>2024-04-14T11:11:29Z</time>
      </trkpt>
      <trkpt lat="45.85912" lon="3.1863">
        <ele>319.2</ele>
        <time>2024-04-14T11:11:30Z</time>
      </trkpt>
      <trkpt lat="45.85909" lon="3.18621">
        <ele>319.2</ele>
        <time>2024-04-14T11:11:31Z</time>
      </trkpt>
      <trkpt lat="45.85906" lon="3.18613">
        <ele>319.4</ele>
        <time>2024-04-14T11:11:32Z</time>
      </trkpt>
      <trkpt lat="45.85903" lon="3.18604">
        <ele>319.4</ele>
        <time>2024-04-14T11:11:33Z</time>
      </trkpt>
      <trkpt lat="45.85899" lon="3.18596">
        <ele>319.4</ele>
        <time>2024-04-14T11:11:34Z</time>
      </trkpt>
      <trkpt lat="45.85896" lon="3.18587">
        <ele>319.4</ele>
        <time>2024-04-14T11:11:35Z</time>
      </trkpt>
      <trkpt lat="45.85893" lon="3.18579">
        <ele>319.4</ele>
        <time>2024-04-14T11:11:36Z</time>
      </trkpt>
      <trkpt lat="45.8589" lon="3.18571">
        <ele>319.4</ele>
        <time>2024-04-14T11:11:37Z</time>
      </trkpt>
      <trkpt lat="45.85887" lon="3.18562">
        <ele>319.6</ele>
        <time>2024-04-14T11:11:38Z</time>
      </trkpt>
      <trkpt lat="45.85884" lon="3.18554">
        <ele>319.6</ele>
        <time>2024-04-14T11:11:39Z</time>
      </trkpt>
      <trkpt lat="45.8588" lon="3.18545">
        <ele>319.6</ele>
        <time>2024-04-14T11:11:40Z</time>
      </trkpt>
      <trkpt lat="45.85877" lon="3.18537">
        <ele>319.6</ele>
        <time>2024-04-14T11:11:41Z</time>
      </trkpt>
      <trkpt lat="45.85874" lon="3.18528">
        <ele>319.6</ele>
        <time>2024-04-14T11:11:42Z</time>
      </trkpt>
      <trkpt lat="45.85871" lon="3.1852">
        <ele>319.6</ele>
        <time>2024-04-14T11:11:43Z</time>
      </trkpt>
      <trkpt lat="45.85868" lon="3.18511">
        <ele>319.6</ele>
        <time>2024-04-14T11:11:44Z</time>
      </trkpt>
      <trkpt lat="45.85864" lon="3.18502">
        <ele>319.6</ele>
        <time>2024-04-14T11:11:45Z</time>
      </trkpt>
      <trkpt lat="45.85861" lon="3.18494">
        <ele>319.8</ele>
        <time>2024-04-14T11:11:46Z</time>
      </trkpt>
      <trkpt lat="45.85857" lon="3.18486">
        <ele>319.8</ele>
        <time>2024-04-14T11:11:47Z</time>
      </trkpt>
      <trkpt lat="45.85853" lon="3.18478">
        <ele>319.8</ele>
        <time>2024-04-14T11:11:48Z</time>
      </trkpt>
      <trkpt lat="45.85849" lon="3.1847">
        <ele>319.8</ele>
        <time>2024-04-14T11:11:49Z</time>
      </trkpt>
      <trkpt lat="45.85845" lon="3.18463">
        <ele>319.8</ele>
        <time>2024-04-14T11:11:50Z</time>
      </trkpt>
      <trkpt lat="45.85841" lon="3.18455">
        <ele>319.8</ele>
        <time>2024-04-14T11:11:51Z</time>
      </trkpt>
      <trkpt lat="45.85837" lon="3.18446">
        <ele>320</ele>
        <time>2024-04-14T11:11:52Z</time>
      </trkpt>
      <trkpt lat="45.85833" lon="3.18438">
        <ele>320</ele>
        <time>2024-04-14T11:11:53Z</time>
      </trkpt>
      <trkpt lat="45.85829" lon="3.1843">
        <ele>320</ele>
        <time>2024-04-14T11:11:54Z</time>
      </trkpt>
      <trkpt lat="45.85825" lon="3.18422">
        <ele>320</ele>
        <time>2024-04-14T11:11:55Z</time>
      </trkpt>
      <trkpt lat="45.85821" lon="3.18414">
        <ele>320</ele>
        <time>2024-04-14T11:11:56Z</time>
      </trkpt>
      <trkpt lat="45.85817" lon="3.18406">
        <ele>320</ele>
        <time>2024-04-14T11:11:57Z</time>
      </trkpt>
      <trkpt lat="45.85813" lon="3.18399">
        <ele>320</ele>
        <time>2024-04-14T11:11:58Z</time>
      </trkpt>
      <trkpt lat="45.85809" lon="3.18391">
        <ele>320</ele>
        <time>2024-04-14T11:11:59Z</time>
      </trkpt>
      <trkpt lat="45.85805" lon="3.18383">
        <ele>320</ele>
        <time>2024-04-14T11:12:00Z</time>
      </trkpt>
      <trkpt lat="45.858" lon="3.18375">
        <ele>320</ele>
        <time>2024-04-14T11:12:01Z</time>
      </trkpt>
      <trkpt lat="45.85796" lon="3.18368">
        <ele>320</ele>
        <time>2024-04-14T11:12:02Z</time>
      </trkpt>
      <trkpt lat="45.85791" lon="3.1836">
        <ele>320</ele>
        <time>2024-04-14T11:12:03Z</time>
      </trkpt>
      <trkpt lat="45.85787" lon="3.18352">
        <ele>320</ele>
        <time>2024-04-14T11:12:04Z</time>
      </trkpt>
      <trkpt lat="45.85782" lon="3.18344">
        <ele>320</ele>
        <time>2024-04-14T11:12:05Z</time>
      </trkpt>
      <trkpt lat="45.85778" lon="3.18337">
        <ele>320</ele>
        <time>2024-04-14T11:12:06Z</time>
      </trkpt>
      <trkpt lat="45.85774" lon="3.18329">
        <ele>320.2</ele>
        <time>2024-04-14T11:12:07Z</time>
      </trkpt>
      <trkpt lat="45.85769" lon="3.18322">
        <ele>320.2</ele>
        <time>2024-04-14T11:12:08Z</time>
      </trkpt>
      <trkpt lat="45.85765" lon="3.18314">
        <ele>320.2</ele>
        <time>2024-04-14T11:12:09Z</time>
      </trkpt>
      <trkpt lat="45.8576" lon="3.18307">
        <ele>320.2</ele>
        <time>2024-04-14T11:12:10Z</time>
      </trkpt>
      <trkpt lat="45.85756" lon="3.18299">
        <ele>320.2</ele>
        <time>2024-04-14T11:12:11Z</time>
      </trkpt>
      <trkpt lat="45.85752" lon="3.18292">
        <ele>320.2</ele>
        <time>2024-04-14T11:12:12Z</time>
      </trkpt>
      <trkpt lat="45.85748" lon="3.18284">
        <ele>320.2</ele>
        <time>2024-04-14T11:12:13Z</time>
      </trkpt>
      <trkpt lat="45.85743" lon="3.18277">
        <ele>320.2</ele>
        <time>2024-04-14T11:12:14Z</time>
      </trkpt>
      <trkpt lat="45.85739" lon="3.1827">
        <ele>320.2</ele>
        <time>2024-04-14T11:12:15Z</time>
      </trkpt>
      <trkpt lat="45.85735" lon="3.18263">
        <ele>320.2</ele>
        <time>2024-04-14T11:12:16Z</time>
      </trkpt>
      <trkpt lat="45.85731" lon="3.18256">
        <ele>320.2</ele>
        <time>2024-04-14T11:12:17Z</time>
      </trkpt>
      <trkpt lat="45.85726" lon="3.18248">
        <ele>320.4</ele>
        <time>2024-04-14T11:12:18Z</time>
      </trkpt>
      <trkpt lat="45.85722" lon="3.18241">
        <ele>320.4</ele>
        <time>2024-04-14T11:12:19Z</time>
      </trkpt>
      <trkpt lat="45.85718" lon="3.18234">
        <ele>320.4</ele>
        <time>2024-04-14T11:12:20Z</time>
      </trkpt>
      <trkpt lat="45.85714" lon="3.18226">
        <ele>320.4</ele>
        <time>2024-04-14T11:12:21Z</time>
      </trkpt>
      <trkpt lat="45.85709" lon="3.18219">
        <ele>320.4</ele>
        <time>2024-04-14T11:12:22Z</time>
      </trkpt>
      <trkpt lat="45.85705" lon="3.18212">
        <ele>320.4</ele>
        <time>2024-04-14T11:12:23Z</time>
      </trkpt>
      <trkpt lat="45.85701" lon="3.18205">
        <ele>320.4</ele>
        <time>2024-04-14T11:12:24Z</time>
      </trkpt>
      <trkpt lat="45.85697" lon="3.18198">
        <ele>320.4</ele>
        <time>2024-04-14T11:12:25Z</time>
      </trkpt>
      <trkpt lat="45.85693" lon="3.1819">
        <ele>320.4</ele>
        <time>2024-04-14T11:12:26Z</time>
      </trkpt>
      <trkpt lat="45.85688" lon="3.18183">
        <ele>320.4</ele>
        <time>2024-04-14T11:12:27Z</time>
      </trkpt>
      <trkpt lat="45.85684" lon="3.18176">
        <ele>320.4</ele>
        <time>2024-04-14T11:12:28Z</time>
      </trkpt>
      <trkpt lat="45.8568" lon="3.18168">
        <ele>320.4</ele>
        <time>2024-04-14T11:12:29Z</time>
      </trkpt>
      <trkpt lat="45.85676" lon="3.18161">
        <ele>320.4</ele>
        <time>2024-04-14T11:12:30Z</time>
      </trkpt>
      <trkpt lat="45.85671" lon="3.18154">
        <ele>320.4</ele>
        <time>2024-04-14T11:12:31Z</time>
      </trkpt>
      <trkpt lat="45.85667" lon="3.18146">
        <ele>320.4</ele>
        <time>2024-04-14T11:12:32Z</time>
      </trkpt>
      <trkpt lat="45.85663" lon="3.18139">
        <ele>320.4</ele>
        <time>2024-04-14T11:12:33Z</time>
      </trkpt>
      <trkpt lat="45.85658" lon="3.18131">
        <ele>320.4</ele>
        <time>2024-04-14T11:12:34Z</time>
      </trkpt>
      <trkpt lat="45.85654" lon="3.18124">
        <ele>320.4</ele>
        <time>2024-04-14T11:12:35Z</time>
      </trkpt>
      <trkpt lat="45.8565" lon="3.18116">
        <ele>320.4</ele>
        <time>2024-04-14T11:12:36Z</time>
      </trkpt>
      <trkpt lat="45.85645" lon="3.18109">
        <ele>320.4</ele>
        <time>2024-04-14T11:12:37Z</time>
      </trkpt>
      <trkpt lat="45.85641" lon="3.18101">
        <ele>320.4</ele>
        <time>2024-04-14T11:12:38Z</time>
      </trkpt>
      <trkpt lat="45.85636" lon="3.18093">
        <ele>320.4</ele>
        <time>2024-04-14T11:12:39Z</time>
      </trkpt>
      <trkpt lat="45.85632" lon="3.18086">
        <ele>320.4</ele>
        <time>2024-04-14T11:12:40Z</time>
      </trkpt>
      <trkpt lat="45.85628" lon="3.18078">
        <ele>320.4</ele>
        <time>2024-04-14T11:12:41Z</time>
      </trkpt>
      <trkpt lat="45.85623" lon="3.18071">
        <ele>320.4</ele>
        <time>2024-04-14T11:12:42Z</time>
      </trkpt>
      <trkpt lat="45.85619" lon="3.18063">
        <ele>320.4</ele>
        <time>2024-04-14T11:12:43Z</time>
      </trkpt>
      <trkpt lat="45.85614" lon="3.18056">
        <ele>320.4</ele>
        <time>2024-04-14T11:12:44Z</time>
      </trkpt>
      <trkpt lat="45.8561" lon="3.18048">
        <ele>320.4</ele>
        <time>2024-04-14T11:12:45Z</time>
      </trkpt>
      <trkpt lat="45.85605" lon="3.1804">
        <ele>320.4</ele>
        <time>2024-04-14T11:12:46Z</time>
      </trkpt>
      <trkpt lat="45.85601" lon="3.18033">
        <ele>320.4</ele>
        <time>2024-04-14T11:12:47Z</time>
      </trkpt>
      <trkpt lat="45.85597" lon="3.18025">
        <ele>320.4</ele>
        <time>2024-04-14T11:12:48Z</time>
      </trkpt>
      <trkpt lat="45.85592" lon="3.18018">
        <ele>320.4</ele>
        <time>2024-04-14T11:12:49Z</time>
      </trkpt>
      <trkpt lat="45.85588" lon="3.1801">
        <ele>320.4</ele>
        <time>2024-04-14T11:12:50Z</time>
      </trkpt>
      <trkpt lat="45.85583" lon="3.18003">
        <ele>320.4</ele>
        <time>2024-04-14T11:12:51Z</time>
      </trkpt>
      <trkpt lat="45.85579" lon="3.17995">
        <ele>320.4</ele>
        <time>2024-04-14T11:12:52Z</time>
      </trkpt>
      <trkpt lat="45.85575" lon="3.17987">
        <ele>320.4</ele>
        <time>2024-04-14T11:12:53Z</time>
      </trkpt>
      <trkpt lat="45.8557" lon="3.1798">
        <ele>320.4</ele>
        <time>2024-04-14T11:12:54Z</time>
      </trkpt>
      <trkpt lat="45.85566" lon="3.17972">
        <ele>320.6</ele>
        <time>2024-04-14T11:12:55Z</time>
      </trkpt>
      <trkpt lat="45.85561" lon="3.17964">
        <ele>320.6</ele>
        <time>2024-04-14T11:12:56Z</time>
      </trkpt>
      <trkpt lat="45.85557" lon="3.17957">
        <ele>320.6</ele>
        <time>2024-04-14T11:12:57Z</time>
      </trkpt>
      <trkpt lat="45.85553" lon="3.1795">
        <ele>320.6</ele>
        <time>2024-04-14T11:12:58Z</time>
      </trkpt>
      <trkpt lat="45.85548" lon="3.17942">
        <ele>320.6</ele>
        <time>2024-04-14T11:12:59Z</time>
      </trkpt>
      <trkpt lat="45.85544" lon="3.17935">
        <ele>320.6</ele>
        <time>2024-04-14T11:13:00Z</time>
      </trkpt>
      <trkpt lat="45.8554" lon="3.17928">
        <ele>320.6</ele>
        <time>2024-04-14T11:13:01Z</time>
      </trkpt>
      <trkpt lat="45.85536" lon="3.17921">
        <ele>320.6</ele>
        <time>2024-04-14T11:13:02Z</time>
      </trkpt>
      <trkpt lat="45.85532" lon="3.17914">
        <ele>320.6</ele>
        <time>2024-04-14T11:13:03Z</time>
      </trkpt>
      <trkpt lat="45.85527" lon="3.17906">
        <ele>320.6</ele>
        <time>2024-04-14T11:13:04Z</time>
      </trkpt>
      <trkpt lat="45.85523" lon="3.179">
        <ele>320.6</ele>
        <time>2024-04-14T11:13:05Z</time>
      </trkpt>
      <trkpt lat="45.85518" lon="3.17894">
        <ele>320.6</ele>
        <time>2024-04-14T11:13:06Z</time>
      </trkpt>
      <trkpt lat="45.85513" lon="3.17887">
        <ele>320.6</ele>
        <time>2024-04-14T11:13:07Z</time>
      </trkpt>
      <trkpt lat="45.85508" lon="3.17881">
        <ele>320.6</ele>
        <time>2024-04-14T11:13:08Z</time>
      </trkpt>
      <trkpt lat="45.85503" lon="3.17875">
        <ele>320.6</ele>
        <time>2024-04-14T11:13:09Z</time>
      </trkpt>
      <trkpt lat="45.85499" lon="3.17869">
        <ele>320.6</ele>
        <time>2024-04-14T11:13:10Z</time>
      </trkpt>
      <trkpt lat="45.85494" lon="3.17863">
        <ele>320.4</ele>
        <time>2024-04-14T11:13:11Z</time>
      </trkpt>
      <trkpt lat="45.85489" lon="3.17857">
        <ele>320.6</ele>
        <time>2024-04-14T11:13:12Z</time>
      </trkpt>
      <trkpt lat="45.85484" lon="3.17851">
        <ele>320.6</ele>
        <time>2024-04-14T11:13:13Z</time>
      </trkpt>
      <trkpt lat="45.8548" lon="3.17845">
        <ele>320.6</ele>
        <time>2024-04-14T11:13:14Z</time>
      </trkpt>
      <trkpt lat="45.85475" lon="3.17839">
        <ele>320.6</ele>
        <time>2024-04-14T11:13:15Z</time>
      </trkpt>
      <trkpt lat="45.8547" lon="3.17833">
        <ele>320.6</ele>
        <time>2024-04-14T11:13:16Z</time>
      </trkpt>
      <trkpt lat="45.85464" lon="3.17827">
        <ele>320.6</ele>
        <time>2024-04-14T11:13:17Z</time>
      </trkpt>
      <trkpt lat="45.85459" lon="3.17821">
        <ele>320.6</ele>
        <time>2024-04-14T11:13:18Z</time>
      </trkpt>
      <trkpt lat="45.85454" lon="3.17815">
        <ele>320.6</ele>
        <time>2024-04-14T11:13:19Z</time>
      </trkpt>
      <trkpt lat="45.85448" lon="3.17809">
        <ele>320.6</ele>
        <time>2024-04-14T11:13:20Z</time>
      </trkpt>
      <trkpt lat="45.85443" lon="3.17803">
        <ele>320.6</ele>
        <time>2024-04-14T11:13:21Z</time>
      </trkpt>
      <trkpt lat="45.85438" lon="3.17797">
        <ele>320.6</ele>
        <time>2024-04-14T11:13:22Z</time>
      </trkpt>
      <trkpt lat="45.85432" lon="3.17791">
        <ele>320.6</ele>
        <time>2024-04-14T11:13:23Z</time>
      </trkpt>
      <trkpt lat="45.85427" lon="3.17785">
        <ele>320.6</ele>
        <time>2024-04-14T11:13:24Z</time>
      </trkpt>
      <trkpt lat="45.85422" lon="3.17779">
        <ele>320.6</ele>
        <time>2024-04-14T11:13:25Z</time>
      </trkpt>
      <trkpt lat="45.85416" lon="3.17773">
        <ele>320.6</ele>
        <time>2024-04-14T11:13:26Z</time>
      </trkpt>
      <trkpt lat="45.85411" lon="3.17767">
        <ele>320.6</ele>
        <time>2024-04-14T11:13:27Z</time>
      </trkpt>
      <trkpt lat="45.85405" lon="3.17761">
        <ele>320.6</ele>
        <time>2024-04-14T11:13:28Z</time>
      </trkpt>
      <trkpt lat="45.854" lon="3.17755">
        <ele>320.6</ele>
        <time>2024-04-14T11:13:29Z</time>
      </trkpt>
      <trkpt lat="45.85395" lon="3.17748">
        <ele>320.6</ele>
        <time>2024-04-14T11:13:30Z</time>
      </trkpt>
      <trkpt lat="45.85391" lon="3.17741">
        <ele>320.6</ele>
        <time>2024-04-14T11:13:31Z</time>
      </trkpt>
      <trkpt lat="45.85387" lon="3.17733">
        <ele>320.6</ele>
        <time>2024-04-14T11:13:32Z</time>
      </trkpt>
      <trkpt lat="45.85383" lon="3.17726">
        <ele>320.6</ele>
        <time>2024-04-14T11:13:33Z</time>
      </trkpt>
      <trkpt lat="45.85379" lon="3.17719">
        <ele>320.6</ele>
        <time>2024-04-14T11:13:34Z</time>
      </trkpt>
      <trkpt lat="45.85375" lon="3.17711">
        <ele>320.6</ele>
        <time>2024-04-14T11:13:35Z</time>
      </trkpt>
      <trkpt lat="45.8537" lon="3.17704">
        <ele>320.8</ele>
        <time>2024-04-14T11:13:36Z</time>
      </trkpt>
      <trkpt lat="45.85367" lon="3.17697">
        <ele>320.8</ele>
        <time>2024-04-14T11:13:37Z</time>
      </trkpt>
      <trkpt lat="45.85365" lon="3.17689">
        <ele>320.8</ele>
        <time>2024-04-14T11:13:38Z</time>
      </trkpt>
      <trkpt lat="45.85362" lon="3.1768">
        <ele>320.8</ele>
        <time>2024-04-14T11:13:39Z</time>
      </trkpt>
      <trkpt lat="45.8536" lon="3.17672">
        <ele>320.8</ele>
        <time>2024-04-14T11:13:40Z</time>
      </trkpt>
      <trkpt lat="45.85357" lon="3.17664">
        <ele>320.8</ele>
        <time>2024-04-14T11:13:41Z</time>
      </trkpt>
      <trkpt lat="45.85356" lon="3.17656">
        <ele>320.8</ele>
        <time>2024-04-14T11:13:42Z</time>
      </trkpt>
      <trkpt lat="45.85355" lon="3.17647">
        <ele>320.8</ele>
        <time>2024-04-14T11:13:43Z</time>
      </trkpt>
      <trkpt lat="45.85355" lon="3.17638">
        <ele>321</ele>
        <time>2024-04-14T11:13:44Z</time>
      </trkpt>
      <trkpt lat="45.85349" lon="3.1763">
        <ele>321</ele>
        <time>2024-04-14T11:13:45Z</time>
      </trkpt>
      <trkpt lat="45.85344" lon="3.17625">
        <ele>321</ele>
        <time>2024-04-14T11:13:46Z</time>
      </trkpt>
      <trkpt lat="45.85337" lon="3.17621">
        <ele>321</ele>
        <time>2024-04-14T11:13:47Z</time>
      </trkpt>
      <trkpt lat="45.8533" lon="3.17622">
        <ele>321</ele>
        <time>2024-04-14T11:13:48Z</time>
      </trkpt>
      <trkpt lat="45.85323" lon="3.17627">
        <ele>321</ele>
        <time>2024-04-14T11:13:49Z</time>
      </trkpt>
      <trkpt lat="45.85318" lon="3.17633">
        <ele>321</ele>
        <time>2024-04-14T11:13:50Z</time>
      </trkpt>
      <trkpt lat="45.85316" lon="3.17645">
        <ele>321.2</ele>
        <time>2024-04-14T11:13:51Z</time>
      </trkpt>
      <trkpt lat="45.85316" lon="3.17651">
        <ele>321.2</ele>
        <time>2024-04-14T11:13:52Z</time>
      </trkpt>
      <trkpt lat="45.85319" lon="3.17663">
        <ele>321.2</ele>
        <time>2024-04-14T11:13:53Z</time>
      </trkpt>
      <trkpt lat="45.8532" lon="3.1768">
        <ele>321.2</ele>
        <time>2024-04-14T11:13:54Z</time>
      </trkpt>
      <trkpt lat="45.85316" lon="3.17688">
        <ele>321.2</ele>
        <time>2024-04-14T11:13:55Z</time>
      </trkpt>
      <trkpt lat="45.85312" lon="3.17696">
        <ele>321</ele>
        <time>2024-04-14T11:13:56Z</time>
      </trkpt>
      <trkpt lat="45.85307" lon="3.17703">
        <ele>321.2</ele>
        <time>2024-04-14T11:13:57Z</time>
      </trkpt>
      <trkpt lat="45.85303" lon="3.17709">
        <ele>321.2</ele>
        <time>2024-04-14T11:13:58Z</time>
      </trkpt>
      <trkpt lat="45.85299" lon="3.17718">
        <ele>321.2</ele>
        <time>2024-04-14T11:13:59Z</time>
      </trkpt>
      <trkpt lat="45.85296" lon="3.17726">
        <ele>321</ele>
        <time>2024-04-14T11:14:00Z</time>
      </trkpt>
      <trkpt lat="45.85292" lon="3.17735">
        <ele>321</ele>
        <time>2024-04-14T11:14:01Z</time>
      </trkpt>
      <trkpt lat="45.8529" lon="3.17744">
        <ele>321</ele>
        <time>2024-04-14T11:14:02Z</time>
      </trkpt>
      <trkpt lat="45.85288" lon="3.17754">
        <ele>321</ele>
        <time>2024-04-14T11:14:03Z</time>
      </trkpt>
      <trkpt lat="45.85286" lon="3.17763">
        <ele>321</ele>
        <time>2024-04-14T11:14:04Z</time>
      </trkpt>
      <trkpt lat="45.85284" lon="3.17771">
        <ele>321</ele>
        <time>2024-04-14T11:14:05Z</time>
      </trkpt>
      <trkpt lat="45.85283" lon="3.17779">
        <ele>321</ele>
        <time>2024-04-14T11:14:06Z</time>
      </trkpt>
      <trkpt lat="45.85281" lon="3.17788">
        <ele>321</ele>
        <time>2024-04-14T11:14:07Z</time>
      </trkpt>
      <trkpt lat="45.85279" lon="3.17797">
        <ele>321.2</ele>
        <time>2024-04-14T11:14:08Z</time>
      </trkpt>
      <trkpt lat="45.85277" lon="3.17806">
        <ele>321.2</ele>
        <time>2024-04-14T11:14:09Z</time>
      </trkpt>
      <trkpt lat="45.85275" lon="3.17815">
        <ele>321.2</ele>
        <time>2024-04-14T11:14:10Z</time>
      </trkpt>
      <trkpt lat="45.85273" lon="3.17824">
        <ele>321</ele>
        <time>2024-04-14T11:14:11Z</time>
      </trkpt>
      <trkpt lat="45.85271" lon="3.17833">
        <ele>321.2</ele>
        <time>2024-04-14T11:14:12Z</time>
      </trkpt>
      <trkpt lat="45.85269" lon="3.17842">
        <ele>321.2</ele>
        <time>2024-04-14T11:14:13Z</time>
      </trkpt>
      <trkpt lat="45.85267" lon="3.17851">
        <ele>321.2</ele>
        <time>2024-04-14T11:14:14Z</time>
      </trkpt>
      <trkpt lat="45.85265" lon="3.17861">
        <ele>321.2</ele>
        <time>2024-04-14T11:14:15Z</time>
      </trkpt>
      <trkpt lat="45.85264" lon="3.1787">
        <ele>321.2</ele>
        <time>2024-04-14T11:14:16Z</time>
      </trkpt>
      <trkpt lat="45.85262" lon="3.17879">
        <ele>321.2</ele>
        <time>2024-04-14T11:14:17Z</time>
      </trkpt>
      <trkpt lat="45.8526" lon="3.17888">
        <ele>321</ele>
        <time>2024-04-14T11:14:18Z</time>
      </trkpt>
      <trkpt lat="45.85258" lon="3.17898">
        <ele>321</ele>
        <time>2024-04-14T11:14:19Z</time>
      </trkpt>
      <trkpt lat="45.85256" lon="3.17907">
        <ele>320.8</ele>
        <time>2024-04-14T11:14:20Z</time>
      </trkpt>
      <trkpt lat="45.85254" lon="3.17916">
        <ele>321</ele>
        <time>2024-04-14T11:14:21Z</time>
      </trkpt>
      <trkpt lat="45.85252" lon="3.17924">
        <ele>321</ele>
        <time>2024-04-14T11:14:22Z</time>
      </trkpt>
      <trkpt lat="45.85249" lon="3.17931">
        <ele>321</ele>
        <time>2024-04-14T11:14:23Z</time>
      </trkpt>
      <trkpt lat="45.85246" lon="3.17936">
        <ele>321</ele>
        <time>2024-04-14T11:14:24Z</time>
      </trkpt>
      <trkpt lat="45.85243" lon="3.17943">
        <ele>321</ele>
        <time>2024-04-14T11:14:25Z</time>
      </trkpt>
      <trkpt lat="45.85238" lon="3.1795">
        <ele>320.8</ele>
        <time>2024-04-14T11:14:26Z</time>
      </trkpt>
      <trkpt lat="45.85232" lon="3.17955">
        <ele>320.8</ele>
        <time>2024-04-14T11:14:27Z</time>
      </trkpt>
      <trkpt lat="45.85227" lon="3.17959">
        <ele>320.8</ele>
        <time>2024-04-14T11:14:28Z</time>
      </trkpt>
      <trkpt lat="45.85222" lon="3.17964">
        <ele>320.8</ele>
        <time>2024-04-14T11:14:29Z</time>
      </trkpt>
      <trkpt lat="45.85217" lon="3.17969">
        <ele>320.8</ele>
        <time>2024-04-14T11:14:30Z</time>
      </trkpt>
      <trkpt lat="45.85212" lon="3.17974">
        <ele>320.8</ele>
        <time>2024-04-14T11:14:31Z</time>
      </trkpt>
      <trkpt lat="45.85206" lon="3.17979">
        <ele>320.8</ele>
        <time>2024-04-14T11:14:32Z</time>
      </trkpt>
      <trkpt lat="45.85201" lon="3.17984">
        <ele>320.8</ele>
        <time>2024-04-14T11:14:33Z</time>
      </trkpt>
      <trkpt lat="45.85195" lon="3.17989">
        <ele>320.8</ele>
        <time>2024-04-14T11:14:34Z</time>
      </trkpt>
      <trkpt lat="45.8519" lon="3.17995">
        <ele>320.8</ele>
        <time>2024-04-14T11:14:35Z</time>
      </trkpt>
      <trkpt lat="45.85184" lon="3.18">
        <ele>320.8</ele>
        <time>2024-04-14T11:14:36Z</time>
      </trkpt>
      <trkpt lat="45.85178" lon="3.18005">
        <ele>320.8</ele>
        <time>2024-04-14T11:14:37Z</time>
      </trkpt>
      <trkpt lat="45.85173" lon="3.18011">
        <ele>320.6</ele>
        <time>2024-04-14T11:14:38Z</time>
      </trkpt>
      <trkpt lat="45.85168" lon="3.18017">
        <ele>320.6</ele>
        <time>2024-04-14T11:14:39Z</time>
      </trkpt>
      <trkpt lat="45.85163" lon="3.18024">
        <ele>320.6</ele>
        <time>2024-04-14T11:14:40Z</time>
      </trkpt>
      <trkpt lat="45.85159" lon="3.18031">
        <ele>320.6</ele>
        <time>2024-04-14T11:14:41Z</time>
      </trkpt>
      <trkpt lat="45.85155" lon="3.18039">
        <ele>320.6</ele>
        <time>2024-04-14T11:14:42Z</time>
      </trkpt>
      <trkpt lat="45.8515" lon="3.18046">
        <ele>320.6</ele>
        <time>2024-04-14T11:14:43Z</time>
      </trkpt>
      <trkpt lat="45.85146" lon="3.18053">
        <ele>320.6</ele>
        <time>2024-04-14T11:14:44Z</time>
      </trkpt>
      <trkpt lat="45.85141" lon="3.18059">
        <ele>320.6</ele>
        <time>2024-04-14T11:14:45Z</time>
      </trkpt>
      <trkpt lat="45.85136" lon="3.18066">
        <ele>320.6</ele>
        <time>2024-04-14T11:14:46Z</time>
      </trkpt>
      <trkpt lat="45.85132" lon="3.18072">
        <ele>320.6</ele>
        <time>2024-04-14T11:14:47Z</time>
      </trkpt>
      <trkpt lat="45.85127" lon="3.18078">
        <ele>320.6</ele>
        <time>2024-04-14T11:14:48Z</time>
      </trkpt>
      <trkpt lat="45.85123" lon="3.18085">
        <ele>320.6</ele>
        <time>2024-04-14T11:14:49Z</time>
      </trkpt>
      <trkpt lat="45.85118" lon="3.18091">
        <ele>320.6</ele>
        <time>2024-04-14T11:14:50Z</time>
      </trkpt>
      <trkpt lat="45.85113" lon="3.18098">
        <ele>320.4</ele>
        <time>2024-04-14T11:14:51Z</time>
      </trkpt>
      <trkpt lat="45.85107" lon="3.18102">
        <ele>320.4</ele>
        <time>2024-04-14T11:14:52Z</time>
      </trkpt>
      <trkpt lat="45.851" lon="3.18106">
        <ele>320.4</ele>
        <time>2024-04-14T11:14:53Z</time>
      </trkpt>
      <trkpt lat="45.85093" lon="3.18106">
        <ele>320.4</ele>
        <time>2024-04-14T11:14:54Z</time>
      </trkpt>
      <trkpt lat="45.85087" lon="3.18106">
        <ele>320.4</ele>
        <time>2024-04-14T11:14:55Z</time>
      </trkpt>
      <trkpt lat="45.8508" lon="3.18106">
        <ele>320.2</ele>
        <time>2024-04-14T11:14:56Z</time>
      </trkpt>
      <trkpt lat="45.85073" lon="3.18106">
        <ele>320.2</ele>
        <time>2024-04-14T11:14:57Z</time>
      </trkpt>
      <trkpt lat="45.85066" lon="3.18106">
        <ele>320.4</ele>
        <time>2024-04-14T11:14:58Z</time>
      </trkpt>
      <trkpt lat="45.85059" lon="3.18105">
        <ele>320.4</ele>
        <time>2024-04-14T11:14:59Z</time>
      </trkpt>
      <trkpt lat="45.85059" lon="3.18105">
        <ele>320.4</ele>
        <time>2024-04-14T11:15:00Z</time>
      </trkpt>
      <trkpt lat="45.85046" lon="3.18104">
        <ele>320.4</ele>
        <time>2024-04-14T11:15:01Z</time>
      </trkpt>
      <trkpt lat="45.85039" lon="3.18103">
        <ele>320.4</ele>
        <time>2024-04-14T11:15:02Z</time>
      </trkpt>
      <trkpt lat="45.85033" lon="3.18103">
        <ele>320.4</ele>
        <time>2024-04-14T11:15:03Z</time>
      </trkpt>
      <trkpt lat="45.85026" lon="3.18102">
        <ele>320.4</ele>
        <time>2024-04-14T11:15:04Z</time>
      </trkpt>
      <trkpt lat="45.85019" lon="3.18101">
        <ele>320.4</ele>
        <time>2024-04-14T11:15:05Z</time>
      </trkpt>
      <trkpt lat="45.85013" lon="3.181">
        <ele>320.4</ele>
        <time>2024-04-14T11:15:06Z</time>
      </trkpt>
      <trkpt lat="45.85006" lon="3.18099">
        <ele>320.4</ele>
        <time>2024-04-14T11:15:07Z</time>
      </trkpt>
      <trkpt lat="45.85006" lon="3.18099">
        <ele>320.4</ele>
        <time>2024-04-14T11:15:08Z</time>
      </trkpt>
      <trkpt lat="45.84993" lon="3.18097">
        <ele>320.4</ele>
        <time>2024-04-14T11:15:09Z</time>
      </trkpt>
      <trkpt lat="45.84987" lon="3.18096">
        <ele>320.4</ele>
        <time>2024-04-14T11:15:10Z</time>
      </trkpt>
      <trkpt lat="45.8498" lon="3.18096">
        <ele>320.4</ele>
        <time>2024-04-14T11:15:11Z</time>
      </trkpt>
      <trkpt lat="45.84974" lon="3.18095">
        <ele>320.4</ele>
        <time>2024-04-14T11:15:12Z</time>
      </trkpt>
      <trkpt lat="45.84968" lon="3.18096">
        <ele>320.4</ele>
        <time>2024-04-14T11:15:13Z</time>
      </trkpt>
      <trkpt lat="45.84961" lon="3.18097">
        <ele>320.4</ele>
        <time>2024-04-14T11:15:14Z</time>
      </trkpt>
      <trkpt lat="45.84955" lon="3.18098">
        <ele>320.6</ele>
        <time>2024-04-14T11:15:15Z</time>
      </trkpt>
      <trkpt lat="45.84955" lon="3.18098">
        <ele>320.6</ele>
        <time>2024-04-14T11:15:16Z</time>
      </trkpt>
      <trkpt lat="45.84943" lon="3.18105">
        <ele>320.6</ele>
        <time>2024-04-14T11:15:17Z</time>
      </trkpt>
      <trkpt lat="45.84943" lon="3.18105">
        <ele>320.6</ele>
        <time>2024-04-14T11:15:18Z</time>
      </trkpt>
      <trkpt lat="45.84943" lon="3.18105">
        <ele>320.4</ele>
        <time>2024-04-14T11:15:19Z</time>
      </trkpt>
      <trkpt lat="45.84933" lon="3.18131">
        <ele>320.4</ele>
        <time>2024-04-14T11:15:20Z</time>
      </trkpt>
      <trkpt lat="45.8493" lon="3.18141">
        <ele>320.4</ele>
        <time>2024-04-14T11:15:21Z</time>
      </trkpt>
      <trkpt lat="45.8493" lon="3.18141">
        <ele>320.4</ele>
        <time>2024-04-14T11:15:22Z</time>
      </trkpt>
      <trkpt lat="45.8493" lon="3.18141">
        <ele>320.4</ele>
        <time>2024-04-14T11:15:23Z</time>
      </trkpt>
      <trkpt lat="45.84926" lon="3.18172">
        <ele>320.4</ele>
        <time>2024-04-14T11:15:24Z</time>
      </trkpt>
      <trkpt lat="45.84926" lon="3.18172">
        <ele>320.4</ele>
        <time>2024-04-14T11:15:25Z</time>
      </trkpt>
      <trkpt lat="45.84926" lon="3.18172">
        <ele>320.2</ele>
        <time>2024-04-14T11:15:26Z</time>
      </trkpt>
      <trkpt lat="45.8493" lon="3.18203">
        <ele>320.2</ele>
        <time>2024-04-14T11:15:27Z</time>
      </trkpt>
      <trkpt lat="45.8493" lon="3.18203">
        <ele>320.2</ele>
        <time>2024-04-14T11:15:28Z</time>
      </trkpt>
      <trkpt lat="45.8493" lon="3.18203">
        <ele>320.2</ele>
        <time>2024-04-14T11:15:29Z</time>
      </trkpt>
      <trkpt lat="45.84933" lon="3.18232">
        <ele>320.2</ele>
        <time>2024-04-14T11:15:30Z</time>
      </trkpt>
      <trkpt lat="45.84933" lon="3.18232">
        <ele>320.2</ele>
        <time>2024-04-14T11:15:31Z</time>
      </trkpt>
      <trkpt lat="45.84933" lon="3.18232">
        <ele>320</ele>
        <time>2024-04-14T11:15:32Z</time>
      </trkpt>
      <trkpt lat="45.84934" lon="3.18261">
        <ele>320</ele>
        <time>2024-04-14T11:15:33Z</time>
      </trkpt>
      <trkpt lat="45.84931" lon="3.18268">
        <ele>320.2</ele>
        <time>2024-04-14T11:15:34Z</time>
      </trkpt>
      <trkpt lat="45.84927" lon="3.18277">
        <ele>320.2</ele>
        <time>2024-04-14T11:15:35Z</time>
      </trkpt>
      <trkpt lat="45.84922" lon="3.18281">
        <ele>320.2</ele>
        <time>2024-04-14T11:15:36Z</time>
      </trkpt>
      <trkpt lat="45.84916" lon="3.18285">
        <ele>320.2</ele>
        <time>2024-04-14T11:15:37Z</time>
      </trkpt>
      <trkpt lat="45.84909" lon="3.18289">
        <ele>320.2</ele>
        <time>2024-04-14T11:15:38Z</time>
      </trkpt>
      <trkpt lat="45.84903" lon="3.18293">
        <ele>320.2</ele>
        <time>2024-04-14T11:15:39Z</time>
      </trkpt>
      <trkpt lat="45.84896" lon="3.18297">
        <ele>320.2</ele>
        <time>2024-04-14T11:15:40Z</time>
      </trkpt>
      <trkpt lat="45.8489" lon="3.18301">
        <ele>320</ele>
        <time>2024-04-14T11:15:41Z</time>
      </trkpt>
      <trkpt lat="45.84884" lon="3.18305">
        <ele>320.2</ele>
        <time>2024-04-14T11:15:42Z</time>
      </trkpt>
      <trkpt lat="45.84878" lon="3.18309">
        <ele>320</ele>
        <time>2024-04-14T11:15:43Z</time>
      </trkpt>
      <trkpt lat="45.84872" lon="3.18314">
        <ele>320.4</ele>
        <time>2024-04-14T11:15:44Z</time>
      </trkpt>
      <trkpt lat="45.84866" lon="3.1832">
        <ele>320.6</ele>
        <time>2024-04-14T11:15:45Z</time>
      </trkpt>
      <trkpt lat="45.8486" lon="3.18325">
        <ele>320.6</ele>
        <time>2024-04-14T11:15:46Z</time>
      </trkpt>
      <trkpt lat="45.84853" lon="3.18331">
        <ele>320.6</ele>
        <time>2024-04-14T11:15:47Z</time>
      </trkpt>
      <trkpt lat="45.84847" lon="3.18336">
        <ele>320.4</ele>
        <time>2024-04-14T11:15:48Z</time>
      </trkpt>
      <trkpt lat="45.84842" lon="3.18343">
        <ele>320.4</ele>
        <time>2024-04-14T11:15:49Z</time>
      </trkpt>
      <trkpt lat="45.84836" lon="3.18351">
        <ele>320.6</ele>
        <time>2024-04-14T11:15:50Z</time>
      </trkpt>
      <trkpt lat="45.84831" lon="3.18358">
        <ele>320.4</ele>
        <time>2024-04-14T11:15:51Z</time>
      </trkpt>
      <trkpt lat="45.84826" lon="3.18366">
        <ele>320.2</ele>
        <time>2024-04-14T11:15:52Z</time>
      </trkpt>
      <trkpt lat="45.84821" lon="3.18374">
        <ele>320.2</ele>
        <time>2024-04-14T11:15:53Z</time>
      </trkpt>
      <trkpt lat="45.84816" lon="3.18382">
        <ele>320</ele>
        <time>2024-04-14T11:15:54Z</time>
      </trkpt>
      <trkpt lat="45.84812" lon="3.1839">
        <ele>320</ele>
        <time>2024-04-14T11:15:55Z</time>
      </trkpt>
      <trkpt lat="45.84807" lon="3.18397">
        <ele>320.4</ele>
        <time>2024-04-14T11:15:56Z</time>
      </trkpt>
      <trkpt lat="45.84802" lon="3.18405">
        <ele>320.4</ele>
        <time>2024-04-14T11:15:57Z</time>
      </trkpt>
      <trkpt lat="45.84802" lon="3.18405">
        <ele>320</ele>
        <time>2024-04-14T11:15:58Z</time>
      </trkpt>
      <trkpt lat="45.84793" lon="3.1842">
        <ele>320.2</ele>
        <time>2024-04-14T11:15:59Z</time>
      </trkpt>
      <trkpt lat="45.84787" lon="3.18425">
        <ele>320.2</ele>
        <time>2024-04-14T11:16:00Z</time>
      </trkpt>
      <trkpt lat="45.84787" lon="3.18425">
        <ele>320.2</ele>
        <time>2024-04-14T11:16:01Z</time>
      </trkpt>
      <trkpt lat="45.84775" lon="3.18435">
        <ele>319.8</ele>
        <time>2024-04-14T11:16:02Z</time>
      </trkpt>
      <trkpt lat="45.8477" lon="3.18439">
        <ele>320</ele>
        <time>2024-04-14T11:16:03Z</time>
      </trkpt>
      <trkpt lat="45.8477" lon="3.18439">
        <ele>320</ele>
        <time>2024-04-14T11:16:04Z</time>
      </trkpt>
      <trkpt lat="45.84754" lon="3.18443">
        <ele>320.2</ele>
        <time>2024-04-14T11:16:05Z</time>
      </trkpt>
      <trkpt lat="45.84749" lon="3.18439">
        <ele>320.4</ele>
        <time>2024-04-14T11:16:06Z</time>
      </trkpt>
      <trkpt lat="45.84749" lon="3.18439">
        <ele>320.6</ele>
        <time>2024-04-14T11:16:07Z</time>
      </trkpt>
      <trkpt lat="45.84736" lon="3.18443">
        <ele>320.4</ele>
        <time>2024-04-14T11:16:08Z</time>
      </trkpt>
      <trkpt lat="45.84732" lon="3.1845">
        <ele>320.4</ele>
        <time>2024-04-14T11:16:09Z</time>
      </trkpt>
      <trkpt lat="45.84732" lon="3.1845">
        <ele>320.6</ele>
        <time>2024-04-14T11:16:10Z</time>
      </trkpt>
      <trkpt lat="45.8473" lon="3.18473">
        <ele>320.6</ele>
        <time>2024-04-14T11:16:11Z</time>
      </trkpt>
      <trkpt lat="45.84732" lon="3.18483">
        <ele>320.6</ele>
        <time>2024-04-14T11:16:12Z</time>
      </trkpt>
      <trkpt lat="45.84732" lon="3.18483">
        <ele>320.6</ele>
        <time>2024-04-14T11:16:13Z</time>
      </trkpt>
      <trkpt lat="45.8475" lon="3.18499">
        <ele>320.6</ele>
        <time>2024-04-14T11:16:14Z</time>
      </trkpt>
      <trkpt lat="45.8475" lon="3.18509">
        <ele>320.6</ele>
        <time>2024-04-14T11:16:15Z</time>
      </trkpt>
      <trkpt lat="45.84751" lon="3.18519">
        <ele>320.6</ele>
        <time>2024-04-14T11:16:16Z</time>
      </trkpt>
      <trkpt lat="45.84752" lon="3.1853">
        <ele>320.6</ele>
        <time>2024-04-14T11:16:17Z</time>
      </trkpt>
      <trkpt lat="45.84752" lon="3.18541">
        <ele>320.6</ele>
        <time>2024-04-14T11:16:18Z</time>
      </trkpt>
      <trkpt lat="45.84753" lon="3.18553">
        <ele>320.6</ele>
        <time>2024-04-14T11:16:19Z</time>
      </trkpt>
      <trkpt lat="45.84753" lon="3.18564">
        <ele>320.6</ele>
        <time>2024-04-14T11:16:20Z</time>
      </trkpt>
      <trkpt lat="45.84752" lon="3.18575">
        <ele>320.6</ele>
        <time>2024-04-14T11:16:21Z</time>
      </trkpt>
      <trkpt lat="45.8475" lon="3.18585">
        <ele>320.8</ele>
        <time>2024-04-14T11:16:22Z</time>
      </trkpt>
      <trkpt lat="45.84749" lon="3.18596">
        <ele>320.8</ele>
        <time>2024-04-14T11:16:23Z</time>
      </trkpt>
      <trkpt lat="45.84746" lon="3.18606">
        <ele>320.8</ele>
        <time>2024-04-14T11:16:24Z</time>
      </trkpt>
      <trkpt lat="45.84743" lon="3.18615">
        <ele>320.8</ele>
        <time>2024-04-14T11:16:25Z</time>
      </trkpt>
      <trkpt lat="45.8474" lon="3.18625">
        <ele>320.8</ele>
        <time>2024-04-14T11:16:26Z</time>
      </trkpt>
      <trkpt lat="45.84738" lon="3.18635">
        <ele>320.8</ele>
        <time>2024-04-14T11:16:27Z</time>
      </trkpt>
      <trkpt lat="45.84735" lon="3.18644">
        <ele>320.8</ele>
        <time>2024-04-14T11:16:28Z</time>
      </trkpt>
      <trkpt lat="45.84732" lon="3.18654">
        <ele>320.8</ele>
        <time>2024-04-14T11:16:29Z</time>
      </trkpt>
      <trkpt lat="45.84729" lon="3.18664">
        <ele>320.8</ele>
        <time>2024-04-14T11:16:30Z</time>
      </trkpt>
      <trkpt lat="45.84726" lon="3.18673">
        <ele>320.8</ele>
        <time>2024-04-14T11:16:31Z</time>
      </trkpt>
      <trkpt lat="45.84722" lon="3.18682">
        <ele>320.8</ele>
        <time>2024-04-14T11:16:32Z</time>
      </trkpt>
      <trkpt lat="45.84718" lon="3.18691">
        <ele>320.8</ele>
        <time>2024-04-14T11:16:33Z</time>
      </trkpt>
      <trkpt lat="45.84714" lon="3.187">
        <ele>321</ele>
        <time>2024-04-14T11:16:34Z</time>
      </trkpt>
      <trkpt lat="45.84711" lon="3.18708">
        <ele>321</ele>
        <time>2024-04-14T11:16:35Z</time>
      </trkpt>
      <trkpt lat="45.84707" lon="3.18717">
        <ele>321</ele>
        <time>2024-04-14T11:16:36Z</time>
      </trkpt>
      <trkpt lat="45.84703" lon="3.18725">
        <ele>321</ele>
        <time>2024-04-14T11:16:37Z</time>
      </trkpt>
      <trkpt lat="45.847" lon="3.18733">
        <ele>321</ele>
        <time>2024-04-14T11:16:38Z</time>
      </trkpt>
      <trkpt lat="45.84696" lon="3.18742">
        <ele>321</ele>
        <time>2024-04-14T11:16:39Z</time>
      </trkpt>
      <trkpt lat="45.84693" lon="3.1875">
        <ele>321.2</ele>
        <time>2024-04-14T11:16:40Z</time>
      </trkpt>
      <trkpt lat="45.84689" lon="3.18758">
        <ele>321.2</ele>
        <time>2024-04-14T11:16:41Z</time>
      </trkpt>
      <trkpt lat="45.84685" lon="3.18766">
        <ele>321.2</ele>
        <time>2024-04-14T11:16:42Z</time>
      </trkpt>
      <trkpt lat="45.84682" lon="3.18775">
        <ele>321.2</ele>
        <time>2024-04-14T11:16:43Z</time>
      </trkpt>
      <trkpt lat="45.84678" lon="3.18783">
        <ele>321.2</ele>
        <time>2024-04-14T11:16:44Z</time>
      </trkpt>
      <trkpt lat="45.84675" lon="3.18791">
        <ele>321.2</ele>
        <time>2024-04-14T11:16:45Z</time>
      </trkpt>
      <trkpt lat="45.84671" lon="3.188">
        <ele>321.2</ele>
        <time>2024-04-14T11:16:46Z</time>
      </trkpt>
      <trkpt lat="45.84668" lon="3.18808">
        <ele>321.2</ele>
        <time>2024-04-14T11:16:47Z</time>
      </trkpt>
      <trkpt lat="45.84664" lon="3.18816">
        <ele>321.2</ele>
        <time>2024-04-14T11:16:48Z</time>
      </trkpt>
      <trkpt lat="45.84661" lon="3.18824">
        <ele>321.2</ele>
        <time>2024-04-14T11:16:49Z</time>
      </trkpt>
      <trkpt lat="45.84657" lon="3.18832">
        <ele>321.2</ele>
        <time>2024-04-14T11:16:50Z</time>
      </trkpt>
      <trkpt lat="45.84654" lon="3.1884">
        <ele>321.2</ele>
        <time>2024-04-14T11:16:51Z</time>
      </trkpt>
      <trkpt lat="45.8465" lon="3.18849">
        <ele>321.2</ele>
        <time>2024-04-14T11:16:52Z</time>
      </trkpt>
      <trkpt lat="45.84647" lon="3.18857">
        <ele>321.2</ele>
        <time>2024-04-14T11:16:53Z</time>
      </trkpt>
      <trkpt lat="45.84643" lon="3.18865">
        <ele>321.2</ele>
        <time>2024-04-14T11:16:54Z</time>
      </trkpt>
      <trkpt lat="45.84639" lon="3.18873">
        <ele>321.2</ele>
        <time>2024-04-14T11:16:55Z</time>
      </trkpt>
      <trkpt lat="45.84636" lon="3.18882">
        <ele>321.2</ele>
        <time>2024-04-14T11:16:56Z</time>
      </trkpt>
      <trkpt lat="45.84634" lon="3.18891">
        <ele>321.2</ele>
        <time>2024-04-14T11:16:57Z</time>
      </trkpt>
      <trkpt lat="45.84632" lon="3.18901">
        <ele>321.2</ele>
        <time>2024-04-14T11:16:58Z</time>
      </trkpt>
      <trkpt lat="45.84631" lon="3.1891">
        <ele>321.2</ele>
        <time>2024-04-14T11:16:59Z</time>
      </trkpt>
      <trkpt lat="45.84629" lon="3.1892">
        <ele>321.2</ele>
        <time>2024-04-14T11:17:00Z</time>
      </trkpt>
      <trkpt lat="45.84627" lon="3.1893">
        <ele>321.2</ele>
        <time>2024-04-14T11:17:01Z</time>
      </trkpt>
      <trkpt lat="45.84626" lon="3.1894">
        <ele>321.2</ele>
        <time>2024-04-14T11:17:02Z</time>
      </trkpt>
      <trkpt lat="45.84624" lon="3.1895">
        <ele>321.2</ele>
        <time>2024-04-14T11:17:03Z</time>
      </trkpt>
      <trkpt lat="45.84622" lon="3.1896">
        <ele>321.2</ele>
        <time>2024-04-14T11:17:04Z</time>
      </trkpt>
      <trkpt lat="45.84621" lon="3.1897">
        <ele>321.2</ele>
        <time>2024-04-14T11:17:05Z</time>
      </trkpt>
      <trkpt lat="45.84619" lon="3.1898">
        <ele>321.2</ele>
        <time>2024-04-14T11:17:06Z</time>
      </trkpt>
      <trkpt lat="45.84617" lon="3.18991">
        <ele>321.2</ele>
        <time>2024-04-14T11:17:07Z</time>
      </trkpt>
      <trkpt lat="45.84615" lon="3.19001">
        <ele>321.2</ele>
        <time>2024-04-14T11:17:08Z</time>
      </trkpt>
      <trkpt lat="45.84614" lon="3.19011">
        <ele>321.4</ele>
        <time>2024-04-14T11:17:09Z</time>
      </trkpt>
      <trkpt lat="45.84612" lon="3.19022">
        <ele>321.4</ele>
        <time>2024-04-14T11:17:10Z</time>
      </trkpt>
      <trkpt lat="45.8461" lon="3.19032">
        <ele>321.4</ele>
        <time>2024-04-14T11:17:11Z</time>
      </trkpt>
      <trkpt lat="45.84608" lon="3.19043">
        <ele>321.4</ele>
        <time>2024-04-14T11:17:12Z</time>
      </trkpt>
      <trkpt lat="45.84606" lon="3.19053">
        <ele>321.4</ele>
        <time>2024-04-14T11:17:13Z</time>
      </trkpt>
      <trkpt lat="45.84604" lon="3.19064">
        <ele>321.4</ele>
        <time>2024-04-14T11:17:14Z</time>
      </trkpt>
      <trkpt lat="45.84603" lon="3.19075">
        <ele>321.4</ele>
        <time>2024-04-14T11:17:15Z</time>
      </trkpt>
      <trkpt lat="45.84601" lon="3.19085">
        <ele>321.4</ele>
        <time>2024-04-14T11:17:16Z</time>
      </trkpt>
      <trkpt lat="45.84599" lon="3.19096">
        <ele>321.4</ele>
        <time>2024-04-14T11:17:17Z</time>
      </trkpt>
      <trkpt lat="45.84597" lon="3.19106">
        <ele>321.4</ele>
        <time>2024-04-14T11:17:18Z</time>
      </trkpt>
      <trkpt lat="45.84596" lon="3.19116">
        <ele>321.4</ele>
        <time>2024-04-14T11:17:19Z</time>
      </trkpt>
      <trkpt lat="45.84594" lon="3.19126">
        <ele>321.4</ele>
        <time>2024-04-14T11:17:20Z</time>
      </trkpt>
      <trkpt lat="45.84592" lon="3.19136">
        <ele>321.4</ele>
        <time>2024-04-14T11:17:21Z</time>
      </trkpt>
      <trkpt lat="45.8459" lon="3.19147">
        <ele>321.4</ele>
        <time>2024-04-14T11:17:22Z</time>
      </trkpt>
      <trkpt lat="45.84589" lon="3.19157">
        <ele>321.4</ele>
        <time>2024-04-14T11:17:23Z</time>
      </trkpt>
      <trkpt lat="45.84588" lon="3.19167">
        <ele>321.4</ele>
        <time>2024-04-14T11:17:24Z</time>
      </trkpt>
      <trkpt lat="45.84586" lon="3.19178">
        <ele>321.4</ele>
        <time>2024-04-14T11:17:25Z</time>
      </trkpt>
      <trkpt lat="45.84585" lon="3.19188">
        <ele>321.4</ele>
        <time>2024-04-14T11:17:26Z</time>
      </trkpt>
      <trkpt lat="45.84584" lon="3.19198">
        <ele>321.4</ele>
        <time>2024-04-14T11:17:27Z</time>
      </trkpt>
      <trkpt lat="45.84582" lon="3.19207">
        <ele>321.4</ele>
        <time>2024-04-14T11:17:28Z</time>
      </trkpt>
      <trkpt lat="45.84582" lon="3.19218">
        <ele>321.4</ele>
        <time>2024-04-14T11:17:29Z</time>
      </trkpt>
      <trkpt lat="45.84582" lon="3.19228">
        <ele>321.4</ele>
        <time>2024-04-14T11:17:30Z</time>
      </trkpt>
      <trkpt lat="45.84582" lon="3.19239">
        <ele>321.4</ele>
        <time>2024-04-14T11:17:31Z</time>
      </trkpt>
      <trkpt lat="45.84582" lon="3.1925">
        <ele>321.4</ele>
        <time>2024-04-14T11:17:32Z</time>
      </trkpt>
      <trkpt lat="45.84582" lon="3.1926">
        <ele>321.6</ele>
        <time>2024-04-14T11:17:33Z</time>
      </trkpt>
      <trkpt lat="45.84582" lon="3.19271">
        <ele>321.6</ele>
        <time>2024-04-14T11:17:34Z</time>
      </trkpt>
      <trkpt lat="45.84582" lon="3.19282">
        <ele>321.6</ele>
        <time>2024-04-14T11:17:35Z</time>
      </trkpt>
      <trkpt lat="45.84582" lon="3.19293">
        <ele>321.6</ele>
        <time>2024-04-14T11:17:36Z</time>
      </trkpt>
      <trkpt lat="45.84582" lon="3.19303">
        <ele>321.4</ele>
        <time>2024-04-14T11:17:37Z</time>
      </trkpt>
      <trkpt lat="45.84583" lon="3.19314">
        <ele>321.6</ele>
        <time>2024-04-14T11:17:38Z</time>
      </trkpt>
      <trkpt lat="45.84583" lon="3.19325">
        <ele>321.6</ele>
        <time>2024-04-14T11:17:39Z</time>
      </trkpt>
      <trkpt lat="45.84583" lon="3.19336">
        <ele>321.6</ele>
        <time>2024-04-14T11:17:40Z</time>
      </trkpt>
      <trkpt lat="45.84583" lon="3.19346">
        <ele>321.6</ele>
        <time>2024-04-14T11:17:41Z</time>
      </trkpt>
      <trkpt lat="45.84583" lon="3.19357">
        <ele>321.6</ele>
        <time>2024-04-14T11:17:42Z</time>
      </trkpt>
      <trkpt lat="45.84583" lon="3.19368">
        <ele>321.6</ele>
        <time>2024-04-14T11:17:43Z</time>
      </trkpt>
      <trkpt lat="45.84583" lon="3.19378">
        <ele>321.6</ele>
        <time>2024-04-14T11:17:44Z</time>
      </trkpt>
      <trkpt lat="45.84584" lon="3.19389">
        <ele>321.6</ele>
        <time>2024-04-14T11:17:45Z</time>
      </trkpt>
      <trkpt lat="45.84584" lon="3.19399">
        <ele>321.4</ele>
        <time>2024-04-14T11:17:46Z</time>
      </trkpt>
      <trkpt lat="45.84584" lon="3.19409">
        <ele>321.4</ele>
        <time>2024-04-14T11:17:47Z</time>
      </trkpt>
      <trkpt lat="45.84584" lon="3.1942">
        <ele>321.6</ele>
        <time>2024-04-14T11:17:48Z</time>
      </trkpt>
      <trkpt lat="45.84584" lon="3.1943">
        <ele>321.6</ele>
        <time>2024-04-14T11:17:49Z</time>
      </trkpt>
      <trkpt lat="45.84584" lon="3.1944">
        <ele>321.6</ele>
        <time>2024-04-14T11:17:50Z</time>
      </trkpt>
      <trkpt lat="45.84584" lon="3.1945">
        <ele>321.6</ele>
        <time>2024-04-14T11:17:51Z</time>
      </trkpt>
      <trkpt lat="45.84584" lon="3.1946">
        <ele>321.6</ele>
        <time>2024-04-14T11:17:52Z</time>
      </trkpt>
      <trkpt lat="45.84585" lon="3.1947">
        <ele>321.6</ele>
        <time>2024-04-14T11:17:53Z</time>
      </trkpt>
      <trkpt lat="45.84585" lon="3.1948">
        <ele>321.6</ele>
        <time>2024-04-14T11:17:54Z</time>
      </trkpt>
      <trkpt lat="45.84585" lon="3.1949">
        <ele>321.6</ele>
        <time>2024-04-14T11:17:55Z</time>
      </trkpt>
      <trkpt lat="45.84585" lon="3.195">
        <ele>321.6</ele>
        <time>2024-04-14T11:17:56Z</time>
      </trkpt>
      <trkpt lat="45.84585" lon="3.1951">
        <ele>321.6</ele>
        <time>2024-04-14T11:17:57Z</time>
      </trkpt>
      <trkpt lat="45.84585" lon="3.1952">
        <ele>321.6</ele>
        <time>2024-04-14T11:17:58Z</time>
      </trkpt>
      <trkpt lat="45.84585" lon="3.1953">
        <ele>321.4</ele>
        <time>2024-04-14T11:17:59Z</time>
      </trkpt>
      <trkpt lat="45.84585" lon="3.1954">
        <ele>321.4</ele>
        <time>2024-04-14T11:18:00Z</time>
      </trkpt>
      <trkpt lat="45.84586" lon="3.1955">
        <ele>321.4</ele>
        <time>2024-04-14T11:18:01Z</time>
      </trkpt>
      <trkpt lat="45.84586" lon="3.1956">
        <ele>321.4</ele>
        <time>2024-04-14T11:18:02Z</time>
      </trkpt>
      <trkpt lat="45.84586" lon="3.1957">
        <ele>321.4</ele>
        <time>2024-04-14T11:18:03Z</time>
      </trkpt>
      <trkpt lat="45.84586" lon="3.19581">
        <ele>321.6</ele>
        <time>2024-04-14T11:18:04Z</time>
      </trkpt>
      <trkpt lat="45.84586" lon="3.19591">
        <ele>321.4</ele>
        <time>2024-04-14T11:18:05Z</time>
      </trkpt>
      <trkpt lat="45.84586" lon="3.19601">
        <ele>321.6</ele>
        <time>2024-04-14T11:18:06Z</time>
      </trkpt>
      <trkpt lat="45.84585" lon="3.19611">
        <ele>321.6</ele>
        <time>2024-04-14T11:18:07Z</time>
      </trkpt>
      <trkpt lat="45.84585" lon="3.19622">
        <ele>321.6</ele>
        <time>2024-04-14T11:18:08Z</time>
      </trkpt>
      <trkpt lat="45.84584" lon="3.19632">
        <ele>321.6</ele>
        <time>2024-04-14T11:18:09Z</time>
      </trkpt>
      <trkpt lat="45.84584" lon="3.19642">
        <ele>321.6</ele>
        <time>2024-04-14T11:18:10Z</time>
      </trkpt>
      <trkpt lat="45.84582" lon="3.19652">
        <ele>321.6</ele>
        <time>2024-04-14T11:18:11Z</time>
      </trkpt>
      <trkpt lat="45.84581" lon="3.19662">
        <ele>321.6</ele>
        <time>2024-04-14T11:18:12Z</time>
      </trkpt>
      <trkpt lat="45.84579" lon="3.19672">
        <ele>321.6</ele>
        <time>2024-04-14T11:18:13Z</time>
      </trkpt>
      <trkpt lat="45.84578" lon="3.19682">
        <ele>321.6</ele>
        <time>2024-04-14T11:18:14Z</time>
      </trkpt>
      <trkpt lat="45.84576" lon="3.19692">
        <ele>321.6</ele>
        <time>2024-04-14T11:18:15Z</time>
      </trkpt>
      <trkpt lat="45.84574" lon="3.19702">
        <ele>321.6</ele>
        <time>2024-04-14T11:18:16Z</time>
      </trkpt>
      <trkpt lat="45.84573" lon="3.19712">
        <ele>321.6</ele>
        <time>2024-04-14T11:18:17Z</time>
      </trkpt>
      <trkpt lat="45.84571" lon="3.19722">
        <ele>321.6</ele>
        <time>2024-04-14T11:18:18Z</time>
      </trkpt>
      <trkpt lat="45.8457" lon="3.19731">
        <ele>321.6</ele>
        <time>2024-04-14T11:18:19Z</time>
      </trkpt>
      <trkpt lat="45.84568" lon="3.19741">
        <ele>321.6</ele>
        <time>2024-04-14T11:18:20Z</time>
      </trkpt>
      <trkpt lat="45.84566" lon="3.19752">
        <ele>321.6</ele>
        <time>2024-04-14T11:18:21Z</time>
      </trkpt>
      <trkpt lat="45.84565" lon="3.19762">
        <ele>321.6</ele>
        <time>2024-04-14T11:18:22Z</time>
      </trkpt>
      <trkpt lat="45.84563" lon="3.19772">
        <ele>321.6</ele>
        <time>2024-04-14T11:18:23Z</time>
      </trkpt>
      <trkpt lat="45.84562" lon="3.19782">
        <ele>321.6</ele>
        <time>2024-04-14T11:18:24Z</time>
      </trkpt>
      <trkpt lat="45.8456" lon="3.19792">
        <ele>321.6</ele>
        <time>2024-04-14T11:18:25Z</time>
      </trkpt>
      <trkpt lat="45.84559" lon="3.19802">
        <ele>321.6</ele>
        <time>2024-04-14T11:18:26Z</time>
      </trkpt>
      <trkpt lat="45.84558" lon="3.19812">
        <ele>321.6</ele>
        <time>2024-04-14T11:18:27Z</time>
      </trkpt>
      <trkpt lat="45.84556" lon="3.19822">
        <ele>321.8</ele>
        <time>2024-04-14T11:18:28Z</time>
      </trkpt>
      <trkpt lat="45.84555" lon="3.19832">
        <ele>321.8</ele>
        <time>2024-04-14T11:18:29Z</time>
      </trkpt>
      <trkpt lat="45.84553" lon="3.19842">
        <ele>321.6</ele>
        <time>2024-04-14T11:18:30Z</time>
      </trkpt>
      <trkpt lat="45.84552" lon="3.19852">
        <ele>321.8</ele>
        <time>2024-04-14T11:18:31Z</time>
      </trkpt>
      <trkpt lat="45.8455" lon="3.19862">
        <ele>321.8</ele>
        <time>2024-04-14T11:18:32Z</time>
      </trkpt>
      <trkpt lat="45.84549" lon="3.19871">
        <ele>321.8</ele>
        <time>2024-04-14T11:18:33Z</time>
      </trkpt>
      <trkpt lat="45.84548" lon="3.19881">
        <ele>321.8</ele>
        <time>2024-04-14T11:18:34Z</time>
      </trkpt>
      <trkpt lat="45.84546" lon="3.19891">
        <ele>321.8</ele>
        <time>2024-04-14T11:18:35Z</time>
      </trkpt>
      <trkpt lat="45.84545" lon="3.19901">
        <ele>321.8</ele>
        <time>2024-04-14T11:18:36Z</time>
      </trkpt>
      <trkpt lat="45.84544" lon="3.1991">
        <ele>321.8</ele>
        <time>2024-04-14T11:18:37Z</time>
      </trkpt>
      <trkpt lat="45.84543" lon="3.1992">
        <ele>321.8</ele>
        <time>2024-04-14T11:18:38Z</time>
      </trkpt>
      <trkpt lat="45.84541" lon="3.1993">
        <ele>321.8</ele>
        <time>2024-04-14T11:18:39Z</time>
      </trkpt>
      <trkpt lat="45.8454" lon="3.19939">
        <ele>321.8</ele>
        <time>2024-04-14T11:18:40Z</time>
      </trkpt>
      <trkpt lat="45.84538" lon="3.19949">
        <ele>321.8</ele>
        <time>2024-04-14T11:18:41Z</time>
      </trkpt>
      <trkpt lat="45.84537" lon="3.19959">
        <ele>321.8</ele>
        <time>2024-04-14T11:18:42Z</time>
      </trkpt>
      <trkpt lat="45.84535" lon="3.19968">
        <ele>321.8</ele>
        <time>2024-04-14T11:18:43Z</time>
      </trkpt>
      <trkpt lat="45.84534" lon="3.19978">
        <ele>321.8</ele>
        <time>2024-04-14T11:18:44Z</time>
      </trkpt>
      <trkpt lat="45.84532" lon="3.19988">
        <ele>321.8</ele>
        <time>2024-04-14T11:18:45Z</time>
      </trkpt>
      <trkpt lat="45.8453" lon="3.19997">
        <ele>321.8</ele>
        <time>2024-04-14T11:18:46Z</time>
      </trkpt>
      <trkpt lat="45.84529" lon="3.20007">
        <ele>321.8</ele>
        <time>2024-04-14T11:18:47Z</time>
      </trkpt>
      <trkpt lat="45.84527" lon="3.20016">
        <ele>321.8</ele>
        <time>2024-04-14T11:18:48Z</time>
      </trkpt>
      <trkpt lat="45.84524" lon="3.20026">
        <ele>321.8</ele>
        <time>2024-04-14T11:18:49Z</time>
      </trkpt>
      <trkpt lat="45.84521" lon="3.20035">
        <ele>321.8</ele>
        <time>2024-04-14T11:18:50Z</time>
      </trkpt>
      <trkpt lat="45.84518" lon="3.20044">
        <ele>321.6</ele>
        <time>2024-04-14T11:18:51Z</time>
      </trkpt>
      <trkpt lat="45.84515" lon="3.20054">
        <ele>321.6</ele>
        <time>2024-04-14T11:18:52Z</time>
      </trkpt>
      <trkpt lat="45.84512" lon="3.20063">
        <ele>321.6</ele>
        <time>2024-04-14T11:18:53Z</time>
      </trkpt>
      <trkpt lat="45.84509" lon="3.20071">
        <ele>321.6</ele>
        <time>2024-04-14T11:18:54Z</time>
      </trkpt>
      <trkpt lat="45.84506" lon="3.2008">
        <ele>321.6</ele>
        <time>2024-04-14T11:18:55Z</time>
      </trkpt>
      <trkpt lat="45.84503" lon="3.20088">
        <ele>321.6</ele>
        <time>2024-04-14T11:18:56Z</time>
      </trkpt>
      <trkpt lat="45.84499" lon="3.20097">
        <ele>321.6</ele>
        <time>2024-04-14T11:18:57Z</time>
      </trkpt>
      <trkpt lat="45.84496" lon="3.20105">
        <ele>321.6</ele>
        <time>2024-04-14T11:18:58Z</time>
      </trkpt>
      <trkpt lat="45.84493" lon="3.20113">
        <ele>321.8</ele>
        <time>2024-04-14T11:18:59Z</time>
      </trkpt>
      <trkpt lat="45.84489" lon="3.20121">
        <ele>321.8</ele>
        <time>2024-04-14T11:19:00Z</time>
      </trkpt>
      <trkpt lat="45.84486" lon="3.20129">
        <ele>321.8</ele>
        <time>2024-04-14T11:19:01Z</time>
      </trkpt>
      <trkpt lat="45.84483" lon="3.20137">
        <ele>321.8</ele>
        <time>2024-04-14T11:19:02Z</time>
      </trkpt>
      <trkpt lat="45.8448" lon="3.20145">
        <ele>321.8</ele>
        <time>2024-04-14T11:19:03Z</time>
      </trkpt>
      <trkpt lat="45.84477" lon="3.20152">
        <ele>321.8</ele>
        <time>2024-04-14T11:19:04Z</time>
      </trkpt>
      <trkpt lat="45.84474" lon="3.20159">
        <ele>321.8</ele>
        <time>2024-04-14T11:19:05Z</time>
      </trkpt>
      <trkpt lat="45.84471" lon="3.20167">
        <ele>321.8</ele>
        <time>2024-04-14T11:19:06Z</time>
      </trkpt>
      <trkpt lat="45.84468" lon="3.20175">
        <ele>321.8</ele>
        <time>2024-04-14T11:19:07Z</time>
      </trkpt>
      <trkpt lat="45.84465" lon="3.20182">
        <ele>321.8</ele>
        <time>2024-04-14T11:19:08Z</time>
      </trkpt>
      <trkpt lat="45.84462" lon="3.2019">
        <ele>321.8</ele>
        <time>2024-04-14T11:19:09Z</time>
      </trkpt>
      <trkpt lat="45.8446" lon="3.20198">
        <ele>321.8</ele>
        <time>2024-04-14T11:19:10Z</time>
      </trkpt>
      <trkpt lat="45.84458" lon="3.20206">
        <ele>321.8</ele>
        <time>2024-04-14T11:19:11Z</time>
      </trkpt>
      <trkpt lat="45.84455" lon="3.20214">
        <ele>321.8</ele>
        <time>2024-04-14T11:19:12Z</time>
      </trkpt>
      <trkpt lat="45.84453" lon="3.20222">
        <ele>321.8</ele>
        <time>2024-04-14T11:19:13Z</time>
      </trkpt>
      <trkpt lat="45.8445" lon="3.2023">
        <ele>321.8</ele>
        <time>2024-04-14T11:19:14Z</time>
      </trkpt>
      <trkpt lat="45.84448" lon="3.20239">
        <ele>321.8</ele>
        <time>2024-04-14T11:19:15Z</time>
      </trkpt>
      <trkpt lat="45.84445" lon="3.20248">
        <ele>321.8</ele>
        <time>2024-04-14T11:19:16Z</time>
      </trkpt>
      <trkpt lat="45.84443" lon="3.20256">
        <ele>321.8</ele>
        <time>2024-04-14T11:19:17Z</time>
      </trkpt>
      <trkpt lat="45.84441" lon="3.20265">
        <ele>321.8</ele>
        <time>2024-04-14T11:19:18Z</time>
      </trkpt>
      <trkpt lat="45.84438" lon="3.20273">
        <ele>321.6</ele>
        <time>2024-04-14T11:19:19Z</time>
      </trkpt>
      <trkpt lat="45.84436" lon="3.20282">
        <ele>321.6</ele>
        <time>2024-04-14T11:19:20Z</time>
      </trkpt>
      <trkpt lat="45.84434" lon="3.20291">
        <ele>321.6</ele>
        <time>2024-04-14T11:19:21Z</time>
      </trkpt>
      <trkpt lat="45.84432" lon="3.203">
        <ele>321.6</ele>
        <time>2024-04-14T11:19:22Z</time>
      </trkpt>
      <trkpt lat="45.8443" lon="3.20309">
        <ele>321.4</ele>
        <time>2024-04-14T11:19:23Z</time>
      </trkpt>
      <trkpt lat="45.84428" lon="3.20318">
        <ele>321.4</ele>
        <time>2024-04-14T11:19:24Z</time>
      </trkpt>
      <trkpt lat="45.84426" lon="3.20327">
        <ele>321.4</ele>
        <time>2024-04-14T11:19:25Z</time>
      </trkpt>
      <trkpt lat="45.84424" lon="3.20336">
        <ele>321.4</ele>
        <time>2024-04-14T11:19:26Z</time>
      </trkpt>
      <trkpt lat="45.84422" lon="3.20344">
        <ele>321.4</ele>
        <time>2024-04-14T11:19:27Z</time>
      </trkpt>
      <trkpt lat="45.8442" lon="3.20353">
        <ele>321.4</ele>
        <time>2024-04-14T11:19:28Z</time>
      </trkpt>
      <trkpt lat="45.84417" lon="3.20362">
        <ele>321.4</ele>
        <time>2024-04-14T11:19:29Z</time>
      </trkpt>
      <trkpt lat="45.84415" lon="3.20371">
        <ele>321.4</ele>
        <time>2024-04-14T11:19:30Z</time>
      </trkpt>
      <trkpt lat="45.84413" lon="3.2038">
        <ele>321.4</ele>
        <time>2024-04-14T11:19:31Z</time>
      </trkpt>
      <trkpt lat="45.84411" lon="3.20388">
        <ele>321.2</ele>
        <time>2024-04-14T11:19:32Z</time>
      </trkpt>
      <trkpt lat="45.84409" lon="3.20397">
        <ele>321.2</ele>
        <time>2024-04-14T11:19:33Z</time>
      </trkpt>
      <trkpt lat="45.84407" lon="3.20406">
        <ele>321.2</ele>
        <time>2024-04-14T11:19:34Z</time>
      </trkpt>
      <trkpt lat="45.84405" lon="3.20414">
        <ele>321.2</ele>
        <time>2024-04-14T11:19:35Z</time>
      </trkpt>
      <trkpt lat="45.84403" lon="3.20423">
        <ele>321.2</ele>
        <time>2024-04-14T11:19:36Z</time>
      </trkpt>
      <trkpt lat="45.84401" lon="3.20432">
        <ele>321.2</ele>
        <time>2024-04-14T11:19:37Z</time>
      </trkpt>
      <trkpt lat="45.84399" lon="3.2044">
        <ele>321.2</ele>
        <time>2024-04-14T11:19:38Z</time>
      </trkpt>
      <trkpt lat="45.84397" lon="3.20449">
        <ele>321.2</ele>
        <time>2024-04-14T11:19:39Z</time>
      </trkpt>
      <trkpt lat="45.84395" lon="3.20458">
        <ele>321.2</ele>
        <time>2024-04-14T11:19:40Z</time>
      </trkpt>
      <trkpt lat="45.84393" lon="3.20466">
        <ele>321.2</ele>
        <time>2024-04-14T11:19:41Z</time>
      </trkpt>
      <trkpt lat="45.84393" lon="3.20466">
        <ele>321.2</ele>
        <time>2024-04-14T11:19:42Z</time>
      </trkpt>
      <trkpt lat="45.84389" lon="3.20483">
        <ele>321.2</ele>
        <time>2024-04-14T11:19:43Z</time>
      </trkpt>
      <trkpt lat="45.84387" lon="3.20492">
        <ele>321.2</ele>
        <time>2024-04-14T11:19:44Z</time>
      </trkpt>
      <trkpt lat="45.84385" lon="3.205">
        <ele>321</ele>
        <time>2024-04-14T11:19:45Z</time>
      </trkpt>
      <trkpt lat="45.84383" lon="3.20509">
        <ele>321</ele>
        <time>2024-04-14T11:19:46Z</time>
      </trkpt>
      <trkpt lat="45.84381" lon="3.20518">
        <ele>321</ele>
        <time>2024-04-14T11:19:47Z</time>
      </trkpt>
      <trkpt lat="45.84379" lon="3.20526">
        <ele>321</ele>
        <time>2024-04-14T11:19:48Z</time>
      </trkpt>
      <trkpt lat="45.84377" lon="3.20535">
        <ele>321</ele>
        <time>2024-04-14T11:19:49Z</time>
      </trkpt>
      <trkpt lat="45.84375" lon="3.20544">
        <ele>321</ele>
        <time>2024-04-14T11:19:50Z</time>
      </trkpt>
      <trkpt lat="45.84373" lon="3.20553">
        <ele>321</ele>
        <time>2024-04-14T11:19:51Z</time>
      </trkpt>
      <trkpt lat="45.8437" lon="3.20562">
        <ele>321</ele>
        <time>2024-04-14T11:19:52Z</time>
      </trkpt>
      <trkpt lat="45.84368" lon="3.20571">
        <ele>321</ele>
        <time>2024-04-14T11:19:53Z</time>
      </trkpt>
      <trkpt lat="45.84366" lon="3.20579">
        <ele>321</ele>
        <time>2024-04-14T11:19:54Z</time>
      </trkpt>
      <trkpt lat="45.84364" lon="3.20588">
        <ele>321</ele>
        <time>2024-04-14T11:19:55Z</time>
      </trkpt>
      <trkpt lat="45.84361" lon="3.20596">
        <ele>321</ele>
        <time>2024-04-14T11:19:56Z</time>
      </trkpt>
      <trkpt lat="45.84358" lon="3.20605">
        <ele>321</ele>
        <time>2024-04-14T11:19:57Z</time>
      </trkpt>
      <trkpt lat="45.84356" lon="3.20614">
        <ele>320.8</ele>
        <time>2024-04-14T11:19:58Z</time>
      </trkpt>
      <trkpt lat="45.84353" lon="3.20622">
        <ele>320.8</ele>
        <time>2024-04-14T11:19:59Z</time>
      </trkpt>
      <trkpt lat="45.8435" lon="3.2063">
        <ele>320.8</ele>
        <time>2024-04-14T11:20:00Z</time>
      </trkpt>
      <trkpt lat="45.84346" lon="3.20639">
        <ele>320.8</ele>
        <time>2024-04-14T11:20:01Z</time>
      </trkpt>
      <trkpt lat="45.84343" lon="3.20647">
        <ele>320.8</ele>
        <time>2024-04-14T11:20:02Z</time>
      </trkpt>
      <trkpt lat="45.84339" lon="3.20655">
        <ele>320.8</ele>
        <time>2024-04-14T11:20:03Z</time>
      </trkpt>
      <trkpt lat="45.84335" lon="3.20662">
        <ele>320.8</ele>
        <time>2024-04-14T11:20:04Z</time>
      </trkpt>
      <trkpt lat="45.84331" lon="3.20669">
        <ele>320.8</ele>
        <time>2024-04-14T11:20:05Z</time>
      </trkpt>
      <trkpt lat="45.84327" lon="3.20676">
        <ele>320.8</ele>
        <time>2024-04-14T11:20:06Z</time>
      </trkpt>
      <trkpt lat="45.84323" lon="3.20684">
        <ele>320.8</ele>
        <time>2024-04-14T11:20:07Z</time>
      </trkpt>
      <trkpt lat="45.84319" lon="3.20691">
        <ele>320.8</ele>
        <time>2024-04-14T11:20:08Z</time>
      </trkpt>
      <trkpt lat="45.84315" lon="3.20699">
        <ele>320.8</ele>
        <time>2024-04-14T11:20:09Z</time>
      </trkpt>
      <trkpt lat="45.84311" lon="3.20706">
        <ele>320.6</ele>
        <time>2024-04-14T11:20:10Z</time>
      </trkpt>
      <trkpt lat="45.84307" lon="3.20713">
        <ele>320.6</ele>
        <time>2024-04-14T11:20:11Z</time>
      </trkpt>
      <trkpt lat="45.84303" lon="3.20721">
        <ele>320.6</ele>
        <time>2024-04-14T11:20:12Z</time>
      </trkpt>
      <trkpt lat="45.84299" lon="3.20728">
        <ele>320.6</ele>
        <time>2024-04-14T11:20:13Z</time>
      </trkpt>
      <trkpt lat="45.84295" lon="3.20735">
        <ele>320.6</ele>
        <time>2024-04-14T11:20:14Z</time>
      </trkpt>
      <trkpt lat="45.84291" lon="3.20743">
        <ele>320.8</ele>
        <time>2024-04-14T11:20:15Z</time>
      </trkpt>
      <trkpt lat="45.84287" lon="3.2075">
        <ele>320.6</ele>
        <time>2024-04-14T11:20:16Z</time>
      </trkpt>
      <trkpt lat="45.84283" lon="3.20757">
        <ele>320.6</ele>
        <time>2024-04-14T11:20:17Z</time>
      </trkpt>
      <trkpt lat="45.84278" lon="3.20765">
        <ele>320.6</ele>
        <time>2024-04-14T11:20:18Z</time>
      </trkpt>
      <trkpt lat="45.84274" lon="3.20772">
        <ele>320.6</ele>
        <time>2024-04-14T11:20:19Z</time>
      </trkpt>
      <trkpt lat="45.8427" lon="3.20779">
        <ele>320.6</ele>
        <time>2024-04-14T11:20:20Z</time>
      </trkpt>
      <trkpt lat="45.84266" lon="3.20787">
        <ele>320.6</ele>
        <time>2024-04-14T11:20:21Z</time>
      </trkpt>
      <trkpt lat="45.84262" lon="3.20794">
        <ele>320.6</ele>
        <time>2024-04-14T11:20:22Z</time>
      </trkpt>
      <trkpt lat="45.84258" lon="3.20801">
        <ele>320.6</ele>
        <time>2024-04-14T11:20:23Z</time>
      </trkpt>
      <trkpt lat="45.84254" lon="3.20808">
        <ele>320.6</ele>
        <time>2024-04-14T11:20:24Z</time>
      </trkpt>
      <trkpt lat="45.8425" lon="3.20817">
        <ele>320.6</ele>
        <time>2024-04-14T11:20:25Z</time>
      </trkpt>
      <trkpt lat="45.84247" lon="3.20825">
        <ele>320.6</ele>
        <time>2024-04-14T11:20:26Z</time>
      </trkpt>
      <trkpt lat="45.84244" lon="3.20833">
        <ele>320.6</ele>
        <time>2024-04-14T11:20:27Z</time>
      </trkpt>
      <trkpt lat="45.84241" lon="3.20842">
        <ele>320.6</ele>
        <time>2024-04-14T11:20:28Z</time>
      </trkpt>
      <trkpt lat="45.84238" lon="3.20851">
        <ele>320.6</ele>
        <time>2024-04-14T11:20:29Z</time>
      </trkpt>
      <trkpt lat="45.84235" lon="3.2086">
        <ele>320.6</ele>
        <time>2024-04-14T11:20:30Z</time>
      </trkpt>
      <trkpt lat="45.84233" lon="3.20869">
        <ele>320.6</ele>
        <time>2024-04-14T11:20:31Z</time>
      </trkpt>
      <trkpt lat="45.84231" lon="3.20878">
        <ele>320.6</ele>
        <time>2024-04-14T11:20:32Z</time>
      </trkpt>
      <trkpt lat="45.84228" lon="3.20887">
        <ele>320.6</ele>
        <time>2024-04-14T11:20:33Z</time>
      </trkpt>
      <trkpt lat="45.84226" lon="3.20896">
        <ele>320.6</ele>
        <time>2024-04-14T11:20:34Z</time>
      </trkpt>
      <trkpt lat="45.84223" lon="3.20905">
        <ele>320.6</ele>
        <time>2024-04-14T11:20:35Z</time>
      </trkpt>
      <trkpt lat="45.84221" lon="3.20914">
        <ele>320.6</ele>
        <time>2024-04-14T11:20:36Z</time>
      </trkpt>
      <trkpt lat="45.84218" lon="3.20923">
        <ele>320.6</ele>
        <time>2024-04-14T11:20:37Z</time>
      </trkpt>
      <trkpt lat="45.84216" lon="3.20932">
        <ele>320.6</ele>
        <time>2024-04-14T11:20:38Z</time>
      </trkpt>
      <trkpt lat="45.84213" lon="3.20941">
        <ele>320.6</ele>
        <time>2024-04-14T11:20:39Z</time>
      </trkpt>
      <trkpt lat="45.84211" lon="3.2095">
        <ele>320.6</ele>
        <time>2024-04-14T11:20:40Z</time>
      </trkpt>
      <trkpt lat="45.84209" lon="3.20959">
        <ele>320.6</ele>
        <time>2024-04-14T11:20:41Z</time>
      </trkpt>
      <trkpt lat="45.84206" lon="3.20969">
        <ele>320.6</ele>
        <time>2024-04-14T11:20:42Z</time>
      </trkpt>
      <trkpt lat="45.84204" lon="3.20978">
        <ele>320.4</ele>
        <time>2024-04-14T11:20:43Z</time>
      </trkpt>
      <trkpt lat="45.84201" lon="3.20987">
        <ele>320.4</ele>
        <time>2024-04-14T11:20:44Z</time>
      </trkpt>
      <trkpt lat="45.84199" lon="3.20996">
        <ele>320.4</ele>
        <time>2024-04-14T11:20:45Z</time>
      </trkpt>
      <trkpt lat="45.84196" lon="3.21006">
        <ele>320.4</ele>
        <time>2024-04-14T11:20:46Z</time>
      </trkpt>
      <trkpt lat="45.84194" lon="3.21015">
        <ele>320.4</ele>
        <time>2024-04-14T11:20:47Z</time>
      </trkpt>
      <trkpt lat="45.84191" lon="3.21024">
        <ele>320.4</ele>
        <time>2024-04-14T11:20:48Z</time>
      </trkpt>
      <trkpt lat="45.84189" lon="3.21033">
        <ele>320.6</ele>
        <time>2024-04-14T11:20:49Z</time>
      </trkpt>
      <trkpt lat="45.84186" lon="3.21042">
        <ele>320.4</ele>
        <time>2024-04-14T11:20:50Z</time>
      </trkpt>
      <trkpt lat="45.84184" lon="3.21052">
        <ele>320.4</ele>
        <time>2024-04-14T11:20:51Z</time>
      </trkpt>
      <trkpt lat="45.84181" lon="3.21061">
        <ele>320.4</ele>
        <time>2024-04-14T11:20:52Z</time>
      </trkpt>
      <trkpt lat="45.84179" lon="3.2107">
        <ele>320.4</ele>
        <time>2024-04-14T11:20:53Z</time>
      </trkpt>
      <trkpt lat="45.84176" lon="3.21078">
        <ele>320.4</ele>
        <time>2024-04-14T11:20:54Z</time>
      </trkpt>
      <trkpt lat="45.84174" lon="3.21087">
        <ele>320.4</ele>
        <time>2024-04-14T11:20:55Z</time>
      </trkpt>
      <trkpt lat="45.84172" lon="3.21096">
        <ele>320.4</ele>
        <time>2024-04-14T11:20:56Z</time>
      </trkpt>
      <trkpt lat="45.84169" lon="3.21104">
        <ele>320.4</ele>
        <time>2024-04-14T11:20:57Z</time>
      </trkpt>
      <trkpt lat="45.84167" lon="3.21113">
        <ele>320.2</ele>
        <time>2024-04-14T11:20:58Z</time>
      </trkpt>
      <trkpt lat="45.84165" lon="3.21121">
        <ele>320.2</ele>
        <time>2024-04-14T11:20:59Z</time>
      </trkpt>
      <trkpt lat="45.84163" lon="3.21129">
        <ele>320.2</ele>
        <time>2024-04-14T11:21:00Z</time>
      </trkpt>
      <trkpt lat="45.84161" lon="3.21137">
        <ele>320.2</ele>
        <time>2024-04-14T11:21:01Z</time>
      </trkpt>
      <trkpt lat="45.84154" lon="3.21142">
        <ele>320.2</ele>
        <time>2024-04-14T11:21:02Z</time>
      </trkpt>
      <trkpt lat="45.84148" lon="3.21142">
        <ele>320.2</ele>
        <time>2024-04-14T11:21:03Z</time>
      </trkpt>
      <trkpt lat="45.84141" lon="3.21146">
        <ele>320.2</ele>
        <time>2024-04-14T11:21:04Z</time>
      </trkpt>
      <trkpt lat="45.84134" lon="3.21156">
        <ele>320</ele>
        <time>2024-04-14T11:21:05Z</time>
      </trkpt>
      <trkpt lat="45.84135" lon="3.21172">
        <ele>320</ele>
        <time>2024-04-14T11:21:06Z</time>
      </trkpt>
      <trkpt lat="45.84136" lon="3.21181">
        <ele>320</ele>
        <time>2024-04-14T11:21:07Z</time>
      </trkpt>
      <trkpt lat="45.84144" lon="3.21191">
        <ele>320</ele>
        <time>2024-04-14T11:21:08Z</time>
      </trkpt>
      <trkpt lat="45.84144" lon="3.21191">
        <ele>320</ele>
        <time>2024-04-14T11:21:09Z</time>
      </trkpt>
      <trkpt lat="45.84157" lon="3.21206">
        <ele>319.8</ele>
        <time>2024-04-14T11:21:10Z</time>
      </trkpt>
      <trkpt lat="45.84159" lon="3.21217">
        <ele>319.8</ele>
        <time>2024-04-14T11:21:11Z</time>
      </trkpt>
      <trkpt lat="45.84161" lon="3.21228">
        <ele>319.8</ele>
        <time>2024-04-14T11:21:12Z</time>
      </trkpt>
      <trkpt lat="45.84162" lon="3.21238">
        <ele>319.8</ele>
        <time>2024-04-14T11:21:13Z</time>
      </trkpt>
      <trkpt lat="45.84164" lon="3.21248">
        <ele>319.8</ele>
        <time>2024-04-14T11:21:14Z</time>
      </trkpt>
      <trkpt lat="45.84166" lon="3.21258">
        <ele>319.8</ele>
        <time>2024-04-14T11:21:15Z</time>
      </trkpt>
      <trkpt lat="45.84167" lon="3.21268">
        <ele>319.8</ele>
        <time>2024-04-14T11:21:16Z</time>
      </trkpt>
      <trkpt lat="45.84169" lon="3.21278">
        <ele>320</ele>
        <time>2024-04-14T11:21:17Z</time>
      </trkpt>
      <trkpt lat="45.84171" lon="3.21288">
        <ele>320</ele>
        <time>2024-04-14T11:21:18Z</time>
      </trkpt>
      <trkpt lat="45.84172" lon="3.21297">
        <ele>320</ele>
        <time>2024-04-14T11:21:19Z</time>
      </trkpt>
      <trkpt lat="45.84174" lon="3.21306">
        <ele>320</ele>
        <time>2024-04-14T11:21:20Z</time>
      </trkpt>
      <trkpt lat="45.84175" lon="3.21315">
        <ele>320</ele>
        <time>2024-04-14T11:21:21Z</time>
      </trkpt>
      <trkpt lat="45.84177" lon="3.21324">
        <ele>320</ele>
        <time>2024-04-14T11:21:22Z</time>
      </trkpt>
      <trkpt lat="45.84178" lon="3.21333">
        <ele>320</ele>
        <time>2024-04-14T11:21:23Z</time>
      </trkpt>
      <trkpt lat="45.8418" lon="3.21343">
        <ele>319.8</ele>
        <time>2024-04-14T11:21:24Z</time>
      </trkpt>
      <trkpt lat="45.84181" lon="3.21352">
        <ele>319.8</ele>
        <time>2024-04-14T11:21:25Z</time>
      </trkpt>
      <trkpt lat="45.84182" lon="3.21361">
        <ele>320</ele>
        <time>2024-04-14T11:21:26Z</time>
      </trkpt>
      <trkpt lat="45.84183" lon="3.2137">
        <ele>320</ele>
        <time>2024-04-14T11:21:27Z</time>
      </trkpt>
      <trkpt lat="45.84185" lon="3.21379">
        <ele>320.2</ele>
        <time>2024-04-14T11:21:28Z</time>
      </trkpt>
      <trkpt lat="45.84186" lon="3.21388">
        <ele>320.2</ele>
        <time>2024-04-14T11:21:29Z</time>
      </trkpt>
      <trkpt lat="45.84187" lon="3.21397">
        <ele>320.2</ele>
        <time>2024-04-14T11:21:30Z</time>
      </trkpt>
      <trkpt lat="45.84188" lon="3.21405">
        <ele>320.4</ele>
        <time>2024-04-14T11:21:31Z</time>
      </trkpt>
      <trkpt lat="45.8419" lon="3.21414">
        <ele>320.2</ele>
        <time>2024-04-14T11:21:32Z</time>
      </trkpt>
      <trkpt lat="45.84191" lon="3.21423">
        <ele>320.2</ele>
        <time>2024-04-14T11:21:33Z</time>
      </trkpt>
      <trkpt lat="45.84192" lon="3.21432">
        <ele>320.2</ele>
        <time>2024-04-14T11:21:34Z</time>
      </trkpt>
      <trkpt lat="45.84194" lon="3.21442">
        <ele>320.2</ele>
        <time>2024-04-14T11:21:35Z</time>
      </trkpt>
      <trkpt lat="45.84195" lon="3.21451">
        <ele>320.2</ele>
        <time>2024-04-14T11:21:36Z</time>
      </trkpt>
      <trkpt lat="45.84196" lon="3.2146">
        <ele>320.2</ele>
        <time>2024-04-14T11:21:37Z</time>
      </trkpt>
      <trkpt lat="45.84198" lon="3.21469">
        <ele>320.2</ele>
        <time>2024-04-14T11:21:38Z</time>
      </trkpt>
      <trkpt lat="45.84199" lon="3.21478">
        <ele>320.2</ele>
        <time>2024-04-14T11:21:39Z</time>
      </trkpt>
      <trkpt lat="45.842" lon="3.21487">
        <ele>320.2</ele>
        <time>2024-04-14T11:21:40Z</time>
      </trkpt>
      <trkpt lat="45.84201" lon="3.21496">
        <ele>320.4</ele>
        <time>2024-04-14T11:21:41Z</time>
      </trkpt>
      <trkpt lat="45.84202" lon="3.21506">
        <ele>320.4</ele>
        <time>2024-04-14T11:21:42Z</time>
      </trkpt>
      <trkpt lat="45.84201" lon="3.21515">
        <ele>320.4</ele>
        <time>2024-04-14T11:21:43Z</time>
      </trkpt>
      <trkpt lat="45.84201" lon="3.21525">
        <ele>320.4</ele>
        <time>2024-04-14T11:21:44Z</time>
      </trkpt>
      <trkpt lat="45.842" lon="3.21534">
        <ele>320.4</ele>
        <time>2024-04-14T11:21:45Z</time>
      </trkpt>
      <trkpt lat="45.842" lon="3.21543">
        <ele>320.4</ele>
        <time>2024-04-14T11:21:46Z</time>
      </trkpt>
      <trkpt lat="45.84199" lon="3.21552">
        <ele>320.4</ele>
        <time>2024-04-14T11:21:47Z</time>
      </trkpt>
      <trkpt lat="45.84198" lon="3.21561">
        <ele>320.6</ele>
        <time>2024-04-14T11:21:48Z</time>
      </trkpt>
      <trkpt lat="45.84198" lon="3.2157">
        <ele>320.6</ele>
        <time>2024-04-14T11:21:49Z</time>
      </trkpt>
      <trkpt lat="45.84197" lon="3.2158">
        <ele>320.6</ele>
        <time>2024-04-14T11:21:50Z</time>
      </trkpt>
      <trkpt lat="45.84197" lon="3.21589">
        <ele>320.6</ele>
        <time>2024-04-14T11:21:51Z</time>
      </trkpt>
      <trkpt lat="45.84196" lon="3.21598">
        <ele>320.8</ele>
        <time>2024-04-14T11:21:52Z</time>
      </trkpt>
      <trkpt lat="45.84196" lon="3.21607">
        <ele>320.8</ele>
        <time>2024-04-14T11:21:53Z</time>
      </trkpt>
      <trkpt lat="45.84195" lon="3.21616">
        <ele>320.8</ele>
        <time>2024-04-14T11:21:54Z</time>
      </trkpt>
      <trkpt lat="45.84195" lon="3.21626">
        <ele>320.8</ele>
        <time>2024-04-14T11:21:55Z</time>
      </trkpt>
      <trkpt lat="45.84194" lon="3.21635">
        <ele>321</ele>
        <time>2024-04-14T11:21:56Z</time>
      </trkpt>
      <trkpt lat="45.84194" lon="3.21644">
        <ele>321</ele>
        <time>2024-04-14T11:21:57Z</time>
      </trkpt>
      <trkpt lat="45.84193" lon="3.21653">
        <ele>321</ele>
        <time>2024-04-14T11:21:58Z</time>
      </trkpt>
      <trkpt lat="45.84192" lon="3.21662">
        <ele>321.2</ele>
        <time>2024-04-14T11:21:59Z</time>
      </trkpt>
      <trkpt lat="45.84192" lon="3.21671">
        <ele>321.2</ele>
        <time>2024-04-14T11:22:00Z</time>
      </trkpt>
      <trkpt lat="45.84191" lon="3.2168">
        <ele>321.2</ele>
        <time>2024-04-14T11:22:01Z</time>
      </trkpt>
      <trkpt lat="45.84191" lon="3.21689">
        <ele>321.2</ele>
        <time>2024-04-14T11:22:02Z</time>
      </trkpt>
      <trkpt lat="45.8419" lon="3.21698">
        <ele>321.2</ele>
        <time>2024-04-14T11:22:03Z</time>
      </trkpt>
      <trkpt lat="45.8419" lon="3.21707">
        <ele>321.4</ele>
        <time>2024-04-14T11:22:04Z</time>
      </trkpt>
      <trkpt lat="45.84189" lon="3.21716">
        <ele>321.4</ele>
        <time>2024-04-14T11:22:05Z</time>
      </trkpt>
      <trkpt lat="45.84189" lon="3.21725">
        <ele>321.4</ele>
        <time>2024-04-14T11:22:06Z</time>
      </trkpt>
      <trkpt lat="45.84188" lon="3.21734">
        <ele>321.4</ele>
        <time>2024-04-14T11:22:07Z</time>
      </trkpt>
      <trkpt lat="45.84188" lon="3.21743">
        <ele>321.4</ele>
        <time>2024-04-14T11:22:08Z</time>
      </trkpt>
      <trkpt lat="45.84187" lon="3.21752">
        <ele>321.6</ele>
        <time>2024-04-14T11:22:09Z</time>
      </trkpt>
      <trkpt lat="45.84186" lon="3.21761">
        <ele>321.6</ele>
        <time>2024-04-14T11:22:10Z</time>
      </trkpt>
      <trkpt lat="45.84186" lon="3.2177">
        <ele>321.6</ele>
        <time>2024-04-14T11:22:11Z</time>
      </trkpt>
      <trkpt lat="45.84185" lon="3.21779">
        <ele>321.6</ele>
        <time>2024-04-14T11:22:12Z</time>
      </trkpt>
      <trkpt lat="45.84185" lon="3.21788">
        <ele>321.6</ele>
        <time>2024-04-14T11:22:13Z</time>
      </trkpt>
      <trkpt lat="45.84184" lon="3.21797">
        <ele>321.8</ele>
        <time>2024-04-14T11:22:14Z</time>
      </trkpt>
      <trkpt lat="45.84184" lon="3.21806">
        <ele>321.8</ele>
        <time>2024-04-14T11:22:15Z</time>
      </trkpt>
      <trkpt lat="45.84183" lon="3.21815">
        <ele>321.8</ele>
        <time>2024-04-14T11:22:16Z</time>
      </trkpt>
      <trkpt lat="45.84183" lon="3.21824">
        <ele>322</ele>
        <time>2024-04-14T11:22:17Z</time>
      </trkpt>
      <trkpt lat="45.84182" lon="3.21833">
        <ele>322</ele>
        <time>2024-04-14T11:22:18Z</time>
      </trkpt>
      <trkpt lat="45.84182" lon="3.21841">
        <ele>322</ele>
        <time>2024-04-14T11:22:19Z</time>
      </trkpt>
      <trkpt lat="45.84181" lon="3.2185">
        <ele>322</ele>
        <time>2024-04-14T11:22:20Z</time>
      </trkpt>
      <trkpt lat="45.84181" lon="3.21859">
        <ele>322.2</ele>
        <time>2024-04-14T11:22:21Z</time>
      </trkpt>
      <trkpt lat="45.8418" lon="3.21868">
        <ele>322.2</ele>
        <time>2024-04-14T11:22:22Z</time>
      </trkpt>
      <trkpt lat="45.84179" lon="3.21877">
        <ele>322.2</ele>
        <time>2024-04-14T11:22:23Z</time>
      </trkpt>
      <trkpt lat="45.84179" lon="3.21886">
        <ele>322.4</ele>
        <time>2024-04-14T11:22:24Z</time>
      </trkpt>
      <trkpt lat="45.84178" lon="3.21894">
        <ele>322.4</ele>
        <time>2024-04-14T11:22:25Z</time>
      </trkpt>
      <trkpt lat="45.84178" lon="3.21903">
        <ele>322.4</ele>
        <time>2024-04-14T11:22:26Z</time>
      </trkpt>
      <trkpt lat="45.84177" lon="3.21912">
        <ele>322.4</ele>
        <time>2024-04-14T11:22:27Z</time>
      </trkpt>
      <trkpt lat="45.84177" lon="3.21921">
        <ele>322.6</ele>
        <time>2024-04-14T11:22:28Z</time>
      </trkpt>
      <trkpt lat="45.84176" lon="3.2193">
        <ele>322.6</ele>
        <time>2024-04-14T11:22:29Z</time>
      </trkpt>
      <trkpt lat="45.84176" lon="3.21939">
        <ele>322.6</ele>
        <time>2024-04-14T11:22:30Z</time>
      </trkpt>
      <trkpt lat="45.84175" lon="3.21949">
        <ele>322.8</ele>
        <time>2024-04-14T11:22:31Z</time>
      </trkpt>
      <trkpt lat="45.84175" lon="3.21958">
        <ele>322.8</ele>
        <time>2024-04-14T11:22:32Z</time>
      </trkpt>
      <trkpt lat="45.84174" lon="3.21967">
        <ele>322.8</ele>
        <time>2024-04-14T11:22:33Z</time>
      </trkpt>
      <trkpt lat="45.84173" lon="3.21976">
        <ele>322.8</ele>
        <time>2024-04-14T11:22:34Z</time>
      </trkpt>
      <trkpt lat="45.84173" lon="3.21985">
        <ele>322.8</ele>
        <time>2024-04-14T11:22:35Z</time>
      </trkpt>
      <trkpt lat="45.84172" lon="3.21995">
        <ele>323</ele>
        <time>2024-04-14T11:22:36Z</time>
      </trkpt>
      <trkpt lat="45.84172" lon="3.22004">
        <ele>323</ele>
        <time>2024-04-14T11:22:37Z</time>
      </trkpt>
      <trkpt lat="45.84171" lon="3.22013">
        <ele>323</ele>
        <time>2024-04-14T11:22:38Z</time>
      </trkpt>
      <trkpt lat="45.8417" lon="3.22022">
        <ele>323</ele>
        <time>2024-04-14T11:22:39Z</time>
      </trkpt>
      <trkpt lat="45.84169" lon="3.22031">
        <ele>323.2</ele>
        <time>2024-04-14T11:22:40Z</time>
      </trkpt>
      <trkpt lat="45.84168" lon="3.2204">
        <ele>323.2</ele>
        <time>2024-04-14T11:22:41Z</time>
      </trkpt>
      <trkpt lat="45.84167" lon="3.2205">
        <ele>323.2</ele>
        <time>2024-04-14T11:22:42Z</time>
      </trkpt>
      <trkpt lat="45.84166" lon="3.22059">
        <ele>323.2</ele>
        <time>2024-04-14T11:22:43Z</time>
      </trkpt>
      <trkpt lat="45.84165" lon="3.22068">
        <ele>323.2</ele>
        <time>2024-04-14T11:22:44Z</time>
      </trkpt>
      <trkpt lat="45.84163" lon="3.22077">
        <ele>323.2</ele>
        <time>2024-04-14T11:22:45Z</time>
      </trkpt>
      <trkpt lat="45.84161" lon="3.22086">
        <ele>323.4</ele>
        <time>2024-04-14T11:22:46Z</time>
      </trkpt>
      <trkpt lat="45.84159" lon="3.22095">
        <ele>323.4</ele>
        <time>2024-04-14T11:22:47Z</time>
      </trkpt>
      <trkpt lat="45.84157" lon="3.22104">
        <ele>323.4</ele>
        <time>2024-04-14T11:22:48Z</time>
      </trkpt>
      <trkpt lat="45.84154" lon="3.22113">
        <ele>323.4</ele>
        <time>2024-04-14T11:22:49Z</time>
      </trkpt>
      <trkpt lat="45.84151" lon="3.22122">
        <ele>323.4</ele>
        <time>2024-04-14T11:22:50Z</time>
      </trkpt>
      <trkpt lat="45.84148" lon="3.2213">
        <ele>323.4</ele>
        <time>2024-04-14T11:22:51Z</time>
      </trkpt>
      <trkpt lat="45.84144" lon="3.22137">
        <ele>323.4</ele>
        <time>2024-04-14T11:22:52Z</time>
      </trkpt>
      <trkpt lat="45.84141" lon="3.22145">
        <ele>323.6</ele>
        <time>2024-04-14T11:22:53Z</time>
      </trkpt>
      <trkpt lat="45.84137" lon="3.22152">
        <ele>323.6</ele>
        <time>2024-04-14T11:22:54Z</time>
      </trkpt>
      <trkpt lat="45.84133" lon="3.2216">
        <ele>323.6</ele>
        <time>2024-04-14T11:22:55Z</time>
      </trkpt>
      <trkpt lat="45.84129" lon="3.22168">
        <ele>323.6</ele>
        <time>2024-04-14T11:22:56Z</time>
      </trkpt>
      <trkpt lat="45.84125" lon="3.22176">
        <ele>323.6</ele>
        <time>2024-04-14T11:22:57Z</time>
      </trkpt>
      <trkpt lat="45.84121" lon="3.22184">
        <ele>323.6</ele>
        <time>2024-04-14T11:22:58Z</time>
      </trkpt>
      <trkpt lat="45.84118" lon="3.22191">
        <ele>323.6</ele>
        <time>2024-04-14T11:22:59Z</time>
      </trkpt>
      <trkpt lat="45.84114" lon="3.22199">
        <ele>323.6</ele>
        <time>2024-04-14T11:23:00Z</time>
      </trkpt>
      <trkpt lat="45.8411" lon="3.22207">
        <ele>323.6</ele>
        <time>2024-04-14T11:23:01Z</time>
      </trkpt>
      <trkpt lat="45.84106" lon="3.22215">
        <ele>323.6</ele>
        <time>2024-04-14T11:23:02Z</time>
      </trkpt>
      <trkpt lat="45.84102" lon="3.22223">
        <ele>323.6</ele>
        <time>2024-04-14T11:23:03Z</time>
      </trkpt>
      <trkpt lat="45.84098" lon="3.22231">
        <ele>323.8</ele>
        <time>2024-04-14T11:23:04Z</time>
      </trkpt>
      <trkpt lat="45.84094" lon="3.22239">
        <ele>323.8</ele>
        <time>2024-04-14T11:23:05Z</time>
      </trkpt>
      <trkpt lat="45.8409" lon="3.22247">
        <ele>323.8</ele>
        <time>2024-04-14T11:23:06Z</time>
      </trkpt>
      <trkpt lat="45.84086" lon="3.22255">
        <ele>323.8</ele>
        <time>2024-04-14T11:23:07Z</time>
      </trkpt>
      <trkpt lat="45.84082" lon="3.22263">
        <ele>323.8</ele>
        <time>2024-04-14T11:23:08Z</time>
      </trkpt>
      <trkpt lat="45.84078" lon="3.22271">
        <ele>323.8</ele>
        <time>2024-04-14T11:23:09Z</time>
      </trkpt>
      <trkpt lat="45.84074" lon="3.22279">
        <ele>323.8</ele>
        <time>2024-04-14T11:23:10Z</time>
      </trkpt>
      <trkpt lat="45.8407" lon="3.22287">
        <ele>323.8</ele>
        <time>2024-04-14T11:23:11Z</time>
      </trkpt>
      <trkpt lat="45.84066" lon="3.22295">
        <ele>323.8</ele>
        <time>2024-04-14T11:23:12Z</time>
      </trkpt>
      <trkpt lat="45.84062" lon="3.22303">
        <ele>323.8</ele>
        <time>2024-04-14T11:23:13Z</time>
      </trkpt>
      <trkpt lat="45.84058" lon="3.22312">
        <ele>323.8</ele>
        <time>2024-04-14T11:23:14Z</time>
      </trkpt>
      <trkpt lat="45.84054" lon="3.2232">
        <ele>323.8</ele>
        <time>2024-04-14T11:23:15Z</time>
      </trkpt>
      <trkpt lat="45.8405" lon="3.22328">
        <ele>323.8</ele>
        <time>2024-04-14T11:23:16Z</time>
      </trkpt>
      <trkpt lat="45.84046" lon="3.22337">
        <ele>323.8</ele>
        <time>2024-04-14T11:23:17Z</time>
      </trkpt>
      <trkpt lat="45.84042" lon="3.22345">
        <ele>323.8</ele>
        <time>2024-04-14T11:23:18Z</time>
      </trkpt>
      <trkpt lat="45.84039" lon="3.22354">
        <ele>323.8</ele>
        <time>2024-04-14T11:23:19Z</time>
      </trkpt>
      <trkpt lat="45.84036" lon="3.22363">
        <ele>323.8</ele>
        <time>2024-04-14T11:23:20Z</time>
      </trkpt>
      <trkpt lat="45.84033" lon="3.22373">
        <ele>323.8</ele>
        <time>2024-04-14T11:23:21Z</time>
      </trkpt>
      <trkpt lat="45.84029" lon="3.22381">
        <ele>323.8</ele>
        <time>2024-04-14T11:23:22Z</time>
      </trkpt>
      <trkpt lat="45.84026" lon="3.2239">
        <ele>323.8</ele>
        <time>2024-04-14T11:23:23Z</time>
      </trkpt>
      <trkpt lat="45.84022" lon="3.22399">
        <ele>323.8</ele>
        <time>2024-04-14T11:23:24Z</time>
      </trkpt>
      <trkpt lat="45.84019" lon="3.22408">
        <ele>323.8</ele>
        <time>2024-04-14T11:23:25Z</time>
      </trkpt>
      <trkpt lat="45.84018" lon="3.22417">
        <ele>323.8</ele>
        <time>2024-04-14T11:23:26Z</time>
      </trkpt>
      <trkpt lat="45.84016" lon="3.22427">
        <ele>323.8</ele>
        <time>2024-04-14T11:23:27Z</time>
      </trkpt>
      <trkpt lat="45.84015" lon="3.22436">
        <ele>323.8</ele>
        <time>2024-04-14T11:23:28Z</time>
      </trkpt>
      <trkpt lat="45.84013" lon="3.22446">
        <ele>324</ele>
        <time>2024-04-14T11:23:29Z</time>
      </trkpt>
      <trkpt lat="45.84012" lon="3.22455">
        <ele>324</ele>
        <time>2024-04-14T11:23:30Z</time>
      </trkpt>
      <trkpt lat="45.84011" lon="3.22465">
        <ele>324</ele>
        <time>2024-04-14T11:23:31Z</time>
      </trkpt>
      <trkpt lat="45.8401" lon="3.22474">
        <ele>324</ele>
        <time>2024-04-14T11:23:32Z</time>
      </trkpt>
      <trkpt lat="45.84009" lon="3.22484">
        <ele>324</ele>
        <time>2024-04-14T11:23:33Z</time>
      </trkpt>
      <trkpt lat="45.84009" lon="3.22493">
        <ele>324</ele>
        <time>2024-04-14T11:23:34Z</time>
      </trkpt>
      <trkpt lat="45.84008" lon="3.22503">
        <ele>324</ele>
        <time>2024-04-14T11:23:35Z</time>
      </trkpt>
      <trkpt lat="45.84007" lon="3.22513">
        <ele>324.2</ele>
        <time>2024-04-14T11:23:36Z</time>
      </trkpt>
      <trkpt lat="45.84006" lon="3.22523">
        <ele>324.2</ele>
        <time>2024-04-14T11:23:37Z</time>
      </trkpt>
      <trkpt lat="45.84006" lon="3.22532">
        <ele>324.2</ele>
        <time>2024-04-14T11:23:38Z</time>
      </trkpt>
      <trkpt lat="45.84005" lon="3.22541">
        <ele>324.2</ele>
        <time>2024-04-14T11:23:39Z</time>
      </trkpt>
      <trkpt lat="45.84004" lon="3.22551">
        <ele>324.2</ele>
        <time>2024-04-14T11:23:40Z</time>
      </trkpt>
      <trkpt lat="45.84004" lon="3.2256">
        <ele>324.2</ele>
        <time>2024-04-14T11:23:41Z</time>
      </trkpt>
      <trkpt lat="45.84003" lon="3.22569">
        <ele>324.4</ele>
        <time>2024-04-14T11:23:42Z</time>
      </trkpt>
      <trkpt lat="45.84002" lon="3.22578">
        <ele>324.4</ele>
        <time>2024-04-14T11:23:43Z</time>
      </trkpt>
      <trkpt lat="45.84002" lon="3.22587">
        <ele>324.4</ele>
        <time>2024-04-14T11:23:44Z</time>
      </trkpt>
      <trkpt lat="45.84001" lon="3.22596">
        <ele>324.4</ele>
        <time>2024-04-14T11:23:45Z</time>
      </trkpt>
      <trkpt lat="45.84" lon="3.22606">
        <ele>324.6</ele>
        <time>2024-04-14T11:23:46Z</time>
      </trkpt>
      <trkpt lat="45.84" lon="3.22615">
        <ele>324.6</ele>
        <time>2024-04-14T11:23:47Z</time>
      </trkpt>
      <trkpt lat="45.83999" lon="3.22624">
        <ele>324.6</ele>
        <time>2024-04-14T11:23:48Z</time>
      </trkpt>
      <trkpt lat="45.83998" lon="3.22633">
        <ele>324.6</ele>
        <time>2024-04-14T11:23:49Z</time>
      </trkpt>
      <trkpt lat="45.83998" lon="3.22642">
        <ele>324.6</ele>
        <time>2024-04-14T11:23:50Z</time>
      </trkpt>
      <trkpt lat="45.83998" lon="3.22652">
        <ele>324.6</ele>
        <time>2024-04-14T11:23:51Z</time>
      </trkpt>
      <trkpt lat="45.83997" lon="3.22661">
        <ele>324.8</ele>
        <time>2024-04-14T11:23:52Z</time>
      </trkpt>
      <trkpt lat="45.83997" lon="3.22671">
        <ele>324.8</ele>
        <time>2024-04-14T11:23:53Z</time>
      </trkpt>
      <trkpt lat="45.83997" lon="3.2268">
        <ele>324.8</ele>
        <time>2024-04-14T11:23:54Z</time>
      </trkpt>
      <trkpt lat="45.83996" lon="3.22689">
        <ele>324.8</ele>
        <time>2024-04-14T11:23:55Z</time>
      </trkpt>
      <trkpt lat="45.83996" lon="3.22699">
        <ele>324.8</ele>
        <time>2024-04-14T11:23:56Z</time>
      </trkpt>
      <trkpt lat="45.83995" lon="3.22709">
        <ele>324.8</ele>
        <time>2024-04-14T11:23:57Z</time>
      </trkpt>
      <trkpt lat="45.83995" lon="3.22718">
        <ele>324.8</ele>
        <time>2024-04-14T11:23:58Z</time>
      </trkpt>
      <trkpt lat="45.83995" lon="3.22728">
        <ele>325</ele>
        <time>2024-04-14T11:23:59Z</time>
      </trkpt>
      <trkpt lat="45.83994" lon="3.22738">
        <ele>325</ele>
        <time>2024-04-14T11:24:00Z</time>
      </trkpt>
      <trkpt lat="45.83994" lon="3.22748">
        <ele>325</ele>
        <time>2024-04-14T11:24:01Z</time>
      </trkpt>
      <trkpt lat="45.83994" lon="3.22758">
        <ele>325</ele>
        <time>2024-04-14T11:24:02Z</time>
      </trkpt>
      <trkpt lat="45.83994" lon="3.22768">
        <ele>325</ele>
        <time>2024-04-14T11:24:03Z</time>
      </trkpt>
      <trkpt lat="45.83995" lon="3.22778">
        <ele>325</ele>
        <time>2024-04-14T11:24:04Z</time>
      </trkpt>
      <trkpt lat="45.83995" lon="3.22787">
        <ele>325</ele>
        <time>2024-04-14T11:24:05Z</time>
      </trkpt>
      <trkpt lat="45.83995" lon="3.22797">
        <ele>325</ele>
        <time>2024-04-14T11:24:06Z</time>
      </trkpt>
      <trkpt lat="45.83996" lon="3.22808">
        <ele>325</ele>
        <time>2024-04-14T11:24:07Z</time>
      </trkpt>
      <trkpt lat="45.83996" lon="3.22818">
        <ele>325</ele>
        <time>2024-04-14T11:24:08Z</time>
      </trkpt>
      <trkpt lat="45.83996" lon="3.22827">
        <ele>325.2</ele>
        <time>2024-04-14T11:24:09Z</time>
      </trkpt>
      <trkpt lat="45.83997" lon="3.22837">
        <ele>325.2</ele>
        <time>2024-04-14T11:24:10Z</time>
      </trkpt>
      <trkpt lat="45.83997" lon="3.22847">
        <ele>325.2</ele>
        <time>2024-04-14T11:24:11Z</time>
      </trkpt>
      <trkpt lat="45.83997" lon="3.22857">
        <ele>325.2</ele>
        <time>2024-04-14T11:24:12Z</time>
      </trkpt>
      <trkpt lat="45.83998" lon="3.22866">
        <ele>325.2</ele>
        <time>2024-04-14T11:24:13Z</time>
      </trkpt>
      <trkpt lat="45.83998" lon="3.22876">
        <ele>325.2</ele>
        <time>2024-04-14T11:24:14Z</time>
      </trkpt>
      <trkpt lat="45.83998" lon="3.22885">
        <ele>325.4</ele>
        <time>2024-04-14T11:24:15Z</time>
      </trkpt>
      <trkpt lat="45.83999" lon="3.22894">
        <ele>325.4</ele>
        <time>2024-04-14T11:24:16Z</time>
      </trkpt>
      <trkpt lat="45.83999" lon="3.22904">
        <ele>325.4</ele>
        <time>2024-04-14T11:24:17Z</time>
      </trkpt>
      <trkpt lat="45.83999" lon="3.22913">
        <ele>325.4</ele>
        <time>2024-04-14T11:24:18Z</time>
      </trkpt>
      <trkpt lat="45.84" lon="3.22922">
        <ele>325.4</ele>
        <time>2024-04-14T11:24:19Z</time>
      </trkpt>
      <trkpt lat="45.84" lon="3.22931">
        <ele>325.4</ele>
        <time>2024-04-14T11:24:20Z</time>
      </trkpt>
      <trkpt lat="45.84001" lon="3.2294">
        <ele>325.6</ele>
        <time>2024-04-14T11:24:21Z</time>
      </trkpt>
      <trkpt lat="45.84001" lon="3.22949">
        <ele>325.6</ele>
        <time>2024-04-14T11:24:22Z</time>
      </trkpt>
      <trkpt lat="45.84002" lon="3.22958">
        <ele>325.6</ele>
        <time>2024-04-14T11:24:23Z</time>
      </trkpt>
      <trkpt lat="45.84002" lon="3.22967">
        <ele>325.6</ele>
        <time>2024-04-14T11:24:24Z</time>
      </trkpt>
      <trkpt lat="45.84003" lon="3.22976">
        <ele>325.6</ele>
        <time>2024-04-14T11:24:25Z</time>
      </trkpt>
      <trkpt lat="45.84003" lon="3.22985">
        <ele>325.8</ele>
        <time>2024-04-14T11:24:26Z</time>
      </trkpt>
      <trkpt lat="45.84004" lon="3.22994">
        <ele>325.8</ele>
        <time>2024-04-14T11:24:27Z</time>
      </trkpt>
      <trkpt lat="45.84004" lon="3.23003">
        <ele>325.8</ele>
        <time>2024-04-14T11:24:28Z</time>
      </trkpt>
      <trkpt lat="45.84005" lon="3.23012">
        <ele>325.8</ele>
        <time>2024-04-14T11:24:29Z</time>
      </trkpt>
      <trkpt lat="45.84005" lon="3.23021">
        <ele>326</ele>
        <time>2024-04-14T11:24:30Z</time>
      </trkpt>
      <trkpt lat="45.84006" lon="3.2303">
        <ele>326</ele>
        <time>2024-04-14T11:24:31Z</time>
      </trkpt>
      <trkpt lat="45.84006" lon="3.23039">
        <ele>326</ele>
        <time>2024-04-14T11:24:32Z</time>
      </trkpt>
      <trkpt lat="45.84007" lon="3.23049">
        <ele>326</ele>
        <time>2024-04-14T11:24:33Z</time>
      </trkpt>
      <trkpt lat="45.84007" lon="3.23058">
        <ele>326.2</ele>
        <time>2024-04-14T11:24:34Z</time>
      </trkpt>
      <trkpt lat="45.84008" lon="3.23067">
        <ele>326.2</ele>
        <time>2024-04-14T11:24:35Z</time>
      </trkpt>
      <trkpt lat="45.84008" lon="3.23076">
        <ele>326.2</ele>
        <time>2024-04-14T11:24:36Z</time>
      </trkpt>
      <trkpt lat="45.84009" lon="3.23084">
        <ele>326.4</ele>
        <time>2024-04-14T11:24:37Z</time>
      </trkpt>
      <trkpt lat="45.8401" lon="3.23093">
        <ele>326.4</ele>
        <time>2024-04-14T11:24:38Z</time>
      </trkpt>
      <trkpt lat="45.8401" lon="3.23101">
        <ele>326.4</ele>
        <time>2024-04-14T11:24:39Z</time>
      </trkpt>
      <trkpt lat="45.84011" lon="3.23109">
        <ele>326.4</ele>
        <time>2024-04-14T11:24:40Z</time>
      </trkpt>
      <trkpt lat="45.84011" lon="3.23117">
        <ele>326.6</ele>
        <time>2024-04-14T11:24:41Z</time>
      </trkpt>
      <trkpt lat="45.84012" lon="3.23125">
        <ele>326.6</ele>
        <time>2024-04-14T11:24:42Z</time>
      </trkpt>
      <trkpt lat="45.84012" lon="3.23133">
        <ele>326.6</ele>
        <time>2024-04-14T11:24:43Z</time>
      </trkpt>
      <trkpt lat="45.84013" lon="3.23141">
        <ele>326.6</ele>
        <time>2024-04-14T11:24:44Z</time>
      </trkpt>
      <trkpt lat="45.84014" lon="3.23149">
        <ele>326.8</ele>
        <time>2024-04-14T11:24:45Z</time>
      </trkpt>
      <trkpt lat="45.84014" lon="3.23157">
        <ele>326.8</ele>
        <time>2024-04-14T11:24:46Z</time>
      </trkpt>
      <trkpt lat="45.84015" lon="3.23165">
        <ele>326.8</ele>
        <time>2024-04-14T11:24:47Z</time>
      </trkpt>
      <trkpt lat="45.84015" lon="3.23172">
        <ele>327</ele>
        <time>2024-04-14T11:24:48Z</time>
      </trkpt>
      <trkpt lat="45.84016" lon="3.2318">
        <ele>327</ele>
        <time>2024-04-14T11:24:49Z</time>
      </trkpt>
      <trkpt lat="45.84016" lon="3.23187">
        <ele>327</ele>
        <time>2024-04-14T11:24:50Z</time>
      </trkpt>
      <trkpt lat="45.84017" lon="3.23194">
        <ele>327.2</ele>
        <time>2024-04-14T11:24:51Z</time>
      </trkpt>
      <trkpt lat="45.84017" lon="3.23201">
        <ele>327.2</ele>
        <time>2024-04-14T11:24:52Z</time>
      </trkpt>
      <trkpt lat="45.84018" lon="3.23208">
        <ele>327.2</ele>
        <time>2024-04-14T11:24:53Z</time>
      </trkpt>
      <trkpt lat="45.84018" lon="3.23215">
        <ele>327.4</ele>
        <time>2024-04-14T11:24:54Z</time>
      </trkpt>
      <trkpt lat="45.84019" lon="3.23222">
        <ele>327.4</ele>
        <time>2024-04-14T11:24:55Z</time>
      </trkpt>
      <trkpt lat="45.84019" lon="3.23229">
        <ele>327.4</ele>
        <time>2024-04-14T11:24:56Z</time>
      </trkpt>
      <trkpt lat="45.8402" lon="3.23236">
        <ele>327.6</ele>
        <time>2024-04-14T11:24:57Z</time>
      </trkpt>
      <trkpt lat="45.8402" lon="3.23243">
        <ele>327.6</ele>
        <time>2024-04-14T11:24:58Z</time>
      </trkpt>
      <trkpt lat="45.84021" lon="3.2325">
        <ele>327.8</ele>
        <time>2024-04-14T11:24:59Z</time>
      </trkpt>
      <trkpt lat="45.84021" lon="3.23257">
        <ele>327.8</ele>
        <time>2024-04-14T11:25:00Z</time>
      </trkpt>
      <trkpt lat="45.84022" lon="3.23264">
        <ele>327.8</ele>
        <time>2024-04-14T11:25:01Z</time>
      </trkpt>
      <trkpt lat="45.84022" lon="3.23272">
        <ele>328</ele>
        <time>2024-04-14T11:25:02Z</time>
      </trkpt>
      <trkpt lat="45.84023" lon="3.23279">
        <ele>328</ele>
        <time>2024-04-14T11:25:03Z</time>
      </trkpt>
      <trkpt lat="45.84023" lon="3.23287">
        <ele>328.2</ele>
        <time>2024-04-14T11:25:04Z</time>
      </trkpt>
      <trkpt lat="45.84024" lon="3.23295">
        <ele>328.2</ele>
        <time>2024-04-14T11:25:05Z</time>
      </trkpt>
      <trkpt lat="45.84024" lon="3.23302">
        <ele>328.4</ele>
        <time>2024-04-14T11:25:06Z</time>
      </trkpt>
      <trkpt lat="45.84025" lon="3.23311">
        <ele>328.4</ele>
        <time>2024-04-14T11:25:07Z</time>
      </trkpt>
      <trkpt lat="45.84026" lon="3.23319">
        <ele>328.6</ele>
        <time>2024-04-14T11:25:08Z</time>
      </trkpt>
      <trkpt lat="45.84026" lon="3.23327">
        <ele>328.6</ele>
        <time>2024-04-14T11:25:09Z</time>
      </trkpt>
      <trkpt lat="45.84027" lon="3.23335">
        <ele>328.6</ele>
        <time>2024-04-14T11:25:10Z</time>
      </trkpt>
      <trkpt lat="45.84027" lon="3.23344">
        <ele>328.6</ele>
        <time>2024-04-14T11:25:11Z</time>
      </trkpt>
      <trkpt lat="45.84028" lon="3.23353">
        <ele>328.8</ele>
        <time>2024-04-14T11:25:12Z</time>
      </trkpt>
      <trkpt lat="45.84029" lon="3.23363">
        <ele>328.8</ele>
        <time>2024-04-14T11:25:13Z</time>
      </trkpt>
      <trkpt lat="45.84029" lon="3.23372">
        <ele>328.8</ele>
        <time>2024-04-14T11:25:14Z</time>
      </trkpt>
      <trkpt lat="45.8403" lon="3.23382">
        <ele>329</ele>
        <time>2024-04-14T11:25:15Z</time>
      </trkpt>
      <trkpt lat="45.84031" lon="3.23392">
        <ele>329</ele>
        <time>2024-04-14T11:25:16Z</time>
      </trkpt>
      <trkpt lat="45.84031" lon="3.23401">
        <ele>329</ele>
        <time>2024-04-14T11:25:17Z</time>
      </trkpt>
      <trkpt lat="45.84032" lon="3.23411">
        <ele>329</ele>
        <time>2024-04-14T11:25:18Z</time>
      </trkpt>
      <trkpt lat="45.84033" lon="3.23421">
        <ele>329.2</ele>
        <time>2024-04-14T11:25:19Z</time>
      </trkpt>
      <trkpt lat="45.84033" lon="3.23431">
        <ele>329.2</ele>
        <time>2024-04-14T11:25:20Z</time>
      </trkpt>
      <trkpt lat="45.84034" lon="3.23441">
        <ele>329.2</ele>
        <time>2024-04-14T11:25:21Z</time>
      </trkpt>
      <trkpt lat="45.84035" lon="3.23451">
        <ele>329.2</ele>
        <time>2024-04-14T11:25:22Z</time>
      </trkpt>
      <trkpt lat="45.84036" lon="3.23461">
        <ele>329.2</ele>
        <time>2024-04-14T11:25:23Z</time>
      </trkpt>
      <trkpt lat="45.84036" lon="3.23471">
        <ele>329.2</ele>
        <time>2024-04-14T11:25:24Z</time>
      </trkpt>
      <trkpt lat="45.84037" lon="3.23481">
        <ele>329.2</ele>
        <time>2024-04-14T11:25:25Z</time>
      </trkpt>
      <trkpt lat="45.84038" lon="3.2349">
        <ele>329.2</ele>
        <time>2024-04-14T11:25:26Z</time>
      </trkpt>
      <trkpt lat="45.84038" lon="3.235">
        <ele>329.2</ele>
        <time>2024-04-14T11:25:27Z</time>
      </trkpt>
      <trkpt lat="45.84039" lon="3.23511">
        <ele>329.2</ele>
        <time>2024-04-14T11:25:28Z</time>
      </trkpt>
      <trkpt lat="45.8404" lon="3.2352">
        <ele>329.2</ele>
        <time>2024-04-14T11:25:29Z</time>
      </trkpt>
      <trkpt lat="45.8404" lon="3.2353">
        <ele>329.2</ele>
        <time>2024-04-14T11:25:30Z</time>
      </trkpt>
      <trkpt lat="45.84041" lon="3.23541">
        <ele>329.2</ele>
        <time>2024-04-14T11:25:31Z</time>
      </trkpt>
      <trkpt lat="45.84042" lon="3.23551">
        <ele>329.2</ele>
        <time>2024-04-14T11:25:32Z</time>
      </trkpt>
      <trkpt lat="45.84042" lon="3.23561">
        <ele>329.2</ele>
        <time>2024-04-14T11:25:33Z</time>
      </trkpt>
      <trkpt lat="45.84043" lon="3.23571">
        <ele>329.2</ele>
        <time>2024-04-14T11:25:34Z</time>
      </trkpt>
      <trkpt lat="45.84044" lon="3.23581">
        <ele>329.2</ele>
        <time>2024-04-14T11:25:35Z</time>
      </trkpt>
      <trkpt lat="45.84044" lon="3.23592">
        <ele>329.2</ele>
        <time>2024-04-14T11:25:36Z</time>
      </trkpt>
      <trkpt lat="45.84045" lon="3.23602">
        <ele>329.4</ele>
        <time>2024-04-14T11:25:37Z</time>
      </trkpt>
      <trkpt lat="45.84046" lon="3.23613">
        <ele>329.2</ele>
        <time>2024-04-14T11:25:38Z</time>
      </trkpt>
      <trkpt lat="45.84048" lon="3.23623">
        <ele>329.2</ele>
        <time>2024-04-14T11:25:39Z</time>
      </trkpt>
      <trkpt lat="45.8405" lon="3.23633">
        <ele>329.4</ele>
        <time>2024-04-14T11:25:40Z</time>
      </trkpt>
      <trkpt lat="45.84051" lon="3.23643">
        <ele>329.4</ele>
        <time>2024-04-14T11:25:41Z</time>
      </trkpt>
      <trkpt lat="45.84052" lon="3.23653">
        <ele>329.2</ele>
        <time>2024-04-14T11:25:42Z</time>
      </trkpt>
      <trkpt lat="45.84054" lon="3.23663">
        <ele>329.4</ele>
        <time>2024-04-14T11:25:43Z</time>
      </trkpt>
      <trkpt lat="45.84055" lon="3.23673">
        <ele>329.4</ele>
        <time>2024-04-14T11:25:44Z</time>
      </trkpt>
      <trkpt lat="45.84057" lon="3.23683">
        <ele>329.4</ele>
        <time>2024-04-14T11:25:45Z</time>
      </trkpt>
      <trkpt lat="45.84058" lon="3.23693">
        <ele>329.4</ele>
        <time>2024-04-14T11:25:46Z</time>
      </trkpt>
      <trkpt lat="45.8406" lon="3.23704">
        <ele>329.4</ele>
        <time>2024-04-14T11:25:47Z</time>
      </trkpt>
      <trkpt lat="45.84061" lon="3.23714">
        <ele>329.4</ele>
        <time>2024-04-14T11:25:48Z</time>
      </trkpt>
      <trkpt lat="45.84063" lon="3.23725">
        <ele>329.4</ele>
        <time>2024-04-14T11:25:49Z</time>
      </trkpt>
      <trkpt lat="45.84065" lon="3.23735">
        <ele>329.6</ele>
        <time>2024-04-14T11:25:50Z</time>
      </trkpt>
      <trkpt lat="45.84066" lon="3.23746">
        <ele>329.4</ele>
        <time>2024-04-14T11:25:51Z</time>
      </trkpt>
      <trkpt lat="45.84068" lon="3.23757">
        <ele>329.4</ele>
        <time>2024-04-14T11:25:52Z</time>
      </trkpt>
      <trkpt lat="45.84069" lon="3.23767">
        <ele>329.4</ele>
        <time>2024-04-14T11:25:53Z</time>
      </trkpt>
      <trkpt lat="45.84071" lon="3.23778">
        <ele>329.4</ele>
        <time>2024-04-14T11:25:54Z</time>
      </trkpt>
      <trkpt lat="45.84072" lon="3.23789">
        <ele>329.4</ele>
        <time>2024-04-14T11:25:55Z</time>
      </trkpt>
      <trkpt lat="45.84074" lon="3.23799">
        <ele>329.4</ele>
        <time>2024-04-14T11:25:56Z</time>
      </trkpt>
      <trkpt lat="45.84076" lon="3.2381">
        <ele>329.2</ele>
        <time>2024-04-14T11:25:57Z</time>
      </trkpt>
      <trkpt lat="45.84077" lon="3.2382">
        <ele>329.2</ele>
        <time>2024-04-14T11:25:58Z</time>
      </trkpt>
      <trkpt lat="45.84079" lon="3.23831">
        <ele>329.2</ele>
        <time>2024-04-14T11:25:59Z</time>
      </trkpt>
      <trkpt lat="45.8408" lon="3.23841">
        <ele>329.2</ele>
        <time>2024-04-14T11:26:00Z</time>
      </trkpt>
      <trkpt lat="45.84082" lon="3.23852">
        <ele>329.2</ele>
        <time>2024-04-14T11:26:01Z</time>
      </trkpt>
      <trkpt lat="45.84083" lon="3.23862">
        <ele>329.2</ele>
        <time>2024-04-14T11:26:02Z</time>
      </trkpt>
      <trkpt lat="45.84085" lon="3.23872">
        <ele>329.2</ele>
        <time>2024-04-14T11:26:03Z</time>
      </trkpt>
      <trkpt lat="45.84086" lon="3.23882">
        <ele>329.2</ele>
        <time>2024-04-14T11:26:04Z</time>
      </trkpt>
      <trkpt lat="45.84088" lon="3.23892">
        <ele>329.2</ele>
        <time>2024-04-14T11:26:05Z</time>
      </trkpt>
      <trkpt lat="45.84089" lon="3.23902">
        <ele>329</ele>
        <time>2024-04-14T11:26:06Z</time>
      </trkpt>
      <trkpt lat="45.84091" lon="3.23913">
        <ele>329</ele>
        <time>2024-04-14T11:26:07Z</time>
      </trkpt>
      <trkpt lat="45.84091" lon="3.23913">
        <ele>329</ele>
        <time>2024-04-14T11:26:08Z</time>
      </trkpt>
      <trkpt lat="45.84092" lon="3.23923">
        <ele>329</ele>
        <time>2024-04-14T11:26:09Z</time>
      </trkpt>
      <trkpt lat="45.84094" lon="3.23933">
        <ele>329</ele>
        <time>2024-04-14T11:26:10Z</time>
      </trkpt>
      <trkpt lat="45.84095" lon="3.23943">
        <ele>329</ele>
        <time>2024-04-14T11:26:11Z</time>
      </trkpt>
      <trkpt lat="45.84097" lon="3.23953">
        <ele>329</ele>
        <time>2024-04-14T11:26:12Z</time>
      </trkpt>
      <trkpt lat="45.84098" lon="3.23963">
        <ele>328.8</ele>
        <time>2024-04-14T11:26:13Z</time>
      </trkpt>
      <trkpt lat="45.841" lon="3.23973">
        <ele>328.8</ele>
        <time>2024-04-14T11:26:14Z</time>
      </trkpt>
      <trkpt lat="45.84101" lon="3.23983">
        <ele>328.8</ele>
        <time>2024-04-14T11:26:15Z</time>
      </trkpt>
      <trkpt lat="45.84103" lon="3.23993">
        <ele>328.8</ele>
        <time>2024-04-14T11:26:16Z</time>
      </trkpt>
      <trkpt lat="45.84104" lon="3.24004">
        <ele>328.8</ele>
        <time>2024-04-14T11:26:17Z</time>
      </trkpt>
      <trkpt lat="45.84106" lon="3.24014">
        <ele>328.8</ele>
        <time>2024-04-14T11:26:18Z</time>
      </trkpt>
      <trkpt lat="45.84107" lon="3.24024">
        <ele>328.6</ele>
        <time>2024-04-14T11:26:20Z</time>
      </trkpt>
      <trkpt lat="45.84108" lon="3.24035">
        <ele>328.6</ele>
        <time>2024-04-14T11:26:21Z</time>
      </trkpt>
      <trkpt lat="45.84108" lon="3.24045">
        <ele>328.6</ele>
        <time>2024-04-14T11:26:22Z</time>
      </trkpt>
      <trkpt lat="45.84108" lon="3.24056">
        <ele>328.6</ele>
        <time>2024-04-14T11:26:23Z</time>
      </trkpt>
      <trkpt lat="45.84109" lon="3.24067">
        <ele>328.6</ele>
        <time>2024-04-14T11:26:24Z</time>
      </trkpt>
      <trkpt lat="45.84109" lon="3.24077">
        <ele>328.4</ele>
        <time>2024-04-14T11:26:25Z</time>
      </trkpt>
      <trkpt lat="45.84109" lon="3.24088">
        <ele>328.4</ele>
        <time>2024-04-14T11:26:26Z</time>
      </trkpt>
      <trkpt lat="45.84109" lon="3.24099">
        <ele>328.4</ele>
        <time>2024-04-14T11:26:27Z</time>
      </trkpt>
      <trkpt lat="45.8411" lon="3.24109">
        <ele>328.4</ele>
        <time>2024-04-14T11:26:28Z</time>
      </trkpt>
      <trkpt lat="45.8411" lon="3.24119">
        <ele>328.4</ele>
        <time>2024-04-14T11:26:29Z</time>
      </trkpt>
      <trkpt lat="45.8411" lon="3.2413">
        <ele>328.4</ele>
        <time>2024-04-14T11:26:30Z</time>
      </trkpt>
      <trkpt lat="45.84111" lon="3.24141">
        <ele>328.2</ele>
        <time>2024-04-14T11:26:31Z</time>
      </trkpt>
      <trkpt lat="45.84111" lon="3.24151">
        <ele>328.2</ele>
        <time>2024-04-14T11:26:32Z</time>
      </trkpt>
      <trkpt lat="45.84111" lon="3.24161">
        <ele>328</ele>
        <time>2024-04-14T11:26:33Z</time>
      </trkpt>
      <trkpt lat="45.84111" lon="3.2417">
        <ele>328</ele>
        <time>2024-04-14T11:26:34Z</time>
      </trkpt>
      <trkpt lat="45.84112" lon="3.2418">
        <ele>328</ele>
        <time>2024-04-14T11:26:35Z</time>
      </trkpt>
      <trkpt lat="45.84112" lon="3.2419">
        <ele>327.8</ele>
        <time>2024-04-14T11:26:36Z</time>
      </trkpt>
      <trkpt lat="45.84112" lon="3.242">
        <ele>327.8</ele>
        <time>2024-04-14T11:26:37Z</time>
      </trkpt>
      <trkpt lat="45.84113" lon="3.2421">
        <ele>327.8</ele>
        <time>2024-04-14T11:26:38Z</time>
      </trkpt>
      <trkpt lat="45.84114" lon="3.2422">
        <ele>327.8</ele>
        <time>2024-04-14T11:26:39Z</time>
      </trkpt>
      <trkpt lat="45.84114" lon="3.2423">
        <ele>327.8</ele>
        <time>2024-04-14T11:26:40Z</time>
      </trkpt>
      <trkpt lat="45.84115" lon="3.2424">
        <ele>327.6</ele>
        <time>2024-04-14T11:26:41Z</time>
      </trkpt>
      <trkpt lat="45.84116" lon="3.2425">
        <ele>327.6</ele>
        <time>2024-04-14T11:26:42Z</time>
      </trkpt>
      <trkpt lat="45.84117" lon="3.2426">
        <ele>327.4</ele>
        <time>2024-04-14T11:26:43Z</time>
      </trkpt>
      <trkpt lat="45.84119" lon="3.24269">
        <ele>327.4</ele>
        <time>2024-04-14T11:26:44Z</time>
      </trkpt>
      <trkpt lat="45.84121" lon="3.24278">
        <ele>327.4</ele>
        <time>2024-04-14T11:26:45Z</time>
      </trkpt>
      <trkpt lat="45.84122" lon="3.24286">
        <ele>327.2</ele>
        <time>2024-04-14T11:26:46Z</time>
      </trkpt>
      <trkpt lat="45.84124" lon="3.24295">
        <ele>327.2</ele>
        <time>2024-04-14T11:26:47Z</time>
      </trkpt>
      <trkpt lat="45.84126" lon="3.24304">
        <ele>327.2</ele>
        <time>2024-04-14T11:26:48Z</time>
      </trkpt>
      <trkpt lat="45.84128" lon="3.24314">
        <ele>327.2</ele>
        <time>2024-04-14T11:26:49Z</time>
      </trkpt>
      <trkpt lat="45.84131" lon="3.24324">
        <ele>327</ele>
        <time>2024-04-14T11:26:50Z</time>
      </trkpt>
      <trkpt lat="45.84133" lon="3.24333">
        <ele>327</ele>
        <time>2024-04-14T11:26:51Z</time>
      </trkpt>
      <trkpt lat="45.84135" lon="3.24343">
        <ele>326.8</ele>
        <time>2024-04-14T11:26:52Z</time>
      </trkpt>
      <trkpt lat="45.84137" lon="3.24353">
        <ele>326.8</ele>
        <time>2024-04-14T11:26:53Z</time>
      </trkpt>
      <trkpt lat="45.84139" lon="3.24362">
        <ele>326.8</ele>
        <time>2024-04-14T11:26:54Z</time>
      </trkpt>
      <trkpt lat="45.84141" lon="3.24372">
        <ele>326.8</ele>
        <time>2024-04-14T11:26:55Z</time>
      </trkpt>
      <trkpt lat="45.84143" lon="3.24382">
        <ele>326.8</ele>
        <time>2024-04-14T11:26:56Z</time>
      </trkpt>
      <trkpt lat="45.84145" lon="3.24391">
        <ele>326.6</ele>
        <time>2024-04-14T11:26:57Z</time>
      </trkpt>
      <trkpt lat="45.84147" lon="3.24401">
        <ele>326.6</ele>
        <time>2024-04-14T11:26:58Z</time>
      </trkpt>
      <trkpt lat="45.84149" lon="3.2441">
        <ele>326.6</ele>
        <time>2024-04-14T11:26:59Z</time>
      </trkpt>
      <trkpt lat="45.84151" lon="3.2442">
        <ele>326.6</ele>
        <time>2024-04-14T11:27:00Z</time>
      </trkpt>
      <trkpt lat="45.84153" lon="3.2443">
        <ele>326.6</ele>
        <time>2024-04-14T11:27:01Z</time>
      </trkpt>
      <trkpt lat="45.84155" lon="3.24439">
        <ele>326.6</ele>
        <time>2024-04-14T11:27:02Z</time>
      </trkpt>
      <trkpt lat="45.84157" lon="3.24448">
        <ele>326.4</ele>
        <time>2024-04-14T11:27:03Z</time>
      </trkpt>
      <trkpt lat="45.84159" lon="3.24457">
        <ele>326.4</ele>
        <time>2024-04-14T11:27:04Z</time>
      </trkpt>
      <trkpt lat="45.84161" lon="3.24466">
        <ele>326.4</ele>
        <time>2024-04-14T11:27:05Z</time>
      </trkpt>
      <trkpt lat="45.84163" lon="3.24475">
        <ele>326.4</ele>
        <time>2024-04-14T11:27:06Z</time>
      </trkpt>
      <trkpt lat="45.84165" lon="3.24485">
        <ele>326.4</ele>
        <time>2024-04-14T11:27:07Z</time>
      </trkpt>
      <trkpt lat="45.84167" lon="3.24494">
        <ele>326.4</ele>
        <time>2024-04-14T11:27:08Z</time>
      </trkpt>
      <trkpt lat="45.84169" lon="3.24503">
        <ele>326.4</ele>
        <time>2024-04-14T11:27:09Z</time>
      </trkpt>
      <trkpt lat="45.8417" lon="3.24512">
        <ele>326.2</ele>
        <time>2024-04-14T11:27:10Z</time>
      </trkpt>
      <trkpt lat="45.84172" lon="3.2452">
        <ele>326.2</ele>
        <time>2024-04-14T11:27:11Z</time>
      </trkpt>
      <trkpt lat="45.84174" lon="3.24529">
        <ele>326.2</ele>
        <time>2024-04-14T11:27:12Z</time>
      </trkpt>
      <trkpt lat="45.84175" lon="3.24538">
        <ele>326.2</ele>
        <time>2024-04-14T11:27:13Z</time>
      </trkpt>
      <trkpt lat="45.84177" lon="3.24547">
        <ele>326</ele>
        <time>2024-04-14T11:27:14Z</time>
      </trkpt>
      <trkpt lat="45.84179" lon="3.24556">
        <ele>326</ele>
        <time>2024-04-14T11:27:15Z</time>
      </trkpt>
      <trkpt lat="45.84183" lon="3.24565">
        <ele>326</ele>
        <time>2024-04-14T11:27:16Z</time>
      </trkpt>
      <trkpt lat="45.84185" lon="3.24574">
        <ele>325.8</ele>
        <time>2024-04-14T11:27:17Z</time>
      </trkpt>
      <trkpt lat="45.84186" lon="3.24583">
        <ele>325.8</ele>
        <time>2024-04-14T11:27:18Z</time>
      </trkpt>
      <trkpt lat="45.84187" lon="3.24593">
        <ele>325.8</ele>
        <time>2024-04-14T11:27:19Z</time>
      </trkpt>
      <trkpt lat="45.84189" lon="3.24603">
        <ele>325.6</ele>
        <time>2024-04-14T11:27:20Z</time>
      </trkpt>
      <trkpt lat="45.84189" lon="3.24613">
        <ele>325.6</ele>
        <time>2024-04-14T11:27:21Z</time>
      </trkpt>
      <trkpt lat="45.84189" lon="3.24623">
        <ele>325.4</ele>
        <time>2024-04-14T11:27:22Z</time>
      </trkpt>
      <trkpt lat="45.84189" lon="3.24632">
        <ele>325.4</ele>
        <time>2024-04-14T11:27:23Z</time>
      </trkpt>
      <trkpt lat="45.84188" lon="3.24644">
        <ele>325.2</ele>
        <time>2024-04-14T11:27:24Z</time>
      </trkpt>
      <trkpt lat="45.84186" lon="3.24654">
        <ele>325.2</ele>
        <time>2024-04-14T11:27:25Z</time>
      </trkpt>
      <trkpt lat="45.84184" lon="3.24664">
        <ele>325.2</ele>
        <time>2024-04-14T11:27:26Z</time>
      </trkpt>
      <trkpt lat="45.8418" lon="3.24673">
        <ele>325</ele>
        <time>2024-04-14T11:27:27Z</time>
      </trkpt>
      <trkpt lat="45.84177" lon="3.24681">
        <ele>325</ele>
        <time>2024-04-14T11:27:28Z</time>
      </trkpt>
      <trkpt lat="45.84173" lon="3.2469">
        <ele>325</ele>
        <time>2024-04-14T11:27:29Z</time>
      </trkpt>
      <trkpt lat="45.84169" lon="3.24698">
        <ele>324.8</ele>
        <time>2024-04-14T11:27:30Z</time>
      </trkpt>
      <trkpt lat="45.84165" lon="3.24706">
        <ele>324.8</ele>
        <time>2024-04-14T11:27:31Z</time>
      </trkpt>
      <trkpt lat="45.84161" lon="3.24714">
        <ele>324.8</ele>
        <time>2024-04-14T11:27:32Z</time>
      </trkpt>
      <trkpt lat="45.84157" lon="3.24722">
        <ele>324.8</ele>
        <time>2024-04-14T11:27:33Z</time>
      </trkpt>
      <trkpt lat="45.84153" lon="3.2473">
        <ele>324.8</ele>
        <time>2024-04-14T11:27:34Z</time>
      </trkpt>
      <trkpt lat="45.84149" lon="3.24738">
        <ele>324.8</ele>
        <time>2024-04-14T11:27:35Z</time>
      </trkpt>
      <trkpt lat="45.84145" lon="3.24747">
        <ele>324.8</ele>
        <time>2024-04-14T11:27:36Z</time>
      </trkpt>
      <trkpt lat="45.84141" lon="3.24755">
        <ele>324.8</ele>
        <time>2024-04-14T11:27:37Z</time>
      </trkpt>
      <trkpt lat="45.84136" lon="3.24764">
        <ele>325</ele>
        <time>2024-04-14T11:27:38Z</time>
      </trkpt>
      <trkpt lat="45.84132" lon="3.24772">
        <ele>325</ele>
        <time>2024-04-14T11:27:39Z</time>
      </trkpt>
      <trkpt lat="45.84128" lon="3.2478">
        <ele>325</ele>
        <time>2024-04-14T11:27:40Z</time>
      </trkpt>
      <trkpt lat="45.84124" lon="3.24789">
        <ele>325</ele>
        <time>2024-04-14T11:27:41Z</time>
      </trkpt>
      <trkpt lat="45.8412" lon="3.24797">
        <ele>325</ele>
        <time>2024-04-14T11:27:42Z</time>
      </trkpt>
      <trkpt lat="45.84116" lon="3.24806">
        <ele>325</ele>
        <time>2024-04-14T11:27:43Z</time>
      </trkpt>
      <trkpt lat="45.84112" lon="3.24814">
        <ele>325</ele>
        <time>2024-04-14T11:27:44Z</time>
      </trkpt>
      <trkpt lat="45.84108" lon="3.24822">
        <ele>325</ele>
        <time>2024-04-14T11:27:45Z</time>
      </trkpt>
      <trkpt lat="45.84103" lon="3.2483">
        <ele>325</ele>
        <time>2024-04-14T11:27:46Z</time>
      </trkpt>
      <trkpt lat="45.84099" lon="3.24839">
        <ele>325</ele>
        <time>2024-04-14T11:27:47Z</time>
      </trkpt>
      <trkpt lat="45.84095" lon="3.24847">
        <ele>325</ele>
        <time>2024-04-14T11:27:48Z</time>
      </trkpt>
      <trkpt lat="45.8409" lon="3.24854">
        <ele>325</ele>
        <time>2024-04-14T11:27:49Z</time>
      </trkpt>
      <trkpt lat="45.84086" lon="3.24862">
        <ele>325</ele>
        <time>2024-04-14T11:27:50Z</time>
      </trkpt>
      <trkpt lat="45.84081" lon="3.24869">
        <ele>325</ele>
        <time>2024-04-14T11:27:51Z</time>
      </trkpt>
      <trkpt lat="45.84076" lon="3.24877">
        <ele>325</ele>
        <time>2024-04-14T11:27:52Z</time>
      </trkpt>
      <trkpt lat="45.84072" lon="3.24884">
        <ele>325</ele>
        <time>2024-04-14T11:27:53Z</time>
      </trkpt>
      <trkpt lat="45.84067" lon="3.24892">
        <ele>324.8</ele>
        <time>2024-04-14T11:27:54Z</time>
      </trkpt>
      <trkpt lat="45.84063" lon="3.24899">
        <ele>324.8</ele>
        <time>2024-04-14T11:27:55Z</time>
      </trkpt>
      <trkpt lat="45.84058" lon="3.24906">
        <ele>324.8</ele>
        <time>2024-04-14T11:27:56Z</time>
      </trkpt>
      <trkpt lat="45.84054" lon="3.24914">
        <ele>324.8</ele>
        <time>2024-04-14T11:27:57Z</time>
      </trkpt>
      <trkpt lat="45.84049" lon="3.24921">
        <ele>324.8</ele>
        <time>2024-04-14T11:27:58Z</time>
      </trkpt>
      <trkpt lat="45.84045" lon="3.24929">
        <ele>324.8</ele>
        <time>2024-04-14T11:27:59Z</time>
      </trkpt>
      <trkpt lat="45.8404" lon="3.24936">
        <ele>324.8</ele>
        <time>2024-04-14T11:28:00Z</time>
      </trkpt>
      <trkpt lat="45.84036" lon="3.24943">
        <ele>324.8</ele>
        <time>2024-04-14T11:28:01Z</time>
      </trkpt>
      <trkpt lat="45.84031" lon="3.2495">
        <ele>324.8</ele>
        <time>2024-04-14T11:28:02Z</time>
      </trkpt>
      <trkpt lat="45.84027" lon="3.24958">
        <ele>324.8</ele>
        <time>2024-04-14T11:28:03Z</time>
      </trkpt>
      <trkpt lat="45.84023" lon="3.24966">
        <ele>324.8</ele>
        <time>2024-04-14T11:28:04Z</time>
      </trkpt>
      <trkpt lat="45.8402" lon="3.24975">
        <ele>324.8</ele>
        <time>2024-04-14T11:28:05Z</time>
      </trkpt>
      <trkpt lat="45.84016" lon="3.24983">
        <ele>324.8</ele>
        <time>2024-04-14T11:28:06Z</time>
      </trkpt>
      <trkpt lat="45.84013" lon="3.24991">
        <ele>324.8</ele>
        <time>2024-04-14T11:28:07Z</time>
      </trkpt>
      <trkpt lat="45.8401" lon="3.24999">
        <ele>324.8</ele>
        <time>2024-04-14T11:28:08Z</time>
      </trkpt>
      <trkpt lat="45.84006" lon="3.25007">
        <ele>325</ele>
        <time>2024-04-14T11:28:09Z</time>
      </trkpt>
      <trkpt lat="45.84002" lon="3.25016">
        <ele>324.8</ele>
        <time>2024-04-14T11:28:10Z</time>
      </trkpt>
      <trkpt lat="45.83999" lon="3.25024">
        <ele>324.8</ele>
        <time>2024-04-14T11:28:11Z</time>
      </trkpt>
      <trkpt lat="45.83995" lon="3.25033">
        <ele>324.8</ele>
        <time>2024-04-14T11:28:12Z</time>
      </trkpt>
      <trkpt lat="45.83992" lon="3.25041">
        <ele>324.8</ele>
        <time>2024-04-14T11:28:13Z</time>
      </trkpt>
      <trkpt lat="45.83988" lon="3.25049">
        <ele>324.8</ele>
        <time>2024-04-14T11:28:14Z</time>
      </trkpt>
      <trkpt lat="45.83985" lon="3.25058">
        <ele>324.8</ele>
        <time>2024-04-14T11:28:15Z</time>
      </trkpt>
      <trkpt lat="45.83981" lon="3.25067">
        <ele>324.8</ele>
        <time>2024-04-14T11:28:16Z</time>
      </trkpt>
      <trkpt lat="45.83977" lon="3.25075">
        <ele>324.8</ele>
        <time>2024-04-14T11:28:17Z</time>
      </trkpt>
      <trkpt lat="45.83974" lon="3.25083">
        <ele>324.8</ele>
        <time>2024-04-14T11:28:18Z</time>
      </trkpt>
      <trkpt lat="45.8397" lon="3.25092">
        <ele>324.8</ele>
        <time>2024-04-14T11:28:19Z</time>
      </trkpt>
      <trkpt lat="45.83967" lon="3.251">
        <ele>324.8</ele>
        <time>2024-04-14T11:28:20Z</time>
      </trkpt>
      <trkpt lat="45.83963" lon="3.25109">
        <ele>324.8</ele>
        <time>2024-04-14T11:28:21Z</time>
      </trkpt>
      <trkpt lat="45.83959" lon="3.25118">
        <ele>324.8</ele>
        <time>2024-04-14T11:28:22Z</time>
      </trkpt>
      <trkpt lat="45.83955" lon="3.25126">
        <ele>324.8</ele>
        <time>2024-04-14T11:28:23Z</time>
      </trkpt>
      <trkpt lat="45.83952" lon="3.25135">
        <ele>324.8</ele>
        <time>2024-04-14T11:28:24Z</time>
      </trkpt>
      <trkpt lat="45.83948" lon="3.25144">
        <ele>324.6</ele>
        <time>2024-04-14T11:28:25Z</time>
      </trkpt>
      <trkpt lat="45.83944" lon="3.25152">
        <ele>324.6</ele>
        <time>2024-04-14T11:28:26Z</time>
      </trkpt>
      <trkpt lat="45.83941" lon="3.25161">
        <ele>324.8</ele>
        <time>2024-04-14T11:28:27Z</time>
      </trkpt>
      <trkpt lat="45.83937" lon="3.2517">
        <ele>324.6</ele>
        <time>2024-04-14T11:28:28Z</time>
      </trkpt>
      <trkpt lat="45.83933" lon="3.25179">
        <ele>324.6</ele>
        <time>2024-04-14T11:28:29Z</time>
      </trkpt>
      <trkpt lat="45.83929" lon="3.25187">
        <ele>324.6</ele>
        <time>2024-04-14T11:28:30Z</time>
      </trkpt>
      <trkpt lat="45.83924" lon="3.25195">
        <ele>324.6</ele>
        <time>2024-04-14T11:28:31Z</time>
      </trkpt>
      <trkpt lat="45.8392" lon="3.25203">
        <ele>324.6</ele>
        <time>2024-04-14T11:28:32Z</time>
      </trkpt>
      <trkpt lat="45.83916" lon="3.25211">
        <ele>324.6</ele>
        <time>2024-04-14T11:28:33Z</time>
      </trkpt>
      <trkpt lat="45.83911" lon="3.25219">
        <ele>324.6</ele>
        <time>2024-04-14T11:28:34Z</time>
      </trkpt>
      <trkpt lat="45.83907" lon="3.25227">
        <ele>324.6</ele>
        <time>2024-04-14T11:28:35Z</time>
      </trkpt>
      <trkpt lat="45.83903" lon="3.25235">
        <ele>324.6</ele>
        <time>2024-04-14T11:28:36Z</time>
      </trkpt>
      <trkpt lat="45.83898" lon="3.25242">
        <ele>324.6</ele>
        <time>2024-04-14T11:28:37Z</time>
      </trkpt>
      <trkpt lat="45.83894" lon="3.2525">
        <ele>324.6</ele>
        <time>2024-04-14T11:28:38Z</time>
      </trkpt>
      <trkpt lat="45.8389" lon="3.25257">
        <ele>324.6</ele>
        <time>2024-04-14T11:28:39Z</time>
      </trkpt>
      <trkpt lat="45.83886" lon="3.25265">
        <ele>324.6</ele>
        <time>2024-04-14T11:28:40Z</time>
      </trkpt>
      <trkpt lat="45.83881" lon="3.25273">
        <ele>324.6</ele>
        <time>2024-04-14T11:28:41Z</time>
      </trkpt>
      <trkpt lat="45.83877" lon="3.2528">
        <ele>324.6</ele>
        <time>2024-04-14T11:28:42Z</time>
      </trkpt>
      <trkpt lat="45.83873" lon="3.25288">
        <ele>324.6</ele>
        <time>2024-04-14T11:28:43Z</time>
      </trkpt>
      <trkpt lat="45.83869" lon="3.25295">
        <ele>324.6</ele>
        <time>2024-04-14T11:28:44Z</time>
      </trkpt>
      <trkpt lat="45.83865" lon="3.25302">
        <ele>324.6</ele>
        <time>2024-04-14T11:28:45Z</time>
      </trkpt>
      <trkpt lat="45.83861" lon="3.2531">
        <ele>324.6</ele>
        <time>2024-04-14T11:28:46Z</time>
      </trkpt>
      <trkpt lat="45.83857" lon="3.25317">
        <ele>324.6</ele>
        <time>2024-04-14T11:28:47Z</time>
      </trkpt>
      <trkpt lat="45.83853" lon="3.25324">
        <ele>324.6</ele>
        <time>2024-04-14T11:28:48Z</time>
      </trkpt>
      <trkpt lat="45.83849" lon="3.25331">
        <ele>324.4</ele>
        <time>2024-04-14T11:28:49Z</time>
      </trkpt>
      <trkpt lat="45.83845" lon="3.25339">
        <ele>324.6</ele>
        <time>2024-04-14T11:28:50Z</time>
      </trkpt>
      <trkpt lat="45.83841" lon="3.25346">
        <ele>324.4</ele>
        <time>2024-04-14T11:28:51Z</time>
      </trkpt>
      <trkpt lat="45.83837" lon="3.25353">
        <ele>324.4</ele>
        <time>2024-04-14T11:28:52Z</time>
      </trkpt>
      <trkpt lat="45.83833" lon="3.25361">
        <ele>324.4</ele>
        <time>2024-04-14T11:28:53Z</time>
      </trkpt>
      <trkpt lat="45.83829" lon="3.25368">
        <ele>324.6</ele>
        <time>2024-04-14T11:28:54Z</time>
      </trkpt>
      <trkpt lat="45.83824" lon="3.25375">
        <ele>324.6</ele>
        <time>2024-04-14T11:28:55Z</time>
      </trkpt>
      <trkpt lat="45.8382" lon="3.25383">
        <ele>324.4</ele>
        <time>2024-04-14T11:28:56Z</time>
      </trkpt>
      <trkpt lat="45.83816" lon="3.2539">
        <ele>324.6</ele>
        <time>2024-04-14T11:28:57Z</time>
      </trkpt>
      <trkpt lat="45.83812" lon="3.25397">
        <ele>324.4</ele>
        <time>2024-04-14T11:28:58Z</time>
      </trkpt>
      <trkpt lat="45.83808" lon="3.25405">
        <ele>324.6</ele>
        <time>2024-04-14T11:28:59Z</time>
      </trkpt>
      <trkpt lat="45.83804" lon="3.25412">
        <ele>324.6</ele>
        <time>2024-04-14T11:29:00Z</time>
      </trkpt>
      <trkpt lat="45.838" lon="3.25419">
        <ele>324.6</ele>
        <time>2024-04-14T11:29:01Z</time>
      </trkpt>
      <trkpt lat="45.83796" lon="3.25426">
        <ele>324.6</ele>
        <time>2024-04-14T11:29:02Z</time>
      </trkpt>
      <trkpt lat="45.83792" lon="3.25433">
        <ele>324.6</ele>
        <time>2024-04-14T11:29:03Z</time>
      </trkpt>
      <trkpt lat="45.83788" lon="3.2544">
        <ele>324.6</ele>
        <time>2024-04-14T11:29:04Z</time>
      </trkpt>
      <trkpt lat="45.83784" lon="3.25447">
        <ele>324.6</ele>
        <time>2024-04-14T11:29:05Z</time>
      </trkpt>
      <trkpt lat="45.8378" lon="3.25455">
        <ele>324.6</ele>
        <time>2024-04-14T11:29:06Z</time>
      </trkpt>
      <trkpt lat="45.83776" lon="3.25462">
        <ele>324.4</ele>
        <time>2024-04-14T11:29:07Z</time>
      </trkpt>
      <trkpt lat="45.83772" lon="3.25469">
        <ele>324.4</ele>
        <time>2024-04-14T11:29:08Z</time>
      </trkpt>
      <trkpt lat="45.83768" lon="3.25476">
        <ele>324.4</ele>
        <time>2024-04-14T11:29:09Z</time>
      </trkpt>
      <trkpt lat="45.83764" lon="3.25483">
        <ele>324.6</ele>
        <time>2024-04-14T11:29:10Z</time>
      </trkpt>
      <trkpt lat="45.83761" lon="3.2549">
        <ele>324.6</ele>
        <time>2024-04-14T11:29:11Z</time>
      </trkpt>
      <trkpt lat="45.83757" lon="3.25497">
        <ele>324.6</ele>
        <time>2024-04-14T11:29:12Z</time>
      </trkpt>
      <trkpt lat="45.83753" lon="3.25503">
        <ele>324.6</ele>
        <time>2024-04-14T11:29:13Z</time>
      </trkpt>
      <trkpt lat="45.83749" lon="3.2551">
        <ele>324.6</ele>
        <time>2024-04-14T11:29:14Z</time>
      </trkpt>
      <trkpt lat="45.83746" lon="3.25517">
        <ele>324.6</ele>
        <time>2024-04-14T11:29:15Z</time>
      </trkpt>
      <trkpt lat="45.83742" lon="3.25524">
        <ele>324.6</ele>
        <time>2024-04-14T11:29:16Z</time>
      </trkpt>
      <trkpt lat="45.83738" lon="3.25531">
        <ele>324.8</ele>
        <time>2024-04-14T11:29:17Z</time>
      </trkpt>
      <trkpt lat="45.83735" lon="3.25538">
        <ele>324.8</ele>
        <time>2024-04-14T11:29:18Z</time>
      </trkpt>
      <trkpt lat="45.83732" lon="3.25545">
        <ele>324.8</ele>
        <time>2024-04-14T11:29:19Z</time>
      </trkpt>
      <trkpt lat="45.83728" lon="3.25552">
        <ele>324.8</ele>
        <time>2024-04-14T11:29:20Z</time>
      </trkpt>
      <trkpt lat="45.83725" lon="3.25559">
        <ele>324.8</ele>
        <time>2024-04-14T11:29:21Z</time>
      </trkpt>
      <trkpt lat="45.83722" lon="3.25566">
        <ele>325</ele>
        <time>2024-04-14T11:29:22Z</time>
      </trkpt>
      <trkpt lat="45.83719" lon="3.25573">
        <ele>325</ele>
        <time>2024-04-14T11:29:23Z</time>
      </trkpt>
      <trkpt lat="45.83716" lon="3.2558">
        <ele>325</ele>
        <time>2024-04-14T11:29:24Z</time>
      </trkpt>
      <trkpt lat="45.83712" lon="3.25587">
        <ele>325</ele>
        <time>2024-04-14T11:29:25Z</time>
      </trkpt>
      <trkpt lat="45.8371" lon="3.25595">
        <ele>325</ele>
        <time>2024-04-14T11:29:26Z</time>
      </trkpt>
      <trkpt lat="45.83707" lon="3.25602">
        <ele>325</ele>
        <time>2024-04-14T11:29:27Z</time>
      </trkpt>
      <trkpt lat="45.83705" lon="3.25611">
        <ele>325.2</ele>
        <time>2024-04-14T11:29:28Z</time>
      </trkpt>
      <trkpt lat="45.83703" lon="3.25619">
        <ele>325.2</ele>
        <time>2024-04-14T11:29:29Z</time>
      </trkpt>
      <trkpt lat="45.83701" lon="3.25628">
        <ele>325.2</ele>
        <time>2024-04-14T11:29:30Z</time>
      </trkpt>
      <trkpt lat="45.837" lon="3.25637">
        <ele>325.2</ele>
        <time>2024-04-14T11:29:31Z</time>
      </trkpt>
      <trkpt lat="45.83698" lon="3.25646">
        <ele>325.2</ele>
        <time>2024-04-14T11:29:32Z</time>
      </trkpt>
      <trkpt lat="45.83696" lon="3.25654">
        <ele>325.2</ele>
        <time>2024-04-14T11:29:33Z</time>
      </trkpt>
      <trkpt lat="45.83694" lon="3.25663">
        <ele>325.2</ele>
        <time>2024-04-14T11:29:34Z</time>
      </trkpt>
      <trkpt lat="45.83693" lon="3.25672">
        <ele>325.2</ele>
        <time>2024-04-14T11:29:35Z</time>
      </trkpt>
      <trkpt lat="45.83691" lon="3.25681">
        <ele>325.4</ele>
        <time>2024-04-14T11:29:36Z</time>
      </trkpt>
      <trkpt lat="45.83689" lon="3.25689">
        <ele>325.4</ele>
        <time>2024-04-14T11:29:37Z</time>
      </trkpt>
      <trkpt lat="45.83687" lon="3.25698">
        <ele>325.4</ele>
        <time>2024-04-14T11:29:38Z</time>
      </trkpt>
      <trkpt lat="45.83685" lon="3.25708">
        <ele>325.4</ele>
        <time>2024-04-14T11:29:39Z</time>
      </trkpt>
      <trkpt lat="45.83685" lon="3.25718">
        <ele>325.4</ele>
        <time>2024-04-14T11:29:40Z</time>
      </trkpt>
      <trkpt lat="45.83684" lon="3.25727">
        <ele>325.4</ele>
        <time>2024-04-14T11:29:41Z</time>
      </trkpt>
      <trkpt lat="45.83684" lon="3.25736">
        <ele>325.4</ele>
        <time>2024-04-14T11:29:42Z</time>
      </trkpt>
      <trkpt lat="45.83684" lon="3.25745">
        <ele>325.4</ele>
        <time>2024-04-14T11:29:43Z</time>
      </trkpt>
      <trkpt lat="45.83684" lon="3.25754">
        <ele>325.4</ele>
        <time>2024-04-14T11:29:44Z</time>
      </trkpt>
      <trkpt lat="45.83683" lon="3.25762">
        <ele>325.4</ele>
        <time>2024-04-14T11:29:45Z</time>
      </trkpt>
      <trkpt lat="45.83683" lon="3.25771">
        <ele>325.4</ele>
        <time>2024-04-14T11:29:46Z</time>
      </trkpt>
      <trkpt lat="45.83683" lon="3.2578">
        <ele>325.4</ele>
        <time>2024-04-14T11:29:47Z</time>
      </trkpt>
      <trkpt lat="45.83684" lon="3.2579">
        <ele>325.6</ele>
        <time>2024-04-14T11:29:48Z</time>
      </trkpt>
      <trkpt lat="45.83685" lon="3.25799">
        <ele>325.6</ele>
        <time>2024-04-14T11:29:49Z</time>
      </trkpt>
      <trkpt lat="45.83686" lon="3.25809">
        <ele>325.6</ele>
        <time>2024-04-14T11:29:50Z</time>
      </trkpt>
      <trkpt lat="45.83687" lon="3.25819">
        <ele>325.6</ele>
        <time>2024-04-14T11:29:51Z</time>
      </trkpt>
      <trkpt lat="45.83689" lon="3.25828">
        <ele>325.8</ele>
        <time>2024-04-14T11:29:52Z</time>
      </trkpt>
      <trkpt lat="45.8369" lon="3.25838">
        <ele>325.8</ele>
        <time>2024-04-14T11:29:53Z</time>
      </trkpt>
      <trkpt lat="45.83691" lon="3.25847">
        <ele>325.8</ele>
        <time>2024-04-14T11:29:54Z</time>
      </trkpt>
      <trkpt lat="45.83692" lon="3.25857">
        <ele>325.8</ele>
        <time>2024-04-14T11:29:55Z</time>
      </trkpt>
      <trkpt lat="45.83693" lon="3.25866">
        <ele>325.8</ele>
        <time>2024-04-14T11:29:56Z</time>
      </trkpt>
      <trkpt lat="45.83695" lon="3.25876">
        <ele>325.8</ele>
        <time>2024-04-14T11:29:57Z</time>
      </trkpt>
      <trkpt lat="45.83697" lon="3.25885">
        <ele>325.8</ele>
        <time>2024-04-14T11:29:58Z</time>
      </trkpt>
      <trkpt lat="45.83698" lon="3.25894">
        <ele>325.8</ele>
        <time>2024-04-14T11:29:59Z</time>
      </trkpt>
      <trkpt lat="45.837" lon="3.25904">
        <ele>325.8</ele>
        <time>2024-04-14T11:30:00Z</time>
      </trkpt>
      <trkpt lat="45.83702" lon="3.25914">
        <ele>325.8</ele>
        <time>2024-04-14T11:30:01Z</time>
      </trkpt>
      <trkpt lat="45.83704" lon="3.25923">
        <ele>326</ele>
        <time>2024-04-14T11:30:02Z</time>
      </trkpt>
      <trkpt lat="45.83705" lon="3.25933">
        <ele>326</ele>
        <time>2024-04-14T11:30:03Z</time>
      </trkpt>
      <trkpt lat="45.83707" lon="3.25943">
        <ele>326</ele>
        <time>2024-04-14T11:30:04Z</time>
      </trkpt>
      <trkpt lat="45.83709" lon="3.25953">
        <ele>326</ele>
        <time>2024-04-14T11:30:05Z</time>
      </trkpt>
      <trkpt lat="45.83711" lon="3.25964">
        <ele>325.8</ele>
        <time>2024-04-14T11:30:06Z</time>
      </trkpt>
      <trkpt lat="45.83713" lon="3.25974">
        <ele>325.8</ele>
        <time>2024-04-14T11:30:07Z</time>
      </trkpt>
      <trkpt lat="45.83715" lon="3.25985">
        <ele>325.8</ele>
        <time>2024-04-14T11:30:08Z</time>
      </trkpt>
      <trkpt lat="45.83717" lon="3.25995">
        <ele>325.8</ele>
        <time>2024-04-14T11:30:09Z</time>
      </trkpt>
      <trkpt lat="45.83719" lon="3.26006">
        <ele>325.8</ele>
        <time>2024-04-14T11:30:10Z</time>
      </trkpt>
      <trkpt lat="45.83721" lon="3.26017">
        <ele>325.6</ele>
        <time>2024-04-14T11:30:11Z</time>
      </trkpt>
      <trkpt lat="45.83722" lon="3.26027">
        <ele>325.6</ele>
        <time>2024-04-14T11:30:12Z</time>
      </trkpt>
      <trkpt lat="45.83724" lon="3.26037">
        <ele>325.4</ele>
        <time>2024-04-14T11:30:13Z</time>
      </trkpt>
      <trkpt lat="45.83726" lon="3.26047">
        <ele>325.4</ele>
        <time>2024-04-14T11:30:14Z</time>
      </trkpt>
      <trkpt lat="45.83728" lon="3.26058">
        <ele>325.2</ele>
        <time>2024-04-14T11:30:15Z</time>
      </trkpt>
      <trkpt lat="45.8373" lon="3.26068">
        <ele>325.2</ele>
        <time>2024-04-14T11:30:16Z</time>
      </trkpt>
      <trkpt lat="45.83732" lon="3.26079">
        <ele>325</ele>
        <time>2024-04-14T11:30:17Z</time>
      </trkpt>
      <trkpt lat="45.83734" lon="3.2609">
        <ele>324.8</ele>
        <time>2024-04-14T11:30:18Z</time>
      </trkpt>
      <trkpt lat="45.83736" lon="3.26101">
        <ele>324.8</ele>
        <time>2024-04-14T11:30:19Z</time>
      </trkpt>
      <trkpt lat="45.83738" lon="3.26112">
        <ele>324.6</ele>
        <time>2024-04-14T11:30:20Z</time>
      </trkpt>
      <trkpt lat="45.8374" lon="3.26122">
        <ele>324.6</ele>
        <time>2024-04-14T11:30:21Z</time>
      </trkpt>
      <trkpt lat="45.83742" lon="3.26133">
        <ele>324.6</ele>
        <time>2024-04-14T11:30:22Z</time>
      </trkpt>
      <trkpt lat="45.83745" lon="3.26143">
        <ele>324.6</ele>
        <time>2024-04-14T11:30:23Z</time>
      </trkpt>
      <trkpt lat="45.83747" lon="3.26154">
        <ele>324.4</ele>
        <time>2024-04-14T11:30:24Z</time>
      </trkpt>
      <trkpt lat="45.83749" lon="3.26165">
        <ele>324.4</ele>
        <time>2024-04-14T11:30:25Z</time>
      </trkpt>
      <trkpt lat="45.83751" lon="3.26175">
        <ele>324.2</ele>
        <time>2024-04-14T11:30:26Z</time>
      </trkpt>
      <trkpt lat="45.83753" lon="3.26185">
        <ele>324.2</ele>
        <time>2024-04-14T11:30:27Z</time>
      </trkpt>
      <trkpt lat="45.83754" lon="3.26195">
        <ele>324.2</ele>
        <time>2024-04-14T11:30:28Z</time>
      </trkpt>
      <trkpt lat="45.83756" lon="3.26205">
        <ele>324</ele>
        <time>2024-04-14T11:30:29Z</time>
      </trkpt>
      <trkpt lat="45.83758" lon="3.26215">
        <ele>324</ele>
        <time>2024-04-14T11:30:30Z</time>
      </trkpt>
      <trkpt lat="45.8376" lon="3.26225">
        <ele>323.8</ele>
        <time>2024-04-14T11:30:31Z</time>
      </trkpt>
      <trkpt lat="45.83761" lon="3.26235">
        <ele>323.8</ele>
        <time>2024-04-14T11:30:32Z</time>
      </trkpt>
      <trkpt lat="45.83763" lon="3.26246">
        <ele>323.8</ele>
        <time>2024-04-14T11:30:33Z</time>
      </trkpt>
      <trkpt lat="45.83765" lon="3.26256">
        <ele>323.6</ele>
        <time>2024-04-14T11:30:34Z</time>
      </trkpt>
      <trkpt lat="45.83767" lon="3.26266">
        <ele>323.6</ele>
        <time>2024-04-14T11:30:35Z</time>
      </trkpt>
      <trkpt lat="45.83769" lon="3.26276">
        <ele>323.6</ele>
        <time>2024-04-14T11:30:36Z</time>
      </trkpt>
      <trkpt lat="45.83771" lon="3.26285">
        <ele>323.4</ele>
        <time>2024-04-14T11:30:37Z</time>
      </trkpt>
      <trkpt lat="45.83773" lon="3.26295">
        <ele>323.4</ele>
        <time>2024-04-14T11:30:38Z</time>
      </trkpt>
      <trkpt lat="45.83774" lon="3.26305">
        <ele>323.4</ele>
        <time>2024-04-14T11:30:39Z</time>
      </trkpt>
      <trkpt lat="45.83776" lon="3.26315">
        <ele>323.4</ele>
        <time>2024-04-14T11:30:40Z</time>
      </trkpt>
      <trkpt lat="45.83778" lon="3.26325">
        <ele>323.2</ele>
        <time>2024-04-14T11:30:41Z</time>
      </trkpt>
      <trkpt lat="45.8378" lon="3.26335">
        <ele>323.2</ele>
        <time>2024-04-14T11:30:42Z</time>
      </trkpt>
      <trkpt lat="45.83782" lon="3.26345">
        <ele>323.2</ele>
        <time>2024-04-14T11:30:43Z</time>
      </trkpt>
      <trkpt lat="45.83784" lon="3.26355">
        <ele>323.2</ele>
        <time>2024-04-14T11:30:44Z</time>
      </trkpt>
      <trkpt lat="45.83786" lon="3.26364">
        <ele>323</ele>
        <time>2024-04-14T11:30:45Z</time>
      </trkpt>
      <trkpt lat="45.83788" lon="3.26374">
        <ele>323</ele>
        <time>2024-04-14T11:30:46Z</time>
      </trkpt>
      <trkpt lat="45.8379" lon="3.26384">
        <ele>323</ele>
        <time>2024-04-14T11:30:47Z</time>
      </trkpt>
      <trkpt lat="45.83792" lon="3.26394">
        <ele>322.8</ele>
        <time>2024-04-14T11:30:48Z</time>
      </trkpt>
      <trkpt lat="45.83793" lon="3.26404">
        <ele>322.8</ele>
        <time>2024-04-14T11:30:49Z</time>
      </trkpt>
      <trkpt lat="45.83796" lon="3.26415">
        <ele>322.8</ele>
        <time>2024-04-14T11:30:50Z</time>
      </trkpt>
      <trkpt lat="45.83798" lon="3.26425">
        <ele>322.6</ele>
        <time>2024-04-14T11:30:51Z</time>
      </trkpt>
      <trkpt lat="45.83799" lon="3.26435">
        <ele>322.6</ele>
        <time>2024-04-14T11:30:52Z</time>
      </trkpt>
      <trkpt lat="45.83801" lon="3.26445">
        <ele>322.4</ele>
        <time>2024-04-14T11:30:53Z</time>
      </trkpt>
      <trkpt lat="45.83803" lon="3.26456">
        <ele>322.4</ele>
        <time>2024-04-14T11:30:54Z</time>
      </trkpt>
      <trkpt lat="45.83805" lon="3.26466">
        <ele>322.2</ele>
        <time>2024-04-14T11:30:55Z</time>
      </trkpt>
      <trkpt lat="45.83807" lon="3.26476">
        <ele>322.2</ele>
        <time>2024-04-14T11:30:56Z</time>
      </trkpt>
      <trkpt lat="45.83809" lon="3.26486">
        <ele>322.2</ele>
        <time>2024-04-14T11:30:57Z</time>
      </trkpt>
      <trkpt lat="45.83811" lon="3.26496">
        <ele>322.2</ele>
        <time>2024-04-14T11:30:58Z</time>
      </trkpt>
      <trkpt lat="45.83813" lon="3.26506">
        <ele>322</ele>
        <time>2024-04-14T11:30:59Z</time>
      </trkpt>
      <trkpt lat="45.83815" lon="3.26516">
        <ele>322</ele>
        <time>2024-04-14T11:31:00Z</time>
      </trkpt>
      <trkpt lat="45.83817" lon="3.26526">
        <ele>322</ele>
        <time>2024-04-14T11:31:01Z</time>
      </trkpt>
      <trkpt lat="45.83819" lon="3.26536">
        <ele>321.8</ele>
        <time>2024-04-14T11:31:02Z</time>
      </trkpt>
      <trkpt lat="45.83821" lon="3.26546">
        <ele>321.8</ele>
        <time>2024-04-14T11:31:03Z</time>
      </trkpt>
      <trkpt lat="45.83823" lon="3.26556">
        <ele>321.8</ele>
        <time>2024-04-14T11:31:04Z</time>
      </trkpt>
      <trkpt lat="45.83825" lon="3.26566">
        <ele>321.6</ele>
        <time>2024-04-14T11:31:05Z</time>
      </trkpt>
      <trkpt lat="45.83826" lon="3.26576">
        <ele>321.6</ele>
        <time>2024-04-14T11:31:06Z</time>
      </trkpt>
      <trkpt lat="45.83828" lon="3.26585">
        <ele>321.6</ele>
        <time>2024-04-14T11:31:07Z</time>
      </trkpt>
      <trkpt lat="45.8383" lon="3.26595">
        <ele>321.4</ele>
        <time>2024-04-14T11:31:08Z</time>
      </trkpt>
      <trkpt lat="45.83831" lon="3.26606">
        <ele>321.4</ele>
        <time>2024-04-14T11:31:09Z</time>
      </trkpt>
      <trkpt lat="45.83833" lon="3.26616">
        <ele>321.4</ele>
        <time>2024-04-14T11:31:10Z</time>
      </trkpt>
      <trkpt lat="45.83834" lon="3.26626">
        <ele>321.2</ele>
        <time>2024-04-14T11:31:11Z</time>
      </trkpt>
      <trkpt lat="45.83835" lon="3.26635">
        <ele>321.2</ele>
        <time>2024-04-14T11:31:12Z</time>
      </trkpt>
      <trkpt lat="45.83836" lon="3.26645">
        <ele>321.2</ele>
        <time>2024-04-14T11:31:13Z</time>
      </trkpt>
      <trkpt lat="45.83837" lon="3.26654">
        <ele>321.2</ele>
        <time>2024-04-14T11:31:14Z</time>
      </trkpt>
      <trkpt lat="45.83839" lon="3.26664">
        <ele>321.2</ele>
        <time>2024-04-14T11:31:15Z</time>
      </trkpt>
      <trkpt lat="45.8384" lon="3.26674">
        <ele>321.2</ele>
        <time>2024-04-14T11:31:16Z</time>
      </trkpt>
      <trkpt lat="45.83841" lon="3.26683">
        <ele>321.2</ele>
        <time>2024-04-14T11:31:17Z</time>
      </trkpt>
      <trkpt lat="45.83842" lon="3.26693">
        <ele>321.2</ele>
        <time>2024-04-14T11:31:18Z</time>
      </trkpt>
      <trkpt lat="45.83843" lon="3.26702">
        <ele>321</ele>
        <time>2024-04-14T11:31:19Z</time>
      </trkpt>
      <trkpt lat="45.83845" lon="3.26712">
        <ele>321</ele>
        <time>2024-04-14T11:31:20Z</time>
      </trkpt>
      <trkpt lat="45.83846" lon="3.26722">
        <ele>321</ele>
        <time>2024-04-14T11:31:21Z</time>
      </trkpt>
      <trkpt lat="45.83847" lon="3.26732">
        <ele>321</ele>
        <time>2024-04-14T11:31:22Z</time>
      </trkpt>
      <trkpt lat="45.83848" lon="3.26742">
        <ele>321</ele>
        <time>2024-04-14T11:31:23Z</time>
      </trkpt>
      <trkpt lat="45.8385" lon="3.26752">
        <ele>321</ele>
        <time>2024-04-14T11:31:24Z</time>
      </trkpt>
      <trkpt lat="45.83851" lon="3.26762">
        <ele>321</ele>
        <time>2024-04-14T11:31:25Z</time>
      </trkpt>
      <trkpt lat="45.83852" lon="3.26772">
        <ele>321</ele>
        <time>2024-04-14T11:31:26Z</time>
      </trkpt>
      <trkpt lat="45.83853" lon="3.26781">
        <ele>320.8</ele>
        <time>2024-04-14T11:31:27Z</time>
      </trkpt>
      <trkpt lat="45.83855" lon="3.26791">
        <ele>320.8</ele>
        <time>2024-04-14T11:31:28Z</time>
      </trkpt>
      <trkpt lat="45.83857" lon="3.268">
        <ele>320.8</ele>
        <time>2024-04-14T11:31:29Z</time>
      </trkpt>
      <trkpt lat="45.83859" lon="3.26809">
        <ele>320.8</ele>
        <time>2024-04-14T11:31:30Z</time>
      </trkpt>
      <trkpt lat="45.83862" lon="3.26818">
        <ele>320.8</ele>
        <time>2024-04-14T11:31:31Z</time>
      </trkpt>
      <trkpt lat="45.83864" lon="3.26827">
        <ele>320.6</ele>
        <time>2024-04-14T11:31:32Z</time>
      </trkpt>
      <trkpt lat="45.83866" lon="3.26835">
        <ele>320.6</ele>
        <time>2024-04-14T11:31:33Z</time>
      </trkpt>
      <trkpt lat="45.83869" lon="3.26844">
        <ele>320.6</ele>
        <time>2024-04-14T11:31:34Z</time>
      </trkpt>
      <trkpt lat="45.83871" lon="3.26853">
        <ele>320.6</ele>
        <time>2024-04-14T11:31:35Z</time>
      </trkpt>
      <trkpt lat="45.83873" lon="3.26862">
        <ele>320.6</ele>
        <time>2024-04-14T11:31:36Z</time>
      </trkpt>
      <trkpt lat="45.83875" lon="3.26871">
        <ele>320.4</ele>
        <time>2024-04-14T11:31:37Z</time>
      </trkpt>
      <trkpt lat="45.83878" lon="3.26879">
        <ele>320.4</ele>
        <time>2024-04-14T11:31:38Z</time>
      </trkpt>
      <trkpt lat="45.8388" lon="3.26888">
        <ele>320.4</ele>
        <time>2024-04-14T11:31:39Z</time>
      </trkpt>
      <trkpt lat="45.83882" lon="3.26897">
        <ele>320.2</ele>
        <time>2024-04-14T11:31:40Z</time>
      </trkpt>
      <trkpt lat="45.83884" lon="3.26905">
        <ele>320.2</ele>
        <time>2024-04-14T11:31:41Z</time>
      </trkpt>
      <trkpt lat="45.83886" lon="3.26914">
        <ele>320.2</ele>
        <time>2024-04-14T11:31:42Z</time>
      </trkpt>
      <trkpt lat="45.83889" lon="3.26923">
        <ele>320</ele>
        <time>2024-04-14T11:31:43Z</time>
      </trkpt>
      <trkpt lat="45.83891" lon="3.26931">
        <ele>320</ele>
        <time>2024-04-14T11:31:44Z</time>
      </trkpt>
      <trkpt lat="45.83892" lon="3.2694">
        <ele>319.8</ele>
        <time>2024-04-14T11:31:45Z</time>
      </trkpt>
      <trkpt lat="45.83893" lon="3.26949">
        <ele>319.8</ele>
        <time>2024-04-14T11:31:46Z</time>
      </trkpt>
      <trkpt lat="45.83894" lon="3.26958">
        <ele>319.8</ele>
        <time>2024-04-14T11:31:47Z</time>
      </trkpt>
      <trkpt lat="45.83895" lon="3.26967">
        <ele>319.8</ele>
        <time>2024-04-14T11:31:48Z</time>
      </trkpt>
      <trkpt lat="45.83896" lon="3.26975">
        <ele>319.6</ele>
        <time>2024-04-14T11:31:49Z</time>
      </trkpt>
      <trkpt lat="45.83897" lon="3.26984">
        <ele>319.6</ele>
        <time>2024-04-14T11:31:50Z</time>
      </trkpt>
      <trkpt lat="45.83898" lon="3.26992">
        <ele>319.6</ele>
        <time>2024-04-14T11:31:51Z</time>
      </trkpt>
      <trkpt lat="45.83899" lon="3.27001">
        <ele>319.4</ele>
        <time>2024-04-14T11:31:52Z</time>
      </trkpt>
      <trkpt lat="45.83899" lon="3.27006">
        <ele>319.2</ele>
        <time>2024-04-14T11:31:53Z</time>
      </trkpt>
      <trkpt lat="45.83899" lon="3.27025">
        <ele>319.2</ele>
        <time>2024-04-14T11:31:54Z</time>
      </trkpt>
      <trkpt lat="45.83902" lon="3.27028">
        <ele>319.2</ele>
        <time>2024-04-14T11:31:55Z</time>
      </trkpt>
      <trkpt lat="45.83907" lon="3.27033">
        <ele>319</ele>
        <time>2024-04-14T11:31:56Z</time>
      </trkpt>
      <trkpt lat="45.83912" lon="3.27038">
        <ele>319</ele>
        <time>2024-04-14T11:31:57Z</time>
      </trkpt>
      <trkpt lat="45.83917" lon="3.27045">
        <ele>319</ele>
        <time>2024-04-14T11:31:58Z</time>
      </trkpt>
      <trkpt lat="45.83923" lon="3.27051">
        <ele>319</ele>
        <time>2024-04-14T11:31:59Z</time>
      </trkpt>
      <trkpt lat="45.83928" lon="3.27058">
        <ele>318.8</ele>
        <time>2024-04-14T11:32:00Z</time>
      </trkpt>
      <trkpt lat="45.83934" lon="3.27065">
        <ele>318.8</ele>
        <time>2024-04-14T11:32:01Z</time>
      </trkpt>
      <trkpt lat="45.83938" lon="3.27071">
        <ele>318.6</ele>
        <time>2024-04-14T11:32:02Z</time>
      </trkpt>
      <trkpt lat="45.83943" lon="3.27077">
        <ele>318.6</ele>
        <time>2024-04-14T11:32:03Z</time>
      </trkpt>
      <trkpt lat="45.83948" lon="3.27082">
        <ele>318.6</ele>
        <time>2024-04-14T11:32:04Z</time>
      </trkpt>
      <trkpt lat="45.83953" lon="3.27089">
        <ele>318.4</ele>
        <time>2024-04-14T11:32:05Z</time>
      </trkpt>
      <trkpt lat="45.83958" lon="3.27094">
        <ele>318.4</ele>
        <time>2024-04-14T11:32:06Z</time>
      </trkpt>
      <trkpt lat="45.83963" lon="3.271">
        <ele>318.4</ele>
        <time>2024-04-14T11:32:07Z</time>
      </trkpt>
      <trkpt lat="45.83967" lon="3.27105">
        <ele>318.4</ele>
        <time>2024-04-14T11:32:08Z</time>
      </trkpt>
      <trkpt lat="45.83972" lon="3.27111">
        <ele>318.2</ele>
        <time>2024-04-14T11:32:09Z</time>
      </trkpt>
      <trkpt lat="45.83977" lon="3.27116">
        <ele>318.2</ele>
        <time>2024-04-14T11:32:10Z</time>
      </trkpt>
      <trkpt lat="45.83982" lon="3.27122">
        <ele>318.2</ele>
        <time>2024-04-14T11:32:11Z</time>
      </trkpt>
      <trkpt lat="45.83987" lon="3.27128">
        <ele>318.2</ele>
        <time>2024-04-14T11:32:12Z</time>
      </trkpt>
      <trkpt lat="45.83992" lon="3.27133">
        <ele>318.2</ele>
        <time>2024-04-14T11:32:13Z</time>
      </trkpt>
      <trkpt lat="45.83997" lon="3.27139">
        <ele>318.2</ele>
        <time>2024-04-14T11:32:14Z</time>
      </trkpt>
      <trkpt lat="45.84002" lon="3.27144">
        <ele>318</ele>
        <time>2024-04-14T11:32:15Z</time>
      </trkpt>
      <trkpt lat="45.84007" lon="3.2715">
        <ele>318</ele>
        <time>2024-04-14T11:32:16Z</time>
      </trkpt>
      <trkpt lat="45.84012" lon="3.27156">
        <ele>318</ele>
        <time>2024-04-14T11:32:17Z</time>
      </trkpt>
      <trkpt lat="45.84017" lon="3.27162">
        <ele>318</ele>
        <time>2024-04-14T11:32:18Z</time>
      </trkpt>
      <trkpt lat="45.84022" lon="3.27167">
        <ele>318</ele>
        <time>2024-04-14T11:32:19Z</time>
      </trkpt>
      <trkpt lat="45.84027" lon="3.27172">
        <ele>318</ele>
        <time>2024-04-14T11:32:20Z</time>
      </trkpt>
      <trkpt lat="45.84032" lon="3.27176">
        <ele>318</ele>
        <time>2024-04-14T11:32:21Z</time>
      </trkpt>
      <trkpt lat="45.84038" lon="3.27181">
        <ele>318</ele>
        <time>2024-04-14T11:32:22Z</time>
      </trkpt>
      <trkpt lat="45.84043" lon="3.27185">
        <ele>318</ele>
        <time>2024-04-14T11:32:23Z</time>
      </trkpt>
      <trkpt lat="45.84049" lon="3.2719">
        <ele>318</ele>
        <time>2024-04-14T11:32:24Z</time>
      </trkpt>
      <trkpt lat="45.84054" lon="3.27195">
        <ele>318</ele>
        <time>2024-04-14T11:32:25Z</time>
      </trkpt>
      <trkpt lat="45.8406" lon="3.27199">
        <ele>317.8</ele>
        <time>2024-04-14T11:32:26Z</time>
      </trkpt>
      <trkpt lat="45.84065" lon="3.27204">
        <ele>317.8</ele>
        <time>2024-04-14T11:32:27Z</time>
      </trkpt>
      <trkpt lat="45.84071" lon="3.27209">
        <ele>317.8</ele>
        <time>2024-04-14T11:32:28Z</time>
      </trkpt>
      <trkpt lat="45.84077" lon="3.27213">
        <ele>317.8</ele>
        <time>2024-04-14T11:32:29Z</time>
      </trkpt>
      <trkpt lat="45.84082" lon="3.27218">
        <ele>317.8</ele>
        <time>2024-04-14T11:32:30Z</time>
      </trkpt>
      <trkpt lat="45.84088" lon="3.27223">
        <ele>317.8</ele>
        <time>2024-04-14T11:32:31Z</time>
      </trkpt>
      <trkpt lat="45.84094" lon="3.27228">
        <ele>317.8</ele>
        <time>2024-04-14T11:32:32Z</time>
      </trkpt>
      <trkpt lat="45.841" lon="3.27233">
        <ele>317.8</ele>
        <time>2024-04-14T11:32:33Z</time>
      </trkpt>
      <trkpt lat="45.84105" lon="3.27238">
        <ele>317.8</ele>
        <time>2024-04-14T11:32:34Z</time>
      </trkpt>
      <trkpt lat="45.84111" lon="3.27243">
        <ele>317.8</ele>
        <time>2024-04-14T11:32:35Z</time>
      </trkpt>
      <trkpt lat="45.84117" lon="3.27248">
        <ele>317.8</ele>
        <time>2024-04-14T11:32:36Z</time>
      </trkpt>
      <trkpt lat="45.84123" lon="3.27252">
        <ele>317.8</ele>
        <time>2024-04-14T11:32:37Z</time>
      </trkpt>
      <trkpt lat="45.84128" lon="3.27257">
        <ele>317.8</ele>
        <time>2024-04-14T11:32:38Z</time>
      </trkpt>
      <trkpt lat="45.84134" lon="3.27262">
        <ele>317.8</ele>
        <time>2024-04-14T11:32:39Z</time>
      </trkpt>
      <trkpt lat="45.84139" lon="3.27267">
        <ele>317.8</ele>
        <time>2024-04-14T11:32:40Z</time>
      </trkpt>
      <trkpt lat="45.84151" lon="3.27277">
        <ele>317.6</ele>
        <time>2024-04-14T11:32:41Z</time>
      </trkpt>
      <trkpt lat="45.84151" lon="3.27277">
        <ele>317.6</ele>
        <time>2024-04-14T11:32:42Z</time>
      </trkpt>
      <trkpt lat="45.84157" lon="3.27282">
        <ele>317.6</ele>
        <time>2024-04-14T11:32:43Z</time>
      </trkpt>
      <trkpt lat="45.84162" lon="3.27287">
        <ele>317.6</ele>
        <time>2024-04-14T11:32:44Z</time>
      </trkpt>
      <trkpt lat="45.84168" lon="3.27291">
        <ele>317.6</ele>
        <time>2024-04-14T11:32:45Z</time>
      </trkpt>
      <trkpt lat="45.84174" lon="3.27296">
        <ele>317.6</ele>
        <time>2024-04-14T11:32:46Z</time>
      </trkpt>
      <trkpt lat="45.84179" lon="3.27301">
        <ele>317.6</ele>
        <time>2024-04-14T11:32:47Z</time>
      </trkpt>
      <trkpt lat="45.84185" lon="3.27306">
        <ele>317.6</ele>
        <time>2024-04-14T11:32:48Z</time>
      </trkpt>
      <trkpt lat="45.8419" lon="3.27311">
        <ele>317.6</ele>
        <time>2024-04-14T11:32:49Z</time>
      </trkpt>
      <trkpt lat="45.84196" lon="3.27316">
        <ele>317.6</ele>
        <time>2024-04-14T11:32:50Z</time>
      </trkpt>
      <trkpt lat="45.84202" lon="3.27321">
        <ele>317.6</ele>
        <time>2024-04-14T11:32:51Z</time>
      </trkpt>
      <trkpt lat="45.84208" lon="3.27326">
        <ele>317.6</ele>
        <time>2024-04-14T11:32:52Z</time>
      </trkpt>
      <trkpt lat="45.84213" lon="3.2733">
        <ele>317.6</ele>
        <time>2024-04-14T11:32:53Z</time>
      </trkpt>
      <trkpt lat="45.84219" lon="3.27335">
        <ele>317.6</ele>
        <time>2024-04-14T11:32:54Z</time>
      </trkpt>
      <trkpt lat="45.84225" lon="3.2734">
        <ele>317.6</ele>
        <time>2024-04-14T11:32:55Z</time>
      </trkpt>
      <trkpt lat="45.84231" lon="3.27345">
        <ele>317.6</ele>
        <time>2024-04-14T11:32:56Z</time>
      </trkpt>
      <trkpt lat="45.84236" lon="3.2735">
        <ele>317.6</ele>
        <time>2024-04-14T11:32:57Z</time>
      </trkpt>
      <trkpt lat="45.84242" lon="3.27355">
        <ele>317.6</ele>
        <time>2024-04-14T11:32:58Z</time>
      </trkpt>
      <trkpt lat="45.84248" lon="3.2736">
        <ele>317.6</ele>
        <time>2024-04-14T11:32:59Z</time>
      </trkpt>
      <trkpt lat="45.84254" lon="3.27365">
        <ele>317.6</ele>
        <time>2024-04-14T11:33:00Z</time>
      </trkpt>
      <trkpt lat="45.84259" lon="3.2737">
        <ele>317.8</ele>
        <time>2024-04-14T11:33:01Z</time>
      </trkpt>
      <trkpt lat="45.84265" lon="3.27375">
        <ele>317.8</ele>
        <time>2024-04-14T11:33:02Z</time>
      </trkpt>
      <trkpt lat="45.84271" lon="3.2738">
        <ele>317.8</ele>
        <time>2024-04-14T11:33:03Z</time>
      </trkpt>
      <trkpt lat="45.84277" lon="3.27386">
        <ele>317.8</ele>
        <time>2024-04-14T11:33:04Z</time>
      </trkpt>
      <trkpt lat="45.84282" lon="3.27392">
        <ele>317.8</ele>
        <time>2024-04-14T11:33:05Z</time>
      </trkpt>
      <trkpt lat="45.84287" lon="3.27397">
        <ele>317.8</ele>
        <time>2024-04-14T11:33:06Z</time>
      </trkpt>
      <trkpt lat="45.84293" lon="3.27403">
        <ele>317.8</ele>
        <time>2024-04-14T11:33:07Z</time>
      </trkpt>
      <trkpt lat="45.84298" lon="3.27409">
        <ele>317.8</ele>
        <time>2024-04-14T11:33:08Z</time>
      </trkpt>
      <trkpt lat="45.84304" lon="3.27415">
        <ele>317.8</ele>
        <time>2024-04-14T11:33:09Z</time>
      </trkpt>
      <trkpt lat="45.84309" lon="3.27421">
        <ele>317.8</ele>
        <time>2024-04-14T11:33:10Z</time>
      </trkpt>
      <trkpt lat="45.84314" lon="3.27426">
        <ele>318</ele>
        <time>2024-04-14T11:33:11Z</time>
      </trkpt>
      <trkpt lat="45.84319" lon="3.27431">
        <ele>318</ele>
        <time>2024-04-14T11:33:12Z</time>
      </trkpt>
      <trkpt lat="45.84324" lon="3.27437">
        <ele>318</ele>
        <time>2024-04-14T11:33:13Z</time>
      </trkpt>
      <trkpt lat="45.84329" lon="3.27442">
        <ele>318</ele>
        <time>2024-04-14T11:33:14Z</time>
      </trkpt>
      <trkpt lat="45.84335" lon="3.27448">
        <ele>318</ele>
        <time>2024-04-14T11:33:15Z</time>
      </trkpt>
      <trkpt lat="45.8434" lon="3.27453">
        <ele>318</ele>
        <time>2024-04-14T11:33:16Z</time>
      </trkpt>
      <trkpt lat="45.84345" lon="3.27459">
        <ele>318</ele>
        <time>2024-04-14T11:33:17Z</time>
      </trkpt>
      <trkpt lat="45.8435" lon="3.27464">
        <ele>318</ele>
        <time>2024-04-14T11:33:18Z</time>
      </trkpt>
      <trkpt lat="45.84355" lon="3.2747">
        <ele>318</ele>
        <time>2024-04-14T11:33:19Z</time>
      </trkpt>
      <trkpt lat="45.84361" lon="3.27476">
        <ele>318.2</ele>
        <time>2024-04-14T11:33:20Z</time>
      </trkpt>
      <trkpt lat="45.84366" lon="3.27481">
        <ele>318.2</ele>
        <time>2024-04-14T11:33:21Z</time>
      </trkpt>
      <trkpt lat="45.84371" lon="3.27487">
        <ele>318.2</ele>
        <time>2024-04-14T11:33:22Z</time>
      </trkpt>
      <trkpt lat="45.84375" lon="3.27493">
        <ele>318.2</ele>
        <time>2024-04-14T11:33:23Z</time>
      </trkpt>
      <trkpt lat="45.8438" lon="3.27499">
        <ele>318.2</ele>
        <time>2024-04-14T11:33:24Z</time>
      </trkpt>
      <trkpt lat="45.84385" lon="3.27505">
        <ele>318.2</ele>
        <time>2024-04-14T11:33:25Z</time>
      </trkpt>
      <trkpt lat="45.8439" lon="3.27511">
        <ele>318.4</ele>
        <time>2024-04-14T11:33:26Z</time>
      </trkpt>
      <trkpt lat="45.84395" lon="3.27518">
        <ele>318.2</ele>
        <time>2024-04-14T11:33:27Z</time>
      </trkpt>
      <trkpt lat="45.844" lon="3.27524">
        <ele>318.4</ele>
        <time>2024-04-14T11:33:28Z</time>
      </trkpt>
      <trkpt lat="45.84405" lon="3.2753">
        <ele>318.4</ele>
        <time>2024-04-14T11:33:29Z</time>
      </trkpt>
      <trkpt lat="45.8441" lon="3.27536">
        <ele>318.4</ele>
        <time>2024-04-14T11:33:30Z</time>
      </trkpt>
      <trkpt lat="45.84415" lon="3.27542">
        <ele>318.4</ele>
        <time>2024-04-14T11:33:31Z</time>
      </trkpt>
      <trkpt lat="45.8442" lon="3.27549">
        <ele>318.4</ele>
        <time>2024-04-14T11:33:32Z</time>
      </trkpt>
      <trkpt lat="45.84425" lon="3.27555">
        <ele>318.4</ele>
        <time>2024-04-14T11:33:33Z</time>
      </trkpt>
      <trkpt lat="45.8443" lon="3.27562">
        <ele>318.4</ele>
        <time>2024-04-14T11:33:34Z</time>
      </trkpt>
      <trkpt lat="45.84433" lon="3.2757">
        <ele>318.4</ele>
        <time>2024-04-14T11:33:35Z</time>
      </trkpt>
      <trkpt lat="45.84437" lon="3.27578">
        <ele>318.6</ele>
        <time>2024-04-14T11:33:36Z</time>
      </trkpt>
      <trkpt lat="45.8444" lon="3.27587">
        <ele>318.6</ele>
        <time>2024-04-14T11:33:37Z</time>
      </trkpt>
      <trkpt lat="45.84443" lon="3.27595">
        <ele>318.6</ele>
        <time>2024-04-14T11:33:38Z</time>
      </trkpt>
      <trkpt lat="45.84446" lon="3.27603">
        <ele>318.6</ele>
        <time>2024-04-14T11:33:39Z</time>
      </trkpt>
      <trkpt lat="45.8445" lon="3.27611">
        <ele>318.6</ele>
        <time>2024-04-14T11:33:40Z</time>
      </trkpt>
      <trkpt lat="45.84453" lon="3.2762">
        <ele>318.6</ele>
        <time>2024-04-14T11:33:41Z</time>
      </trkpt>
      <trkpt lat="45.84456" lon="3.27629">
        <ele>318.6</ele>
        <time>2024-04-14T11:33:42Z</time>
      </trkpt>
      <trkpt lat="45.8446" lon="3.27637">
        <ele>318.6</ele>
        <time>2024-04-14T11:33:43Z</time>
      </trkpt>
      <trkpt lat="45.84462" lon="3.27646">
        <ele>318.8</ele>
        <time>2024-04-14T11:33:44Z</time>
      </trkpt>
      <trkpt lat="45.84465" lon="3.27656">
        <ele>318.8</ele>
        <time>2024-04-14T11:33:45Z</time>
      </trkpt>
      <trkpt lat="45.84468" lon="3.27665">
        <ele>318.8</ele>
        <time>2024-04-14T11:33:46Z</time>
      </trkpt>
      <trkpt lat="45.8447" lon="3.27674">
        <ele>318.8</ele>
        <time>2024-04-14T11:33:47Z</time>
      </trkpt>
      <trkpt lat="45.84473" lon="3.27684">
        <ele>318.8</ele>
        <time>2024-04-14T11:33:48Z</time>
      </trkpt>
      <trkpt lat="45.84476" lon="3.27693">
        <ele>318.8</ele>
        <time>2024-04-14T11:33:49Z</time>
      </trkpt>
      <trkpt lat="45.84479" lon="3.27703">
        <ele>318.8</ele>
        <time>2024-04-14T11:33:50Z</time>
      </trkpt>
      <trkpt lat="45.84481" lon="3.27713">
        <ele>318.8</ele>
        <time>2024-04-14T11:33:51Z</time>
      </trkpt>
      <trkpt lat="45.84484" lon="3.27722">
        <ele>318.8</ele>
        <time>2024-04-14T11:33:52Z</time>
      </trkpt>
      <trkpt lat="45.84487" lon="3.27731">
        <ele>318.8</ele>
        <time>2024-04-14T11:33:53Z</time>
      </trkpt>
      <trkpt lat="45.8449" lon="3.27741">
        <ele>319</ele>
        <time>2024-04-14T11:33:54Z</time>
      </trkpt>
      <trkpt lat="45.84492" lon="3.2775">
        <ele>319</ele>
        <time>2024-04-14T11:33:55Z</time>
      </trkpt>
      <trkpt lat="45.84495" lon="3.2776">
        <ele>319</ele>
        <time>2024-04-14T11:33:56Z</time>
      </trkpt>
      <trkpt lat="45.84498" lon="3.27769">
        <ele>319</ele>
        <time>2024-04-14T11:33:57Z</time>
      </trkpt>
      <trkpt lat="45.84501" lon="3.27778">
        <ele>319</ele>
        <time>2024-04-14T11:33:58Z</time>
      </trkpt>
      <trkpt lat="45.84503" lon="3.27788">
        <ele>319</ele>
        <time>2024-04-14T11:33:59Z</time>
      </trkpt>
      <trkpt lat="45.84506" lon="3.27797">
        <ele>319</ele>
        <time>2024-04-14T11:34:00Z</time>
      </trkpt>
      <trkpt lat="45.84509" lon="3.27807">
        <ele>319</ele>
        <time>2024-04-14T11:34:01Z</time>
      </trkpt>
      <trkpt lat="45.84512" lon="3.27816">
        <ele>319</ele>
        <time>2024-04-14T11:34:02Z</time>
      </trkpt>
      <trkpt lat="45.84514" lon="3.27825">
        <ele>319</ele>
        <time>2024-04-14T11:34:03Z</time>
      </trkpt>
      <trkpt lat="45.84517" lon="3.27834">
        <ele>319.2</ele>
        <time>2024-04-14T11:34:04Z</time>
      </trkpt>
      <trkpt lat="45.8452" lon="3.27843">
        <ele>319.2</ele>
        <time>2024-04-14T11:34:05Z</time>
      </trkpt>
      <trkpt lat="45.84522" lon="3.27853">
        <ele>319.2</ele>
        <time>2024-04-14T11:34:06Z</time>
      </trkpt>
      <trkpt lat="45.84525" lon="3.27862">
        <ele>319.2</ele>
        <time>2024-04-14T11:34:07Z</time>
      </trkpt>
      <trkpt lat="45.84527" lon="3.27871">
        <ele>319.2</ele>
        <time>2024-04-14T11:34:08Z</time>
      </trkpt>
      <trkpt lat="45.8453" lon="3.2788">
        <ele>319.2</ele>
        <time>2024-04-14T11:34:09Z</time>
      </trkpt>
      <trkpt lat="45.84533" lon="3.27889">
        <ele>319.2</ele>
        <time>2024-04-14T11:34:10Z</time>
      </trkpt>
      <trkpt lat="45.84536" lon="3.27898">
        <ele>319.2</ele>
        <time>2024-04-14T11:34:11Z</time>
      </trkpt>
      <trkpt lat="45.84538" lon="3.27908">
        <ele>319.2</ele>
        <time>2024-04-14T11:34:12Z</time>
      </trkpt>
      <trkpt lat="45.84541" lon="3.27917">
        <ele>319.2</ele>
        <time>2024-04-14T11:34:13Z</time>
      </trkpt>
      <trkpt lat="45.84544" lon="3.27926">
        <ele>319.2</ele>
        <time>2024-04-14T11:34:14Z</time>
      </trkpt>
      <trkpt lat="45.84546" lon="3.27935">
        <ele>319.2</ele>
        <time>2024-04-14T11:34:15Z</time>
      </trkpt>
      <trkpt lat="45.84549" lon="3.27945">
        <ele>319.2</ele>
        <time>2024-04-14T11:34:16Z</time>
      </trkpt>
      <trkpt lat="45.84552" lon="3.27954">
        <ele>319.4</ele>
        <time>2024-04-14T11:34:17Z</time>
      </trkpt>
      <trkpt lat="45.84555" lon="3.27964">
        <ele>319.4</ele>
        <time>2024-04-14T11:34:18Z</time>
      </trkpt>
      <trkpt lat="45.84557" lon="3.27973">
        <ele>319.4</ele>
        <time>2024-04-14T11:34:19Z</time>
      </trkpt>
      <trkpt lat="45.8456" lon="3.27982">
        <ele>319.4</ele>
        <time>2024-04-14T11:34:20Z</time>
      </trkpt>
      <trkpt lat="45.84563" lon="3.27992">
        <ele>319.4</ele>
        <time>2024-04-14T11:34:21Z</time>
      </trkpt>
      <trkpt lat="45.84567" lon="3.28">
        <ele>319.4</ele>
        <time>2024-04-14T11:34:22Z</time>
      </trkpt>
      <trkpt lat="45.84572" lon="3.28008">
        <ele>319.4</ele>
        <time>2024-04-14T11:34:23Z</time>
      </trkpt>
      <trkpt lat="45.84576" lon="3.28016">
        <ele>319.4</ele>
        <time>2024-04-14T11:34:24Z</time>
      </trkpt>
      <trkpt lat="45.8458" lon="3.28024">
        <ele>319.4</ele>
        <time>2024-04-14T11:34:25Z</time>
      </trkpt>
      <trkpt lat="45.84585" lon="3.28032">
        <ele>319.4</ele>
        <time>2024-04-14T11:34:26Z</time>
      </trkpt>
      <trkpt lat="45.8459" lon="3.2804">
        <ele>319.4</ele>
        <time>2024-04-14T11:34:27Z</time>
      </trkpt>
      <trkpt lat="45.84595" lon="3.28046">
        <ele>319.4</ele>
        <time>2024-04-14T11:34:28Z</time>
      </trkpt>
      <trkpt lat="45.84602" lon="3.28052">
        <ele>319.4</ele>
        <time>2024-04-14T11:34:29Z</time>
      </trkpt>
      <trkpt lat="45.84608" lon="3.28059">
        <ele>319.4</ele>
        <time>2024-04-14T11:34:30Z</time>
      </trkpt>
      <trkpt lat="45.84613" lon="3.28065">
        <ele>319.4</ele>
        <time>2024-04-14T11:34:31Z</time>
      </trkpt>
      <trkpt lat="45.84619" lon="3.28071">
        <ele>319.4</ele>
        <time>2024-04-14T11:34:32Z</time>
      </trkpt>
      <trkpt lat="45.84625" lon="3.28076">
        <ele>319.4</ele>
        <time>2024-04-14T11:34:33Z</time>
      </trkpt>
      <trkpt lat="45.8463" lon="3.28082">
        <ele>319.4</ele>
        <time>2024-04-14T11:34:34Z</time>
      </trkpt>
      <trkpt lat="45.84636" lon="3.28089">
        <ele>319.4</ele>
        <time>2024-04-14T11:34:35Z</time>
      </trkpt>
      <trkpt lat="45.84642" lon="3.28094">
        <ele>319.4</ele>
        <time>2024-04-14T11:34:36Z</time>
      </trkpt>
      <trkpt lat="45.84648" lon="3.281">
        <ele>319.4</ele>
        <time>2024-04-14T11:34:37Z</time>
      </trkpt>
      <trkpt lat="45.84654" lon="3.28107">
        <ele>319.4</ele>
        <time>2024-04-14T11:34:38Z</time>
      </trkpt>
      <trkpt lat="45.8466" lon="3.28113">
        <ele>319.6</ele>
        <time>2024-04-14T11:34:39Z</time>
      </trkpt>
      <trkpt lat="45.84666" lon="3.28119">
        <ele>319.4</ele>
        <time>2024-04-14T11:34:40Z</time>
      </trkpt>
      <trkpt lat="45.84672" lon="3.28126">
        <ele>319.6</ele>
        <time>2024-04-14T11:34:41Z</time>
      </trkpt>
      <trkpt lat="45.84678" lon="3.28132">
        <ele>319.6</ele>
        <time>2024-04-14T11:34:42Z</time>
      </trkpt>
      <trkpt lat="45.84684" lon="3.28138">
        <ele>319.6</ele>
        <time>2024-04-14T11:34:43Z</time>
      </trkpt>
      <trkpt lat="45.8469" lon="3.28145">
        <ele>319.6</ele>
        <time>2024-04-14T11:34:44Z</time>
      </trkpt>
      <trkpt lat="45.84697" lon="3.28152">
        <ele>319.6</ele>
        <time>2024-04-14T11:34:45Z</time>
      </trkpt>
      <trkpt lat="45.84703" lon="3.28158">
        <ele>319.6</ele>
        <time>2024-04-14T11:34:46Z</time>
      </trkpt>
      <trkpt lat="45.8471" lon="3.28165">
        <ele>319.6</ele>
        <time>2024-04-14T11:34:47Z</time>
      </trkpt>
      <trkpt lat="45.84716" lon="3.28172">
        <ele>319.6</ele>
        <time>2024-04-14T11:34:48Z</time>
      </trkpt>
      <trkpt lat="45.84722" lon="3.28178">
        <ele>319.6</ele>
        <time>2024-04-14T11:34:49Z</time>
      </trkpt>
      <trkpt lat="45.84729" lon="3.28185">
        <ele>319.6</ele>
        <time>2024-04-14T11:34:50Z</time>
      </trkpt>
      <trkpt lat="45.84735" lon="3.28191">
        <ele>319.6</ele>
        <time>2024-04-14T11:34:51Z</time>
      </trkpt>
      <trkpt lat="45.84741" lon="3.28198">
        <ele>319.4</ele>
        <time>2024-04-14T11:34:52Z</time>
      </trkpt>
      <trkpt lat="45.84747" lon="3.28204">
        <ele>319.4</ele>
        <time>2024-04-14T11:34:53Z</time>
      </trkpt>
      <trkpt lat="45.84754" lon="3.28211">
        <ele>319.4</ele>
        <time>2024-04-14T11:34:54Z</time>
      </trkpt>
      <trkpt lat="45.8476" lon="3.28218">
        <ele>319.4</ele>
        <time>2024-04-14T11:34:55Z</time>
      </trkpt>
      <trkpt lat="45.84766" lon="3.28224">
        <ele>319.2</ele>
        <time>2024-04-14T11:34:56Z</time>
      </trkpt>
      <trkpt lat="45.84772" lon="3.28231">
        <ele>319.2</ele>
        <time>2024-04-14T11:34:57Z</time>
      </trkpt>
      <trkpt lat="45.84779" lon="3.28237">
        <ele>319.2</ele>
        <time>2024-04-14T11:34:58Z</time>
      </trkpt>
      <trkpt lat="45.84785" lon="3.28244">
        <ele>319.2</ele>
        <time>2024-04-14T11:34:59Z</time>
      </trkpt>
      <trkpt lat="45.84791" lon="3.2825">
        <ele>319.2</ele>
        <time>2024-04-14T11:35:00Z</time>
      </trkpt>
      <trkpt lat="45.84798" lon="3.28257">
        <ele>319</ele>
        <time>2024-04-14T11:35:01Z</time>
      </trkpt>
      <trkpt lat="45.84804" lon="3.28263">
        <ele>319</ele>
        <time>2024-04-14T11:35:02Z</time>
      </trkpt>
      <trkpt lat="45.8481" lon="3.2827">
        <ele>319</ele>
        <time>2024-04-14T11:35:03Z</time>
      </trkpt>
      <trkpt lat="45.84816" lon="3.28276">
        <ele>319</ele>
        <time>2024-04-14T11:35:04Z</time>
      </trkpt>
      <trkpt lat="45.84823" lon="3.28283">
        <ele>318.8</ele>
        <time>2024-04-14T11:35:05Z</time>
      </trkpt>
      <trkpt lat="45.84829" lon="3.28289">
        <ele>318.8</ele>
        <time>2024-04-14T11:35:06Z</time>
      </trkpt>
      <trkpt lat="45.84835" lon="3.28296">
        <ele>318.8</ele>
        <time>2024-04-14T11:35:07Z</time>
      </trkpt>
      <trkpt lat="45.84841" lon="3.28302">
        <ele>318.8</ele>
        <time>2024-04-14T11:35:08Z</time>
      </trkpt>
      <trkpt lat="45.84848" lon="3.28308">
        <ele>318.6</ele>
        <time>2024-04-14T11:35:09Z</time>
      </trkpt>
      <trkpt lat="45.84855" lon="3.28312">
        <ele>318.6</ele>
        <time>2024-04-14T11:35:10Z</time>
      </trkpt>
      <trkpt lat="45.84863" lon="3.28316">
        <ele>318.6</ele>
        <time>2024-04-14T11:35:11Z</time>
      </trkpt>
      <trkpt lat="45.8487" lon="3.28319">
        <ele>318.6</ele>
        <time>2024-04-14T11:35:12Z</time>
      </trkpt>
      <trkpt lat="45.84877" lon="3.28322">
        <ele>318.6</ele>
        <time>2024-04-14T11:35:13Z</time>
      </trkpt>
      <trkpt lat="45.84884" lon="3.28324">
        <ele>318.6</ele>
        <time>2024-04-14T11:35:14Z</time>
      </trkpt>
      <trkpt lat="45.84892" lon="3.28327">
        <ele>318.6</ele>
        <time>2024-04-14T11:35:15Z</time>
      </trkpt>
      <trkpt lat="45.84899" lon="3.28329">
        <ele>318.6</ele>
        <time>2024-04-14T11:35:16Z</time>
      </trkpt>
      <trkpt lat="45.84906" lon="3.28332">
        <ele>318.4</ele>
        <time>2024-04-14T11:35:17Z</time>
      </trkpt>
      <trkpt lat="45.84913" lon="3.28334">
        <ele>318.4</ele>
        <time>2024-04-14T11:35:18Z</time>
      </trkpt>
      <trkpt lat="45.84921" lon="3.28336">
        <ele>318.2</ele>
        <time>2024-04-14T11:35:19Z</time>
      </trkpt>
      <trkpt lat="45.84928" lon="3.28337">
        <ele>318.2</ele>
        <time>2024-04-14T11:35:20Z</time>
      </trkpt>
      <trkpt lat="45.84935" lon="3.28339">
        <ele>318.2</ele>
        <time>2024-04-14T11:35:21Z</time>
      </trkpt>
      <trkpt lat="45.84942" lon="3.2834">
        <ele>318.2</ele>
        <time>2024-04-14T11:35:22Z</time>
      </trkpt>
      <trkpt lat="45.84949" lon="3.28341">
        <ele>318.2</ele>
        <time>2024-04-14T11:35:23Z</time>
      </trkpt>
      <trkpt lat="45.84956" lon="3.28343">
        <ele>318.2</ele>
        <time>2024-04-14T11:35:24Z</time>
      </trkpt>
      <trkpt lat="45.84964" lon="3.28344">
        <ele>318</ele>
        <time>2024-04-14T11:35:25Z</time>
      </trkpt>
      <trkpt lat="45.84971" lon="3.28345">
        <ele>318</ele>
        <time>2024-04-14T11:35:26Z</time>
      </trkpt>
      <trkpt lat="45.84978" lon="3.28347">
        <ele>318</ele>
        <time>2024-04-14T11:35:27Z</time>
      </trkpt>
      <trkpt lat="45.84986" lon="3.28348">
        <ele>317.8</ele>
        <time>2024-04-14T11:35:28Z</time>
      </trkpt>
      <trkpt lat="45.84993" lon="3.2835">
        <ele>317.8</ele>
        <time>2024-04-14T11:35:29Z</time>
      </trkpt>
      <trkpt lat="45.85001" lon="3.28351">
        <ele>317.8</ele>
        <time>2024-04-14T11:35:30Z</time>
      </trkpt>
      <trkpt lat="45.85008" lon="3.28353">
        <ele>317.8</ele>
        <time>2024-04-14T11:35:31Z</time>
      </trkpt>
      <trkpt lat="45.85015" lon="3.28354">
        <ele>317.6</ele>
        <time>2024-04-14T11:35:32Z</time>
      </trkpt>
      <trkpt lat="45.85023" lon="3.28355">
        <ele>317.6</ele>
        <time>2024-04-14T11:35:33Z</time>
      </trkpt>
      <trkpt lat="45.85031" lon="3.28358">
        <ele>317.6</ele>
        <time>2024-04-14T11:35:34Z</time>
      </trkpt>
      <trkpt lat="45.85038" lon="3.28361">
        <ele>317.6</ele>
        <time>2024-04-14T11:35:35Z</time>
      </trkpt>
      <trkpt lat="45.85046" lon="3.28365">
        <ele>317.4</ele>
        <time>2024-04-14T11:35:36Z</time>
      </trkpt>
      <trkpt lat="45.85053" lon="3.28368">
        <ele>317.4</ele>
        <time>2024-04-14T11:35:37Z</time>
      </trkpt>
      <trkpt lat="45.8506" lon="3.28371">
        <ele>317.4</ele>
        <time>2024-04-14T11:35:38Z</time>
      </trkpt>
      <trkpt lat="45.85068" lon="3.28375">
        <ele>317.4</ele>
        <time>2024-04-14T11:35:39Z</time>
      </trkpt>
      <trkpt lat="45.85075" lon="3.2838">
        <ele>317.4</ele>
        <time>2024-04-14T11:35:40Z</time>
      </trkpt>
      <trkpt lat="45.85082" lon="3.28385">
        <ele>317.2</ele>
        <time>2024-04-14T11:35:41Z</time>
      </trkpt>
      <trkpt lat="45.85088" lon="3.2839">
        <ele>317.2</ele>
        <time>2024-04-14T11:35:42Z</time>
      </trkpt>
      <trkpt lat="45.85095" lon="3.28395">
        <ele>317.2</ele>
        <time>2024-04-14T11:35:43Z</time>
      </trkpt>
      <trkpt lat="45.85102" lon="3.284">
        <ele>317.2</ele>
        <time>2024-04-14T11:35:44Z</time>
      </trkpt>
      <trkpt lat="45.85109" lon="3.28405">
        <ele>317.2</ele>
        <time>2024-04-14T11:35:45Z</time>
      </trkpt>
      <trkpt lat="45.85116" lon="3.28411">
        <ele>317.2</ele>
        <time>2024-04-14T11:35:46Z</time>
      </trkpt>
      <trkpt lat="45.85122" lon="3.28418">
        <ele>317</ele>
        <time>2024-04-14T11:35:47Z</time>
      </trkpt>
      <trkpt lat="45.85128" lon="3.28424">
        <ele>317</ele>
        <time>2024-04-14T11:35:48Z</time>
      </trkpt>
      <trkpt lat="45.85135" lon="3.28431">
        <ele>317</ele>
        <time>2024-04-14T11:35:49Z</time>
      </trkpt>
      <trkpt lat="45.85141" lon="3.28437">
        <ele>317</ele>
        <time>2024-04-14T11:35:50Z</time>
      </trkpt>
      <trkpt lat="45.85148" lon="3.28444">
        <ele>317</ele>
        <time>2024-04-14T11:35:51Z</time>
      </trkpt>
      <trkpt lat="45.85154" lon="3.28451">
        <ele>317</ele>
        <time>2024-04-14T11:35:52Z</time>
      </trkpt>
      <trkpt lat="45.8516" lon="3.28459">
        <ele>316.8</ele>
        <time>2024-04-14T11:35:53Z</time>
      </trkpt>
      <trkpt lat="45.85165" lon="3.28467">
        <ele>316.8</ele>
        <time>2024-04-14T11:35:54Z</time>
      </trkpt>
      <trkpt lat="45.85171" lon="3.28475">
        <ele>316.8</ele>
        <time>2024-04-14T11:35:55Z</time>
      </trkpt>
      <trkpt lat="45.85176" lon="3.28483">
        <ele>316.8</ele>
        <time>2024-04-14T11:35:56Z</time>
      </trkpt>
      <trkpt lat="45.85182" lon="3.28491">
        <ele>316.8</ele>
        <time>2024-04-14T11:35:57Z</time>
      </trkpt>
      <trkpt lat="45.85187" lon="3.28499">
        <ele>316.8</ele>
        <time>2024-04-14T11:35:58Z</time>
      </trkpt>
      <trkpt lat="45.85192" lon="3.28508">
        <ele>316.8</ele>
        <time>2024-04-14T11:35:59Z</time>
      </trkpt>
      <trkpt lat="45.85197" lon="3.28516">
        <ele>316.6</ele>
        <time>2024-04-14T11:36:00Z</time>
      </trkpt>
      <trkpt lat="45.85202" lon="3.28524">
        <ele>316.6</ele>
        <time>2024-04-14T11:36:01Z</time>
      </trkpt>
      <trkpt lat="45.85208" lon="3.28533">
        <ele>316.6</ele>
        <time>2024-04-14T11:36:02Z</time>
      </trkpt>
      <trkpt lat="45.85212" lon="3.28541">
        <ele>316.6</ele>
        <time>2024-04-14T11:36:03Z</time>
      </trkpt>
      <trkpt lat="45.85218" lon="3.28549">
        <ele>316.6</ele>
        <time>2024-04-14T11:36:04Z</time>
      </trkpt>
      <trkpt lat="45.85222" lon="3.28557">
        <ele>316.6</ele>
        <time>2024-04-14T11:36:05Z</time>
      </trkpt>
      <trkpt lat="45.85227" lon="3.28565">
        <ele>316.6</ele>
        <time>2024-04-14T11:36:06Z</time>
      </trkpt>
      <trkpt lat="45.85232" lon="3.28573">
        <ele>316.6</ele>
        <time>2024-04-14T11:36:07Z</time>
      </trkpt>
      <trkpt lat="45.85237" lon="3.28581">
        <ele>316.4</ele>
        <time>2024-04-14T11:36:08Z</time>
      </trkpt>
      <trkpt lat="45.85242" lon="3.28589">
        <ele>316.4</ele>
        <time>2024-04-14T11:36:09Z</time>
      </trkpt>
      <trkpt lat="45.85247" lon="3.28597">
        <ele>316.4</ele>
        <time>2024-04-14T11:36:10Z</time>
      </trkpt>
      <trkpt lat="45.85252" lon="3.28605">
        <ele>316.4</ele>
        <time>2024-04-14T11:36:11Z</time>
      </trkpt>
      <trkpt lat="45.85257" lon="3.28613">
        <ele>316.4</ele>
        <time>2024-04-14T11:36:12Z</time>
      </trkpt>
      <trkpt lat="45.85261" lon="3.28621">
        <ele>316.4</ele>
        <time>2024-04-14T11:36:13Z</time>
      </trkpt>
      <trkpt lat="45.85266" lon="3.2863">
        <ele>316.4</ele>
        <time>2024-04-14T11:36:14Z</time>
      </trkpt>
      <trkpt lat="45.85271" lon="3.28637">
        <ele>316.4</ele>
        <time>2024-04-14T11:36:15Z</time>
      </trkpt>
      <trkpt lat="45.85276" lon="3.28645">
        <ele>316.4</ele>
        <time>2024-04-14T11:36:16Z</time>
      </trkpt>
      <trkpt lat="45.85281" lon="3.28653">
        <ele>316.4</ele>
        <time>2024-04-14T11:36:17Z</time>
      </trkpt>
      <trkpt lat="45.85286" lon="3.28661">
        <ele>316.4</ele>
        <time>2024-04-14T11:36:18Z</time>
      </trkpt>
      <trkpt lat="45.85291" lon="3.28669">
        <ele>316.2</ele>
        <time>2024-04-14T11:36:19Z</time>
      </trkpt>
      <trkpt lat="45.85296" lon="3.28677">
        <ele>316.2</ele>
        <time>2024-04-14T11:36:20Z</time>
      </trkpt>
      <trkpt lat="45.85301" lon="3.28685">
        <ele>316.2</ele>
        <time>2024-04-14T11:36:21Z</time>
      </trkpt>
      <trkpt lat="45.85305" lon="3.28692">
        <ele>316.2</ele>
        <time>2024-04-14T11:36:22Z</time>
      </trkpt>
      <trkpt lat="45.8531" lon="3.287">
        <ele>316.2</ele>
        <time>2024-04-14T11:36:23Z</time>
      </trkpt>
      <trkpt lat="45.85315" lon="3.28708">
        <ele>316.2</ele>
        <time>2024-04-14T11:36:24Z</time>
      </trkpt>
      <trkpt lat="45.8532" lon="3.28716">
        <ele>316.2</ele>
        <time>2024-04-14T11:36:25Z</time>
      </trkpt>
      <trkpt lat="45.85325" lon="3.28724">
        <ele>316.2</ele>
        <time>2024-04-14T11:36:26Z</time>
      </trkpt>
      <trkpt lat="45.8533" lon="3.28732">
        <ele>316.2</ele>
        <time>2024-04-14T11:36:27Z</time>
      </trkpt>
      <trkpt lat="45.85335" lon="3.2874">
        <ele>316.2</ele>
        <time>2024-04-14T11:36:28Z</time>
      </trkpt>
      <trkpt lat="45.8534" lon="3.28748">
        <ele>316</ele>
        <time>2024-04-14T11:36:29Z</time>
      </trkpt>
      <trkpt lat="45.85345" lon="3.28756">
        <ele>316</ele>
        <time>2024-04-14T11:36:30Z</time>
      </trkpt>
      <trkpt lat="45.8535" lon="3.28764">
        <ele>316</ele>
        <time>2024-04-14T11:36:31Z</time>
      </trkpt>
      <trkpt lat="45.85355" lon="3.28772">
        <ele>316</ele>
        <time>2024-04-14T11:36:32Z</time>
      </trkpt>
      <trkpt lat="45.8536" lon="3.28779">
        <ele>316</ele>
        <time>2024-04-14T11:36:33Z</time>
      </trkpt>
      <trkpt lat="45.85365" lon="3.28787">
        <ele>316</ele>
        <time>2024-04-14T11:36:34Z</time>
      </trkpt>
      <trkpt lat="45.8537" lon="3.28795">
        <ele>315.8</ele>
        <time>2024-04-14T11:36:35Z</time>
      </trkpt>
      <trkpt lat="45.85375" lon="3.28803">
        <ele>315.8</ele>
        <time>2024-04-14T11:36:36Z</time>
      </trkpt>
      <trkpt lat="45.8538" lon="3.28811">
        <ele>315.8</ele>
        <time>2024-04-14T11:36:37Z</time>
      </trkpt>
      <trkpt lat="45.85384" lon="3.28819">
        <ele>315.8</ele>
        <time>2024-04-14T11:36:38Z</time>
      </trkpt>
      <trkpt lat="45.85389" lon="3.28827">
        <ele>315.8</ele>
        <time>2024-04-14T11:36:39Z</time>
      </trkpt>
      <trkpt lat="45.85394" lon="3.28834">
        <ele>315.8</ele>
        <time>2024-04-14T11:36:40Z</time>
      </trkpt>
      <trkpt lat="45.85399" lon="3.28842">
        <ele>315.8</ele>
        <time>2024-04-14T11:36:41Z</time>
      </trkpt>
      <trkpt lat="45.85404" lon="3.2885">
        <ele>315.8</ele>
        <time>2024-04-14T11:36:42Z</time>
      </trkpt>
      <trkpt lat="45.85409" lon="3.28857">
        <ele>315.6</ele>
        <time>2024-04-14T11:36:43Z</time>
      </trkpt>
      <trkpt lat="45.85413" lon="3.28865">
        <ele>315.6</ele>
        <time>2024-04-14T11:36:44Z</time>
      </trkpt>
      <trkpt lat="45.85418" lon="3.28873">
        <ele>315.6</ele>
        <time>2024-04-14T11:36:45Z</time>
      </trkpt>
      <trkpt lat="45.85423" lon="3.2888">
        <ele>315.6</ele>
        <time>2024-04-14T11:36:46Z</time>
      </trkpt>
      <trkpt lat="45.85428" lon="3.28888">
        <ele>315.6</ele>
        <time>2024-04-14T11:36:47Z</time>
      </trkpt>
      <trkpt lat="45.85433" lon="3.28896">
        <ele>315.6</ele>
        <time>2024-04-14T11:36:48Z</time>
      </trkpt>
      <trkpt lat="45.85437" lon="3.28903">
        <ele>315.6</ele>
        <time>2024-04-14T11:36:49Z</time>
      </trkpt>
      <trkpt lat="45.85442" lon="3.28911">
        <ele>315.6</ele>
        <time>2024-04-14T11:36:50Z</time>
      </trkpt>
      <trkpt lat="45.85447" lon="3.28919">
        <ele>315.6</ele>
        <time>2024-04-14T11:36:51Z</time>
      </trkpt>
      <trkpt lat="45.85452" lon="3.28927">
        <ele>315.6</ele>
        <time>2024-04-14T11:36:52Z</time>
      </trkpt>
      <trkpt lat="45.85457" lon="3.28934">
        <ele>315.6</ele>
        <time>2024-04-14T11:36:53Z</time>
      </trkpt>
      <trkpt lat="45.85462" lon="3.28942">
        <ele>315.6</ele>
        <time>2024-04-14T11:36:54Z</time>
      </trkpt>
      <trkpt lat="45.85467" lon="3.2895">
        <ele>315.4</ele>
        <time>2024-04-14T11:36:55Z</time>
      </trkpt>
      <trkpt lat="45.85471" lon="3.28959">
        <ele>315.4</ele>
        <time>2024-04-14T11:36:56Z</time>
      </trkpt>
      <trkpt lat="45.85476" lon="3.28968">
        <ele>315.4</ele>
        <time>2024-04-14T11:36:57Z</time>
      </trkpt>
      <trkpt lat="45.8548" lon="3.28976">
        <ele>315.4</ele>
        <time>2024-04-14T11:36:58Z</time>
      </trkpt>
      <trkpt lat="45.85485" lon="3.28985">
        <ele>315.4</ele>
        <time>2024-04-14T11:36:59Z</time>
      </trkpt>
      <trkpt lat="45.8549" lon="3.28994">
        <ele>315.2</ele>
        <time>2024-04-14T11:37:00Z</time>
      </trkpt>
      <trkpt lat="45.85494" lon="3.29003">
        <ele>315.2</ele>
        <time>2024-04-14T11:37:01Z</time>
      </trkpt>
      <trkpt lat="45.85497" lon="3.29012">
        <ele>315.2</ele>
        <time>2024-04-14T11:37:02Z</time>
      </trkpt>
      <trkpt lat="45.855" lon="3.29021">
        <ele>315.2</ele>
        <time>2024-04-14T11:37:03Z</time>
      </trkpt>
      <trkpt lat="45.85503" lon="3.2903">
        <ele>315</ele>
        <time>2024-04-14T11:37:04Z</time>
      </trkpt>
      <trkpt lat="45.85506" lon="3.29039">
        <ele>315</ele>
        <time>2024-04-14T11:37:05Z</time>
      </trkpt>
      <trkpt lat="45.8551" lon="3.29048">
        <ele>315</ele>
        <time>2024-04-14T11:37:06Z</time>
      </trkpt>
      <trkpt lat="45.85513" lon="3.29057">
        <ele>315</ele>
        <time>2024-04-14T11:37:07Z</time>
      </trkpt>
      <trkpt lat="45.85516" lon="3.29066">
        <ele>315</ele>
        <time>2024-04-14T11:37:08Z</time>
      </trkpt>
      <trkpt lat="45.85519" lon="3.29074">
        <ele>314.8</ele>
        <time>2024-04-14T11:37:09Z</time>
      </trkpt>
      <trkpt lat="45.85522" lon="3.29083">
        <ele>314.8</ele>
        <time>2024-04-14T11:37:10Z</time>
      </trkpt>
      <trkpt lat="45.85525" lon="3.29092">
        <ele>314.8</ele>
        <time>2024-04-14T11:37:11Z</time>
      </trkpt>
      <trkpt lat="45.85528" lon="3.29101">
        <ele>314.8</ele>
        <time>2024-04-14T11:37:12Z</time>
      </trkpt>
      <trkpt lat="45.85532" lon="3.29109">
        <ele>314.6</ele>
        <time>2024-04-14T11:37:13Z</time>
      </trkpt>
      <trkpt lat="45.85535" lon="3.29118">
        <ele>314.6</ele>
        <time>2024-04-14T11:37:14Z</time>
      </trkpt>
      <trkpt lat="45.85538" lon="3.29127">
        <ele>314.6</ele>
        <time>2024-04-14T11:37:15Z</time>
      </trkpt>
      <trkpt lat="45.85541" lon="3.29137">
        <ele>314.6</ele>
        <time>2024-04-14T11:37:16Z</time>
      </trkpt>
      <trkpt lat="45.85544" lon="3.29146">
        <ele>314.6</ele>
        <time>2024-04-14T11:37:17Z</time>
      </trkpt>
      <trkpt lat="45.85548" lon="3.29155">
        <ele>314.6</ele>
        <time>2024-04-14T11:37:18Z</time>
      </trkpt>
      <trkpt lat="45.85551" lon="3.29164">
        <ele>314.6</ele>
        <time>2024-04-14T11:37:19Z</time>
      </trkpt>
      <trkpt lat="45.85554" lon="3.29173">
        <ele>314.6</ele>
        <time>2024-04-14T11:37:20Z</time>
      </trkpt>
      <trkpt lat="45.85558" lon="3.29183">
        <ele>314.4</ele>
        <time>2024-04-14T11:37:21Z</time>
      </trkpt>
      <trkpt lat="45.85561" lon="3.29192">
        <ele>314.4</ele>
        <time>2024-04-14T11:37:22Z</time>
      </trkpt>
      <trkpt lat="45.85564" lon="3.29202">
        <ele>314.4</ele>
        <time>2024-04-14T11:37:23Z</time>
      </trkpt>
      <trkpt lat="45.85568" lon="3.29211">
        <ele>314.4</ele>
        <time>2024-04-14T11:37:24Z</time>
      </trkpt>
      <trkpt lat="45.85571" lon="3.29221">
        <ele>314.4</ele>
        <time>2024-04-14T11:37:25Z</time>
      </trkpt>
      <trkpt lat="45.85575" lon="3.29231">
        <ele>314.2</ele>
        <time>2024-04-14T11:37:26Z</time>
      </trkpt>
      <trkpt lat="45.85578" lon="3.2924">
        <ele>314.2</ele>
        <time>2024-04-14T11:37:27Z</time>
      </trkpt>
      <trkpt lat="45.85582" lon="3.2925">
        <ele>314.2</ele>
        <time>2024-04-14T11:37:28Z</time>
      </trkpt>
      <trkpt lat="45.85585" lon="3.2926">
        <ele>314.2</ele>
        <time>2024-04-14T11:37:29Z</time>
      </trkpt>
      <trkpt lat="45.85589" lon="3.29269">
        <ele>314.2</ele>
        <time>2024-04-14T11:37:30Z</time>
      </trkpt>
      <trkpt lat="45.85592" lon="3.29279">
        <ele>314</ele>
        <time>2024-04-14T11:37:31Z</time>
      </trkpt>
      <trkpt lat="45.85596" lon="3.29288">
        <ele>314</ele>
        <time>2024-04-14T11:37:32Z</time>
      </trkpt>
      <trkpt lat="45.856" lon="3.29297">
        <ele>314</ele>
        <time>2024-04-14T11:37:33Z</time>
      </trkpt>
      <trkpt lat="45.85604" lon="3.29306">
        <ele>314</ele>
        <time>2024-04-14T11:37:34Z</time>
      </trkpt>
      <trkpt lat="45.85607" lon="3.29315">
        <ele>314</ele>
        <time>2024-04-14T11:37:35Z</time>
      </trkpt>
      <trkpt lat="45.85611" lon="3.29324">
        <ele>314</ele>
        <time>2024-04-14T11:37:36Z</time>
      </trkpt>
      <trkpt lat="45.85615" lon="3.29333">
        <ele>313.8</ele>
        <time>2024-04-14T11:37:37Z</time>
      </trkpt>
      <trkpt lat="45.85619" lon="3.29342">
        <ele>313.8</ele>
        <time>2024-04-14T11:37:38Z</time>
      </trkpt>
      <trkpt lat="45.85622" lon="3.29351">
        <ele>313.8</ele>
        <time>2024-04-14T11:37:39Z</time>
      </trkpt>
      <trkpt lat="45.85626" lon="3.2936">
        <ele>313.8</ele>
        <time>2024-04-14T11:37:40Z</time>
      </trkpt>
      <trkpt lat="45.8563" lon="3.29369">
        <ele>313.8</ele>
        <time>2024-04-14T11:37:41Z</time>
      </trkpt>
      <trkpt lat="45.85634" lon="3.29378">
        <ele>313.8</ele>
        <time>2024-04-14T11:37:42Z</time>
      </trkpt>
      <trkpt lat="45.85637" lon="3.29387">
        <ele>313.6</ele>
        <time>2024-04-14T11:37:43Z</time>
      </trkpt>
      <trkpt lat="45.85641" lon="3.29396">
        <ele>313.6</ele>
        <time>2024-04-14T11:37:44Z</time>
      </trkpt>
      <trkpt lat="45.85644" lon="3.29405">
        <ele>313.6</ele>
        <time>2024-04-14T11:37:45Z</time>
      </trkpt>
      <trkpt lat="45.85646" lon="3.29414">
        <ele>313.6</ele>
        <time>2024-04-14T11:37:46Z</time>
      </trkpt>
      <trkpt lat="45.85649" lon="3.29423">
        <ele>313.6</ele>
        <time>2024-04-14T11:37:47Z</time>
      </trkpt>
      <trkpt lat="45.85652" lon="3.29431">
        <ele>313.6</ele>
        <time>2024-04-14T11:37:48Z</time>
      </trkpt>
      <trkpt lat="45.85655" lon="3.2944">
        <ele>313.4</ele>
        <time>2024-04-14T11:37:49Z</time>
      </trkpt>
      <trkpt lat="45.85657" lon="3.29449">
        <ele>313.4</ele>
        <time>2024-04-14T11:37:50Z</time>
      </trkpt>
      <trkpt lat="45.8566" lon="3.29457">
        <ele>313.4</ele>
        <time>2024-04-14T11:37:51Z</time>
      </trkpt>
      <trkpt lat="45.85663" lon="3.29466">
        <ele>313.4</ele>
        <time>2024-04-14T11:37:52Z</time>
      </trkpt>
      <trkpt lat="45.85665" lon="3.29474">
        <ele>313.4</ele>
        <time>2024-04-14T11:37:53Z</time>
      </trkpt>
      <trkpt lat="45.85668" lon="3.29483">
        <ele>313.4</ele>
        <time>2024-04-14T11:37:54Z</time>
      </trkpt>
      <trkpt lat="45.85671" lon="3.29492">
        <ele>313.4</ele>
        <time>2024-04-14T11:37:55Z</time>
      </trkpt>
      <trkpt lat="45.85674" lon="3.29501">
        <ele>313.2</ele>
        <time>2024-04-14T11:37:56Z</time>
      </trkpt>
      <trkpt lat="45.85676" lon="3.2951">
        <ele>313.2</ele>
        <time>2024-04-14T11:37:57Z</time>
      </trkpt>
      <trkpt lat="45.85679" lon="3.29518">
        <ele>313.2</ele>
        <time>2024-04-14T11:37:58Z</time>
      </trkpt>
      <trkpt lat="45.85682" lon="3.29527">
        <ele>313</ele>
        <time>2024-04-14T11:37:59Z</time>
      </trkpt>
      <trkpt lat="45.85685" lon="3.29536">
        <ele>313</ele>
        <time>2024-04-14T11:38:00Z</time>
      </trkpt>
      <trkpt lat="45.85687" lon="3.29545">
        <ele>313</ele>
        <time>2024-04-14T11:38:01Z</time>
      </trkpt>
      <trkpt lat="45.8569" lon="3.29553">
        <ele>313</ele>
        <time>2024-04-14T11:38:02Z</time>
      </trkpt>
      <trkpt lat="45.85693" lon="3.29562">
        <ele>313</ele>
        <time>2024-04-14T11:38:03Z</time>
      </trkpt>
      <trkpt lat="45.85696" lon="3.29571">
        <ele>313</ele>
        <time>2024-04-14T11:38:04Z</time>
      </trkpt>
      <trkpt lat="45.85698" lon="3.29579">
        <ele>312.8</ele>
        <time>2024-04-14T11:38:05Z</time>
      </trkpt>
      <trkpt lat="45.85701" lon="3.29588">
        <ele>312.8</ele>
        <time>2024-04-14T11:38:06Z</time>
      </trkpt>
      <trkpt lat="45.85704" lon="3.29596">
        <ele>312.8</ele>
        <time>2024-04-14T11:38:07Z</time>
      </trkpt>
      <trkpt lat="45.85706" lon="3.29605">
        <ele>312.8</ele>
        <time>2024-04-14T11:38:08Z</time>
      </trkpt>
      <trkpt lat="45.85709" lon="3.29614">
        <ele>312.6</ele>
        <time>2024-04-14T11:38:09Z</time>
      </trkpt>
      <trkpt lat="45.85712" lon="3.29622">
        <ele>312.6</ele>
        <time>2024-04-14T11:38:10Z</time>
      </trkpt>
      <trkpt lat="45.85715" lon="3.29631">
        <ele>312.6</ele>
        <time>2024-04-14T11:38:11Z</time>
      </trkpt>
      <trkpt lat="45.85718" lon="3.29641">
        <ele>312.6</ele>
        <time>2024-04-14T11:38:12Z</time>
      </trkpt>
      <trkpt lat="45.8572" lon="3.2965">
        <ele>312.4</ele>
        <time>2024-04-14T11:38:13Z</time>
      </trkpt>
      <trkpt lat="45.85723" lon="3.2966">
        <ele>312.4</ele>
        <time>2024-04-14T11:38:14Z</time>
      </trkpt>
      <trkpt lat="45.85726" lon="3.29669">
        <ele>312.4</ele>
        <time>2024-04-14T11:38:15Z</time>
      </trkpt>
      <trkpt lat="45.85729" lon="3.29679">
        <ele>312.4</ele>
        <time>2024-04-14T11:38:16Z</time>
      </trkpt>
      <trkpt lat="45.85734" lon="3.29688">
        <ele>312.2</ele>
        <time>2024-04-14T11:38:17Z</time>
      </trkpt>
      <trkpt lat="45.85738" lon="3.29697">
        <ele>312.2</ele>
        <time>2024-04-14T11:38:18Z</time>
      </trkpt>
      <trkpt lat="45.85743" lon="3.29705">
        <ele>312.2</ele>
        <time>2024-04-14T11:38:19Z</time>
      </trkpt>
      <trkpt lat="45.85747" lon="3.29714">
        <ele>312.2</ele>
        <time>2024-04-14T11:38:20Z</time>
      </trkpt>
      <trkpt lat="45.85751" lon="3.29723">
        <ele>312</ele>
        <time>2024-04-14T11:38:21Z</time>
      </trkpt>
      <trkpt lat="45.85755" lon="3.29731">
        <ele>312</ele>
        <time>2024-04-14T11:38:22Z</time>
      </trkpt>
      <trkpt lat="45.8576" lon="3.2974">
        <ele>312</ele>
        <time>2024-04-14T11:38:23Z</time>
      </trkpt>
      <trkpt lat="45.85764" lon="3.29748">
        <ele>311.8</ele>
        <time>2024-04-14T11:38:24Z</time>
      </trkpt>
      <trkpt lat="45.85768" lon="3.29757">
        <ele>311.8</ele>
        <time>2024-04-14T11:38:25Z</time>
      </trkpt>
      <trkpt lat="45.85773" lon="3.29765">
        <ele>311.8</ele>
        <time>2024-04-14T11:38:26Z</time>
      </trkpt>
      <trkpt lat="45.85777" lon="3.29774">
        <ele>311.8</ele>
        <time>2024-04-14T11:38:27Z</time>
      </trkpt>
      <trkpt lat="45.8578" lon="3.29783">
        <ele>311.6</ele>
        <time>2024-04-14T11:38:28Z</time>
      </trkpt>
      <trkpt lat="45.85782" lon="3.29792">
        <ele>311.6</ele>
        <time>2024-04-14T11:38:29Z</time>
      </trkpt>
      <trkpt lat="45.85785" lon="3.29801">
        <ele>311.6</ele>
        <time>2024-04-14T11:38:30Z</time>
      </trkpt>
      <trkpt lat="45.85788" lon="3.29809">
        <ele>311.6</ele>
        <time>2024-04-14T11:38:31Z</time>
      </trkpt>
      <trkpt lat="45.85791" lon="3.29818">
        <ele>311.4</ele>
        <time>2024-04-14T11:38:32Z</time>
      </trkpt>
      <trkpt lat="45.85793" lon="3.29826">
        <ele>311.4</ele>
        <time>2024-04-14T11:38:33Z</time>
      </trkpt>
      <trkpt lat="45.85796" lon="3.29834">
        <ele>311.4</ele>
        <time>2024-04-14T11:38:34Z</time>
      </trkpt>
      <trkpt lat="45.85798" lon="3.29842">
        <ele>311.4</ele>
        <time>2024-04-14T11:38:35Z</time>
      </trkpt>
      <trkpt lat="45.85801" lon="3.2985">
        <ele>311.2</ele>
        <time>2024-04-14T11:38:36Z</time>
      </trkpt>
      <trkpt lat="45.85803" lon="3.29858">
        <ele>311.2</ele>
        <time>2024-04-14T11:38:37Z</time>
      </trkpt>
      <trkpt lat="45.85805" lon="3.29865">
        <ele>311.2</ele>
        <time>2024-04-14T11:38:38Z</time>
      </trkpt>
      <trkpt lat="45.85808" lon="3.29873">
        <ele>311.2</ele>
        <time>2024-04-14T11:38:39Z</time>
      </trkpt>
      <trkpt lat="45.8581" lon="3.2988">
        <ele>311.2</ele>
        <time>2024-04-14T11:38:40Z</time>
      </trkpt>
      <trkpt lat="45.85812" lon="3.29887">
        <ele>311.2</ele>
        <time>2024-04-14T11:38:41Z</time>
      </trkpt>
      <trkpt lat="45.85814" lon="3.29894">
        <ele>311</ele>
        <time>2024-04-14T11:38:42Z</time>
      </trkpt>
      <trkpt lat="45.85816" lon="3.299">
        <ele>311</ele>
        <time>2024-04-14T11:38:43Z</time>
      </trkpt>
      <trkpt lat="45.85818" lon="3.29906">
        <ele>311</ele>
        <time>2024-04-14T11:38:44Z</time>
      </trkpt>
      <trkpt lat="45.85821" lon="3.29913">
        <ele>310.8</ele>
        <time>2024-04-14T11:38:45Z</time>
      </trkpt>
      <trkpt lat="45.85824" lon="3.2992">
        <ele>310.8</ele>
        <time>2024-04-14T11:38:46Z</time>
      </trkpt>
      <trkpt lat="45.85827" lon="3.29927">
        <ele>310.8</ele>
        <time>2024-04-14T11:38:47Z</time>
      </trkpt>
      <trkpt lat="45.8583" lon="3.29934">
        <ele>310.8</ele>
        <time>2024-04-14T11:38:48Z</time>
      </trkpt>
      <trkpt lat="45.85833" lon="3.2994">
        <ele>310.8</ele>
        <time>2024-04-14T11:38:49Z</time>
      </trkpt>
      <trkpt lat="45.85837" lon="3.29947">
        <ele>310.8</ele>
        <time>2024-04-14T11:38:50Z</time>
      </trkpt>
      <trkpt lat="45.85841" lon="3.29952">
        <ele>310.6</ele>
        <time>2024-04-14T11:38:51Z</time>
      </trkpt>
      <trkpt lat="45.85845" lon="3.29957">
        <ele>310.6</ele>
        <time>2024-04-14T11:38:52Z</time>
      </trkpt>
      <trkpt lat="45.8585" lon="3.29961">
        <ele>310.6</ele>
        <time>2024-04-14T11:38:53Z</time>
      </trkpt>
      <trkpt lat="45.85855" lon="3.29966">
        <ele>310.6</ele>
        <time>2024-04-14T11:38:54Z</time>
      </trkpt>
      <trkpt lat="45.8586" lon="3.29971">
        <ele>310.4</ele>
        <time>2024-04-14T11:38:55Z</time>
      </trkpt>
      <trkpt lat="45.85864" lon="3.29975">
        <ele>310.4</ele>
        <time>2024-04-14T11:38:56Z</time>
      </trkpt>
      <trkpt lat="45.85869" lon="3.2998">
        <ele>310.4</ele>
        <time>2024-04-14T11:38:57Z</time>
      </trkpt>
      <trkpt lat="45.85874" lon="3.29985">
        <ele>310.4</ele>
        <time>2024-04-14T11:38:58Z</time>
      </trkpt>
      <trkpt lat="45.85879" lon="3.2999">
        <ele>310.2</ele>
        <time>2024-04-14T11:38:59Z</time>
      </trkpt>
      <trkpt lat="45.85884" lon="3.29994">
        <ele>310.2</ele>
        <time>2024-04-14T11:39:00Z</time>
      </trkpt>
      <trkpt lat="45.8589" lon="3.29999">
        <ele>310.2</ele>
        <time>2024-04-14T11:39:01Z</time>
      </trkpt>
      <trkpt lat="45.85895" lon="3.30003">
        <ele>310.2</ele>
        <time>2024-04-14T11:39:02Z</time>
      </trkpt>
      <trkpt lat="45.859" lon="3.30007">
        <ele>310.2</ele>
        <time>2024-04-14T11:39:03Z</time>
      </trkpt>
      <trkpt lat="45.85906" lon="3.30011">
        <ele>310</ele>
        <time>2024-04-14T11:39:04Z</time>
      </trkpt>
      <trkpt lat="45.85911" lon="3.30015">
        <ele>310.2</ele>
        <time>2024-04-14T11:39:05Z</time>
      </trkpt>
      <trkpt lat="45.85916" lon="3.30019">
        <ele>310</ele>
        <time>2024-04-14T11:39:06Z</time>
      </trkpt>
      <trkpt lat="45.85921" lon="3.30023">
        <ele>310</ele>
        <time>2024-04-14T11:39:07Z</time>
      </trkpt>
      <trkpt lat="45.85926" lon="3.30027">
        <ele>310</ele>
        <time>2024-04-14T11:39:08Z</time>
      </trkpt>
      <trkpt lat="45.85931" lon="3.30031">
        <ele>310</ele>
        <time>2024-04-14T11:39:09Z</time>
      </trkpt>
      <trkpt lat="45.85936" lon="3.30035">
        <ele>309.8</ele>
        <time>2024-04-14T11:39:10Z</time>
      </trkpt>
      <trkpt lat="45.85941" lon="3.30039">
        <ele>309.8</ele>
        <time>2024-04-14T11:39:11Z</time>
      </trkpt>
      <trkpt lat="45.85946" lon="3.30043">
        <ele>309.6</ele>
        <time>2024-04-14T11:39:12Z</time>
      </trkpt>
      <trkpt lat="45.85952" lon="3.30047">
        <ele>309.4</ele>
        <time>2024-04-14T11:39:13Z</time>
      </trkpt>
      <trkpt lat="45.85957" lon="3.30052">
        <ele>309.4</ele>
        <time>2024-04-14T11:39:14Z</time>
      </trkpt>
      <trkpt lat="45.85962" lon="3.30057">
        <ele>309.4</ele>
        <time>2024-04-14T11:39:15Z</time>
      </trkpt>
      <trkpt lat="45.85967" lon="3.30061">
        <ele>309.2</ele>
        <time>2024-04-14T11:39:16Z</time>
      </trkpt>
      <trkpt lat="45.85972" lon="3.30066">
        <ele>309.2</ele>
        <time>2024-04-14T11:39:17Z</time>
      </trkpt>
      <trkpt lat="45.85977" lon="3.30071">
        <ele>309.2</ele>
        <time>2024-04-14T11:39:18Z</time>
      </trkpt>
      <trkpt lat="45.85982" lon="3.30075">
        <ele>309</ele>
        <time>2024-04-14T11:39:19Z</time>
      </trkpt>
      <trkpt lat="45.85987" lon="3.30079">
        <ele>309</ele>
        <time>2024-04-14T11:39:20Z</time>
      </trkpt>
      <trkpt lat="45.85993" lon="3.30083">
        <ele>309</ele>
        <time>2024-04-14T11:39:21Z</time>
      </trkpt>
      <trkpt lat="45.85998" lon="3.30086">
        <ele>309</ele>
        <time>2024-04-14T11:39:22Z</time>
      </trkpt>
      <trkpt lat="45.86003" lon="3.30089">
        <ele>309</ele>
        <time>2024-04-14T11:39:23Z</time>
      </trkpt>
      <trkpt lat="45.8601" lon="3.3009">
        <ele>309</ele>
        <time>2024-04-14T11:39:24Z</time>
      </trkpt>
      <trkpt lat="45.86017" lon="3.3009">
        <ele>309</ele>
        <time>2024-04-14T11:39:25Z</time>
      </trkpt>
      <trkpt lat="45.86021" lon="3.30091">
        <ele>309</ele>
        <time>2024-04-14T11:39:26Z</time>
      </trkpt>
      <trkpt lat="45.86027" lon="3.30092">
        <ele>309</ele>
        <time>2024-04-14T11:39:27Z</time>
      </trkpt>
      <trkpt lat="45.86032" lon="3.30093">
        <ele>309</ele>
        <time>2024-04-14T11:39:28Z</time>
      </trkpt>
      <trkpt lat="45.86038" lon="3.30094">
        <ele>309</ele>
        <time>2024-04-14T11:39:29Z</time>
      </trkpt>
      <trkpt lat="45.86043" lon="3.30095">
        <ele>309.2</ele>
        <time>2024-04-14T11:39:30Z</time>
      </trkpt>
      <trkpt lat="45.86049" lon="3.30096">
        <ele>309.2</ele>
        <time>2024-04-14T11:39:31Z</time>
      </trkpt>
      <trkpt lat="45.86055" lon="3.30097">
        <ele>309.2</ele>
        <time>2024-04-14T11:39:32Z</time>
      </trkpt>
      <trkpt lat="45.8606" lon="3.30098">
        <ele>309.2</ele>
        <time>2024-04-14T11:39:33Z</time>
      </trkpt>
      <trkpt lat="45.86066" lon="3.30099">
        <ele>308.8</ele>
        <time>2024-04-14T11:39:34Z</time>
      </trkpt>
      <trkpt lat="45.86071" lon="3.301">
        <ele>309</ele>
        <time>2024-04-14T11:39:35Z</time>
      </trkpt>
      <trkpt lat="45.86077" lon="3.30101">
        <ele>309.4</ele>
        <time>2024-04-14T11:39:36Z</time>
      </trkpt>
      <trkpt lat="45.86082" lon="3.30102">
        <ele>309.6</ele>
        <time>2024-04-14T11:39:37Z</time>
      </trkpt>
      <trkpt lat="45.86087" lon="3.30103">
        <ele>310</ele>
        <time>2024-04-14T11:39:38Z</time>
      </trkpt>
      <trkpt lat="45.86092" lon="3.30104">
        <ele>309.6</ele>
        <time>2024-04-14T11:39:39Z</time>
      </trkpt>
      <trkpt lat="45.86098" lon="3.30105">
        <ele>309.6</ele>
        <time>2024-04-14T11:39:40Z</time>
      </trkpt>
      <trkpt lat="45.86103" lon="3.30106">
        <ele>309.6</ele>
        <time>2024-04-14T11:39:41Z</time>
      </trkpt>
      <trkpt lat="45.86109" lon="3.30108">
        <ele>309.6</ele>
        <time>2024-04-14T11:39:42Z</time>
      </trkpt>
      <trkpt lat="45.86114" lon="3.30109">
        <ele>309.8</ele>
        <time>2024-04-14T11:39:43Z</time>
      </trkpt>
      <trkpt lat="45.86119" lon="3.3011">
        <ele>309.8</ele>
        <time>2024-04-14T11:39:44Z</time>
      </trkpt>
      <trkpt lat="45.86124" lon="3.30111">
        <ele>309.8</ele>
        <time>2024-04-14T11:39:45Z</time>
      </trkpt>
      <trkpt lat="45.8613" lon="3.30112">
        <ele>310</ele>
        <time>2024-04-14T11:39:46Z</time>
      </trkpt>
      <trkpt lat="45.86135" lon="3.30113">
        <ele>310</ele>
        <time>2024-04-14T11:39:47Z</time>
      </trkpt>
      <trkpt lat="45.8614" lon="3.30114">
        <ele>310</ele>
        <time>2024-04-14T11:39:48Z</time>
      </trkpt>
      <trkpt lat="45.86145" lon="3.30115">
        <ele>310.2</ele>
        <time>2024-04-14T11:39:49Z</time>
      </trkpt>
      <trkpt lat="45.8615" lon="3.30116">
        <ele>310.2</ele>
        <time>2024-04-14T11:39:50Z</time>
      </trkpt>
      <trkpt lat="45.86155" lon="3.30117">
        <ele>310.2</ele>
        <time>2024-04-14T11:39:51Z</time>
      </trkpt>
      <trkpt lat="45.8616" lon="3.30118">
        <ele>310.4</ele>
        <time>2024-04-14T11:39:52Z</time>
      </trkpt>
      <trkpt lat="45.86165" lon="3.30118">
        <ele>310.4</ele>
        <time>2024-04-14T11:39:53Z</time>
      </trkpt>
      <trkpt lat="45.8617" lon="3.30119">
        <ele>310.6</ele>
        <time>2024-04-14T11:39:54Z</time>
      </trkpt>
      <trkpt lat="45.86175" lon="3.30121">
        <ele>310.6</ele>
        <time>2024-04-14T11:39:55Z</time>
      </trkpt>
      <trkpt lat="45.8618" lon="3.30123">
        <ele>310.6</ele>
        <time>2024-04-14T11:39:56Z</time>
      </trkpt>
      <trkpt lat="45.86185" lon="3.30124">
        <ele>310.8</ele>
        <time>2024-04-14T11:39:57Z</time>
      </trkpt>
      <trkpt lat="45.8619" lon="3.30126">
        <ele>310.8</ele>
        <time>2024-04-14T11:39:58Z</time>
      </trkpt>
      <trkpt lat="45.86195" lon="3.30128">
        <ele>311</ele>
        <time>2024-04-14T11:39:59Z</time>
      </trkpt>
      <trkpt lat="45.862" lon="3.30131">
        <ele>311</ele>
        <time>2024-04-14T11:40:00Z</time>
      </trkpt>
      <trkpt lat="45.86205" lon="3.30134">
        <ele>311.2</ele>
        <time>2024-04-14T11:40:01Z</time>
      </trkpt>
      <trkpt lat="45.86209" lon="3.30136">
        <ele>311.2</ele>
        <time>2024-04-14T11:40:02Z</time>
      </trkpt>
      <trkpt lat="45.86214" lon="3.30139">
        <ele>311.2</ele>
        <time>2024-04-14T11:40:03Z</time>
      </trkpt>
      <trkpt lat="45.86219" lon="3.30142">
        <ele>311.2</ele>
        <time>2024-04-14T11:40:04Z</time>
      </trkpt>
      <trkpt lat="45.86224" lon="3.30144">
        <ele>311.2</ele>
        <time>2024-04-14T11:40:05Z</time>
      </trkpt>
      <trkpt lat="45.86229" lon="3.30147">
        <ele>311.4</ele>
        <time>2024-04-14T11:40:06Z</time>
      </trkpt>
      <trkpt lat="45.86234" lon="3.3015">
        <ele>311.4</ele>
        <time>2024-04-14T11:40:07Z</time>
      </trkpt>
      <trkpt lat="45.8624" lon="3.30153">
        <ele>311.4</ele>
        <time>2024-04-14T11:40:08Z</time>
      </trkpt>
      <trkpt lat="45.86245" lon="3.30156">
        <ele>311.4</ele>
        <time>2024-04-14T11:40:09Z</time>
      </trkpt>
      <trkpt lat="45.86251" lon="3.30159">
        <ele>311.4</ele>
        <time>2024-04-14T11:40:10Z</time>
      </trkpt>
      <trkpt lat="45.86257" lon="3.30162">
        <ele>311.4</ele>
        <time>2024-04-14T11:40:11Z</time>
      </trkpt>
      <trkpt lat="45.86263" lon="3.30165">
        <ele>311.4</ele>
        <time>2024-04-14T11:40:12Z</time>
      </trkpt>
      <trkpt lat="45.86268" lon="3.30168">
        <ele>311.4</ele>
        <time>2024-04-14T11:40:13Z</time>
      </trkpt>
      <trkpt lat="45.86274" lon="3.30171">
        <ele>311.4</ele>
        <time>2024-04-14T11:40:14Z</time>
      </trkpt>
      <trkpt lat="45.86279" lon="3.30174">
        <ele>311.4</ele>
        <time>2024-04-14T11:40:15Z</time>
      </trkpt>
      <trkpt lat="45.86285" lon="3.30177">
        <ele>311.4</ele>
        <time>2024-04-14T11:40:16Z</time>
      </trkpt>
      <trkpt lat="45.8629" lon="3.3018">
        <ele>311.6</ele>
        <time>2024-04-14T11:40:17Z</time>
      </trkpt>
      <trkpt lat="45.86297" lon="3.30183">
        <ele>311.6</ele>
        <time>2024-04-14T11:40:18Z</time>
      </trkpt>
      <trkpt lat="45.86302" lon="3.30186">
        <ele>311.6</ele>
        <time>2024-04-14T11:40:19Z</time>
      </trkpt>
      <trkpt lat="45.86308" lon="3.30188">
        <ele>311.6</ele>
        <time>2024-04-14T11:40:20Z</time>
      </trkpt>
      <trkpt lat="45.86314" lon="3.30191">
        <ele>311.8</ele>
        <time>2024-04-14T11:40:21Z</time>
      </trkpt>
      <trkpt lat="45.86319" lon="3.30193">
        <ele>311.8</ele>
        <time>2024-04-14T11:40:22Z</time>
      </trkpt>
      <trkpt lat="45.86325" lon="3.30195">
        <ele>311.8</ele>
        <time>2024-04-14T11:40:23Z</time>
      </trkpt>
      <trkpt lat="45.8633" lon="3.30197">
        <ele>311.8</ele>
        <time>2024-04-14T11:40:24Z</time>
      </trkpt>
      <trkpt lat="45.86336" lon="3.30199">
        <ele>311.8</ele>
        <time>2024-04-14T11:40:25Z</time>
      </trkpt>
      <trkpt lat="45.86342" lon="3.30202">
        <ele>311.8</ele>
        <time>2024-04-14T11:40:26Z</time>
      </trkpt>
      <trkpt lat="45.86348" lon="3.30204">
        <ele>312</ele>
        <time>2024-04-14T11:40:27Z</time>
      </trkpt>
      <trkpt lat="45.86354" lon="3.30206">
        <ele>312</ele>
        <time>2024-04-14T11:40:28Z</time>
      </trkpt>
      <trkpt lat="45.8636" lon="3.30209">
        <ele>312</ele>
        <time>2024-04-14T11:40:29Z</time>
      </trkpt>
      <trkpt lat="45.86366" lon="3.30213">
        <ele>312</ele>
        <time>2024-04-14T11:40:30Z</time>
      </trkpt>
      <trkpt lat="45.86371" lon="3.30216">
        <ele>311.8</ele>
        <time>2024-04-14T11:40:31Z</time>
      </trkpt>
      <trkpt lat="45.86377" lon="3.3022">
        <ele>311.8</ele>
        <time>2024-04-14T11:40:32Z</time>
      </trkpt>
      <trkpt lat="45.86382" lon="3.30224">
        <ele>311.8</ele>
        <time>2024-04-14T11:40:33Z</time>
      </trkpt>
      <trkpt lat="45.86387" lon="3.30228">
        <ele>311.8</ele>
        <time>2024-04-14T11:40:34Z</time>
      </trkpt>
      <trkpt lat="45.86393" lon="3.30231">
        <ele>311.8</ele>
        <time>2024-04-14T11:40:35Z</time>
      </trkpt>
      <trkpt lat="45.86398" lon="3.30233">
        <ele>312</ele>
        <time>2024-04-14T11:40:36Z</time>
      </trkpt>
      <trkpt lat="45.86398" lon="3.30233">
        <ele>312</ele>
        <time>2024-04-14T11:40:37Z</time>
      </trkpt>
      <trkpt lat="45.86409" lon="3.30237">
        <ele>312</ele>
        <time>2024-04-14T11:40:38Z</time>
      </trkpt>
      <trkpt lat="45.86415" lon="3.30239">
        <ele>312</ele>
        <time>2024-04-14T11:40:39Z</time>
      </trkpt>
      <trkpt lat="45.86421" lon="3.30242">
        <ele>312</ele>
        <time>2024-04-14T11:40:40Z</time>
      </trkpt>
      <trkpt lat="45.86426" lon="3.30244">
        <ele>312.2</ele>
        <time>2024-04-14T11:40:41Z</time>
      </trkpt>
      <trkpt lat="45.86432" lon="3.30246">
        <ele>312.2</ele>
        <time>2024-04-14T11:40:42Z</time>
      </trkpt>
      <trkpt lat="45.86439" lon="3.30248">
        <ele>312.2</ele>
        <time>2024-04-14T11:40:43Z</time>
      </trkpt>
      <trkpt lat="45.86445" lon="3.3025">
        <ele>312.2</ele>
        <time>2024-04-14T11:40:44Z</time>
      </trkpt>
      <trkpt lat="45.86452" lon="3.30252">
        <ele>312.2</ele>
        <time>2024-04-14T11:40:45Z</time>
      </trkpt>
      <trkpt lat="45.86458" lon="3.30254">
        <ele>312.2</ele>
        <time>2024-04-14T11:40:46Z</time>
      </trkpt>
      <trkpt lat="45.86465" lon="3.30255">
        <ele>312.2</ele>
        <time>2024-04-14T11:40:47Z</time>
      </trkpt>
      <trkpt lat="45.8647" lon="3.30257">
        <ele>312.2</ele>
        <time>2024-04-14T11:40:48Z</time>
      </trkpt>
      <trkpt lat="45.86477" lon="3.30259">
        <ele>312.2</ele>
        <time>2024-04-14T11:40:49Z</time>
      </trkpt>
      <trkpt lat="45.86483" lon="3.3026">
        <ele>312.2</ele>
        <time>2024-04-14T11:40:50Z</time>
      </trkpt>
      <trkpt lat="45.8649" lon="3.30261">
        <ele>312.2</ele>
        <time>2024-04-14T11:40:51Z</time>
      </trkpt>
      <trkpt lat="45.86496" lon="3.30262">
        <ele>312.2</ele>
        <time>2024-04-14T11:40:52Z</time>
      </trkpt>
      <trkpt lat="45.86503" lon="3.30263">
        <ele>312.4</ele>
        <time>2024-04-14T11:40:53Z</time>
      </trkpt>
      <trkpt lat="45.86509" lon="3.30264">
        <ele>312.4</ele>
        <time>2024-04-14T11:40:54Z</time>
      </trkpt>
      <trkpt lat="45.86516" lon="3.30265">
        <ele>312.4</ele>
        <time>2024-04-14T11:40:55Z</time>
      </trkpt>
      <trkpt lat="45.86522" lon="3.30266">
        <ele>312.4</ele>
        <time>2024-04-14T11:40:56Z</time>
      </trkpt>
      <trkpt lat="45.86529" lon="3.30267">
        <ele>312.4</ele>
        <time>2024-04-14T11:40:57Z</time>
      </trkpt>
      <trkpt lat="45.86536" lon="3.30269">
        <ele>312.4</ele>
        <time>2024-04-14T11:40:58Z</time>
      </trkpt>
      <trkpt lat="45.86543" lon="3.3027">
        <ele>312.4</ele>
        <time>2024-04-14T11:40:59Z</time>
      </trkpt>
      <trkpt lat="45.8655" lon="3.3027">
        <ele>312.4</ele>
        <time>2024-04-14T11:41:00Z</time>
      </trkpt>
      <trkpt lat="45.86557" lon="3.30269">
        <ele>312.4</ele>
        <time>2024-04-14T11:41:01Z</time>
      </trkpt>
      <trkpt lat="45.86563" lon="3.30269">
        <ele>312.6</ele>
        <time>2024-04-14T11:41:02Z</time>
      </trkpt>
      <trkpt lat="45.8657" lon="3.30268">
        <ele>312.6</ele>
        <time>2024-04-14T11:41:03Z</time>
      </trkpt>
      <trkpt lat="45.86577" lon="3.30268">
        <ele>312.6</ele>
        <time>2024-04-14T11:41:04Z</time>
      </trkpt>
      <trkpt lat="45.86584" lon="3.30267">
        <ele>312.6</ele>
        <time>2024-04-14T11:41:05Z</time>
      </trkpt>
      <trkpt lat="45.86591" lon="3.30267">
        <ele>312.8</ele>
        <time>2024-04-14T11:41:06Z</time>
      </trkpt>
      <trkpt lat="45.86598" lon="3.30266">
        <ele>312.8</ele>
        <time>2024-04-14T11:41:07Z</time>
      </trkpt>
      <trkpt lat="45.86605" lon="3.30265">
        <ele>312.8</ele>
        <time>2024-04-14T11:41:08Z</time>
      </trkpt>
      <trkpt lat="45.86612" lon="3.30265">
        <ele>312.8</ele>
        <time>2024-04-14T11:41:09Z</time>
      </trkpt>
      <trkpt lat="45.86619" lon="3.30264">
        <ele>312.8</ele>
        <time>2024-04-14T11:41:10Z</time>
      </trkpt>
      <trkpt lat="45.86626" lon="3.30264">
        <ele>312.8</ele>
        <time>2024-04-14T11:41:11Z</time>
      </trkpt>
      <trkpt lat="45.86633" lon="3.30265">
        <ele>313</ele>
        <time>2024-04-14T11:41:12Z</time>
      </trkpt>
      <trkpt lat="45.8664" lon="3.30265">
        <ele>313</ele>
        <time>2024-04-14T11:41:13Z</time>
      </trkpt>
      <trkpt lat="45.86647" lon="3.30266">
        <ele>313</ele>
        <time>2024-04-14T11:41:14Z</time>
      </trkpt>
      <trkpt lat="45.86654" lon="3.30266">
        <ele>313</ele>
        <time>2024-04-14T11:41:15Z</time>
      </trkpt>
      <trkpt lat="45.86661" lon="3.30267">
        <ele>313</ele>
        <time>2024-04-14T11:41:16Z</time>
      </trkpt>
      <trkpt lat="45.86668" lon="3.30268">
        <ele>313</ele>
        <time>2024-04-14T11:41:17Z</time>
      </trkpt>
      <trkpt lat="45.86675" lon="3.30268">
        <ele>313</ele>
        <time>2024-04-14T11:41:18Z</time>
      </trkpt>
      <trkpt lat="45.86682" lon="3.30269">
        <ele>313</ele>
        <time>2024-04-14T11:41:19Z</time>
      </trkpt>
      <trkpt lat="45.86689" lon="3.3027">
        <ele>313</ele>
        <time>2024-04-14T11:41:20Z</time>
      </trkpt>
      <trkpt lat="45.86695" lon="3.3027">
        <ele>313.2</ele>
        <time>2024-04-14T11:41:21Z</time>
      </trkpt>
      <trkpt lat="45.86702" lon="3.30271">
        <ele>313.2</ele>
        <time>2024-04-14T11:41:22Z</time>
      </trkpt>
      <trkpt lat="45.86708" lon="3.30271">
        <ele>313.2</ele>
        <time>2024-04-14T11:41:23Z</time>
      </trkpt>
      <trkpt lat="45.86715" lon="3.30272">
        <ele>313.2</ele>
        <time>2024-04-14T11:41:24Z</time>
      </trkpt>
      <trkpt lat="45.86722" lon="3.30272">
        <ele>313.2</ele>
        <time>2024-04-14T11:41:25Z</time>
      </trkpt>
      <trkpt lat="45.86728" lon="3.30273">
        <ele>313.2</ele>
        <time>2024-04-14T11:41:26Z</time>
      </trkpt>
      <trkpt lat="45.86735" lon="3.30274">
        <ele>313.2</ele>
        <time>2024-04-14T11:41:27Z</time>
      </trkpt>
      <trkpt lat="45.86741" lon="3.30274">
        <ele>313.2</ele>
        <time>2024-04-14T11:41:28Z</time>
      </trkpt>
      <trkpt lat="45.86748" lon="3.30275">
        <ele>313.4</ele>
        <time>2024-04-14T11:41:29Z</time>
      </trkpt>
      <trkpt lat="45.86754" lon="3.30275">
        <ele>313.4</ele>
        <time>2024-04-14T11:41:30Z</time>
      </trkpt>
      <trkpt lat="45.86761" lon="3.30276">
        <ele>313.4</ele>
        <time>2024-04-14T11:41:31Z</time>
      </trkpt>
      <trkpt lat="45.86768" lon="3.30277">
        <ele>313.4</ele>
        <time>2024-04-14T11:41:32Z</time>
      </trkpt>
      <trkpt lat="45.86775" lon="3.30277">
        <ele>313.4</ele>
        <time>2024-04-14T11:41:33Z</time>
      </trkpt>
      <trkpt lat="45.86781" lon="3.30277">
        <ele>313.4</ele>
        <time>2024-04-14T11:41:34Z</time>
      </trkpt>
      <trkpt lat="45.86788" lon="3.30278">
        <ele>313.6</ele>
        <time>2024-04-14T11:41:35Z</time>
      </trkpt>
      <trkpt lat="45.86795" lon="3.30278">
        <ele>313.6</ele>
        <time>2024-04-14T11:41:36Z</time>
      </trkpt>
      <trkpt lat="45.86802" lon="3.30279">
        <ele>313.6</ele>
        <time>2024-04-14T11:41:37Z</time>
      </trkpt>
      <trkpt lat="45.86809" lon="3.30278">
        <ele>313.6</ele>
        <time>2024-04-14T11:41:38Z</time>
      </trkpt>
      <trkpt lat="45.86815" lon="3.30277">
        <ele>313.6</ele>
        <time>2024-04-14T11:41:39Z</time>
      </trkpt>
      <trkpt lat="45.86822" lon="3.30276">
        <ele>313.6</ele>
        <time>2024-04-14T11:41:40Z</time>
      </trkpt>
      <trkpt lat="45.86829" lon="3.30275">
        <ele>313.6</ele>
        <time>2024-04-14T11:41:41Z</time>
      </trkpt>
      <trkpt lat="45.86836" lon="3.30274">
        <ele>313.6</ele>
        <time>2024-04-14T11:41:42Z</time>
      </trkpt>
      <trkpt lat="45.86842" lon="3.30273">
        <ele>313.6</ele>
        <time>2024-04-14T11:41:43Z</time>
      </trkpt>
      <trkpt lat="45.86848" lon="3.30273">
        <ele>313.6</ele>
        <time>2024-04-14T11:41:44Z</time>
      </trkpt>
      <trkpt lat="45.86854" lon="3.30272">
        <ele>313.6</ele>
        <time>2024-04-14T11:41:45Z</time>
      </trkpt>
      <trkpt lat="45.8686" lon="3.30271">
        <ele>313.8</ele>
        <time>2024-04-14T11:41:46Z</time>
      </trkpt>
      <trkpt lat="45.86867" lon="3.3027">
        <ele>313.8</ele>
        <time>2024-04-14T11:41:47Z</time>
      </trkpt>
      <trkpt lat="45.86874" lon="3.30269">
        <ele>313.8</ele>
        <time>2024-04-14T11:41:48Z</time>
      </trkpt>
      <trkpt lat="45.8688" lon="3.30269">
        <ele>313.8</ele>
        <time>2024-04-14T11:41:49Z</time>
      </trkpt>
      <trkpt lat="45.86887" lon="3.30268">
        <ele>313.8</ele>
        <time>2024-04-14T11:41:50Z</time>
      </trkpt>
      <trkpt lat="45.86894" lon="3.30267">
        <ele>313.8</ele>
        <time>2024-04-14T11:41:51Z</time>
      </trkpt>
      <trkpt lat="45.86901" lon="3.30266">
        <ele>314</ele>
        <time>2024-04-14T11:41:52Z</time>
      </trkpt>
      <trkpt lat="45.86907" lon="3.30265">
        <ele>314</ele>
        <time>2024-04-14T11:41:53Z</time>
      </trkpt>
      <trkpt lat="45.86914" lon="3.30264">
        <ele>314</ele>
        <time>2024-04-14T11:41:54Z</time>
      </trkpt>
      <trkpt lat="45.86921" lon="3.30263">
        <ele>314</ele>
        <time>2024-04-14T11:41:55Z</time>
      </trkpt>
      <trkpt lat="45.86928" lon="3.30262">
        <ele>314</ele>
        <time>2024-04-14T11:41:56Z</time>
      </trkpt>
      <trkpt lat="45.86935" lon="3.30261">
        <ele>314</ele>
        <time>2024-04-14T11:41:57Z</time>
      </trkpt>
      <trkpt lat="45.86941" lon="3.30261">
        <ele>314</ele>
        <time>2024-04-14T11:41:58Z</time>
      </trkpt>
      <trkpt lat="45.86948" lon="3.3026">
        <ele>314</ele>
        <time>2024-04-14T11:41:59Z</time>
      </trkpt>
      <trkpt lat="45.86954" lon="3.30259">
        <ele>314</ele>
        <time>2024-04-14T11:42:00Z</time>
      </trkpt>
      <trkpt lat="45.86961" lon="3.30258">
        <ele>314</ele>
        <time>2024-04-14T11:42:01Z</time>
      </trkpt>
      <trkpt lat="45.86968" lon="3.30257">
        <ele>314</ele>
        <time>2024-04-14T11:42:02Z</time>
      </trkpt>
      <trkpt lat="45.86975" lon="3.30256">
        <ele>314</ele>
        <time>2024-04-14T11:42:03Z</time>
      </trkpt>
      <trkpt lat="45.86982" lon="3.30255">
        <ele>314</ele>
        <time>2024-04-14T11:42:04Z</time>
      </trkpt>
      <trkpt lat="45.86989" lon="3.30254">
        <ele>314</ele>
        <time>2024-04-14T11:42:05Z</time>
      </trkpt>
      <trkpt lat="45.86996" lon="3.30253">
        <ele>314</ele>
        <time>2024-04-14T11:42:06Z</time>
      </trkpt>
      <trkpt lat="45.87004" lon="3.30254">
        <ele>314</ele>
        <time>2024-04-14T11:42:07Z</time>
      </trkpt>
      <trkpt lat="45.87011" lon="3.30257">
        <ele>314</ele>
        <time>2024-04-14T11:42:08Z</time>
      </trkpt>
      <trkpt lat="45.87018" lon="3.30259">
        <ele>314</ele>
        <time>2024-04-14T11:42:09Z</time>
      </trkpt>
      <trkpt lat="45.87025" lon="3.30262">
        <ele>314</ele>
        <time>2024-04-14T11:42:10Z</time>
      </trkpt>
      <trkpt lat="45.87031" lon="3.30264">
        <ele>314</ele>
        <time>2024-04-14T11:42:11Z</time>
      </trkpt>
      <trkpt lat="45.87038" lon="3.30267">
        <ele>314</ele>
        <time>2024-04-14T11:42:12Z</time>
      </trkpt>
      <trkpt lat="45.87045" lon="3.30269">
        <ele>314</ele>
        <time>2024-04-14T11:42:13Z</time>
      </trkpt>
      <trkpt lat="45.87051" lon="3.30273">
        <ele>314.2</ele>
        <time>2024-04-14T11:42:14Z</time>
      </trkpt>
      <trkpt lat="45.87056" lon="3.30278">
        <ele>314.2</ele>
        <time>2024-04-14T11:42:15Z</time>
      </trkpt>
      <trkpt lat="45.87062" lon="3.30284">
        <ele>314.2</ele>
        <time>2024-04-14T11:42:16Z</time>
      </trkpt>
      <trkpt lat="45.87068" lon="3.30289">
        <ele>314.2</ele>
        <time>2024-04-14T11:42:17Z</time>
      </trkpt>
      <trkpt lat="45.87073" lon="3.30294">
        <ele>314.2</ele>
        <time>2024-04-14T11:42:18Z</time>
      </trkpt>
      <trkpt lat="45.87078" lon="3.30299">
        <ele>314.2</ele>
        <time>2024-04-14T11:42:19Z</time>
      </trkpt>
      <trkpt lat="45.87083" lon="3.30304">
        <ele>314.2</ele>
        <time>2024-04-14T11:42:20Z</time>
      </trkpt>
      <trkpt lat="45.87088" lon="3.30309">
        <ele>314.2</ele>
        <time>2024-04-14T11:42:21Z</time>
      </trkpt>
      <trkpt lat="45.87094" lon="3.30314">
        <ele>314.2</ele>
        <time>2024-04-14T11:42:22Z</time>
      </trkpt>
      <trkpt lat="45.87099" lon="3.30319">
        <ele>314.2</ele>
        <time>2024-04-14T11:42:23Z</time>
      </trkpt>
      <trkpt lat="45.87104" lon="3.30324">
        <ele>314.2</ele>
        <time>2024-04-14T11:42:24Z</time>
      </trkpt>
      <trkpt lat="45.8711" lon="3.30329">
        <ele>314.2</ele>
        <time>2024-04-14T11:42:25Z</time>
      </trkpt>
      <trkpt lat="45.87115" lon="3.30334">
        <ele>314.2</ele>
        <time>2024-04-14T11:42:26Z</time>
      </trkpt>
      <trkpt lat="45.87121" lon="3.30339">
        <ele>314.2</ele>
        <time>2024-04-14T11:42:27Z</time>
      </trkpt>
      <trkpt lat="45.87126" lon="3.30344">
        <ele>314.2</ele>
        <time>2024-04-14T11:42:28Z</time>
      </trkpt>
      <trkpt lat="45.87132" lon="3.30349">
        <ele>314.2</ele>
        <time>2024-04-14T11:42:29Z</time>
      </trkpt>
      <trkpt lat="45.87137" lon="3.30355">
        <ele>314.2</ele>
        <time>2024-04-14T11:42:30Z</time>
      </trkpt>
      <trkpt lat="45.87143" lon="3.3036">
        <ele>314.2</ele>
        <time>2024-04-14T11:42:31Z</time>
      </trkpt>
      <trkpt lat="45.87149" lon="3.30365">
        <ele>314.2</ele>
        <time>2024-04-14T11:42:32Z</time>
      </trkpt>
      <trkpt lat="45.87154" lon="3.30371">
        <ele>314.2</ele>
        <time>2024-04-14T11:42:33Z</time>
      </trkpt>
      <trkpt lat="45.8716" lon="3.30377">
        <ele>314.2</ele>
        <time>2024-04-14T11:42:34Z</time>
      </trkpt>
      <trkpt lat="45.87165" lon="3.30383">
        <ele>314.2</ele>
        <time>2024-04-14T11:42:35Z</time>
      </trkpt>
      <trkpt lat="45.87171" lon="3.30389">
        <ele>314.2</ele>
        <time>2024-04-14T11:42:36Z</time>
      </trkpt>
      <trkpt lat="45.87176" lon="3.30395">
        <ele>314.2</ele>
        <time>2024-04-14T11:42:37Z</time>
      </trkpt>
      <trkpt lat="45.87182" lon="3.30401">
        <ele>314.4</ele>
        <time>2024-04-14T11:42:38Z</time>
      </trkpt>
      <trkpt lat="45.87187" lon="3.30407">
        <ele>314.4</ele>
        <time>2024-04-14T11:42:39Z</time>
      </trkpt>
      <trkpt lat="45.87193" lon="3.30413">
        <ele>314.4</ele>
        <time>2024-04-14T11:42:40Z</time>
      </trkpt>
      <trkpt lat="45.87198" lon="3.30419">
        <ele>314.4</ele>
        <time>2024-04-14T11:42:41Z</time>
      </trkpt>
      <trkpt lat="45.87203" lon="3.30425">
        <ele>314.4</ele>
        <time>2024-04-14T11:42:42Z</time>
      </trkpt>
      <trkpt lat="45.87209" lon="3.30431">
        <ele>314.4</ele>
        <time>2024-04-14T11:42:43Z</time>
      </trkpt>
      <trkpt lat="45.87214" lon="3.30437">
        <ele>314.4</ele>
        <time>2024-04-14T11:42:44Z</time>
      </trkpt>
      <trkpt lat="45.8722" lon="3.30443">
        <ele>314.4</ele>
        <time>2024-04-14T11:42:45Z</time>
      </trkpt>
      <trkpt lat="45.87225" lon="3.30449">
        <ele>314.4</ele>
        <time>2024-04-14T11:42:46Z</time>
      </trkpt>
      <trkpt lat="45.87231" lon="3.30455">
        <ele>314.4</ele>
        <time>2024-04-14T11:42:47Z</time>
      </trkpt>
      <trkpt lat="45.87236" lon="3.30462">
        <ele>314.4</ele>
        <time>2024-04-14T11:42:48Z</time>
      </trkpt>
      <trkpt lat="45.87242" lon="3.30468">
        <ele>314.4</ele>
        <time>2024-04-14T11:42:49Z</time>
      </trkpt>
      <trkpt lat="45.87247" lon="3.30474">
        <ele>314.4</ele>
        <time>2024-04-14T11:42:50Z</time>
      </trkpt>
      <trkpt lat="45.87253" lon="3.3048">
        <ele>314.4</ele>
        <time>2024-04-14T11:42:51Z</time>
      </trkpt>
      <trkpt lat="45.87259" lon="3.30486">
        <ele>314.4</ele>
        <time>2024-04-14T11:42:52Z</time>
      </trkpt>
      <trkpt lat="45.87264" lon="3.30493">
        <ele>314.4</ele>
        <time>2024-04-14T11:42:53Z</time>
      </trkpt>
      <trkpt lat="45.8727" lon="3.30499">
        <ele>314.4</ele>
        <time>2024-04-14T11:42:54Z</time>
      </trkpt>
      <trkpt lat="45.87276" lon="3.30505">
        <ele>314.4</ele>
        <time>2024-04-14T11:42:55Z</time>
      </trkpt>
      <trkpt lat="45.87281" lon="3.30511">
        <ele>314.4</ele>
        <time>2024-04-14T11:42:56Z</time>
      </trkpt>
      <trkpt lat="45.87287" lon="3.30517">
        <ele>314.4</ele>
        <time>2024-04-14T11:42:57Z</time>
      </trkpt>
      <trkpt lat="45.87292" lon="3.30524">
        <ele>314.4</ele>
        <time>2024-04-14T11:42:58Z</time>
      </trkpt>
      <trkpt lat="45.87298" lon="3.3053">
        <ele>314.4</ele>
        <time>2024-04-14T11:42:59Z</time>
      </trkpt>
      <trkpt lat="45.87304" lon="3.30536">
        <ele>314.4</ele>
        <time>2024-04-14T11:43:00Z</time>
      </trkpt>
      <trkpt lat="45.87309" lon="3.30542">
        <ele>314.4</ele>
        <time>2024-04-14T11:43:01Z</time>
      </trkpt>
      <trkpt lat="45.87315" lon="3.30549">
        <ele>314.4</ele>
        <time>2024-04-14T11:43:02Z</time>
      </trkpt>
      <trkpt lat="45.8732" lon="3.30556">
        <ele>314.6</ele>
        <time>2024-04-14T11:43:03Z</time>
      </trkpt>
      <trkpt lat="45.87325" lon="3.30563">
        <ele>314.4</ele>
        <time>2024-04-14T11:43:04Z</time>
      </trkpt>
      <trkpt lat="45.8733" lon="3.3057">
        <ele>314.4</ele>
        <time>2024-04-14T11:43:05Z</time>
      </trkpt>
      <trkpt lat="45.87335" lon="3.30577">
        <ele>314.4</ele>
        <time>2024-04-14T11:43:06Z</time>
      </trkpt>
      <trkpt lat="45.8734" lon="3.30584">
        <ele>314.4</ele>
        <time>2024-04-14T11:43:07Z</time>
      </trkpt>
      <trkpt lat="45.87345" lon="3.30591">
        <ele>314.6</ele>
        <time>2024-04-14T11:43:08Z</time>
      </trkpt>
      <trkpt lat="45.8735" lon="3.30598">
        <ele>314.4</ele>
        <time>2024-04-14T11:43:09Z</time>
      </trkpt>
      <trkpt lat="45.87355" lon="3.30604">
        <ele>314.6</ele>
        <time>2024-04-14T11:43:10Z</time>
      </trkpt>
      <trkpt lat="45.8736" lon="3.30611">
        <ele>314.4</ele>
        <time>2024-04-14T11:43:11Z</time>
      </trkpt>
      <trkpt lat="45.87365" lon="3.30618">
        <ele>314.6</ele>
        <time>2024-04-14T11:43:12Z</time>
      </trkpt>
      <trkpt lat="45.8737" lon="3.30625">
        <ele>314.6</ele>
        <time>2024-04-14T11:43:13Z</time>
      </trkpt>
      <trkpt lat="45.87375" lon="3.30632">
        <ele>314.6</ele>
        <time>2024-04-14T11:43:14Z</time>
      </trkpt>
      <trkpt lat="45.8738" lon="3.30639">
        <ele>314.6</ele>
        <time>2024-04-14T11:43:15Z</time>
      </trkpt>
      <trkpt lat="45.87385" lon="3.30646">
        <ele>314.6</ele>
        <time>2024-04-14T11:43:16Z</time>
      </trkpt>
      <trkpt lat="45.8739" lon="3.30652">
        <ele>314.6</ele>
        <time>2024-04-14T11:43:17Z</time>
      </trkpt>
      <trkpt lat="45.87395" lon="3.30659">
        <ele>314.6</ele>
        <time>2024-04-14T11:43:18Z</time>
      </trkpt>
      <trkpt lat="45.874" lon="3.30666">
        <ele>314.6</ele>
        <time>2024-04-14T11:43:19Z</time>
      </trkpt>
      <trkpt lat="45.87405" lon="3.30673">
        <ele>314.6</ele>
        <time>2024-04-14T11:43:20Z</time>
      </trkpt>
      <trkpt lat="45.87411" lon="3.30678">
        <ele>314.6</ele>
        <time>2024-04-14T11:43:21Z</time>
      </trkpt>
      <trkpt lat="45.87416" lon="3.30684">
        <ele>314.6</ele>
        <time>2024-04-14T11:43:22Z</time>
      </trkpt>
      <trkpt lat="45.87422" lon="3.3069">
        <ele>314.6</ele>
        <time>2024-04-14T11:43:23Z</time>
      </trkpt>
      <trkpt lat="45.87428" lon="3.30696">
        <ele>314.6</ele>
        <time>2024-04-14T11:43:24Z</time>
      </trkpt>
      <trkpt lat="45.87434" lon="3.30701">
        <ele>314.6</ele>
        <time>2024-04-14T11:43:25Z</time>
      </trkpt>
      <trkpt lat="45.87439" lon="3.30707">
        <ele>314.6</ele>
        <time>2024-04-14T11:43:26Z</time>
      </trkpt>
      <trkpt lat="45.87445" lon="3.30713">
        <ele>314.6</ele>
        <time>2024-04-14T11:43:27Z</time>
      </trkpt>
      <trkpt lat="45.87451" lon="3.30719">
        <ele>314.6</ele>
        <time>2024-04-14T11:43:28Z</time>
      </trkpt>
      <trkpt lat="45.87457" lon="3.30724">
        <ele>314.6</ele>
        <time>2024-04-14T11:43:29Z</time>
      </trkpt>
      <trkpt lat="45.87462" lon="3.3073">
        <ele>314.6</ele>
        <time>2024-04-14T11:43:30Z</time>
      </trkpt>
      <trkpt lat="45.87468" lon="3.30736">
        <ele>314.6</ele>
        <time>2024-04-14T11:43:31Z</time>
      </trkpt>
      <trkpt lat="45.87474" lon="3.30741">
        <ele>314.6</ele>
        <time>2024-04-14T11:43:32Z</time>
      </trkpt>
      <trkpt lat="45.8748" lon="3.30746">
        <ele>314.6</ele>
        <time>2024-04-14T11:43:33Z</time>
      </trkpt>
      <trkpt lat="45.87486" lon="3.30752">
        <ele>314.6</ele>
        <time>2024-04-14T11:43:34Z</time>
      </trkpt>
      <trkpt lat="45.87492" lon="3.30757">
        <ele>314.6</ele>
        <time>2024-04-14T11:43:35Z</time>
      </trkpt>
      <trkpt lat="45.87498" lon="3.30762">
        <ele>314.4</ele>
        <time>2024-04-14T11:43:36Z</time>
      </trkpt>
      <trkpt lat="45.87504" lon="3.30767">
        <ele>314.4</ele>
        <time>2024-04-14T11:43:37Z</time>
      </trkpt>
      <trkpt lat="45.8751" lon="3.30772">
        <ele>314.4</ele>
        <time>2024-04-14T11:43:38Z</time>
      </trkpt>
      <trkpt lat="45.87516" lon="3.30777">
        <ele>314.4</ele>
        <time>2024-04-14T11:43:39Z</time>
      </trkpt>
      <trkpt lat="45.87521" lon="3.30784">
        <ele>314.4</ele>
        <time>2024-04-14T11:43:40Z</time>
      </trkpt>
      <trkpt lat="45.87526" lon="3.30791">
        <ele>314.4</ele>
        <time>2024-04-14T11:43:41Z</time>
      </trkpt>
      <trkpt lat="45.87532" lon="3.30797">
        <ele>314.4</ele>
        <time>2024-04-14T11:43:42Z</time>
      </trkpt>
      <trkpt lat="45.87537" lon="3.30803">
        <ele>314.4</ele>
        <time>2024-04-14T11:43:43Z</time>
      </trkpt>
      <trkpt lat="45.87542" lon="3.3081">
        <ele>314.4</ele>
        <time>2024-04-14T11:43:44Z</time>
      </trkpt>
      <trkpt lat="45.87547" lon="3.30816">
        <ele>314.4</ele>
        <time>2024-04-14T11:43:45Z</time>
      </trkpt>
      <trkpt lat="45.87552" lon="3.30822">
        <ele>314.4</ele>
        <time>2024-04-14T11:43:46Z</time>
      </trkpt>
      <trkpt lat="45.87557" lon="3.30829">
        <ele>314.4</ele>
        <time>2024-04-14T11:43:47Z</time>
      </trkpt>
      <trkpt lat="45.87562" lon="3.30835">
        <ele>314.4</ele>
        <time>2024-04-14T11:43:48Z</time>
      </trkpt>
      <trkpt lat="45.87568" lon="3.30842">
        <ele>314.4</ele>
        <time>2024-04-14T11:43:49Z</time>
      </trkpt>
      <trkpt lat="45.87573" lon="3.30849">
        <ele>314.4</ele>
        <time>2024-04-14T11:43:50Z</time>
      </trkpt>
      <trkpt lat="45.87579" lon="3.30856">
        <ele>314.4</ele>
        <time>2024-04-14T11:43:51Z</time>
      </trkpt>
      <trkpt lat="45.87584" lon="3.30862">
        <ele>314.4</ele>
        <time>2024-04-14T11:43:52Z</time>
      </trkpt>
      <trkpt lat="45.87589" lon="3.30869">
        <ele>314.4</ele>
        <time>2024-04-14T11:43:53Z</time>
      </trkpt>
      <trkpt lat="45.87594" lon="3.30876">
        <ele>314.4</ele>
        <time>2024-04-14T11:43:54Z</time>
      </trkpt>
      <trkpt lat="45.876" lon="3.30882">
        <ele>314.4</ele>
        <time>2024-04-14T11:43:55Z</time>
      </trkpt>
      <trkpt lat="45.87605" lon="3.30888">
        <ele>314.4</ele>
        <time>2024-04-14T11:43:56Z</time>
      </trkpt>
      <trkpt lat="45.8761" lon="3.30895">
        <ele>314.4</ele>
        <time>2024-04-14T11:43:57Z</time>
      </trkpt>
      <trkpt lat="45.87615" lon="3.30902">
        <ele>314.4</ele>
        <time>2024-04-14T11:43:58Z</time>
      </trkpt>
      <trkpt lat="45.87621" lon="3.30908">
        <ele>314.4</ele>
        <time>2024-04-14T11:43:59Z</time>
      </trkpt>
      <trkpt lat="45.87626" lon="3.30915">
        <ele>314.6</ele>
        <time>2024-04-14T11:44:00Z</time>
      </trkpt>
      <trkpt lat="45.87631" lon="3.30921">
        <ele>314.4</ele>
        <time>2024-04-14T11:44:01Z</time>
      </trkpt>
      <trkpt lat="45.87636" lon="3.30928">
        <ele>314.4</ele>
        <time>2024-04-14T11:44:02Z</time>
      </trkpt>
      <trkpt lat="45.87641" lon="3.30934">
        <ele>314.6</ele>
        <time>2024-04-14T11:44:03Z</time>
      </trkpt>
      <trkpt lat="45.87646" lon="3.30941">
        <ele>314.6</ele>
        <time>2024-04-14T11:44:04Z</time>
      </trkpt>
      <trkpt lat="45.87652" lon="3.30947">
        <ele>314.6</ele>
        <time>2024-04-14T11:44:05Z</time>
      </trkpt>
      <trkpt lat="45.87657" lon="3.30953">
        <ele>314.6</ele>
        <time>2024-04-14T11:44:06Z</time>
      </trkpt>
      <trkpt lat="45.87663" lon="3.30959">
        <ele>314.6</ele>
        <time>2024-04-14T11:44:07Z</time>
      </trkpt>
      <trkpt lat="45.87668" lon="3.30965">
        <ele>314.6</ele>
        <time>2024-04-14T11:44:08Z</time>
      </trkpt>
      <trkpt lat="45.87673" lon="3.30971">
        <ele>314.6</ele>
        <time>2024-04-14T11:44:09Z</time>
      </trkpt>
      <trkpt lat="45.87679" lon="3.30977">
        <ele>314.6</ele>
        <time>2024-04-14T11:44:10Z</time>
      </trkpt>
      <trkpt lat="45.87684" lon="3.30983">
        <ele>314.6</ele>
        <time>2024-04-14T11:44:11Z</time>
      </trkpt>
      <trkpt lat="45.8769" lon="3.30989">
        <ele>314.6</ele>
        <time>2024-04-14T11:44:12Z</time>
      </trkpt>
      <trkpt lat="45.87695" lon="3.30995">
        <ele>314.6</ele>
        <time>2024-04-14T11:44:13Z</time>
      </trkpt>
      <trkpt lat="45.877" lon="3.31001">
        <ele>314.6</ele>
        <time>2024-04-14T11:44:14Z</time>
      </trkpt>
      <trkpt lat="45.87706" lon="3.31007">
        <ele>314.6</ele>
        <time>2024-04-14T11:44:15Z</time>
      </trkpt>
      <trkpt lat="45.87711" lon="3.31013">
        <ele>314.6</ele>
        <time>2024-04-14T11:44:16Z</time>
      </trkpt>
      <trkpt lat="45.87717" lon="3.31019">
        <ele>314.4</ele>
        <time>2024-04-14T11:44:17Z</time>
      </trkpt>
      <trkpt lat="45.87722" lon="3.31025">
        <ele>314.4</ele>
        <time>2024-04-14T11:44:18Z</time>
      </trkpt>
      <trkpt lat="45.87727" lon="3.31031">
        <ele>314.4</ele>
        <time>2024-04-14T11:44:19Z</time>
      </trkpt>
      <trkpt lat="45.87732" lon="3.31037">
        <ele>314.4</ele>
        <time>2024-04-14T11:44:20Z</time>
      </trkpt>
      <trkpt lat="45.87738" lon="3.31043">
        <ele>314.4</ele>
        <time>2024-04-14T11:44:21Z</time>
      </trkpt>
      <trkpt lat="45.87743" lon="3.31048">
        <ele>314.4</ele>
        <time>2024-04-14T11:44:22Z</time>
      </trkpt>
      <trkpt lat="45.87748" lon="3.31054">
        <ele>314.4</ele>
        <time>2024-04-14T11:44:23Z</time>
      </trkpt>
      <trkpt lat="45.87753" lon="3.3106">
        <ele>314.4</ele>
        <time>2024-04-14T11:44:24Z</time>
      </trkpt>
      <trkpt lat="45.87758" lon="3.31066">
        <ele>314.4</ele>
        <time>2024-04-14T11:44:25Z</time>
      </trkpt>
      <trkpt lat="45.87764" lon="3.31072">
        <ele>314.2</ele>
        <time>2024-04-14T11:44:26Z</time>
      </trkpt>
      <trkpt lat="45.87769" lon="3.31078">
        <ele>314.2</ele>
        <time>2024-04-14T11:44:27Z</time>
      </trkpt>
      <trkpt lat="45.87775" lon="3.31084">
        <ele>314.2</ele>
        <time>2024-04-14T11:44:28Z</time>
      </trkpt>
      <trkpt lat="45.8778" lon="3.31089">
        <ele>314.2</ele>
        <time>2024-04-14T11:44:29Z</time>
      </trkpt>
      <trkpt lat="45.87785" lon="3.31095">
        <ele>314.2</ele>
        <time>2024-04-14T11:44:30Z</time>
      </trkpt>
      <trkpt lat="45.8779" lon="3.31101">
        <ele>314.2</ele>
        <time>2024-04-14T11:44:31Z</time>
      </trkpt>
      <trkpt lat="45.87796" lon="3.31107">
        <ele>314.2</ele>
        <time>2024-04-14T11:44:32Z</time>
      </trkpt>
      <trkpt lat="45.87801" lon="3.31113">
        <ele>314.2</ele>
        <time>2024-04-14T11:44:33Z</time>
      </trkpt>
      <trkpt lat="45.87807" lon="3.31119">
        <ele>314.2</ele>
        <time>2024-04-14T11:44:34Z</time>
      </trkpt>
      <trkpt lat="45.87812" lon="3.31125">
        <ele>314.2</ele>
        <time>2024-04-14T11:44:35Z</time>
      </trkpt>
      <trkpt lat="45.87818" lon="3.31131">
        <ele>314.2</ele>
        <time>2024-04-14T11:44:36Z</time>
      </trkpt>
      <trkpt lat="45.87823" lon="3.31137">
        <ele>314.2</ele>
        <time>2024-04-14T11:44:37Z</time>
      </trkpt>
      <trkpt lat="45.87828" lon="3.31143">
        <ele>314.2</ele>
        <time>2024-04-14T11:44:38Z</time>
      </trkpt>
      <trkpt lat="45.87834" lon="3.31149">
        <ele>314.2</ele>
        <time>2024-04-14T11:44:39Z</time>
      </trkpt>
      <trkpt lat="45.87839" lon="3.31155">
        <ele>314.2</ele>
        <time>2024-04-14T11:44:40Z</time>
      </trkpt>
      <trkpt lat="45.87844" lon="3.31161">
        <ele>314</ele>
        <time>2024-04-14T11:44:41Z</time>
      </trkpt>
      <trkpt lat="45.8785" lon="3.31166">
        <ele>314</ele>
        <time>2024-04-14T11:44:42Z</time>
      </trkpt>
      <trkpt lat="45.87856" lon="3.31171">
        <ele>314</ele>
        <time>2024-04-14T11:44:43Z</time>
      </trkpt>
      <trkpt lat="45.87863" lon="3.31176">
        <ele>314</ele>
        <time>2024-04-14T11:44:44Z</time>
      </trkpt>
      <trkpt lat="45.87869" lon="3.31181">
        <ele>314</ele>
        <time>2024-04-14T11:44:45Z</time>
      </trkpt>
      <trkpt lat="45.87875" lon="3.31185">
        <ele>314</ele>
        <time>2024-04-14T11:44:46Z</time>
      </trkpt>
      <trkpt lat="45.87881" lon="3.3119">
        <ele>314</ele>
        <time>2024-04-14T11:44:47Z</time>
      </trkpt>
      <trkpt lat="45.87887" lon="3.31195">
        <ele>313.8</ele>
        <time>2024-04-14T11:44:48Z</time>
      </trkpt>
      <trkpt lat="45.87893" lon="3.31199">
        <ele>313.8</ele>
        <time>2024-04-14T11:44:49Z</time>
      </trkpt>
      <trkpt lat="45.87899" lon="3.31204">
        <ele>313.8</ele>
        <time>2024-04-14T11:44:50Z</time>
      </trkpt>
      <trkpt lat="45.87905" lon="3.31208">
        <ele>313.8</ele>
        <time>2024-04-14T11:44:51Z</time>
      </trkpt>
      <trkpt lat="45.8791" lon="3.31213">
        <ele>313.8</ele>
        <time>2024-04-14T11:44:52Z</time>
      </trkpt>
      <trkpt lat="45.87916" lon="3.31217">
        <ele>313.8</ele>
        <time>2024-04-14T11:44:53Z</time>
      </trkpt>
      <trkpt lat="45.87922" lon="3.31222">
        <ele>313.6</ele>
        <time>2024-04-14T11:44:54Z</time>
      </trkpt>
      <trkpt lat="45.87928" lon="3.31226">
        <ele>313.6</ele>
        <time>2024-04-14T11:44:55Z</time>
      </trkpt>
      <trkpt lat="45.87934" lon="3.31231">
        <ele>313.6</ele>
        <time>2024-04-14T11:44:56Z</time>
      </trkpt>
      <trkpt lat="45.87939" lon="3.31235">
        <ele>313.6</ele>
        <time>2024-04-14T11:44:57Z</time>
      </trkpt>
      <trkpt lat="45.87946" lon="3.3124">
        <ele>313.8</ele>
        <time>2024-04-14T11:44:58Z</time>
      </trkpt>
      <trkpt lat="45.87952" lon="3.31245">
        <ele>313.6</ele>
        <time>2024-04-14T11:44:59Z</time>
      </trkpt>
      <trkpt lat="45.87958" lon="3.3125">
        <ele>313.8</ele>
        <time>2024-04-14T11:45:00Z</time>
      </trkpt>
      <trkpt lat="45.87963" lon="3.31256">
        <ele>313.8</ele>
        <time>2024-04-14T11:45:01Z</time>
      </trkpt>
      <trkpt lat="45.87969" lon="3.31262">
        <ele>313.6</ele>
        <time>2024-04-14T11:45:02Z</time>
      </trkpt>
      <trkpt lat="45.87974" lon="3.31268">
        <ele>313.6</ele>
        <time>2024-04-14T11:45:03Z</time>
      </trkpt>
      <trkpt lat="45.87979" lon="3.31275">
        <ele>313.8</ele>
        <time>2024-04-14T11:45:04Z</time>
      </trkpt>
      <trkpt lat="45.87984" lon="3.31281">
        <ele>313.6</ele>
        <time>2024-04-14T11:45:05Z</time>
      </trkpt>
      <trkpt lat="45.8799" lon="3.31287">
        <ele>313.6</ele>
        <time>2024-04-14T11:45:06Z</time>
      </trkpt>
      <trkpt lat="45.87995" lon="3.31294">
        <ele>313.6</ele>
        <time>2024-04-14T11:45:07Z</time>
      </trkpt>
      <trkpt lat="45.88" lon="3.313">
        <ele>313.6</ele>
        <time>2024-04-14T11:45:08Z</time>
      </trkpt>
      <trkpt lat="45.88005" lon="3.31306">
        <ele>313.6</ele>
        <time>2024-04-14T11:45:09Z</time>
      </trkpt>
      <trkpt lat="45.88011" lon="3.31313">
        <ele>313.6</ele>
        <time>2024-04-14T11:45:10Z</time>
      </trkpt>
      <trkpt lat="45.88016" lon="3.31319">
        <ele>313.6</ele>
        <time>2024-04-14T11:45:11Z</time>
      </trkpt>
      <trkpt lat="45.88021" lon="3.31326">
        <ele>313.6</ele>
        <time>2024-04-14T11:45:12Z</time>
      </trkpt>
      <trkpt lat="45.88027" lon="3.31332">
        <ele>313.6</ele>
        <time>2024-04-14T11:45:13Z</time>
      </trkpt>
      <trkpt lat="45.88032" lon="3.31339">
        <ele>313.6</ele>
        <time>2024-04-14T11:45:14Z</time>
      </trkpt>
      <trkpt lat="45.88037" lon="3.31345">
        <ele>313.6</ele>
        <time>2024-04-14T11:45:15Z</time>
      </trkpt>
      <trkpt lat="45.88043" lon="3.31351">
        <ele>313.4</ele>
        <time>2024-04-14T11:45:16Z</time>
      </trkpt>
      <trkpt lat="45.88049" lon="3.31355">
        <ele>313.4</ele>
        <time>2024-04-14T11:45:17Z</time>
      </trkpt>
      <trkpt lat="45.88056" lon="3.31358">
        <ele>313.4</ele>
        <time>2024-04-14T11:45:18Z</time>
      </trkpt>
      <trkpt lat="45.88062" lon="3.31362">
        <ele>313.4</ele>
        <time>2024-04-14T11:45:19Z</time>
      </trkpt>
      <trkpt lat="45.88068" lon="3.31366">
        <ele>313.4</ele>
        <time>2024-04-14T11:45:20Z</time>
      </trkpt>
      <trkpt lat="45.88074" lon="3.3137">
        <ele>313.2</ele>
        <time>2024-04-14T11:45:21Z</time>
      </trkpt>
      <trkpt lat="45.88081" lon="3.31374">
        <ele>313.2</ele>
        <time>2024-04-14T11:45:22Z</time>
      </trkpt>
      <trkpt lat="45.88087" lon="3.31377">
        <ele>313.2</ele>
        <time>2024-04-14T11:45:23Z</time>
      </trkpt>
      <trkpt lat="45.88093" lon="3.31381">
        <ele>313.2</ele>
        <time>2024-04-14T11:45:24Z</time>
      </trkpt>
      <trkpt lat="45.881" lon="3.31385">
        <ele>313.2</ele>
        <time>2024-04-14T11:45:25Z</time>
      </trkpt>
      <trkpt lat="45.88106" lon="3.31389">
        <ele>313.2</ele>
        <time>2024-04-14T11:45:26Z</time>
      </trkpt>
      <trkpt lat="45.88113" lon="3.31393">
        <ele>313.2</ele>
        <time>2024-04-14T11:45:27Z</time>
      </trkpt>
      <trkpt lat="45.88119" lon="3.31397">
        <ele>313.2</ele>
        <time>2024-04-14T11:45:28Z</time>
      </trkpt>
      <trkpt lat="45.88126" lon="3.31402">
        <ele>313.2</ele>
        <time>2024-04-14T11:45:29Z</time>
      </trkpt>
      <trkpt lat="45.88132" lon="3.31407">
        <ele>313</ele>
        <time>2024-04-14T11:45:30Z</time>
      </trkpt>
      <trkpt lat="45.88138" lon="3.31412">
        <ele>313</ele>
        <time>2024-04-14T11:45:31Z</time>
      </trkpt>
      <trkpt lat="45.88144" lon="3.31417">
        <ele>313</ele>
        <time>2024-04-14T11:45:32Z</time>
      </trkpt>
      <trkpt lat="45.88149" lon="3.31423">
        <ele>313</ele>
        <time>2024-04-14T11:45:33Z</time>
      </trkpt>
      <trkpt lat="45.88156" lon="3.31428">
        <ele>313</ele>
        <time>2024-04-14T11:45:34Z</time>
      </trkpt>
      <trkpt lat="45.88162" lon="3.31433">
        <ele>313</ele>
        <time>2024-04-14T11:45:35Z</time>
      </trkpt>
      <trkpt lat="45.88168" lon="3.31438">
        <ele>313</ele>
        <time>2024-04-14T11:45:36Z</time>
      </trkpt>
      <trkpt lat="45.88174" lon="3.31444">
        <ele>313</ele>
        <time>2024-04-14T11:45:37Z</time>
      </trkpt>
      <trkpt lat="45.8818" lon="3.31449">
        <ele>313</ele>
        <time>2024-04-14T11:45:38Z</time>
      </trkpt>
      <trkpt lat="45.88186" lon="3.31454">
        <ele>313</ele>
        <time>2024-04-14T11:45:39Z</time>
      </trkpt>
      <trkpt lat="45.88192" lon="3.3146">
        <ele>313</ele>
        <time>2024-04-14T11:45:40Z</time>
      </trkpt>
      <trkpt lat="45.88197" lon="3.31467">
        <ele>313</ele>
        <time>2024-04-14T11:45:41Z</time>
      </trkpt>
      <trkpt lat="45.88203" lon="3.31474">
        <ele>313</ele>
        <time>2024-04-14T11:45:42Z</time>
      </trkpt>
      <trkpt lat="45.88208" lon="3.31482">
        <ele>313</ele>
        <time>2024-04-14T11:45:43Z</time>
      </trkpt>
      <trkpt lat="45.88213" lon="3.31489">
        <ele>313</ele>
        <time>2024-04-14T11:45:44Z</time>
      </trkpt>
      <trkpt lat="45.88218" lon="3.31496">
        <ele>313</ele>
        <time>2024-04-14T11:45:45Z</time>
      </trkpt>
      <trkpt lat="45.88223" lon="3.31504">
        <ele>313</ele>
        <time>2024-04-14T11:45:46Z</time>
      </trkpt>
      <trkpt lat="45.88229" lon="3.31512">
        <ele>313</ele>
        <time>2024-04-14T11:45:47Z</time>
      </trkpt>
      <trkpt lat="45.88234" lon="3.31519">
        <ele>312.8</ele>
        <time>2024-04-14T11:45:48Z</time>
      </trkpt>
      <trkpt lat="45.88239" lon="3.31527">
        <ele>312.8</ele>
        <time>2024-04-14T11:45:49Z</time>
      </trkpt>
      <trkpt lat="45.88244" lon="3.31534">
        <ele>312.8</ele>
        <time>2024-04-14T11:45:50Z</time>
      </trkpt>
      <trkpt lat="45.8825" lon="3.31542">
        <ele>312.8</ele>
        <time>2024-04-14T11:45:51Z</time>
      </trkpt>
      <trkpt lat="45.88255" lon="3.31549">
        <ele>312.8</ele>
        <time>2024-04-14T11:45:52Z</time>
      </trkpt>
      <trkpt lat="45.8826" lon="3.31556">
        <ele>312.8</ele>
        <time>2024-04-14T11:45:53Z</time>
      </trkpt>
      <trkpt lat="45.88265" lon="3.31564">
        <ele>312.8</ele>
        <time>2024-04-14T11:45:54Z</time>
      </trkpt>
      <trkpt lat="45.8827" lon="3.31571">
        <ele>312.8</ele>
        <time>2024-04-14T11:45:55Z</time>
      </trkpt>
      <trkpt lat="45.88275" lon="3.31579">
        <ele>312.8</ele>
        <time>2024-04-14T11:45:56Z</time>
      </trkpt>
      <trkpt lat="45.8828" lon="3.31586">
        <ele>312.8</ele>
        <time>2024-04-14T11:45:57Z</time>
      </trkpt>
      <trkpt lat="45.88285" lon="3.31593">
        <ele>312.8</ele>
        <time>2024-04-14T11:45:58Z</time>
      </trkpt>
      <trkpt lat="45.8829" lon="3.316">
        <ele>312.8</ele>
        <time>2024-04-14T11:45:59Z</time>
      </trkpt>
      <trkpt lat="45.88295" lon="3.31607">
        <ele>312.8</ele>
        <time>2024-04-14T11:46:00Z</time>
      </trkpt>
      <trkpt lat="45.883" lon="3.31614">
        <ele>312.8</ele>
        <time>2024-04-14T11:46:01Z</time>
      </trkpt>
      <trkpt lat="45.88305" lon="3.31621">
        <ele>312.8</ele>
        <time>2024-04-14T11:46:02Z</time>
      </trkpt>
      <trkpt lat="45.8831" lon="3.31629">
        <ele>312.8</ele>
        <time>2024-04-14T11:46:03Z</time>
      </trkpt>
      <trkpt lat="45.88315" lon="3.31636">
        <ele>312.8</ele>
        <time>2024-04-14T11:46:04Z</time>
      </trkpt>
      <trkpt lat="45.8832" lon="3.31643">
        <ele>312.8</ele>
        <time>2024-04-14T11:46:05Z</time>
      </trkpt>
      <trkpt lat="45.88325" lon="3.3165">
        <ele>312.8</ele>
        <time>2024-04-14T11:46:06Z</time>
      </trkpt>
      <trkpt lat="45.8833" lon="3.31657">
        <ele>312.6</ele>
        <time>2024-04-14T11:46:07Z</time>
      </trkpt>
      <trkpt lat="45.88336" lon="3.31665">
        <ele>312.6</ele>
        <time>2024-04-14T11:46:08Z</time>
      </trkpt>
      <trkpt lat="45.88341" lon="3.31672">
        <ele>312.6</ele>
        <time>2024-04-14T11:46:09Z</time>
      </trkpt>
      <trkpt lat="45.88347" lon="3.31679">
        <ele>312.6</ele>
        <time>2024-04-14T11:46:10Z</time>
      </trkpt>
      <trkpt lat="45.88352" lon="3.31686">
        <ele>312.6</ele>
        <time>2024-04-14T11:46:11Z</time>
      </trkpt>
      <trkpt lat="45.88357" lon="3.31692">
        <ele>312.6</ele>
        <time>2024-04-14T11:46:12Z</time>
      </trkpt>
      <trkpt lat="45.88362" lon="3.31699">
        <ele>312.6</ele>
        <time>2024-04-14T11:46:13Z</time>
      </trkpt>
      <trkpt lat="45.88367" lon="3.31706">
        <ele>312.6</ele>
        <time>2024-04-14T11:46:14Z</time>
      </trkpt>
      <trkpt lat="45.88373" lon="3.31714">
        <ele>312.6</ele>
        <time>2024-04-14T11:46:15Z</time>
      </trkpt>
      <trkpt lat="45.88378" lon="3.31721">
        <ele>312.6</ele>
        <time>2024-04-14T11:46:16Z</time>
      </trkpt>
      <trkpt lat="45.88384" lon="3.31728">
        <ele>312.6</ele>
        <time>2024-04-14T11:46:17Z</time>
      </trkpt>
      <trkpt lat="45.88389" lon="3.31735">
        <ele>312.6</ele>
        <time>2024-04-14T11:46:18Z</time>
      </trkpt>
      <trkpt lat="45.88395" lon="3.31742">
        <ele>312.6</ele>
        <time>2024-04-14T11:46:19Z</time>
      </trkpt>
      <trkpt lat="45.884" lon="3.31749">
        <ele>312.6</ele>
        <time>2024-04-14T11:46:20Z</time>
      </trkpt>
      <trkpt lat="45.88406" lon="3.31757">
        <ele>312.6</ele>
        <time>2024-04-14T11:46:21Z</time>
      </trkpt>
      <trkpt lat="45.88411" lon="3.31764">
        <ele>312.6</ele>
        <time>2024-04-14T11:46:22Z</time>
      </trkpt>
      <trkpt lat="45.88416" lon="3.31771">
        <ele>312.6</ele>
        <time>2024-04-14T11:46:23Z</time>
      </trkpt>
      <trkpt lat="45.88422" lon="3.31778">
        <ele>312.4</ele>
        <time>2024-04-14T11:46:24Z</time>
      </trkpt>
      <trkpt lat="45.88427" lon="3.31785">
        <ele>312.6</ele>
        <time>2024-04-14T11:46:25Z</time>
      </trkpt>
      <trkpt lat="45.88433" lon="3.31791">
        <ele>312.6</ele>
        <time>2024-04-14T11:46:26Z</time>
      </trkpt>
      <trkpt lat="45.88438" lon="3.31798">
        <ele>312.4</ele>
        <time>2024-04-14T11:46:27Z</time>
      </trkpt>
      <trkpt lat="45.88444" lon="3.31805">
        <ele>312.4</ele>
        <time>2024-04-14T11:46:28Z</time>
      </trkpt>
      <trkpt lat="45.8845" lon="3.31812">
        <ele>312.4</ele>
        <time>2024-04-14T11:46:29Z</time>
      </trkpt>
      <trkpt lat="45.88455" lon="3.31818">
        <ele>312.4</ele>
        <time>2024-04-14T11:46:30Z</time>
      </trkpt>
      <trkpt lat="45.88461" lon="3.31825">
        <ele>312.4</ele>
        <time>2024-04-14T11:46:31Z</time>
      </trkpt>
      <trkpt lat="45.88467" lon="3.31832">
        <ele>312.4</ele>
        <time>2024-04-14T11:46:32Z</time>
      </trkpt>
      <trkpt lat="45.88473" lon="3.31839">
        <ele>312.2</ele>
        <time>2024-04-14T11:46:33Z</time>
      </trkpt>
      <trkpt lat="45.88478" lon="3.31846">
        <ele>312.2</ele>
        <time>2024-04-14T11:46:34Z</time>
      </trkpt>
      <trkpt lat="45.88484" lon="3.31853">
        <ele>312.2</ele>
        <time>2024-04-14T11:46:35Z</time>
      </trkpt>
      <trkpt lat="45.8849" lon="3.3186">
        <ele>312.2</ele>
        <time>2024-04-14T11:46:36Z</time>
      </trkpt>
      <trkpt lat="45.88495" lon="3.31867">
        <ele>312.2</ele>
        <time>2024-04-14T11:46:37Z</time>
      </trkpt>
      <trkpt lat="45.88501" lon="3.31873">
        <ele>312.2</ele>
        <time>2024-04-14T11:46:38Z</time>
      </trkpt>
      <trkpt lat="45.88507" lon="3.3188">
        <ele>312.2</ele>
        <time>2024-04-14T11:46:39Z</time>
      </trkpt>
      <trkpt lat="45.88512" lon="3.31887">
        <ele>312.2</ele>
        <time>2024-04-14T11:46:40Z</time>
      </trkpt>
      <trkpt lat="45.88517" lon="3.31893">
        <ele>312.2</ele>
        <time>2024-04-14T11:46:41Z</time>
      </trkpt>
      <trkpt lat="45.88523" lon="3.319">
        <ele>312</ele>
        <time>2024-04-14T11:46:42Z</time>
      </trkpt>
      <trkpt lat="45.88529" lon="3.31907">
        <ele>312</ele>
        <time>2024-04-14T11:46:43Z</time>
      </trkpt>
      <trkpt lat="45.88535" lon="3.31914">
        <ele>312</ele>
        <time>2024-04-14T11:46:44Z</time>
      </trkpt>
      <trkpt lat="45.8854" lon="3.31921">
        <ele>312</ele>
        <time>2024-04-14T11:46:45Z</time>
      </trkpt>
      <trkpt lat="45.88546" lon="3.31928">
        <ele>312</ele>
        <time>2024-04-14T11:46:46Z</time>
      </trkpt>
      <trkpt lat="45.88552" lon="3.31935">
        <ele>312</ele>
        <time>2024-04-14T11:46:47Z</time>
      </trkpt>
      <trkpt lat="45.88558" lon="3.31942">
        <ele>312</ele>
        <time>2024-04-14T11:46:48Z</time>
      </trkpt>
      <trkpt lat="45.88564" lon="3.31949">
        <ele>312</ele>
        <time>2024-04-14T11:46:49Z</time>
      </trkpt>
      <trkpt lat="45.88569" lon="3.31956">
        <ele>312</ele>
        <time>2024-04-14T11:46:50Z</time>
      </trkpt>
      <trkpt lat="45.88575" lon="3.31963">
        <ele>311.8</ele>
        <time>2024-04-14T11:46:51Z</time>
      </trkpt>
      <trkpt lat="45.8858" lon="3.31969">
        <ele>311.8</ele>
        <time>2024-04-14T11:46:52Z</time>
      </trkpt>
      <trkpt lat="45.88586" lon="3.31976">
        <ele>311.8</ele>
        <time>2024-04-14T11:46:53Z</time>
      </trkpt>
      <trkpt lat="45.88592" lon="3.31981">
        <ele>311.8</ele>
        <time>2024-04-14T11:46:54Z</time>
      </trkpt>
      <trkpt lat="45.88598" lon="3.31986">
        <ele>311.8</ele>
        <time>2024-04-14T11:46:55Z</time>
      </trkpt>
      <trkpt lat="45.88604" lon="3.31992">
        <ele>311.8</ele>
        <time>2024-04-14T11:46:56Z</time>
      </trkpt>
      <trkpt lat="45.8861" lon="3.31997">
        <ele>311.8</ele>
        <time>2024-04-14T11:46:57Z</time>
      </trkpt>
      <trkpt lat="45.88616" lon="3.32002">
        <ele>311.8</ele>
        <time>2024-04-14T11:46:58Z</time>
      </trkpt>
      <trkpt lat="45.88622" lon="3.32007">
        <ele>311.8</ele>
        <time>2024-04-14T11:46:59Z</time>
      </trkpt>
      <trkpt lat="45.88628" lon="3.32013">
        <ele>311.8</ele>
        <time>2024-04-14T11:47:00Z</time>
      </trkpt>
      <trkpt lat="45.88634" lon="3.32018">
        <ele>311.8</ele>
        <time>2024-04-14T11:47:01Z</time>
      </trkpt>
      <trkpt lat="45.8864" lon="3.32023">
        <ele>311.8</ele>
        <time>2024-04-14T11:47:02Z</time>
      </trkpt>
      <trkpt lat="45.88646" lon="3.32029">
        <ele>311.8</ele>
        <time>2024-04-14T11:47:03Z</time>
      </trkpt>
      <trkpt lat="45.88653" lon="3.32034">
        <ele>311.8</ele>
        <time>2024-04-14T11:47:04Z</time>
      </trkpt>
      <trkpt lat="45.88659" lon="3.3204">
        <ele>311.8</ele>
        <time>2024-04-14T11:47:05Z</time>
      </trkpt>
      <trkpt lat="45.88665" lon="3.32045">
        <ele>311.8</ele>
        <time>2024-04-14T11:47:06Z</time>
      </trkpt>
      <trkpt lat="45.88671" lon="3.3205">
        <ele>311.6</ele>
        <time>2024-04-14T11:47:07Z</time>
      </trkpt>
      <trkpt lat="45.88677" lon="3.32056">
        <ele>311.6</ele>
        <time>2024-04-14T11:47:08Z</time>
      </trkpt>
      <trkpt lat="45.88683" lon="3.32061">
        <ele>311.6</ele>
        <time>2024-04-14T11:47:09Z</time>
      </trkpt>
      <trkpt lat="45.88689" lon="3.32066">
        <ele>311.6</ele>
        <time>2024-04-14T11:47:10Z</time>
      </trkpt>
      <trkpt lat="45.88696" lon="3.32072">
        <ele>311.6</ele>
        <time>2024-04-14T11:47:11Z</time>
      </trkpt>
      <trkpt lat="45.88702" lon="3.32077">
        <ele>311.6</ele>
        <time>2024-04-14T11:47:12Z</time>
      </trkpt>
      <trkpt lat="45.88708" lon="3.32082">
        <ele>311.6</ele>
        <time>2024-04-14T11:47:13Z</time>
      </trkpt>
      <trkpt lat="45.88714" lon="3.32088">
        <ele>311.6</ele>
        <time>2024-04-14T11:47:14Z</time>
      </trkpt>
      <trkpt lat="45.8872" lon="3.32093">
        <ele>311.4</ele>
        <time>2024-04-14T11:47:15Z</time>
      </trkpt>
      <trkpt lat="45.88725" lon="3.32098">
        <ele>311.4</ele>
        <time>2024-04-14T11:47:16Z</time>
      </trkpt>
      <trkpt lat="45.88731" lon="3.32103">
        <ele>311.4</ele>
        <time>2024-04-14T11:47:17Z</time>
      </trkpt>
      <trkpt lat="45.88737" lon="3.32108">
        <ele>311.4</ele>
        <time>2024-04-14T11:47:18Z</time>
      </trkpt>
      <trkpt lat="45.88743" lon="3.32113">
        <ele>311.2</ele>
        <time>2024-04-14T11:47:19Z</time>
      </trkpt>
      <trkpt lat="45.88749" lon="3.32118">
        <ele>311.2</ele>
        <time>2024-04-14T11:47:20Z</time>
      </trkpt>
      <trkpt lat="45.88754" lon="3.32123">
        <ele>311.2</ele>
        <time>2024-04-14T11:47:21Z</time>
      </trkpt>
      <trkpt lat="45.8876" lon="3.32128">
        <ele>311.2</ele>
        <time>2024-04-14T11:47:22Z</time>
      </trkpt>
      <trkpt lat="45.88766" lon="3.32133">
        <ele>311.2</ele>
        <time>2024-04-14T11:47:23Z</time>
      </trkpt>
      <trkpt lat="45.88772" lon="3.32138">
        <ele>311.2</ele>
        <time>2024-04-14T11:47:24Z</time>
      </trkpt>
      <trkpt lat="45.88777" lon="3.32144">
        <ele>311</ele>
        <time>2024-04-14T11:47:25Z</time>
      </trkpt>
      <trkpt lat="45.88783" lon="3.3215">
        <ele>311</ele>
        <time>2024-04-14T11:47:26Z</time>
      </trkpt>
      <trkpt lat="45.88788" lon="3.32155">
        <ele>311</ele>
        <time>2024-04-14T11:47:27Z</time>
      </trkpt>
      <trkpt lat="45.88794" lon="3.32161">
        <ele>311</ele>
        <time>2024-04-14T11:47:28Z</time>
      </trkpt>
      <trkpt lat="45.88799" lon="3.32167">
        <ele>311</ele>
        <time>2024-04-14T11:47:29Z</time>
      </trkpt>
      <trkpt lat="45.88805" lon="3.32173">
        <ele>311</ele>
        <time>2024-04-14T11:47:30Z</time>
      </trkpt>
      <trkpt lat="45.8881" lon="3.32179">
        <ele>310.8</ele>
        <time>2024-04-14T11:47:31Z</time>
      </trkpt>
      <trkpt lat="45.88816" lon="3.32185">
        <ele>310.8</ele>
        <time>2024-04-14T11:47:32Z</time>
      </trkpt>
      <trkpt lat="45.88821" lon="3.3219">
        <ele>310.8</ele>
        <time>2024-04-14T11:47:33Z</time>
      </trkpt>
      <trkpt lat="45.88827" lon="3.32196">
        <ele>310.8</ele>
        <time>2024-04-14T11:47:34Z</time>
      </trkpt>
      <trkpt lat="45.88832" lon="3.32202">
        <ele>310.8</ele>
        <time>2024-04-14T11:47:35Z</time>
      </trkpt>
      <trkpt lat="45.88838" lon="3.32208">
        <ele>310.8</ele>
        <time>2024-04-14T11:47:36Z</time>
      </trkpt>
      <trkpt lat="45.88843" lon="3.32214">
        <ele>310.6</ele>
        <time>2024-04-14T11:47:37Z</time>
      </trkpt>
      <trkpt lat="45.88849" lon="3.3222">
        <ele>310.6</ele>
        <time>2024-04-14T11:47:38Z</time>
      </trkpt>
      <trkpt lat="45.88855" lon="3.32226">
        <ele>310.6</ele>
        <time>2024-04-14T11:47:39Z</time>
      </trkpt>
      <trkpt lat="45.88861" lon="3.32232">
        <ele>310.6</ele>
        <time>2024-04-14T11:47:40Z</time>
      </trkpt>
      <trkpt lat="45.88866" lon="3.32238">
        <ele>310.6</ele>
        <time>2024-04-14T11:47:41Z</time>
      </trkpt>
      <trkpt lat="45.88872" lon="3.32245">
        <ele>310.6</ele>
        <time>2024-04-14T11:47:42Z</time>
      </trkpt>
      <trkpt lat="45.88878" lon="3.32251">
        <ele>310.6</ele>
        <time>2024-04-14T11:47:43Z</time>
      </trkpt>
      <trkpt lat="45.88883" lon="3.32255">
        <ele>310.6</ele>
        <time>2024-04-14T11:47:44Z</time>
      </trkpt>
      <trkpt lat="45.88889" lon="3.32259">
        <ele>310.4</ele>
        <time>2024-04-14T11:47:45Z</time>
      </trkpt>
      <trkpt lat="45.88896" lon="3.32263">
        <ele>310.4</ele>
        <time>2024-04-14T11:47:46Z</time>
      </trkpt>
      <trkpt lat="45.88902" lon="3.32268">
        <ele>310.4</ele>
        <time>2024-04-14T11:47:47Z</time>
      </trkpt>
      <trkpt lat="45.88908" lon="3.32273">
        <ele>310.4</ele>
        <time>2024-04-14T11:47:48Z</time>
      </trkpt>
      <trkpt lat="45.88915" lon="3.32277">
        <ele>310.4</ele>
        <time>2024-04-14T11:47:49Z</time>
      </trkpt>
      <trkpt lat="45.88921" lon="3.32282">
        <ele>310.4</ele>
        <time>2024-04-14T11:47:50Z</time>
      </trkpt>
      <trkpt lat="45.88928" lon="3.32286">
        <ele>310.4</ele>
        <time>2024-04-14T11:47:51Z</time>
      </trkpt>
      <trkpt lat="45.88934" lon="3.32291">
        <ele>310.4</ele>
        <time>2024-04-14T11:47:52Z</time>
      </trkpt>
      <trkpt lat="45.8894" lon="3.32296">
        <ele>310.4</ele>
        <time>2024-04-14T11:47:53Z</time>
      </trkpt>
      <trkpt lat="45.88947" lon="3.323">
        <ele>310.2</ele>
        <time>2024-04-14T11:47:54Z</time>
      </trkpt>
      <trkpt lat="45.88953" lon="3.32305">
        <ele>310.2</ele>
        <time>2024-04-14T11:47:55Z</time>
      </trkpt>
      <trkpt lat="45.8896" lon="3.3231">
        <ele>310.2</ele>
        <time>2024-04-14T11:47:56Z</time>
      </trkpt>
      <trkpt lat="45.88966" lon="3.32314">
        <ele>310.2</ele>
        <time>2024-04-14T11:47:57Z</time>
      </trkpt>
      <trkpt lat="45.88972" lon="3.32319">
        <ele>310.4</ele>
        <time>2024-04-14T11:47:58Z</time>
      </trkpt>
      <trkpt lat="45.88978" lon="3.32323">
        <ele>310.4</ele>
        <time>2024-04-14T11:47:59Z</time>
      </trkpt>
      <trkpt lat="45.88984" lon="3.32327">
        <ele>310.2</ele>
        <time>2024-04-14T11:48:00Z</time>
      </trkpt>
      <trkpt lat="45.88991" lon="3.32332">
        <ele>310.2</ele>
        <time>2024-04-14T11:48:01Z</time>
      </trkpt>
      <trkpt lat="45.88998" lon="3.32337">
        <ele>310.4</ele>
        <time>2024-04-14T11:48:02Z</time>
      </trkpt>
      <trkpt lat="45.89004" lon="3.32342">
        <ele>310.4</ele>
        <time>2024-04-14T11:48:03Z</time>
      </trkpt>
      <trkpt lat="45.8901" lon="3.32346">
        <ele>310.4</ele>
        <time>2024-04-14T11:48:04Z</time>
      </trkpt>
      <trkpt lat="45.89017" lon="3.32351">
        <ele>310.4</ele>
        <time>2024-04-14T11:48:05Z</time>
      </trkpt>
      <trkpt lat="45.89023" lon="3.32355">
        <ele>310.4</ele>
        <time>2024-04-14T11:48:06Z</time>
      </trkpt>
      <trkpt lat="45.89029" lon="3.3236">
        <ele>310.4</ele>
        <time>2024-04-14T11:48:07Z</time>
      </trkpt>
      <trkpt lat="45.89036" lon="3.32364">
        <ele>310.4</ele>
        <time>2024-04-14T11:48:08Z</time>
      </trkpt>
      <trkpt lat="45.89042" lon="3.32369">
        <ele>310.2</ele>
        <time>2024-04-14T11:48:09Z</time>
      </trkpt>
      <trkpt lat="45.89048" lon="3.32373">
        <ele>310.2</ele>
        <time>2024-04-14T11:48:10Z</time>
      </trkpt>
      <trkpt lat="45.89054" lon="3.32378">
        <ele>310.2</ele>
        <time>2024-04-14T11:48:11Z</time>
      </trkpt>
      <trkpt lat="45.8906" lon="3.32382">
        <ele>310.2</ele>
        <time>2024-04-14T11:48:12Z</time>
      </trkpt>
      <trkpt lat="45.89067" lon="3.32386">
        <ele>310.2</ele>
        <time>2024-04-14T11:48:13Z</time>
      </trkpt>
      <trkpt lat="45.89073" lon="3.3239">
        <ele>310.2</ele>
        <time>2024-04-14T11:48:14Z</time>
      </trkpt>
      <trkpt lat="45.89079" lon="3.32394">
        <ele>310</ele>
        <time>2024-04-14T11:48:15Z</time>
      </trkpt>
      <trkpt lat="45.89086" lon="3.32398">
        <ele>310</ele>
        <time>2024-04-14T11:48:16Z</time>
      </trkpt>
      <trkpt lat="45.89092" lon="3.32402">
        <ele>310</ele>
        <time>2024-04-14T11:48:17Z</time>
      </trkpt>
      <trkpt lat="45.89098" lon="3.32405">
        <ele>310</ele>
        <time>2024-04-14T11:48:18Z</time>
      </trkpt>
      <trkpt lat="45.89105" lon="3.32409">
        <ele>310</ele>
        <time>2024-04-14T11:48:19Z</time>
      </trkpt>
      <trkpt lat="45.89111" lon="3.32413">
        <ele>309.8</ele>
        <time>2024-04-14T11:48:20Z</time>
      </trkpt>
      <trkpt lat="45.89118" lon="3.32417">
        <ele>309.8</ele>
        <time>2024-04-14T11:48:21Z</time>
      </trkpt>
      <trkpt lat="45.89125" lon="3.32421">
        <ele>309.8</ele>
        <time>2024-04-14T11:48:22Z</time>
      </trkpt>
      <trkpt lat="45.89131" lon="3.32425">
        <ele>309.8</ele>
        <time>2024-04-14T11:48:23Z</time>
      </trkpt>
      <trkpt lat="45.89138" lon="3.3243">
        <ele>309.6</ele>
        <time>2024-04-14T11:48:24Z</time>
      </trkpt>
      <trkpt lat="45.89145" lon="3.32434">
        <ele>309.6</ele>
        <time>2024-04-14T11:48:25Z</time>
      </trkpt>
      <trkpt lat="45.89152" lon="3.32438">
        <ele>309.6</ele>
        <time>2024-04-14T11:48:26Z</time>
      </trkpt>
      <trkpt lat="45.89159" lon="3.32442">
        <ele>309.6</ele>
        <time>2024-04-14T11:48:27Z</time>
      </trkpt>
      <trkpt lat="45.89165" lon="3.32446">
        <ele>309.4</ele>
        <time>2024-04-14T11:48:28Z</time>
      </trkpt>
      <trkpt lat="45.89172" lon="3.3245">
        <ele>309.4</ele>
        <time>2024-04-14T11:48:29Z</time>
      </trkpt>
      <trkpt lat="45.89179" lon="3.32453">
        <ele>309.4</ele>
        <time>2024-04-14T11:48:30Z</time>
      </trkpt>
      <trkpt lat="45.89185" lon="3.32455">
        <ele>309.4</ele>
        <time>2024-04-14T11:48:31Z</time>
      </trkpt>
      <trkpt lat="45.89192" lon="3.32458">
        <ele>309.4</ele>
        <time>2024-04-14T11:48:32Z</time>
      </trkpt>
      <trkpt lat="45.892" lon="3.3246">
        <ele>309.4</ele>
        <time>2024-04-14T11:48:33Z</time>
      </trkpt>
      <trkpt lat="45.89206" lon="3.32462">
        <ele>309.4</ele>
        <time>2024-04-14T11:48:34Z</time>
      </trkpt>
      <trkpt lat="45.89213" lon="3.32465">
        <ele>309.4</ele>
        <time>2024-04-14T11:48:35Z</time>
      </trkpt>
      <trkpt lat="45.8922" lon="3.32467">
        <ele>309.4</ele>
        <time>2024-04-14T11:48:36Z</time>
      </trkpt>
      <trkpt lat="45.89228" lon="3.32469">
        <ele>309.4</ele>
        <time>2024-04-14T11:48:37Z</time>
      </trkpt>
      <trkpt lat="45.89235" lon="3.32472">
        <ele>309.4</ele>
        <time>2024-04-14T11:48:38Z</time>
      </trkpt>
      <trkpt lat="45.89241" lon="3.32474">
        <ele>309.2</ele>
        <time>2024-04-14T11:48:39Z</time>
      </trkpt>
      <trkpt lat="45.89248" lon="3.32476">
        <ele>309.2</ele>
        <time>2024-04-14T11:48:40Z</time>
      </trkpt>
      <trkpt lat="45.89256" lon="3.32479">
        <ele>309.2</ele>
        <time>2024-04-14T11:48:41Z</time>
      </trkpt>
      <trkpt lat="45.89263" lon="3.32481">
        <ele>309</ele>
        <time>2024-04-14T11:48:42Z</time>
      </trkpt>
      <trkpt lat="45.8927" lon="3.32483">
        <ele>309</ele>
        <time>2024-04-14T11:48:43Z</time>
      </trkpt>
      <trkpt lat="45.89277" lon="3.32486">
        <ele>309</ele>
        <time>2024-04-14T11:48:44Z</time>
      </trkpt>
      <trkpt lat="45.89284" lon="3.32488">
        <ele>309</ele>
        <time>2024-04-14T11:48:45Z</time>
      </trkpt>
      <trkpt lat="45.89291" lon="3.3249">
        <ele>309</ele>
        <time>2024-04-14T11:48:46Z</time>
      </trkpt>
      <trkpt lat="45.89298" lon="3.32493">
        <ele>309</ele>
        <time>2024-04-14T11:48:47Z</time>
      </trkpt>
      <trkpt lat="45.89305" lon="3.32495">
        <ele>309</ele>
        <time>2024-04-14T11:48:48Z</time>
      </trkpt>
      <trkpt lat="45.89312" lon="3.32497">
        <ele>309</ele>
        <time>2024-04-14T11:48:49Z</time>
      </trkpt>
      <trkpt lat="45.8932" lon="3.325">
        <ele>308.8</ele>
        <time>2024-04-14T11:48:50Z</time>
      </trkpt>
      <trkpt lat="45.89327" lon="3.32502">
        <ele>308.8</ele>
        <time>2024-04-14T11:48:51Z</time>
      </trkpt>
      <trkpt lat="45.89334" lon="3.32505">
        <ele>308.8</ele>
        <time>2024-04-14T11:48:52Z</time>
      </trkpt>
      <trkpt lat="45.89341" lon="3.32507">
        <ele>308.8</ele>
        <time>2024-04-14T11:48:53Z</time>
      </trkpt>
      <trkpt lat="45.89349" lon="3.3251">
        <ele>308.6</ele>
        <time>2024-04-14T11:48:54Z</time>
      </trkpt>
      <trkpt lat="45.89356" lon="3.32512">
        <ele>308.6</ele>
        <time>2024-04-14T11:48:55Z</time>
      </trkpt>
      <trkpt lat="45.89363" lon="3.32514">
        <ele>308.6</ele>
        <time>2024-04-14T11:48:56Z</time>
      </trkpt>
      <trkpt lat="45.89371" lon="3.32517">
        <ele>308.4</ele>
        <time>2024-04-14T11:48:57Z</time>
      </trkpt>
      <trkpt lat="45.89378" lon="3.32519">
        <ele>308.4</ele>
        <time>2024-04-14T11:48:58Z</time>
      </trkpt>
      <trkpt lat="45.89385" lon="3.32522">
        <ele>308.4</ele>
        <time>2024-04-14T11:48:59Z</time>
      </trkpt>
      <trkpt lat="45.89392" lon="3.32524">
        <ele>308.4</ele>
        <time>2024-04-14T11:49:00Z</time>
      </trkpt>
      <trkpt lat="45.89399" lon="3.32526">
        <ele>308.4</ele>
        <time>2024-04-14T11:49:01Z</time>
      </trkpt>
      <trkpt lat="45.89406" lon="3.32529">
        <ele>308.4</ele>
        <time>2024-04-14T11:49:02Z</time>
      </trkpt>
      <trkpt lat="45.89413" lon="3.32531">
        <ele>308.4</ele>
        <time>2024-04-14T11:49:03Z</time>
      </trkpt>
      <trkpt lat="45.8942" lon="3.32533">
        <ele>308.4</ele>
        <time>2024-04-14T11:49:04Z</time>
      </trkpt>
      <trkpt lat="45.89427" lon="3.32536">
        <ele>308.4</ele>
        <time>2024-04-14T11:49:05Z</time>
      </trkpt>
      <trkpt lat="45.89434" lon="3.32538">
        <ele>308.4</ele>
        <time>2024-04-14T11:49:06Z</time>
      </trkpt>
      <trkpt lat="45.89441" lon="3.3254">
        <ele>308.2</ele>
        <time>2024-04-14T11:49:07Z</time>
      </trkpt>
      <trkpt lat="45.89448" lon="3.32542">
        <ele>308.2</ele>
        <time>2024-04-14T11:49:08Z</time>
      </trkpt>
      <trkpt lat="45.89455" lon="3.32545">
        <ele>308.2</ele>
        <time>2024-04-14T11:49:09Z</time>
      </trkpt>
      <trkpt lat="45.89462" lon="3.32547">
        <ele>308.2</ele>
        <time>2024-04-14T11:49:10Z</time>
      </trkpt>
      <trkpt lat="45.89469" lon="3.32549">
        <ele>308.2</ele>
        <time>2024-04-14T11:49:11Z</time>
      </trkpt>
      <trkpt lat="45.89476" lon="3.32552">
        <ele>308.2</ele>
        <time>2024-04-14T11:49:12Z</time>
      </trkpt>
      <trkpt lat="45.89483" lon="3.32554">
        <ele>308.2</ele>
        <time>2024-04-14T11:49:13Z</time>
      </trkpt>
      <trkpt lat="45.8949" lon="3.32556">
        <ele>308.2</ele>
        <time>2024-04-14T11:49:14Z</time>
      </trkpt>
      <trkpt lat="45.89497" lon="3.32559">
        <ele>308.2</ele>
        <time>2024-04-14T11:49:15Z</time>
      </trkpt>
      <trkpt lat="45.89504" lon="3.32561">
        <ele>308</ele>
        <time>2024-04-14T11:49:16Z</time>
      </trkpt>
      <trkpt lat="45.89511" lon="3.32563">
        <ele>308</ele>
        <time>2024-04-14T11:49:17Z</time>
      </trkpt>
      <trkpt lat="45.89518" lon="3.32566">
        <ele>308</ele>
        <time>2024-04-14T11:49:18Z</time>
      </trkpt>
      <trkpt lat="45.89525" lon="3.32568">
        <ele>308</ele>
        <time>2024-04-14T11:49:19Z</time>
      </trkpt>
      <trkpt lat="45.89532" lon="3.3257">
        <ele>308</ele>
        <time>2024-04-14T11:49:20Z</time>
      </trkpt>
      <trkpt lat="45.89539" lon="3.32573">
        <ele>308</ele>
        <time>2024-04-14T11:49:21Z</time>
      </trkpt>
      <trkpt lat="45.89546" lon="3.32575">
        <ele>307.8</ele>
        <time>2024-04-14T11:49:22Z</time>
      </trkpt>
      <trkpt lat="45.89553" lon="3.32577">
        <ele>307.8</ele>
        <time>2024-04-14T11:49:23Z</time>
      </trkpt>
      <trkpt lat="45.8956" lon="3.3258">
        <ele>307.8</ele>
        <time>2024-04-14T11:49:24Z</time>
      </trkpt>
      <trkpt lat="45.89567" lon="3.32582">
        <ele>307.8</ele>
        <time>2024-04-14T11:49:25Z</time>
      </trkpt>
      <trkpt lat="45.89574" lon="3.32584">
        <ele>307.8</ele>
        <time>2024-04-14T11:49:26Z</time>
      </trkpt>
      <trkpt lat="45.89581" lon="3.32586">
        <ele>307.8</ele>
        <time>2024-04-14T11:49:27Z</time>
      </trkpt>
      <trkpt lat="45.89588" lon="3.32587">
        <ele>307.8</ele>
        <time>2024-04-14T11:49:28Z</time>
      </trkpt>
      <trkpt lat="45.89595" lon="3.32589">
        <ele>307.8</ele>
        <time>2024-04-14T11:49:29Z</time>
      </trkpt>
      <trkpt lat="45.89602" lon="3.3259">
        <ele>307.8</ele>
        <time>2024-04-14T11:49:30Z</time>
      </trkpt>
      <trkpt lat="45.89609" lon="3.32592">
        <ele>307.8</ele>
        <time>2024-04-14T11:49:31Z</time>
      </trkpt>
      <trkpt lat="45.89616" lon="3.32593">
        <ele>307.8</ele>
        <time>2024-04-14T11:49:32Z</time>
      </trkpt>
      <trkpt lat="45.89623" lon="3.32595">
        <ele>307.8</ele>
        <time>2024-04-14T11:49:33Z</time>
      </trkpt>
      <trkpt lat="45.8963" lon="3.32596">
        <ele>307.6</ele>
        <time>2024-04-14T11:49:34Z</time>
      </trkpt>
      <trkpt lat="45.89638" lon="3.32598">
        <ele>307.6</ele>
        <time>2024-04-14T11:49:35Z</time>
      </trkpt>
      <trkpt lat="45.89645" lon="3.32599">
        <ele>307.6</ele>
        <time>2024-04-14T11:49:36Z</time>
      </trkpt>
      <trkpt lat="45.89652" lon="3.326">
        <ele>307.6</ele>
        <time>2024-04-14T11:49:37Z</time>
      </trkpt>
      <trkpt lat="45.89659" lon="3.32602">
        <ele>307.6</ele>
        <time>2024-04-14T11:49:38Z</time>
      </trkpt>
      <trkpt lat="45.89666" lon="3.32603">
        <ele>307.6</ele>
        <time>2024-04-14T11:49:39Z</time>
      </trkpt>
      <trkpt lat="45.89673" lon="3.32605">
        <ele>307.4</ele>
        <time>2024-04-14T11:49:40Z</time>
      </trkpt>
      <trkpt lat="45.8968" lon="3.32606">
        <ele>307.6</ele>
        <time>2024-04-14T11:49:41Z</time>
      </trkpt>
      <trkpt lat="45.89687" lon="3.32608">
        <ele>307.6</ele>
        <time>2024-04-14T11:49:42Z</time>
      </trkpt>
      <trkpt lat="45.89694" lon="3.32609">
        <ele>307.4</ele>
        <time>2024-04-14T11:49:43Z</time>
      </trkpt>
      <trkpt lat="45.89701" lon="3.3261">
        <ele>307.4</ele>
        <time>2024-04-14T11:49:44Z</time>
      </trkpt>
      <trkpt lat="45.89709" lon="3.32612">
        <ele>307.4</ele>
        <time>2024-04-14T11:49:45Z</time>
      </trkpt>
      <trkpt lat="45.89716" lon="3.32613">
        <ele>307.4</ele>
        <time>2024-04-14T11:49:46Z</time>
      </trkpt>
      <trkpt lat="45.89723" lon="3.32615">
        <ele>307.4</ele>
        <time>2024-04-14T11:49:47Z</time>
      </trkpt>
      <trkpt lat="45.8973" lon="3.32616">
        <ele>307.4</ele>
        <time>2024-04-14T11:49:48Z</time>
      </trkpt>
      <trkpt lat="45.89737" lon="3.32618">
        <ele>307.4</ele>
        <time>2024-04-14T11:49:49Z</time>
      </trkpt>
      <trkpt lat="45.89744" lon="3.32619">
        <ele>307.4</ele>
        <time>2024-04-14T11:49:50Z</time>
      </trkpt>
      <trkpt lat="45.89751" lon="3.3262">
        <ele>307.2</ele>
        <time>2024-04-14T11:49:51Z</time>
      </trkpt>
      <trkpt lat="45.89758" lon="3.32622">
        <ele>307.2</ele>
        <time>2024-04-14T11:49:52Z</time>
      </trkpt>
      <trkpt lat="45.89764" lon="3.32623">
        <ele>307.2</ele>
        <time>2024-04-14T11:49:53Z</time>
      </trkpt>
      <trkpt lat="45.89771" lon="3.32625">
        <ele>307.2</ele>
        <time>2024-04-14T11:49:54Z</time>
      </trkpt>
      <trkpt lat="45.89778" lon="3.32626">
        <ele>307.2</ele>
        <time>2024-04-14T11:49:55Z</time>
      </trkpt>
      <trkpt lat="45.89785" lon="3.32627">
        <ele>307.2</ele>
        <time>2024-04-14T11:49:56Z</time>
      </trkpt>
      <trkpt lat="45.89791" lon="3.32629">
        <ele>307.2</ele>
        <time>2024-04-14T11:49:57Z</time>
      </trkpt>
      <trkpt lat="45.89798" lon="3.3263">
        <ele>307.2</ele>
        <time>2024-04-14T11:49:58Z</time>
      </trkpt>
      <trkpt lat="45.89805" lon="3.32631">
        <ele>307.2</ele>
        <time>2024-04-14T11:49:59Z</time>
      </trkpt>
      <trkpt lat="45.89812" lon="3.32633">
        <ele>307.2</ele>
        <time>2024-04-14T11:50:00Z</time>
      </trkpt>
      <trkpt lat="45.89819" lon="3.32634">
        <ele>307.2</ele>
        <time>2024-04-14T11:50:01Z</time>
      </trkpt>
      <trkpt lat="45.89825" lon="3.32635">
        <ele>307.2</ele>
        <time>2024-04-14T11:50:02Z</time>
      </trkpt>
      <trkpt lat="45.89832" lon="3.32637">
        <ele>307.2</ele>
        <time>2024-04-14T11:50:03Z</time>
      </trkpt>
      <trkpt lat="45.89838" lon="3.32638">
        <ele>307.2</ele>
        <time>2024-04-14T11:50:04Z</time>
      </trkpt>
      <trkpt lat="45.89845" lon="3.32639">
        <ele>307.2</ele>
        <time>2024-04-14T11:50:05Z</time>
      </trkpt>
      <trkpt lat="45.89858" lon="3.32642">
        <ele>307.2</ele>
        <time>2024-04-14T11:50:06Z</time>
      </trkpt>
      <trkpt lat="45.89858" lon="3.32642">
        <ele>307.2</ele>
        <time>2024-04-14T11:50:07Z</time>
      </trkpt>
      <trkpt lat="45.89864" lon="3.32643">
        <ele>307.2</ele>
        <time>2024-04-14T11:50:08Z</time>
      </trkpt>
      <trkpt lat="45.89871" lon="3.32645">
        <ele>307.2</ele>
        <time>2024-04-14T11:50:09Z</time>
      </trkpt>
      <trkpt lat="45.89878" lon="3.32646">
        <ele>307.2</ele>
        <time>2024-04-14T11:50:10Z</time>
      </trkpt>
      <trkpt lat="45.89885" lon="3.32647">
        <ele>307.2</ele>
        <time>2024-04-14T11:50:11Z</time>
      </trkpt>
      <trkpt lat="45.89899" lon="3.3265">
        <ele>307.2</ele>
        <time>2024-04-14T11:50:12Z</time>
      </trkpt>
      <trkpt lat="45.89899" lon="3.3265">
        <ele>307.2</ele>
        <time>2024-04-14T11:50:13Z</time>
      </trkpt>
      <trkpt lat="45.89905" lon="3.32652">
        <ele>307.2</ele>
        <time>2024-04-14T11:50:14Z</time>
      </trkpt>
      <trkpt lat="45.89912" lon="3.32653">
        <ele>307.2</ele>
        <time>2024-04-14T11:50:15Z</time>
      </trkpt>
      <trkpt lat="45.89919" lon="3.32654">
        <ele>307</ele>
        <time>2024-04-14T11:50:16Z</time>
      </trkpt>
      <trkpt lat="45.89926" lon="3.32656">
        <ele>307</ele>
        <time>2024-04-14T11:50:17Z</time>
      </trkpt>
      <trkpt lat="45.89933" lon="3.32657">
        <ele>307.2</ele>
        <time>2024-04-14T11:50:18Z</time>
      </trkpt>
      <trkpt lat="45.89939" lon="3.32659">
        <ele>307.2</ele>
        <time>2024-04-14T11:50:19Z</time>
      </trkpt>
      <trkpt lat="45.89946" lon="3.3266">
        <ele>307.2</ele>
        <time>2024-04-14T11:50:20Z</time>
      </trkpt>
      <trkpt lat="45.89953" lon="3.32661">
        <ele>307.4</ele>
        <time>2024-04-14T11:50:21Z</time>
      </trkpt>
      <trkpt lat="45.8996" lon="3.32663">
        <ele>307.4</ele>
        <time>2024-04-14T11:50:22Z</time>
      </trkpt>
      <trkpt lat="45.89967" lon="3.32664">
        <ele>307.6</ele>
        <time>2024-04-14T11:50:23Z</time>
      </trkpt>
      <trkpt lat="45.89974" lon="3.32666">
        <ele>307.6</ele>
        <time>2024-04-14T11:50:24Z</time>
      </trkpt>
      <trkpt lat="45.89982" lon="3.32667">
        <ele>307.6</ele>
        <time>2024-04-14T11:50:25Z</time>
      </trkpt>
      <trkpt lat="45.89989" lon="3.3267">
        <ele>307.6</ele>
        <time>2024-04-14T11:50:26Z</time>
      </trkpt>
      <trkpt lat="45.89995" lon="3.32673">
        <ele>307.6</ele>
        <time>2024-04-14T11:50:27Z</time>
      </trkpt>
      <trkpt lat="45.90002" lon="3.32676">
        <ele>307.4</ele>
        <time>2024-04-14T11:50:28Z</time>
      </trkpt>
      <trkpt lat="45.90009" lon="3.32679">
        <ele>307.6</ele>
        <time>2024-04-14T11:50:29Z</time>
      </trkpt>
      <trkpt lat="45.90016" lon="3.32682">
        <ele>307.6</ele>
        <time>2024-04-14T11:50:30Z</time>
      </trkpt>
      <trkpt lat="45.90023" lon="3.32685">
        <ele>307.4</ele>
        <time>2024-04-14T11:50:31Z</time>
      </trkpt>
      <trkpt lat="45.90029" lon="3.32688">
        <ele>307.4</ele>
        <time>2024-04-14T11:50:32Z</time>
      </trkpt>
      <trkpt lat="45.90036" lon="3.32691">
        <ele>307.4</ele>
        <time>2024-04-14T11:50:33Z</time>
      </trkpt>
      <trkpt lat="45.90044" lon="3.32694">
        <ele>307.4</ele>
        <time>2024-04-14T11:50:34Z</time>
      </trkpt>
      <trkpt lat="45.9005" lon="3.32697">
        <ele>307.4</ele>
        <time>2024-04-14T11:50:35Z</time>
      </trkpt>
      <trkpt lat="45.90057" lon="3.327">
        <ele>307.4</ele>
        <time>2024-04-14T11:50:36Z</time>
      </trkpt>
      <trkpt lat="45.90064" lon="3.32703">
        <ele>307.4</ele>
        <time>2024-04-14T11:50:37Z</time>
      </trkpt>
      <trkpt lat="45.9007" lon="3.32706">
        <ele>307.4</ele>
        <time>2024-04-14T11:50:38Z</time>
      </trkpt>
      <trkpt lat="45.90077" lon="3.32709">
        <ele>307.4</ele>
        <time>2024-04-14T11:50:39Z</time>
      </trkpt>
      <trkpt lat="45.90084" lon="3.32712">
        <ele>307.4</ele>
        <time>2024-04-14T11:50:40Z</time>
      </trkpt>
      <trkpt lat="45.9009" lon="3.32715">
        <ele>307.4</ele>
        <time>2024-04-14T11:50:41Z</time>
      </trkpt>
      <trkpt lat="45.90097" lon="3.32717">
        <ele>307.4</ele>
        <time>2024-04-14T11:50:42Z</time>
      </trkpt>
      <trkpt lat="45.90104" lon="3.3272">
        <ele>307.6</ele>
        <time>2024-04-14T11:50:43Z</time>
      </trkpt>
      <trkpt lat="45.9011" lon="3.32723">
        <ele>307.6</ele>
        <time>2024-04-14T11:50:44Z</time>
      </trkpt>
      <trkpt lat="45.90117" lon="3.32727">
        <ele>307.6</ele>
        <time>2024-04-14T11:50:45Z</time>
      </trkpt>
      <trkpt lat="45.90123" lon="3.32731">
        <ele>307.6</ele>
        <time>2024-04-14T11:50:46Z</time>
      </trkpt>
      <trkpt lat="45.9013" lon="3.32735">
        <ele>307.6</ele>
        <time>2024-04-14T11:50:47Z</time>
      </trkpt>
      <trkpt lat="45.90136" lon="3.3274">
        <ele>307.6</ele>
        <time>2024-04-14T11:50:48Z</time>
      </trkpt>
      <trkpt lat="45.90142" lon="3.32744">
        <ele>307.4</ele>
        <time>2024-04-14T11:50:49Z</time>
      </trkpt>
      <trkpt lat="45.90149" lon="3.32748">
        <ele>307.4</ele>
        <time>2024-04-14T11:50:50Z</time>
      </trkpt>
      <trkpt lat="45.90155" lon="3.32752">
        <ele>307.4</ele>
        <time>2024-04-14T11:50:51Z</time>
      </trkpt>
      <trkpt lat="45.90161" lon="3.32757">
        <ele>307.2</ele>
        <time>2024-04-14T11:50:52Z</time>
      </trkpt>
      <trkpt lat="45.90167" lon="3.32761">
        <ele>307.2</ele>
        <time>2024-04-14T11:50:53Z</time>
      </trkpt>
      <trkpt lat="45.90174" lon="3.32765">
        <ele>307.2</ele>
        <time>2024-04-14T11:50:54Z</time>
      </trkpt>
      <trkpt lat="45.9018" lon="3.32769">
        <ele>307.4</ele>
        <time>2024-04-14T11:50:55Z</time>
      </trkpt>
      <trkpt lat="45.90186" lon="3.32773">
        <ele>307.4</ele>
        <time>2024-04-14T11:50:56Z</time>
      </trkpt>
      <trkpt lat="45.90192" lon="3.32777">
        <ele>307.4</ele>
        <time>2024-04-14T11:50:57Z</time>
      </trkpt>
      <trkpt lat="45.90199" lon="3.32781">
        <ele>307.4</ele>
        <time>2024-04-14T11:50:58Z</time>
      </trkpt>
      <trkpt lat="45.90205" lon="3.32786">
        <ele>307.4</ele>
        <time>2024-04-14T11:50:59Z</time>
      </trkpt>
      <trkpt lat="45.90211" lon="3.3279">
        <ele>307.4</ele>
        <time>2024-04-14T11:51:00Z</time>
      </trkpt>
      <trkpt lat="45.90217" lon="3.32794">
        <ele>307.4</ele>
        <time>2024-04-14T11:51:01Z</time>
      </trkpt>
      <trkpt lat="45.90224" lon="3.32798">
        <ele>307.4</ele>
        <time>2024-04-14T11:51:02Z</time>
      </trkpt>
      <trkpt lat="45.90229" lon="3.32804">
        <ele>307.4</ele>
        <time>2024-04-14T11:51:03Z</time>
      </trkpt>
      <trkpt lat="45.90234" lon="3.3281">
        <ele>307.4</ele>
        <time>2024-04-14T11:51:04Z</time>
      </trkpt>
      <trkpt lat="45.90239" lon="3.32816">
        <ele>307.4</ele>
        <time>2024-04-14T11:51:05Z</time>
      </trkpt>
      <trkpt lat="45.90245" lon="3.32822">
        <ele>307.2</ele>
        <time>2024-04-14T11:51:06Z</time>
      </trkpt>
      <trkpt lat="45.9025" lon="3.32828">
        <ele>307.2</ele>
        <time>2024-04-14T11:51:07Z</time>
      </trkpt>
      <trkpt lat="45.90255" lon="3.32834">
        <ele>307.2</ele>
        <time>2024-04-14T11:51:08Z</time>
      </trkpt>
      <trkpt lat="45.9026" lon="3.3284">
        <ele>307.2</ele>
        <time>2024-04-14T11:51:09Z</time>
      </trkpt>
      <trkpt lat="45.90266" lon="3.32846">
        <ele>307.2</ele>
        <time>2024-04-14T11:51:10Z</time>
      </trkpt>
      <trkpt lat="45.90271" lon="3.32852">
        <ele>307.4</ele>
        <time>2024-04-14T11:51:11Z</time>
      </trkpt>
      <trkpt lat="45.90276" lon="3.32858">
        <ele>307.4</ele>
        <time>2024-04-14T11:51:12Z</time>
      </trkpt>
      <trkpt lat="45.90281" lon="3.32864">
        <ele>307.4</ele>
        <time>2024-04-14T11:51:13Z</time>
      </trkpt>
      <trkpt lat="45.90286" lon="3.3287">
        <ele>307.2</ele>
        <time>2024-04-14T11:51:14Z</time>
      </trkpt>
      <trkpt lat="45.90292" lon="3.32876">
        <ele>307.2</ele>
        <time>2024-04-14T11:51:15Z</time>
      </trkpt>
      <trkpt lat="45.90297" lon="3.32882">
        <ele>307.2</ele>
        <time>2024-04-14T11:51:16Z</time>
      </trkpt>
      <trkpt lat="45.90302" lon="3.32888">
        <ele>307.2</ele>
        <time>2024-04-14T11:51:17Z</time>
      </trkpt>
      <trkpt lat="45.90308" lon="3.32895">
        <ele>307.4</ele>
        <time>2024-04-14T11:51:18Z</time>
      </trkpt>
      <trkpt lat="45.90313" lon="3.32901">
        <ele>307.2</ele>
        <time>2024-04-14T11:51:19Z</time>
      </trkpt>
      <trkpt lat="45.90319" lon="3.32907">
        <ele>307.2</ele>
        <time>2024-04-14T11:51:20Z</time>
      </trkpt>
      <trkpt lat="45.90324" lon="3.32913">
        <ele>307.2</ele>
        <time>2024-04-14T11:51:21Z</time>
      </trkpt>
      <trkpt lat="45.9033" lon="3.32919">
        <ele>307.2</ele>
        <time>2024-04-14T11:51:22Z</time>
      </trkpt>
      <trkpt lat="45.90335" lon="3.32925">
        <ele>307.2</ele>
        <time>2024-04-14T11:51:23Z</time>
      </trkpt>
      <trkpt lat="45.9034" lon="3.32932">
        <ele>307.2</ele>
        <time>2024-04-14T11:51:24Z</time>
      </trkpt>
      <trkpt lat="45.90347" lon="3.32937">
        <ele>307.2</ele>
        <time>2024-04-14T11:51:25Z</time>
      </trkpt>
      <trkpt lat="45.90354" lon="3.3294">
        <ele>307.2</ele>
        <time>2024-04-14T11:51:26Z</time>
      </trkpt>
      <trkpt lat="45.9036" lon="3.32944">
        <ele>307.2</ele>
        <time>2024-04-14T11:51:27Z</time>
      </trkpt>
      <trkpt lat="45.90367" lon="3.32947">
        <ele>307.2</ele>
        <time>2024-04-14T11:51:28Z</time>
      </trkpt>
      <trkpt lat="45.90374" lon="3.3295">
        <ele>307.2</ele>
        <time>2024-04-14T11:51:29Z</time>
      </trkpt>
      <trkpt lat="45.9038" lon="3.32954">
        <ele>307.2</ele>
        <time>2024-04-14T11:51:30Z</time>
      </trkpt>
      <trkpt lat="45.90387" lon="3.32957">
        <ele>307.2</ele>
        <time>2024-04-14T11:51:31Z</time>
      </trkpt>
      <trkpt lat="45.90394" lon="3.3296">
        <ele>307.2</ele>
        <time>2024-04-14T11:51:32Z</time>
      </trkpt>
      <trkpt lat="45.904" lon="3.32964">
        <ele>307.2</ele>
        <time>2024-04-14T11:51:33Z</time>
      </trkpt>
      <trkpt lat="45.90407" lon="3.32967">
        <ele>307</ele>
        <time>2024-04-14T11:51:34Z</time>
      </trkpt>
      <trkpt lat="45.90414" lon="3.3297">
        <ele>307</ele>
        <time>2024-04-14T11:51:35Z</time>
      </trkpt>
      <trkpt lat="45.9042" lon="3.32974">
        <ele>307</ele>
        <time>2024-04-14T11:51:36Z</time>
      </trkpt>
      <trkpt lat="45.90427" lon="3.32977">
        <ele>307</ele>
        <time>2024-04-14T11:51:37Z</time>
      </trkpt>
      <trkpt lat="45.90433" lon="3.32981">
        <ele>307</ele>
        <time>2024-04-14T11:51:38Z</time>
      </trkpt>
      <trkpt lat="45.9044" lon="3.32984">
        <ele>307</ele>
        <time>2024-04-14T11:51:39Z</time>
      </trkpt>
      <trkpt lat="45.90446" lon="3.32987">
        <ele>307</ele>
        <time>2024-04-14T11:51:40Z</time>
      </trkpt>
      <trkpt lat="45.90452" lon="3.32991">
        <ele>307</ele>
        <time>2024-04-14T11:51:41Z</time>
      </trkpt>
      <trkpt lat="45.90459" lon="3.32994">
        <ele>307</ele>
        <time>2024-04-14T11:51:42Z</time>
      </trkpt>
      <trkpt lat="45.90465" lon="3.32997">
        <ele>306.8</ele>
        <time>2024-04-14T11:51:43Z</time>
      </trkpt>
      <trkpt lat="45.90472" lon="3.33001">
        <ele>306.8</ele>
        <time>2024-04-14T11:51:44Z</time>
      </trkpt>
      <trkpt lat="45.90478" lon="3.33004">
        <ele>306.8</ele>
        <time>2024-04-14T11:51:45Z</time>
      </trkpt>
      <trkpt lat="45.90484" lon="3.33007">
        <ele>306.8</ele>
        <time>2024-04-14T11:51:46Z</time>
      </trkpt>
      <trkpt lat="45.90491" lon="3.3301">
        <ele>306.8</ele>
        <time>2024-04-14T11:51:47Z</time>
      </trkpt>
      <trkpt lat="45.90497" lon="3.33014">
        <ele>306.6</ele>
        <time>2024-04-14T11:51:48Z</time>
      </trkpt>
      <trkpt lat="45.90503" lon="3.33017">
        <ele>306.6</ele>
        <time>2024-04-14T11:51:49Z</time>
      </trkpt>
      <trkpt lat="45.9051" lon="3.3302">
        <ele>306.6</ele>
        <time>2024-04-14T11:51:50Z</time>
      </trkpt>
      <trkpt lat="45.90516" lon="3.33024">
        <ele>306.6</ele>
        <time>2024-04-14T11:51:51Z</time>
      </trkpt>
      <trkpt lat="45.90523" lon="3.33026">
        <ele>306.6</ele>
        <time>2024-04-14T11:51:52Z</time>
      </trkpt>
      <trkpt lat="45.90529" lon="3.33028">
        <ele>306.6</ele>
        <time>2024-04-14T11:51:53Z</time>
      </trkpt>
      <trkpt lat="45.90536" lon="3.3303">
        <ele>306.6</ele>
        <time>2024-04-14T11:51:54Z</time>
      </trkpt>
      <trkpt lat="45.90543" lon="3.33031">
        <ele>306.6</ele>
        <time>2024-04-14T11:51:55Z</time>
      </trkpt>
      <trkpt lat="45.9055" lon="3.33033">
        <ele>306.4</ele>
        <time>2024-04-14T11:51:56Z</time>
      </trkpt>
      <trkpt lat="45.90557" lon="3.33035">
        <ele>306.4</ele>
        <time>2024-04-14T11:51:57Z</time>
      </trkpt>
      <trkpt lat="45.90563" lon="3.33036">
        <ele>306.4</ele>
        <time>2024-04-14T11:51:58Z</time>
      </trkpt>
      <trkpt lat="45.9057" lon="3.33038">
        <ele>306.4</ele>
        <time>2024-04-14T11:51:59Z</time>
      </trkpt>
      <trkpt lat="45.90576" lon="3.3304">
        <ele>306.4</ele>
        <time>2024-04-14T11:52:00Z</time>
      </trkpt>
      <trkpt lat="45.90582" lon="3.33041">
        <ele>306.4</ele>
        <time>2024-04-14T11:52:01Z</time>
      </trkpt>
      <trkpt lat="45.90589" lon="3.33043">
        <ele>306.4</ele>
        <time>2024-04-14T11:52:02Z</time>
      </trkpt>
      <trkpt lat="45.90595" lon="3.33045">
        <ele>306.4</ele>
        <time>2024-04-14T11:52:03Z</time>
      </trkpt>
      <trkpt lat="45.90601" lon="3.33046">
        <ele>306.4</ele>
        <time>2024-04-14T11:52:04Z</time>
      </trkpt>
      <trkpt lat="45.90608" lon="3.33048">
        <ele>306.4</ele>
        <time>2024-04-14T11:52:05Z</time>
      </trkpt>
      <trkpt lat="45.90614" lon="3.33049">
        <ele>306.4</ele>
        <time>2024-04-14T11:52:06Z</time>
      </trkpt>
      <trkpt lat="45.9062" lon="3.33051">
        <ele>306.4</ele>
        <time>2024-04-14T11:52:07Z</time>
      </trkpt>
      <trkpt lat="45.90627" lon="3.33053">
        <ele>306.2</ele>
        <time>2024-04-14T11:52:08Z</time>
      </trkpt>
      <trkpt lat="45.90633" lon="3.33054">
        <ele>306.2</ele>
        <time>2024-04-14T11:52:09Z</time>
      </trkpt>
      <trkpt lat="45.9064" lon="3.33056">
        <ele>306.2</ele>
        <time>2024-04-14T11:52:10Z</time>
      </trkpt>
      <trkpt lat="45.90647" lon="3.33058">
        <ele>306.2</ele>
        <time>2024-04-14T11:52:11Z</time>
      </trkpt>
      <trkpt lat="45.90653" lon="3.3306">
        <ele>306.2</ele>
        <time>2024-04-14T11:52:12Z</time>
      </trkpt>
      <trkpt lat="45.9066" lon="3.33061">
        <ele>306.2</ele>
        <time>2024-04-14T11:52:13Z</time>
      </trkpt>
      <trkpt lat="45.90667" lon="3.33063">
        <ele>306.2</ele>
        <time>2024-04-14T11:52:14Z</time>
      </trkpt>
      <trkpt lat="45.90674" lon="3.33065">
        <ele>306.2</ele>
        <time>2024-04-14T11:52:15Z</time>
      </trkpt>
      <trkpt lat="45.9068" lon="3.33066">
        <ele>306.2</ele>
        <time>2024-04-14T11:52:16Z</time>
      </trkpt>
      <trkpt lat="45.90687" lon="3.33068">
        <ele>306.2</ele>
        <time>2024-04-14T11:52:17Z</time>
      </trkpt>
      <trkpt lat="45.90694" lon="3.3307">
        <ele>306.2</ele>
        <time>2024-04-14T11:52:18Z</time>
      </trkpt>
      <trkpt lat="45.90701" lon="3.33072">
        <ele>306.2</ele>
        <time>2024-04-14T11:52:19Z</time>
      </trkpt>
      <trkpt lat="45.90708" lon="3.33074">
        <ele>306</ele>
        <time>2024-04-14T11:52:20Z</time>
      </trkpt>
      <trkpt lat="45.90715" lon="3.33076">
        <ele>306</ele>
        <time>2024-04-14T11:52:21Z</time>
      </trkpt>
      <trkpt lat="45.90722" lon="3.33079">
        <ele>306</ele>
        <time>2024-04-14T11:52:22Z</time>
      </trkpt>
      <trkpt lat="45.90729" lon="3.33081">
        <ele>306</ele>
        <time>2024-04-14T11:52:23Z</time>
      </trkpt>
      <trkpt lat="45.90736" lon="3.33083">
        <ele>306</ele>
        <time>2024-04-14T11:52:24Z</time>
      </trkpt>
      <trkpt lat="45.90743" lon="3.33086">
        <ele>306</ele>
        <time>2024-04-14T11:52:25Z</time>
      </trkpt>
      <trkpt lat="45.90749" lon="3.33088">
        <ele>306</ele>
        <time>2024-04-14T11:52:26Z</time>
      </trkpt>
      <trkpt lat="45.90757" lon="3.3309">
        <ele>306</ele>
        <time>2024-04-14T11:52:27Z</time>
      </trkpt>
      <trkpt lat="45.90764" lon="3.33093">
        <ele>305.8</ele>
        <time>2024-04-14T11:52:28Z</time>
      </trkpt>
      <trkpt lat="45.9077" lon="3.33095">
        <ele>305.8</ele>
        <time>2024-04-14T11:52:29Z</time>
      </trkpt>
      <trkpt lat="45.90777" lon="3.33097">
        <ele>305.8</ele>
        <time>2024-04-14T11:52:30Z</time>
      </trkpt>
      <trkpt lat="45.90784" lon="3.331">
        <ele>305.8</ele>
        <time>2024-04-14T11:52:31Z</time>
      </trkpt>
      <trkpt lat="45.90791" lon="3.33102">
        <ele>305.8</ele>
        <time>2024-04-14T11:52:32Z</time>
      </trkpt>
      <trkpt lat="45.90798" lon="3.33104">
        <ele>305.8</ele>
        <time>2024-04-14T11:52:33Z</time>
      </trkpt>
      <trkpt lat="45.90805" lon="3.33107">
        <ele>305.8</ele>
        <time>2024-04-14T11:52:34Z</time>
      </trkpt>
      <trkpt lat="45.90812" lon="3.33109">
        <ele>305.6</ele>
        <time>2024-04-14T11:52:35Z</time>
      </trkpt>
      <trkpt lat="45.90818" lon="3.33111">
        <ele>305.6</ele>
        <time>2024-04-14T11:52:36Z</time>
      </trkpt>
      <trkpt lat="45.90825" lon="3.33113">
        <ele>305.6</ele>
        <time>2024-04-14T11:52:37Z</time>
      </trkpt>
      <trkpt lat="45.90832" lon="3.33116">
        <ele>305.6</ele>
        <time>2024-04-14T11:52:38Z</time>
      </trkpt>
      <trkpt lat="45.90839" lon="3.33118">
        <ele>305.6</ele>
        <time>2024-04-14T11:52:39Z</time>
      </trkpt>
      <trkpt lat="45.90846" lon="3.3312">
        <ele>305.6</ele>
        <time>2024-04-14T11:52:40Z</time>
      </trkpt>
      <trkpt lat="45.90853" lon="3.33123">
        <ele>305.6</ele>
        <time>2024-04-14T11:52:41Z</time>
      </trkpt>
      <trkpt lat="45.90859" lon="3.33125">
        <ele>305.6</ele>
        <time>2024-04-14T11:52:42Z</time>
      </trkpt>
      <trkpt lat="45.90866" lon="3.33127">
        <ele>305.6</ele>
        <time>2024-04-14T11:52:43Z</time>
      </trkpt>
      <trkpt lat="45.90873" lon="3.3313">
        <ele>305.6</ele>
        <time>2024-04-14T11:52:44Z</time>
      </trkpt>
      <trkpt lat="45.9088" lon="3.33132">
        <ele>305.6</ele>
        <time>2024-04-14T11:52:45Z</time>
      </trkpt>
      <trkpt lat="45.90887" lon="3.33135">
        <ele>305.6</ele>
        <time>2024-04-14T11:52:46Z</time>
      </trkpt>
      <trkpt lat="45.90894" lon="3.33138">
        <ele>305.6</ele>
        <time>2024-04-14T11:52:47Z</time>
      </trkpt>
      <trkpt lat="45.90901" lon="3.33141">
        <ele>305.6</ele>
        <time>2024-04-14T11:52:48Z</time>
      </trkpt>
      <trkpt lat="45.90907" lon="3.33144">
        <ele>305.6</ele>
        <time>2024-04-14T11:52:49Z</time>
      </trkpt>
      <trkpt lat="45.90914" lon="3.33146">
        <ele>305.6</ele>
        <time>2024-04-14T11:52:50Z</time>
      </trkpt>
      <trkpt lat="45.9092" lon="3.33149">
        <ele>305.6</ele>
        <time>2024-04-14T11:52:51Z</time>
      </trkpt>
      <trkpt lat="45.90927" lon="3.33152">
        <ele>305.6</ele>
        <time>2024-04-14T11:52:52Z</time>
      </trkpt>
      <trkpt lat="45.90933" lon="3.33155">
        <ele>305.6</ele>
        <time>2024-04-14T11:52:53Z</time>
      </trkpt>
      <trkpt lat="45.9094" lon="3.33158">
        <ele>305.6</ele>
        <time>2024-04-14T11:52:54Z</time>
      </trkpt>
      <trkpt lat="45.90946" lon="3.3316">
        <ele>305.6</ele>
        <time>2024-04-14T11:52:55Z</time>
      </trkpt>
      <trkpt lat="45.90953" lon="3.33163">
        <ele>305.4</ele>
        <time>2024-04-14T11:52:56Z</time>
      </trkpt>
      <trkpt lat="45.9096" lon="3.33166">
        <ele>305.6</ele>
        <time>2024-04-14T11:52:57Z</time>
      </trkpt>
      <trkpt lat="45.90966" lon="3.33169">
        <ele>305.6</ele>
        <time>2024-04-14T11:52:58Z</time>
      </trkpt>
      <trkpt lat="45.90973" lon="3.33172">
        <ele>305.6</ele>
        <time>2024-04-14T11:52:59Z</time>
      </trkpt>
      <trkpt lat="45.90979" lon="3.33175">
        <ele>305.6</ele>
        <time>2024-04-14T11:53:00Z</time>
      </trkpt>
      <trkpt lat="45.90986" lon="3.33178">
        <ele>305.6</ele>
        <time>2024-04-14T11:53:01Z</time>
      </trkpt>
      <trkpt lat="45.90993" lon="3.33182">
        <ele>305.4</ele>
        <time>2024-04-14T11:53:02Z</time>
      </trkpt>
      <trkpt lat="45.90999" lon="3.33185">
        <ele>305.4</ele>
        <time>2024-04-14T11:53:03Z</time>
      </trkpt>
      <trkpt lat="45.91006" lon="3.33189">
        <ele>305.6</ele>
        <time>2024-04-14T11:53:04Z</time>
      </trkpt>
      <trkpt lat="45.91012" lon="3.33192">
        <ele>305.6</ele>
        <time>2024-04-14T11:53:05Z</time>
      </trkpt>
      <trkpt lat="45.91019" lon="3.33196">
        <ele>305.6</ele>
        <time>2024-04-14T11:53:06Z</time>
      </trkpt>
      <trkpt lat="45.91025" lon="3.332">
        <ele>305.6</ele>
        <time>2024-04-14T11:53:07Z</time>
      </trkpt>
      <trkpt lat="45.91032" lon="3.33204">
        <ele>305.6</ele>
        <time>2024-04-14T11:53:08Z</time>
      </trkpt>
      <trkpt lat="45.91038" lon="3.33209">
        <ele>305.6</ele>
        <time>2024-04-14T11:53:09Z</time>
      </trkpt>
      <trkpt lat="45.91044" lon="3.33213">
        <ele>305.6</ele>
        <time>2024-04-14T11:53:10Z</time>
      </trkpt>
      <trkpt lat="45.91051" lon="3.33218">
        <ele>305.6</ele>
        <time>2024-04-14T11:53:11Z</time>
      </trkpt>
      <trkpt lat="45.91057" lon="3.33222">
        <ele>305.4</ele>
        <time>2024-04-14T11:53:12Z</time>
      </trkpt>
      <trkpt lat="45.91062" lon="3.33227">
        <ele>305.6</ele>
        <time>2024-04-14T11:53:13Z</time>
      </trkpt>
      <trkpt lat="45.91073" lon="3.33239">
        <ele>305.6</ele>
        <time>2024-04-14T11:53:14Z</time>
      </trkpt>
      <trkpt lat="45.91073" lon="3.33239">
        <ele>305.6</ele>
        <time>2024-04-14T11:53:15Z</time>
      </trkpt>
      <trkpt lat="45.91078" lon="3.33245">
        <ele>305.6</ele>
        <time>2024-04-14T11:53:16Z</time>
      </trkpt>
      <trkpt lat="45.91083" lon="3.33251">
        <ele>305.6</ele>
        <time>2024-04-14T11:53:17Z</time>
      </trkpt>
      <trkpt lat="45.91094" lon="3.33263">
        <ele>305.6</ele>
        <time>2024-04-14T11:53:18Z</time>
      </trkpt>
      <trkpt lat="45.91094" lon="3.33263">
        <ele>305.6</ele>
        <time>2024-04-14T11:53:19Z</time>
      </trkpt>
      <trkpt lat="45.911" lon="3.33269">
        <ele>305.6</ele>
        <time>2024-04-14T11:53:20Z</time>
      </trkpt>
      <trkpt lat="45.91103" lon="3.33277">
        <ele>305.6</ele>
        <time>2024-04-14T11:53:21Z</time>
      </trkpt>
      <trkpt lat="45.91106" lon="3.33285">
        <ele>305.6</ele>
        <time>2024-04-14T11:53:22Z</time>
      </trkpt>
      <trkpt lat="45.91109" lon="3.33293">
        <ele>305.6</ele>
        <time>2024-04-14T11:53:23Z</time>
      </trkpt>
      <trkpt lat="45.91112" lon="3.33301">
        <ele>305.8</ele>
        <time>2024-04-14T11:53:24Z</time>
      </trkpt>
      <trkpt lat="45.91115" lon="3.33309">
        <ele>305.8</ele>
        <time>2024-04-14T11:53:25Z</time>
      </trkpt>
      <trkpt lat="45.91118" lon="3.33316">
        <ele>305.8</ele>
        <time>2024-04-14T11:53:26Z</time>
      </trkpt>
      <trkpt lat="45.9112" lon="3.33324">
        <ele>305.8</ele>
        <time>2024-04-14T11:53:27Z</time>
      </trkpt>
      <trkpt lat="45.91123" lon="3.33332">
        <ele>305.8</ele>
        <time>2024-04-14T11:53:28Z</time>
      </trkpt>
      <trkpt lat="45.91126" lon="3.3334">
        <ele>305.8</ele>
        <time>2024-04-14T11:53:29Z</time>
      </trkpt>
      <trkpt lat="45.91128" lon="3.33348">
        <ele>305.8</ele>
        <time>2024-04-14T11:53:30Z</time>
      </trkpt>
      <trkpt lat="45.91133" lon="3.33357">
        <ele>305.8</ele>
        <time>2024-04-14T11:53:31Z</time>
      </trkpt>
      <trkpt lat="45.91137" lon="3.33363">
        <ele>305.8</ele>
        <time>2024-04-14T11:53:32Z</time>
      </trkpt>
      <trkpt lat="45.91142" lon="3.33369">
        <ele>305.8</ele>
        <time>2024-04-14T11:53:33Z</time>
      </trkpt>
      <trkpt lat="45.91149" lon="3.33371">
        <ele>305.8</ele>
        <time>2024-04-14T11:53:34Z</time>
      </trkpt>
      <trkpt lat="45.91156" lon="3.33372">
        <ele>305.8</ele>
        <time>2024-04-14T11:53:35Z</time>
      </trkpt>
      <trkpt lat="45.91161" lon="3.33378">
        <ele>305.8</ele>
        <time>2024-04-14T11:53:36Z</time>
      </trkpt>
      <trkpt lat="45.91167" lon="3.33384">
        <ele>306</ele>
        <time>2024-04-14T11:53:37Z</time>
      </trkpt>
      <trkpt lat="45.91172" lon="3.3339">
        <ele>306</ele>
        <time>2024-04-14T11:53:38Z</time>
      </trkpt>
      <trkpt lat="45.91178" lon="3.33396">
        <ele>305.8</ele>
        <time>2024-04-14T11:53:39Z</time>
      </trkpt>
      <trkpt lat="45.91184" lon="3.33401">
        <ele>305.6</ele>
        <time>2024-04-14T11:53:40Z</time>
      </trkpt>
      <trkpt lat="45.91189" lon="3.33407">
        <ele>305.6</ele>
        <time>2024-04-14T11:53:41Z</time>
      </trkpt>
      <trkpt lat="45.91195" lon="3.33413">
        <ele>305.4</ele>
        <time>2024-04-14T11:53:42Z</time>
      </trkpt>
      <trkpt lat="45.912" lon="3.3342">
        <ele>305.4</ele>
        <time>2024-04-14T11:53:43Z</time>
      </trkpt>
      <trkpt lat="45.91206" lon="3.33427">
        <ele>305.4</ele>
        <time>2024-04-14T11:53:44Z</time>
      </trkpt>
      <trkpt lat="45.91211" lon="3.33433">
        <ele>305.4</ele>
        <time>2024-04-14T11:53:45Z</time>
      </trkpt>
      <trkpt lat="45.91216" lon="3.3344">
        <ele>305.4</ele>
        <time>2024-04-14T11:53:46Z</time>
      </trkpt>
      <trkpt lat="45.9122" lon="3.33446">
        <ele>305.2</ele>
        <time>2024-04-14T11:53:47Z</time>
      </trkpt>
      <trkpt lat="45.91225" lon="3.33452">
        <ele>305</ele>
        <time>2024-04-14T11:53:48Z</time>
      </trkpt>
      <trkpt lat="45.9123" lon="3.33458">
        <ele>304.8</ele>
        <time>2024-04-14T11:53:49Z</time>
      </trkpt>
      <trkpt lat="45.91235" lon="3.33465">
        <ele>304.8</ele>
        <time>2024-04-14T11:53:50Z</time>
      </trkpt>
      <trkpt lat="45.9124" lon="3.33471">
        <ele>304.6</ele>
        <time>2024-04-14T11:53:51Z</time>
      </trkpt>
      <trkpt lat="45.91245" lon="3.33477">
        <ele>304.6</ele>
        <time>2024-04-14T11:53:52Z</time>
      </trkpt>
      <trkpt lat="45.9125" lon="3.33483">
        <ele>304.6</ele>
        <time>2024-04-14T11:53:53Z</time>
      </trkpt>
      <trkpt lat="45.91255" lon="3.3349">
        <ele>304.4</ele>
        <time>2024-04-14T11:53:54Z</time>
      </trkpt>
      <trkpt lat="45.9126" lon="3.33496">
        <ele>304.4</ele>
        <time>2024-04-14T11:53:55Z</time>
      </trkpt>
      <trkpt lat="45.91264" lon="3.33502">
        <ele>304.2</ele>
        <time>2024-04-14T11:53:56Z</time>
      </trkpt>
      <trkpt lat="45.91269" lon="3.33509">
        <ele>304.2</ele>
        <time>2024-04-14T11:53:57Z</time>
      </trkpt>
      <trkpt lat="45.91274" lon="3.33515">
        <ele>304.2</ele>
        <time>2024-04-14T11:53:58Z</time>
      </trkpt>
      <trkpt lat="45.91279" lon="3.33521">
        <ele>304</ele>
        <time>2024-04-14T11:53:59Z</time>
      </trkpt>
      <trkpt lat="45.91284" lon="3.33528">
        <ele>304</ele>
        <time>2024-04-14T11:54:00Z</time>
      </trkpt>
      <trkpt lat="45.9129" lon="3.33532">
        <ele>304</ele>
        <time>2024-04-14T11:54:01Z</time>
      </trkpt>
      <trkpt lat="45.91295" lon="3.33536">
        <ele>304</ele>
        <time>2024-04-14T11:54:02Z</time>
      </trkpt>
      <trkpt lat="45.91301" lon="3.3354">
        <ele>303.8</ele>
        <time>2024-04-14T11:54:03Z</time>
      </trkpt>
      <trkpt lat="45.91307" lon="3.33544">
        <ele>303.8</ele>
        <time>2024-04-14T11:54:04Z</time>
      </trkpt>
      <trkpt lat="45.91313" lon="3.33548">
        <ele>303.8</ele>
        <time>2024-04-14T11:54:05Z</time>
      </trkpt>
      <trkpt lat="45.91319" lon="3.33552">
        <ele>303.6</ele>
        <time>2024-04-14T11:54:06Z</time>
      </trkpt>
      <trkpt lat="45.91325" lon="3.33556">
        <ele>303.4</ele>
        <time>2024-04-14T11:54:07Z</time>
      </trkpt>
      <trkpt lat="45.91332" lon="3.3356">
        <ele>303.4</ele>
        <time>2024-04-14T11:54:08Z</time>
      </trkpt>
      <trkpt lat="45.91338" lon="3.33564">
        <ele>303.4</ele>
        <time>2024-04-14T11:54:09Z</time>
      </trkpt>
      <trkpt lat="45.91344" lon="3.33568">
        <ele>303.2</ele>
        <time>2024-04-14T11:54:10Z</time>
      </trkpt>
      <trkpt lat="45.9135" lon="3.33572">
        <ele>303.2</ele>
        <time>2024-04-14T11:54:11Z</time>
      </trkpt>
      <trkpt lat="45.91356" lon="3.33577">
        <ele>303.2</ele>
        <time>2024-04-14T11:54:12Z</time>
      </trkpt>
      <trkpt lat="45.91362" lon="3.33579">
        <ele>303.2</ele>
        <time>2024-04-14T11:54:13Z</time>
      </trkpt>
      <trkpt lat="45.91368" lon="3.33581">
        <ele>303</ele>
        <time>2024-04-14T11:54:14Z</time>
      </trkpt>
      <trkpt lat="45.91375" lon="3.33584">
        <ele>303</ele>
        <time>2024-04-14T11:54:15Z</time>
      </trkpt>
      <trkpt lat="45.91381" lon="3.33587">
        <ele>303</ele>
        <time>2024-04-14T11:54:16Z</time>
      </trkpt>
      <trkpt lat="45.91387" lon="3.33589">
        <ele>303</ele>
        <time>2024-04-14T11:54:17Z</time>
      </trkpt>
      <trkpt lat="45.91394" lon="3.33592">
        <ele>303</ele>
        <time>2024-04-14T11:54:18Z</time>
      </trkpt>
      <trkpt lat="45.914" lon="3.33594">
        <ele>302.8</ele>
        <time>2024-04-14T11:54:19Z</time>
      </trkpt>
      <trkpt lat="45.91406" lon="3.33597">
        <ele>302.8</ele>
        <time>2024-04-14T11:54:20Z</time>
      </trkpt>
      <trkpt lat="45.91413" lon="3.33599">
        <ele>302.8</ele>
        <time>2024-04-14T11:54:21Z</time>
      </trkpt>
      <trkpt lat="45.91419" lon="3.33602">
        <ele>302.8</ele>
        <time>2024-04-14T11:54:22Z</time>
      </trkpt>
      <trkpt lat="45.91426" lon="3.33604">
        <ele>302.8</ele>
        <time>2024-04-14T11:54:23Z</time>
      </trkpt>
      <trkpt lat="45.91432" lon="3.33606">
        <ele>302.6</ele>
        <time>2024-04-14T11:54:24Z</time>
      </trkpt>
      <trkpt lat="45.91439" lon="3.33607">
        <ele>302.8</ele>
        <time>2024-04-14T11:54:25Z</time>
      </trkpt>
      <trkpt lat="45.91445" lon="3.33609">
        <ele>302.8</ele>
        <time>2024-04-14T11:54:26Z</time>
      </trkpt>
      <trkpt lat="45.91451" lon="3.33611">
        <ele>302.8</ele>
        <time>2024-04-14T11:54:27Z</time>
      </trkpt>
      <trkpt lat="45.91458" lon="3.33612">
        <ele>302.8</ele>
        <time>2024-04-14T11:54:28Z</time>
      </trkpt>
      <trkpt lat="45.91464" lon="3.33614">
        <ele>302.8</ele>
        <time>2024-04-14T11:54:29Z</time>
      </trkpt>
      <trkpt lat="45.91471" lon="3.33615">
        <ele>302.8</ele>
        <time>2024-04-14T11:54:30Z</time>
      </trkpt>
      <trkpt lat="45.91477" lon="3.33617">
        <ele>302.8</ele>
        <time>2024-04-14T11:54:31Z</time>
      </trkpt>
      <trkpt lat="45.91484" lon="3.33619">
        <ele>302.6</ele>
        <time>2024-04-14T11:54:32Z</time>
      </trkpt>
      <trkpt lat="45.91491" lon="3.3362">
        <ele>302.6</ele>
        <time>2024-04-14T11:54:33Z</time>
      </trkpt>
      <trkpt lat="45.91497" lon="3.33622">
        <ele>302.6</ele>
        <time>2024-04-14T11:54:34Z</time>
      </trkpt>
      <trkpt lat="45.91504" lon="3.33624">
        <ele>302.6</ele>
        <time>2024-04-14T11:54:35Z</time>
      </trkpt>
      <trkpt lat="45.91511" lon="3.33625">
        <ele>302.6</ele>
        <time>2024-04-14T11:54:36Z</time>
      </trkpt>
      <trkpt lat="45.91518" lon="3.33627">
        <ele>302.6</ele>
        <time>2024-04-14T11:54:37Z</time>
      </trkpt>
      <trkpt lat="45.91524" lon="3.33629">
        <ele>302.6</ele>
        <time>2024-04-14T11:54:38Z</time>
      </trkpt>
      <trkpt lat="45.91531" lon="3.3363">
        <ele>302.6</ele>
        <time>2024-04-14T11:54:39Z</time>
      </trkpt>
      <trkpt lat="45.91538" lon="3.33632">
        <ele>302.6</ele>
        <time>2024-04-14T11:54:40Z</time>
      </trkpt>
      <trkpt lat="45.91545" lon="3.33634">
        <ele>302.6</ele>
        <time>2024-04-14T11:54:41Z</time>
      </trkpt>
      <trkpt lat="45.91552" lon="3.33635">
        <ele>302.6</ele>
        <time>2024-04-14T11:54:42Z</time>
      </trkpt>
      <trkpt lat="45.91558" lon="3.33637">
        <ele>302.6</ele>
        <time>2024-04-14T11:54:43Z</time>
      </trkpt>
      <trkpt lat="45.91565" lon="3.33639">
        <ele>302.6</ele>
        <time>2024-04-14T11:54:44Z</time>
      </trkpt>
      <trkpt lat="45.91572" lon="3.33641">
        <ele>302.6</ele>
        <time>2024-04-14T11:54:45Z</time>
      </trkpt>
      <trkpt lat="45.91579" lon="3.33642">
        <ele>302.6</ele>
        <time>2024-04-14T11:54:46Z</time>
      </trkpt>
      <trkpt lat="45.91586" lon="3.33644">
        <ele>302.6</ele>
        <time>2024-04-14T11:54:47Z</time>
      </trkpt>
      <trkpt lat="45.91593" lon="3.33646">
        <ele>302.6</ele>
        <time>2024-04-14T11:54:48Z</time>
      </trkpt>
      <trkpt lat="45.916" lon="3.33647">
        <ele>302.6</ele>
        <time>2024-04-14T11:54:49Z</time>
      </trkpt>
      <trkpt lat="45.91607" lon="3.33649">
        <ele>302.6</ele>
        <time>2024-04-14T11:54:50Z</time>
      </trkpt>
      <trkpt lat="45.91614" lon="3.33651">
        <ele>302.4</ele>
        <time>2024-04-14T11:54:51Z</time>
      </trkpt>
      <trkpt lat="45.91621" lon="3.33653">
        <ele>302.6</ele>
        <time>2024-04-14T11:54:52Z</time>
      </trkpt>
      <trkpt lat="45.91627" lon="3.33654">
        <ele>302.6</ele>
        <time>2024-04-14T11:54:53Z</time>
      </trkpt>
      <trkpt lat="45.91634" lon="3.33656">
        <ele>302.8</ele>
        <time>2024-04-14T11:54:54Z</time>
      </trkpt>
      <trkpt lat="45.91641" lon="3.33658">
        <ele>302.8</ele>
        <time>2024-04-14T11:54:55Z</time>
      </trkpt>
      <trkpt lat="45.91648" lon="3.33659">
        <ele>302.8</ele>
        <time>2024-04-14T11:54:56Z</time>
      </trkpt>
      <trkpt lat="45.91655" lon="3.33661">
        <ele>302.6</ele>
        <time>2024-04-14T11:54:57Z</time>
      </trkpt>
      <trkpt lat="45.91662" lon="3.33663">
        <ele>302.6</ele>
        <time>2024-04-14T11:54:58Z</time>
      </trkpt>
      <trkpt lat="45.91669" lon="3.33666">
        <ele>302.6</ele>
        <time>2024-04-14T11:54:59Z</time>
      </trkpt>
      <trkpt lat="45.91676" lon="3.33668">
        <ele>302.6</ele>
        <time>2024-04-14T11:55:00Z</time>
      </trkpt>
      <trkpt lat="45.91682" lon="3.33671">
        <ele>302.8</ele>
        <time>2024-04-14T11:55:01Z</time>
      </trkpt>
      <trkpt lat="45.91689" lon="3.33673">
        <ele>302.8</ele>
        <time>2024-04-14T11:55:02Z</time>
      </trkpt>
      <trkpt lat="45.91696" lon="3.33675">
        <ele>302.8</ele>
        <time>2024-04-14T11:55:03Z</time>
      </trkpt>
      <trkpt lat="45.91702" lon="3.33678">
        <ele>302.6</ele>
        <time>2024-04-14T11:55:04Z</time>
      </trkpt>
      <trkpt lat="45.91709" lon="3.3368">
        <ele>302.6</ele>
        <time>2024-04-14T11:55:05Z</time>
      </trkpt>
      <trkpt lat="45.91716" lon="3.33683">
        <ele>302.8</ele>
        <time>2024-04-14T11:55:06Z</time>
      </trkpt>
      <trkpt lat="45.91722" lon="3.33685">
        <ele>302.8</ele>
        <time>2024-04-14T11:55:07Z</time>
      </trkpt>
      <trkpt lat="45.91729" lon="3.33688">
        <ele>302.8</ele>
        <time>2024-04-14T11:55:08Z</time>
      </trkpt>
      <trkpt lat="45.91735" lon="3.3369">
        <ele>302.6</ele>
        <time>2024-04-14T11:55:09Z</time>
      </trkpt>
      <trkpt lat="45.91742" lon="3.33693">
        <ele>302.6</ele>
        <time>2024-04-14T11:55:10Z</time>
      </trkpt>
      <trkpt lat="45.91749" lon="3.33695">
        <ele>302.6</ele>
        <time>2024-04-14T11:55:11Z</time>
      </trkpt>
      <trkpt lat="45.91755" lon="3.33698">
        <ele>302.8</ele>
        <time>2024-04-14T11:55:12Z</time>
      </trkpt>
      <trkpt lat="45.91762" lon="3.337">
        <ele>302.8</ele>
        <time>2024-04-14T11:55:13Z</time>
      </trkpt>
      <trkpt lat="45.91768" lon="3.33703">
        <ele>302.6</ele>
        <time>2024-04-14T11:55:14Z</time>
      </trkpt>
      <trkpt lat="45.91775" lon="3.33706">
        <ele>302.8</ele>
        <time>2024-04-14T11:55:15Z</time>
      </trkpt>
      <trkpt lat="45.91781" lon="3.33709">
        <ele>302.6</ele>
        <time>2024-04-14T11:55:16Z</time>
      </trkpt>
      <trkpt lat="45.91788" lon="3.33712">
        <ele>302.8</ele>
        <time>2024-04-14T11:55:17Z</time>
      </trkpt>
      <trkpt lat="45.91795" lon="3.33715">
        <ele>302.8</ele>
        <time>2024-04-14T11:55:18Z</time>
      </trkpt>
      <trkpt lat="45.91801" lon="3.33718">
        <ele>302.8</ele>
        <time>2024-04-14T11:55:19Z</time>
      </trkpt>
      <trkpt lat="45.91808" lon="3.33721">
        <ele>302.8</ele>
        <time>2024-04-14T11:55:20Z</time>
      </trkpt>
      <trkpt lat="45.91814" lon="3.33724">
        <ele>302.8</ele>
        <time>2024-04-14T11:55:21Z</time>
      </trkpt>
      <trkpt lat="45.91821" lon="3.33726">
        <ele>302.8</ele>
        <time>2024-04-14T11:55:22Z</time>
      </trkpt>
      <trkpt lat="45.91827" lon="3.33729">
        <ele>302.8</ele>
        <time>2024-04-14T11:55:23Z</time>
      </trkpt>
      <trkpt lat="45.91834" lon="3.33732">
        <ele>302.8</ele>
        <time>2024-04-14T11:55:24Z</time>
      </trkpt>
      <trkpt lat="45.9184" lon="3.33735">
        <ele>302.8</ele>
        <time>2024-04-14T11:55:25Z</time>
      </trkpt>
      <trkpt lat="45.91846" lon="3.33738">
        <ele>302.8</ele>
        <time>2024-04-14T11:55:26Z</time>
      </trkpt>
      <trkpt lat="45.91853" lon="3.3374">
        <ele>302.8</ele>
        <time>2024-04-14T11:55:27Z</time>
      </trkpt>
      <trkpt lat="45.91859" lon="3.33743">
        <ele>303</ele>
        <time>2024-04-14T11:55:28Z</time>
      </trkpt>
      <trkpt lat="45.91865" lon="3.33746">
        <ele>303</ele>
        <time>2024-04-14T11:55:29Z</time>
      </trkpt>
      <trkpt lat="45.91871" lon="3.33749">
        <ele>303</ele>
        <time>2024-04-14T11:55:30Z</time>
      </trkpt>
      <trkpt lat="45.91877" lon="3.33752">
        <ele>303</ele>
        <time>2024-04-14T11:55:31Z</time>
      </trkpt>
      <trkpt lat="45.91884" lon="3.33754">
        <ele>303</ele>
        <time>2024-04-14T11:55:32Z</time>
      </trkpt>
      <trkpt lat="45.9189" lon="3.33757">
        <ele>303</ele>
        <time>2024-04-14T11:55:33Z</time>
      </trkpt>
      <trkpt lat="45.91897" lon="3.3376">
        <ele>303</ele>
        <time>2024-04-14T11:55:34Z</time>
      </trkpt>
      <trkpt lat="45.91904" lon="3.33763">
        <ele>303</ele>
        <time>2024-04-14T11:55:35Z</time>
      </trkpt>
      <trkpt lat="45.9191" lon="3.33766">
        <ele>303</ele>
        <time>2024-04-14T11:55:36Z</time>
      </trkpt>
      <trkpt lat="45.91917" lon="3.33769">
        <ele>303</ele>
        <time>2024-04-14T11:55:37Z</time>
      </trkpt>
      <trkpt lat="45.91929" lon="3.33777">
        <ele>303</ele>
        <time>2024-04-14T11:55:38Z</time>
      </trkpt>
      <trkpt lat="45.91929" lon="3.33777">
        <ele>303</ele>
        <time>2024-04-14T11:55:39Z</time>
      </trkpt>
      <trkpt lat="45.91935" lon="3.3378">
        <ele>303</ele>
        <time>2024-04-14T11:55:40Z</time>
      </trkpt>
      <trkpt lat="45.91941" lon="3.33784">
        <ele>303</ele>
        <time>2024-04-14T11:55:41Z</time>
      </trkpt>
      <trkpt lat="45.91947" lon="3.33788">
        <ele>303</ele>
        <time>2024-04-14T11:55:42Z</time>
      </trkpt>
      <trkpt lat="45.91954" lon="3.33792">
        <ele>303</ele>
        <time>2024-04-14T11:55:43Z</time>
      </trkpt>
      <trkpt lat="45.9196" lon="3.33796">
        <ele>303</ele>
        <time>2024-04-14T11:55:44Z</time>
      </trkpt>
      <trkpt lat="45.91966" lon="3.338">
        <ele>303</ele>
        <time>2024-04-14T11:55:45Z</time>
      </trkpt>
      <trkpt lat="45.91973" lon="3.33804">
        <ele>303</ele>
        <time>2024-04-14T11:55:46Z</time>
      </trkpt>
      <trkpt lat="45.91979" lon="3.33809">
        <ele>302.8</ele>
        <time>2024-04-14T11:55:47Z</time>
      </trkpt>
      <trkpt lat="45.91985" lon="3.33813">
        <ele>303</ele>
        <time>2024-04-14T11:55:48Z</time>
      </trkpt>
      <trkpt lat="45.91992" lon="3.33817">
        <ele>302.8</ele>
        <time>2024-04-14T11:55:49Z</time>
      </trkpt>
      <trkpt lat="45.91998" lon="3.33821">
        <ele>302.8</ele>
        <time>2024-04-14T11:55:50Z</time>
      </trkpt>
      <trkpt lat="45.92004" lon="3.33825">
        <ele>302.8</ele>
        <time>2024-04-14T11:55:51Z</time>
      </trkpt>
      <trkpt lat="45.9201" lon="3.33828">
        <ele>302.8</ele>
        <time>2024-04-14T11:55:52Z</time>
      </trkpt>
      <trkpt lat="45.92015" lon="3.33835">
        <ele>302.8</ele>
        <time>2024-04-14T11:55:53Z</time>
      </trkpt>
      <trkpt lat="45.92018" lon="3.33843">
        <ele>302.6</ele>
        <time>2024-04-14T11:55:54Z</time>
      </trkpt>
      <trkpt lat="45.92021" lon="3.33849">
        <ele>302.6</ele>
        <time>2024-04-14T11:55:55Z</time>
      </trkpt>
      <trkpt lat="45.92022" lon="3.3386">
        <ele>302.6</ele>
        <time>2024-04-14T11:55:56Z</time>
      </trkpt>
      <trkpt lat="45.92023" lon="3.3387">
        <ele>302.6</ele>
        <time>2024-04-14T11:55:57Z</time>
      </trkpt>
      <trkpt lat="45.92024" lon="3.3388">
        <ele>302.6</ele>
        <time>2024-04-14T11:55:58Z</time>
      </trkpt>
      <trkpt lat="45.92025" lon="3.3389">
        <ele>302.4</ele>
        <time>2024-04-14T11:55:59Z</time>
      </trkpt>
      <trkpt lat="45.92026" lon="3.339">
        <ele>302.4</ele>
        <time>2024-04-14T11:56:00Z</time>
      </trkpt>
      <trkpt lat="45.92027" lon="3.3391">
        <ele>302.4</ele>
        <time>2024-04-14T11:56:01Z</time>
      </trkpt>
      <trkpt lat="45.92028" lon="3.33921">
        <ele>302.2</ele>
        <time>2024-04-14T11:56:02Z</time>
      </trkpt>
      <trkpt lat="45.92029" lon="3.33931">
        <ele>302.2</ele>
        <time>2024-04-14T11:56:03Z</time>
      </trkpt>
      <trkpt lat="45.9203" lon="3.33942">
        <ele>302.2</ele>
        <time>2024-04-14T11:56:04Z</time>
      </trkpt>
      <trkpt lat="45.92033" lon="3.33952">
        <ele>302</ele>
        <time>2024-04-14T11:56:05Z</time>
      </trkpt>
      <trkpt lat="45.92035" lon="3.33962">
        <ele>302</ele>
        <time>2024-04-14T11:56:06Z</time>
      </trkpt>
      <trkpt lat="45.92038" lon="3.33972">
        <ele>302</ele>
        <time>2024-04-14T11:56:07Z</time>
      </trkpt>
      <trkpt lat="45.9204" lon="3.33982">
        <ele>301.8</ele>
        <time>2024-04-14T11:56:08Z</time>
      </trkpt>
      <trkpt lat="45.92042" lon="3.33992">
        <ele>301.8</ele>
        <time>2024-04-14T11:56:09Z</time>
      </trkpt>
      <trkpt lat="45.92045" lon="3.34002">
        <ele>301.8</ele>
        <time>2024-04-14T11:56:10Z</time>
      </trkpt>
      <trkpt lat="45.92047" lon="3.34012">
        <ele>301.6</ele>
        <time>2024-04-14T11:56:11Z</time>
      </trkpt>
      <trkpt lat="45.92049" lon="3.34021">
        <ele>301.6</ele>
        <time>2024-04-14T11:56:12Z</time>
      </trkpt>
      <trkpt lat="45.92053" lon="3.3403">
        <ele>301.6</ele>
        <time>2024-04-14T11:56:13Z</time>
      </trkpt>
      <trkpt lat="45.92057" lon="3.34038">
        <ele>301.4</ele>
        <time>2024-04-14T11:56:14Z</time>
      </trkpt>
      <trkpt lat="45.92061" lon="3.34047">
        <ele>301.4</ele>
        <time>2024-04-14T11:56:15Z</time>
      </trkpt>
      <trkpt lat="45.92065" lon="3.34055">
        <ele>301.2</ele>
        <time>2024-04-14T11:56:16Z</time>
      </trkpt>
      <trkpt lat="45.92068" lon="3.34064">
        <ele>301.2</ele>
        <time>2024-04-14T11:56:17Z</time>
      </trkpt>
      <trkpt lat="45.92072" lon="3.34072">
        <ele>301</ele>
        <time>2024-04-14T11:56:18Z</time>
      </trkpt>
      <trkpt lat="45.92076" lon="3.34081">
        <ele>301</ele>
        <time>2024-04-14T11:56:19Z</time>
      </trkpt>
      <trkpt lat="45.9208" lon="3.34089">
        <ele>301</ele>
        <time>2024-04-14T11:56:20Z</time>
      </trkpt>
      <trkpt lat="45.92084" lon="3.34098">
        <ele>300.8</ele>
        <time>2024-04-14T11:56:21Z</time>
      </trkpt>
      <trkpt lat="45.92088" lon="3.34106">
        <ele>300.8</ele>
        <time>2024-04-14T11:56:22Z</time>
      </trkpt>
      <trkpt lat="45.92089" lon="3.34116">
        <ele>300.6</ele>
        <time>2024-04-14T11:56:23Z</time>
      </trkpt>
      <trkpt lat="45.92089" lon="3.34127">
        <ele>300.6</ele>
        <time>2024-04-14T11:56:24Z</time>
      </trkpt>
      <trkpt lat="45.9209" lon="3.34137">
        <ele>300.4</ele>
        <time>2024-04-14T11:56:25Z</time>
      </trkpt>
      <trkpt lat="45.92091" lon="3.34147">
        <ele>300.4</ele>
        <time>2024-04-14T11:56:26Z</time>
      </trkpt>
      <trkpt lat="45.92092" lon="3.34158">
        <ele>300.2</ele>
        <time>2024-04-14T11:56:27Z</time>
      </trkpt>
      <trkpt lat="45.92093" lon="3.34168">
        <ele>300.2</ele>
        <time>2024-04-14T11:56:28Z</time>
      </trkpt>
      <trkpt lat="45.92094" lon="3.34179">
        <ele>300</ele>
        <time>2024-04-14T11:56:29Z</time>
      </trkpt>
      <trkpt lat="45.92095" lon="3.34189">
        <ele>299.8</ele>
        <time>2024-04-14T11:56:30Z</time>
      </trkpt>
      <trkpt lat="45.92095" lon="3.342">
        <ele>299.8</ele>
        <time>2024-04-14T11:56:31Z</time>
      </trkpt>
      <trkpt lat="45.92096" lon="3.3421">
        <ele>299.6</ele>
        <time>2024-04-14T11:56:32Z</time>
      </trkpt>
      <trkpt lat="45.92097" lon="3.34221">
        <ele>299.6</ele>
        <time>2024-04-14T11:56:33Z</time>
      </trkpt>
      <trkpt lat="45.92098" lon="3.34231">
        <ele>299.4</ele>
        <time>2024-04-14T11:56:34Z</time>
      </trkpt>
      <trkpt lat="45.92099" lon="3.34242">
        <ele>299.4</ele>
        <time>2024-04-14T11:56:35Z</time>
      </trkpt>
      <trkpt lat="45.921" lon="3.34253">
        <ele>299.4</ele>
        <time>2024-04-14T11:56:36Z</time>
      </trkpt>
      <trkpt lat="45.92101" lon="3.34263">
        <ele>299.2</ele>
        <time>2024-04-14T11:56:37Z</time>
      </trkpt>
      <trkpt lat="45.92101" lon="3.34274">
        <ele>299.2</ele>
        <time>2024-04-14T11:56:38Z</time>
      </trkpt>
      <trkpt lat="45.92101" lon="3.34284">
        <ele>299.2</ele>
        <time>2024-04-14T11:56:39Z</time>
      </trkpt>
      <trkpt lat="45.92101" lon="3.34295">
        <ele>299</ele>
        <time>2024-04-14T11:56:40Z</time>
      </trkpt>
      <trkpt lat="45.92101" lon="3.34305">
        <ele>298.8</ele>
        <time>2024-04-14T11:56:41Z</time>
      </trkpt>
      <trkpt lat="45.92101" lon="3.34315">
        <ele>298.8</ele>
        <time>2024-04-14T11:56:42Z</time>
      </trkpt>
      <trkpt lat="45.92101" lon="3.34325">
        <ele>298.8</ele>
        <time>2024-04-14T11:56:43Z</time>
      </trkpt>
      <trkpt lat="45.92101" lon="3.34335">
        <ele>298.6</ele>
        <time>2024-04-14T11:56:44Z</time>
      </trkpt>
      <trkpt lat="45.921" lon="3.34345">
        <ele>298.4</ele>
        <time>2024-04-14T11:56:45Z</time>
      </trkpt>
      <trkpt lat="45.92098" lon="3.34355">
        <ele>298.4</ele>
        <time>2024-04-14T11:56:46Z</time>
      </trkpt>
      <trkpt lat="45.92096" lon="3.34364">
        <ele>298.2</ele>
        <time>2024-04-14T11:56:47Z</time>
      </trkpt>
      <trkpt lat="45.92094" lon="3.34374">
        <ele>298</ele>
        <time>2024-04-14T11:56:48Z</time>
      </trkpt>
      <trkpt lat="45.92092" lon="3.34383">
        <ele>297.8</ele>
        <time>2024-04-14T11:56:49Z</time>
      </trkpt>
      <trkpt lat="45.9209" lon="3.34392">
        <ele>297.6</ele>
        <time>2024-04-14T11:56:50Z</time>
      </trkpt>
      <trkpt lat="45.92085" lon="3.34401">
        <ele>297.6</ele>
        <time>2024-04-14T11:56:51Z</time>
      </trkpt>
      <trkpt lat="45.92081" lon="3.34408">
        <ele>297.4</ele>
        <time>2024-04-14T11:56:52Z</time>
      </trkpt>
      <trkpt lat="45.92077" lon="3.34414">
        <ele>297.2</ele>
        <time>2024-04-14T11:56:53Z</time>
      </trkpt>
      <trkpt lat="45.92072" lon="3.3442">
        <ele>297</ele>
        <time>2024-04-14T11:56:54Z</time>
      </trkpt>
      <trkpt lat="45.92068" lon="3.34427">
        <ele>297</ele>
        <time>2024-04-14T11:56:55Z</time>
      </trkpt>
      <trkpt lat="45.92063" lon="3.34432">
        <ele>296.8</ele>
        <time>2024-04-14T11:56:56Z</time>
      </trkpt>
      <trkpt lat="45.92059" lon="3.34438">
        <ele>296.6</ele>
        <time>2024-04-14T11:56:57Z</time>
      </trkpt>
      <trkpt lat="45.92054" lon="3.34443">
        <ele>296.4</ele>
        <time>2024-04-14T11:56:58Z</time>
      </trkpt>
      <trkpt lat="45.9205" lon="3.34448">
        <ele>296.4</ele>
        <time>2024-04-14T11:56:59Z</time>
      </trkpt>
      <trkpt lat="45.92045" lon="3.34453">
        <ele>296.2</ele>
        <time>2024-04-14T11:57:00Z</time>
      </trkpt>
      <trkpt lat="45.92041" lon="3.34458">
        <ele>296</ele>
        <time>2024-04-14T11:57:01Z</time>
      </trkpt>
      <trkpt lat="45.92036" lon="3.34463">
        <ele>295.8</ele>
        <time>2024-04-14T11:57:02Z</time>
      </trkpt>
      <trkpt lat="45.92032" lon="3.34468">
        <ele>295.8</ele>
        <time>2024-04-14T11:57:03Z</time>
      </trkpt>
      <trkpt lat="45.92028" lon="3.34473">
        <ele>295.6</ele>
        <time>2024-04-14T11:57:04Z</time>
      </trkpt>
      <trkpt lat="45.92023" lon="3.34478">
        <ele>295.6</ele>
        <time>2024-04-14T11:57:05Z</time>
      </trkpt>
      <trkpt lat="45.92017" lon="3.34481">
        <ele>295.4</ele>
        <time>2024-04-14T11:57:06Z</time>
      </trkpt>
      <trkpt lat="45.92012" lon="3.34485">
        <ele>295.4</ele>
        <time>2024-04-14T11:57:07Z</time>
      </trkpt>
      <trkpt lat="45.92006" lon="3.34488">
        <ele>295.2</ele>
        <time>2024-04-14T11:57:08Z</time>
      </trkpt>
      <trkpt lat="45.92001" lon="3.34492">
        <ele>295.2</ele>
        <time>2024-04-14T11:57:09Z</time>
      </trkpt>
      <trkpt lat="45.91996" lon="3.34495">
        <ele>295</ele>
        <time>2024-04-14T11:57:10Z</time>
      </trkpt>
      <trkpt lat="45.91991" lon="3.34498">
        <ele>295</ele>
        <time>2024-04-14T11:57:11Z</time>
      </trkpt>
      <trkpt lat="45.91986" lon="3.34502">
        <ele>295</ele>
        <time>2024-04-14T11:57:12Z</time>
      </trkpt>
      <trkpt lat="45.91981" lon="3.34506">
        <ele>294.8</ele>
        <time>2024-04-14T11:57:13Z</time>
      </trkpt>
      <trkpt lat="45.91976" lon="3.3451">
        <ele>294.8</ele>
        <time>2024-04-14T11:57:14Z</time>
      </trkpt>
      <trkpt lat="45.91971" lon="3.34514">
        <ele>294.8</ele>
        <time>2024-04-14T11:57:15Z</time>
      </trkpt>
      <trkpt lat="45.91966" lon="3.34518">
        <ele>294.8</ele>
        <time>2024-04-14T11:57:16Z</time>
      </trkpt>
      <trkpt lat="45.9196" lon="3.34522">
        <ele>294.6</ele>
        <time>2024-04-14T11:57:17Z</time>
      </trkpt>
      <trkpt lat="45.91955" lon="3.34526">
        <ele>294.6</ele>
        <time>2024-04-14T11:57:18Z</time>
      </trkpt>
      <trkpt lat="45.9195" lon="3.3453">
        <ele>294.4</ele>
        <time>2024-04-14T11:57:19Z</time>
      </trkpt>
      <trkpt lat="45.91944" lon="3.34534">
        <ele>294.4</ele>
        <time>2024-04-14T11:57:20Z</time>
      </trkpt>
      <trkpt lat="45.91938" lon="3.34541">
        <ele>294.2</ele>
        <time>2024-04-14T11:57:21Z</time>
      </trkpt>
      <trkpt lat="45.91933" lon="3.34548">
        <ele>294</ele>
        <time>2024-04-14T11:57:22Z</time>
      </trkpt>
      <trkpt lat="45.91927" lon="3.34555">
        <ele>293.8</ele>
        <time>2024-04-14T11:57:23Z</time>
      </trkpt>
      <trkpt lat="45.91922" lon="3.34563">
        <ele>293.6</ele>
        <time>2024-04-14T11:57:24Z</time>
      </trkpt>
      <trkpt lat="45.91916" lon="3.34571">
        <ele>293.6</ele>
        <time>2024-04-14T11:57:25Z</time>
      </trkpt>
      <trkpt lat="45.9191" lon="3.34579">
        <ele>293.4</ele>
        <time>2024-04-14T11:57:26Z</time>
      </trkpt>
      <trkpt lat="45.91904" lon="3.34588">
        <ele>293.2</ele>
        <time>2024-04-14T11:57:27Z</time>
      </trkpt>
      <trkpt lat="45.91898" lon="3.34597">
        <ele>293</ele>
        <time>2024-04-14T11:57:28Z</time>
      </trkpt>
      <trkpt lat="45.91892" lon="3.34607">
        <ele>292.8</ele>
        <time>2024-04-14T11:57:29Z</time>
      </trkpt>
      <trkpt lat="45.91887" lon="3.34616">
        <ele>292.6</ele>
        <time>2024-04-14T11:57:30Z</time>
      </trkpt>
      <trkpt lat="45.91882" lon="3.34627">
        <ele>292.4</ele>
        <time>2024-04-14T11:57:31Z</time>
      </trkpt>
      <trkpt lat="45.91877" lon="3.34638">
        <ele>292.2</ele>
        <time>2024-04-14T11:57:32Z</time>
      </trkpt>
      <trkpt lat="45.91872" lon="3.34648">
        <ele>292.2</ele>
        <time>2024-04-14T11:57:33Z</time>
      </trkpt>
      <trkpt lat="45.91867" lon="3.34659">
        <ele>292</ele>
        <time>2024-04-14T11:57:34Z</time>
      </trkpt>
      <trkpt lat="45.91862" lon="3.3467">
        <ele>292</ele>
        <time>2024-04-14T11:57:35Z</time>
      </trkpt>
      <trkpt lat="45.91856" lon="3.34681">
        <ele>291.8</ele>
        <time>2024-04-14T11:57:36Z</time>
      </trkpt>
      <trkpt lat="45.91852" lon="3.34694">
        <ele>291.8</ele>
        <time>2024-04-14T11:57:37Z</time>
      </trkpt>
      <trkpt lat="45.91849" lon="3.34707">
        <ele>291.6</ele>
        <time>2024-04-14T11:57:38Z</time>
      </trkpt>
      <trkpt lat="45.91845" lon="3.34719">
        <ele>291.6</ele>
        <time>2024-04-14T11:57:39Z</time>
      </trkpt>
      <trkpt lat="45.91842" lon="3.34732">
        <ele>291.4</ele>
        <time>2024-04-14T11:57:40Z</time>
      </trkpt>
      <trkpt lat="45.91838" lon="3.34745">
        <ele>291.2</ele>
        <time>2024-04-14T11:57:41Z</time>
      </trkpt>
      <trkpt lat="45.91835" lon="3.34757">
        <ele>291</ele>
        <time>2024-04-14T11:57:42Z</time>
      </trkpt>
      <trkpt lat="45.91831" lon="3.3477">
        <ele>291</ele>
        <time>2024-04-14T11:57:43Z</time>
      </trkpt>
      <trkpt lat="45.91828" lon="3.34782">
        <ele>290.8</ele>
        <time>2024-04-14T11:57:44Z</time>
      </trkpt>
      <trkpt lat="45.91824" lon="3.34795">
        <ele>290.6</ele>
        <time>2024-04-14T11:57:45Z</time>
      </trkpt>
      <trkpt lat="45.9182" lon="3.34808">
        <ele>290.6</ele>
        <time>2024-04-14T11:57:46Z</time>
      </trkpt>
      <trkpt lat="45.91817" lon="3.34821">
        <ele>290.4</ele>
        <time>2024-04-14T11:57:47Z</time>
      </trkpt>
      <trkpt lat="45.91813" lon="3.34834">
        <ele>290.2</ele>
        <time>2024-04-14T11:57:48Z</time>
      </trkpt>
      <trkpt lat="45.91809" lon="3.34847">
        <ele>290</ele>
        <time>2024-04-14T11:57:49Z</time>
      </trkpt>
      <trkpt lat="45.91805" lon="3.3486">
        <ele>290</ele>
        <time>2024-04-14T11:57:50Z</time>
      </trkpt>
      <trkpt lat="45.91802" lon="3.34874">
        <ele>289.8</ele>
        <time>2024-04-14T11:57:51Z</time>
      </trkpt>
      <trkpt lat="45.91798" lon="3.34887">
        <ele>289.8</ele>
        <time>2024-04-14T11:57:52Z</time>
      </trkpt>
      <trkpt lat="45.91794" lon="3.34901">
        <ele>289.6</ele>
        <time>2024-04-14T11:57:53Z</time>
      </trkpt>
      <trkpt lat="45.9179" lon="3.34914">
        <ele>289.6</ele>
        <time>2024-04-14T11:57:54Z</time>
      </trkpt>
      <trkpt lat="45.91786" lon="3.34928">
        <ele>289.4</ele>
        <time>2024-04-14T11:57:55Z</time>
      </trkpt>
      <trkpt lat="45.91783" lon="3.34941">
        <ele>289.4</ele>
        <time>2024-04-14T11:57:56Z</time>
      </trkpt>
      <trkpt lat="45.9178" lon="3.34955">
        <ele>289.2</ele>
        <time>2024-04-14T11:57:57Z</time>
      </trkpt>
      <trkpt lat="45.91777" lon="3.34968">
        <ele>289.2</ele>
        <time>2024-04-14T11:57:58Z</time>
      </trkpt>
      <trkpt lat="45.91775" lon="3.34981">
        <ele>289</ele>
        <time>2024-04-14T11:57:59Z</time>
      </trkpt>
      <trkpt lat="45.91772" lon="3.34994">
        <ele>289</ele>
        <time>2024-04-14T11:58:00Z</time>
      </trkpt>
      <trkpt lat="45.9177" lon="3.35006">
        <ele>289</ele>
        <time>2024-04-14T11:58:01Z</time>
      </trkpt>
      <trkpt lat="45.91767" lon="3.35018">
        <ele>288.8</ele>
        <time>2024-04-14T11:58:02Z</time>
      </trkpt>
      <trkpt lat="45.91765" lon="3.3503">
        <ele>288.8</ele>
        <time>2024-04-14T11:58:03Z</time>
      </trkpt>
      <trkpt lat="45.91763" lon="3.35041">
        <ele>288.6</ele>
        <time>2024-04-14T11:58:04Z</time>
      </trkpt>
      <trkpt lat="45.9176" lon="3.35053">
        <ele>288.6</ele>
        <time>2024-04-14T11:58:05Z</time>
      </trkpt>
      <trkpt lat="45.91758" lon="3.35065">
        <ele>288.4</ele>
        <time>2024-04-14T11:58:06Z</time>
      </trkpt>
      <trkpt lat="45.91756" lon="3.35076">
        <ele>288.4</ele>
        <time>2024-04-14T11:58:07Z</time>
      </trkpt>
      <trkpt lat="45.91753" lon="3.35087">
        <ele>288.4</ele>
        <time>2024-04-14T11:58:08Z</time>
      </trkpt>
      <trkpt lat="45.91751" lon="3.35099">
        <ele>288.2</ele>
        <time>2024-04-14T11:58:09Z</time>
      </trkpt>
      <trkpt lat="45.91749" lon="3.3511">
        <ele>288.2</ele>
        <time>2024-04-14T11:58:10Z</time>
      </trkpt>
      <trkpt lat="45.91747" lon="3.35121">
        <ele>288</ele>
        <time>2024-04-14T11:58:11Z</time>
      </trkpt>
      <trkpt lat="45.91744" lon="3.35133">
        <ele>288</ele>
        <time>2024-04-14T11:58:12Z</time>
      </trkpt>
      <trkpt lat="45.91742" lon="3.35144">
        <ele>288</ele>
        <time>2024-04-14T11:58:13Z</time>
      </trkpt>
      <trkpt lat="45.9174" lon="3.35155">
        <ele>288</ele>
        <time>2024-04-14T11:58:14Z</time>
      </trkpt>
      <trkpt lat="45.91738" lon="3.35166">
        <ele>287.8</ele>
        <time>2024-04-14T11:58:15Z</time>
      </trkpt>
      <trkpt lat="45.91735" lon="3.35177">
        <ele>287.8</ele>
        <time>2024-04-14T11:58:16Z</time>
      </trkpt>
      <trkpt lat="45.91733" lon="3.35187">
        <ele>287.8</ele>
        <time>2024-04-14T11:58:17Z</time>
      </trkpt>
      <trkpt lat="45.9173" lon="3.35198">
        <ele>287.8</ele>
        <time>2024-04-14T11:58:18Z</time>
      </trkpt>
      <trkpt lat="45.91727" lon="3.35208">
        <ele>287.8</ele>
        <time>2024-04-14T11:58:19Z</time>
      </trkpt>
      <trkpt lat="45.91724" lon="3.35219">
        <ele>287.8</ele>
        <time>2024-04-14T11:58:20Z</time>
      </trkpt>
      <trkpt lat="45.91722" lon="3.35229">
        <ele>287.8</ele>
        <time>2024-04-14T11:58:21Z</time>
      </trkpt>
      <trkpt lat="45.91719" lon="3.35239">
        <ele>287.8</ele>
        <time>2024-04-14T11:58:22Z</time>
      </trkpt>
      <trkpt lat="45.91716" lon="3.3525">
        <ele>287.8</ele>
        <time>2024-04-14T11:58:23Z</time>
      </trkpt>
      <trkpt lat="45.91711" lon="3.35271">
        <ele>287.8</ele>
        <time>2024-04-14T11:58:24Z</time>
      </trkpt>
      <trkpt lat="45.91711" lon="3.35271">
        <ele>287.8</ele>
        <time>2024-04-14T11:58:25Z</time>
      </trkpt>
      <trkpt lat="45.91708" lon="3.35281">
        <ele>287.8</ele>
        <time>2024-04-14T11:58:26Z</time>
      </trkpt>
      <trkpt lat="45.91705" lon="3.35291">
        <ele>287.8</ele>
        <time>2024-04-14T11:58:27Z</time>
      </trkpt>
      <trkpt lat="45.91703" lon="3.35301">
        <ele>287.8</ele>
        <time>2024-04-14T11:58:28Z</time>
      </trkpt>
      <trkpt lat="45.917" lon="3.35311">
        <ele>287.8</ele>
        <time>2024-04-14T11:58:29Z</time>
      </trkpt>
      <trkpt lat="45.91697" lon="3.35322">
        <ele>287.8</ele>
        <time>2024-04-14T11:58:30Z</time>
      </trkpt>
      <trkpt lat="45.91694" lon="3.35332">
        <ele>287.8</ele>
        <time>2024-04-14T11:58:31Z</time>
      </trkpt>
      <trkpt lat="45.91692" lon="3.35343">
        <ele>287.8</ele>
        <time>2024-04-14T11:58:32Z</time>
      </trkpt>
      <trkpt lat="45.91689" lon="3.35353">
        <ele>287.8</ele>
        <time>2024-04-14T11:58:33Z</time>
      </trkpt>
      <trkpt lat="45.91686" lon="3.35364">
        <ele>287.8</ele>
        <time>2024-04-14T11:58:34Z</time>
      </trkpt>
      <trkpt lat="45.91683" lon="3.35374">
        <ele>287.8</ele>
        <time>2024-04-14T11:58:35Z</time>
      </trkpt>
      <trkpt lat="45.91681" lon="3.35384">
        <ele>287.8</ele>
        <time>2024-04-14T11:58:36Z</time>
      </trkpt>
      <trkpt lat="45.91678" lon="3.35395">
        <ele>287.8</ele>
        <time>2024-04-14T11:58:37Z</time>
      </trkpt>
      <trkpt lat="45.91675" lon="3.35405">
        <ele>287.8</ele>
        <time>2024-04-14T11:58:38Z</time>
      </trkpt>
      <trkpt lat="45.91672" lon="3.35415">
        <ele>287.8</ele>
        <time>2024-04-14T11:58:39Z</time>
      </trkpt>
      <trkpt lat="45.9167" lon="3.35425">
        <ele>287.8</ele>
        <time>2024-04-14T11:58:40Z</time>
      </trkpt>
      <trkpt lat="45.91667" lon="3.35435">
        <ele>287.8</ele>
        <time>2024-04-14T11:58:41Z</time>
      </trkpt>
      <trkpt lat="45.91664" lon="3.35446">
        <ele>287.8</ele>
        <time>2024-04-14T11:58:42Z</time>
      </trkpt>
      <trkpt lat="45.91662" lon="3.35456">
        <ele>287.8</ele>
        <time>2024-04-14T11:58:43Z</time>
      </trkpt>
      <trkpt lat="45.91659" lon="3.35466">
        <ele>287.8</ele>
        <time>2024-04-14T11:58:44Z</time>
      </trkpt>
      <trkpt lat="45.91656" lon="3.35476">
        <ele>287.6</ele>
        <time>2024-04-14T11:58:45Z</time>
      </trkpt>
      <trkpt lat="45.91654" lon="3.35486">
        <ele>287.6</ele>
        <time>2024-04-14T11:58:46Z</time>
      </trkpt>
      <trkpt lat="45.91651" lon="3.35495">
        <ele>287.6</ele>
        <time>2024-04-14T11:58:47Z</time>
      </trkpt>
      <trkpt lat="45.91649" lon="3.35505">
        <ele>287.6</ele>
        <time>2024-04-14T11:58:48Z</time>
      </trkpt>
      <trkpt lat="45.91647" lon="3.35516">
        <ele>287.6</ele>
        <time>2024-04-14T11:58:49Z</time>
      </trkpt>
      <trkpt lat="45.91647" lon="3.35526">
        <ele>287.6</ele>
        <time>2024-04-14T11:58:50Z</time>
      </trkpt>
      <trkpt lat="45.91646" lon="3.35537">
        <ele>287.6</ele>
        <time>2024-04-14T11:58:51Z</time>
      </trkpt>
      <trkpt lat="45.91646" lon="3.35547">
        <ele>287.6</ele>
        <time>2024-04-14T11:58:52Z</time>
      </trkpt>
      <trkpt lat="45.91645" lon="3.35557">
        <ele>287.8</ele>
        <time>2024-04-14T11:58:53Z</time>
      </trkpt>
      <trkpt lat="45.91644" lon="3.35568">
        <ele>287.8</ele>
        <time>2024-04-14T11:58:54Z</time>
      </trkpt>
      <trkpt lat="45.91644" lon="3.35578">
        <ele>287.8</ele>
        <time>2024-04-14T11:58:55Z</time>
      </trkpt>
      <trkpt lat="45.91644" lon="3.35589">
        <ele>287.8</ele>
        <time>2024-04-14T11:58:56Z</time>
      </trkpt>
      <trkpt lat="45.91646" lon="3.35599">
        <ele>287.8</ele>
        <time>2024-04-14T11:58:57Z</time>
      </trkpt>
      <trkpt lat="45.91647" lon="3.35609">
        <ele>287.8</ele>
        <time>2024-04-14T11:58:58Z</time>
      </trkpt>
      <trkpt lat="45.91648" lon="3.3562">
        <ele>287.8</ele>
        <time>2024-04-14T11:58:59Z</time>
      </trkpt>
      <trkpt lat="45.91649" lon="3.35631">
        <ele>287.8</ele>
        <time>2024-04-14T11:59:00Z</time>
      </trkpt>
      <trkpt lat="45.91651" lon="3.35641">
        <ele>287.8</ele>
        <time>2024-04-14T11:59:01Z</time>
      </trkpt>
      <trkpt lat="45.91653" lon="3.35651">
        <ele>287.8</ele>
        <time>2024-04-14T11:59:02Z</time>
      </trkpt>
      <trkpt lat="45.91655" lon="3.35661">
        <ele>288</ele>
        <time>2024-04-14T11:59:03Z</time>
      </trkpt>
      <trkpt lat="45.91657" lon="3.35671">
        <ele>288</ele>
        <time>2024-04-14T11:59:04Z</time>
      </trkpt>
      <trkpt lat="45.91659" lon="3.35681">
        <ele>288</ele>
        <time>2024-04-14T11:59:05Z</time>
      </trkpt>
      <trkpt lat="45.91662" lon="3.35691">
        <ele>287.8</ele>
        <time>2024-04-14T11:59:06Z</time>
      </trkpt>
      <trkpt lat="45.91664" lon="3.35701">
        <ele>287.8</ele>
        <time>2024-04-14T11:59:07Z</time>
      </trkpt>
      <trkpt lat="45.91666" lon="3.35712">
        <ele>287.8</ele>
        <time>2024-04-14T11:59:08Z</time>
      </trkpt>
      <trkpt lat="45.91668" lon="3.35722">
        <ele>288</ele>
        <time>2024-04-14T11:59:09Z</time>
      </trkpt>
      <trkpt lat="45.9167" lon="3.35732">
        <ele>288</ele>
        <time>2024-04-14T11:59:10Z</time>
      </trkpt>
      <trkpt lat="45.91672" lon="3.35742">
        <ele>287.8</ele>
        <time>2024-04-14T11:59:11Z</time>
      </trkpt>
      <trkpt lat="45.91674" lon="3.35752">
        <ele>288</ele>
        <time>2024-04-14T11:59:12Z</time>
      </trkpt>
      <trkpt lat="45.91677" lon="3.35762">
        <ele>288</ele>
        <time>2024-04-14T11:59:13Z</time>
      </trkpt>
      <trkpt lat="45.91679" lon="3.35772">
        <ele>288</ele>
        <time>2024-04-14T11:59:14Z</time>
      </trkpt>
      <trkpt lat="45.91682" lon="3.35782">
        <ele>288</ele>
        <time>2024-04-14T11:59:15Z</time>
      </trkpt>
      <trkpt lat="45.91685" lon="3.35791">
        <ele>288</ele>
        <time>2024-04-14T11:59:16Z</time>
      </trkpt>
      <trkpt lat="45.91688" lon="3.35801">
        <ele>288</ele>
        <time>2024-04-14T11:59:17Z</time>
      </trkpt>
      <trkpt lat="45.9169" lon="3.35811">
        <ele>288</ele>
        <time>2024-04-14T11:59:18Z</time>
      </trkpt>
      <trkpt lat="45.91693" lon="3.3582">
        <ele>288</ele>
        <time>2024-04-14T11:59:19Z</time>
      </trkpt>
      <trkpt lat="45.91696" lon="3.3583">
        <ele>288</ele>
        <time>2024-04-14T11:59:20Z</time>
      </trkpt>
      <trkpt lat="45.91698" lon="3.35839">
        <ele>288</ele>
        <time>2024-04-14T11:59:21Z</time>
      </trkpt>
      <trkpt lat="45.91701" lon="3.35849">
        <ele>288</ele>
        <time>2024-04-14T11:59:22Z</time>
      </trkpt>
      <trkpt lat="45.91704" lon="3.35858">
        <ele>288</ele>
        <time>2024-04-14T11:59:23Z</time>
      </trkpt>
      <trkpt lat="45.91706" lon="3.35867">
        <ele>288</ele>
        <time>2024-04-14T11:59:24Z</time>
      </trkpt>
      <trkpt lat="45.91709" lon="3.35877">
        <ele>288</ele>
        <time>2024-04-14T11:59:25Z</time>
      </trkpt>
      <trkpt lat="45.91712" lon="3.35887">
        <ele>288</ele>
        <time>2024-04-14T11:59:26Z</time>
      </trkpt>
      <trkpt lat="45.91714" lon="3.35896">
        <ele>288</ele>
        <time>2024-04-14T11:59:27Z</time>
      </trkpt>
      <trkpt lat="45.91717" lon="3.35905">
        <ele>288</ele>
        <time>2024-04-14T11:59:28Z</time>
      </trkpt>
      <trkpt lat="45.9172" lon="3.35915">
        <ele>287.8</ele>
        <time>2024-04-14T11:59:29Z</time>
      </trkpt>
      <trkpt lat="45.91722" lon="3.35925">
        <ele>287.8</ele>
        <time>2024-04-14T11:59:30Z</time>
      </trkpt>
      <trkpt lat="45.91725" lon="3.35934">
        <ele>287.6</ele>
        <time>2024-04-14T11:59:31Z</time>
      </trkpt>
      <trkpt lat="45.91728" lon="3.35944">
        <ele>287.6</ele>
        <time>2024-04-14T11:59:32Z</time>
      </trkpt>
      <trkpt lat="45.9173" lon="3.35953">
        <ele>287.6</ele>
        <time>2024-04-14T11:59:33Z</time>
      </trkpt>
      <trkpt lat="45.91733" lon="3.35963">
        <ele>287.4</ele>
        <time>2024-04-14T11:59:34Z</time>
      </trkpt>
      <trkpt lat="45.91735" lon="3.35973">
        <ele>287.4</ele>
        <time>2024-04-14T11:59:35Z</time>
      </trkpt>
      <trkpt lat="45.91736" lon="3.35983">
        <ele>287.4</ele>
        <time>2024-04-14T11:59:36Z</time>
      </trkpt>
      <trkpt lat="45.91738" lon="3.35993">
        <ele>287.6</ele>
        <time>2024-04-14T11:59:37Z</time>
      </trkpt>
      <trkpt lat="45.91739" lon="3.36004">
        <ele>287.6</ele>
        <time>2024-04-14T11:59:38Z</time>
      </trkpt>
      <trkpt lat="45.9174" lon="3.36014">
        <ele>287.6</ele>
        <time>2024-04-14T11:59:39Z</time>
      </trkpt>
      <trkpt lat="45.9174" lon="3.36024">
        <ele>287.6</ele>
        <time>2024-04-14T11:59:40Z</time>
      </trkpt>
      <trkpt lat="45.9174" lon="3.36034">
        <ele>287.6</ele>
        <time>2024-04-14T11:59:41Z</time>
      </trkpt>
      <trkpt lat="45.9174" lon="3.36045">
        <ele>287.6</ele>
        <time>2024-04-14T11:59:42Z</time>
      </trkpt>
      <trkpt lat="45.91739" lon="3.36055">
        <ele>287.6</ele>
        <time>2024-04-14T11:59:43Z</time>
      </trkpt>
      <trkpt lat="45.91738" lon="3.36064">
        <ele>287.6</ele>
        <time>2024-04-14T11:59:44Z</time>
      </trkpt>
      <trkpt lat="45.91737" lon="3.36074">
        <ele>287.6</ele>
        <time>2024-04-14T11:59:45Z</time>
      </trkpt>
      <trkpt lat="45.91736" lon="3.36084">
        <ele>287.6</ele>
        <time>2024-04-14T11:59:46Z</time>
      </trkpt>
      <trkpt lat="45.91735" lon="3.36094">
        <ele>287.8</ele>
        <time>2024-04-14T11:59:47Z</time>
      </trkpt>
      <trkpt lat="45.91734" lon="3.36104">
        <ele>287.8</ele>
        <time>2024-04-14T11:59:48Z</time>
      </trkpt>
      <trkpt lat="45.91733" lon="3.36114">
        <ele>287.8</ele>
        <time>2024-04-14T11:59:49Z</time>
      </trkpt>
      <trkpt lat="45.91732" lon="3.36124">
        <ele>287.6</ele>
        <time>2024-04-14T11:59:50Z</time>
      </trkpt>
      <trkpt lat="45.9173" lon="3.36133">
        <ele>287.6</ele>
        <time>2024-04-14T11:59:51Z</time>
      </trkpt>
      <trkpt lat="45.91728" lon="3.36142">
        <ele>287.8</ele>
        <time>2024-04-14T11:59:52Z</time>
      </trkpt>
      <trkpt lat="45.91726" lon="3.36151">
        <ele>287.6</ele>
        <time>2024-04-14T11:59:53Z</time>
      </trkpt>
      <trkpt lat="45.91724" lon="3.36161">
        <ele>287.4</ele>
        <time>2024-04-14T11:59:54Z</time>
      </trkpt>
      <trkpt lat="45.91722" lon="3.3617">
        <ele>287.4</ele>
        <time>2024-04-14T11:59:55Z</time>
      </trkpt>
      <trkpt lat="45.9172" lon="3.36179">
        <ele>287.6</ele>
        <time>2024-04-14T11:59:56Z</time>
      </trkpt>
      <trkpt lat="45.91718" lon="3.36188">
        <ele>287.4</ele>
        <time>2024-04-14T11:59:57Z</time>
      </trkpt>
      <trkpt lat="45.91716" lon="3.36197">
        <ele>287.6</ele>
        <time>2024-04-14T11:59:58Z</time>
      </trkpt>
      <trkpt lat="45.91714" lon="3.36207">
        <ele>287.8</ele>
        <time>2024-04-14T11:59:59Z</time>
      </trkpt>
      <trkpt lat="45.91712" lon="3.36216">
        <ele>287.8</ele>
        <time>2024-04-14T12:00:00Z</time>
      </trkpt>
      <trkpt lat="45.9171" lon="3.36225">
        <ele>287.8</ele>
        <time>2024-04-14T12:00:01Z</time>
      </trkpt>
      <trkpt lat="45.91708" lon="3.36234">
        <ele>287.8</ele>
        <time>2024-04-14T12:00:02Z</time>
      </trkpt>
      <trkpt lat="45.91706" lon="3.36244">
        <ele>287.8</ele>
        <time>2024-04-14T12:00:03Z</time>
      </trkpt>
      <trkpt lat="45.91704" lon="3.36253">
        <ele>287.8</ele>
        <time>2024-04-14T12:00:04Z</time>
      </trkpt>
      <trkpt lat="45.91702" lon="3.36262">
        <ele>287.8</ele>
        <time>2024-04-14T12:00:05Z</time>
      </trkpt>
      <trkpt lat="45.917" lon="3.36272">
        <ele>287.8</ele>
        <time>2024-04-14T12:00:06Z</time>
      </trkpt>
      <trkpt lat="45.91698" lon="3.36281">
        <ele>287.8</ele>
        <time>2024-04-14T12:00:07Z</time>
      </trkpt>
      <trkpt lat="45.91696" lon="3.3629">
        <ele>287.8</ele>
        <time>2024-04-14T12:00:08Z</time>
      </trkpt>
      <trkpt lat="45.91694" lon="3.36299">
        <ele>287.8</ele>
        <time>2024-04-14T12:00:09Z</time>
      </trkpt>
      <trkpt lat="45.91692" lon="3.36308">
        <ele>287.8</ele>
        <time>2024-04-14T12:00:10Z</time>
      </trkpt>
      <trkpt lat="45.9169" lon="3.36317">
        <ele>287.8</ele>
        <time>2024-04-14T12:00:11Z</time>
      </trkpt>
      <trkpt lat="45.91688" lon="3.36326">
        <ele>287.8</ele>
        <time>2024-04-14T12:00:12Z</time>
      </trkpt>
      <trkpt lat="45.91686" lon="3.36335">
        <ele>287.6</ele>
        <time>2024-04-14T12:00:13Z</time>
      </trkpt>
      <trkpt lat="45.91684" lon="3.36344">
        <ele>287.4</ele>
        <time>2024-04-14T12:00:14Z</time>
      </trkpt>
      <trkpt lat="45.91682" lon="3.36354">
        <ele>287.6</ele>
        <time>2024-04-14T12:00:15Z</time>
      </trkpt>
      <trkpt lat="45.9168" lon="3.36363">
        <ele>287.6</ele>
        <time>2024-04-14T12:00:16Z</time>
      </trkpt>
      <trkpt lat="45.91678" lon="3.36372">
        <ele>287.6</ele>
        <time>2024-04-14T12:00:17Z</time>
      </trkpt>
      <trkpt lat="45.91676" lon="3.36381">
        <ele>287.6</ele>
        <time>2024-04-14T12:00:18Z</time>
      </trkpt>
      <trkpt lat="45.91674" lon="3.3639">
        <ele>287.6</ele>
        <time>2024-04-14T12:00:19Z</time>
      </trkpt>
      <trkpt lat="45.91672" lon="3.36399">
        <ele>287.6</ele>
        <time>2024-04-14T12:00:20Z</time>
      </trkpt>
      <trkpt lat="45.9167" lon="3.36408">
        <ele>287.8</ele>
        <time>2024-04-14T12:00:21Z</time>
      </trkpt>
      <trkpt lat="45.91668" lon="3.36417">
        <ele>287.8</ele>
        <time>2024-04-14T12:00:22Z</time>
      </trkpt>
      <trkpt lat="45.91666" lon="3.36427">
        <ele>287.8</ele>
        <time>2024-04-14T12:00:23Z</time>
      </trkpt>
      <trkpt lat="45.91663" lon="3.36436">
        <ele>287.8</ele>
        <time>2024-04-14T12:00:24Z</time>
      </trkpt>
      <trkpt lat="45.91661" lon="3.36445">
        <ele>287.8</ele>
        <time>2024-04-14T12:00:25Z</time>
      </trkpt>
      <trkpt lat="45.91659" lon="3.36454">
        <ele>287.8</ele>
        <time>2024-04-14T12:00:26Z</time>
      </trkpt>
      <trkpt lat="45.91657" lon="3.36463">
        <ele>287.8</ele>
        <time>2024-04-14T12:00:27Z</time>
      </trkpt>
      <trkpt lat="45.91655" lon="3.36472">
        <ele>287.8</ele>
        <time>2024-04-14T12:00:28Z</time>
      </trkpt>
      <trkpt lat="45.91653" lon="3.36481">
        <ele>287.6</ele>
        <time>2024-04-14T12:00:29Z</time>
      </trkpt>
      <trkpt lat="45.91651" lon="3.3649">
        <ele>287.6</ele>
        <time>2024-04-14T12:00:30Z</time>
      </trkpt>
      <trkpt lat="45.91649" lon="3.36499">
        <ele>287.6</ele>
        <time>2024-04-14T12:00:31Z</time>
      </trkpt>
      <trkpt lat="45.91647" lon="3.36508">
        <ele>287.6</ele>
        <time>2024-04-14T12:00:32Z</time>
      </trkpt>
      <trkpt lat="45.91646" lon="3.36517">
        <ele>287.6</ele>
        <time>2024-04-14T12:00:33Z</time>
      </trkpt>
      <trkpt lat="45.91644" lon="3.36526">
        <ele>287.6</ele>
        <time>2024-04-14T12:00:34Z</time>
      </trkpt>
      <trkpt lat="45.91642" lon="3.36535">
        <ele>287.6</ele>
        <time>2024-04-14T12:00:35Z</time>
      </trkpt>
      <trkpt lat="45.9164" lon="3.36544">
        <ele>287.6</ele>
        <time>2024-04-14T12:00:36Z</time>
      </trkpt>
      <trkpt lat="45.91638" lon="3.36553">
        <ele>287.6</ele>
        <time>2024-04-14T12:00:37Z</time>
      </trkpt>
      <trkpt lat="45.91636" lon="3.36562">
        <ele>287.4</ele>
        <time>2024-04-14T12:00:38Z</time>
      </trkpt>
      <trkpt lat="45.91634" lon="3.36571">
        <ele>287.8</ele>
        <time>2024-04-14T12:00:39Z</time>
      </trkpt>
      <trkpt lat="45.91632" lon="3.36579">
        <ele>287.8</ele>
        <time>2024-04-14T12:00:40Z</time>
      </trkpt>
      <trkpt lat="45.9163" lon="3.36588">
        <ele>287.8</ele>
        <time>2024-04-14T12:00:41Z</time>
      </trkpt>
      <trkpt lat="45.91628" lon="3.36598">
        <ele>287.8</ele>
        <time>2024-04-14T12:00:42Z</time>
      </trkpt>
      <trkpt lat="45.91627" lon="3.36607">
        <ele>288</ele>
        <time>2024-04-14T12:00:43Z</time>
      </trkpt>
      <trkpt lat="45.91625" lon="3.36617">
        <ele>288</ele>
        <time>2024-04-14T12:00:44Z</time>
      </trkpt>
      <trkpt lat="45.91624" lon="3.36627">
        <ele>288.2</ele>
        <time>2024-04-14T12:00:45Z</time>
      </trkpt>
      <trkpt lat="45.91622" lon="3.36637">
        <ele>288</ele>
        <time>2024-04-14T12:00:46Z</time>
      </trkpt>
      <trkpt lat="45.91621" lon="3.36647">
        <ele>288.2</ele>
        <time>2024-04-14T12:00:47Z</time>
      </trkpt>
      <trkpt lat="45.9162" lon="3.36657">
        <ele>288</ele>
        <time>2024-04-14T12:00:48Z</time>
      </trkpt>
      <trkpt lat="45.9162" lon="3.36667">
        <ele>288</ele>
        <time>2024-04-14T12:00:49Z</time>
      </trkpt>
      <trkpt lat="45.9162" lon="3.36677">
        <ele>288</ele>
        <time>2024-04-14T12:00:50Z</time>
      </trkpt>
      <trkpt lat="45.9162" lon="3.36687">
        <ele>288</ele>
        <time>2024-04-14T12:00:51Z</time>
      </trkpt>
      <trkpt lat="45.9162" lon="3.36697">
        <ele>288</ele>
        <time>2024-04-14T12:00:52Z</time>
      </trkpt>
      <trkpt lat="45.9162" lon="3.36707">
        <ele>288</ele>
        <time>2024-04-14T12:00:53Z</time>
      </trkpt>
      <trkpt lat="45.9162" lon="3.36717">
        <ele>288</ele>
        <time>2024-04-14T12:00:54Z</time>
      </trkpt>
      <trkpt lat="45.9162" lon="3.36727">
        <ele>288</ele>
        <time>2024-04-14T12:00:55Z</time>
      </trkpt>
      <trkpt lat="45.9162" lon="3.36737">
        <ele>288</ele>
        <time>2024-04-14T12:00:56Z</time>
      </trkpt>
      <trkpt lat="45.9162" lon="3.36747">
        <ele>288</ele>
        <time>2024-04-14T12:00:57Z</time>
      </trkpt>
      <trkpt lat="45.9162" lon="3.36758">
        <ele>288</ele>
        <time>2024-04-14T12:00:58Z</time>
      </trkpt>
      <trkpt lat="45.9162" lon="3.36768">
        <ele>288.2</ele>
        <time>2024-04-14T12:00:59Z</time>
      </trkpt>
      <trkpt lat="45.9162" lon="3.36777">
        <ele>288</ele>
        <time>2024-04-14T12:01:00Z</time>
      </trkpt>
      <trkpt lat="45.91619" lon="3.36788">
        <ele>288</ele>
        <time>2024-04-14T12:01:01Z</time>
      </trkpt>
      <trkpt lat="45.91619" lon="3.36798">
        <ele>288</ele>
        <time>2024-04-14T12:01:02Z</time>
      </trkpt>
      <trkpt lat="45.91619" lon="3.36807">
        <ele>288.2</ele>
        <time>2024-04-14T12:01:03Z</time>
      </trkpt>
      <trkpt lat="45.91619" lon="3.36817">
        <ele>288</ele>
        <time>2024-04-14T12:01:04Z</time>
      </trkpt>
      <trkpt lat="45.91619" lon="3.36827">
        <ele>288</ele>
        <time>2024-04-14T12:01:05Z</time>
      </trkpt>
      <trkpt lat="45.91619" lon="3.36837">
        <ele>288</ele>
        <time>2024-04-14T12:01:06Z</time>
      </trkpt>
      <trkpt lat="45.91619" lon="3.36847">
        <ele>287.8</ele>
        <time>2024-04-14T12:01:07Z</time>
      </trkpt>
      <trkpt lat="45.91619" lon="3.36856">
        <ele>287.8</ele>
        <time>2024-04-14T12:01:08Z</time>
      </trkpt>
      <trkpt lat="45.91619" lon="3.36866">
        <ele>288</ele>
        <time>2024-04-14T12:01:09Z</time>
      </trkpt>
      <trkpt lat="45.91619" lon="3.36876">
        <ele>288.2</ele>
        <time>2024-04-14T12:01:10Z</time>
      </trkpt>
      <trkpt lat="45.91619" lon="3.36886">
        <ele>288</ele>
        <time>2024-04-14T12:01:11Z</time>
      </trkpt>
      <trkpt lat="45.91619" lon="3.36896">
        <ele>288</ele>
        <time>2024-04-14T12:01:12Z</time>
      </trkpt>
      <trkpt lat="45.91619" lon="3.36906">
        <ele>288.2</ele>
        <time>2024-04-14T12:01:13Z</time>
      </trkpt>
      <trkpt lat="45.91619" lon="3.36916">
        <ele>288.2</ele>
        <time>2024-04-14T12:01:14Z</time>
      </trkpt>
      <trkpt lat="45.91619" lon="3.36926">
        <ele>288.2</ele>
        <time>2024-04-14T12:01:15Z</time>
      </trkpt>
      <trkpt lat="45.91619" lon="3.36935">
        <ele>288.2</ele>
        <time>2024-04-14T12:01:16Z</time>
      </trkpt>
      <trkpt lat="45.91619" lon="3.36945">
        <ele>288</ele>
        <time>2024-04-14T12:01:17Z</time>
      </trkpt>
      <trkpt lat="45.91619" lon="3.36955">
        <ele>288</ele>
        <time>2024-04-14T12:01:18Z</time>
      </trkpt>
      <trkpt lat="45.91619" lon="3.36965">
        <ele>288</ele>
        <time>2024-04-14T12:01:19Z</time>
      </trkpt>
      <trkpt lat="45.91619" lon="3.36975">
        <ele>288</ele>
        <time>2024-04-14T12:01:20Z</time>
      </trkpt>
      <trkpt lat="45.91619" lon="3.36985">
        <ele>288</ele>
        <time>2024-04-14T12:01:21Z</time>
      </trkpt>
      <trkpt lat="45.91619" lon="3.36995">
        <ele>288.2</ele>
        <time>2024-04-14T12:01:22Z</time>
      </trkpt>
      <trkpt lat="45.91619" lon="3.37005">
        <ele>288.2</ele>
        <time>2024-04-14T12:01:23Z</time>
      </trkpt>
      <trkpt lat="45.91619" lon="3.37015">
        <ele>288.2</ele>
        <time>2024-04-14T12:01:24Z</time>
      </trkpt>
      <trkpt lat="45.91619" lon="3.37025">
        <ele>288.2</ele>
        <time>2024-04-14T12:01:25Z</time>
      </trkpt>
      <trkpt lat="45.91619" lon="3.37035">
        <ele>288.2</ele>
        <time>2024-04-14T12:01:26Z</time>
      </trkpt>
      <trkpt lat="45.91619" lon="3.37044">
        <ele>288.4</ele>
        <time>2024-04-14T12:01:27Z</time>
      </trkpt>
      <trkpt lat="45.91618" lon="3.37054">
        <ele>288.4</ele>
        <time>2024-04-14T12:01:28Z</time>
      </trkpt>
      <trkpt lat="45.91618" lon="3.37064">
        <ele>288.2</ele>
        <time>2024-04-14T12:01:29Z</time>
      </trkpt>
      <trkpt lat="45.91618" lon="3.37073">
        <ele>288.4</ele>
        <time>2024-04-14T12:01:30Z</time>
      </trkpt>
      <trkpt lat="45.91618" lon="3.37083">
        <ele>288.4</ele>
        <time>2024-04-14T12:01:31Z</time>
      </trkpt>
      <trkpt lat="45.91618" lon="3.37093">
        <ele>288.6</ele>
        <time>2024-04-14T12:01:32Z</time>
      </trkpt>
      <trkpt lat="45.91618" lon="3.37103">
        <ele>288.6</ele>
        <time>2024-04-14T12:01:33Z</time>
      </trkpt>
      <trkpt lat="45.91618" lon="3.37112">
        <ele>288.6</ele>
        <time>2024-04-14T12:01:34Z</time>
      </trkpt>
      <trkpt lat="45.91618" lon="3.37122">
        <ele>288.6</ele>
        <time>2024-04-14T12:01:35Z</time>
      </trkpt>
      <trkpt lat="45.91618" lon="3.37132">
        <ele>288.6</ele>
        <time>2024-04-14T12:01:36Z</time>
      </trkpt>
      <trkpt lat="45.91618" lon="3.37142">
        <ele>288.6</ele>
        <time>2024-04-14T12:01:37Z</time>
      </trkpt>
      <trkpt lat="45.91618" lon="3.37151">
        <ele>288.8</ele>
        <time>2024-04-14T12:01:38Z</time>
      </trkpt>
      <trkpt lat="45.91618" lon="3.37161">
        <ele>288.8</ele>
        <time>2024-04-14T12:01:39Z</time>
      </trkpt>
      <trkpt lat="45.91618" lon="3.3717">
        <ele>288.8</ele>
        <time>2024-04-14T12:01:40Z</time>
      </trkpt>
      <trkpt lat="45.91618" lon="3.37179">
        <ele>288.8</ele>
        <time>2024-04-14T12:01:41Z</time>
      </trkpt>
      <trkpt lat="45.91618" lon="3.37188">
        <ele>288.8</ele>
        <time>2024-04-14T12:01:42Z</time>
      </trkpt>
      <trkpt lat="45.91618" lon="3.37197">
        <ele>289</ele>
        <time>2024-04-14T12:01:43Z</time>
      </trkpt>
      <trkpt lat="45.91618" lon="3.37205">
        <ele>289</ele>
        <time>2024-04-14T12:01:44Z</time>
      </trkpt>
      <trkpt lat="45.91618" lon="3.37214">
        <ele>289.2</ele>
        <time>2024-04-14T12:01:45Z</time>
      </trkpt>
      <trkpt lat="45.91618" lon="3.37222">
        <ele>289.2</ele>
        <time>2024-04-14T12:01:46Z</time>
      </trkpt>
      <trkpt lat="45.91618" lon="3.3723">
        <ele>289.2</ele>
        <time>2024-04-14T12:01:47Z</time>
      </trkpt>
      <trkpt lat="45.91616" lon="3.37239">
        <ele>289.2</ele>
        <time>2024-04-14T12:01:48Z</time>
      </trkpt>
      <trkpt lat="45.91614" lon="3.37246">
        <ele>289.4</ele>
        <time>2024-04-14T12:01:49Z</time>
      </trkpt>
      <trkpt lat="45.91612" lon="3.37254">
        <ele>289.6</ele>
        <time>2024-04-14T12:01:50Z</time>
      </trkpt>
      <trkpt lat="45.9161" lon="3.37261">
        <ele>289.6</ele>
        <time>2024-04-14T12:01:51Z</time>
      </trkpt>
      <trkpt lat="45.91608" lon="3.37268">
        <ele>289.8</ele>
        <time>2024-04-14T12:01:52Z</time>
      </trkpt>
      <trkpt lat="45.91605" lon="3.37276">
        <ele>290</ele>
        <time>2024-04-14T12:01:53Z</time>
      </trkpt>
      <trkpt lat="45.91603" lon="3.37284">
        <ele>290</ele>
        <time>2024-04-14T12:01:54Z</time>
      </trkpt>
      <trkpt lat="45.91601" lon="3.37291">
        <ele>290</ele>
        <time>2024-04-14T12:01:55Z</time>
      </trkpt>
      <trkpt lat="45.91599" lon="3.37298">
        <ele>290.4</ele>
        <time>2024-04-14T12:01:56Z</time>
      </trkpt>
      <trkpt lat="45.91597" lon="3.37305">
        <ele>290.4</ele>
        <time>2024-04-14T12:01:57Z</time>
      </trkpt>
      <trkpt lat="45.91595" lon="3.37312">
        <ele>290.6</ele>
        <time>2024-04-14T12:01:58Z</time>
      </trkpt>
      <trkpt lat="45.91593" lon="3.37319">
        <ele>290.6</ele>
        <time>2024-04-14T12:01:59Z</time>
      </trkpt>
      <trkpt lat="45.91591" lon="3.37326">
        <ele>290.8</ele>
        <time>2024-04-14T12:02:00Z</time>
      </trkpt>
      <trkpt lat="45.91589" lon="3.37332">
        <ele>291</ele>
        <time>2024-04-14T12:02:01Z</time>
      </trkpt>
      <trkpt lat="45.91588" lon="3.37339">
        <ele>291</ele>
        <time>2024-04-14T12:02:02Z</time>
      </trkpt>
      <trkpt lat="45.91586" lon="3.37345">
        <ele>291</ele>
        <time>2024-04-14T12:02:03Z</time>
      </trkpt>
      <trkpt lat="45.91584" lon="3.37351">
        <ele>291.2</ele>
        <time>2024-04-14T12:02:04Z</time>
      </trkpt>
      <trkpt lat="45.91582" lon="3.37357">
        <ele>291.4</ele>
        <time>2024-04-14T12:02:05Z</time>
      </trkpt>
      <trkpt lat="45.9158" lon="3.37363">
        <ele>291.4</ele>
        <time>2024-04-14T12:02:06Z</time>
      </trkpt>
      <trkpt lat="45.91579" lon="3.37369">
        <ele>291.6</ele>
        <time>2024-04-14T12:02:07Z</time>
      </trkpt>
      <trkpt lat="45.91577" lon="3.37375">
        <ele>291.6</ele>
        <time>2024-04-14T12:02:08Z</time>
      </trkpt>
      <trkpt lat="45.91575" lon="3.37381">
        <ele>291.8</ele>
        <time>2024-04-14T12:02:09Z</time>
      </trkpt>
      <trkpt lat="45.91574" lon="3.37387">
        <ele>291.8</ele>
        <time>2024-04-14T12:02:10Z</time>
      </trkpt>
      <trkpt lat="45.91572" lon="3.37393">
        <ele>292</ele>
        <time>2024-04-14T12:02:11Z</time>
      </trkpt>
      <trkpt lat="45.9157" lon="3.37399">
        <ele>292.2</ele>
        <time>2024-04-14T12:02:12Z</time>
      </trkpt>
      <trkpt lat="45.91568" lon="3.37405">
        <ele>292.2</ele>
        <time>2024-04-14T12:02:13Z</time>
      </trkpt>
      <trkpt lat="45.91567" lon="3.37411">
        <ele>292.4</ele>
        <time>2024-04-14T12:02:14Z</time>
      </trkpt>
      <trkpt lat="45.91565" lon="3.37417">
        <ele>292.4</ele>
        <time>2024-04-14T12:02:15Z</time>
      </trkpt>
      <trkpt lat="45.91563" lon="3.37422">
        <ele>292.6</ele>
        <time>2024-04-14T12:02:16Z</time>
      </trkpt>
      <trkpt lat="45.91562" lon="3.37428">
        <ele>292.8</ele>
        <time>2024-04-14T12:02:17Z</time>
      </trkpt>
      <trkpt lat="45.9156" lon="3.37434">
        <ele>292.8</ele>
        <time>2024-04-14T12:02:18Z</time>
      </trkpt>
      <trkpt lat="45.91559" lon="3.3744">
        <ele>293</ele>
        <time>2024-04-14T12:02:19Z</time>
      </trkpt>
      <trkpt lat="45.91557" lon="3.37445">
        <ele>293.2</ele>
        <time>2024-04-14T12:02:20Z</time>
      </trkpt>
      <trkpt lat="45.91555" lon="3.37451">
        <ele>293.2</ele>
        <time>2024-04-14T12:02:21Z</time>
      </trkpt>
      <trkpt lat="45.91554" lon="3.37457">
        <ele>293.4</ele>
        <time>2024-04-14T12:02:22Z</time>
      </trkpt>
      <trkpt lat="45.91553" lon="3.37463">
        <ele>293.6</ele>
        <time>2024-04-14T12:02:23Z</time>
      </trkpt>
      <trkpt lat="45.91552" lon="3.37469">
        <ele>293.6</ele>
        <time>2024-04-14T12:02:24Z</time>
      </trkpt>
      <trkpt lat="45.91551" lon="3.37474">
        <ele>293.8</ele>
        <time>2024-04-14T12:02:25Z</time>
      </trkpt>
      <trkpt lat="45.9155" lon="3.37479">
        <ele>294</ele>
        <time>2024-04-14T12:02:26Z</time>
      </trkpt>
      <trkpt lat="45.91549" lon="3.37485">
        <ele>294</ele>
        <time>2024-04-14T12:02:27Z</time>
      </trkpt>
      <trkpt lat="45.91547" lon="3.37491">
        <ele>294.2</ele>
        <time>2024-04-14T12:02:28Z</time>
      </trkpt>
      <trkpt lat="45.91546" lon="3.37496">
        <ele>294.2</ele>
        <time>2024-04-14T12:02:29Z</time>
      </trkpt>
      <trkpt lat="45.91545" lon="3.37502">
        <ele>294.4</ele>
        <time>2024-04-14T12:02:30Z</time>
      </trkpt>
      <trkpt lat="45.91544" lon="3.37508">
        <ele>294.4</ele>
        <time>2024-04-14T12:02:31Z</time>
      </trkpt>
      <trkpt lat="45.91543" lon="3.37513">
        <ele>294.6</ele>
        <time>2024-04-14T12:02:32Z</time>
      </trkpt>
      <trkpt lat="45.91542" lon="3.37519">
        <ele>294.6</ele>
        <time>2024-04-14T12:02:33Z</time>
      </trkpt>
      <trkpt lat="45.91542" lon="3.37524">
        <ele>294.8</ele>
        <time>2024-04-14T12:02:34Z</time>
      </trkpt>
      <trkpt lat="45.91542" lon="3.3753">
        <ele>295</ele>
        <time>2024-04-14T12:02:35Z</time>
      </trkpt>
      <trkpt lat="45.91542" lon="3.37536">
        <ele>295</ele>
        <time>2024-04-14T12:02:36Z</time>
      </trkpt>
      <trkpt lat="45.91541" lon="3.37542">
        <ele>295.2</ele>
        <time>2024-04-14T12:02:37Z</time>
      </trkpt>
      <trkpt lat="45.91541" lon="3.37548">
        <ele>295.2</ele>
        <time>2024-04-14T12:02:38Z</time>
      </trkpt>
      <trkpt lat="45.91541" lon="3.37554">
        <ele>295.4</ele>
        <time>2024-04-14T12:02:39Z</time>
      </trkpt>
      <trkpt lat="45.91541" lon="3.3756">
        <ele>295.4</ele>
        <time>2024-04-14T12:02:40Z</time>
      </trkpt>
      <trkpt lat="45.91542" lon="3.37566">
        <ele>295.6</ele>
        <time>2024-04-14T12:02:41Z</time>
      </trkpt>
      <trkpt lat="45.91542" lon="3.37571">
        <ele>295.6</ele>
        <time>2024-04-14T12:02:42Z</time>
      </trkpt>
      <trkpt lat="45.91543" lon="3.37577">
        <ele>295.8</ele>
        <time>2024-04-14T12:02:43Z</time>
      </trkpt>
      <trkpt lat="45.91543" lon="3.37582">
        <ele>296</ele>
        <time>2024-04-14T12:02:44Z</time>
      </trkpt>
      <trkpt lat="45.91544" lon="3.37588">
        <ele>296</ele>
        <time>2024-04-14T12:02:45Z</time>
      </trkpt>
      <trkpt lat="45.91544" lon="3.37593">
        <ele>296.2</ele>
        <time>2024-04-14T12:02:46Z</time>
      </trkpt>
      <trkpt lat="45.91545" lon="3.37599">
        <ele>296.2</ele>
        <time>2024-04-14T12:02:47Z</time>
      </trkpt>
      <trkpt lat="45.91545" lon="3.37605">
        <ele>296.4</ele>
        <time>2024-04-14T12:02:48Z</time>
      </trkpt>
      <trkpt lat="45.91546" lon="3.37611">
        <ele>296.6</ele>
        <time>2024-04-14T12:02:49Z</time>
      </trkpt>
      <trkpt lat="45.91546" lon="3.37616">
        <ele>296.6</ele>
        <time>2024-04-14T12:02:50Z</time>
      </trkpt>
      <trkpt lat="45.91547" lon="3.37622">
        <ele>296.8</ele>
        <time>2024-04-14T12:02:51Z</time>
      </trkpt>
      <trkpt lat="45.91548" lon="3.37628">
        <ele>296.8</ele>
        <time>2024-04-14T12:02:52Z</time>
      </trkpt>
      <trkpt lat="45.91548" lon="3.37634">
        <ele>297</ele>
        <time>2024-04-14T12:02:53Z</time>
      </trkpt>
      <trkpt lat="45.91549" lon="3.3764">
        <ele>297.2</ele>
        <time>2024-04-14T12:02:54Z</time>
      </trkpt>
      <trkpt lat="45.91549" lon="3.37645">
        <ele>297.2</ele>
        <time>2024-04-14T12:02:55Z</time>
      </trkpt>
      <trkpt lat="45.91545" lon="3.37654">
        <ele>297.4</ele>
        <time>2024-04-14T12:02:56Z</time>
      </trkpt>
      <trkpt lat="45.91541" lon="3.37655">
        <ele>297.4</ele>
        <time>2024-04-14T12:02:57Z</time>
      </trkpt>
      <trkpt lat="45.91537" lon="3.37655">
        <ele>297.6</ele>
        <time>2024-04-14T12:02:58Z</time>
      </trkpt>
      <trkpt lat="45.91532" lon="3.37656">
        <ele>297.6</ele>
        <time>2024-04-14T12:02:59Z</time>
      </trkpt>
      <trkpt lat="45.91528" lon="3.37656">
        <ele>297.8</ele>
        <time>2024-04-14T12:03:00Z</time>
      </trkpt>
      <trkpt lat="45.91523" lon="3.37657">
        <ele>298</ele>
        <time>2024-04-14T12:03:01Z</time>
      </trkpt>
      <trkpt lat="45.91519" lon="3.37658">
        <ele>298</ele>
        <time>2024-04-14T12:03:02Z</time>
      </trkpt>
      <trkpt lat="45.91514" lon="3.37657">
        <ele>298.2</ele>
        <time>2024-04-14T12:03:03Z</time>
      </trkpt>
      <trkpt lat="45.91509" lon="3.37655">
        <ele>298.2</ele>
        <time>2024-04-14T12:03:04Z</time>
      </trkpt>
      <trkpt lat="45.91505" lon="3.37653">
        <ele>298.4</ele>
        <time>2024-04-14T12:03:05Z</time>
      </trkpt>
      <trkpt lat="45.91499" lon="3.37649">
        <ele>298.6</ele>
        <time>2024-04-14T12:03:06Z</time>
      </trkpt>
      <trkpt lat="45.91496" lon="3.37644">
        <ele>298.8</ele>
        <time>2024-04-14T12:03:07Z</time>
      </trkpt>
      <trkpt lat="45.91494" lon="3.37639">
        <ele>298.8</ele>
        <time>2024-04-14T12:03:08Z</time>
      </trkpt>
      <trkpt lat="45.91492" lon="3.37633">
        <ele>299</ele>
        <time>2024-04-14T12:03:09Z</time>
      </trkpt>
      <trkpt lat="45.91491" lon="3.37627">
        <ele>299</ele>
        <time>2024-04-14T12:03:10Z</time>
      </trkpt>
      <trkpt lat="45.9149" lon="3.37621">
        <ele>299.2</ele>
        <time>2024-04-14T12:03:11Z</time>
      </trkpt>
      <trkpt lat="45.91489" lon="3.37615">
        <ele>299.2</ele>
        <time>2024-04-14T12:03:12Z</time>
      </trkpt>
      <trkpt lat="45.91488" lon="3.37609">
        <ele>299.4</ele>
        <time>2024-04-14T12:03:13Z</time>
      </trkpt>
      <trkpt lat="45.91486" lon="3.37603">
        <ele>299.4</ele>
        <time>2024-04-14T12:03:14Z</time>
      </trkpt>
      <trkpt lat="45.91485" lon="3.37598">
        <ele>299.6</ele>
        <time>2024-04-14T12:03:15Z</time>
      </trkpt>
      <trkpt lat="45.91484" lon="3.37591">
        <ele>299.6</ele>
        <time>2024-04-14T12:03:16Z</time>
      </trkpt>
      <trkpt lat="45.91483" lon="3.37585">
        <ele>299.8</ele>
        <time>2024-04-14T12:03:17Z</time>
      </trkpt>
      <trkpt lat="45.91482" lon="3.37579">
        <ele>300</ele>
        <time>2024-04-14T12:03:18Z</time>
      </trkpt>
      <trkpt lat="45.9148" lon="3.37573">
        <ele>300</ele>
        <time>2024-04-14T12:03:19Z</time>
      </trkpt>
      <trkpt lat="45.91479" lon="3.37567">
        <ele>300.2</ele>
        <time>2024-04-14T12:03:20Z</time>
      </trkpt>
      <trkpt lat="45.91478" lon="3.37561">
        <ele>300.4</ele>
        <time>2024-04-14T12:03:21Z</time>
      </trkpt>
      <trkpt lat="45.91477" lon="3.37555">
        <ele>300.4</ele>
        <time>2024-04-14T12:03:22Z</time>
      </trkpt>
      <trkpt lat="45.91475" lon="3.37549">
        <ele>300.6</ele>
        <time>2024-04-14T12:03:23Z</time>
      </trkpt>
      <trkpt lat="45.91474" lon="3.37543">
        <ele>300.8</ele>
        <time>2024-04-14T12:03:24Z</time>
      </trkpt>
      <trkpt lat="45.91472" lon="3.37539">
        <ele>300.8</ele>
        <time>2024-04-14T12:03:25Z</time>
      </trkpt>
      <trkpt lat="45.91469" lon="3.37534">
        <ele>301</ele>
        <time>2024-04-14T12:03:26Z</time>
      </trkpt>
      <trkpt lat="45.91467" lon="3.37529">
        <ele>301.2</ele>
        <time>2024-04-14T12:03:27Z</time>
      </trkpt>
      <trkpt lat="45.91464" lon="3.37525">
        <ele>301.4</ele>
        <time>2024-04-14T12:03:28Z</time>
      </trkpt>
      <trkpt lat="45.91461" lon="3.3752">
        <ele>301.6</ele>
        <time>2024-04-14T12:03:29Z</time>
      </trkpt>
      <trkpt lat="45.91459" lon="3.37515">
        <ele>301.6</ele>
        <time>2024-04-14T12:03:30Z</time>
      </trkpt>
      <trkpt lat="45.91456" lon="3.37511">
        <ele>301.8</ele>
        <time>2024-04-14T12:03:31Z</time>
      </trkpt>
      <trkpt lat="45.91452" lon="3.37509">
        <ele>302</ele>
        <time>2024-04-14T12:03:32Z</time>
      </trkpt>
      <trkpt lat="45.91448" lon="3.37507">
        <ele>302.2</ele>
        <time>2024-04-14T12:03:33Z</time>
      </trkpt>
      <trkpt lat="45.91444" lon="3.37504">
        <ele>302.2</ele>
        <time>2024-04-14T12:03:34Z</time>
      </trkpt>
      <trkpt lat="45.91441" lon="3.37502">
        <ele>302.6</ele>
        <time>2024-04-14T12:03:35Z</time>
      </trkpt>
      <trkpt lat="45.91437" lon="3.375">
        <ele>302.8</ele>
        <time>2024-04-14T12:03:36Z</time>
      </trkpt>
      <trkpt lat="45.91433" lon="3.37492">
        <ele>302.8</ele>
        <time>2024-04-14T12:03:37Z</time>
      </trkpt>
      <trkpt lat="45.91431" lon="3.37486">
        <ele>303</ele>
        <time>2024-04-14T12:03:38Z</time>
      </trkpt>
      <trkpt lat="45.91429" lon="3.3748">
        <ele>303.2</ele>
        <time>2024-04-14T12:03:39Z</time>
      </trkpt>
      <trkpt lat="45.91427" lon="3.37474">
        <ele>303.2</ele>
        <time>2024-04-14T12:03:40Z</time>
      </trkpt>
      <trkpt lat="45.91425" lon="3.37468">
        <ele>303.4</ele>
        <time>2024-04-14T12:03:41Z</time>
      </trkpt>
      <trkpt lat="45.91423" lon="3.37461">
        <ele>303.6</ele>
        <time>2024-04-14T12:03:42Z</time>
      </trkpt>
      <trkpt lat="45.9142" lon="3.37455">
        <ele>303.6</ele>
        <time>2024-04-14T12:03:43Z</time>
      </trkpt>
      <trkpt lat="45.91418" lon="3.37447">
        <ele>303.8</ele>
        <time>2024-04-14T12:03:44Z</time>
      </trkpt>
      <trkpt lat="45.91415" lon="3.37439">
        <ele>303.8</ele>
        <time>2024-04-14T12:03:45Z</time>
      </trkpt>
      <trkpt lat="45.91412" lon="3.37431">
        <ele>304</ele>
        <time>2024-04-14T12:03:46Z</time>
      </trkpt>
      <trkpt lat="45.91409" lon="3.37422">
        <ele>304</ele>
        <time>2024-04-14T12:03:47Z</time>
      </trkpt>
      <trkpt lat="45.91406" lon="3.37413">
        <ele>304.2</ele>
        <time>2024-04-14T12:03:48Z</time>
      </trkpt>
      <trkpt lat="45.91403" lon="3.37404">
        <ele>304.2</ele>
        <time>2024-04-14T12:03:49Z</time>
      </trkpt>
      <trkpt lat="45.914" lon="3.37395">
        <ele>304.4</ele>
        <time>2024-04-14T12:03:50Z</time>
      </trkpt>
      <trkpt lat="45.91397" lon="3.37385">
        <ele>304.4</ele>
        <time>2024-04-14T12:03:51Z</time>
      </trkpt>
      <trkpt lat="45.91394" lon="3.37376">
        <ele>304.6</ele>
        <time>2024-04-14T12:03:52Z</time>
      </trkpt>
      <trkpt lat="45.91391" lon="3.37366">
        <ele>304.8</ele>
        <time>2024-04-14T12:03:53Z</time>
      </trkpt>
      <trkpt lat="45.91388" lon="3.37358">
        <ele>305</ele>
        <time>2024-04-14T12:03:54Z</time>
      </trkpt>
      <trkpt lat="45.91385" lon="3.37349">
        <ele>305.2</ele>
        <time>2024-04-14T12:03:55Z</time>
      </trkpt>
      <trkpt lat="45.91382" lon="3.37341">
        <ele>305.4</ele>
        <time>2024-04-14T12:03:56Z</time>
      </trkpt>
      <trkpt lat="45.91375" lon="3.37336">
        <ele>305.6</ele>
        <time>2024-04-14T12:03:57Z</time>
      </trkpt>
      <trkpt lat="45.91371" lon="3.37338">
        <ele>305.8</ele>
        <time>2024-04-14T12:03:58Z</time>
      </trkpt>
      <trkpt lat="45.91367" lon="3.37339">
        <ele>306</ele>
        <time>2024-04-14T12:03:59Z</time>
      </trkpt>
      <trkpt lat="45.91362" lon="3.37341">
        <ele>306.2</ele>
        <time>2024-04-14T12:04:00Z</time>
      </trkpt>
      <trkpt lat="45.91358" lon="3.37343">
        <ele>306.2</ele>
        <time>2024-04-14T12:04:01Z</time>
      </trkpt>
      <trkpt lat="45.9135" lon="3.37346">
        <ele>306.4</ele>
        <time>2024-04-14T12:04:02Z</time>
      </trkpt>
    </trkseg>
  </trk>
</gpx>